<?xml version="1.0" encoding="UTF-8" standalone="no" ?>
<gpx xmlns="http://www.topografix.com/GPX/1/1" xmlns:xsi="http://www.w3.org/2001/XMLSchema-instance" xsi:schemaLocation="http://www.topografix.com/GPX/1/1 http://www.topografix.com/GPX/1/1/gpx.xsd" version="1.1" creator="VisuGPX - https://www.visugpx.com">
  <metadata>
    <name>sortie dominicale en route</name>
    <desc><![CDATA[sortie dominicale en route]]></desc>
  </metadata>
  <trk>
    <name><![CDATA[2011-11-06 08:40]]></name>
    <desc><![CDATA[]]></desc>
    <trkseg>
      <trkpt lat="49.09512" lon="6.13178">
        <ele>147.2</ele>
        <time>2011-11-06T07:42:05Z</time>
      </trkpt>
      <trkpt lat="49.09511" lon="6.13156">
        <ele>176.1</ele>
        <time>2011-11-06T07:42:06Z</time>
      </trkpt>
      <trkpt lat="49.09505" lon="6.13112">
        <ele>163.4</ele>
        <time>2011-11-06T07:42:07Z</time>
      </trkpt>
      <trkpt lat="49.09498" lon="6.13096">
        <ele>167.4</ele>
        <time>2011-11-06T07:42:08Z</time>
      </trkpt>
      <trkpt lat="49.09494" lon="6.13083">
        <ele>164.9</ele>
        <time>2011-11-06T07:42:09Z</time>
      </trkpt>
      <trkpt lat="49.09488" lon="6.13066">
        <ele>160.8</ele>
        <time>2011-11-06T07:42:10Z</time>
      </trkpt>
      <trkpt lat="49.09485" lon="6.13058">
        <ele>161</ele>
        <time>2011-11-06T07:42:11Z</time>
      </trkpt>
      <trkpt lat="49.09483" lon="6.13044">
        <ele>173.8</ele>
        <time>2011-11-06T07:42:13Z</time>
      </trkpt>
      <trkpt lat="49.09479" lon="6.13036">
        <ele>173.8</ele>
        <time>2011-11-06T07:42:14Z</time>
      </trkpt>
      <trkpt lat="49.09476" lon="6.13029">
        <ele>179.7</ele>
        <time>2011-11-06T07:42:15Z</time>
      </trkpt>
      <trkpt lat="49.09472" lon="6.13021">
        <ele>178.4</ele>
        <time>2011-11-06T07:42:16Z</time>
      </trkpt>
      <trkpt lat="49.09466" lon="6.13012">
        <ele>177.9</ele>
        <time>2011-11-06T07:42:17Z</time>
      </trkpt>
      <trkpt lat="49.09461" lon="6.13004">
        <ele>177.9</ele>
        <time>2011-11-06T07:42:18Z</time>
      </trkpt>
      <trkpt lat="49.09457" lon="6.12997">
        <ele>182.5</ele>
        <time>2011-11-06T07:42:19Z</time>
      </trkpt>
      <trkpt lat="49.09451" lon="6.1299">
        <ele>182.6</ele>
        <time>2011-11-06T07:42:20Z</time>
      </trkpt>
      <trkpt lat="49.09448" lon="6.12982">
        <ele>184.9</ele>
        <time>2011-11-06T07:42:21Z</time>
      </trkpt>
      <trkpt lat="49.09444" lon="6.12973">
        <ele>184.9</ele>
        <time>2011-11-06T07:42:22Z</time>
      </trkpt>
      <trkpt lat="49.09444" lon="6.12962">
        <ele>183.1</ele>
        <time>2011-11-06T07:42:23Z</time>
      </trkpt>
      <trkpt lat="49.09441" lon="6.12952">
        <ele>182.8</ele>
        <time>2011-11-06T07:42:24Z</time>
      </trkpt>
      <trkpt lat="49.09438" lon="6.12941">
        <ele>182.7</ele>
        <time>2011-11-06T07:42:25Z</time>
      </trkpt>
      <trkpt lat="49.09435" lon="6.12931">
        <ele>184.2</ele>
        <time>2011-11-06T07:42:26Z</time>
      </trkpt>
      <trkpt lat="49.09433" lon="6.12923">
        <ele>183.5</ele>
        <time>2011-11-06T07:42:27Z</time>
      </trkpt>
      <trkpt lat="49.0943" lon="6.12914">
        <ele>183.4</ele>
        <time>2011-11-06T07:42:28Z</time>
      </trkpt>
      <trkpt lat="49.0943" lon="6.12902">
        <ele>184.2</ele>
        <time>2011-11-06T07:42:29Z</time>
      </trkpt>
      <trkpt lat="49.09428" lon="6.12891">
        <ele>184</ele>
        <time>2011-11-06T07:42:30Z</time>
      </trkpt>
      <trkpt lat="49.09427" lon="6.12882">
        <ele>183.7</ele>
        <time>2011-11-06T07:42:31Z</time>
      </trkpt>
      <trkpt lat="49.09425" lon="6.12873">
        <ele>184</ele>
        <time>2011-11-06T07:42:32Z</time>
      </trkpt>
      <trkpt lat="49.09421" lon="6.12864">
        <ele>183.9</ele>
        <time>2011-11-06T07:42:33Z</time>
      </trkpt>
      <trkpt lat="49.09422" lon="6.12854">
        <ele>185.8</ele>
        <time>2011-11-06T07:42:34Z</time>
      </trkpt>
      <trkpt lat="49.09422" lon="6.12845">
        <ele>186.8</ele>
        <time>2011-11-06T07:42:35Z</time>
      </trkpt>
      <trkpt lat="49.0942" lon="6.12838">
        <ele>187.2</ele>
        <time>2011-11-06T07:42:36Z</time>
      </trkpt>
      <trkpt lat="49.09414" lon="6.12833">
        <ele>189.3</ele>
        <time>2011-11-06T07:42:38Z</time>
      </trkpt>
      <trkpt lat="49.09406" lon="6.12843">
        <ele>189.1</ele>
        <time>2011-11-06T07:42:39Z</time>
      </trkpt>
      <trkpt lat="49.09402" lon="6.1285">
        <ele>189.2</ele>
        <time>2011-11-06T07:42:40Z</time>
      </trkpt>
      <trkpt lat="49.09398" lon="6.12858">
        <ele>189.6</ele>
        <time>2011-11-06T07:42:41Z</time>
      </trkpt>
      <trkpt lat="49.09394" lon="6.12864">
        <ele>189.9</ele>
        <time>2011-11-06T07:42:42Z</time>
      </trkpt>
      <trkpt lat="49.09389" lon="6.12871">
        <ele>189.5</ele>
        <time>2011-11-06T07:42:43Z</time>
      </trkpt>
      <trkpt lat="49.09383" lon="6.12878">
        <ele>190.5</ele>
        <time>2011-11-06T07:42:44Z</time>
      </trkpt>
      <trkpt lat="49.09379" lon="6.12887">
        <ele>190.7</ele>
        <time>2011-11-06T07:42:45Z</time>
      </trkpt>
      <trkpt lat="49.09375" lon="6.12894">
        <ele>192.1</ele>
        <time>2011-11-06T07:42:46Z</time>
      </trkpt>
      <trkpt lat="49.09368" lon="6.12902">
        <ele>191.4</ele>
        <time>2011-11-06T07:42:47Z</time>
      </trkpt>
      <trkpt lat="49.09364" lon="6.12908">
        <ele>190.6</ele>
        <time>2011-11-06T07:42:48Z</time>
      </trkpt>
      <trkpt lat="49.09358" lon="6.12918">
        <ele>191.3</ele>
        <time>2011-11-06T07:42:49Z</time>
      </trkpt>
      <trkpt lat="49.09351" lon="6.12925">
        <ele>192.1</ele>
        <time>2011-11-06T07:42:50Z</time>
      </trkpt>
      <trkpt lat="49.09348" lon="6.12933">
        <ele>193.9</ele>
        <time>2011-11-06T07:42:51Z</time>
      </trkpt>
      <trkpt lat="49.09344" lon="6.12941">
        <ele>194.1</ele>
        <time>2011-11-06T07:42:52Z</time>
      </trkpt>
      <trkpt lat="49.09338" lon="6.12948">
        <ele>195.4</ele>
        <time>2011-11-06T07:42:53Z</time>
      </trkpt>
      <trkpt lat="49.0934" lon="6.12958">
        <ele>202.4</ele>
        <time>2011-11-06T07:42:54Z</time>
      </trkpt>
      <trkpt lat="49.09338" lon="6.12965">
        <ele>205.5</ele>
        <time>2011-11-06T07:42:55Z</time>
      </trkpt>
      <trkpt lat="49.09332" lon="6.12973">
        <ele>205.3</ele>
        <time>2011-11-06T07:42:56Z</time>
      </trkpt>
      <trkpt lat="49.09323" lon="6.12978">
        <ele>205.3</ele>
        <time>2011-11-06T07:42:57Z</time>
      </trkpt>
      <trkpt lat="49.09317" lon="6.12984">
        <ele>204.9</ele>
        <time>2011-11-06T07:42:58Z</time>
      </trkpt>
      <trkpt lat="49.09312" lon="6.12991">
        <ele>205.5</ele>
        <time>2011-11-06T07:42:59Z</time>
      </trkpt>
      <trkpt lat="49.09309" lon="6.13">
        <ele>205.7</ele>
        <time>2011-11-06T07:43:00Z</time>
      </trkpt>
      <trkpt lat="49.09305" lon="6.13008">
        <ele>205.7</ele>
        <time>2011-11-06T07:43:01Z</time>
      </trkpt>
      <trkpt lat="49.093" lon="6.13014">
        <ele>206.1</ele>
        <time>2011-11-06T07:43:02Z</time>
      </trkpt>
      <trkpt lat="49.09296" lon="6.1302">
        <ele>207.5</ele>
        <time>2011-11-06T07:43:04Z</time>
      </trkpt>
      <trkpt lat="49.09293" lon="6.13026">
        <ele>212.3</ele>
        <time>2011-11-06T07:43:21Z</time>
      </trkpt>
      <trkpt lat="49.09293" lon="6.13038">
        <ele>211.8</ele>
        <time>2011-11-06T07:43:23Z</time>
      </trkpt>
      <trkpt lat="49.09293" lon="6.13045">
        <ele>212.1</ele>
        <time>2011-11-06T07:43:24Z</time>
      </trkpt>
      <trkpt lat="49.09294" lon="6.13057">
        <ele>212.4</ele>
        <time>2011-11-06T07:43:26Z</time>
      </trkpt>
      <trkpt lat="49.09292" lon="6.13067">
        <ele>211.7</ele>
        <time>2011-11-06T07:43:27Z</time>
      </trkpt>
      <trkpt lat="49.0929" lon="6.13074">
        <ele>212.2</ele>
        <time>2011-11-06T07:43:28Z</time>
      </trkpt>
      <trkpt lat="49.09285" lon="6.13078">
        <ele>211</ele>
        <time>2011-11-06T07:43:29Z</time>
      </trkpt>
      <trkpt lat="49.09281" lon="6.13083">
        <ele>209.8</ele>
        <time>2011-11-06T07:43:30Z</time>
      </trkpt>
      <trkpt lat="49.09276" lon="6.13089">
        <ele>208.5</ele>
        <time>2011-11-06T07:43:32Z</time>
      </trkpt>
      <trkpt lat="49.09268" lon="6.13086">
        <ele>207.8</ele>
        <time>2011-11-06T07:43:34Z</time>
      </trkpt>
      <trkpt lat="49.09261" lon="6.13082">
        <ele>208.7</ele>
        <time>2011-11-06T07:43:35Z</time>
      </trkpt>
      <trkpt lat="49.09253" lon="6.13078">
        <ele>209.1</ele>
        <time>2011-11-06T07:43:36Z</time>
      </trkpt>
      <trkpt lat="49.09245" lon="6.13074">
        <ele>209.4</ele>
        <time>2011-11-06T07:43:37Z</time>
      </trkpt>
      <trkpt lat="49.09237" lon="6.1307">
        <ele>209.4</ele>
        <time>2011-11-06T07:43:38Z</time>
      </trkpt>
      <trkpt lat="49.09229" lon="6.13066">
        <ele>209</ele>
        <time>2011-11-06T07:43:39Z</time>
      </trkpt>
      <trkpt lat="49.09222" lon="6.13061">
        <ele>209.1</ele>
        <time>2011-11-06T07:43:40Z</time>
      </trkpt>
      <trkpt lat="49.09214" lon="6.13056">
        <ele>209</ele>
        <time>2011-11-06T07:43:41Z</time>
      </trkpt>
      <trkpt lat="49.09208" lon="6.13052">
        <ele>209</ele>
        <time>2011-11-06T07:43:42Z</time>
      </trkpt>
      <trkpt lat="49.09201" lon="6.13048">
        <ele>209</ele>
        <time>2011-11-06T07:43:43Z</time>
      </trkpt>
      <trkpt lat="49.09174" lon="6.13026">
        <ele>208.8</ele>
        <time>2011-11-06T07:43:47Z</time>
      </trkpt>
      <trkpt lat="49.09168" lon="6.13023">
        <ele>208.7</ele>
        <time>2011-11-06T07:43:48Z</time>
      </trkpt>
      <trkpt lat="49.0916" lon="6.13019">
        <ele>208.8</ele>
        <time>2011-11-06T07:43:49Z</time>
      </trkpt>
      <trkpt lat="49.0915" lon="6.13014">
        <ele>208.8</ele>
        <time>2011-11-06T07:43:50Z</time>
      </trkpt>
      <trkpt lat="49.09141" lon="6.13008">
        <ele>208.4</ele>
        <time>2011-11-06T07:43:51Z</time>
      </trkpt>
      <trkpt lat="49.09136" lon="6.13">
        <ele>207.6</ele>
        <time>2011-11-06T07:43:52Z</time>
      </trkpt>
      <trkpt lat="49.0913" lon="6.12994">
        <ele>207.6</ele>
        <time>2011-11-06T07:43:53Z</time>
      </trkpt>
      <trkpt lat="49.09123" lon="6.12983">
        <ele>208.1</ele>
        <time>2011-11-06T07:43:54Z</time>
      </trkpt>
      <trkpt lat="49.09118" lon="6.12972">
        <ele>207.5</ele>
        <time>2011-11-06T07:43:55Z</time>
      </trkpt>
      <trkpt lat="49.09113" lon="6.12963">
        <ele>207.5</ele>
        <time>2011-11-06T07:43:56Z</time>
      </trkpt>
      <trkpt lat="49.09108" lon="6.12953">
        <ele>207</ele>
        <time>2011-11-06T07:43:57Z</time>
      </trkpt>
      <trkpt lat="49.09108" lon="6.12942">
        <ele>206.9</ele>
        <time>2011-11-06T07:43:58Z</time>
      </trkpt>
      <trkpt lat="49.09103" lon="6.12929">
        <ele>207.3</ele>
        <time>2011-11-06T07:43:59Z</time>
      </trkpt>
      <trkpt lat="49.091" lon="6.12918">
        <ele>207.2</ele>
        <time>2011-11-06T07:44:00Z</time>
      </trkpt>
      <trkpt lat="49.09098" lon="6.12908">
        <ele>206.9</ele>
        <time>2011-11-06T07:44:01Z</time>
      </trkpt>
      <trkpt lat="49.09097" lon="6.12895">
        <ele>206.4</ele>
        <time>2011-11-06T07:44:02Z</time>
      </trkpt>
      <trkpt lat="49.09094" lon="6.12884">
        <ele>206.4</ele>
        <time>2011-11-06T07:44:03Z</time>
      </trkpt>
      <trkpt lat="49.09092" lon="6.12872">
        <ele>206.6</ele>
        <time>2011-11-06T07:44:04Z</time>
      </trkpt>
      <trkpt lat="49.09091" lon="6.12861">
        <ele>206.2</ele>
        <time>2011-11-06T07:44:05Z</time>
      </trkpt>
      <trkpt lat="49.09091" lon="6.1285">
        <ele>206</ele>
        <time>2011-11-06T07:44:06Z</time>
      </trkpt>
      <trkpt lat="49.09094" lon="6.12839">
        <ele>206.2</ele>
        <time>2011-11-06T07:44:07Z</time>
      </trkpt>
      <trkpt lat="49.09094" lon="6.12827">
        <ele>206.1</ele>
        <time>2011-11-06T07:44:08Z</time>
      </trkpt>
      <trkpt lat="49.0909" lon="6.12817">
        <ele>205.7</ele>
        <time>2011-11-06T07:44:09Z</time>
      </trkpt>
      <trkpt lat="49.09086" lon="6.12806">
        <ele>205.6</ele>
        <time>2011-11-06T07:44:10Z</time>
      </trkpt>
      <trkpt lat="49.09082" lon="6.12798">
        <ele>205</ele>
        <time>2011-11-06T07:44:11Z</time>
      </trkpt>
      <trkpt lat="49.09078" lon="6.12792">
        <ele>205</ele>
        <time>2011-11-06T07:44:12Z</time>
      </trkpt>
      <trkpt lat="49.09075" lon="6.12781">
        <ele>204.9</ele>
        <time>2011-11-06T07:44:13Z</time>
      </trkpt>
      <trkpt lat="49.09072" lon="6.12771">
        <ele>204.5</ele>
        <time>2011-11-06T07:44:14Z</time>
      </trkpt>
      <trkpt lat="49.09068" lon="6.12761">
        <ele>204.8</ele>
        <time>2011-11-06T07:44:15Z</time>
      </trkpt>
      <trkpt lat="49.09064" lon="6.12751">
        <ele>204.8</ele>
        <time>2011-11-06T07:44:16Z</time>
      </trkpt>
      <trkpt lat="49.09063" lon="6.1274">
        <ele>204.9</ele>
        <time>2011-11-06T07:44:17Z</time>
      </trkpt>
      <trkpt lat="49.0906" lon="6.1273">
        <ele>204.9</ele>
        <time>2011-11-06T07:44:18Z</time>
      </trkpt>
      <trkpt lat="49.09057" lon="6.12717">
        <ele>204.5</ele>
        <time>2011-11-06T07:44:19Z</time>
      </trkpt>
      <trkpt lat="49.09053" lon="6.12707">
        <ele>204.2</ele>
        <time>2011-11-06T07:44:20Z</time>
      </trkpt>
      <trkpt lat="49.09051" lon="6.12692">
        <ele>203.6</ele>
        <time>2011-11-06T07:44:21Z</time>
      </trkpt>
      <trkpt lat="49.0905" lon="6.12681">
        <ele>203.6</ele>
        <time>2011-11-06T07:44:22Z</time>
      </trkpt>
      <trkpt lat="49.09042" lon="6.12671">
        <ele>203.6</ele>
        <time>2011-11-06T07:44:23Z</time>
      </trkpt>
      <trkpt lat="49.09041" lon="6.12661">
        <ele>203.5</ele>
        <time>2011-11-06T07:44:24Z</time>
      </trkpt>
      <trkpt lat="49.09038" lon="6.12649">
        <ele>203.6</ele>
        <time>2011-11-06T07:44:25Z</time>
      </trkpt>
      <trkpt lat="49.09035" lon="6.12638">
        <ele>203.2</ele>
        <time>2011-11-06T07:44:26Z</time>
      </trkpt>
      <trkpt lat="49.09033" lon="6.12626">
        <ele>203.3</ele>
        <time>2011-11-06T07:44:27Z</time>
      </trkpt>
      <trkpt lat="49.0903" lon="6.12617">
        <ele>203.1</ele>
        <time>2011-11-06T07:44:28Z</time>
      </trkpt>
      <trkpt lat="49.09027" lon="6.12608">
        <ele>203</ele>
        <time>2011-11-06T07:44:29Z</time>
      </trkpt>
      <trkpt lat="49.09029" lon="6.12598">
        <ele>203.2</ele>
        <time>2011-11-06T07:44:30Z</time>
      </trkpt>
      <trkpt lat="49.09029" lon="6.1259">
        <ele>203.1</ele>
        <time>2011-11-06T07:44:31Z</time>
      </trkpt>
      <trkpt lat="49.09028" lon="6.12581">
        <ele>203.4</ele>
        <time>2011-11-06T07:44:32Z</time>
      </trkpt>
      <trkpt lat="49.09027" lon="6.12569">
        <ele>202.7</ele>
        <time>2011-11-06T07:44:33Z</time>
      </trkpt>
      <trkpt lat="49.09024" lon="6.12559">
        <ele>202.7</ele>
        <time>2011-11-06T07:44:34Z</time>
      </trkpt>
      <trkpt lat="49.09021" lon="6.12546">
        <ele>202.3</ele>
        <time>2011-11-06T07:44:35Z</time>
      </trkpt>
      <trkpt lat="49.09016" lon="6.12537">
        <ele>201.9</ele>
        <time>2011-11-06T07:44:36Z</time>
      </trkpt>
      <trkpt lat="49.09011" lon="6.12523">
        <ele>201.6</ele>
        <time>2011-11-06T07:44:37Z</time>
      </trkpt>
      <trkpt lat="49.09006" lon="6.1251">
        <ele>201</ele>
        <time>2011-11-06T07:44:38Z</time>
      </trkpt>
      <trkpt lat="49.09" lon="6.12498">
        <ele>200.7</ele>
        <time>2011-11-06T07:44:39Z</time>
      </trkpt>
      <trkpt lat="49.08995" lon="6.12487">
        <ele>201.4</ele>
        <time>2011-11-06T07:44:40Z</time>
      </trkpt>
      <trkpt lat="49.08989" lon="6.12476">
        <ele>201.4</ele>
        <time>2011-11-06T07:44:41Z</time>
      </trkpt>
      <trkpt lat="49.08984" lon="6.12467">
        <ele>201</ele>
        <time>2011-11-06T07:44:42Z</time>
      </trkpt>
      <trkpt lat="49.0898" lon="6.12457">
        <ele>200.9</ele>
        <time>2011-11-06T07:44:43Z</time>
      </trkpt>
      <trkpt lat="49.08976" lon="6.12447">
        <ele>200.5</ele>
        <time>2011-11-06T07:44:44Z</time>
      </trkpt>
      <trkpt lat="49.08972" lon="6.12436">
        <ele>200.1</ele>
        <time>2011-11-06T07:44:45Z</time>
      </trkpt>
      <trkpt lat="49.08968" lon="6.12426">
        <ele>199.9</ele>
        <time>2011-11-06T07:44:46Z</time>
      </trkpt>
      <trkpt lat="49.08966" lon="6.12414">
        <ele>200.2</ele>
        <time>2011-11-06T07:44:47Z</time>
      </trkpt>
      <trkpt lat="49.08962" lon="6.12404">
        <ele>200.4</ele>
        <time>2011-11-06T07:44:48Z</time>
      </trkpt>
      <trkpt lat="49.08956" lon="6.12395">
        <ele>200.7</ele>
        <time>2011-11-06T07:44:49Z</time>
      </trkpt>
      <trkpt lat="49.08952" lon="6.12382">
        <ele>200.5</ele>
        <time>2011-11-06T07:44:50Z</time>
      </trkpt>
      <trkpt lat="49.0895" lon="6.12371">
        <ele>199.9</ele>
        <time>2011-11-06T07:44:51Z</time>
      </trkpt>
      <trkpt lat="49.08947" lon="6.1236">
        <ele>199.5</ele>
        <time>2011-11-06T07:44:52Z</time>
      </trkpt>
      <trkpt lat="49.08942" lon="6.12351">
        <ele>199.5</ele>
        <time>2011-11-06T07:44:53Z</time>
      </trkpt>
      <trkpt lat="49.08939" lon="6.12341">
        <ele>201.3</ele>
        <time>2011-11-06T07:44:54Z</time>
      </trkpt>
      <trkpt lat="49.08935" lon="6.1233">
        <ele>201</ele>
        <time>2011-11-06T07:44:55Z</time>
      </trkpt>
      <trkpt lat="49.08932" lon="6.12318">
        <ele>201.3</ele>
        <time>2011-11-06T07:44:56Z</time>
      </trkpt>
      <trkpt lat="49.0893" lon="6.12306">
        <ele>200.9</ele>
        <time>2011-11-06T07:44:57Z</time>
      </trkpt>
      <trkpt lat="49.08926" lon="6.12292">
        <ele>200.5</ele>
        <time>2011-11-06T07:44:58Z</time>
      </trkpt>
      <trkpt lat="49.08922" lon="6.12282">
        <ele>200.5</ele>
        <time>2011-11-06T07:44:59Z</time>
      </trkpt>
      <trkpt lat="49.08919" lon="6.12269">
        <ele>200.2</ele>
        <time>2011-11-06T07:45:00Z</time>
      </trkpt>
      <trkpt lat="49.08914" lon="6.12259">
        <ele>200.5</ele>
        <time>2011-11-06T07:45:01Z</time>
      </trkpt>
      <trkpt lat="49.08912" lon="6.12246">
        <ele>200.7</ele>
        <time>2011-11-06T07:45:02Z</time>
      </trkpt>
      <trkpt lat="49.08907" lon="6.12238">
        <ele>200.5</ele>
        <time>2011-11-06T07:45:03Z</time>
      </trkpt>
      <trkpt lat="49.08903" lon="6.1223">
        <ele>200.5</ele>
        <time>2011-11-06T07:45:04Z</time>
      </trkpt>
      <trkpt lat="49.08902" lon="6.12218">
        <ele>200.7</ele>
        <time>2011-11-06T07:45:05Z</time>
      </trkpt>
      <trkpt lat="49.08899" lon="6.12206">
        <ele>200.4</ele>
        <time>2011-11-06T07:45:06Z</time>
      </trkpt>
      <trkpt lat="49.08897" lon="6.12195">
        <ele>200.2</ele>
        <time>2011-11-06T07:45:07Z</time>
      </trkpt>
      <trkpt lat="49.08893" lon="6.12186">
        <ele>199.7</ele>
        <time>2011-11-06T07:45:08Z</time>
      </trkpt>
      <trkpt lat="49.08891" lon="6.12172">
        <ele>199.4</ele>
        <time>2011-11-06T07:45:09Z</time>
      </trkpt>
      <trkpt lat="49.08888" lon="6.12161">
        <ele>199.3</ele>
        <time>2011-11-06T07:45:10Z</time>
      </trkpt>
      <trkpt lat="49.08888" lon="6.1215">
        <ele>198.6</ele>
        <time>2011-11-06T07:45:11Z</time>
      </trkpt>
      <trkpt lat="49.08882" lon="6.12138">
        <ele>198</ele>
        <time>2011-11-06T07:45:12Z</time>
      </trkpt>
      <trkpt lat="49.0888" lon="6.12123">
        <ele>197.6</ele>
        <time>2011-11-06T07:45:13Z</time>
      </trkpt>
      <trkpt lat="49.08877" lon="6.12112">
        <ele>197.5</ele>
        <time>2011-11-06T07:45:14Z</time>
      </trkpt>
      <trkpt lat="49.08875" lon="6.12101">
        <ele>197.5</ele>
        <time>2011-11-06T07:45:15Z</time>
      </trkpt>
      <trkpt lat="49.08875" lon="6.12091">
        <ele>197.6</ele>
        <time>2011-11-06T07:45:16Z</time>
      </trkpt>
      <trkpt lat="49.08875" lon="6.12077">
        <ele>197.4</ele>
        <time>2011-11-06T07:45:17Z</time>
      </trkpt>
      <trkpt lat="49.08873" lon="6.12065">
        <ele>197.3</ele>
        <time>2011-11-06T07:45:18Z</time>
      </trkpt>
      <trkpt lat="49.08871" lon="6.12053">
        <ele>197.2</ele>
        <time>2011-11-06T07:45:19Z</time>
      </trkpt>
      <trkpt lat="49.08868" lon="6.12042">
        <ele>197.8</ele>
        <time>2011-11-06T07:45:20Z</time>
      </trkpt>
      <trkpt lat="49.08863" lon="6.12033">
        <ele>198.2</ele>
        <time>2011-11-06T07:45:21Z</time>
      </trkpt>
      <trkpt lat="49.08863" lon="6.12023">
        <ele>198.1</ele>
        <time>2011-11-06T07:45:22Z</time>
      </trkpt>
      <trkpt lat="49.08861" lon="6.12011">
        <ele>198</ele>
        <time>2011-11-06T07:45:23Z</time>
      </trkpt>
      <trkpt lat="49.08861" lon="6.12001">
        <ele>197.9</ele>
        <time>2011-11-06T07:45:24Z</time>
      </trkpt>
      <trkpt lat="49.08854" lon="6.1199">
        <ele>198.6</ele>
        <time>2011-11-06T07:45:25Z</time>
      </trkpt>
      <trkpt lat="49.0885" lon="6.11979">
        <ele>198.6</ele>
        <time>2011-11-06T07:45:26Z</time>
      </trkpt>
      <trkpt lat="49.08848" lon="6.11967">
        <ele>199.1</ele>
        <time>2011-11-06T07:45:27Z</time>
      </trkpt>
      <trkpt lat="49.08845" lon="6.11956">
        <ele>198.6</ele>
        <time>2011-11-06T07:45:28Z</time>
      </trkpt>
      <trkpt lat="49.08841" lon="6.11945">
        <ele>198.4</ele>
        <time>2011-11-06T07:45:29Z</time>
      </trkpt>
      <trkpt lat="49.08838" lon="6.11932">
        <ele>198.3</ele>
        <time>2011-11-06T07:45:30Z</time>
      </trkpt>
      <trkpt lat="49.08835" lon="6.11921">
        <ele>198.1</ele>
        <time>2011-11-06T07:45:31Z</time>
      </trkpt>
      <trkpt lat="49.08831" lon="6.11912">
        <ele>198</ele>
        <time>2011-11-06T07:45:32Z</time>
      </trkpt>
      <trkpt lat="49.08828" lon="6.11898">
        <ele>197.3</ele>
        <time>2011-11-06T07:45:33Z</time>
      </trkpt>
      <trkpt lat="49.08822" lon="6.11887">
        <ele>196.9</ele>
        <time>2011-11-06T07:45:34Z</time>
      </trkpt>
      <trkpt lat="49.08818" lon="6.11877">
        <ele>196.4</ele>
        <time>2011-11-06T07:45:35Z</time>
      </trkpt>
      <trkpt lat="49.08816" lon="6.11866">
        <ele>197.4</ele>
        <time>2011-11-06T07:45:36Z</time>
      </trkpt>
      <trkpt lat="49.08813" lon="6.11856">
        <ele>197.2</ele>
        <time>2011-11-06T07:45:37Z</time>
      </trkpt>
      <trkpt lat="49.0881" lon="6.11849">
        <ele>197.3</ele>
        <time>2011-11-06T07:45:38Z</time>
      </trkpt>
      <trkpt lat="49.08802" lon="6.11839">
        <ele>197.3</ele>
        <time>2011-11-06T07:45:39Z</time>
      </trkpt>
      <trkpt lat="49.08798" lon="6.11824">
        <ele>199.8</ele>
        <time>2011-11-06T07:45:41Z</time>
      </trkpt>
      <trkpt lat="49.08793" lon="6.11813">
        <ele>199.8</ele>
        <time>2011-11-06T07:45:42Z</time>
      </trkpt>
      <trkpt lat="49.08794" lon="6.11804">
        <ele>201.9</ele>
        <time>2011-11-06T07:45:43Z</time>
      </trkpt>
      <trkpt lat="49.08788" lon="6.11792">
        <ele>201.4</ele>
        <time>2011-11-06T07:45:44Z</time>
      </trkpt>
      <trkpt lat="49.08784" lon="6.11782">
        <ele>201.5</ele>
        <time>2011-11-06T07:45:45Z</time>
      </trkpt>
      <trkpt lat="49.08779" lon="6.11772">
        <ele>201.3</ele>
        <time>2011-11-06T07:45:46Z</time>
      </trkpt>
      <trkpt lat="49.08776" lon="6.1176">
        <ele>201.4</ele>
        <time>2011-11-06T07:45:47Z</time>
      </trkpt>
      <trkpt lat="49.08774" lon="6.11753">
        <ele>204.1</ele>
        <time>2011-11-06T07:45:48Z</time>
      </trkpt>
      <trkpt lat="49.08768" lon="6.11748">
        <ele>204.8</ele>
        <time>2011-11-06T07:45:49Z</time>
      </trkpt>
      <trkpt lat="49.08759" lon="6.11742">
        <ele>205.6</ele>
        <time>2011-11-06T07:45:50Z</time>
      </trkpt>
      <trkpt lat="49.08747" lon="6.11733">
        <ele>201.6</ele>
        <time>2011-11-06T07:45:51Z</time>
      </trkpt>
      <trkpt lat="49.08739" lon="6.11725">
        <ele>202.1</ele>
        <time>2011-11-06T07:45:52Z</time>
      </trkpt>
      <trkpt lat="49.0873" lon="6.11717">
        <ele>202.6</ele>
        <time>2011-11-06T07:45:53Z</time>
      </trkpt>
      <trkpt lat="49.08724" lon="6.11709">
        <ele>202.6</ele>
        <time>2011-11-06T07:45:54Z</time>
      </trkpt>
      <trkpt lat="49.08717" lon="6.11696">
        <ele>202.3</ele>
        <time>2011-11-06T07:45:55Z</time>
      </trkpt>
      <trkpt lat="49.08687" lon="6.1166">
        <ele>233.9</ele>
        <time>2011-11-06T07:46:01Z</time>
      </trkpt>
      <trkpt lat="49.08666" lon="6.11622">
        <ele>212.7</ele>
        <time>2011-11-06T07:46:02Z</time>
      </trkpt>
      <trkpt lat="49.08647" lon="6.11664">
        <ele>212.3</ele>
        <time>2011-11-06T07:46:03Z</time>
      </trkpt>
      <trkpt lat="49.08702" lon="6.11628">
        <ele>274.6</ele>
        <time>2011-11-06T07:46:04Z</time>
      </trkpt>
      <trkpt lat="49.08674" lon="6.1161">
        <ele>252</ele>
        <time>2011-11-06T07:46:05Z</time>
      </trkpt>
      <trkpt lat="49.08652" lon="6.11602">
        <ele>240.4</ele>
        <time>2011-11-06T07:46:06Z</time>
      </trkpt>
      <trkpt lat="49.0866" lon="6.11591">
        <ele>242.7</ele>
        <time>2011-11-06T07:46:07Z</time>
      </trkpt>
      <trkpt lat="49.0864" lon="6.11594">
        <ele>219.2</ele>
        <time>2011-11-06T07:46:08Z</time>
      </trkpt>
      <trkpt lat="49.08633" lon="6.11577">
        <ele>229.6</ele>
        <time>2011-11-06T07:46:09Z</time>
      </trkpt>
      <trkpt lat="49.08623" lon="6.11571">
        <ele>230</ele>
        <time>2011-11-06T07:46:10Z</time>
      </trkpt>
      <trkpt lat="49.08608" lon="6.11534">
        <ele>212</ele>
        <time>2011-11-06T07:46:11Z</time>
      </trkpt>
      <trkpt lat="49.08602" lon="6.11524">
        <ele>212</ele>
        <time>2011-11-06T07:46:12Z</time>
      </trkpt>
      <trkpt lat="49.08598" lon="6.11512">
        <ele>215.6</ele>
        <time>2011-11-06T07:46:14Z</time>
      </trkpt>
      <trkpt lat="49.08588" lon="6.11507">
        <ele>204.4</ele>
        <time>2011-11-06T07:46:15Z</time>
      </trkpt>
      <trkpt lat="49.08568" lon="6.11496">
        <ele>193.2</ele>
        <time>2011-11-06T07:46:16Z</time>
      </trkpt>
      <trkpt lat="49.08615" lon="6.11488">
        <ele>243.9</ele>
        <time>2011-11-06T07:46:17Z</time>
      </trkpt>
      <trkpt lat="49.08608" lon="6.11478">
        <ele>243.9</ele>
        <time>2011-11-06T07:46:18Z</time>
      </trkpt>
      <trkpt lat="49.08585" lon="6.11463">
        <ele>231.9</ele>
        <time>2011-11-06T07:46:19Z</time>
      </trkpt>
      <trkpt lat="49.08534" lon="6.11459">
        <ele>205.2</ele>
        <time>2011-11-06T07:46:20Z</time>
      </trkpt>
      <trkpt lat="49.08577" lon="6.1148">
        <ele>259.2</ele>
        <time>2011-11-06T07:46:21Z</time>
      </trkpt>
      <trkpt lat="49.08566" lon="6.11462">
        <ele>251.3</ele>
        <time>2011-11-06T07:46:22Z</time>
      </trkpt>
      <trkpt lat="49.0855" lon="6.11444">
        <ele>238.1</ele>
        <time>2011-11-06T07:46:23Z</time>
      </trkpt>
      <trkpt lat="49.08544" lon="6.11409">
        <ele>229.5</ele>
        <time>2011-11-06T07:46:24Z</time>
      </trkpt>
      <trkpt lat="49.08528" lon="6.11418">
        <ele>223.6</ele>
        <time>2011-11-06T07:46:25Z</time>
      </trkpt>
      <trkpt lat="49.08525" lon="6.114">
        <ele>227.8</ele>
        <time>2011-11-06T07:46:26Z</time>
      </trkpt>
      <trkpt lat="49.08506" lon="6.11391">
        <ele>211</ele>
        <time>2011-11-06T07:46:27Z</time>
      </trkpt>
      <trkpt lat="49.08501" lon="6.1138">
        <ele>203.9</ele>
        <time>2011-11-06T07:46:28Z</time>
      </trkpt>
      <trkpt lat="49.08504" lon="6.11374">
        <ele>221.6</ele>
        <time>2011-11-06T07:46:30Z</time>
      </trkpt>
      <trkpt lat="49.08499" lon="6.1136">
        <ele>218.3</ele>
        <time>2011-11-06T07:46:31Z</time>
      </trkpt>
      <trkpt lat="49.0849" lon="6.11349">
        <ele>217.6</ele>
        <time>2011-11-06T07:46:33Z</time>
      </trkpt>
      <trkpt lat="49.08485" lon="6.11336">
        <ele>214.1</ele>
        <time>2011-11-06T07:46:34Z</time>
      </trkpt>
      <trkpt lat="49.08477" lon="6.11329">
        <ele>213.5</ele>
        <time>2011-11-06T07:46:35Z</time>
      </trkpt>
      <trkpt lat="49.08463" lon="6.1132">
        <ele>193.2</ele>
        <time>2011-11-06T07:46:36Z</time>
      </trkpt>
      <trkpt lat="49.08458" lon="6.11312">
        <ele>193.8</ele>
        <time>2011-11-06T07:46:37Z</time>
      </trkpt>
      <trkpt lat="49.08454" lon="6.1132">
        <ele>226.7</ele>
        <time>2011-11-06T07:46:38Z</time>
      </trkpt>
      <trkpt lat="49.08462" lon="6.11295">
        <ele>227.3</ele>
        <time>2011-11-06T07:46:39Z</time>
      </trkpt>
      <trkpt lat="49.0845" lon="6.11284">
        <ele>213.3</ele>
        <time>2011-11-06T07:46:40Z</time>
      </trkpt>
      <trkpt lat="49.08429" lon="6.11256">
        <ele>207</ele>
        <time>2011-11-06T07:46:42Z</time>
      </trkpt>
      <trkpt lat="49.08412" lon="6.11267">
        <ele>218.9</ele>
        <time>2011-11-06T07:46:43Z</time>
      </trkpt>
      <trkpt lat="49.0844" lon="6.11248">
        <ele>218.8</ele>
        <time>2011-11-06T07:46:44Z</time>
      </trkpt>
      <trkpt lat="49.08426" lon="6.11252">
        <ele>219.1</ele>
        <time>2011-11-06T07:46:45Z</time>
      </trkpt>
      <trkpt lat="49.08421" lon="6.11261">
        <ele>239.5</ele>
        <time>2011-11-06T07:46:46Z</time>
      </trkpt>
      <trkpt lat="49.08412" lon="6.1124">
        <ele>232.6</ele>
        <time>2011-11-06T07:46:47Z</time>
      </trkpt>
      <trkpt lat="49.08411" lon="6.11225">
        <ele>241.2</ele>
        <time>2011-11-06T07:46:48Z</time>
      </trkpt>
      <trkpt lat="49.08406" lon="6.11224">
        <ele>234.9</ele>
        <time>2011-11-06T07:46:49Z</time>
      </trkpt>
      <trkpt lat="49.084" lon="6.11212">
        <ele>239.2</ele>
        <time>2011-11-06T07:46:50Z</time>
      </trkpt>
      <trkpt lat="49.08384" lon="6.11188">
        <ele>231</ele>
        <time>2011-11-06T07:46:51Z</time>
      </trkpt>
      <trkpt lat="49.0839" lon="6.11185">
        <ele>232.5</ele>
        <time>2011-11-06T07:46:53Z</time>
      </trkpt>
      <trkpt lat="49.08389" lon="6.11127">
        <ele>230.9</ele>
        <time>2011-11-06T07:46:54Z</time>
      </trkpt>
      <trkpt lat="49.08383" lon="6.11146">
        <ele>235.9</ele>
        <time>2011-11-06T07:46:55Z</time>
      </trkpt>
      <trkpt lat="49.08342" lon="6.11134">
        <ele>220.1</ele>
        <time>2011-11-06T07:46:58Z</time>
      </trkpt>
      <trkpt lat="49.08336" lon="6.11125">
        <ele>220.1</ele>
        <time>2011-11-06T07:46:59Z</time>
      </trkpt>
      <trkpt lat="49.08329" lon="6.11105">
        <ele>215.2</ele>
        <time>2011-11-06T07:47:01Z</time>
      </trkpt>
      <trkpt lat="49.08322" lon="6.11092">
        <ele>215.6</ele>
        <time>2011-11-06T07:47:02Z</time>
      </trkpt>
      <trkpt lat="49.08316" lon="6.11082">
        <ele>211.8</ele>
        <time>2011-11-06T07:47:03Z</time>
      </trkpt>
      <trkpt lat="49.0831" lon="6.11073">
        <ele>212.6</ele>
        <time>2011-11-06T07:47:04Z</time>
      </trkpt>
      <trkpt lat="49.08305" lon="6.11064">
        <ele>212.6</ele>
        <time>2011-11-06T07:47:05Z</time>
      </trkpt>
      <trkpt lat="49.08299" lon="6.11055">
        <ele>212.6</ele>
        <time>2011-11-06T07:47:06Z</time>
      </trkpt>
      <trkpt lat="49.08291" lon="6.11046">
        <ele>213.2</ele>
        <time>2011-11-06T07:47:07Z</time>
      </trkpt>
      <trkpt lat="49.08285" lon="6.11036">
        <ele>210.4</ele>
        <time>2011-11-06T07:47:08Z</time>
      </trkpt>
      <trkpt lat="49.08278" lon="6.11027">
        <ele>210.4</ele>
        <time>2011-11-06T07:47:09Z</time>
      </trkpt>
      <trkpt lat="49.08274" lon="6.11017">
        <ele>209.9</ele>
        <time>2011-11-06T07:47:10Z</time>
      </trkpt>
      <trkpt lat="49.0827" lon="6.11006">
        <ele>207.8</ele>
        <time>2011-11-06T07:47:11Z</time>
      </trkpt>
      <trkpt lat="49.08264" lon="6.10994">
        <ele>213.2</ele>
        <time>2011-11-06T07:47:13Z</time>
      </trkpt>
      <trkpt lat="49.08255" lon="6.10983">
        <ele>211.5</ele>
        <time>2011-11-06T07:47:14Z</time>
      </trkpt>
      <trkpt lat="49.08248" lon="6.10973">
        <ele>209.5</ele>
        <time>2011-11-06T07:47:15Z</time>
      </trkpt>
      <trkpt lat="49.08236" lon="6.10964">
        <ele>205.7</ele>
        <time>2011-11-06T07:47:16Z</time>
      </trkpt>
      <trkpt lat="49.08229" lon="6.10955">
        <ele>205.7</ele>
        <time>2011-11-06T07:47:17Z</time>
      </trkpt>
      <trkpt lat="49.08223" lon="6.10943">
        <ele>206.4</ele>
        <time>2011-11-06T07:47:18Z</time>
      </trkpt>
      <trkpt lat="49.0822" lon="6.10928">
        <ele>212.1</ele>
        <time>2011-11-06T07:47:20Z</time>
      </trkpt>
      <trkpt lat="49.08214" lon="6.10919">
        <ele>212.1</ele>
        <time>2011-11-06T07:47:21Z</time>
      </trkpt>
      <trkpt lat="49.08208" lon="6.10909">
        <ele>213.3</ele>
        <time>2011-11-06T07:47:22Z</time>
      </trkpt>
      <trkpt lat="49.08202" lon="6.10897">
        <ele>212</ele>
        <time>2011-11-06T07:47:23Z</time>
      </trkpt>
      <trkpt lat="49.08198" lon="6.10886">
        <ele>213.2</ele>
        <time>2011-11-06T07:47:24Z</time>
      </trkpt>
      <trkpt lat="49.08194" lon="6.10877">
        <ele>213.2</ele>
        <time>2011-11-06T07:47:25Z</time>
      </trkpt>
      <trkpt lat="49.08193" lon="6.10866">
        <ele>211.8</ele>
        <time>2011-11-06T07:47:26Z</time>
      </trkpt>
      <trkpt lat="49.08193" lon="6.10852">
        <ele>211.9</ele>
        <time>2011-11-06T07:47:27Z</time>
      </trkpt>
      <trkpt lat="49.08186" lon="6.10842">
        <ele>211.9</ele>
        <time>2011-11-06T07:47:28Z</time>
      </trkpt>
      <trkpt lat="49.08185" lon="6.1083">
        <ele>211.4</ele>
        <time>2011-11-06T07:47:29Z</time>
      </trkpt>
      <trkpt lat="49.08184" lon="6.10816">
        <ele>210.8</ele>
        <time>2011-11-06T07:47:30Z</time>
      </trkpt>
      <trkpt lat="49.08181" lon="6.10804">
        <ele>209.8</ele>
        <time>2011-11-06T07:47:31Z</time>
      </trkpt>
      <trkpt lat="49.08178" lon="6.10796">
        <ele>209.3</ele>
        <time>2011-11-06T07:47:32Z</time>
      </trkpt>
      <trkpt lat="49.08172" lon="6.10787">
        <ele>209</ele>
        <time>2011-11-06T07:47:33Z</time>
      </trkpt>
      <trkpt lat="49.08166" lon="6.10782">
        <ele>208.9</ele>
        <time>2011-11-06T07:47:34Z</time>
      </trkpt>
      <trkpt lat="49.08157" lon="6.10777">
        <ele>208.2</ele>
        <time>2011-11-06T07:47:35Z</time>
      </trkpt>
      <trkpt lat="49.0815" lon="6.10773">
        <ele>208.3</ele>
        <time>2011-11-06T07:47:36Z</time>
      </trkpt>
      <trkpt lat="49.08144" lon="6.10768">
        <ele>208.3</ele>
        <time>2011-11-06T07:47:37Z</time>
      </trkpt>
      <trkpt lat="49.08136" lon="6.10764">
        <ele>207.8</ele>
        <time>2011-11-06T07:47:38Z</time>
      </trkpt>
      <trkpt lat="49.08128" lon="6.10762">
        <ele>208.1</ele>
        <time>2011-11-06T07:47:39Z</time>
      </trkpt>
      <trkpt lat="49.0812" lon="6.1075">
        <ele>207.6</ele>
        <time>2011-11-06T07:47:40Z</time>
      </trkpt>
      <trkpt lat="49.08114" lon="6.10739">
        <ele>207.9</ele>
        <time>2011-11-06T07:47:41Z</time>
      </trkpt>
      <trkpt lat="49.08108" lon="6.10728">
        <ele>207.8</ele>
        <time>2011-11-06T07:47:42Z</time>
      </trkpt>
      <trkpt lat="49.08102" lon="6.10719">
        <ele>207.8</ele>
        <time>2011-11-06T07:47:43Z</time>
      </trkpt>
      <trkpt lat="49.08095" lon="6.1071">
        <ele>207.7</ele>
        <time>2011-11-06T07:47:44Z</time>
      </trkpt>
      <trkpt lat="49.08091" lon="6.10702">
        <ele>207.7</ele>
        <time>2011-11-06T07:47:45Z</time>
      </trkpt>
      <trkpt lat="49.08085" lon="6.10694">
        <ele>207.6</ele>
        <time>2011-11-06T07:47:46Z</time>
      </trkpt>
      <trkpt lat="49.08077" lon="6.1068">
        <ele>207.6</ele>
        <time>2011-11-06T07:47:47Z</time>
      </trkpt>
      <trkpt lat="49.08078" lon="6.1067">
        <ele>206.6</ele>
        <time>2011-11-06T07:47:48Z</time>
      </trkpt>
      <trkpt lat="49.08072" lon="6.10655">
        <ele>205.6</ele>
        <time>2011-11-06T07:47:49Z</time>
      </trkpt>
      <trkpt lat="49.08066" lon="6.10648">
        <ele>205.8</ele>
        <time>2011-11-06T07:47:50Z</time>
      </trkpt>
      <trkpt lat="49.08061" lon="6.10637">
        <ele>205.3</ele>
        <time>2011-11-06T07:47:51Z</time>
      </trkpt>
      <trkpt lat="49.08056" lon="6.10627">
        <ele>205.3</ele>
        <time>2011-11-06T07:47:52Z</time>
      </trkpt>
      <trkpt lat="49.08049" lon="6.1062">
        <ele>204.5</ele>
        <time>2011-11-06T07:47:53Z</time>
      </trkpt>
      <trkpt lat="49.08043" lon="6.10612">
        <ele>205.9</ele>
        <time>2011-11-06T07:47:54Z</time>
      </trkpt>
      <trkpt lat="49.08038" lon="6.10601">
        <ele>204.3</ele>
        <time>2011-11-06T07:47:55Z</time>
      </trkpt>
      <trkpt lat="49.0803" lon="6.10582">
        <ele>201.4</ele>
        <time>2011-11-06T07:47:57Z</time>
      </trkpt>
      <trkpt lat="49.08022" lon="6.10574">
        <ele>200.6</ele>
        <time>2011-11-06T07:47:58Z</time>
      </trkpt>
      <trkpt lat="49.08019" lon="6.10565">
        <ele>201.3</ele>
        <time>2011-11-06T07:47:59Z</time>
      </trkpt>
      <trkpt lat="49.08015" lon="6.10555">
        <ele>202.2</ele>
        <time>2011-11-06T07:48:00Z</time>
      </trkpt>
      <trkpt lat="49.08011" lon="6.10544">
        <ele>202.4</ele>
        <time>2011-11-06T07:48:01Z</time>
      </trkpt>
      <trkpt lat="49.08006" lon="6.10534">
        <ele>203.3</ele>
        <time>2011-11-06T07:48:02Z</time>
      </trkpt>
      <trkpt lat="49.08001" lon="6.10524">
        <ele>203.1</ele>
        <time>2011-11-06T07:48:03Z</time>
      </trkpt>
      <trkpt lat="49.07995" lon="6.10514">
        <ele>202.7</ele>
        <time>2011-11-06T07:48:04Z</time>
      </trkpt>
      <trkpt lat="49.0799" lon="6.10505">
        <ele>202.7</ele>
        <time>2011-11-06T07:48:05Z</time>
      </trkpt>
      <trkpt lat="49.07985" lon="6.10495">
        <ele>202.8</ele>
        <time>2011-11-06T07:48:06Z</time>
      </trkpt>
      <trkpt lat="49.07979" lon="6.10485">
        <ele>201.8</ele>
        <time>2011-11-06T07:48:07Z</time>
      </trkpt>
      <trkpt lat="49.07974" lon="6.10475">
        <ele>201.4</ele>
        <time>2011-11-06T07:48:08Z</time>
      </trkpt>
      <trkpt lat="49.07965" lon="6.10466">
        <ele>201.8</ele>
        <time>2011-11-06T07:48:09Z</time>
      </trkpt>
      <trkpt lat="49.07964" lon="6.10454">
        <ele>201.7</ele>
        <time>2011-11-06T07:48:10Z</time>
      </trkpt>
      <trkpt lat="49.07963" lon="6.10442">
        <ele>201.7</ele>
        <time>2011-11-06T07:48:11Z</time>
      </trkpt>
      <trkpt lat="49.07959" lon="6.10439">
        <ele>202.1</ele>
        <time>2011-11-06T07:48:12Z</time>
      </trkpt>
      <trkpt lat="49.07955" lon="6.1043">
        <ele>202</ele>
        <time>2011-11-06T07:48:13Z</time>
      </trkpt>
      <trkpt lat="49.07947" lon="6.10423">
        <ele>202</ele>
        <time>2011-11-06T07:48:14Z</time>
      </trkpt>
      <trkpt lat="49.0794" lon="6.10414">
        <ele>201.8</ele>
        <time>2011-11-06T07:48:15Z</time>
      </trkpt>
      <trkpt lat="49.07937" lon="6.10404">
        <ele>201.7</ele>
        <time>2011-11-06T07:48:16Z</time>
      </trkpt>
      <trkpt lat="49.07933" lon="6.10391">
        <ele>201.2</ele>
        <time>2011-11-06T07:48:17Z</time>
      </trkpt>
      <trkpt lat="49.07929" lon="6.10382">
        <ele>200.9</ele>
        <time>2011-11-06T07:48:18Z</time>
      </trkpt>
      <trkpt lat="49.07923" lon="6.10374">
        <ele>200.3</ele>
        <time>2011-11-06T07:48:19Z</time>
      </trkpt>
      <trkpt lat="49.07919" lon="6.10364">
        <ele>201.2</ele>
        <time>2011-11-06T07:48:20Z</time>
      </trkpt>
      <trkpt lat="49.07914" lon="6.10355">
        <ele>201.2</ele>
        <time>2011-11-06T07:48:21Z</time>
      </trkpt>
      <trkpt lat="49.07909" lon="6.10345">
        <ele>200.9</ele>
        <time>2011-11-06T07:48:22Z</time>
      </trkpt>
      <trkpt lat="49.07904" lon="6.10336">
        <ele>201</ele>
        <time>2011-11-06T07:48:23Z</time>
      </trkpt>
      <trkpt lat="49.079" lon="6.10325">
        <ele>201.5</ele>
        <time>2011-11-06T07:48:24Z</time>
      </trkpt>
      <trkpt lat="49.07895" lon="6.10312">
        <ele>201.6</ele>
        <time>2011-11-06T07:48:25Z</time>
      </trkpt>
      <trkpt lat="49.0789" lon="6.10303">
        <ele>201.6</ele>
        <time>2011-11-06T07:48:26Z</time>
      </trkpt>
      <trkpt lat="49.07882" lon="6.10291">
        <ele>201.4</ele>
        <time>2011-11-06T07:48:27Z</time>
      </trkpt>
      <trkpt lat="49.07877" lon="6.10283">
        <ele>201.2</ele>
        <time>2011-11-06T07:48:28Z</time>
      </trkpt>
      <trkpt lat="49.07871" lon="6.10271">
        <ele>201.1</ele>
        <time>2011-11-06T07:48:29Z</time>
      </trkpt>
      <trkpt lat="49.07865" lon="6.1026">
        <ele>201</ele>
        <time>2011-11-06T07:48:30Z</time>
      </trkpt>
      <trkpt lat="49.0786" lon="6.1025">
        <ele>201</ele>
        <time>2011-11-06T07:48:31Z</time>
      </trkpt>
      <trkpt lat="49.07853" lon="6.10244">
        <ele>201.4</ele>
        <time>2011-11-06T07:48:32Z</time>
      </trkpt>
      <trkpt lat="49.07851" lon="6.10233">
        <ele>202</ele>
        <time>2011-11-06T07:48:33Z</time>
      </trkpt>
      <trkpt lat="49.07848" lon="6.10224">
        <ele>201.9</ele>
        <time>2011-11-06T07:48:34Z</time>
      </trkpt>
      <trkpt lat="49.07843" lon="6.10214">
        <ele>201.8</ele>
        <time>2011-11-06T07:48:35Z</time>
      </trkpt>
      <trkpt lat="49.07837" lon="6.10205">
        <ele>201.7</ele>
        <time>2011-11-06T07:48:36Z</time>
      </trkpt>
      <trkpt lat="49.07828" lon="6.10195">
        <ele>201.6</ele>
        <time>2011-11-06T07:48:37Z</time>
      </trkpt>
      <trkpt lat="49.07822" lon="6.10186">
        <ele>201.6</ele>
        <time>2011-11-06T07:48:38Z</time>
      </trkpt>
      <trkpt lat="49.07822" lon="6.10175">
        <ele>201.8</ele>
        <time>2011-11-06T07:48:39Z</time>
      </trkpt>
      <trkpt lat="49.07823" lon="6.10164">
        <ele>202.3</ele>
        <time>2011-11-06T07:48:40Z</time>
      </trkpt>
      <trkpt lat="49.0782" lon="6.10154">
        <ele>202.3</ele>
        <time>2011-11-06T07:48:41Z</time>
      </trkpt>
      <trkpt lat="49.07822" lon="6.10142">
        <ele>201.5</ele>
        <time>2011-11-06T07:48:42Z</time>
      </trkpt>
      <trkpt lat="49.07822" lon="6.1013">
        <ele>201.1</ele>
        <time>2011-11-06T07:48:43Z</time>
      </trkpt>
      <trkpt lat="49.07818" lon="6.1012">
        <ele>200.6</ele>
        <time>2011-11-06T07:48:44Z</time>
      </trkpt>
      <trkpt lat="49.07816" lon="6.10109">
        <ele>200.1</ele>
        <time>2011-11-06T07:48:45Z</time>
      </trkpt>
      <trkpt lat="49.07814" lon="6.10096">
        <ele>199.9</ele>
        <time>2011-11-06T07:48:46Z</time>
      </trkpt>
      <trkpt lat="49.07811" lon="6.10087">
        <ele>199.3</ele>
        <time>2011-11-06T07:48:47Z</time>
      </trkpt>
      <trkpt lat="49.07807" lon="6.10077">
        <ele>197.8</ele>
        <time>2011-11-06T07:48:48Z</time>
      </trkpt>
      <trkpt lat="49.078" lon="6.1007">
        <ele>197.9</ele>
        <time>2011-11-06T07:48:49Z</time>
      </trkpt>
      <trkpt lat="49.07796" lon="6.10061">
        <ele>197.9</ele>
        <time>2011-11-06T07:48:50Z</time>
      </trkpt>
      <trkpt lat="49.07787" lon="6.10055">
        <ele>197.8</ele>
        <time>2011-11-06T07:48:51Z</time>
      </trkpt>
      <trkpt lat="49.07782" lon="6.10048">
        <ele>197.8</ele>
        <time>2011-11-06T07:48:52Z</time>
      </trkpt>
      <trkpt lat="49.07775" lon="6.10043">
        <ele>196.8</ele>
        <time>2011-11-06T07:48:53Z</time>
      </trkpt>
      <trkpt lat="49.07768" lon="6.10044">
        <ele>196.6</ele>
        <time>2011-11-06T07:48:54Z</time>
      </trkpt>
      <trkpt lat="49.0776" lon="6.10046">
        <ele>196.4</ele>
        <time>2011-11-06T07:48:55Z</time>
      </trkpt>
      <trkpt lat="49.0769" lon="6.09975">
        <ele>210</ele>
        <time>2011-11-06T07:49:07Z</time>
      </trkpt>
      <trkpt lat="49.07691" lon="6.09967">
        <ele>220.7</ele>
        <time>2011-11-06T07:49:08Z</time>
      </trkpt>
      <trkpt lat="49.07688" lon="6.09982">
        <ele>244.3</ele>
        <time>2011-11-06T07:49:09Z</time>
      </trkpt>
      <trkpt lat="49.07692" lon="6.09976">
        <ele>250.3</ele>
        <time>2011-11-06T07:49:10Z</time>
      </trkpt>
      <trkpt lat="49.07687" lon="6.09973">
        <ele>255.6</ele>
        <time>2011-11-06T07:49:11Z</time>
      </trkpt>
      <trkpt lat="49.07676" lon="6.09972">
        <ele>276.6</ele>
        <time>2011-11-06T07:49:12Z</time>
      </trkpt>
      <trkpt lat="49.07675" lon="6.09957">
        <ele>276.7</ele>
        <time>2011-11-06T07:49:14Z</time>
      </trkpt>
      <trkpt lat="49.07675" lon="6.09923">
        <ele>273.2</ele>
        <time>2011-11-06T07:49:15Z</time>
      </trkpt>
      <trkpt lat="49.07673" lon="6.09907">
        <ele>270.7</ele>
        <time>2011-11-06T07:49:16Z</time>
      </trkpt>
      <trkpt lat="49.07667" lon="6.09907">
        <ele>277.4</ele>
        <time>2011-11-06T07:49:17Z</time>
      </trkpt>
      <trkpt lat="49.07647" lon="6.09883">
        <ele>262</ele>
        <time>2011-11-06T07:49:18Z</time>
      </trkpt>
      <trkpt lat="49.07648" lon="6.099">
        <ele>286.8</ele>
        <time>2011-11-06T07:49:19Z</time>
      </trkpt>
      <trkpt lat="49.07637" lon="6.09883">
        <ele>272.1</ele>
        <time>2011-11-06T07:49:20Z</time>
      </trkpt>
      <trkpt lat="49.07649" lon="6.09832">
        <ele>240.7</ele>
        <time>2011-11-06T07:49:21Z</time>
      </trkpt>
      <trkpt lat="49.0762" lon="6.09861">
        <ele>253.8</ele>
        <time>2011-11-06T07:49:22Z</time>
      </trkpt>
      <trkpt lat="49.07596" lon="6.09847">
        <ele>236.1</ele>
        <time>2011-11-06T07:49:23Z</time>
      </trkpt>
      <trkpt lat="49.07606" lon="6.09823">
        <ele>271.7</ele>
        <time>2011-11-06T07:49:24Z</time>
      </trkpt>
      <trkpt lat="49.07598" lon="6.09813">
        <ele>259.3</ele>
        <time>2011-11-06T07:49:25Z</time>
      </trkpt>
      <trkpt lat="49.07582" lon="6.09806">
        <ele>240.9</ele>
        <time>2011-11-06T07:49:26Z</time>
      </trkpt>
      <trkpt lat="49.07582" lon="6.09795">
        <ele>224.3</ele>
        <time>2011-11-06T07:49:27Z</time>
      </trkpt>
      <trkpt lat="49.07577" lon="6.09785">
        <ele>245.2</ele>
        <time>2011-11-06T07:49:28Z</time>
      </trkpt>
      <trkpt lat="49.07571" lon="6.09772">
        <ele>231.3</ele>
        <time>2011-11-06T07:49:29Z</time>
      </trkpt>
      <trkpt lat="49.07568" lon="6.09764">
        <ele>247.3</ele>
        <time>2011-11-06T07:49:31Z</time>
      </trkpt>
      <trkpt lat="49.07567" lon="6.09754">
        <ele>247.4</ele>
        <time>2011-11-06T07:49:32Z</time>
      </trkpt>
      <trkpt lat="49.07553" lon="6.0974">
        <ele>224.5</ele>
        <time>2011-11-06T07:49:33Z</time>
      </trkpt>
      <trkpt lat="49.07497" lon="6.09713">
        <ele>178.8</ele>
        <time>2011-11-06T07:49:34Z</time>
      </trkpt>
      <trkpt lat="49.07491" lon="6.09704">
        <ele>178.7</ele>
        <time>2011-11-06T07:49:35Z</time>
      </trkpt>
      <trkpt lat="49.07532" lon="6.09714">
        <ele>234</ele>
        <time>2011-11-06T07:49:36Z</time>
      </trkpt>
      <trkpt lat="49.07527" lon="6.09705">
        <ele>234.5</ele>
        <time>2011-11-06T07:49:37Z</time>
      </trkpt>
      <trkpt lat="49.07504" lon="6.09686">
        <ele>215.2</ele>
        <time>2011-11-06T07:49:38Z</time>
      </trkpt>
      <trkpt lat="49.07526" lon="6.0969">
        <ele>245.4</ele>
        <time>2011-11-06T07:49:39Z</time>
      </trkpt>
      <trkpt lat="49.07516" lon="6.09683">
        <ele>233</ele>
        <time>2011-11-06T07:49:40Z</time>
      </trkpt>
      <trkpt lat="49.07509" lon="6.09676">
        <ele>224.5</ele>
        <time>2011-11-06T07:49:41Z</time>
      </trkpt>
      <trkpt lat="49.07527" lon="6.09674">
        <ele>231.9</ele>
        <time>2011-11-06T07:49:42Z</time>
      </trkpt>
      <trkpt lat="49.07506" lon="6.09639">
        <ele>233.3</ele>
        <time>2011-11-06T07:49:43Z</time>
      </trkpt>
      <trkpt lat="49.07494" lon="6.09663">
        <ele>231.5</ele>
        <time>2011-11-06T07:49:44Z</time>
      </trkpt>
      <trkpt lat="49.07489" lon="6.09651">
        <ele>236.3</ele>
        <time>2011-11-06T07:49:45Z</time>
      </trkpt>
      <trkpt lat="49.07481" lon="6.09634">
        <ele>238.2</ele>
        <time>2011-11-06T07:49:46Z</time>
      </trkpt>
      <trkpt lat="49.07473" lon="6.09622">
        <ele>231.4</ele>
        <time>2011-11-06T07:49:47Z</time>
      </trkpt>
      <trkpt lat="49.07469" lon="6.09593">
        <ele>231</ele>
        <time>2011-11-06T07:49:48Z</time>
      </trkpt>
      <trkpt lat="49.07486" lon="6.09589">
        <ele>245.8</ele>
        <time>2011-11-06T07:49:49Z</time>
      </trkpt>
      <trkpt lat="49.07469" lon="6.0958">
        <ele>232.8</ele>
        <time>2011-11-06T07:49:50Z</time>
      </trkpt>
      <trkpt lat="49.07456" lon="6.09573">
        <ele>234.6</ele>
        <time>2011-11-06T07:49:51Z</time>
      </trkpt>
      <trkpt lat="49.07454" lon="6.09564">
        <ele>243.7</ele>
        <time>2011-11-06T07:49:52Z</time>
      </trkpt>
      <trkpt lat="49.07439" lon="6.09561">
        <ele>233.4</ele>
        <time>2011-11-06T07:49:53Z</time>
      </trkpt>
      <trkpt lat="49.07431" lon="6.09553">
        <ele>233.2</ele>
        <time>2011-11-06T07:49:54Z</time>
      </trkpt>
      <trkpt lat="49.07472" lon="6.09514">
        <ele>233.6</ele>
        <time>2011-11-06T07:49:55Z</time>
      </trkpt>
      <trkpt lat="49.07411" lon="6.09494">
        <ele>222.3</ele>
        <time>2011-11-06T07:49:59Z</time>
      </trkpt>
      <trkpt lat="49.07398" lon="6.09486">
        <ele>216.2</ele>
        <time>2011-11-06T07:50:00Z</time>
      </trkpt>
      <trkpt lat="49.07394" lon="6.09477">
        <ele>217.7</ele>
        <time>2011-11-06T07:50:01Z</time>
      </trkpt>
      <trkpt lat="49.07388" lon="6.09468">
        <ele>217.7</ele>
        <time>2011-11-06T07:50:02Z</time>
      </trkpt>
      <trkpt lat="49.07383" lon="6.09457">
        <ele>216</ele>
        <time>2011-11-06T07:50:03Z</time>
      </trkpt>
      <trkpt lat="49.07375" lon="6.09449">
        <ele>217.3</ele>
        <time>2011-11-06T07:50:04Z</time>
      </trkpt>
      <trkpt lat="49.07369" lon="6.0944">
        <ele>221</ele>
        <time>2011-11-06T07:50:05Z</time>
      </trkpt>
      <trkpt lat="49.07364" lon="6.0943">
        <ele>219.8</ele>
        <time>2011-11-06T07:50:06Z</time>
      </trkpt>
      <trkpt lat="49.0736" lon="6.09422">
        <ele>218.8</ele>
        <time>2011-11-06T07:50:07Z</time>
      </trkpt>
      <trkpt lat="49.07354" lon="6.09407">
        <ele>217.4</ele>
        <time>2011-11-06T07:50:08Z</time>
      </trkpt>
      <trkpt lat="49.07349" lon="6.09398">
        <ele>217.4</ele>
        <time>2011-11-06T07:50:09Z</time>
      </trkpt>
      <trkpt lat="49.07343" lon="6.09386">
        <ele>215.8</ele>
        <time>2011-11-06T07:50:10Z</time>
      </trkpt>
      <trkpt lat="49.07341" lon="6.09375">
        <ele>215.5</ele>
        <time>2011-11-06T07:50:11Z</time>
      </trkpt>
      <trkpt lat="49.07336" lon="6.09364">
        <ele>215.5</ele>
        <time>2011-11-06T07:50:12Z</time>
      </trkpt>
      <trkpt lat="49.07326" lon="6.09355">
        <ele>209.6</ele>
        <time>2011-11-06T07:50:13Z</time>
      </trkpt>
      <trkpt lat="49.07321" lon="6.09345">
        <ele>209.6</ele>
        <time>2011-11-06T07:50:14Z</time>
      </trkpt>
      <trkpt lat="49.07315" lon="6.09333">
        <ele>208.4</ele>
        <time>2011-11-06T07:50:15Z</time>
      </trkpt>
      <trkpt lat="49.07311" lon="6.09324">
        <ele>208.6</ele>
        <time>2011-11-06T07:50:16Z</time>
      </trkpt>
      <trkpt lat="49.07304" lon="6.09314">
        <ele>209.1</ele>
        <time>2011-11-06T07:50:17Z</time>
      </trkpt>
      <trkpt lat="49.073" lon="6.09303">
        <ele>209</ele>
        <time>2011-11-06T07:50:18Z</time>
      </trkpt>
      <trkpt lat="49.07293" lon="6.09292">
        <ele>207.9</ele>
        <time>2011-11-06T07:50:19Z</time>
      </trkpt>
      <trkpt lat="49.07285" lon="6.0928">
        <ele>206.2</ele>
        <time>2011-11-06T07:50:20Z</time>
      </trkpt>
      <trkpt lat="49.07276" lon="6.09268">
        <ele>201.2</ele>
        <time>2011-11-06T07:50:21Z</time>
      </trkpt>
      <trkpt lat="49.07271" lon="6.09257">
        <ele>201.2</ele>
        <time>2011-11-06T07:50:22Z</time>
      </trkpt>
      <trkpt lat="49.0727" lon="6.09249">
        <ele>202.6</ele>
        <time>2011-11-06T07:50:23Z</time>
      </trkpt>
      <trkpt lat="49.07268" lon="6.09239">
        <ele>202.4</ele>
        <time>2011-11-06T07:50:24Z</time>
      </trkpt>
      <trkpt lat="49.07268" lon="6.09228">
        <ele>202.8</ele>
        <time>2011-11-06T07:50:25Z</time>
      </trkpt>
      <trkpt lat="49.07262" lon="6.09217">
        <ele>202</ele>
        <time>2011-11-06T07:50:26Z</time>
      </trkpt>
      <trkpt lat="49.07258" lon="6.09204">
        <ele>202.2</ele>
        <time>2011-11-06T07:50:27Z</time>
      </trkpt>
      <trkpt lat="49.07254" lon="6.09195">
        <ele>202.5</ele>
        <time>2011-11-06T07:50:28Z</time>
      </trkpt>
      <trkpt lat="49.07247" lon="6.09184">
        <ele>200.5</ele>
        <time>2011-11-06T07:50:29Z</time>
      </trkpt>
      <trkpt lat="49.07243" lon="6.09173">
        <ele>200.5</ele>
        <time>2011-11-06T07:50:30Z</time>
      </trkpt>
      <trkpt lat="49.07238" lon="6.0916">
        <ele>199</ele>
        <time>2011-11-06T07:50:31Z</time>
      </trkpt>
      <trkpt lat="49.07234" lon="6.0915">
        <ele>199.8</ele>
        <time>2011-11-06T07:50:32Z</time>
      </trkpt>
      <trkpt lat="49.07233" lon="6.09138">
        <ele>199</ele>
        <time>2011-11-06T07:50:33Z</time>
      </trkpt>
      <trkpt lat="49.07229" lon="6.09131">
        <ele>200.6</ele>
        <time>2011-11-06T07:50:34Z</time>
      </trkpt>
      <trkpt lat="49.07226" lon="6.09122">
        <ele>200.5</ele>
        <time>2011-11-06T07:50:35Z</time>
      </trkpt>
      <trkpt lat="49.0722" lon="6.09111">
        <ele>200.2</ele>
        <time>2011-11-06T07:50:36Z</time>
      </trkpt>
      <trkpt lat="49.07214" lon="6.09101">
        <ele>200</ele>
        <time>2011-11-06T07:50:37Z</time>
      </trkpt>
      <trkpt lat="49.0721" lon="6.09091">
        <ele>199</ele>
        <time>2011-11-06T07:50:38Z</time>
      </trkpt>
      <trkpt lat="49.07205" lon="6.0908">
        <ele>199.4</ele>
        <time>2011-11-06T07:50:39Z</time>
      </trkpt>
      <trkpt lat="49.072" lon="6.09068">
        <ele>199.5</ele>
        <time>2011-11-06T07:50:40Z</time>
      </trkpt>
      <trkpt lat="49.07197" lon="6.09056">
        <ele>199.8</ele>
        <time>2011-11-06T07:50:41Z</time>
      </trkpt>
      <trkpt lat="49.07194" lon="6.09046">
        <ele>198.8</ele>
        <time>2011-11-06T07:50:42Z</time>
      </trkpt>
      <trkpt lat="49.07194" lon="6.09037">
        <ele>200.6</ele>
        <time>2011-11-06T07:50:43Z</time>
      </trkpt>
      <trkpt lat="49.0719" lon="6.09027">
        <ele>200.6</ele>
        <time>2011-11-06T07:50:44Z</time>
      </trkpt>
      <trkpt lat="49.07187" lon="6.09017">
        <ele>200.9</ele>
        <time>2011-11-06T07:50:45Z</time>
      </trkpt>
      <trkpt lat="49.07182" lon="6.09006">
        <ele>201</ele>
        <time>2011-11-06T07:50:46Z</time>
      </trkpt>
      <trkpt lat="49.07179" lon="6.08993">
        <ele>201</ele>
        <time>2011-11-06T07:50:47Z</time>
      </trkpt>
      <trkpt lat="49.07175" lon="6.08982">
        <ele>201</ele>
        <time>2011-11-06T07:50:48Z</time>
      </trkpt>
      <trkpt lat="49.0717" lon="6.0897">
        <ele>200.4</ele>
        <time>2011-11-06T07:50:49Z</time>
      </trkpt>
      <trkpt lat="49.07167" lon="6.08955">
        <ele>201.8</ele>
        <time>2011-11-06T07:50:50Z</time>
      </trkpt>
      <trkpt lat="49.07163" lon="6.08944">
        <ele>201.7</ele>
        <time>2011-11-06T07:50:51Z</time>
      </trkpt>
      <trkpt lat="49.0716" lon="6.08935">
        <ele>201.2</ele>
        <time>2011-11-06T07:50:52Z</time>
      </trkpt>
      <trkpt lat="49.07154" lon="6.08924">
        <ele>201.1</ele>
        <time>2011-11-06T07:50:53Z</time>
      </trkpt>
      <trkpt lat="49.07148" lon="6.08918">
        <ele>201.6</ele>
        <time>2011-11-06T07:50:54Z</time>
      </trkpt>
      <trkpt lat="49.07144" lon="6.08909">
        <ele>201.6</ele>
        <time>2011-11-06T07:50:55Z</time>
      </trkpt>
      <trkpt lat="49.07106" lon="6.0883">
        <ele>217.7</ele>
        <time>2011-11-06T07:51:02Z</time>
      </trkpt>
      <trkpt lat="49.07091" lon="6.08821">
        <ele>210.5</ele>
        <time>2011-11-06T07:51:04Z</time>
      </trkpt>
      <trkpt lat="49.07094" lon="6.08816">
        <ele>219.5</ele>
        <time>2011-11-06T07:51:05Z</time>
      </trkpt>
      <trkpt lat="49.07092" lon="6.08797">
        <ele>209.3</ele>
        <time>2011-11-06T07:51:05Z</time>
      </trkpt>
      <trkpt lat="49.07086" lon="6.08783">
        <ele>201.9</ele>
        <time>2011-11-06T07:51:07Z</time>
      </trkpt>
      <trkpt lat="49.07081" lon="6.08776">
        <ele>199.2</ele>
        <time>2011-11-06T07:51:07Z</time>
      </trkpt>
      <trkpt lat="49.07072" lon="6.08761">
        <ele>191</ele>
        <time>2011-11-06T07:51:08Z</time>
      </trkpt>
      <trkpt lat="49.0707" lon="6.08748">
        <ele>188.5</ele>
        <time>2011-11-06T07:51:10Z</time>
      </trkpt>
      <trkpt lat="49.07063" lon="6.08753">
        <ele>211.2</ele>
        <time>2011-11-06T07:51:11Z</time>
      </trkpt>
      <trkpt lat="49.07058" lon="6.08723">
        <ele>189.3</ele>
        <time>2011-11-06T07:51:12Z</time>
      </trkpt>
      <trkpt lat="49.07088" lon="6.08722">
        <ele>190.3</ele>
        <time>2011-11-06T07:51:13Z</time>
      </trkpt>
      <trkpt lat="49.07071" lon="6.08718">
        <ele>210.3</ele>
        <time>2011-11-06T07:51:14Z</time>
      </trkpt>
      <trkpt lat="49.07066" lon="6.08698">
        <ele>207.3</ele>
        <time>2011-11-06T07:51:15Z</time>
      </trkpt>
      <trkpt lat="49.07064" lon="6.08691">
        <ele>214.8</ele>
        <time>2011-11-06T07:51:16Z</time>
      </trkpt>
      <trkpt lat="49.07077" lon="6.08686">
        <ele>242.8</ele>
        <time>2011-11-06T07:51:17Z</time>
      </trkpt>
      <trkpt lat="49.07068" lon="6.0867">
        <ele>246</ele>
        <time>2011-11-06T07:51:19Z</time>
      </trkpt>
      <trkpt lat="49.07059" lon="6.0867">
        <ele>241.6</ele>
        <time>2011-11-06T07:51:20Z</time>
      </trkpt>
      <trkpt lat="49.0703" lon="6.08644">
        <ele>198.7</ele>
        <time>2011-11-06T07:51:21Z</time>
      </trkpt>
      <trkpt lat="49.07029" lon="6.08625">
        <ele>198.3</ele>
        <time>2011-11-06T07:51:22Z</time>
      </trkpt>
      <trkpt lat="49.07041" lon="6.08627">
        <ele>206.2</ele>
        <time>2011-11-06T07:51:23Z</time>
      </trkpt>
      <trkpt lat="49.0704" lon="6.08613">
        <ele>224.9</ele>
        <time>2011-11-06T07:51:24Z</time>
      </trkpt>
      <trkpt lat="49.07032" lon="6.08604">
        <ele>212.7</ele>
        <time>2011-11-06T07:51:25Z</time>
      </trkpt>
      <trkpt lat="49.07036" lon="6.08596">
        <ele>215.4</ele>
        <time>2011-11-06T07:51:26Z</time>
      </trkpt>
      <trkpt lat="49.07031" lon="6.08585">
        <ele>222.5</ele>
        <time>2011-11-06T07:51:27Z</time>
      </trkpt>
      <trkpt lat="49.07023" lon="6.08576">
        <ele>218.5</ele>
        <time>2011-11-06T07:51:28Z</time>
      </trkpt>
      <trkpt lat="49.07014" lon="6.08574">
        <ele>221.7</ele>
        <time>2011-11-06T07:51:29Z</time>
      </trkpt>
      <trkpt lat="49.06999" lon="6.08553">
        <ele>199.6</ele>
        <time>2011-11-06T07:51:30Z</time>
      </trkpt>
      <trkpt lat="49.06985" lon="6.08533">
        <ele>186.9</ele>
        <time>2011-11-06T07:51:31Z</time>
      </trkpt>
      <trkpt lat="49.06982" lon="6.08524">
        <ele>177</ele>
        <time>2011-11-06T07:51:32Z</time>
      </trkpt>
      <trkpt lat="49.06973" lon="6.08515">
        <ele>176.1</ele>
        <time>2011-11-06T07:51:33Z</time>
      </trkpt>
      <trkpt lat="49.06981" lon="6.08504">
        <ele>196</ele>
        <time>2011-11-06T07:51:34Z</time>
      </trkpt>
      <trkpt lat="49.06986" lon="6.08492">
        <ele>209.8</ele>
        <time>2011-11-06T07:51:36Z</time>
      </trkpt>
      <trkpt lat="49.06965" lon="6.0851">
        <ele>210.3</ele>
        <time>2011-11-06T07:51:37Z</time>
      </trkpt>
      <trkpt lat="49.06964" lon="6.08499">
        <ele>210.1</ele>
        <time>2011-11-06T07:51:38Z</time>
      </trkpt>
      <trkpt lat="49.06967" lon="6.08454">
        <ele>209.7</ele>
        <time>2011-11-06T07:51:39Z</time>
      </trkpt>
      <trkpt lat="49.06962" lon="6.0845">
        <ele>210</ele>
        <time>2011-11-06T07:51:40Z</time>
      </trkpt>
      <trkpt lat="49.0696" lon="6.08463">
        <ele>210</ele>
        <time>2011-11-06T07:51:41Z</time>
      </trkpt>
      <trkpt lat="49.06955" lon="6.08455">
        <ele>210.1</ele>
        <time>2011-11-06T07:51:42Z</time>
      </trkpt>
      <trkpt lat="49.06974" lon="6.08399">
        <ele>209</ele>
        <time>2011-11-06T07:51:43Z</time>
      </trkpt>
      <trkpt lat="49.06929" lon="6.08445">
        <ele>209.6</ele>
        <time>2011-11-06T07:51:44Z</time>
      </trkpt>
      <trkpt lat="49.06923" lon="6.08424">
        <ele>194.3</ele>
        <time>2011-11-06T07:51:45Z</time>
      </trkpt>
      <trkpt lat="49.06931" lon="6.08406">
        <ele>197.1</ele>
        <time>2011-11-06T07:51:46Z</time>
      </trkpt>
      <trkpt lat="49.06932" lon="6.08399">
        <ele>203.2</ele>
        <time>2011-11-06T07:51:47Z</time>
      </trkpt>
      <trkpt lat="49.06922" lon="6.08394">
        <ele>199.7</ele>
        <time>2011-11-06T07:51:48Z</time>
      </trkpt>
      <trkpt lat="49.06917" lon="6.08397">
        <ele>212.2</ele>
        <time>2011-11-06T07:51:49Z</time>
      </trkpt>
      <trkpt lat="49.06911" lon="6.08397">
        <ele>215.7</ele>
        <time>2011-11-06T07:51:50Z</time>
      </trkpt>
      <trkpt lat="49.06907" lon="6.08374">
        <ele>192</ele>
        <time>2011-11-06T07:51:51Z</time>
      </trkpt>
      <trkpt lat="49.06895" lon="6.08372">
        <ele>208.5</ele>
        <time>2011-11-06T07:51:52Z</time>
      </trkpt>
      <trkpt lat="49.06902" lon="6.08367">
        <ele>207.8</ele>
        <time>2011-11-06T07:51:53Z</time>
      </trkpt>
      <trkpt lat="49.06898" lon="6.08359">
        <ele>209.5</ele>
        <time>2011-11-06T07:51:54Z</time>
      </trkpt>
      <trkpt lat="49.06908" lon="6.08333">
        <ele>208.7</ele>
        <time>2011-11-06T07:51:58Z</time>
      </trkpt>
      <trkpt lat="49.06916" lon="6.08316">
        <ele>208.2</ele>
        <time>2011-11-06T07:51:59Z</time>
      </trkpt>
      <trkpt lat="49.06924" lon="6.08307">
        <ele>208.9</ele>
        <time>2011-11-06T07:52:00Z</time>
      </trkpt>
      <trkpt lat="49.06928" lon="6.08299">
        <ele>209</ele>
        <time>2011-11-06T07:52:01Z</time>
      </trkpt>
      <trkpt lat="49.06931" lon="6.08292">
        <ele>209</ele>
        <time>2011-11-06T07:52:02Z</time>
      </trkpt>
      <trkpt lat="49.06934" lon="6.08284">
        <ele>208.9</ele>
        <time>2011-11-06T07:52:03Z</time>
      </trkpt>
      <trkpt lat="49.06936" lon="6.08278">
        <ele>208.8</ele>
        <time>2011-11-06T07:52:04Z</time>
      </trkpt>
      <trkpt lat="49.0694" lon="6.0827">
        <ele>208.7</ele>
        <time>2011-11-06T07:52:05Z</time>
      </trkpt>
      <trkpt lat="49.06945" lon="6.08262">
        <ele>209.1</ele>
        <time>2011-11-06T07:52:06Z</time>
      </trkpt>
      <trkpt lat="49.06949" lon="6.08255">
        <ele>209.2</ele>
        <time>2011-11-06T07:52:07Z</time>
      </trkpt>
      <trkpt lat="49.06952" lon="6.08248">
        <ele>209.4</ele>
        <time>2011-11-06T07:52:08Z</time>
      </trkpt>
      <trkpt lat="49.06956" lon="6.08238">
        <ele>209.8</ele>
        <time>2011-11-06T07:52:09Z</time>
      </trkpt>
      <trkpt lat="49.06959" lon="6.08227">
        <ele>209.9</ele>
        <time>2011-11-06T07:52:10Z</time>
      </trkpt>
      <trkpt lat="49.06966" lon="6.08216">
        <ele>210.3</ele>
        <time>2011-11-06T07:52:11Z</time>
      </trkpt>
      <trkpt lat="49.06978" lon="6.08206">
        <ele>210.6</ele>
        <time>2011-11-06T07:52:12Z</time>
      </trkpt>
      <trkpt lat="49.06983" lon="6.08198">
        <ele>210.6</ele>
        <time>2011-11-06T07:52:13Z</time>
      </trkpt>
      <trkpt lat="49.06988" lon="6.08186">
        <ele>210.5</ele>
        <time>2011-11-06T07:52:14Z</time>
      </trkpt>
      <trkpt lat="49.06991" lon="6.08175">
        <ele>210.1</ele>
        <time>2011-11-06T07:52:15Z</time>
      </trkpt>
      <trkpt lat="49.06993" lon="6.08165">
        <ele>209.8</ele>
        <time>2011-11-06T07:52:16Z</time>
      </trkpt>
      <trkpt lat="49.07001" lon="6.08157">
        <ele>209.3</ele>
        <time>2011-11-06T07:52:17Z</time>
      </trkpt>
      <trkpt lat="49.07006" lon="6.08149">
        <ele>208.6</ele>
        <time>2011-11-06T07:52:18Z</time>
      </trkpt>
      <trkpt lat="49.07014" lon="6.08143">
        <ele>209.9</ele>
        <time>2011-11-06T07:52:19Z</time>
      </trkpt>
      <trkpt lat="49.07019" lon="6.08134">
        <ele>209.9</ele>
        <time>2011-11-06T07:52:20Z</time>
      </trkpt>
      <trkpt lat="49.07024" lon="6.08124">
        <ele>208.6</ele>
        <time>2011-11-06T07:52:21Z</time>
      </trkpt>
      <trkpt lat="49.07031" lon="6.08116">
        <ele>209.3</ele>
        <time>2011-11-06T07:52:22Z</time>
      </trkpt>
      <trkpt lat="49.07035" lon="6.0811">
        <ele>209.6</ele>
        <time>2011-11-06T07:52:23Z</time>
      </trkpt>
      <trkpt lat="49.07041" lon="6.08104">
        <ele>209.7</ele>
        <time>2011-11-06T07:52:24Z</time>
      </trkpt>
      <trkpt lat="49.07045" lon="6.08095">
        <ele>209.5</ele>
        <time>2011-11-06T07:52:25Z</time>
      </trkpt>
      <trkpt lat="49.0705" lon="6.08087">
        <ele>209.4</ele>
        <time>2011-11-06T07:52:26Z</time>
      </trkpt>
      <trkpt lat="49.07053" lon="6.08077">
        <ele>208.2</ele>
        <time>2011-11-06T07:52:27Z</time>
      </trkpt>
      <trkpt lat="49.07057" lon="6.08068">
        <ele>208.6</ele>
        <time>2011-11-06T07:52:28Z</time>
      </trkpt>
      <trkpt lat="49.07062" lon="6.0806">
        <ele>208.6</ele>
        <time>2011-11-06T07:52:29Z</time>
      </trkpt>
      <trkpt lat="49.07065" lon="6.0805">
        <ele>207.8</ele>
        <time>2011-11-06T07:52:30Z</time>
      </trkpt>
      <trkpt lat="49.0707" lon="6.08043">
        <ele>208.2</ele>
        <time>2011-11-06T07:52:31Z</time>
      </trkpt>
      <trkpt lat="49.07074" lon="6.08032">
        <ele>207.5</ele>
        <time>2011-11-06T07:52:32Z</time>
      </trkpt>
      <trkpt lat="49.07079" lon="6.08026">
        <ele>207.9</ele>
        <time>2011-11-06T07:52:33Z</time>
      </trkpt>
      <trkpt lat="49.07083" lon="6.08017">
        <ele>207.9</ele>
        <time>2011-11-06T07:52:34Z</time>
      </trkpt>
      <trkpt lat="49.07089" lon="6.08008">
        <ele>207.1</ele>
        <time>2011-11-06T07:52:35Z</time>
      </trkpt>
      <trkpt lat="49.07093" lon="6.08002">
        <ele>207.3</ele>
        <time>2011-11-06T07:52:36Z</time>
      </trkpt>
      <trkpt lat="49.07098" lon="6.07995">
        <ele>207.8</ele>
        <time>2011-11-06T07:52:37Z</time>
      </trkpt>
      <trkpt lat="49.07104" lon="6.07982">
        <ele>207.3</ele>
        <time>2011-11-06T07:52:38Z</time>
      </trkpt>
      <trkpt lat="49.0711" lon="6.07975">
        <ele>207.6</ele>
        <time>2011-11-06T07:52:39Z</time>
      </trkpt>
      <trkpt lat="49.07115" lon="6.07966">
        <ele>207.7</ele>
        <time>2011-11-06T07:52:40Z</time>
      </trkpt>
      <trkpt lat="49.07119" lon="6.07956">
        <ele>207.8</ele>
        <time>2011-11-06T07:52:41Z</time>
      </trkpt>
      <trkpt lat="49.07124" lon="6.07952">
        <ele>207.9</ele>
        <time>2011-11-06T07:52:42Z</time>
      </trkpt>
      <trkpt lat="49.07129" lon="6.07944">
        <ele>207.9</ele>
        <time>2011-11-06T07:52:43Z</time>
      </trkpt>
      <trkpt lat="49.07134" lon="6.07936">
        <ele>207.8</ele>
        <time>2011-11-06T07:52:44Z</time>
      </trkpt>
      <trkpt lat="49.07139" lon="6.0793">
        <ele>207.5</ele>
        <time>2011-11-06T07:52:45Z</time>
      </trkpt>
      <trkpt lat="49.07142" lon="6.07925">
        <ele>208.1</ele>
        <time>2011-11-06T07:52:46Z</time>
      </trkpt>
      <trkpt lat="49.07146" lon="6.0792">
        <ele>208.5</ele>
        <time>2011-11-06T07:52:47Z</time>
      </trkpt>
      <trkpt lat="49.07151" lon="6.07913">
        <ele>208.7</ele>
        <time>2011-11-06T07:52:48Z</time>
      </trkpt>
      <trkpt lat="49.07157" lon="6.07908">
        <ele>209.1</ele>
        <time>2011-11-06T07:52:49Z</time>
      </trkpt>
      <trkpt lat="49.07165" lon="6.07899">
        <ele>209.6</ele>
        <time>2011-11-06T07:52:51Z</time>
      </trkpt>
      <trkpt lat="49.07169" lon="6.07896">
        <ele>210.2</ele>
        <time>2011-11-06T07:52:52Z</time>
      </trkpt>
      <trkpt lat="49.07173" lon="6.07892">
        <ele>210.6</ele>
        <time>2011-11-06T07:52:53Z</time>
      </trkpt>
      <trkpt lat="49.07179" lon="6.07885">
        <ele>210.8</ele>
        <time>2011-11-06T07:52:54Z</time>
      </trkpt>
      <trkpt lat="49.07186" lon="6.07877">
        <ele>211.4</ele>
        <time>2011-11-06T07:52:56Z</time>
      </trkpt>
      <trkpt lat="49.07195" lon="6.07868">
        <ele>211.5</ele>
        <time>2011-11-06T07:52:57Z</time>
      </trkpt>
      <trkpt lat="49.07201" lon="6.07863">
        <ele>212</ele>
        <time>2011-11-06T07:52:58Z</time>
      </trkpt>
      <trkpt lat="49.07206" lon="6.07857">
        <ele>212</ele>
        <time>2011-11-06T07:52:59Z</time>
      </trkpt>
      <trkpt lat="49.07212" lon="6.07852">
        <ele>212.1</ele>
        <time>2011-11-06T07:53:00Z</time>
      </trkpt>
      <trkpt lat="49.0722" lon="6.07848">
        <ele>212.8</ele>
        <time>2011-11-06T07:53:01Z</time>
      </trkpt>
      <trkpt lat="49.07224" lon="6.07845">
        <ele>213.1</ele>
        <time>2011-11-06T07:53:02Z</time>
      </trkpt>
      <trkpt lat="49.0723" lon="6.07838">
        <ele>212.8</ele>
        <time>2011-11-06T07:53:03Z</time>
      </trkpt>
      <trkpt lat="49.07236" lon="6.07834">
        <ele>214</ele>
        <time>2011-11-06T07:53:04Z</time>
      </trkpt>
      <trkpt lat="49.07241" lon="6.07829">
        <ele>214</ele>
        <time>2011-11-06T07:53:05Z</time>
      </trkpt>
      <trkpt lat="49.07248" lon="6.07822">
        <ele>214.6</ele>
        <time>2011-11-06T07:53:06Z</time>
      </trkpt>
      <trkpt lat="49.07254" lon="6.07816">
        <ele>214.6</ele>
        <time>2011-11-06T07:53:07Z</time>
      </trkpt>
      <trkpt lat="49.07261" lon="6.07811">
        <ele>214.6</ele>
        <time>2011-11-06T07:53:08Z</time>
      </trkpt>
      <trkpt lat="49.07268" lon="6.07808">
        <ele>214.8</ele>
        <time>2011-11-06T07:53:09Z</time>
      </trkpt>
      <trkpt lat="49.07274" lon="6.07804">
        <ele>214.8</ele>
        <time>2011-11-06T07:53:10Z</time>
      </trkpt>
      <trkpt lat="49.0728" lon="6.07798">
        <ele>215</ele>
        <time>2011-11-06T07:53:11Z</time>
      </trkpt>
      <trkpt lat="49.07286" lon="6.07793">
        <ele>214.3</ele>
        <time>2011-11-06T07:53:12Z</time>
      </trkpt>
      <trkpt lat="49.07294" lon="6.07788">
        <ele>214.2</ele>
        <time>2011-11-06T07:53:13Z</time>
      </trkpt>
      <trkpt lat="49.07302" lon="6.07786">
        <ele>214.8</ele>
        <time>2011-11-06T07:53:14Z</time>
      </trkpt>
      <trkpt lat="49.07309" lon="6.07782">
        <ele>215.1</ele>
        <time>2011-11-06T07:53:15Z</time>
      </trkpt>
      <trkpt lat="49.07316" lon="6.0778">
        <ele>215.2</ele>
        <time>2011-11-06T07:53:16Z</time>
      </trkpt>
      <trkpt lat="49.0732" lon="6.07777">
        <ele>214.1</ele>
        <time>2011-11-06T07:53:17Z</time>
      </trkpt>
      <trkpt lat="49.07326" lon="6.07774">
        <ele>214.1</ele>
        <time>2011-11-06T07:53:18Z</time>
      </trkpt>
      <trkpt lat="49.07334" lon="6.07768">
        <ele>213.8</ele>
        <time>2011-11-06T07:53:19Z</time>
      </trkpt>
      <trkpt lat="49.07339" lon="6.07766">
        <ele>213.8</ele>
        <time>2011-11-06T07:53:20Z</time>
      </trkpt>
      <trkpt lat="49.07344" lon="6.07761">
        <ele>214.1</ele>
        <time>2011-11-06T07:53:21Z</time>
      </trkpt>
      <trkpt lat="49.07349" lon="6.07755">
        <ele>213.9</ele>
        <time>2011-11-06T07:53:22Z</time>
      </trkpt>
      <trkpt lat="49.07355" lon="6.07751">
        <ele>213.9</ele>
        <time>2011-11-06T07:53:23Z</time>
      </trkpt>
      <trkpt lat="49.07361" lon="6.0775">
        <ele>214.4</ele>
        <time>2011-11-06T07:53:24Z</time>
      </trkpt>
      <trkpt lat="49.07368" lon="6.07746">
        <ele>214</ele>
        <time>2011-11-06T07:53:25Z</time>
      </trkpt>
      <trkpt lat="49.07374" lon="6.07742">
        <ele>214</ele>
        <time>2011-11-06T07:53:26Z</time>
      </trkpt>
      <trkpt lat="49.0738" lon="6.07735">
        <ele>214.4</ele>
        <time>2011-11-06T07:53:27Z</time>
      </trkpt>
      <trkpt lat="49.07386" lon="6.0773">
        <ele>214.4</ele>
        <time>2011-11-06T07:53:28Z</time>
      </trkpt>
      <trkpt lat="49.07392" lon="6.07724">
        <ele>214.5</ele>
        <time>2011-11-06T07:53:29Z</time>
      </trkpt>
      <trkpt lat="49.07398" lon="6.07714">
        <ele>214.4</ele>
        <time>2011-11-06T07:53:30Z</time>
      </trkpt>
      <trkpt lat="49.07404" lon="6.07705">
        <ele>213.8</ele>
        <time>2011-11-06T07:53:31Z</time>
      </trkpt>
      <trkpt lat="49.0741" lon="6.07698">
        <ele>213.2</ele>
        <time>2011-11-06T07:53:32Z</time>
      </trkpt>
      <trkpt lat="49.07416" lon="6.07691">
        <ele>213.2</ele>
        <time>2011-11-06T07:53:33Z</time>
      </trkpt>
      <trkpt lat="49.07421" lon="6.07683">
        <ele>213</ele>
        <time>2011-11-06T07:53:34Z</time>
      </trkpt>
      <trkpt lat="49.07424" lon="6.07674">
        <ele>212.7</ele>
        <time>2011-11-06T07:53:35Z</time>
      </trkpt>
      <trkpt lat="49.07427" lon="6.07667">
        <ele>212.6</ele>
        <time>2011-11-06T07:53:36Z</time>
      </trkpt>
      <trkpt lat="49.0743" lon="6.07656">
        <ele>212.1</ele>
        <time>2011-11-06T07:53:37Z</time>
      </trkpt>
      <trkpt lat="49.07433" lon="6.07645">
        <ele>211.9</ele>
        <time>2011-11-06T07:53:38Z</time>
      </trkpt>
      <trkpt lat="49.07437" lon="6.07635">
        <ele>212</ele>
        <time>2011-11-06T07:53:39Z</time>
      </trkpt>
      <trkpt lat="49.0744" lon="6.07624">
        <ele>211.3</ele>
        <time>2011-11-06T07:53:40Z</time>
      </trkpt>
      <trkpt lat="49.07445" lon="6.07613">
        <ele>210.6</ele>
        <time>2011-11-06T07:53:41Z</time>
      </trkpt>
      <trkpt lat="49.07449" lon="6.07601">
        <ele>210.9</ele>
        <time>2011-11-06T07:53:42Z</time>
      </trkpt>
      <trkpt lat="49.07453" lon="6.07591">
        <ele>210.9</ele>
        <time>2011-11-06T07:53:43Z</time>
      </trkpt>
      <trkpt lat="49.07459" lon="6.07579">
        <ele>210.9</ele>
        <time>2011-11-06T07:53:44Z</time>
      </trkpt>
      <trkpt lat="49.07466" lon="6.07573">
        <ele>210.8</ele>
        <time>2011-11-06T07:53:45Z</time>
      </trkpt>
      <trkpt lat="49.07474" lon="6.0757">
        <ele>211.9</ele>
        <time>2011-11-06T07:53:46Z</time>
      </trkpt>
      <trkpt lat="49.07481" lon="6.07564">
        <ele>212.1</ele>
        <time>2011-11-06T07:53:47Z</time>
      </trkpt>
      <trkpt lat="49.0749" lon="6.07569">
        <ele>212.5</ele>
        <time>2011-11-06T07:53:48Z</time>
      </trkpt>
      <trkpt lat="49.07497" lon="6.07568">
        <ele>212.7</ele>
        <time>2011-11-06T07:53:49Z</time>
      </trkpt>
      <trkpt lat="49.07508" lon="6.07565">
        <ele>213.2</ele>
        <time>2011-11-06T07:53:50Z</time>
      </trkpt>
      <trkpt lat="49.07515" lon="6.07566">
        <ele>213.5</ele>
        <time>2011-11-06T07:53:51Z</time>
      </trkpt>
      <trkpt lat="49.07522" lon="6.07567">
        <ele>213.6</ele>
        <time>2011-11-06T07:53:52Z</time>
      </trkpt>
      <trkpt lat="49.07528" lon="6.07571">
        <ele>215.1</ele>
        <time>2011-11-06T07:53:54Z</time>
      </trkpt>
      <trkpt lat="49.07535" lon="6.07571">
        <ele>215.1</ele>
        <time>2011-11-06T07:53:56Z</time>
      </trkpt>
      <trkpt lat="49.07536" lon="6.0752">
        <ele>207.3</ele>
        <time>2011-11-06T07:54:04Z</time>
      </trkpt>
      <trkpt lat="49.07529" lon="6.07526">
        <ele>204.3</ele>
        <time>2011-11-06T07:54:05Z</time>
      </trkpt>
      <trkpt lat="49.07533" lon="6.0753">
        <ele>204.9</ele>
        <time>2011-11-06T07:54:06Z</time>
      </trkpt>
      <trkpt lat="49.07526" lon="6.07534">
        <ele>236.5</ele>
        <time>2011-11-06T07:54:07Z</time>
      </trkpt>
      <trkpt lat="49.07537" lon="6.07558">
        <ele>234</ele>
        <time>2011-11-06T07:54:08Z</time>
      </trkpt>
      <trkpt lat="49.07558" lon="6.07595">
        <ele>295.4</ele>
        <time>2011-11-06T07:54:09Z</time>
      </trkpt>
      <trkpt lat="49.07544" lon="6.07584">
        <ele>275</ele>
        <time>2011-11-06T07:54:10Z</time>
      </trkpt>
      <trkpt lat="49.07525" lon="6.07546">
        <ele>231.6</ele>
        <time>2011-11-06T07:54:11Z</time>
      </trkpt>
      <trkpt lat="49.07522" lon="6.07556">
        <ele>214.2</ele>
        <time>2011-11-06T07:54:12Z</time>
      </trkpt>
      <trkpt lat="49.07517" lon="6.07559">
        <ele>204.1</ele>
        <time>2011-11-06T07:54:14Z</time>
      </trkpt>
      <trkpt lat="49.07506" lon="6.07542">
        <ele>224.9</ele>
        <time>2011-11-06T07:54:15Z</time>
      </trkpt>
      <trkpt lat="49.07516" lon="6.07534">
        <ele>228.6</ele>
        <time>2011-11-06T07:54:16Z</time>
      </trkpt>
      <trkpt lat="49.07524" lon="6.07523">
        <ele>226.2</ele>
        <time>2011-11-06T07:54:17Z</time>
      </trkpt>
      <trkpt lat="49.07533" lon="6.07536">
        <ele>252.9</ele>
        <time>2011-11-06T07:54:19Z</time>
      </trkpt>
      <trkpt lat="49.07534" lon="6.07529">
        <ele>247.9</ele>
        <time>2011-11-06T07:54:21Z</time>
      </trkpt>
      <trkpt lat="49.07543" lon="6.07528">
        <ele>240.9</ele>
        <time>2011-11-06T07:54:22Z</time>
      </trkpt>
      <trkpt lat="49.0755" lon="6.0752">
        <ele>242</ele>
        <time>2011-11-06T07:54:25Z</time>
      </trkpt>
      <trkpt lat="49.07558" lon="6.07517">
        <ele>220.1</ele>
        <time>2011-11-06T07:54:26Z</time>
      </trkpt>
      <trkpt lat="49.07545" lon="6.07515">
        <ele>231.1</ele>
        <time>2011-11-06T07:54:27Z</time>
      </trkpt>
      <trkpt lat="49.07553" lon="6.07521">
        <ele>245.5</ele>
        <time>2011-11-06T07:54:28Z</time>
      </trkpt>
      <trkpt lat="49.07546" lon="6.07509">
        <ele>238.7</ele>
        <time>2011-11-06T07:54:29Z</time>
      </trkpt>
      <trkpt lat="49.07542" lon="6.07519">
        <ele>249.4</ele>
        <time>2011-11-06T07:54:30Z</time>
      </trkpt>
      <trkpt lat="49.07522" lon="6.07538">
        <ele>244.1</ele>
        <time>2011-11-06T07:54:31Z</time>
      </trkpt>
      <trkpt lat="49.0751" lon="6.07546">
        <ele>266</ele>
        <time>2011-11-06T07:54:32Z</time>
      </trkpt>
      <trkpt lat="49.07521" lon="6.07537">
        <ele>236.5</ele>
        <time>2011-11-06T07:54:33Z</time>
      </trkpt>
      <trkpt lat="49.07512" lon="6.07544">
        <ele>229.4</ele>
        <time>2011-11-06T07:54:34Z</time>
      </trkpt>
      <trkpt lat="49.07511" lon="6.07551">
        <ele>278.2</ele>
        <time>2011-11-06T07:54:36Z</time>
      </trkpt>
      <trkpt lat="49.07516" lon="6.07545">
        <ele>283.2</ele>
        <time>2011-11-06T07:54:37Z</time>
      </trkpt>
      <trkpt lat="49.07522" lon="6.07541">
        <ele>291.6</ele>
        <time>2011-11-06T07:54:38Z</time>
      </trkpt>
      <trkpt lat="49.07526" lon="6.07545">
        <ele>296</ele>
        <time>2011-11-06T07:54:39Z</time>
      </trkpt>
      <trkpt lat="49.0755" lon="6.07515">
        <ele>275.3</ele>
        <time>2011-11-06T07:54:40Z</time>
      </trkpt>
      <trkpt lat="49.07534" lon="6.07508">
        <ele>305.7</ele>
        <time>2011-11-06T07:54:41Z</time>
      </trkpt>
      <trkpt lat="49.07574" lon="6.07516">
        <ele>270.6</ele>
        <time>2011-11-06T07:54:42Z</time>
      </trkpt>
      <trkpt lat="49.07575" lon="6.07525">
        <ele>256.5</ele>
        <time>2011-11-06T07:54:43Z</time>
      </trkpt>
      <trkpt lat="49.07557" lon="6.07531">
        <ele>268.1</ele>
        <time>2011-11-06T07:54:44Z</time>
      </trkpt>
      <trkpt lat="49.07565" lon="6.07542">
        <ele>240.3</ele>
        <time>2011-11-06T07:54:45Z</time>
      </trkpt>
      <trkpt lat="49.07571" lon="6.07522">
        <ele>220.6</ele>
        <time>2011-11-06T07:54:46Z</time>
      </trkpt>
      <trkpt lat="49.07552" lon="6.07528">
        <ele>225.4</ele>
        <time>2011-11-06T07:54:48Z</time>
      </trkpt>
      <trkpt lat="49.07555" lon="6.07522">
        <ele>233.1</ele>
        <time>2011-11-06T07:54:49Z</time>
      </trkpt>
      <trkpt lat="49.07546" lon="6.07524">
        <ele>234.5</ele>
        <time>2011-11-06T07:54:50Z</time>
      </trkpt>
      <trkpt lat="49.07523" lon="6.07524">
        <ele>237.5</ele>
        <time>2011-11-06T07:54:52Z</time>
      </trkpt>
      <trkpt lat="49.0751" lon="6.07527">
        <ele>235</ele>
        <time>2011-11-06T07:54:53Z</time>
      </trkpt>
      <trkpt lat="49.07507" lon="6.0752">
        <ele>239.7</ele>
        <time>2011-11-06T07:54:54Z</time>
      </trkpt>
      <trkpt lat="49.07541" lon="6.07532">
        <ele>239.7</ele>
        <time>2011-11-06T07:55:00Z</time>
      </trkpt>
      <trkpt lat="49.07536" lon="6.07538">
        <ele>243.4</ele>
        <time>2011-11-06T07:55:03Z</time>
      </trkpt>
      <trkpt lat="49.07529" lon="6.07538">
        <ele>234.4</ele>
        <time>2011-11-06T07:55:08Z</time>
      </trkpt>
      <trkpt lat="49.07529" lon="6.07538">
        <ele>234.4</ele>
        <time>2011-11-06T07:55:08Z</time>
      </trkpt>
      <trkpt lat="49.07529" lon="6.07538">
        <ele>234.4</ele>
        <time>2011-11-06T07:55:09Z</time>
      </trkpt>
      <trkpt lat="49.07549" lon="6.07515">
        <ele>227.6</ele>
        <time>2011-11-06T07:56:02Z</time>
      </trkpt>
      <trkpt lat="49.07542" lon="6.07517">
        <ele>212.6</ele>
        <time>2011-11-06T07:56:03Z</time>
      </trkpt>
      <trkpt lat="49.07545" lon="6.07524">
        <ele>217.1</ele>
        <time>2011-11-06T07:56:04Z</time>
      </trkpt>
      <trkpt lat="49.07547" lon="6.07517">
        <ele>230.8</ele>
        <time>2011-11-06T07:56:07Z</time>
      </trkpt>
      <trkpt lat="49.07548" lon="6.07526">
        <ele>240.8</ele>
        <time>2011-11-06T07:56:08Z</time>
      </trkpt>
      <trkpt lat="49.07539" lon="6.07533">
        <ele>226.2</ele>
        <time>2011-11-06T07:56:11Z</time>
      </trkpt>
      <trkpt lat="49.07559" lon="6.07528">
        <ele>202.2</ele>
        <time>2011-11-06T07:56:12Z</time>
      </trkpt>
      <trkpt lat="49.07543" lon="6.07535">
        <ele>218.3</ele>
        <time>2011-11-06T07:56:13Z</time>
      </trkpt>
      <trkpt lat="49.07534" lon="6.07536">
        <ele>212.2</ele>
        <time>2011-11-06T07:56:14Z</time>
      </trkpt>
      <trkpt lat="49.07542" lon="6.07529">
        <ele>217.4</ele>
        <time>2011-11-06T07:56:15Z</time>
      </trkpt>
      <trkpt lat="49.07555" lon="6.07525">
        <ele>236.8</ele>
        <time>2011-11-06T07:56:19Z</time>
      </trkpt>
      <trkpt lat="49.07548" lon="6.07528">
        <ele>243.1</ele>
        <time>2011-11-06T07:56:21Z</time>
      </trkpt>
      <trkpt lat="49.07555" lon="6.07524">
        <ele>237.3</ele>
        <time>2011-11-06T07:56:22Z</time>
      </trkpt>
      <trkpt lat="49.07561" lon="6.0752">
        <ele>209.6</ele>
        <time>2011-11-06T07:56:24Z</time>
      </trkpt>
      <trkpt lat="49.07551" lon="6.07519">
        <ele>215.3</ele>
        <time>2011-11-06T07:56:27Z</time>
      </trkpt>
      <trkpt lat="49.07546" lon="6.07519">
        <ele>209.6</ele>
        <time>2011-11-06T07:56:28Z</time>
      </trkpt>
      <trkpt lat="49.07553" lon="6.07516">
        <ele>212.3</ele>
        <time>2011-11-06T07:56:30Z</time>
      </trkpt>
      <trkpt lat="49.07555" lon="6.07523">
        <ele>224.3</ele>
        <time>2011-11-06T07:56:31Z</time>
      </trkpt>
      <trkpt lat="49.07543" lon="6.07514">
        <ele>201</ele>
        <time>2011-11-06T07:56:32Z</time>
      </trkpt>
      <trkpt lat="49.07542" lon="6.07522">
        <ele>211.9</ele>
        <time>2011-11-06T07:56:34Z</time>
      </trkpt>
      <trkpt lat="49.07533" lon="6.07521">
        <ele>209.7</ele>
        <time>2011-11-06T07:56:36Z</time>
      </trkpt>
      <trkpt lat="49.07527" lon="6.07516">
        <ele>213.1</ele>
        <time>2011-11-06T07:56:39Z</time>
      </trkpt>
      <trkpt lat="49.07544" lon="6.07515">
        <ele>203.5</ele>
        <time>2011-11-06T07:56:40Z</time>
      </trkpt>
      <trkpt lat="49.07537" lon="6.07518">
        <ele>211.2</ele>
        <time>2011-11-06T07:56:46Z</time>
      </trkpt>
      <trkpt lat="49.07533" lon="6.07516">
        <ele>211</ele>
        <time>2011-11-06T07:57:36Z</time>
      </trkpt>
      <trkpt lat="49.07533" lon="6.07525">
        <ele>214</ele>
        <time>2011-11-06T08:06:48Z</time>
      </trkpt>
      <trkpt lat="49.07529" lon="6.0753">
        <ele>216.6</ele>
        <time>2011-11-06T08:06:50Z</time>
      </trkpt>
      <trkpt lat="49.07526" lon="6.07535">
        <ele>218</ele>
        <time>2011-11-06T08:06:59Z</time>
      </trkpt>
      <trkpt lat="49.07529" lon="6.07541">
        <ele>223.8</ele>
        <time>2011-11-06T08:07:06Z</time>
      </trkpt>
      <trkpt lat="49.07531" lon="6.07547">
        <ele>223.8</ele>
        <time>2011-11-06T08:07:07Z</time>
      </trkpt>
      <trkpt lat="49.0754" lon="6.07561">
        <ele>227.7</ele>
        <time>2011-11-06T08:07:08Z</time>
      </trkpt>
      <trkpt lat="49.07547" lon="6.07569">
        <ele>230.3</ele>
        <time>2011-11-06T08:07:09Z</time>
      </trkpt>
      <trkpt lat="49.07548" lon="6.07577">
        <ele>230.7</ele>
        <time>2011-11-06T08:07:10Z</time>
      </trkpt>
      <trkpt lat="49.07551" lon="6.07586">
        <ele>231.6</ele>
        <time>2011-11-06T08:07:11Z</time>
      </trkpt>
      <trkpt lat="49.07555" lon="6.07595">
        <ele>232.9</ele>
        <time>2011-11-06T08:07:12Z</time>
      </trkpt>
      <trkpt lat="49.07557" lon="6.07604">
        <ele>232.4</ele>
        <time>2011-11-06T08:07:13Z</time>
      </trkpt>
      <trkpt lat="49.07561" lon="6.07607">
        <ele>232</ele>
        <time>2011-11-06T08:07:14Z</time>
      </trkpt>
      <trkpt lat="49.07569" lon="6.07618">
        <ele>233.7</ele>
        <time>2011-11-06T08:07:16Z</time>
      </trkpt>
      <trkpt lat="49.07572" lon="6.07624">
        <ele>234</ele>
        <time>2011-11-06T08:07:17Z</time>
      </trkpt>
      <trkpt lat="49.07576" lon="6.07632">
        <ele>235.3</ele>
        <time>2011-11-06T08:07:18Z</time>
      </trkpt>
      <trkpt lat="49.07578" lon="6.07639">
        <ele>237.4</ele>
        <time>2011-11-06T08:07:19Z</time>
      </trkpt>
      <trkpt lat="49.07581" lon="6.07645">
        <ele>238.1</ele>
        <time>2011-11-06T08:07:20Z</time>
      </trkpt>
      <trkpt lat="49.07583" lon="6.07656">
        <ele>237.6</ele>
        <time>2011-11-06T08:07:21Z</time>
      </trkpt>
      <trkpt lat="49.07591" lon="6.07665">
        <ele>234.1</ele>
        <time>2011-11-06T08:07:22Z</time>
      </trkpt>
      <trkpt lat="49.07594" lon="6.07672">
        <ele>234.2</ele>
        <time>2011-11-06T08:07:23Z</time>
      </trkpt>
      <trkpt lat="49.07599" lon="6.07682">
        <ele>233.4</ele>
        <time>2011-11-06T08:07:24Z</time>
      </trkpt>
      <trkpt lat="49.07603" lon="6.0769">
        <ele>233.4</ele>
        <time>2011-11-06T08:07:25Z</time>
      </trkpt>
      <trkpt lat="49.07605" lon="6.07697">
        <ele>232.4</ele>
        <time>2011-11-06T08:07:26Z</time>
      </trkpt>
      <trkpt lat="49.07609" lon="6.07706">
        <ele>232</ele>
        <time>2011-11-06T08:07:27Z</time>
      </trkpt>
      <trkpt lat="49.07613" lon="6.07711">
        <ele>232.2</ele>
        <time>2011-11-06T08:07:28Z</time>
      </trkpt>
      <trkpt lat="49.07616" lon="6.07717">
        <ele>232.3</ele>
        <time>2011-11-06T08:07:29Z</time>
      </trkpt>
      <trkpt lat="49.07618" lon="6.07726">
        <ele>232.7</ele>
        <time>2011-11-06T08:07:30Z</time>
      </trkpt>
      <trkpt lat="49.07624" lon="6.07734">
        <ele>233</ele>
        <time>2011-11-06T08:07:30Z</time>
      </trkpt>
      <trkpt lat="49.07631" lon="6.07742">
        <ele>233.3</ele>
        <time>2011-11-06T08:07:31Z</time>
      </trkpt>
      <trkpt lat="49.07635" lon="6.0775">
        <ele>233.3</ele>
        <time>2011-11-06T08:07:32Z</time>
      </trkpt>
      <trkpt lat="49.07639" lon="6.07759">
        <ele>233</ele>
        <time>2011-11-06T08:07:34Z</time>
      </trkpt>
      <trkpt lat="49.07642" lon="6.07766">
        <ele>233.3</ele>
        <time>2011-11-06T08:07:35Z</time>
      </trkpt>
      <trkpt lat="49.07648" lon="6.07772">
        <ele>232.6</ele>
        <time>2011-11-06T08:07:36Z</time>
      </trkpt>
      <trkpt lat="49.07651" lon="6.0778">
        <ele>232.9</ele>
        <time>2011-11-06T08:07:36Z</time>
      </trkpt>
      <trkpt lat="49.07652" lon="6.07789">
        <ele>233.1</ele>
        <time>2011-11-06T08:07:37Z</time>
      </trkpt>
      <trkpt lat="49.07655" lon="6.07797">
        <ele>233.1</ele>
        <time>2011-11-06T08:07:39Z</time>
      </trkpt>
      <trkpt lat="49.07656" lon="6.07806">
        <ele>231.9</ele>
        <time>2011-11-06T08:07:40Z</time>
      </trkpt>
      <trkpt lat="49.07659" lon="6.07815">
        <ele>231.8</ele>
        <time>2011-11-06T08:07:40Z</time>
      </trkpt>
      <trkpt lat="49.07663" lon="6.07821">
        <ele>230.8</ele>
        <time>2011-11-06T08:07:41Z</time>
      </trkpt>
      <trkpt lat="49.07666" lon="6.07827">
        <ele>231</ele>
        <time>2011-11-06T08:07:42Z</time>
      </trkpt>
      <trkpt lat="49.07668" lon="6.07838">
        <ele>231.3</ele>
        <time>2011-11-06T08:07:44Z</time>
      </trkpt>
      <trkpt lat="49.07674" lon="6.07847">
        <ele>230.9</ele>
        <time>2011-11-06T08:07:45Z</time>
      </trkpt>
      <trkpt lat="49.0768" lon="6.07859">
        <ele>230</ele>
        <time>2011-11-06T08:07:46Z</time>
      </trkpt>
      <trkpt lat="49.07681" lon="6.07868">
        <ele>230.2</ele>
        <time>2011-11-06T08:07:46Z</time>
      </trkpt>
      <trkpt lat="49.07684" lon="6.07875">
        <ele>230.3</ele>
        <time>2011-11-06T08:07:47Z</time>
      </trkpt>
      <trkpt lat="49.07689" lon="6.07888">
        <ele>228.6</ele>
        <time>2011-11-06T08:07:48Z</time>
      </trkpt>
      <trkpt lat="49.07694" lon="6.07901">
        <ele>227.5</ele>
        <time>2011-11-06T08:07:49Z</time>
      </trkpt>
      <trkpt lat="49.07695" lon="6.07908">
        <ele>227.7</ele>
        <time>2011-11-06T08:07:51Z</time>
      </trkpt>
      <trkpt lat="49.07699" lon="6.07916">
        <ele>228</ele>
        <time>2011-11-06T08:07:52Z</time>
      </trkpt>
      <trkpt lat="49.07702" lon="6.07924">
        <ele>228</ele>
        <time>2011-11-06T08:07:52Z</time>
      </trkpt>
      <trkpt lat="49.07707" lon="6.07935">
        <ele>228.2</ele>
        <time>2011-11-06T08:07:54Z</time>
      </trkpt>
      <trkpt lat="49.07712" lon="6.07943">
        <ele>228</ele>
        <time>2011-11-06T08:07:55Z</time>
      </trkpt>
      <trkpt lat="49.07722" lon="6.07963">
        <ele>228.6</ele>
        <time>2011-11-06T08:07:57Z</time>
      </trkpt>
      <trkpt lat="49.07722" lon="6.0797">
        <ele>228.6</ele>
        <time>2011-11-06T08:07:58Z</time>
      </trkpt>
      <trkpt lat="49.07715" lon="6.0798">
        <ele>227.5</ele>
        <time>2011-11-06T08:07:59Z</time>
      </trkpt>
      <trkpt lat="49.07714" lon="6.07987">
        <ele>226.9</ele>
        <time>2011-11-06T08:08:01Z</time>
      </trkpt>
      <trkpt lat="49.07716" lon="6.07995">
        <ele>227.1</ele>
        <time>2011-11-06T08:08:01Z</time>
      </trkpt>
      <trkpt lat="49.0772" lon="6.08005">
        <ele>228.2</ele>
        <time>2011-11-06T08:08:02Z</time>
      </trkpt>
      <trkpt lat="49.07723" lon="6.08012">
        <ele>228.3</ele>
        <time>2011-11-06T08:08:03Z</time>
      </trkpt>
      <trkpt lat="49.07726" lon="6.08027">
        <ele>231.1</ele>
        <time>2011-11-06T08:08:04Z</time>
      </trkpt>
      <trkpt lat="49.07731" lon="6.08034">
        <ele>232.1</ele>
        <time>2011-11-06T08:08:05Z</time>
      </trkpt>
      <trkpt lat="49.07734" lon="6.08042">
        <ele>231.8</ele>
        <time>2011-11-06T08:08:06Z</time>
      </trkpt>
      <trkpt lat="49.07742" lon="6.08059">
        <ele>232.6</ele>
        <time>2011-11-06T08:08:09Z</time>
      </trkpt>
      <trkpt lat="49.07744" lon="6.08066">
        <ele>233</ele>
        <time>2011-11-06T08:08:09Z</time>
      </trkpt>
      <trkpt lat="49.07749" lon="6.08074">
        <ele>231.9</ele>
        <time>2011-11-06T08:08:10Z</time>
      </trkpt>
      <trkpt lat="49.07755" lon="6.08083">
        <ele>227.5</ele>
        <time>2011-11-06T08:08:11Z</time>
      </trkpt>
      <trkpt lat="49.0776" lon="6.0809">
        <ele>226.9</ele>
        <time>2011-11-06T08:08:12Z</time>
      </trkpt>
      <trkpt lat="49.07765" lon="6.08095">
        <ele>226.6</ele>
        <time>2011-11-06T08:08:13Z</time>
      </trkpt>
      <trkpt lat="49.07771" lon="6.08106">
        <ele>229.2</ele>
        <time>2011-11-06T08:08:15Z</time>
      </trkpt>
      <trkpt lat="49.07775" lon="6.08112">
        <ele>229.8</ele>
        <time>2011-11-06T08:08:16Z</time>
      </trkpt>
      <trkpt lat="49.07779" lon="6.08117">
        <ele>229.6</ele>
        <time>2011-11-06T08:08:17Z</time>
      </trkpt>
      <trkpt lat="49.07784" lon="6.08125">
        <ele>230.6</ele>
        <time>2011-11-06T08:08:18Z</time>
      </trkpt>
      <trkpt lat="49.07789" lon="6.08133">
        <ele>230.8</ele>
        <time>2011-11-06T08:08:19Z</time>
      </trkpt>
      <trkpt lat="49.07794" lon="6.08138">
        <ele>231</ele>
        <time>2011-11-06T08:08:20Z</time>
      </trkpt>
      <trkpt lat="49.07798" lon="6.08145">
        <ele>231.5</ele>
        <time>2011-11-06T08:08:21Z</time>
      </trkpt>
      <trkpt lat="49.07802" lon="6.08153">
        <ele>231.7</ele>
        <time>2011-11-06T08:08:22Z</time>
      </trkpt>
      <trkpt lat="49.07806" lon="6.08159">
        <ele>231.7</ele>
        <time>2011-11-06T08:08:23Z</time>
      </trkpt>
      <trkpt lat="49.0781" lon="6.08164">
        <ele>231.9</ele>
        <time>2011-11-06T08:08:24Z</time>
      </trkpt>
      <trkpt lat="49.07814" lon="6.08173">
        <ele>232.3</ele>
        <time>2011-11-06T08:08:25Z</time>
      </trkpt>
      <trkpt lat="49.07822" lon="6.0818">
        <ele>232.3</ele>
        <time>2011-11-06T08:08:27Z</time>
      </trkpt>
      <trkpt lat="49.07826" lon="6.08185">
        <ele>232.3</ele>
        <time>2011-11-06T08:08:28Z</time>
      </trkpt>
      <trkpt lat="49.07832" lon="6.08189">
        <ele>232.2</ele>
        <time>2011-11-06T08:08:29Z</time>
      </trkpt>
      <trkpt lat="49.07836" lon="6.08199">
        <ele>232.7</ele>
        <time>2011-11-06T08:08:30Z</time>
      </trkpt>
      <trkpt lat="49.07846" lon="6.08216">
        <ele>232.1</ele>
        <time>2011-11-06T08:08:32Z</time>
      </trkpt>
      <trkpt lat="49.07851" lon="6.08224">
        <ele>232.1</ele>
        <time>2011-11-06T08:08:33Z</time>
      </trkpt>
      <trkpt lat="49.07858" lon="6.0823">
        <ele>232.9</ele>
        <time>2011-11-06T08:08:34Z</time>
      </trkpt>
      <trkpt lat="49.07864" lon="6.08237">
        <ele>233.6</ele>
        <time>2011-11-06T08:08:35Z</time>
      </trkpt>
      <trkpt lat="49.07872" lon="6.08242">
        <ele>234</ele>
        <time>2011-11-06T08:08:36Z</time>
      </trkpt>
      <trkpt lat="49.07878" lon="6.08248">
        <ele>234.7</ele>
        <time>2011-11-06T08:08:37Z</time>
      </trkpt>
      <trkpt lat="49.07884" lon="6.08258">
        <ele>231.8</ele>
        <time>2011-11-06T08:08:38Z</time>
      </trkpt>
      <trkpt lat="49.07887" lon="6.08262">
        <ele>232.3</ele>
        <time>2011-11-06T08:08:39Z</time>
      </trkpt>
      <trkpt lat="49.07891" lon="6.0827">
        <ele>233.2</ele>
        <time>2011-11-06T08:08:40Z</time>
      </trkpt>
      <trkpt lat="49.07897" lon="6.08275">
        <ele>234.6</ele>
        <time>2011-11-06T08:08:41Z</time>
      </trkpt>
      <trkpt lat="49.07902" lon="6.0828">
        <ele>234.3</ele>
        <time>2011-11-06T08:08:42Z</time>
      </trkpt>
      <trkpt lat="49.07907" lon="6.08284">
        <ele>235.6</ele>
        <time>2011-11-06T08:08:43Z</time>
      </trkpt>
      <trkpt lat="49.07911" lon="6.0829">
        <ele>236.4</ele>
        <time>2011-11-06T08:08:44Z</time>
      </trkpt>
      <trkpt lat="49.07916" lon="6.08296">
        <ele>236.6</ele>
        <time>2011-11-06T08:08:45Z</time>
      </trkpt>
      <trkpt lat="49.07923" lon="6.08301">
        <ele>236.6</ele>
        <time>2011-11-06T08:08:46Z</time>
      </trkpt>
      <trkpt lat="49.07928" lon="6.08305">
        <ele>236.6</ele>
        <time>2011-11-06T08:08:47Z</time>
      </trkpt>
      <trkpt lat="49.07933" lon="6.0831">
        <ele>236.6</ele>
        <time>2011-11-06T08:08:48Z</time>
      </trkpt>
      <trkpt lat="49.07938" lon="6.08315">
        <ele>236.7</ele>
        <time>2011-11-06T08:08:49Z</time>
      </trkpt>
      <trkpt lat="49.07944" lon="6.08322">
        <ele>234.9</ele>
        <time>2011-11-06T08:08:50Z</time>
      </trkpt>
      <trkpt lat="49.07953" lon="6.08328">
        <ele>233.9</ele>
        <time>2011-11-06T08:08:51Z</time>
      </trkpt>
      <trkpt lat="49.07959" lon="6.08335">
        <ele>233.4</ele>
        <time>2011-11-06T08:08:52Z</time>
      </trkpt>
      <trkpt lat="49.07966" lon="6.08341">
        <ele>231</ele>
        <time>2011-11-06T08:08:53Z</time>
      </trkpt>
      <trkpt lat="49.07971" lon="6.08346">
        <ele>231.7</ele>
        <time>2011-11-06T08:08:54Z</time>
      </trkpt>
      <trkpt lat="49.07984" lon="6.08356">
        <ele>231.8</ele>
        <time>2011-11-06T08:08:57Z</time>
      </trkpt>
      <trkpt lat="49.07996" lon="6.08362">
        <ele>231.6</ele>
        <time>2011-11-06T08:08:58Z</time>
      </trkpt>
      <trkpt lat="49.08002" lon="6.08366">
        <ele>231.7</ele>
        <time>2011-11-06T08:08:59Z</time>
      </trkpt>
      <trkpt lat="49.08008" lon="6.08373">
        <ele>231.7</ele>
        <time>2011-11-06T08:09:00Z</time>
      </trkpt>
      <trkpt lat="49.08014" lon="6.08379">
        <ele>231.8</ele>
        <time>2011-11-06T08:09:01Z</time>
      </trkpt>
      <trkpt lat="49.0802" lon="6.08384">
        <ele>231.9</ele>
        <time>2011-11-06T08:09:02Z</time>
      </trkpt>
      <trkpt lat="49.08026" lon="6.08392">
        <ele>230.9</ele>
        <time>2011-11-06T08:09:04Z</time>
      </trkpt>
      <trkpt lat="49.08028" lon="6.08402">
        <ele>230.6</ele>
        <time>2011-11-06T08:09:05Z</time>
      </trkpt>
      <trkpt lat="49.08033" lon="6.08407">
        <ele>230.6</ele>
        <time>2011-11-06T08:09:06Z</time>
      </trkpt>
      <trkpt lat="49.0804" lon="6.08418">
        <ele>229.4</ele>
        <time>2011-11-06T08:09:07Z</time>
      </trkpt>
      <trkpt lat="49.08045" lon="6.08423">
        <ele>229.4</ele>
        <time>2011-11-06T08:09:08Z</time>
      </trkpt>
      <trkpt lat="49.08055" lon="6.08433">
        <ele>227.6</ele>
        <time>2011-11-06T08:09:09Z</time>
      </trkpt>
      <trkpt lat="49.08059" lon="6.08442">
        <ele>227.8</ele>
        <time>2011-11-06T08:09:10Z</time>
      </trkpt>
      <trkpt lat="49.08064" lon="6.08451">
        <ele>227.2</ele>
        <time>2011-11-06T08:09:11Z</time>
      </trkpt>
      <trkpt lat="49.0807" lon="6.08456">
        <ele>226.9</ele>
        <time>2011-11-06T08:09:12Z</time>
      </trkpt>
      <trkpt lat="49.08078" lon="6.0846">
        <ele>226.3</ele>
        <time>2011-11-06T08:09:13Z</time>
      </trkpt>
      <trkpt lat="49.08083" lon="6.08465">
        <ele>226.5</ele>
        <time>2011-11-06T08:09:14Z</time>
      </trkpt>
      <trkpt lat="49.08088" lon="6.0847">
        <ele>226.8</ele>
        <time>2011-11-06T08:09:15Z</time>
      </trkpt>
      <trkpt lat="49.08094" lon="6.08476">
        <ele>226.8</ele>
        <time>2011-11-06T08:09:16Z</time>
      </trkpt>
      <trkpt lat="49.08104" lon="6.0848">
        <ele>227.1</ele>
        <time>2011-11-06T08:09:17Z</time>
      </trkpt>
      <trkpt lat="49.08108" lon="6.08487">
        <ele>226.9</ele>
        <time>2011-11-06T08:09:18Z</time>
      </trkpt>
      <trkpt lat="49.08113" lon="6.08491">
        <ele>226.7</ele>
        <time>2011-11-06T08:09:19Z</time>
      </trkpt>
      <trkpt lat="49.08119" lon="6.08491">
        <ele>226.7</ele>
        <time>2011-11-06T08:09:20Z</time>
      </trkpt>
      <trkpt lat="49.08128" lon="6.08504">
        <ele>226.3</ele>
        <time>2011-11-06T08:09:22Z</time>
      </trkpt>
      <trkpt lat="49.08135" lon="6.08509">
        <ele>226.7</ele>
        <time>2011-11-06T08:09:23Z</time>
      </trkpt>
      <trkpt lat="49.08141" lon="6.08514">
        <ele>226.7</ele>
        <time>2011-11-06T08:09:24Z</time>
      </trkpt>
      <trkpt lat="49.08147" lon="6.0852">
        <ele>226.7</ele>
        <time>2011-11-06T08:09:25Z</time>
      </trkpt>
      <trkpt lat="49.08153" lon="6.08525">
        <ele>227.1</ele>
        <time>2011-11-06T08:09:26Z</time>
      </trkpt>
      <trkpt lat="49.0816" lon="6.0853">
        <ele>227.1</ele>
        <time>2011-11-06T08:09:27Z</time>
      </trkpt>
      <trkpt lat="49.08166" lon="6.08536">
        <ele>227.1</ele>
        <time>2011-11-06T08:09:28Z</time>
      </trkpt>
      <trkpt lat="49.0817" lon="6.0854">
        <ele>226.9</ele>
        <time>2011-11-06T08:09:29Z</time>
      </trkpt>
      <trkpt lat="49.08175" lon="6.08546">
        <ele>226.5</ele>
        <time>2011-11-06T08:09:30Z</time>
      </trkpt>
      <trkpt lat="49.08184" lon="6.08551">
        <ele>226.7</ele>
        <time>2011-11-06T08:09:31Z</time>
      </trkpt>
      <trkpt lat="49.08192" lon="6.08558">
        <ele>227</ele>
        <time>2011-11-06T08:09:32Z</time>
      </trkpt>
      <trkpt lat="49.08194" lon="6.08569">
        <ele>226.7</ele>
        <time>2011-11-06T08:09:33Z</time>
      </trkpt>
      <trkpt lat="49.082" lon="6.08575">
        <ele>226.8</ele>
        <time>2011-11-06T08:09:34Z</time>
      </trkpt>
      <trkpt lat="49.08208" lon="6.08581">
        <ele>227.3</ele>
        <time>2011-11-06T08:09:35Z</time>
      </trkpt>
      <trkpt lat="49.08215" lon="6.0858">
        <ele>227.1</ele>
        <time>2011-11-06T08:09:36Z</time>
      </trkpt>
      <trkpt lat="49.08221" lon="6.0858">
        <ele>227.7</ele>
        <time>2011-11-06T08:09:37Z</time>
      </trkpt>
      <trkpt lat="49.08227" lon="6.08584">
        <ele>227.7</ele>
        <time>2011-11-06T08:09:38Z</time>
      </trkpt>
      <trkpt lat="49.08233" lon="6.08587">
        <ele>228.3</ele>
        <time>2011-11-06T08:09:39Z</time>
      </trkpt>
      <trkpt lat="49.0824" lon="6.08596">
        <ele>227.5</ele>
        <time>2011-11-06T08:09:40Z</time>
      </trkpt>
      <trkpt lat="49.08244" lon="6.08601">
        <ele>227.9</ele>
        <time>2011-11-06T08:09:41Z</time>
      </trkpt>
      <trkpt lat="49.0825" lon="6.08605">
        <ele>228</ele>
        <time>2011-11-06T08:09:42Z</time>
      </trkpt>
      <trkpt lat="49.08255" lon="6.08612">
        <ele>227.8</ele>
        <time>2011-11-06T08:09:43Z</time>
      </trkpt>
      <trkpt lat="49.0826" lon="6.08616">
        <ele>227.8</ele>
        <time>2011-11-06T08:09:44Z</time>
      </trkpt>
      <trkpt lat="49.08268" lon="6.08622">
        <ele>227.4</ele>
        <time>2011-11-06T08:09:45Z</time>
      </trkpt>
      <trkpt lat="49.08277" lon="6.08627">
        <ele>226.6</ele>
        <time>2011-11-06T08:09:46Z</time>
      </trkpt>
      <trkpt lat="49.08286" lon="6.08632">
        <ele>226.5</ele>
        <time>2011-11-06T08:09:47Z</time>
      </trkpt>
      <trkpt lat="49.08291" lon="6.0864">
        <ele>226.1</ele>
        <time>2011-11-06T08:09:48Z</time>
      </trkpt>
      <trkpt lat="49.08298" lon="6.08646">
        <ele>226.1</ele>
        <time>2011-11-06T08:09:49Z</time>
      </trkpt>
      <trkpt lat="49.08306" lon="6.08655">
        <ele>224.9</ele>
        <time>2011-11-06T08:09:50Z</time>
      </trkpt>
      <trkpt lat="49.08313" lon="6.08661">
        <ele>224.8</ele>
        <time>2011-11-06T08:09:51Z</time>
      </trkpt>
      <trkpt lat="49.0832" lon="6.08667">
        <ele>224.8</ele>
        <time>2011-11-06T08:09:52Z</time>
      </trkpt>
      <trkpt lat="49.08326" lon="6.08672">
        <ele>224.8</ele>
        <time>2011-11-06T08:09:53Z</time>
      </trkpt>
      <trkpt lat="49.08336" lon="6.08673">
        <ele>225</ele>
        <time>2011-11-06T08:09:54Z</time>
      </trkpt>
      <trkpt lat="49.0835" lon="6.08684">
        <ele>224.7</ele>
        <time>2011-11-06T08:09:57Z</time>
      </trkpt>
      <trkpt lat="49.0835" lon="6.08691">
        <ele>224.2</ele>
        <time>2011-11-06T08:09:58Z</time>
      </trkpt>
      <trkpt lat="49.08354" lon="6.087">
        <ele>221</ele>
        <time>2011-11-06T08:09:59Z</time>
      </trkpt>
      <trkpt lat="49.0836" lon="6.08706">
        <ele>220.3</ele>
        <time>2011-11-06T08:10:00Z</time>
      </trkpt>
      <trkpt lat="49.08363" lon="6.08718">
        <ele>222.4</ele>
        <time>2011-11-06T08:10:02Z</time>
      </trkpt>
      <trkpt lat="49.0837" lon="6.08722">
        <ele>222</ele>
        <time>2011-11-06T08:10:03Z</time>
      </trkpt>
      <trkpt lat="49.08374" lon="6.08728">
        <ele>222.2</ele>
        <time>2011-11-06T08:10:04Z</time>
      </trkpt>
      <trkpt lat="49.0838" lon="6.08732">
        <ele>221.4</ele>
        <time>2011-11-06T08:10:05Z</time>
      </trkpt>
      <trkpt lat="49.08385" lon="6.08737">
        <ele>221.5</ele>
        <time>2011-11-06T08:10:06Z</time>
      </trkpt>
      <trkpt lat="49.08391" lon="6.08744">
        <ele>221.5</ele>
        <time>2011-11-06T08:10:07Z</time>
      </trkpt>
      <trkpt lat="49.08397" lon="6.08749">
        <ele>221.2</ele>
        <time>2011-11-06T08:10:08Z</time>
      </trkpt>
      <trkpt lat="49.08403" lon="6.08755">
        <ele>221.6</ele>
        <time>2011-11-06T08:10:09Z</time>
      </trkpt>
      <trkpt lat="49.08407" lon="6.0876">
        <ele>221.9</ele>
        <time>2011-11-06T08:10:10Z</time>
      </trkpt>
      <trkpt lat="49.08415" lon="6.08765">
        <ele>223.3</ele>
        <time>2011-11-06T08:10:11Z</time>
      </trkpt>
      <trkpt lat="49.08421" lon="6.08772">
        <ele>224.3</ele>
        <time>2011-11-06T08:10:12Z</time>
      </trkpt>
      <trkpt lat="49.08427" lon="6.08778">
        <ele>224.3</ele>
        <time>2011-11-06T08:10:13Z</time>
      </trkpt>
      <trkpt lat="49.08433" lon="6.08785">
        <ele>226.1</ele>
        <time>2011-11-06T08:10:14Z</time>
      </trkpt>
      <trkpt lat="49.08438" lon="6.08788">
        <ele>226.1</ele>
        <time>2011-11-06T08:10:15Z</time>
      </trkpt>
      <trkpt lat="49.08443" lon="6.08794">
        <ele>227.6</ele>
        <time>2011-11-06T08:10:16Z</time>
      </trkpt>
      <trkpt lat="49.08449" lon="6.088">
        <ele>228.1</ele>
        <time>2011-11-06T08:10:17Z</time>
      </trkpt>
      <trkpt lat="49.08454" lon="6.08807">
        <ele>228.2</ele>
        <time>2011-11-06T08:10:18Z</time>
      </trkpt>
      <trkpt lat="49.08461" lon="6.08815">
        <ele>226.5</ele>
        <time>2011-11-06T08:10:19Z</time>
      </trkpt>
      <trkpt lat="49.08468" lon="6.0882">
        <ele>226.1</ele>
        <time>2011-11-06T08:10:20Z</time>
      </trkpt>
      <trkpt lat="49.08474" lon="6.08826">
        <ele>225.4</ele>
        <time>2011-11-06T08:10:21Z</time>
      </trkpt>
      <trkpt lat="49.0848" lon="6.08831">
        <ele>225.4</ele>
        <time>2011-11-06T08:10:22Z</time>
      </trkpt>
      <trkpt lat="49.08486" lon="6.08833">
        <ele>226.3</ele>
        <time>2011-11-06T08:10:23Z</time>
      </trkpt>
      <trkpt lat="49.08492" lon="6.08838">
        <ele>226.3</ele>
        <time>2011-11-06T08:10:24Z</time>
      </trkpt>
      <trkpt lat="49.08499" lon="6.08844">
        <ele>226.3</ele>
        <time>2011-11-06T08:10:25Z</time>
      </trkpt>
      <trkpt lat="49.08506" lon="6.08848">
        <ele>226.4</ele>
        <time>2011-11-06T08:10:26Z</time>
      </trkpt>
      <trkpt lat="49.08512" lon="6.08854">
        <ele>227.2</ele>
        <time>2011-11-06T08:10:27Z</time>
      </trkpt>
      <trkpt lat="49.08518" lon="6.08859">
        <ele>228.7</ele>
        <time>2011-11-06T08:10:28Z</time>
      </trkpt>
      <trkpt lat="49.08523" lon="6.08864">
        <ele>229.3</ele>
        <time>2011-11-06T08:10:29Z</time>
      </trkpt>
      <trkpt lat="49.08528" lon="6.08868">
        <ele>229.5</ele>
        <time>2011-11-06T08:10:30Z</time>
      </trkpt>
      <trkpt lat="49.08534" lon="6.08874">
        <ele>229.6</ele>
        <time>2011-11-06T08:10:31Z</time>
      </trkpt>
      <trkpt lat="49.0854" lon="6.08879">
        <ele>229.6</ele>
        <time>2011-11-06T08:10:32Z</time>
      </trkpt>
      <trkpt lat="49.08546" lon="6.08886">
        <ele>230.1</ele>
        <time>2011-11-06T08:10:33Z</time>
      </trkpt>
      <trkpt lat="49.08551" lon="6.08892">
        <ele>230.1</ele>
        <time>2011-11-06T08:10:34Z</time>
      </trkpt>
      <trkpt lat="49.08558" lon="6.08898">
        <ele>229.5</ele>
        <time>2011-11-06T08:10:35Z</time>
      </trkpt>
      <trkpt lat="49.08564" lon="6.08904">
        <ele>229.7</ele>
        <time>2011-11-06T08:10:36Z</time>
      </trkpt>
      <trkpt lat="49.0857" lon="6.0891">
        <ele>229.5</ele>
        <time>2011-11-06T08:10:37Z</time>
      </trkpt>
      <trkpt lat="49.08575" lon="6.08915">
        <ele>229.6</ele>
        <time>2011-11-06T08:10:38Z</time>
      </trkpt>
      <trkpt lat="49.08581" lon="6.08923">
        <ele>227.7</ele>
        <time>2011-11-06T08:10:39Z</time>
      </trkpt>
      <trkpt lat="49.08587" lon="6.08928">
        <ele>227.2</ele>
        <time>2011-11-06T08:10:40Z</time>
      </trkpt>
      <trkpt lat="49.08594" lon="6.08934">
        <ele>227.2</ele>
        <time>2011-11-06T08:10:41Z</time>
      </trkpt>
      <trkpt lat="49.086" lon="6.0894">
        <ele>227.7</ele>
        <time>2011-11-06T08:10:42Z</time>
      </trkpt>
      <trkpt lat="49.08609" lon="6.08946">
        <ele>227.3</ele>
        <time>2011-11-06T08:10:43Z</time>
      </trkpt>
      <trkpt lat="49.08615" lon="6.08952">
        <ele>227.2</ele>
        <time>2011-11-06T08:10:44Z</time>
      </trkpt>
      <trkpt lat="49.08623" lon="6.08957">
        <ele>227.7</ele>
        <time>2011-11-06T08:10:45Z</time>
      </trkpt>
      <trkpt lat="49.08629" lon="6.08963">
        <ele>227.4</ele>
        <time>2011-11-06T08:10:46Z</time>
      </trkpt>
      <trkpt lat="49.08634" lon="6.08967">
        <ele>226.9</ele>
        <time>2011-11-06T08:10:47Z</time>
      </trkpt>
      <trkpt lat="49.0864" lon="6.08972">
        <ele>227.1</ele>
        <time>2011-11-06T08:10:48Z</time>
      </trkpt>
      <trkpt lat="49.08645" lon="6.08976">
        <ele>226.6</ele>
        <time>2011-11-06T08:10:49Z</time>
      </trkpt>
      <trkpt lat="49.08649" lon="6.08983">
        <ele>227</ele>
        <time>2011-11-06T08:10:50Z</time>
      </trkpt>
      <trkpt lat="49.08655" lon="6.08989">
        <ele>227.1</ele>
        <time>2011-11-06T08:10:51Z</time>
      </trkpt>
      <trkpt lat="49.0866" lon="6.08995">
        <ele>227.3</ele>
        <time>2011-11-06T08:10:52Z</time>
      </trkpt>
      <trkpt lat="49.08666" lon="6.08999">
        <ele>227.1</ele>
        <time>2011-11-06T08:10:53Z</time>
      </trkpt>
      <trkpt lat="49.08672" lon="6.09004">
        <ele>226.8</ele>
        <time>2011-11-06T08:10:54Z</time>
      </trkpt>
      <trkpt lat="49.08681" lon="6.09011">
        <ele>226.8</ele>
        <time>2011-11-06T08:10:56Z</time>
      </trkpt>
      <trkpt lat="49.0869" lon="6.09018">
        <ele>226.4</ele>
        <time>2011-11-06T08:10:57Z</time>
      </trkpt>
      <trkpt lat="49.08697" lon="6.09023">
        <ele>226.7</ele>
        <time>2011-11-06T08:10:58Z</time>
      </trkpt>
      <trkpt lat="49.08703" lon="6.09028">
        <ele>226.7</ele>
        <time>2011-11-06T08:10:59Z</time>
      </trkpt>
      <trkpt lat="49.08711" lon="6.09036">
        <ele>225.8</ele>
        <time>2011-11-06T08:11:00Z</time>
      </trkpt>
      <trkpt lat="49.08718" lon="6.09041">
        <ele>225.8</ele>
        <time>2011-11-06T08:11:01Z</time>
      </trkpt>
      <trkpt lat="49.08722" lon="6.09046">
        <ele>225.6</ele>
        <time>2011-11-06T08:11:02Z</time>
      </trkpt>
      <trkpt lat="49.0873" lon="6.09052">
        <ele>225.8</ele>
        <time>2011-11-06T08:11:03Z</time>
      </trkpt>
      <trkpt lat="49.08736" lon="6.09057">
        <ele>225.8</ele>
        <time>2011-11-06T08:11:04Z</time>
      </trkpt>
      <trkpt lat="49.08741" lon="6.09061">
        <ele>225.4</ele>
        <time>2011-11-06T08:11:05Z</time>
      </trkpt>
      <trkpt lat="49.08747" lon="6.09069">
        <ele>224.8</ele>
        <time>2011-11-06T08:11:07Z</time>
      </trkpt>
      <trkpt lat="49.08752" lon="6.09074">
        <ele>224.9</ele>
        <time>2011-11-06T08:11:08Z</time>
      </trkpt>
      <trkpt lat="49.0876" lon="6.09082">
        <ele>225.4</ele>
        <time>2011-11-06T08:11:09Z</time>
      </trkpt>
      <trkpt lat="49.08766" lon="6.09085">
        <ele>225.2</ele>
        <time>2011-11-06T08:11:10Z</time>
      </trkpt>
      <trkpt lat="49.08772" lon="6.0909">
        <ele>225.2</ele>
        <time>2011-11-06T08:11:11Z</time>
      </trkpt>
      <trkpt lat="49.08777" lon="6.09096">
        <ele>225.3</ele>
        <time>2011-11-06T08:11:12Z</time>
      </trkpt>
      <trkpt lat="49.08783" lon="6.09102">
        <ele>225.4</ele>
        <time>2011-11-06T08:11:13Z</time>
      </trkpt>
      <trkpt lat="49.08789" lon="6.09106">
        <ele>225.4</ele>
        <time>2011-11-06T08:11:14Z</time>
      </trkpt>
      <trkpt lat="49.08794" lon="6.09111">
        <ele>225.4</ele>
        <time>2011-11-06T08:11:15Z</time>
      </trkpt>
      <trkpt lat="49.08802" lon="6.091">
        <ele>225.7</ele>
        <time>2011-11-06T08:11:16Z</time>
      </trkpt>
      <trkpt lat="49.0881" lon="6.09109">
        <ele>225.9</ele>
        <time>2011-11-06T08:11:17Z</time>
      </trkpt>
      <trkpt lat="49.08816" lon="6.09113">
        <ele>226</ele>
        <time>2011-11-06T08:11:18Z</time>
      </trkpt>
      <trkpt lat="49.08822" lon="6.09117">
        <ele>226</ele>
        <time>2011-11-06T08:11:19Z</time>
      </trkpt>
      <trkpt lat="49.08833" lon="6.09124">
        <ele>226.2</ele>
        <time>2011-11-06T08:11:20Z</time>
      </trkpt>
      <trkpt lat="49.08841" lon="6.0914">
        <ele>225.4</ele>
        <time>2011-11-06T08:11:21Z</time>
      </trkpt>
      <trkpt lat="49.08847" lon="6.09144">
        <ele>225.4</ele>
        <time>2011-11-06T08:11:22Z</time>
      </trkpt>
      <trkpt lat="49.08853" lon="6.09148">
        <ele>225.6</ele>
        <time>2011-11-06T08:11:23Z</time>
      </trkpt>
      <trkpt lat="49.08858" lon="6.09152">
        <ele>225.3</ele>
        <time>2011-11-06T08:11:24Z</time>
      </trkpt>
      <trkpt lat="49.08872" lon="6.09156">
        <ele>226.1</ele>
        <time>2011-11-06T08:11:25Z</time>
      </trkpt>
      <trkpt lat="49.08879" lon="6.09162">
        <ele>226.7</ele>
        <time>2011-11-06T08:11:26Z</time>
      </trkpt>
      <trkpt lat="49.08886" lon="6.09166">
        <ele>226.7</ele>
        <time>2011-11-06T08:11:27Z</time>
      </trkpt>
      <trkpt lat="49.08892" lon="6.09181">
        <ele>226.4</ele>
        <time>2011-11-06T08:11:28Z</time>
      </trkpt>
      <trkpt lat="49.08898" lon="6.09188">
        <ele>226.9</ele>
        <time>2011-11-06T08:11:29Z</time>
      </trkpt>
      <trkpt lat="49.08905" lon="6.09193">
        <ele>227</ele>
        <time>2011-11-06T08:11:30Z</time>
      </trkpt>
      <trkpt lat="49.08911" lon="6.09198">
        <ele>226.9</ele>
        <time>2011-11-06T08:11:31Z</time>
      </trkpt>
      <trkpt lat="49.08917" lon="6.09205">
        <ele>227.3</ele>
        <time>2011-11-06T08:11:32Z</time>
      </trkpt>
      <trkpt lat="49.08923" lon="6.09211">
        <ele>227.3</ele>
        <time>2011-11-06T08:11:33Z</time>
      </trkpt>
      <trkpt lat="49.08927" lon="6.09217">
        <ele>227.3</ele>
        <time>2011-11-06T08:11:34Z</time>
      </trkpt>
      <trkpt lat="49.08932" lon="6.09222">
        <ele>227.3</ele>
        <time>2011-11-06T08:11:35Z</time>
      </trkpt>
      <trkpt lat="49.08938" lon="6.09228">
        <ele>227.3</ele>
        <time>2011-11-06T08:11:36Z</time>
      </trkpt>
      <trkpt lat="49.08946" lon="6.0923">
        <ele>227</ele>
        <time>2011-11-06T08:11:37Z</time>
      </trkpt>
      <trkpt lat="49.08951" lon="6.09236">
        <ele>227.1</ele>
        <time>2011-11-06T08:11:38Z</time>
      </trkpt>
      <trkpt lat="49.08956" lon="6.09242">
        <ele>227.1</ele>
        <time>2011-11-06T08:11:39Z</time>
      </trkpt>
      <trkpt lat="49.08964" lon="6.09247">
        <ele>227.2</ele>
        <time>2011-11-06T08:11:40Z</time>
      </trkpt>
      <trkpt lat="49.08969" lon="6.09256">
        <ele>227.2</ele>
        <time>2011-11-06T08:11:41Z</time>
      </trkpt>
      <trkpt lat="49.08978" lon="6.09263">
        <ele>227.7</ele>
        <time>2011-11-06T08:11:42Z</time>
      </trkpt>
      <trkpt lat="49.08986" lon="6.09266">
        <ele>227.6</ele>
        <time>2011-11-06T08:11:43Z</time>
      </trkpt>
      <trkpt lat="49.08994" lon="6.09271">
        <ele>227.8</ele>
        <time>2011-11-06T08:11:44Z</time>
      </trkpt>
      <trkpt lat="49.09004" lon="6.09275">
        <ele>228</ele>
        <time>2011-11-06T08:11:45Z</time>
      </trkpt>
      <trkpt lat="49.09012" lon="6.09276">
        <ele>227.7</ele>
        <time>2011-11-06T08:11:46Z</time>
      </trkpt>
      <trkpt lat="49.09017" lon="6.09283">
        <ele>227.8</ele>
        <time>2011-11-06T08:11:47Z</time>
      </trkpt>
      <trkpt lat="49.09023" lon="6.09297">
        <ele>228.5</ele>
        <time>2011-11-06T08:11:48Z</time>
      </trkpt>
      <trkpt lat="49.09029" lon="6.09303">
        <ele>228.5</ele>
        <time>2011-11-06T08:11:49Z</time>
      </trkpt>
      <trkpt lat="49.09036" lon="6.09299">
        <ele>228.6</ele>
        <time>2011-11-06T08:11:50Z</time>
      </trkpt>
      <trkpt lat="49.09041" lon="6.09302">
        <ele>228.9</ele>
        <time>2011-11-06T08:11:51Z</time>
      </trkpt>
      <trkpt lat="49.09047" lon="6.09306">
        <ele>228.8</ele>
        <time>2011-11-06T08:11:52Z</time>
      </trkpt>
      <trkpt lat="49.09053" lon="6.0931">
        <ele>229.4</ele>
        <time>2011-11-06T08:11:53Z</time>
      </trkpt>
      <trkpt lat="49.0906" lon="6.09314">
        <ele>229.4</ele>
        <time>2011-11-06T08:11:54Z</time>
      </trkpt>
      <trkpt lat="49.09072" lon="6.09337">
        <ele>230.4</ele>
        <time>2011-11-06T08:11:57Z</time>
      </trkpt>
      <trkpt lat="49.09079" lon="6.09337">
        <ele>230.3</ele>
        <time>2011-11-06T08:11:58Z</time>
      </trkpt>
      <trkpt lat="49.09085" lon="6.09343">
        <ele>229.5</ele>
        <time>2011-11-06T08:11:59Z</time>
      </trkpt>
      <trkpt lat="49.09091" lon="6.09348">
        <ele>229.2</ele>
        <time>2011-11-06T08:12:00Z</time>
      </trkpt>
      <trkpt lat="49.09098" lon="6.09352">
        <ele>228.9</ele>
        <time>2011-11-06T08:12:01Z</time>
      </trkpt>
      <trkpt lat="49.09104" lon="6.09355">
        <ele>228.9</ele>
        <time>2011-11-06T08:12:02Z</time>
      </trkpt>
      <trkpt lat="49.09111" lon="6.09357">
        <ele>229</ele>
        <time>2011-11-06T08:12:03Z</time>
      </trkpt>
      <trkpt lat="49.09117" lon="6.09359">
        <ele>229.1</ele>
        <time>2011-11-06T08:12:04Z</time>
      </trkpt>
      <trkpt lat="49.09125" lon="6.09365">
        <ele>229.3</ele>
        <time>2011-11-06T08:12:05Z</time>
      </trkpt>
      <trkpt lat="49.09132" lon="6.09369">
        <ele>229.5</ele>
        <time>2011-11-06T08:12:06Z</time>
      </trkpt>
      <trkpt lat="49.09141" lon="6.09375">
        <ele>227.4</ele>
        <time>2011-11-06T08:12:07Z</time>
      </trkpt>
      <trkpt lat="49.09147" lon="6.09383">
        <ele>227.3</ele>
        <time>2011-11-06T08:12:08Z</time>
      </trkpt>
      <trkpt lat="49.09154" lon="6.09387">
        <ele>227.6</ele>
        <time>2011-11-06T08:12:09Z</time>
      </trkpt>
      <trkpt lat="49.09161" lon="6.09391">
        <ele>227.6</ele>
        <time>2011-11-06T08:12:10Z</time>
      </trkpt>
      <trkpt lat="49.0917" lon="6.09398">
        <ele>224.9</ele>
        <time>2011-11-06T08:12:11Z</time>
      </trkpt>
      <trkpt lat="49.09174" lon="6.09402">
        <ele>225.8</ele>
        <time>2011-11-06T08:12:12Z</time>
      </trkpt>
      <trkpt lat="49.09179" lon="6.0941">
        <ele>226</ele>
        <time>2011-11-06T08:12:13Z</time>
      </trkpt>
      <trkpt lat="49.09182" lon="6.09416">
        <ele>225.8</ele>
        <time>2011-11-06T08:12:14Z</time>
      </trkpt>
      <trkpt lat="49.09189" lon="6.09421">
        <ele>225.8</ele>
        <time>2011-11-06T08:12:15Z</time>
      </trkpt>
      <trkpt lat="49.09197" lon="6.09423">
        <ele>225.6</ele>
        <time>2011-11-06T08:12:16Z</time>
      </trkpt>
      <trkpt lat="49.09203" lon="6.09427">
        <ele>225.7</ele>
        <time>2011-11-06T08:12:17Z</time>
      </trkpt>
      <trkpt lat="49.09211" lon="6.09429">
        <ele>225.3</ele>
        <time>2011-11-06T08:12:18Z</time>
      </trkpt>
      <trkpt lat="49.09218" lon="6.09434">
        <ele>225.1</ele>
        <time>2011-11-06T08:12:19Z</time>
      </trkpt>
      <trkpt lat="49.09224" lon="6.09438">
        <ele>225.1</ele>
        <time>2011-11-06T08:12:20Z</time>
      </trkpt>
      <trkpt lat="49.09231" lon="6.09443">
        <ele>225.5</ele>
        <time>2011-11-06T08:12:21Z</time>
      </trkpt>
      <trkpt lat="49.09237" lon="6.09446">
        <ele>225</ele>
        <time>2011-11-06T08:12:22Z</time>
      </trkpt>
      <trkpt lat="49.09244" lon="6.09449">
        <ele>224.1</ele>
        <time>2011-11-06T08:12:23Z</time>
      </trkpt>
      <trkpt lat="49.09251" lon="6.09453">
        <ele>224</ele>
        <time>2011-11-06T08:12:24Z</time>
      </trkpt>
      <trkpt lat="49.09258" lon="6.09456">
        <ele>224</ele>
        <time>2011-11-06T08:12:25Z</time>
      </trkpt>
      <trkpt lat="49.09265" lon="6.09462">
        <ele>224.5</ele>
        <time>2011-11-06T08:12:26Z</time>
      </trkpt>
      <trkpt lat="49.09275" lon="6.09467">
        <ele>224</ele>
        <time>2011-11-06T08:12:28Z</time>
      </trkpt>
      <trkpt lat="49.09283" lon="6.09473">
        <ele>223.6</ele>
        <time>2011-11-06T08:12:29Z</time>
      </trkpt>
      <trkpt lat="49.09289" lon="6.09477">
        <ele>223.9</ele>
        <time>2011-11-06T08:12:30Z</time>
      </trkpt>
      <trkpt lat="49.09296" lon="6.09481">
        <ele>223.9</ele>
        <time>2011-11-06T08:12:31Z</time>
      </trkpt>
      <trkpt lat="49.09302" lon="6.09484">
        <ele>224.2</ele>
        <time>2011-11-06T08:12:32Z</time>
      </trkpt>
      <trkpt lat="49.09308" lon="6.09489">
        <ele>223.7</ele>
        <time>2011-11-06T08:12:33Z</time>
      </trkpt>
      <trkpt lat="49.09314" lon="6.09493">
        <ele>223.7</ele>
        <time>2011-11-06T08:12:34Z</time>
      </trkpt>
      <trkpt lat="49.09322" lon="6.09502">
        <ele>224</ele>
        <time>2011-11-06T08:12:35Z</time>
      </trkpt>
      <trkpt lat="49.09328" lon="6.09508">
        <ele>223.3</ele>
        <time>2011-11-06T08:12:36Z</time>
      </trkpt>
      <trkpt lat="49.09335" lon="6.09514">
        <ele>222.9</ele>
        <time>2011-11-06T08:12:37Z</time>
      </trkpt>
      <trkpt lat="49.09344" lon="6.09519">
        <ele>223</ele>
        <time>2011-11-06T08:12:38Z</time>
      </trkpt>
      <trkpt lat="49.09351" lon="6.09523">
        <ele>223.5</ele>
        <time>2011-11-06T08:12:39Z</time>
      </trkpt>
      <trkpt lat="49.09362" lon="6.09531">
        <ele>224.3</ele>
        <time>2011-11-06T08:12:40Z</time>
      </trkpt>
      <trkpt lat="49.0937" lon="6.09537">
        <ele>224.4</ele>
        <time>2011-11-06T08:12:41Z</time>
      </trkpt>
      <trkpt lat="49.09376" lon="6.09542">
        <ele>224.4</ele>
        <time>2011-11-06T08:12:42Z</time>
      </trkpt>
      <trkpt lat="49.09382" lon="6.09548">
        <ele>224.7</ele>
        <time>2011-11-06T08:12:43Z</time>
      </trkpt>
      <trkpt lat="49.09391" lon="6.09554">
        <ele>224</ele>
        <time>2011-11-06T08:12:44Z</time>
      </trkpt>
      <trkpt lat="49.09391" lon="6.09563">
        <ele>222.4</ele>
        <time>2011-11-06T08:12:45Z</time>
      </trkpt>
      <trkpt lat="49.09398" lon="6.09569">
        <ele>222.2</ele>
        <time>2011-11-06T08:12:46Z</time>
      </trkpt>
      <trkpt lat="49.09403" lon="6.09576">
        <ele>222.7</ele>
        <time>2011-11-06T08:12:47Z</time>
      </trkpt>
      <trkpt lat="49.09409" lon="6.09582">
        <ele>223</ele>
        <time>2011-11-06T08:12:48Z</time>
      </trkpt>
      <trkpt lat="49.09415" lon="6.09587">
        <ele>224.4</ele>
        <time>2011-11-06T08:12:49Z</time>
      </trkpt>
      <trkpt lat="49.09421" lon="6.09596">
        <ele>224.2</ele>
        <time>2011-11-06T08:12:50Z</time>
      </trkpt>
      <trkpt lat="49.09427" lon="6.09602">
        <ele>223.5</ele>
        <time>2011-11-06T08:12:51Z</time>
      </trkpt>
      <trkpt lat="49.09431" lon="6.09612">
        <ele>224.8</ele>
        <time>2011-11-06T08:12:52Z</time>
      </trkpt>
      <trkpt lat="49.09437" lon="6.0962">
        <ele>224.6</ele>
        <time>2011-11-06T08:12:53Z</time>
      </trkpt>
      <trkpt lat="49.09445" lon="6.09627">
        <ele>224.8</ele>
        <time>2011-11-06T08:12:54Z</time>
      </trkpt>
      <trkpt lat="49.09455" lon="6.09642">
        <ele>226.7</ele>
        <time>2011-11-06T08:12:56Z</time>
      </trkpt>
      <trkpt lat="49.09461" lon="6.09653">
        <ele>227</ele>
        <time>2011-11-06T08:12:57Z</time>
      </trkpt>
      <trkpt lat="49.09466" lon="6.09666">
        <ele>232.8</ele>
        <time>2011-11-06T08:12:59Z</time>
      </trkpt>
      <trkpt lat="49.09471" lon="6.09675">
        <ele>232.3</ele>
        <time>2011-11-06T08:13:00Z</time>
      </trkpt>
      <trkpt lat="49.09476" lon="6.09684">
        <ele>232.7</ele>
        <time>2011-11-06T08:13:01Z</time>
      </trkpt>
      <trkpt lat="49.09482" lon="6.09693">
        <ele>230.8</ele>
        <time>2011-11-06T08:13:02Z</time>
      </trkpt>
      <trkpt lat="49.09486" lon="6.097">
        <ele>230.7</ele>
        <time>2011-11-06T08:13:03Z</time>
      </trkpt>
      <trkpt lat="49.09492" lon="6.09707">
        <ele>231.2</ele>
        <time>2011-11-06T08:13:04Z</time>
      </trkpt>
      <trkpt lat="49.09496" lon="6.09715">
        <ele>231.2</ele>
        <time>2011-11-06T08:13:05Z</time>
      </trkpt>
      <trkpt lat="49.09501" lon="6.09723">
        <ele>231.3</ele>
        <time>2011-11-06T08:13:06Z</time>
      </trkpt>
      <trkpt lat="49.09508" lon="6.09735">
        <ele>227.9</ele>
        <time>2011-11-06T08:13:07Z</time>
      </trkpt>
      <trkpt lat="49.09512" lon="6.09743">
        <ele>227.4</ele>
        <time>2011-11-06T08:13:08Z</time>
      </trkpt>
      <trkpt lat="49.09517" lon="6.09751">
        <ele>227.3</ele>
        <time>2011-11-06T08:13:09Z</time>
      </trkpt>
      <trkpt lat="49.09522" lon="6.09759">
        <ele>227.2</ele>
        <time>2011-11-06T08:13:10Z</time>
      </trkpt>
      <trkpt lat="49.09526" lon="6.09768">
        <ele>227.5</ele>
        <time>2011-11-06T08:13:11Z</time>
      </trkpt>
      <trkpt lat="49.09531" lon="6.09776">
        <ele>227</ele>
        <time>2011-11-06T08:13:12Z</time>
      </trkpt>
      <trkpt lat="49.09537" lon="6.09786">
        <ele>226.7</ele>
        <time>2011-11-06T08:13:13Z</time>
      </trkpt>
      <trkpt lat="49.09542" lon="6.09794">
        <ele>226.7</ele>
        <time>2011-11-06T08:13:14Z</time>
      </trkpt>
      <trkpt lat="49.09548" lon="6.09801">
        <ele>226.6</ele>
        <time>2011-11-06T08:13:15Z</time>
      </trkpt>
      <trkpt lat="49.09553" lon="6.09808">
        <ele>226.1</ele>
        <time>2011-11-06T08:13:16Z</time>
      </trkpt>
      <trkpt lat="49.09558" lon="6.09816">
        <ele>226.1</ele>
        <time>2011-11-06T08:13:17Z</time>
      </trkpt>
      <trkpt lat="49.09565" lon="6.09821">
        <ele>225.6</ele>
        <time>2011-11-06T08:13:18Z</time>
      </trkpt>
      <trkpt lat="49.09571" lon="6.0983">
        <ele>225</ele>
        <time>2011-11-06T08:13:19Z</time>
      </trkpt>
      <trkpt lat="49.09576" lon="6.09837">
        <ele>225</ele>
        <time>2011-11-06T08:13:20Z</time>
      </trkpt>
      <trkpt lat="49.0958" lon="6.09844">
        <ele>225.2</ele>
        <time>2011-11-06T08:13:21Z</time>
      </trkpt>
      <trkpt lat="49.09588" lon="6.09854">
        <ele>224</ele>
        <time>2011-11-06T08:13:22Z</time>
      </trkpt>
      <trkpt lat="49.09592" lon="6.09862">
        <ele>224</ele>
        <time>2011-11-06T08:13:23Z</time>
      </trkpt>
      <trkpt lat="49.09597" lon="6.09869">
        <ele>223.9</ele>
        <time>2011-11-06T08:13:24Z</time>
      </trkpt>
      <trkpt lat="49.09603" lon="6.09879">
        <ele>223.1</ele>
        <time>2011-11-06T08:13:25Z</time>
      </trkpt>
      <trkpt lat="49.09608" lon="6.09887">
        <ele>223.6</ele>
        <time>2011-11-06T08:13:26Z</time>
      </trkpt>
      <trkpt lat="49.09613" lon="6.09895">
        <ele>223.6</ele>
        <time>2011-11-06T08:13:27Z</time>
      </trkpt>
      <trkpt lat="49.09616" lon="6.09907">
        <ele>224.6</ele>
        <time>2011-11-06T08:13:28Z</time>
      </trkpt>
      <trkpt lat="49.0962" lon="6.09919">
        <ele>222.5</ele>
        <time>2011-11-06T08:13:29Z</time>
      </trkpt>
      <trkpt lat="49.09625" lon="6.09927">
        <ele>222.5</ele>
        <time>2011-11-06T08:13:30Z</time>
      </trkpt>
      <trkpt lat="49.09629" lon="6.09936">
        <ele>222.3</ele>
        <time>2011-11-06T08:13:31Z</time>
      </trkpt>
      <trkpt lat="49.09634" lon="6.09944">
        <ele>222.2</ele>
        <time>2011-11-06T08:13:32Z</time>
      </trkpt>
      <trkpt lat="49.0964" lon="6.09954">
        <ele>222.5</ele>
        <time>2011-11-06T08:13:33Z</time>
      </trkpt>
      <trkpt lat="49.09645" lon="6.09963">
        <ele>222.5</ele>
        <time>2011-11-06T08:13:34Z</time>
      </trkpt>
      <trkpt lat="49.09649" lon="6.09971">
        <ele>222.2</ele>
        <time>2011-11-06T08:13:35Z</time>
      </trkpt>
      <trkpt lat="49.09654" lon="6.0998">
        <ele>222.2</ele>
        <time>2011-11-06T08:13:36Z</time>
      </trkpt>
      <trkpt lat="49.09659" lon="6.09987">
        <ele>222.4</ele>
        <time>2011-11-06T08:13:37Z</time>
      </trkpt>
      <trkpt lat="49.09664" lon="6.09993">
        <ele>223.2</ele>
        <time>2011-11-06T08:13:38Z</time>
      </trkpt>
      <trkpt lat="49.09669" lon="6.10001">
        <ele>223.2</ele>
        <time>2011-11-06T08:13:39Z</time>
      </trkpt>
      <trkpt lat="49.09675" lon="6.1001">
        <ele>222.2</ele>
        <time>2011-11-06T08:13:40Z</time>
      </trkpt>
      <trkpt lat="49.09677" lon="6.10018">
        <ele>223.3</ele>
        <time>2011-11-06T08:13:41Z</time>
      </trkpt>
      <trkpt lat="49.0968" lon="6.10026">
        <ele>223.5</ele>
        <time>2011-11-06T08:13:42Z</time>
      </trkpt>
      <trkpt lat="49.09684" lon="6.10034">
        <ele>223.5</ele>
        <time>2011-11-06T08:13:43Z</time>
      </trkpt>
      <trkpt lat="49.09684" lon="6.10043">
        <ele>223.4</ele>
        <time>2011-11-06T08:13:44Z</time>
      </trkpt>
      <trkpt lat="49.09689" lon="6.1005">
        <ele>223.4</ele>
        <time>2011-11-06T08:13:45Z</time>
      </trkpt>
      <trkpt lat="49.09693" lon="6.10059">
        <ele>223.4</ele>
        <time>2011-11-06T08:13:46Z</time>
      </trkpt>
      <trkpt lat="49.09696" lon="6.10067">
        <ele>223.1</ele>
        <time>2011-11-06T08:13:47Z</time>
      </trkpt>
      <trkpt lat="49.09699" lon="6.10078">
        <ele>223.3</ele>
        <time>2011-11-06T08:13:48Z</time>
      </trkpt>
      <trkpt lat="49.09703" lon="6.10088">
        <ele>223.3</ele>
        <time>2011-11-06T08:13:49Z</time>
      </trkpt>
      <trkpt lat="49.09708" lon="6.101">
        <ele>222.5</ele>
        <time>2011-11-06T08:13:50Z</time>
      </trkpt>
      <trkpt lat="49.09713" lon="6.10111">
        <ele>222.6</ele>
        <time>2011-11-06T08:13:51Z</time>
      </trkpt>
      <trkpt lat="49.09716" lon="6.10121">
        <ele>222.6</ele>
        <time>2011-11-06T08:13:52Z</time>
      </trkpt>
      <trkpt lat="49.09719" lon="6.10132">
        <ele>222.5</ele>
        <time>2011-11-06T08:13:53Z</time>
      </trkpt>
      <trkpt lat="49.09722" lon="6.10142">
        <ele>222.4</ele>
        <time>2011-11-06T08:13:54Z</time>
      </trkpt>
      <trkpt lat="49.09724" lon="6.10152">
        <ele>222.8</ele>
        <time>2011-11-06T08:13:55Z</time>
      </trkpt>
      <trkpt lat="49.09727" lon="6.10163">
        <ele>222.3</ele>
        <time>2011-11-06T08:13:56Z</time>
      </trkpt>
      <trkpt lat="49.09733" lon="6.10174">
        <ele>221.1</ele>
        <time>2011-11-06T08:13:57Z</time>
      </trkpt>
      <trkpt lat="49.09736" lon="6.10184">
        <ele>221</ele>
        <time>2011-11-06T08:13:58Z</time>
      </trkpt>
      <trkpt lat="49.0974" lon="6.10195">
        <ele>221.1</ele>
        <time>2011-11-06T08:13:59Z</time>
      </trkpt>
      <trkpt lat="49.09744" lon="6.10203">
        <ele>221.2</ele>
        <time>2011-11-06T08:14:00Z</time>
      </trkpt>
      <trkpt lat="49.09747" lon="6.10216">
        <ele>220.3</ele>
        <time>2011-11-06T08:14:01Z</time>
      </trkpt>
      <trkpt lat="49.0975" lon="6.10225">
        <ele>220.3</ele>
        <time>2011-11-06T08:14:02Z</time>
      </trkpt>
      <trkpt lat="49.09751" lon="6.10235">
        <ele>220</ele>
        <time>2011-11-06T08:14:03Z</time>
      </trkpt>
      <trkpt lat="49.09756" lon="6.10251">
        <ele>220.1</ele>
        <time>2011-11-06T08:14:05Z</time>
      </trkpt>
      <trkpt lat="49.0976" lon="6.10267">
        <ele>220</ele>
        <time>2011-11-06T08:14:07Z</time>
      </trkpt>
      <trkpt lat="49.09762" lon="6.10275">
        <ele>220.1</ele>
        <time>2011-11-06T08:14:08Z</time>
      </trkpt>
      <trkpt lat="49.09765" lon="6.10285">
        <ele>219.8</ele>
        <time>2011-11-06T08:14:09Z</time>
      </trkpt>
      <trkpt lat="49.09771" lon="6.10302">
        <ele>219.9</ele>
        <time>2011-11-06T08:14:10Z</time>
      </trkpt>
      <trkpt lat="49.09774" lon="6.10313">
        <ele>220.2</ele>
        <time>2011-11-06T08:14:11Z</time>
      </trkpt>
      <trkpt lat="49.09778" lon="6.10327">
        <ele>218.6</ele>
        <time>2011-11-06T08:14:12Z</time>
      </trkpt>
      <trkpt lat="49.09781" lon="6.10337">
        <ele>218.6</ele>
        <time>2011-11-06T08:14:13Z</time>
      </trkpt>
      <trkpt lat="49.09783" lon="6.10347">
        <ele>219.2</ele>
        <time>2011-11-06T08:14:14Z</time>
      </trkpt>
      <trkpt lat="49.09787" lon="6.10356">
        <ele>219.9</ele>
        <time>2011-11-06T08:14:15Z</time>
      </trkpt>
      <trkpt lat="49.0979" lon="6.10367">
        <ele>219.9</ele>
        <time>2011-11-06T08:14:16Z</time>
      </trkpt>
      <trkpt lat="49.09794" lon="6.10375">
        <ele>219.4</ele>
        <time>2011-11-06T08:14:17Z</time>
      </trkpt>
      <trkpt lat="49.09796" lon="6.10383">
        <ele>219.4</ele>
        <time>2011-11-06T08:14:18Z</time>
      </trkpt>
      <trkpt lat="49.09801" lon="6.10396">
        <ele>219</ele>
        <time>2011-11-06T08:14:19Z</time>
      </trkpt>
      <trkpt lat="49.09804" lon="6.10404">
        <ele>219</ele>
        <time>2011-11-06T08:14:20Z</time>
      </trkpt>
      <trkpt lat="49.09807" lon="6.10413">
        <ele>219</ele>
        <time>2011-11-06T08:14:21Z</time>
      </trkpt>
      <trkpt lat="49.09814" lon="6.10423">
        <ele>218.5</ele>
        <time>2011-11-06T08:14:22Z</time>
      </trkpt>
      <trkpt lat="49.09819" lon="6.10437">
        <ele>217.1</ele>
        <time>2011-11-06T08:14:23Z</time>
      </trkpt>
      <trkpt lat="49.09822" lon="6.10448">
        <ele>217</ele>
        <time>2011-11-06T08:14:24Z</time>
      </trkpt>
      <trkpt lat="49.09825" lon="6.1046">
        <ele>216.7</ele>
        <time>2011-11-06T08:14:25Z</time>
      </trkpt>
      <trkpt lat="49.09829" lon="6.10469">
        <ele>216.7</ele>
        <time>2011-11-06T08:14:26Z</time>
      </trkpt>
      <trkpt lat="49.09834" lon="6.10476">
        <ele>216.9</ele>
        <time>2011-11-06T08:14:27Z</time>
      </trkpt>
      <trkpt lat="49.09838" lon="6.10485">
        <ele>217.1</ele>
        <time>2011-11-06T08:14:28Z</time>
      </trkpt>
      <trkpt lat="49.09844" lon="6.10495">
        <ele>217.2</ele>
        <time>2011-11-06T08:14:29Z</time>
      </trkpt>
      <trkpt lat="49.09849" lon="6.10501">
        <ele>217.5</ele>
        <time>2011-11-06T08:14:30Z</time>
      </trkpt>
      <trkpt lat="49.09853" lon="6.1051">
        <ele>217.5</ele>
        <time>2011-11-06T08:14:31Z</time>
      </trkpt>
      <trkpt lat="49.09858" lon="6.10515">
        <ele>217.7</ele>
        <time>2011-11-06T08:14:32Z</time>
      </trkpt>
      <trkpt lat="49.09861" lon="6.1052">
        <ele>217.9</ele>
        <time>2011-11-06T08:14:33Z</time>
      </trkpt>
      <trkpt lat="49.09866" lon="6.10527">
        <ele>217.5</ele>
        <time>2011-11-06T08:14:34Z</time>
      </trkpt>
      <trkpt lat="49.09868" lon="6.10535">
        <ele>217</ele>
        <time>2011-11-06T08:14:35Z</time>
      </trkpt>
      <trkpt lat="49.09873" lon="6.10542">
        <ele>217</ele>
        <time>2011-11-06T08:14:36Z</time>
      </trkpt>
      <trkpt lat="49.09878" lon="6.10554">
        <ele>216.7</ele>
        <time>2011-11-06T08:14:37Z</time>
      </trkpt>
      <trkpt lat="49.09884" lon="6.10559">
        <ele>216.6</ele>
        <time>2011-11-06T08:14:38Z</time>
      </trkpt>
      <trkpt lat="49.09889" lon="6.10567">
        <ele>216.6</ele>
        <time>2011-11-06T08:14:39Z</time>
      </trkpt>
      <trkpt lat="49.09894" lon="6.10575">
        <ele>216.6</ele>
        <time>2011-11-06T08:14:40Z</time>
      </trkpt>
      <trkpt lat="49.09899" lon="6.10584">
        <ele>216.9</ele>
        <time>2011-11-06T08:14:41Z</time>
      </trkpt>
      <trkpt lat="49.09903" lon="6.10591">
        <ele>215.6</ele>
        <time>2011-11-06T08:14:42Z</time>
      </trkpt>
      <trkpt lat="49.09908" lon="6.10598">
        <ele>214.8</ele>
        <time>2011-11-06T08:14:43Z</time>
      </trkpt>
      <trkpt lat="49.09915" lon="6.10604">
        <ele>215.3</ele>
        <time>2011-11-06T08:14:44Z</time>
      </trkpt>
      <trkpt lat="49.09924" lon="6.10614">
        <ele>215.5</ele>
        <time>2011-11-06T08:14:45Z</time>
      </trkpt>
      <trkpt lat="49.0993" lon="6.10623">
        <ele>215.8</ele>
        <time>2011-11-06T08:14:46Z</time>
      </trkpt>
      <trkpt lat="49.09935" lon="6.10629">
        <ele>215.1</ele>
        <time>2011-11-06T08:14:47Z</time>
      </trkpt>
      <trkpt lat="49.09941" lon="6.10635">
        <ele>215.6</ele>
        <time>2011-11-06T08:14:48Z</time>
      </trkpt>
      <trkpt lat="49.09947" lon="6.10641">
        <ele>215.9</ele>
        <time>2011-11-06T08:14:49Z</time>
      </trkpt>
      <trkpt lat="49.09953" lon="6.10647">
        <ele>216.2</ele>
        <time>2011-11-06T08:14:50Z</time>
      </trkpt>
      <trkpt lat="49.09959" lon="6.10655">
        <ele>217.6</ele>
        <time>2011-11-06T08:14:51Z</time>
      </trkpt>
      <trkpt lat="49.09964" lon="6.1066">
        <ele>217.7</ele>
        <time>2011-11-06T08:14:52Z</time>
      </trkpt>
      <trkpt lat="49.0997" lon="6.10666">
        <ele>217.7</ele>
        <time>2011-11-06T08:14:53Z</time>
      </trkpt>
      <trkpt lat="49.09975" lon="6.1067">
        <ele>220.3</ele>
        <time>2011-11-06T08:14:54Z</time>
      </trkpt>
      <trkpt lat="49.09982" lon="6.10673">
        <ele>221.8</ele>
        <time>2011-11-06T08:14:55Z</time>
      </trkpt>
      <trkpt lat="49.09987" lon="6.10676">
        <ele>222.2</ele>
        <time>2011-11-06T08:14:56Z</time>
      </trkpt>
      <trkpt lat="49.09994" lon="6.10682">
        <ele>222.7</ele>
        <time>2011-11-06T08:14:57Z</time>
      </trkpt>
      <trkpt lat="49.1" lon="6.10688">
        <ele>222.8</ele>
        <time>2011-11-06T08:14:58Z</time>
      </trkpt>
      <trkpt lat="49.10008" lon="6.10692">
        <ele>222.6</ele>
        <time>2011-11-06T08:14:59Z</time>
      </trkpt>
      <trkpt lat="49.10013" lon="6.107">
        <ele>220</ele>
        <time>2011-11-06T08:15:00Z</time>
      </trkpt>
      <trkpt lat="49.10021" lon="6.1071">
        <ele>216.9</ele>
        <time>2011-11-06T08:15:01Z</time>
      </trkpt>
      <trkpt lat="49.10025" lon="6.10716">
        <ele>217.7</ele>
        <time>2011-11-06T08:15:02Z</time>
      </trkpt>
      <trkpt lat="49.10031" lon="6.10722">
        <ele>217.6</ele>
        <time>2011-11-06T08:15:03Z</time>
      </trkpt>
      <trkpt lat="49.10036" lon="6.10726">
        <ele>220.1</ele>
        <time>2011-11-06T08:15:04Z</time>
      </trkpt>
      <trkpt lat="49.10041" lon="6.10732">
        <ele>221.2</ele>
        <time>2011-11-06T08:15:05Z</time>
      </trkpt>
      <trkpt lat="49.10047" lon="6.10738">
        <ele>221.6</ele>
        <time>2011-11-06T08:15:06Z</time>
      </trkpt>
      <trkpt lat="49.10053" lon="6.10745">
        <ele>222.8</ele>
        <time>2011-11-06T08:15:07Z</time>
      </trkpt>
      <trkpt lat="49.1006" lon="6.10751">
        <ele>220.8</ele>
        <time>2011-11-06T08:15:08Z</time>
      </trkpt>
      <trkpt lat="49.10066" lon="6.10758">
        <ele>220.2</ele>
        <time>2011-11-06T08:15:09Z</time>
      </trkpt>
      <trkpt lat="49.10072" lon="6.10764">
        <ele>219.6</ele>
        <time>2011-11-06T08:15:10Z</time>
      </trkpt>
      <trkpt lat="49.10078" lon="6.1077">
        <ele>218.7</ele>
        <time>2011-11-06T08:15:11Z</time>
      </trkpt>
      <trkpt lat="49.10084" lon="6.10775">
        <ele>218.4</ele>
        <time>2011-11-06T08:15:12Z</time>
      </trkpt>
      <trkpt lat="49.1009" lon="6.1078">
        <ele>217.9</ele>
        <time>2011-11-06T08:15:13Z</time>
      </trkpt>
      <trkpt lat="49.10095" lon="6.10785">
        <ele>218.5</ele>
        <time>2011-11-06T08:15:14Z</time>
      </trkpt>
      <trkpt lat="49.101" lon="6.1079">
        <ele>220.8</ele>
        <time>2011-11-06T08:15:15Z</time>
      </trkpt>
      <trkpt lat="49.10106" lon="6.10796">
        <ele>221.1</ele>
        <time>2011-11-06T08:15:16Z</time>
      </trkpt>
      <trkpt lat="49.10112" lon="6.10802">
        <ele>220.8</ele>
        <time>2011-11-06T08:15:17Z</time>
      </trkpt>
      <trkpt lat="49.10119" lon="6.10807">
        <ele>220</ele>
        <time>2011-11-06T08:15:18Z</time>
      </trkpt>
      <trkpt lat="49.10124" lon="6.10813">
        <ele>220.5</ele>
        <time>2011-11-06T08:15:19Z</time>
      </trkpt>
      <trkpt lat="49.10129" lon="6.10818">
        <ele>220.6</ele>
        <time>2011-11-06T08:15:20Z</time>
      </trkpt>
      <trkpt lat="49.10137" lon="6.10823">
        <ele>219.9</ele>
        <time>2011-11-06T08:15:21Z</time>
      </trkpt>
      <trkpt lat="49.10143" lon="6.10829">
        <ele>219.5</ele>
        <time>2011-11-06T08:15:22Z</time>
      </trkpt>
      <trkpt lat="49.10152" lon="6.10835">
        <ele>219</ele>
        <time>2011-11-06T08:15:23Z</time>
      </trkpt>
      <trkpt lat="49.10159" lon="6.1084">
        <ele>218.6</ele>
        <time>2011-11-06T08:15:24Z</time>
      </trkpt>
      <trkpt lat="49.10164" lon="6.10844">
        <ele>219.1</ele>
        <time>2011-11-06T08:15:25Z</time>
      </trkpt>
      <trkpt lat="49.10172" lon="6.10855">
        <ele>216.5</ele>
        <time>2011-11-06T08:15:26Z</time>
      </trkpt>
      <trkpt lat="49.10178" lon="6.10861">
        <ele>215.6</ele>
        <time>2011-11-06T08:15:27Z</time>
      </trkpt>
      <trkpt lat="49.10185" lon="6.10868">
        <ele>215.1</ele>
        <time>2011-11-06T08:15:28Z</time>
      </trkpt>
      <trkpt lat="49.1019" lon="6.10875">
        <ele>215</ele>
        <time>2011-11-06T08:15:29Z</time>
      </trkpt>
      <trkpt lat="49.10196" lon="6.10881">
        <ele>215.5</ele>
        <time>2011-11-06T08:15:30Z</time>
      </trkpt>
      <trkpt lat="49.10202" lon="6.10887">
        <ele>215.8</ele>
        <time>2011-11-06T08:15:31Z</time>
      </trkpt>
      <trkpt lat="49.1021" lon="6.10893">
        <ele>215</ele>
        <time>2011-11-06T08:15:32Z</time>
      </trkpt>
      <trkpt lat="49.10215" lon="6.10898">
        <ele>214.2</ele>
        <time>2011-11-06T08:15:33Z</time>
      </trkpt>
      <trkpt lat="49.10221" lon="6.10906">
        <ele>215.9</ele>
        <time>2011-11-06T08:15:34Z</time>
      </trkpt>
      <trkpt lat="49.10228" lon="6.10911">
        <ele>215.7</ele>
        <time>2011-11-06T08:15:35Z</time>
      </trkpt>
      <trkpt lat="49.10233" lon="6.10915">
        <ele>216.5</ele>
        <time>2011-11-06T08:15:36Z</time>
      </trkpt>
      <trkpt lat="49.10243" lon="6.1092">
        <ele>217.8</ele>
        <time>2011-11-06T08:15:38Z</time>
      </trkpt>
      <trkpt lat="49.1025" lon="6.10921">
        <ele>217.5</ele>
        <time>2011-11-06T08:15:39Z</time>
      </trkpt>
      <trkpt lat="49.10256" lon="6.10922">
        <ele>217.2</ele>
        <time>2011-11-06T08:15:40Z</time>
      </trkpt>
      <trkpt lat="49.10263" lon="6.10924">
        <ele>217.2</ele>
        <time>2011-11-06T08:15:41Z</time>
      </trkpt>
      <trkpt lat="49.1027" lon="6.10923">
        <ele>217</ele>
        <time>2011-11-06T08:15:42Z</time>
      </trkpt>
      <trkpt lat="49.10277" lon="6.10921">
        <ele>218</ele>
        <time>2011-11-06T08:15:43Z</time>
      </trkpt>
      <trkpt lat="49.10283" lon="6.1092">
        <ele>217.8</ele>
        <time>2011-11-06T08:15:44Z</time>
      </trkpt>
      <trkpt lat="49.10289" lon="6.10917">
        <ele>217.5</ele>
        <time>2011-11-06T08:15:45Z</time>
      </trkpt>
      <trkpt lat="49.10295" lon="6.10916">
        <ele>217.4</ele>
        <time>2011-11-06T08:15:46Z</time>
      </trkpt>
      <trkpt lat="49.10301" lon="6.10917">
        <ele>218.7</ele>
        <time>2011-11-06T08:15:47Z</time>
      </trkpt>
      <trkpt lat="49.10308" lon="6.10919">
        <ele>218.9</ele>
        <time>2011-11-06T08:15:48Z</time>
      </trkpt>
      <trkpt lat="49.10314" lon="6.10921">
        <ele>218.4</ele>
        <time>2011-11-06T08:15:49Z</time>
      </trkpt>
      <trkpt lat="49.10318" lon="6.10926">
        <ele>220.7</ele>
        <time>2011-11-06T08:15:51Z</time>
      </trkpt>
      <trkpt lat="49.10322" lon="6.10929">
        <ele>220</ele>
        <time>2011-11-06T08:15:52Z</time>
      </trkpt>
      <trkpt lat="49.10328" lon="6.10929">
        <ele>220.3</ele>
        <time>2011-11-06T08:15:53Z</time>
      </trkpt>
      <trkpt lat="49.10332" lon="6.10929">
        <ele>220</ele>
        <time>2011-11-06T08:15:54Z</time>
      </trkpt>
      <trkpt lat="49.10337" lon="6.10928">
        <ele>220.1</ele>
        <time>2011-11-06T08:15:55Z</time>
      </trkpt>
      <trkpt lat="49.10343" lon="6.10924">
        <ele>220</ele>
        <time>2011-11-06T08:15:56Z</time>
      </trkpt>
      <trkpt lat="49.10346" lon="6.10918">
        <ele>219.8</ele>
        <time>2011-11-06T08:15:57Z</time>
      </trkpt>
      <trkpt lat="49.10349" lon="6.10909">
        <ele>220.2</ele>
        <time>2011-11-06T08:15:58Z</time>
      </trkpt>
      <trkpt lat="49.10352" lon="6.10902">
        <ele>219.7</ele>
        <time>2011-11-06T08:15:59Z</time>
      </trkpt>
      <trkpt lat="49.10355" lon="6.10896">
        <ele>219.9</ele>
        <time>2011-11-06T08:16:00Z</time>
      </trkpt>
      <trkpt lat="49.10359" lon="6.10889">
        <ele>218.5</ele>
        <time>2011-11-06T08:16:01Z</time>
      </trkpt>
      <trkpt lat="49.10362" lon="6.10882">
        <ele>218.6</ele>
        <time>2011-11-06T08:16:02Z</time>
      </trkpt>
      <trkpt lat="49.10366" lon="6.10876">
        <ele>218.7</ele>
        <time>2011-11-06T08:16:03Z</time>
      </trkpt>
      <trkpt lat="49.10369" lon="6.10869">
        <ele>218.7</ele>
        <time>2011-11-06T08:16:04Z</time>
      </trkpt>
      <trkpt lat="49.10375" lon="6.10864">
        <ele>218.4</ele>
        <time>2011-11-06T08:16:05Z</time>
      </trkpt>
      <trkpt lat="49.10382" lon="6.1086">
        <ele>218.1</ele>
        <time>2011-11-06T08:16:06Z</time>
      </trkpt>
      <trkpt lat="49.10387" lon="6.10856">
        <ele>218.2</ele>
        <time>2011-11-06T08:16:07Z</time>
      </trkpt>
      <trkpt lat="49.10391" lon="6.10857">
        <ele>218.4</ele>
        <time>2011-11-06T08:16:08Z</time>
      </trkpt>
      <trkpt lat="49.10396" lon="6.10856">
        <ele>219</ele>
        <time>2011-11-06T08:16:09Z</time>
      </trkpt>
      <trkpt lat="49.10406" lon="6.10856">
        <ele>219.1</ele>
        <time>2011-11-06T08:16:11Z</time>
      </trkpt>
      <trkpt lat="49.10413" lon="6.10856">
        <ele>219</ele>
        <time>2011-11-06T08:16:12Z</time>
      </trkpt>
      <trkpt lat="49.10417" lon="6.10853">
        <ele>218.6</ele>
        <time>2011-11-06T08:16:13Z</time>
      </trkpt>
      <trkpt lat="49.10424" lon="6.10856">
        <ele>218.4</ele>
        <time>2011-11-06T08:16:14Z</time>
      </trkpt>
      <trkpt lat="49.1043" lon="6.10854">
        <ele>217.8</ele>
        <time>2011-11-06T08:16:15Z</time>
      </trkpt>
      <trkpt lat="49.10435" lon="6.10854">
        <ele>217.8</ele>
        <time>2011-11-06T08:16:16Z</time>
      </trkpt>
      <trkpt lat="49.1044" lon="6.10854">
        <ele>218.7</ele>
        <time>2011-11-06T08:16:17Z</time>
      </trkpt>
      <trkpt lat="49.10446" lon="6.10853">
        <ele>217.8</ele>
        <time>2011-11-06T08:16:18Z</time>
      </trkpt>
      <trkpt lat="49.10452" lon="6.10851">
        <ele>217.6</ele>
        <time>2011-11-06T08:16:19Z</time>
      </trkpt>
      <trkpt lat="49.10457" lon="6.10851">
        <ele>217.4</ele>
        <time>2011-11-06T08:16:20Z</time>
      </trkpt>
      <trkpt lat="49.10463" lon="6.10851">
        <ele>217.4</ele>
        <time>2011-11-06T08:16:21Z</time>
      </trkpt>
      <trkpt lat="49.10467" lon="6.10849">
        <ele>217.6</ele>
        <time>2011-11-06T08:16:22Z</time>
      </trkpt>
      <trkpt lat="49.10474" lon="6.10849">
        <ele>217.1</ele>
        <time>2011-11-06T08:16:23Z</time>
      </trkpt>
      <trkpt lat="49.1048" lon="6.10849">
        <ele>218</ele>
        <time>2011-11-06T08:16:24Z</time>
      </trkpt>
      <trkpt lat="49.10488" lon="6.10848">
        <ele>218.2</ele>
        <time>2011-11-06T08:16:25Z</time>
      </trkpt>
      <trkpt lat="49.10494" lon="6.10848">
        <ele>218.2</ele>
        <time>2011-11-06T08:16:26Z</time>
      </trkpt>
      <trkpt lat="49.105" lon="6.10847">
        <ele>217.9</ele>
        <time>2011-11-06T08:16:27Z</time>
      </trkpt>
      <trkpt lat="49.10506" lon="6.10846">
        <ele>217.8</ele>
        <time>2011-11-06T08:16:28Z</time>
      </trkpt>
      <trkpt lat="49.10512" lon="6.10844">
        <ele>217.9</ele>
        <time>2011-11-06T08:16:29Z</time>
      </trkpt>
      <trkpt lat="49.10518" lon="6.10845">
        <ele>217.9</ele>
        <time>2011-11-06T08:16:30Z</time>
      </trkpt>
      <trkpt lat="49.10524" lon="6.10845">
        <ele>217.7</ele>
        <time>2011-11-06T08:16:31Z</time>
      </trkpt>
      <trkpt lat="49.1053" lon="6.10845">
        <ele>217.5</ele>
        <time>2011-11-06T08:16:32Z</time>
      </trkpt>
      <trkpt lat="49.10535" lon="6.10844">
        <ele>217.3</ele>
        <time>2011-11-06T08:16:33Z</time>
      </trkpt>
      <trkpt lat="49.1054" lon="6.10845">
        <ele>217.2</ele>
        <time>2011-11-06T08:16:34Z</time>
      </trkpt>
      <trkpt lat="49.10545" lon="6.10846">
        <ele>217.3</ele>
        <time>2011-11-06T08:16:35Z</time>
      </trkpt>
      <trkpt lat="49.1055" lon="6.10842">
        <ele>217.1</ele>
        <time>2011-11-06T08:16:37Z</time>
      </trkpt>
      <trkpt lat="49.10553" lon="6.10833">
        <ele>215.5</ele>
        <time>2011-11-06T08:16:39Z</time>
      </trkpt>
      <trkpt lat="49.10553" lon="6.10825">
        <ele>215.5</ele>
        <time>2011-11-06T08:16:40Z</time>
      </trkpt>
      <trkpt lat="49.10555" lon="6.10818">
        <ele>215.7</ele>
        <time>2011-11-06T08:16:41Z</time>
      </trkpt>
      <trkpt lat="49.10555" lon="6.1081">
        <ele>216</ele>
        <time>2011-11-06T08:16:42Z</time>
      </trkpt>
      <trkpt lat="49.10553" lon="6.10795">
        <ele>215.8</ele>
        <time>2011-11-06T08:16:44Z</time>
      </trkpt>
      <trkpt lat="49.10553" lon="6.10786">
        <ele>215.9</ele>
        <time>2011-11-06T08:16:45Z</time>
      </trkpt>
      <trkpt lat="49.10551" lon="6.10774">
        <ele>215.4</ele>
        <time>2011-11-06T08:16:46Z</time>
      </trkpt>
      <trkpt lat="49.10551" lon="6.10762">
        <ele>215.6</ele>
        <time>2011-11-06T08:16:47Z</time>
      </trkpt>
      <trkpt lat="49.10551" lon="6.10753">
        <ele>215.6</ele>
        <time>2011-11-06T08:16:48Z</time>
      </trkpt>
      <trkpt lat="49.10552" lon="6.1074">
        <ele>215.4</ele>
        <time>2011-11-06T08:16:49Z</time>
      </trkpt>
      <trkpt lat="49.1055" lon="6.10731">
        <ele>215</ele>
        <time>2011-11-06T08:16:50Z</time>
      </trkpt>
      <trkpt lat="49.1055" lon="6.1072">
        <ele>215</ele>
        <time>2011-11-06T08:16:51Z</time>
      </trkpt>
      <trkpt lat="49.10549" lon="6.10711">
        <ele>215</ele>
        <time>2011-11-06T08:16:52Z</time>
      </trkpt>
      <trkpt lat="49.1055" lon="6.10695">
        <ele>213.9</ele>
        <time>2011-11-06T08:16:54Z</time>
      </trkpt>
      <trkpt lat="49.10558" lon="6.10684">
        <ele>210.3</ele>
        <time>2011-11-06T08:16:55Z</time>
      </trkpt>
      <trkpt lat="49.10564" lon="6.10679">
        <ele>209.6</ele>
        <time>2011-11-06T08:16:57Z</time>
      </trkpt>
      <trkpt lat="49.1057" lon="6.10677">
        <ele>210.5</ele>
        <time>2011-11-06T08:16:58Z</time>
      </trkpt>
      <trkpt lat="49.10577" lon="6.10675">
        <ele>211</ele>
        <time>2011-11-06T08:16:59Z</time>
      </trkpt>
      <trkpt lat="49.10582" lon="6.10669">
        <ele>211.2</ele>
        <time>2011-11-06T08:17:00Z</time>
      </trkpt>
      <trkpt lat="49.10589" lon="6.10665">
        <ele>210.2</ele>
        <time>2011-11-06T08:17:01Z</time>
      </trkpt>
      <trkpt lat="49.10595" lon="6.10662">
        <ele>210.2</ele>
        <time>2011-11-06T08:17:02Z</time>
      </trkpt>
      <trkpt lat="49.10602" lon="6.1066">
        <ele>209</ele>
        <time>2011-11-06T08:17:03Z</time>
      </trkpt>
      <trkpt lat="49.1061" lon="6.10659">
        <ele>209.3</ele>
        <time>2011-11-06T08:17:05Z</time>
      </trkpt>
      <trkpt lat="49.10615" lon="6.10656">
        <ele>209.3</ele>
        <time>2011-11-06T08:17:06Z</time>
      </trkpt>
      <trkpt lat="49.1062" lon="6.10655">
        <ele>209.4</ele>
        <time>2011-11-06T08:17:07Z</time>
      </trkpt>
      <trkpt lat="49.10625" lon="6.10653">
        <ele>209.5</ele>
        <time>2011-11-06T08:17:08Z</time>
      </trkpt>
      <trkpt lat="49.10628" lon="6.10647">
        <ele>209.8</ele>
        <time>2011-11-06T08:17:09Z</time>
      </trkpt>
      <trkpt lat="49.10633" lon="6.10648">
        <ele>209.5</ele>
        <time>2011-11-06T08:17:10Z</time>
      </trkpt>
      <trkpt lat="49.10639" lon="6.10649">
        <ele>209.1</ele>
        <time>2011-11-06T08:17:11Z</time>
      </trkpt>
      <trkpt lat="49.10644" lon="6.10648">
        <ele>209.4</ele>
        <time>2011-11-06T08:17:12Z</time>
      </trkpt>
      <trkpt lat="49.10648" lon="6.10645">
        <ele>209.3</ele>
        <time>2011-11-06T08:17:13Z</time>
      </trkpt>
      <trkpt lat="49.10656" lon="6.10643">
        <ele>209.4</ele>
        <time>2011-11-06T08:17:14Z</time>
      </trkpt>
      <trkpt lat="49.10662" lon="6.10639">
        <ele>208.6</ele>
        <time>2011-11-06T08:17:15Z</time>
      </trkpt>
      <trkpt lat="49.10667" lon="6.10637">
        <ele>208.2</ele>
        <time>2011-11-06T08:17:16Z</time>
      </trkpt>
      <trkpt lat="49.10675" lon="6.10636">
        <ele>208.3</ele>
        <time>2011-11-06T08:17:18Z</time>
      </trkpt>
      <trkpt lat="49.1068" lon="6.10634">
        <ele>208.7</ele>
        <time>2011-11-06T08:17:19Z</time>
      </trkpt>
      <trkpt lat="49.10685" lon="6.10632">
        <ele>208.7</ele>
        <time>2011-11-06T08:17:20Z</time>
      </trkpt>
      <trkpt lat="49.10691" lon="6.1063">
        <ele>208.7</ele>
        <time>2011-11-06T08:17:21Z</time>
      </trkpt>
      <trkpt lat="49.10698" lon="6.10628">
        <ele>208.5</ele>
        <time>2011-11-06T08:17:22Z</time>
      </trkpt>
      <trkpt lat="49.10704" lon="6.10629">
        <ele>209.3</ele>
        <time>2011-11-06T08:17:23Z</time>
      </trkpt>
      <trkpt lat="49.10713" lon="6.10626">
        <ele>208.9</ele>
        <time>2011-11-06T08:17:25Z</time>
      </trkpt>
      <trkpt lat="49.1072" lon="6.10625">
        <ele>208.8</ele>
        <time>2011-11-06T08:17:27Z</time>
      </trkpt>
      <trkpt lat="49.10725" lon="6.10624">
        <ele>207.9</ele>
        <time>2011-11-06T08:17:28Z</time>
      </trkpt>
      <trkpt lat="49.10731" lon="6.10625">
        <ele>207.2</ele>
        <time>2011-11-06T08:17:29Z</time>
      </trkpt>
      <trkpt lat="49.10735" lon="6.10622">
        <ele>206.9</ele>
        <time>2011-11-06T08:17:30Z</time>
      </trkpt>
      <trkpt lat="49.10742" lon="6.10621">
        <ele>207.4</ele>
        <time>2011-11-06T08:17:32Z</time>
      </trkpt>
      <trkpt lat="49.10747" lon="6.10625">
        <ele>209</ele>
        <time>2011-11-06T08:17:33Z</time>
      </trkpt>
      <trkpt lat="49.10753" lon="6.10626">
        <ele>210</ele>
        <time>2011-11-06T08:17:35Z</time>
      </trkpt>
      <trkpt lat="49.10758" lon="6.10625">
        <ele>210.3</ele>
        <time>2011-11-06T08:17:36Z</time>
      </trkpt>
      <trkpt lat="49.10764" lon="6.1062">
        <ele>210.4</ele>
        <time>2011-11-06T08:17:38Z</time>
      </trkpt>
      <trkpt lat="49.10768" lon="6.10612">
        <ele>210.8</ele>
        <time>2011-11-06T08:17:39Z</time>
      </trkpt>
      <trkpt lat="49.10769" lon="6.10603">
        <ele>212</ele>
        <time>2011-11-06T08:17:40Z</time>
      </trkpt>
      <trkpt lat="49.10771" lon="6.10596">
        <ele>212.6</ele>
        <time>2011-11-06T08:17:41Z</time>
      </trkpt>
      <trkpt lat="49.10773" lon="6.10589">
        <ele>212.7</ele>
        <time>2011-11-06T08:17:42Z</time>
      </trkpt>
      <trkpt lat="49.10775" lon="6.10582">
        <ele>212.5</ele>
        <time>2011-11-06T08:17:43Z</time>
      </trkpt>
      <trkpt lat="49.10777" lon="6.10575">
        <ele>213.6</ele>
        <time>2011-11-06T08:17:44Z</time>
      </trkpt>
      <trkpt lat="49.10779" lon="6.10567">
        <ele>213</ele>
        <time>2011-11-06T08:17:45Z</time>
      </trkpt>
      <trkpt lat="49.10781" lon="6.10561">
        <ele>213</ele>
        <time>2011-11-06T08:17:46Z</time>
      </trkpt>
      <trkpt lat="49.10787" lon="6.10552">
        <ele>213</ele>
        <time>2011-11-06T08:17:48Z</time>
      </trkpt>
      <trkpt lat="49.10793" lon="6.10551">
        <ele>213.9</ele>
        <time>2011-11-06T08:17:49Z</time>
      </trkpt>
      <trkpt lat="49.10801" lon="6.10549">
        <ele>214</ele>
        <time>2011-11-06T08:17:51Z</time>
      </trkpt>
      <trkpt lat="49.10809" lon="6.10552">
        <ele>214</ele>
        <time>2011-11-06T08:17:53Z</time>
      </trkpt>
      <trkpt lat="49.10816" lon="6.10555">
        <ele>214.2</ele>
        <time>2011-11-06T08:17:54Z</time>
      </trkpt>
      <trkpt lat="49.10821" lon="6.10557">
        <ele>216.1</ele>
        <time>2011-11-06T08:17:57Z</time>
      </trkpt>
      <trkpt lat="49.10827" lon="6.10559">
        <ele>216.6</ele>
        <time>2011-11-06T08:17:58Z</time>
      </trkpt>
      <trkpt lat="49.10833" lon="6.10564">
        <ele>216.8</ele>
        <time>2011-11-06T08:18:00Z</time>
      </trkpt>
      <trkpt lat="49.10838" lon="6.10568">
        <ele>218</ele>
        <time>2011-11-06T08:18:03Z</time>
      </trkpt>
      <trkpt lat="49.10844" lon="6.10574">
        <ele>218.2</ele>
        <time>2011-11-06T08:18:04Z</time>
      </trkpt>
      <trkpt lat="49.1085" lon="6.10581">
        <ele>217.4</ele>
        <time>2011-11-06T08:18:05Z</time>
      </trkpt>
      <trkpt lat="49.10858" lon="6.10581">
        <ele>217.4</ele>
        <time>2011-11-06T08:18:06Z</time>
      </trkpt>
      <trkpt lat="49.10864" lon="6.10586">
        <ele>217.6</ele>
        <time>2011-11-06T08:18:08Z</time>
      </trkpt>
      <trkpt lat="49.10874" lon="6.10594">
        <ele>217.8</ele>
        <time>2011-11-06T08:18:09Z</time>
      </trkpt>
      <trkpt lat="49.10878" lon="6.10596">
        <ele>217.9</ele>
        <time>2011-11-06T08:18:10Z</time>
      </trkpt>
      <trkpt lat="49.10886" lon="6.10599">
        <ele>219.1</ele>
        <time>2011-11-06T08:18:12Z</time>
      </trkpt>
      <trkpt lat="49.10889" lon="6.10604">
        <ele>218.8</ele>
        <time>2011-11-06T08:18:13Z</time>
      </trkpt>
      <trkpt lat="49.109" lon="6.10612">
        <ele>220.6</ele>
        <time>2011-11-06T08:18:15Z</time>
      </trkpt>
      <trkpt lat="49.10907" lon="6.10616">
        <ele>221</ele>
        <time>2011-11-06T08:18:17Z</time>
      </trkpt>
      <trkpt lat="49.10912" lon="6.10622">
        <ele>220.6</ele>
        <time>2011-11-06T08:18:19Z</time>
      </trkpt>
      <trkpt lat="49.10916" lon="6.10631">
        <ele>221</ele>
        <time>2011-11-06T08:18:21Z</time>
      </trkpt>
      <trkpt lat="49.10914" lon="6.10639">
        <ele>221.6</ele>
        <time>2011-11-06T08:18:22Z</time>
      </trkpt>
      <trkpt lat="49.10912" lon="6.10646">
        <ele>221.9</ele>
        <time>2011-11-06T08:18:23Z</time>
      </trkpt>
      <trkpt lat="49.10908" lon="6.10658">
        <ele>223.3</ele>
        <time>2011-11-06T08:18:25Z</time>
      </trkpt>
      <trkpt lat="49.10905" lon="6.10668">
        <ele>223.6</ele>
        <time>2011-11-06T08:18:27Z</time>
      </trkpt>
      <trkpt lat="49.10904" lon="6.10681">
        <ele>223.8</ele>
        <time>2011-11-06T08:18:29Z</time>
      </trkpt>
      <trkpt lat="49.10902" lon="6.10689">
        <ele>223.9</ele>
        <time>2011-11-06T08:18:30Z</time>
      </trkpt>
      <trkpt lat="49.10898" lon="6.10699">
        <ele>225.8</ele>
        <time>2011-11-06T08:18:31Z</time>
      </trkpt>
      <trkpt lat="49.10896" lon="6.10711">
        <ele>226.4</ele>
        <time>2011-11-06T08:18:33Z</time>
      </trkpt>
      <trkpt lat="49.10894" lon="6.10722">
        <ele>226.5</ele>
        <time>2011-11-06T08:18:35Z</time>
      </trkpt>
      <trkpt lat="49.10892" lon="6.10728">
        <ele>226.5</ele>
        <time>2011-11-06T08:18:36Z</time>
      </trkpt>
      <trkpt lat="49.10893" lon="6.10736">
        <ele>226.2</ele>
        <time>2011-11-06T08:18:38Z</time>
      </trkpt>
      <trkpt lat="49.10887" lon="6.10746">
        <ele>224.2</ele>
        <time>2011-11-06T08:18:39Z</time>
      </trkpt>
      <trkpt lat="49.10895" lon="6.10746">
        <ele>223.9</ele>
        <time>2011-11-06T08:18:41Z</time>
      </trkpt>
      <trkpt lat="49.109" lon="6.10747">
        <ele>220.7</ele>
        <time>2011-11-06T08:18:43Z</time>
      </trkpt>
      <trkpt lat="49.10906" lon="6.10746">
        <ele>220.1</ele>
        <time>2011-11-06T08:18:45Z</time>
      </trkpt>
      <trkpt lat="49.10914" lon="6.1075">
        <ele>220.8</ele>
        <time>2011-11-06T08:18:47Z</time>
      </trkpt>
      <trkpt lat="49.1092" lon="6.10755">
        <ele>222</ele>
        <time>2011-11-06T08:18:49Z</time>
      </trkpt>
      <trkpt lat="49.10925" lon="6.10764">
        <ele>223</ele>
        <time>2011-11-06T08:18:51Z</time>
      </trkpt>
      <trkpt lat="49.10925" lon="6.10771">
        <ele>224</ele>
        <time>2011-11-06T08:18:53Z</time>
      </trkpt>
      <trkpt lat="49.10926" lon="6.10784">
        <ele>224.1</ele>
        <time>2011-11-06T08:18:55Z</time>
      </trkpt>
      <trkpt lat="49.10925" lon="6.10793">
        <ele>224.5</ele>
        <time>2011-11-06T08:18:57Z</time>
      </trkpt>
      <trkpt lat="49.10924" lon="6.10801">
        <ele>225.1</ele>
        <time>2011-11-06T08:18:58Z</time>
      </trkpt>
      <trkpt lat="49.10922" lon="6.10808">
        <ele>225.5</ele>
        <time>2011-11-06T08:18:59Z</time>
      </trkpt>
      <trkpt lat="49.10919" lon="6.10815">
        <ele>226</ele>
        <time>2011-11-06T08:19:00Z</time>
      </trkpt>
      <trkpt lat="49.10918" lon="6.10823">
        <ele>226.6</ele>
        <time>2011-11-06T08:19:01Z</time>
      </trkpt>
      <trkpt lat="49.10915" lon="6.10835">
        <ele>226.8</ele>
        <time>2011-11-06T08:19:03Z</time>
      </trkpt>
      <trkpt lat="49.10916" lon="6.10844">
        <ele>228</ele>
        <time>2011-11-06T08:19:04Z</time>
      </trkpt>
      <trkpt lat="49.10912" lon="6.10856">
        <ele>227.1</ele>
        <time>2011-11-06T08:19:06Z</time>
      </trkpt>
      <trkpt lat="49.10908" lon="6.1087">
        <ele>227.4</ele>
        <time>2011-11-06T08:19:08Z</time>
      </trkpt>
      <trkpt lat="49.10904" lon="6.1088">
        <ele>227.6</ele>
        <time>2011-11-06T08:19:10Z</time>
      </trkpt>
      <trkpt lat="49.10902" lon="6.10887">
        <ele>227.8</ele>
        <time>2011-11-06T08:19:11Z</time>
      </trkpt>
      <trkpt lat="49.10898" lon="6.109">
        <ele>228.7</ele>
        <time>2011-11-06T08:19:13Z</time>
      </trkpt>
      <trkpt lat="49.10895" lon="6.10909">
        <ele>229</ele>
        <time>2011-11-06T08:19:15Z</time>
      </trkpt>
      <trkpt lat="49.10893" lon="6.10918">
        <ele>229.2</ele>
        <time>2011-11-06T08:19:17Z</time>
      </trkpt>
      <trkpt lat="49.10894" lon="6.10924">
        <ele>229.7</ele>
        <time>2011-11-06T08:19:18Z</time>
      </trkpt>
      <trkpt lat="49.10897" lon="6.10933">
        <ele>229.7</ele>
        <time>2011-11-06T08:19:20Z</time>
      </trkpt>
      <trkpt lat="49.109" lon="6.10942">
        <ele>230.2</ele>
        <time>2011-11-06T08:19:22Z</time>
      </trkpt>
      <trkpt lat="49.10905" lon="6.10946">
        <ele>231.6</ele>
        <time>2011-11-06T08:19:24Z</time>
      </trkpt>
      <trkpt lat="49.10911" lon="6.10953">
        <ele>232.2</ele>
        <time>2011-11-06T08:19:26Z</time>
      </trkpt>
      <trkpt lat="49.10916" lon="6.1096">
        <ele>233.4</ele>
        <time>2011-11-06T08:19:27Z</time>
      </trkpt>
      <trkpt lat="49.1092" lon="6.10966">
        <ele>233.8</ele>
        <time>2011-11-06T08:19:28Z</time>
      </trkpt>
      <trkpt lat="49.10924" lon="6.10969">
        <ele>233.5</ele>
        <time>2011-11-06T08:19:29Z</time>
      </trkpt>
      <trkpt lat="49.10929" lon="6.10976">
        <ele>233.5</ele>
        <time>2011-11-06T08:19:31Z</time>
      </trkpt>
      <trkpt lat="49.10935" lon="6.10983">
        <ele>233.2</ele>
        <time>2011-11-06T08:19:33Z</time>
      </trkpt>
      <trkpt lat="49.1094" lon="6.10988">
        <ele>234.7</ele>
        <time>2011-11-06T08:19:35Z</time>
      </trkpt>
      <trkpt lat="49.10947" lon="6.10992">
        <ele>235.2</ele>
        <time>2011-11-06T08:19:37Z</time>
      </trkpt>
      <trkpt lat="49.10952" lon="6.10996">
        <ele>236.7</ele>
        <time>2011-11-06T08:19:39Z</time>
      </trkpt>
      <trkpt lat="49.10958" lon="6.11">
        <ele>237.6</ele>
        <time>2011-11-06T08:19:41Z</time>
      </trkpt>
      <trkpt lat="49.10963" lon="6.11003">
        <ele>238.3</ele>
        <time>2011-11-06T08:19:43Z</time>
      </trkpt>
      <trkpt lat="49.10971" lon="6.11008">
        <ele>239.1</ele>
        <time>2011-11-06T08:19:45Z</time>
      </trkpt>
      <trkpt lat="49.10977" lon="6.11013">
        <ele>239.6</ele>
        <time>2011-11-06T08:19:47Z</time>
      </trkpt>
      <trkpt lat="49.10983" lon="6.11016">
        <ele>239.7</ele>
        <time>2011-11-06T08:19:49Z</time>
      </trkpt>
      <trkpt lat="49.10988" lon="6.11017">
        <ele>239.8</ele>
        <time>2011-11-06T08:19:52Z</time>
      </trkpt>
      <trkpt lat="49.10994" lon="6.11018">
        <ele>240.6</ele>
        <time>2011-11-06T08:19:53Z</time>
      </trkpt>
      <trkpt lat="49.11003" lon="6.1102">
        <ele>240.7</ele>
        <time>2011-11-06T08:19:55Z</time>
      </trkpt>
      <trkpt lat="49.11008" lon="6.11023">
        <ele>241.2</ele>
        <time>2011-11-06T08:19:56Z</time>
      </trkpt>
      <trkpt lat="49.11014" lon="6.11028">
        <ele>241.5</ele>
        <time>2011-11-06T08:19:58Z</time>
      </trkpt>
      <trkpt lat="49.11019" lon="6.11028">
        <ele>242.1</ele>
        <time>2011-11-06T08:20:00Z</time>
      </trkpt>
      <trkpt lat="49.11026" lon="6.1103">
        <ele>242.4</ele>
        <time>2011-11-06T08:20:02Z</time>
      </trkpt>
      <trkpt lat="49.1103" lon="6.11035">
        <ele>243.7</ele>
        <time>2011-11-06T08:20:04Z</time>
      </trkpt>
      <trkpt lat="49.11037" lon="6.11041">
        <ele>245.1</ele>
        <time>2011-11-06T08:20:06Z</time>
      </trkpt>
      <trkpt lat="49.11041" lon="6.11047">
        <ele>245.3</ele>
        <time>2011-11-06T08:20:09Z</time>
      </trkpt>
      <trkpt lat="49.11049" lon="6.11054">
        <ele>245.9</ele>
        <time>2011-11-06T08:20:11Z</time>
      </trkpt>
      <trkpt lat="49.11054" lon="6.11059">
        <ele>246.2</ele>
        <time>2011-11-06T08:20:13Z</time>
      </trkpt>
      <trkpt lat="49.11059" lon="6.11062">
        <ele>246.8</ele>
        <time>2011-11-06T08:20:15Z</time>
      </trkpt>
      <trkpt lat="49.11064" lon="6.11065">
        <ele>247.3</ele>
        <time>2011-11-06T08:20:17Z</time>
      </trkpt>
      <trkpt lat="49.11069" lon="6.11068">
        <ele>249.1</ele>
        <time>2011-11-06T08:20:21Z</time>
      </trkpt>
      <trkpt lat="49.11078" lon="6.1108">
        <ele>251.1</ele>
        <time>2011-11-06T08:20:23Z</time>
      </trkpt>
      <trkpt lat="49.11084" lon="6.11088">
        <ele>252</ele>
        <time>2011-11-06T08:20:24Z</time>
      </trkpt>
      <trkpt lat="49.1109" lon="6.11091">
        <ele>254.4</ele>
        <time>2011-11-06T08:20:26Z</time>
      </trkpt>
      <trkpt lat="49.11094" lon="6.11097">
        <ele>252.2</ele>
        <time>2011-11-06T08:20:27Z</time>
      </trkpt>
      <trkpt lat="49.11099" lon="6.111">
        <ele>250.7</ele>
        <time>2011-11-06T08:20:28Z</time>
      </trkpt>
      <trkpt lat="49.11106" lon="6.11107">
        <ele>251.3</ele>
        <time>2011-11-06T08:20:30Z</time>
      </trkpt>
      <trkpt lat="49.11114" lon="6.11111">
        <ele>251.8</ele>
        <time>2011-11-06T08:20:32Z</time>
      </trkpt>
      <trkpt lat="49.11119" lon="6.11117">
        <ele>252.2</ele>
        <time>2011-11-06T08:20:34Z</time>
      </trkpt>
      <trkpt lat="49.11125" lon="6.11124">
        <ele>253</ele>
        <time>2011-11-06T08:20:36Z</time>
      </trkpt>
      <trkpt lat="49.11132" lon="6.11129">
        <ele>253.7</ele>
        <time>2011-11-06T08:20:38Z</time>
      </trkpt>
      <trkpt lat="49.11138" lon="6.1114">
        <ele>256.7</ele>
        <time>2011-11-06T08:20:40Z</time>
      </trkpt>
      <trkpt lat="49.11144" lon="6.11145">
        <ele>258.8</ele>
        <time>2011-11-06T08:20:42Z</time>
      </trkpt>
      <trkpt lat="49.11151" lon="6.11154">
        <ele>259.2</ele>
        <time>2011-11-06T08:20:44Z</time>
      </trkpt>
      <trkpt lat="49.11155" lon="6.11157">
        <ele>258.7</ele>
        <time>2011-11-06T08:20:45Z</time>
      </trkpt>
      <trkpt lat="49.1116" lon="6.11162">
        <ele>259.3</ele>
        <time>2011-11-06T08:20:46Z</time>
      </trkpt>
      <trkpt lat="49.11166" lon="6.11166">
        <ele>260.4</ele>
        <time>2011-11-06T08:20:47Z</time>
      </trkpt>
      <trkpt lat="49.11174" lon="6.11173">
        <ele>260.8</ele>
        <time>2011-11-06T08:20:49Z</time>
      </trkpt>
      <trkpt lat="49.1118" lon="6.11176">
        <ele>261.5</ele>
        <time>2011-11-06T08:20:51Z</time>
      </trkpt>
      <trkpt lat="49.11187" lon="6.11183">
        <ele>259.9</ele>
        <time>2011-11-06T08:20:53Z</time>
      </trkpt>
      <trkpt lat="49.11192" lon="6.11188">
        <ele>261.5</ele>
        <time>2011-11-06T08:20:54Z</time>
      </trkpt>
      <trkpt lat="49.11196" lon="6.11192">
        <ele>261.8</ele>
        <time>2011-11-06T08:20:55Z</time>
      </trkpt>
      <trkpt lat="49.112" lon="6.11194">
        <ele>261.6</ele>
        <time>2011-11-06T08:20:56Z</time>
      </trkpt>
      <trkpt lat="49.11208" lon="6.11197">
        <ele>262.7</ele>
        <time>2011-11-06T08:20:58Z</time>
      </trkpt>
      <trkpt lat="49.11211" lon="6.11202">
        <ele>262.2</ele>
        <time>2011-11-06T08:20:59Z</time>
      </trkpt>
      <trkpt lat="49.11215" lon="6.11204">
        <ele>262</ele>
        <time>2011-11-06T08:21:00Z</time>
      </trkpt>
      <trkpt lat="49.11224" lon="6.1121">
        <ele>261.6</ele>
        <time>2011-11-06T08:21:02Z</time>
      </trkpt>
      <trkpt lat="49.11228" lon="6.11212">
        <ele>261.4</ele>
        <time>2011-11-06T08:21:03Z</time>
      </trkpt>
      <trkpt lat="49.11233" lon="6.11214">
        <ele>261.4</ele>
        <time>2011-11-06T08:21:04Z</time>
      </trkpt>
      <trkpt lat="49.11241" lon="6.11218">
        <ele>261.3</ele>
        <time>2011-11-06T08:21:06Z</time>
      </trkpt>
      <trkpt lat="49.11249" lon="6.11222">
        <ele>261.5</ele>
        <time>2011-11-06T08:21:08Z</time>
      </trkpt>
      <trkpt lat="49.11257" lon="6.11226">
        <ele>261.6</ele>
        <time>2011-11-06T08:21:10Z</time>
      </trkpt>
      <trkpt lat="49.11263" lon="6.1123">
        <ele>262</ele>
        <time>2011-11-06T08:21:12Z</time>
      </trkpt>
      <trkpt lat="49.11271" lon="6.11225">
        <ele>262.2</ele>
        <time>2011-11-06T08:21:14Z</time>
      </trkpt>
      <trkpt lat="49.11275" lon="6.11225">
        <ele>262.1</ele>
        <time>2011-11-06T08:21:15Z</time>
      </trkpt>
      <trkpt lat="49.11282" lon="6.1123">
        <ele>262.1</ele>
        <time>2011-11-06T08:21:17Z</time>
      </trkpt>
      <trkpt lat="49.11265" lon="6.11219">
        <ele>261.8</ele>
        <time>2011-11-06T08:21:18Z</time>
      </trkpt>
      <trkpt lat="49.1127" lon="6.11222">
        <ele>261.8</ele>
        <time>2011-11-06T08:21:21Z</time>
      </trkpt>
      <trkpt lat="49.11276" lon="6.11224">
        <ele>261.8</ele>
        <time>2011-11-06T08:21:23Z</time>
      </trkpt>
      <trkpt lat="49.11284" lon="6.11223">
        <ele>261.6</ele>
        <time>2011-11-06T08:21:24Z</time>
      </trkpt>
      <trkpt lat="49.11292" lon="6.11226">
        <ele>261.5</ele>
        <time>2011-11-06T08:21:26Z</time>
      </trkpt>
      <trkpt lat="49.11291" lon="6.11218">
        <ele>261.1</ele>
        <time>2011-11-06T08:21:29Z</time>
      </trkpt>
      <trkpt lat="49.11283" lon="6.11229">
        <ele>260.8</ele>
        <time>2011-11-06T08:21:31Z</time>
      </trkpt>
      <trkpt lat="49.11278" lon="6.1122">
        <ele>260.8</ele>
        <time>2011-11-06T08:21:34Z</time>
      </trkpt>
      <trkpt lat="49.11283" lon="6.11217">
        <ele>260.7</ele>
        <time>2011-11-06T08:21:37Z</time>
      </trkpt>
      <trkpt lat="49.11288" lon="6.11217">
        <ele>260.6</ele>
        <time>2011-11-06T08:21:38Z</time>
      </trkpt>
      <trkpt lat="49.11302" lon="6.11224">
        <ele>260.8</ele>
        <time>2011-11-06T08:21:39Z</time>
      </trkpt>
      <trkpt lat="49.11306" lon="6.11226">
        <ele>260.8</ele>
        <time>2011-11-06T08:21:40Z</time>
      </trkpt>
      <trkpt lat="49.11329" lon="6.11239">
        <ele>261.1</ele>
        <time>2011-11-06T08:21:41Z</time>
      </trkpt>
      <trkpt lat="49.11334" lon="6.11246">
        <ele>261.3</ele>
        <time>2011-11-06T08:22:00Z</time>
      </trkpt>
      <trkpt lat="49.11348" lon="6.1125">
        <ele>261.2</ele>
        <time>2011-11-06T08:22:10Z</time>
      </trkpt>
      <trkpt lat="49.11355" lon="6.11252">
        <ele>261.1</ele>
        <time>2011-11-06T08:22:11Z</time>
      </trkpt>
      <trkpt lat="49.11361" lon="6.11256">
        <ele>261.1</ele>
        <time>2011-11-06T08:22:13Z</time>
      </trkpt>
      <trkpt lat="49.11365" lon="6.11261">
        <ele>261.1</ele>
        <time>2011-11-06T08:22:15Z</time>
      </trkpt>
      <trkpt lat="49.11367" lon="6.11277">
        <ele>261.1</ele>
        <time>2011-11-06T08:22:18Z</time>
      </trkpt>
      <trkpt lat="49.11362" lon="6.11332">
        <ele>260.5</ele>
        <time>2011-11-06T08:22:19Z</time>
      </trkpt>
      <trkpt lat="49.11367" lon="6.11337">
        <ele>260.4</ele>
        <time>2011-11-06T08:22:21Z</time>
      </trkpt>
      <trkpt lat="49.11374" lon="6.11338">
        <ele>260.4</ele>
        <time>2011-11-06T08:22:24Z</time>
      </trkpt>
      <trkpt lat="49.1138" lon="6.11338">
        <ele>260.4</ele>
        <time>2011-11-06T08:22:26Z</time>
      </trkpt>
      <trkpt lat="49.11423" lon="6.1136">
        <ele>268.9</ele>
        <time>2011-11-06T08:22:27Z</time>
      </trkpt>
      <trkpt lat="49.11429" lon="6.1136">
        <ele>272.1</ele>
        <time>2011-11-06T08:22:30Z</time>
      </trkpt>
      <trkpt lat="49.11434" lon="6.11358">
        <ele>272.7</ele>
        <time>2011-11-06T08:22:32Z</time>
      </trkpt>
      <trkpt lat="49.11439" lon="6.11354">
        <ele>274.3</ele>
        <time>2011-11-06T08:22:34Z</time>
      </trkpt>
      <trkpt lat="49.11432" lon="6.11346">
        <ele>277.2</ele>
        <time>2011-11-06T08:22:35Z</time>
      </trkpt>
      <trkpt lat="49.11432" lon="6.11338">
        <ele>279.8</ele>
        <time>2011-11-06T08:22:37Z</time>
      </trkpt>
      <trkpt lat="49.11433" lon="6.11328">
        <ele>281.7</ele>
        <time>2011-11-06T08:22:39Z</time>
      </trkpt>
      <trkpt lat="49.11435" lon="6.11319">
        <ele>282.9</ele>
        <time>2011-11-06T08:22:41Z</time>
      </trkpt>
      <trkpt lat="49.11437" lon="6.11311">
        <ele>283.7</ele>
        <time>2011-11-06T08:22:43Z</time>
      </trkpt>
      <trkpt lat="49.11439" lon="6.11301">
        <ele>285</ele>
        <time>2011-11-06T08:22:45Z</time>
      </trkpt>
      <trkpt lat="49.11442" lon="6.11289">
        <ele>286</ele>
        <time>2011-11-06T08:22:47Z</time>
      </trkpt>
      <trkpt lat="49.11439" lon="6.11276">
        <ele>286.5</ele>
        <time>2011-11-06T08:22:49Z</time>
      </trkpt>
      <trkpt lat="49.11436" lon="6.11268">
        <ele>286.3</ele>
        <time>2011-11-06T08:22:50Z</time>
      </trkpt>
      <trkpt lat="49.11439" lon="6.11259">
        <ele>286.2</ele>
        <time>2011-11-06T08:22:52Z</time>
      </trkpt>
      <trkpt lat="49.11439" lon="6.11251">
        <ele>286.4</ele>
        <time>2011-11-06T08:22:53Z</time>
      </trkpt>
      <trkpt lat="49.11441" lon="6.11238">
        <ele>286.9</ele>
        <time>2011-11-06T08:22:55Z</time>
      </trkpt>
      <trkpt lat="49.11451" lon="6.11216">
        <ele>283.6</ele>
        <time>2011-11-06T08:22:58Z</time>
      </trkpt>
      <trkpt lat="49.11452" lon="6.11209">
        <ele>283.5</ele>
        <time>2011-11-06T08:22:59Z</time>
      </trkpt>
      <trkpt lat="49.11454" lon="6.11201">
        <ele>284</ele>
        <time>2011-11-06T08:23:01Z</time>
      </trkpt>
      <trkpt lat="49.11454" lon="6.11192">
        <ele>283.5</ele>
        <time>2011-11-06T08:23:02Z</time>
      </trkpt>
      <trkpt lat="49.11458" lon="6.11183">
        <ele>285.5</ele>
        <time>2011-11-06T08:23:04Z</time>
      </trkpt>
      <trkpt lat="49.11459" lon="6.11172">
        <ele>283.3</ele>
        <time>2011-11-06T08:23:05Z</time>
      </trkpt>
      <trkpt lat="49.11465" lon="6.11166">
        <ele>285.9</ele>
        <time>2011-11-06T08:23:07Z</time>
      </trkpt>
      <trkpt lat="49.11468" lon="6.11156">
        <ele>287.5</ele>
        <time>2011-11-06T08:23:09Z</time>
      </trkpt>
      <trkpt lat="49.11472" lon="6.11146">
        <ele>288</ele>
        <time>2011-11-06T08:23:11Z</time>
      </trkpt>
      <trkpt lat="49.11477" lon="6.11142">
        <ele>287.5</ele>
        <time>2011-11-06T08:23:12Z</time>
      </trkpt>
      <trkpt lat="49.11481" lon="6.11131">
        <ele>287.1</ele>
        <time>2011-11-06T08:23:14Z</time>
      </trkpt>
      <trkpt lat="49.11484" lon="6.1112">
        <ele>287.3</ele>
        <time>2011-11-06T08:23:16Z</time>
      </trkpt>
      <trkpt lat="49.11487" lon="6.11112">
        <ele>287.1</ele>
        <time>2011-11-06T08:23:17Z</time>
      </trkpt>
      <trkpt lat="49.11491" lon="6.11101">
        <ele>287.8</ele>
        <time>2011-11-06T08:23:19Z</time>
      </trkpt>
      <trkpt lat="49.11494" lon="6.11093">
        <ele>287.4</ele>
        <time>2011-11-06T08:23:20Z</time>
      </trkpt>
      <trkpt lat="49.11501" lon="6.11079">
        <ele>287.8</ele>
        <time>2011-11-06T08:23:22Z</time>
      </trkpt>
      <trkpt lat="49.11506" lon="6.11065">
        <ele>288.3</ele>
        <time>2011-11-06T08:23:24Z</time>
      </trkpt>
      <trkpt lat="49.11509" lon="6.11059">
        <ele>287.5</ele>
        <time>2011-11-06T08:23:25Z</time>
      </trkpt>
      <trkpt lat="49.11511" lon="6.11045">
        <ele>288.5</ele>
        <time>2011-11-06T08:23:27Z</time>
      </trkpt>
      <trkpt lat="49.11516" lon="6.11032">
        <ele>288</ele>
        <time>2011-11-06T08:23:29Z</time>
      </trkpt>
      <trkpt lat="49.11517" lon="6.11013">
        <ele>287.4</ele>
        <time>2011-11-06T08:23:31Z</time>
      </trkpt>
      <trkpt lat="49.11515" lon="6.11006">
        <ele>287.7</ele>
        <time>2011-11-06T08:23:32Z</time>
      </trkpt>
      <trkpt lat="49.11516" lon="6.10998">
        <ele>287.8</ele>
        <time>2011-11-06T08:23:33Z</time>
      </trkpt>
      <trkpt lat="49.11513" lon="6.10985">
        <ele>287.1</ele>
        <time>2011-11-06T08:23:34Z</time>
      </trkpt>
      <trkpt lat="49.11513" lon="6.10977">
        <ele>286.4</ele>
        <time>2011-11-06T08:23:35Z</time>
      </trkpt>
      <trkpt lat="49.11513" lon="6.10968">
        <ele>286.1</ele>
        <time>2011-11-06T08:23:36Z</time>
      </trkpt>
      <trkpt lat="49.11513" lon="6.1096">
        <ele>286</ele>
        <time>2011-11-06T08:23:37Z</time>
      </trkpt>
      <trkpt lat="49.11513" lon="6.1095">
        <ele>285.9</ele>
        <time>2011-11-06T08:23:38Z</time>
      </trkpt>
      <trkpt lat="49.11512" lon="6.1094">
        <ele>285.4</ele>
        <time>2011-11-06T08:23:39Z</time>
      </trkpt>
      <trkpt lat="49.11511" lon="6.10931">
        <ele>285.3</ele>
        <time>2011-11-06T08:23:40Z</time>
      </trkpt>
      <trkpt lat="49.11511" lon="6.1092">
        <ele>285.1</ele>
        <time>2011-11-06T08:23:41Z</time>
      </trkpt>
      <trkpt lat="49.11512" lon="6.10908">
        <ele>285.1</ele>
        <time>2011-11-06T08:23:42Z</time>
      </trkpt>
      <trkpt lat="49.11511" lon="6.10898">
        <ele>285.1</ele>
        <time>2011-11-06T08:23:43Z</time>
      </trkpt>
      <trkpt lat="49.11513" lon="6.10878">
        <ele>286.7</ele>
        <time>2011-11-06T08:23:44Z</time>
      </trkpt>
      <trkpt lat="49.11516" lon="6.10862">
        <ele>285.7</ele>
        <time>2011-11-06T08:23:45Z</time>
      </trkpt>
      <trkpt lat="49.11516" lon="6.1085">
        <ele>285.7</ele>
        <time>2011-11-06T08:23:46Z</time>
      </trkpt>
      <trkpt lat="49.11519" lon="6.10836">
        <ele>284.6</ele>
        <time>2011-11-06T08:23:47Z</time>
      </trkpt>
      <trkpt lat="49.11519" lon="6.10826">
        <ele>284.7</ele>
        <time>2011-11-06T08:23:48Z</time>
      </trkpt>
      <trkpt lat="49.11518" lon="6.10812">
        <ele>283.7</ele>
        <time>2011-11-06T08:23:49Z</time>
      </trkpt>
      <trkpt lat="49.11519" lon="6.10799">
        <ele>283.5</ele>
        <time>2011-11-06T08:23:50Z</time>
      </trkpt>
      <trkpt lat="49.1152" lon="6.10786">
        <ele>283.5</ele>
        <time>2011-11-06T08:23:51Z</time>
      </trkpt>
      <trkpt lat="49.11522" lon="6.10774">
        <ele>282.8</ele>
        <time>2011-11-06T08:23:52Z</time>
      </trkpt>
      <trkpt lat="49.11523" lon="6.10762">
        <ele>282.1</ele>
        <time>2011-11-06T08:23:53Z</time>
      </trkpt>
      <trkpt lat="49.11533" lon="6.10744">
        <ele>280</ele>
        <time>2011-11-06T08:23:54Z</time>
      </trkpt>
      <trkpt lat="49.11532" lon="6.10734">
        <ele>279.7</ele>
        <time>2011-11-06T08:23:55Z</time>
      </trkpt>
      <trkpt lat="49.11535" lon="6.10717">
        <ele>279.1</ele>
        <time>2011-11-06T08:23:56Z</time>
      </trkpt>
      <trkpt lat="49.11536" lon="6.10709">
        <ele>278.9</ele>
        <time>2011-11-06T08:23:57Z</time>
      </trkpt>
      <trkpt lat="49.11537" lon="6.10697">
        <ele>279</ele>
        <time>2011-11-06T08:23:58Z</time>
      </trkpt>
      <trkpt lat="49.11538" lon="6.10685">
        <ele>278.9</ele>
        <time>2011-11-06T08:23:59Z</time>
      </trkpt>
      <trkpt lat="49.11539" lon="6.10672">
        <ele>279</ele>
        <time>2011-11-06T08:24:00Z</time>
      </trkpt>
      <trkpt lat="49.1154" lon="6.1066">
        <ele>279</ele>
        <time>2011-11-06T08:24:01Z</time>
      </trkpt>
      <trkpt lat="49.1154" lon="6.10649">
        <ele>279.1</ele>
        <time>2011-11-06T08:24:02Z</time>
      </trkpt>
      <trkpt lat="49.11541" lon="6.10637">
        <ele>279.1</ele>
        <time>2011-11-06T08:24:03Z</time>
      </trkpt>
      <trkpt lat="49.11545" lon="6.10633">
        <ele>279.1</ele>
        <time>2011-11-06T08:24:04Z</time>
      </trkpt>
      <trkpt lat="49.11547" lon="6.10623">
        <ele>279.1</ele>
        <time>2011-11-06T08:24:05Z</time>
      </trkpt>
      <trkpt lat="49.11548" lon="6.10613">
        <ele>279.1</ele>
        <time>2011-11-06T08:24:06Z</time>
      </trkpt>
      <trkpt lat="49.11549" lon="6.10604">
        <ele>279.2</ele>
        <time>2011-11-06T08:24:07Z</time>
      </trkpt>
      <trkpt lat="49.1155" lon="6.10594">
        <ele>279.2</ele>
        <time>2011-11-06T08:24:08Z</time>
      </trkpt>
      <trkpt lat="49.11552" lon="6.10584">
        <ele>279.2</ele>
        <time>2011-11-06T08:24:09Z</time>
      </trkpt>
      <trkpt lat="49.11553" lon="6.10574">
        <ele>279.2</ele>
        <time>2011-11-06T08:24:10Z</time>
      </trkpt>
      <trkpt lat="49.1156" lon="6.10599">
        <ele>279.2</ele>
        <time>2011-11-06T08:24:10Z</time>
      </trkpt>
      <trkpt lat="49.11565" lon="6.10591">
        <ele>279.2</ele>
        <time>2011-11-06T08:24:13Z</time>
      </trkpt>
      <trkpt lat="49.11576" lon="6.10581">
        <ele>279.3</ele>
        <time>2011-11-06T08:24:15Z</time>
      </trkpt>
      <trkpt lat="49.11583" lon="6.10572">
        <ele>279.3</ele>
        <time>2011-11-06T08:24:16Z</time>
      </trkpt>
      <trkpt lat="49.1159" lon="6.10563">
        <ele>279.3</ele>
        <time>2011-11-06T08:24:19Z</time>
      </trkpt>
      <trkpt lat="49.11593" lon="6.10559">
        <ele>279.3</ele>
        <time>2011-11-06T08:24:20Z</time>
      </trkpt>
      <trkpt lat="49.11598" lon="6.10555">
        <ele>279.3</ele>
        <time>2011-11-06T08:24:21Z</time>
      </trkpt>
      <trkpt lat="49.11601" lon="6.10548">
        <ele>279.4</ele>
        <time>2011-11-06T08:24:21Z</time>
      </trkpt>
      <trkpt lat="49.11602" lon="6.10536">
        <ele>279.5</ele>
        <time>2011-11-06T08:24:23Z</time>
      </trkpt>
      <trkpt lat="49.11612" lon="6.10531">
        <ele>279.6</ele>
        <time>2011-11-06T08:24:24Z</time>
      </trkpt>
      <trkpt lat="49.11626" lon="6.10533">
        <ele>279.7</ele>
        <time>2011-11-06T08:24:25Z</time>
      </trkpt>
      <trkpt lat="49.11624" lon="6.10458">
        <ele>280.2</ele>
        <time>2011-11-06T08:24:26Z</time>
      </trkpt>
      <trkpt lat="49.11627" lon="6.10437">
        <ele>280.3</ele>
        <time>2011-11-06T08:24:27Z</time>
      </trkpt>
      <trkpt lat="49.11634" lon="6.10428">
        <ele>280.3</ele>
        <time>2011-11-06T08:24:28Z</time>
      </trkpt>
      <trkpt lat="49.11643" lon="6.10418">
        <ele>280.4</ele>
        <time>2011-11-06T08:24:29Z</time>
      </trkpt>
      <trkpt lat="49.1165" lon="6.10409">
        <ele>280.5</ele>
        <time>2011-11-06T08:24:30Z</time>
      </trkpt>
      <trkpt lat="49.11658" lon="6.10404">
        <ele>280.5</ele>
        <time>2011-11-06T08:24:32Z</time>
      </trkpt>
      <trkpt lat="49.11664" lon="6.10399">
        <ele>280.5</ele>
        <time>2011-11-06T08:24:32Z</time>
      </trkpt>
      <trkpt lat="49.11671" lon="6.10391">
        <ele>280.6</ele>
        <time>2011-11-06T08:24:33Z</time>
      </trkpt>
      <trkpt lat="49.11676" lon="6.10385">
        <ele>280.6</ele>
        <time>2011-11-06T08:24:34Z</time>
      </trkpt>
      <trkpt lat="49.11681" lon="6.1038">
        <ele>280.6</ele>
        <time>2011-11-06T08:24:35Z</time>
      </trkpt>
      <trkpt lat="49.11687" lon="6.10375">
        <ele>280.6</ele>
        <time>2011-11-06T08:24:37Z</time>
      </trkpt>
      <trkpt lat="49.11691" lon="6.10371">
        <ele>280.6</ele>
        <time>2011-11-06T08:24:37Z</time>
      </trkpt>
      <trkpt lat="49.11697" lon="6.10365">
        <ele>280.7</ele>
        <time>2011-11-06T08:24:38Z</time>
      </trkpt>
      <trkpt lat="49.11702" lon="6.1036">
        <ele>280.8</ele>
        <time>2011-11-06T08:24:39Z</time>
      </trkpt>
      <trkpt lat="49.11707" lon="6.10356">
        <ele>280.8</ele>
        <time>2011-11-06T08:24:40Z</time>
      </trkpt>
      <trkpt lat="49.11707" lon="6.10348">
        <ele>280.8</ele>
        <time>2011-11-06T08:24:41Z</time>
      </trkpt>
      <trkpt lat="49.11724" lon="6.10343">
        <ele>281</ele>
        <time>2011-11-06T08:24:42Z</time>
      </trkpt>
      <trkpt lat="49.1173" lon="6.10338">
        <ele>281</ele>
        <time>2011-11-06T08:24:43Z</time>
      </trkpt>
      <trkpt lat="49.11735" lon="6.10333">
        <ele>281</ele>
        <time>2011-11-06T08:24:44Z</time>
      </trkpt>
      <trkpt lat="49.11742" lon="6.10329">
        <ele>281</ele>
        <time>2011-11-06T08:24:45Z</time>
      </trkpt>
      <trkpt lat="49.1175" lon="6.10323">
        <ele>281.1</ele>
        <time>2011-11-06T08:24:46Z</time>
      </trkpt>
      <trkpt lat="49.11758" lon="6.10318">
        <ele>281.1</ele>
        <time>2011-11-06T08:24:47Z</time>
      </trkpt>
      <trkpt lat="49.11767" lon="6.10318">
        <ele>281.1</ele>
        <time>2011-11-06T08:24:48Z</time>
      </trkpt>
      <trkpt lat="49.11775" lon="6.1031">
        <ele>281.1</ele>
        <time>2011-11-06T08:24:50Z</time>
      </trkpt>
      <trkpt lat="49.11778" lon="6.10304">
        <ele>281.2</ele>
        <time>2011-11-06T08:24:51Z</time>
      </trkpt>
      <trkpt lat="49.11784" lon="6.10299">
        <ele>281.2</ele>
        <time>2011-11-06T08:24:52Z</time>
      </trkpt>
      <trkpt lat="49.11791" lon="6.10291">
        <ele>281.2</ele>
        <time>2011-11-06T08:24:54Z</time>
      </trkpt>
      <trkpt lat="49.118" lon="6.1026">
        <ele>278.3</ele>
        <time>2011-11-06T08:24:57Z</time>
      </trkpt>
      <trkpt lat="49.11802" lon="6.10249">
        <ele>276.8</ele>
        <time>2011-11-06T08:24:58Z</time>
      </trkpt>
      <trkpt lat="49.11806" lon="6.10242">
        <ele>276.8</ele>
        <time>2011-11-06T08:24:59Z</time>
      </trkpt>
      <trkpt lat="49.11812" lon="6.10229">
        <ele>276.6</ele>
        <time>2011-11-06T08:25:01Z</time>
      </trkpt>
      <trkpt lat="49.11814" lon="6.1022">
        <ele>275.2</ele>
        <time>2011-11-06T08:25:02Z</time>
      </trkpt>
      <trkpt lat="49.11818" lon="6.10212">
        <ele>274.4</ele>
        <time>2011-11-06T08:25:03Z</time>
      </trkpt>
      <trkpt lat="49.11823" lon="6.102">
        <ele>275</ele>
        <time>2011-11-06T08:25:04Z</time>
      </trkpt>
      <trkpt lat="49.11828" lon="6.1019">
        <ele>274.8</ele>
        <time>2011-11-06T08:25:05Z</time>
      </trkpt>
      <trkpt lat="49.11832" lon="6.10182">
        <ele>275.4</ele>
        <time>2011-11-06T08:25:06Z</time>
      </trkpt>
      <trkpt lat="49.11836" lon="6.10173">
        <ele>275.4</ele>
        <time>2011-11-06T08:25:07Z</time>
      </trkpt>
      <trkpt lat="49.11839" lon="6.10162">
        <ele>272</ele>
        <time>2011-11-06T08:25:08Z</time>
      </trkpt>
      <trkpt lat="49.11843" lon="6.10153">
        <ele>271</ele>
        <time>2011-11-06T08:25:09Z</time>
      </trkpt>
      <trkpt lat="49.11848" lon="6.10143">
        <ele>272</ele>
        <time>2011-11-06T08:25:10Z</time>
      </trkpt>
      <trkpt lat="49.11852" lon="6.10133">
        <ele>271.9</ele>
        <time>2011-11-06T08:25:11Z</time>
      </trkpt>
      <trkpt lat="49.11858" lon="6.10123">
        <ele>272.1</ele>
        <time>2011-11-06T08:25:12Z</time>
      </trkpt>
      <trkpt lat="49.11863" lon="6.10112">
        <ele>271.9</ele>
        <time>2011-11-06T08:25:13Z</time>
      </trkpt>
      <trkpt lat="49.11868" lon="6.10103">
        <ele>272.2</ele>
        <time>2011-11-06T08:25:14Z</time>
      </trkpt>
      <trkpt lat="49.11873" lon="6.10093">
        <ele>272.1</ele>
        <time>2011-11-06T08:25:15Z</time>
      </trkpt>
      <trkpt lat="49.11878" lon="6.10082">
        <ele>272.2</ele>
        <time>2011-11-06T08:25:16Z</time>
      </trkpt>
      <trkpt lat="49.11883" lon="6.10072">
        <ele>272.1</ele>
        <time>2011-11-06T08:25:17Z</time>
      </trkpt>
      <trkpt lat="49.11889" lon="6.1006">
        <ele>271.9</ele>
        <time>2011-11-06T08:25:18Z</time>
      </trkpt>
      <trkpt lat="49.11892" lon="6.10053">
        <ele>271.1</ele>
        <time>2011-11-06T08:25:19Z</time>
      </trkpt>
      <trkpt lat="49.11895" lon="6.10046">
        <ele>270.3</ele>
        <time>2011-11-06T08:25:20Z</time>
      </trkpt>
      <trkpt lat="49.119" lon="6.10036">
        <ele>270.9</ele>
        <time>2011-11-06T08:25:21Z</time>
      </trkpt>
      <trkpt lat="49.11905" lon="6.10027">
        <ele>270.8</ele>
        <time>2011-11-06T08:25:22Z</time>
      </trkpt>
      <trkpt lat="49.11911" lon="6.10021">
        <ele>270.8</ele>
        <time>2011-11-06T08:25:23Z</time>
      </trkpt>
      <trkpt lat="49.11915" lon="6.10016">
        <ele>270.4</ele>
        <time>2011-11-06T08:25:24Z</time>
      </trkpt>
      <trkpt lat="49.11919" lon="6.10012">
        <ele>269.8</ele>
        <time>2011-11-06T08:25:25Z</time>
      </trkpt>
      <trkpt lat="49.11923" lon="6.10006">
        <ele>268.8</ele>
        <time>2011-11-06T08:25:26Z</time>
      </trkpt>
      <trkpt lat="49.11928" lon="6.10002">
        <ele>269.8</ele>
        <time>2011-11-06T08:25:27Z</time>
      </trkpt>
      <trkpt lat="49.11933" lon="6.09998">
        <ele>269.8</ele>
        <time>2011-11-06T08:25:28Z</time>
      </trkpt>
      <trkpt lat="49.11937" lon="6.09994">
        <ele>270</ele>
        <time>2011-11-06T08:25:29Z</time>
      </trkpt>
      <trkpt lat="49.11942" lon="6.0999">
        <ele>270.1</ele>
        <time>2011-11-06T08:25:30Z</time>
      </trkpt>
      <trkpt lat="49.11951" lon="6.09988">
        <ele>269.6</ele>
        <time>2011-11-06T08:25:31Z</time>
      </trkpt>
      <trkpt lat="49.11957" lon="6.09984">
        <ele>269.6</ele>
        <time>2011-11-06T08:25:32Z</time>
      </trkpt>
      <trkpt lat="49.11962" lon="6.09979">
        <ele>268.7</ele>
        <time>2011-11-06T08:25:33Z</time>
      </trkpt>
      <trkpt lat="49.11968" lon="6.09975">
        <ele>268.7</ele>
        <time>2011-11-06T08:25:34Z</time>
      </trkpt>
      <trkpt lat="49.11974" lon="6.09966">
        <ele>268.9</ele>
        <time>2011-11-06T08:25:35Z</time>
      </trkpt>
      <trkpt lat="49.1198" lon="6.0996">
        <ele>268.9</ele>
        <time>2011-11-06T08:25:36Z</time>
      </trkpt>
      <trkpt lat="49.11976" lon="6.0995">
        <ele>268</ele>
        <time>2011-11-06T08:25:37Z</time>
      </trkpt>
      <trkpt lat="49.11983" lon="6.09943">
        <ele>266.6</ele>
        <time>2011-11-06T08:25:38Z</time>
      </trkpt>
      <trkpt lat="49.11986" lon="6.09936">
        <ele>266.3</ele>
        <time>2011-11-06T08:25:39Z</time>
      </trkpt>
      <trkpt lat="49.11989" lon="6.09929">
        <ele>266.3</ele>
        <time>2011-11-06T08:25:40Z</time>
      </trkpt>
      <trkpt lat="49.11988" lon="6.0992">
        <ele>265.9</ele>
        <time>2011-11-06T08:25:41Z</time>
      </trkpt>
      <trkpt lat="49.11992" lon="6.09915">
        <ele>265.9</ele>
        <time>2011-11-06T08:25:42Z</time>
      </trkpt>
      <trkpt lat="49.11995" lon="6.09907">
        <ele>266.4</ele>
        <time>2011-11-06T08:25:43Z</time>
      </trkpt>
      <trkpt lat="49.12002" lon="6.09903">
        <ele>266.3</ele>
        <time>2011-11-06T08:25:44Z</time>
      </trkpt>
      <trkpt lat="49.12009" lon="6.099">
        <ele>265.5</ele>
        <time>2011-11-06T08:25:45Z</time>
      </trkpt>
      <trkpt lat="49.12014" lon="6.09896">
        <ele>265.1</ele>
        <time>2011-11-06T08:25:46Z</time>
      </trkpt>
      <trkpt lat="49.12019" lon="6.09895">
        <ele>265.1</ele>
        <time>2011-11-06T08:25:47Z</time>
      </trkpt>
      <trkpt lat="49.12028" lon="6.09899">
        <ele>270.1</ele>
        <time>2011-11-06T08:25:49Z</time>
      </trkpt>
      <trkpt lat="49.12032" lon="6.099">
        <ele>270.6</ele>
        <time>2011-11-06T08:25:50Z</time>
      </trkpt>
      <trkpt lat="49.12041" lon="6.09902">
        <ele>271</ele>
        <time>2011-11-06T08:25:52Z</time>
      </trkpt>
      <trkpt lat="49.12049" lon="6.09901">
        <ele>271.8</ele>
        <time>2011-11-06T08:25:54Z</time>
      </trkpt>
      <trkpt lat="49.12055" lon="6.09899">
        <ele>271.8</ele>
        <time>2011-11-06T08:25:56Z</time>
      </trkpt>
      <trkpt lat="49.12062" lon="6.09896">
        <ele>272</ele>
        <time>2011-11-06T08:25:57Z</time>
      </trkpt>
      <trkpt lat="49.12071" lon="6.09895">
        <ele>272</ele>
        <time>2011-11-06T08:25:59Z</time>
      </trkpt>
      <trkpt lat="49.12068" lon="6.09886">
        <ele>272.2</ele>
        <time>2011-11-06T08:26:00Z</time>
      </trkpt>
      <trkpt lat="49.12071" lon="6.09876">
        <ele>272.2</ele>
        <time>2011-11-06T08:26:02Z</time>
      </trkpt>
      <trkpt lat="49.12074" lon="6.09862">
        <ele>272.1</ele>
        <time>2011-11-06T08:26:04Z</time>
      </trkpt>
      <trkpt lat="49.12077" lon="6.09853">
        <ele>272</ele>
        <time>2011-11-06T08:26:05Z</time>
      </trkpt>
      <trkpt lat="49.12081" lon="6.09843">
        <ele>272.1</ele>
        <time>2011-11-06T08:26:06Z</time>
      </trkpt>
      <trkpt lat="49.12084" lon="6.09835">
        <ele>272.1</ele>
        <time>2011-11-06T08:26:07Z</time>
      </trkpt>
      <trkpt lat="49.12085" lon="6.09826">
        <ele>272.2</ele>
        <time>2011-11-06T08:26:08Z</time>
      </trkpt>
      <trkpt lat="49.12086" lon="6.09816">
        <ele>272.2</ele>
        <time>2011-11-06T08:26:09Z</time>
      </trkpt>
      <trkpt lat="49.12087" lon="6.09806">
        <ele>272.4</ele>
        <time>2011-11-06T08:26:10Z</time>
      </trkpt>
      <trkpt lat="49.12089" lon="6.09797">
        <ele>272.4</ele>
        <time>2011-11-06T08:26:11Z</time>
      </trkpt>
      <trkpt lat="49.12092" lon="6.09789">
        <ele>272.4</ele>
        <time>2011-11-06T08:26:12Z</time>
      </trkpt>
      <trkpt lat="49.12104" lon="6.09802">
        <ele>272.4</ele>
        <time>2011-11-06T08:26:13Z</time>
      </trkpt>
      <trkpt lat="49.121" lon="6.098">
        <ele>272.4</ele>
        <time>2011-11-06T08:26:15Z</time>
      </trkpt>
      <trkpt lat="49.12106" lon="6.098">
        <ele>272.3</ele>
        <time>2011-11-06T08:26:16Z</time>
      </trkpt>
      <trkpt lat="49.12111" lon="6.098">
        <ele>272.3</ele>
        <time>2011-11-06T08:26:17Z</time>
      </trkpt>
      <trkpt lat="49.1213" lon="6.09783">
        <ele>272</ele>
        <time>2011-11-06T08:26:18Z</time>
      </trkpt>
      <trkpt lat="49.12135" lon="6.09777">
        <ele>272</ele>
        <time>2011-11-06T08:26:19Z</time>
      </trkpt>
      <trkpt lat="49.12138" lon="6.09765">
        <ele>272</ele>
        <time>2011-11-06T08:26:21Z</time>
      </trkpt>
      <trkpt lat="49.12143" lon="6.09759">
        <ele>272</ele>
        <time>2011-11-06T08:26:22Z</time>
      </trkpt>
      <trkpt lat="49.12141" lon="6.09749">
        <ele>272</ele>
        <time>2011-11-06T08:26:24Z</time>
      </trkpt>
      <trkpt lat="49.12144" lon="6.09744">
        <ele>272</ele>
        <time>2011-11-06T08:26:25Z</time>
      </trkpt>
      <trkpt lat="49.12145" lon="6.09734">
        <ele>272</ele>
        <time>2011-11-06T08:26:27Z</time>
      </trkpt>
      <trkpt lat="49.12142" lon="6.09707">
        <ele>272.2</ele>
        <time>2011-11-06T08:26:28Z</time>
      </trkpt>
      <trkpt lat="49.12141" lon="6.09689">
        <ele>272.2</ele>
        <time>2011-11-06T08:26:30Z</time>
      </trkpt>
      <trkpt lat="49.12129" lon="6.09668">
        <ele>272.3</ele>
        <time>2011-11-06T08:26:32Z</time>
      </trkpt>
      <trkpt lat="49.12129" lon="6.0966">
        <ele>272.5</ele>
        <time>2011-11-06T08:26:33Z</time>
      </trkpt>
      <trkpt lat="49.1213" lon="6.09652">
        <ele>272.5</ele>
        <time>2011-11-06T08:26:35Z</time>
      </trkpt>
      <trkpt lat="49.12127" lon="6.09659">
        <ele>272.6</ele>
        <time>2011-11-06T08:26:36Z</time>
      </trkpt>
      <trkpt lat="49.12129" lon="6.09665">
        <ele>272.4</ele>
        <time>2011-11-06T08:26:42Z</time>
      </trkpt>
      <trkpt lat="49.12138" lon="6.09666">
        <ele>272.4</ele>
        <time>2011-11-06T08:26:48Z</time>
      </trkpt>
      <trkpt lat="49.12164" lon="6.09678">
        <ele>272.6</ele>
        <time>2011-11-06T08:26:51Z</time>
      </trkpt>
      <trkpt lat="49.1217" lon="6.09676">
        <ele>272.6</ele>
        <time>2011-11-06T08:26:54Z</time>
      </trkpt>
      <trkpt lat="49.12213" lon="6.09694">
        <ele>276.1</ele>
        <time>2011-11-06T08:26:58Z</time>
      </trkpt>
      <trkpt lat="49.12222" lon="6.0969">
        <ele>276.1</ele>
        <time>2011-11-06T08:26:59Z</time>
      </trkpt>
      <trkpt lat="49.12229" lon="6.09694">
        <ele>276.4</ele>
        <time>2011-11-06T08:27:00Z</time>
      </trkpt>
      <trkpt lat="49.12236" lon="6.09701">
        <ele>276.5</ele>
        <time>2011-11-06T08:27:02Z</time>
      </trkpt>
      <trkpt lat="49.12247" lon="6.0971">
        <ele>276.7</ele>
        <time>2011-11-06T08:27:04Z</time>
      </trkpt>
      <trkpt lat="49.12259" lon="6.09715">
        <ele>276.5</ele>
        <time>2011-11-06T08:27:05Z</time>
      </trkpt>
      <trkpt lat="49.12268" lon="6.09716">
        <ele>276.6</ele>
        <time>2011-11-06T08:27:06Z</time>
      </trkpt>
      <trkpt lat="49.12272" lon="6.09719">
        <ele>276.3</ele>
        <time>2011-11-06T08:27:07Z</time>
      </trkpt>
      <trkpt lat="49.12279" lon="6.09724">
        <ele>276.8</ele>
        <time>2011-11-06T08:27:09Z</time>
      </trkpt>
      <trkpt lat="49.12287" lon="6.0973">
        <ele>279.9</ele>
        <time>2011-11-06T08:27:11Z</time>
      </trkpt>
      <trkpt lat="49.12295" lon="6.09735">
        <ele>280.4</ele>
        <time>2011-11-06T08:27:13Z</time>
      </trkpt>
      <trkpt lat="49.123" lon="6.09738">
        <ele>281.5</ele>
        <time>2011-11-06T08:27:14Z</time>
      </trkpt>
      <trkpt lat="49.12305" lon="6.0974">
        <ele>281.6</ele>
        <time>2011-11-06T08:27:15Z</time>
      </trkpt>
      <trkpt lat="49.1231" lon="6.09742">
        <ele>281.1</ele>
        <time>2011-11-06T08:27:16Z</time>
      </trkpt>
      <trkpt lat="49.12318" lon="6.09748">
        <ele>280.6</ele>
        <time>2011-11-06T08:27:18Z</time>
      </trkpt>
      <trkpt lat="49.12322" lon="6.0975">
        <ele>280.5</ele>
        <time>2011-11-06T08:27:19Z</time>
      </trkpt>
      <trkpt lat="49.12327" lon="6.09753">
        <ele>280.7</ele>
        <time>2011-11-06T08:27:20Z</time>
      </trkpt>
      <trkpt lat="49.12332" lon="6.09756">
        <ele>281.1</ele>
        <time>2011-11-06T08:27:21Z</time>
      </trkpt>
      <trkpt lat="49.12337" lon="6.0976">
        <ele>281.2</ele>
        <time>2011-11-06T08:27:22Z</time>
      </trkpt>
      <trkpt lat="49.12342" lon="6.09764">
        <ele>281.6</ele>
        <time>2011-11-06T08:27:23Z</time>
      </trkpt>
      <trkpt lat="49.12347" lon="6.09767">
        <ele>281.4</ele>
        <time>2011-11-06T08:27:24Z</time>
      </trkpt>
      <trkpt lat="49.12352" lon="6.09772">
        <ele>281.5</ele>
        <time>2011-11-06T08:27:25Z</time>
      </trkpt>
      <trkpt lat="49.12357" lon="6.09775">
        <ele>281.6</ele>
        <time>2011-11-06T08:27:26Z</time>
      </trkpt>
      <trkpt lat="49.12362" lon="6.09779">
        <ele>281</ele>
        <time>2011-11-06T08:27:27Z</time>
      </trkpt>
      <trkpt lat="49.1237" lon="6.09785">
        <ele>281.3</ele>
        <time>2011-11-06T08:27:28Z</time>
      </trkpt>
      <trkpt lat="49.12377" lon="6.09792">
        <ele>280.7</ele>
        <time>2011-11-06T08:27:30Z</time>
      </trkpt>
      <trkpt lat="49.12381" lon="6.09797">
        <ele>278.7</ele>
        <time>2011-11-06T08:27:31Z</time>
      </trkpt>
      <trkpt lat="49.12389" lon="6.09804">
        <ele>277.6</ele>
        <time>2011-11-06T08:27:33Z</time>
      </trkpt>
      <trkpt lat="49.12392" lon="6.09814">
        <ele>279.2</ele>
        <time>2011-11-06T08:27:34Z</time>
      </trkpt>
      <trkpt lat="49.12394" lon="6.09821">
        <ele>280.6</ele>
        <time>2011-11-06T08:27:35Z</time>
      </trkpt>
      <trkpt lat="49.12396" lon="6.09828">
        <ele>279.9</ele>
        <time>2011-11-06T08:27:36Z</time>
      </trkpt>
      <trkpt lat="49.124" lon="6.09842">
        <ele>279.8</ele>
        <time>2011-11-06T08:27:38Z</time>
      </trkpt>
      <trkpt lat="49.12401" lon="6.0985">
        <ele>279.7</ele>
        <time>2011-11-06T08:27:39Z</time>
      </trkpt>
      <trkpt lat="49.12404" lon="6.09862">
        <ele>279.8</ele>
        <time>2011-11-06T08:27:41Z</time>
      </trkpt>
      <trkpt lat="49.12407" lon="6.09875">
        <ele>279.8</ele>
        <time>2011-11-06T08:27:43Z</time>
      </trkpt>
      <trkpt lat="49.12409" lon="6.09882">
        <ele>279.4</ele>
        <time>2011-11-06T08:27:44Z</time>
      </trkpt>
      <trkpt lat="49.12414" lon="6.09894">
        <ele>279.5</ele>
        <time>2011-11-06T08:27:46Z</time>
      </trkpt>
      <trkpt lat="49.12416" lon="6.099">
        <ele>279.1</ele>
        <time>2011-11-06T08:27:47Z</time>
      </trkpt>
      <trkpt lat="49.12419" lon="6.09908">
        <ele>278.8</ele>
        <time>2011-11-06T08:27:48Z</time>
      </trkpt>
      <trkpt lat="49.1242" lon="6.09925">
        <ele>279.4</ele>
        <time>2011-11-06T08:27:50Z</time>
      </trkpt>
      <trkpt lat="49.1242" lon="6.09937">
        <ele>279.7</ele>
        <time>2011-11-06T08:27:51Z</time>
      </trkpt>
      <trkpt lat="49.12421" lon="6.09945">
        <ele>279.5</ele>
        <time>2011-11-06T08:27:52Z</time>
      </trkpt>
      <trkpt lat="49.12424" lon="6.09952">
        <ele>279.6</ele>
        <time>2011-11-06T08:27:53Z</time>
      </trkpt>
      <trkpt lat="49.12426" lon="6.09958">
        <ele>279.7</ele>
        <time>2011-11-06T08:27:54Z</time>
      </trkpt>
      <trkpt lat="49.1243" lon="6.09976">
        <ele>280.2</ele>
        <time>2011-11-06T08:27:57Z</time>
      </trkpt>
      <trkpt lat="49.12433" lon="6.09984">
        <ele>280.3</ele>
        <time>2011-11-06T08:27:58Z</time>
      </trkpt>
      <trkpt lat="49.12436" lon="6.09995">
        <ele>280.3</ele>
        <time>2011-11-06T08:27:59Z</time>
      </trkpt>
      <trkpt lat="49.12441" lon="6.10003">
        <ele>280.1</ele>
        <time>2011-11-06T08:28:00Z</time>
      </trkpt>
      <trkpt lat="49.12446" lon="6.10011">
        <ele>280.6</ele>
        <time>2011-11-06T08:28:01Z</time>
      </trkpt>
      <trkpt lat="49.12449" lon="6.10017">
        <ele>280.6</ele>
        <time>2011-11-06T08:28:02Z</time>
      </trkpt>
      <trkpt lat="49.12452" lon="6.10026">
        <ele>280.3</ele>
        <time>2011-11-06T08:28:03Z</time>
      </trkpt>
      <trkpt lat="49.12457" lon="6.10038">
        <ele>280.3</ele>
        <time>2011-11-06T08:28:05Z</time>
      </trkpt>
      <trkpt lat="49.1246" lon="6.10043">
        <ele>280.4</ele>
        <time>2011-11-06T08:28:06Z</time>
      </trkpt>
      <trkpt lat="49.12462" lon="6.10055">
        <ele>280.4</ele>
        <time>2011-11-06T08:28:08Z</time>
      </trkpt>
      <trkpt lat="49.12464" lon="6.10066">
        <ele>280.9</ele>
        <time>2011-11-06T08:28:09Z</time>
      </trkpt>
      <trkpt lat="49.12465" lon="6.10074">
        <ele>281.3</ele>
        <time>2011-11-06T08:28:10Z</time>
      </trkpt>
      <trkpt lat="49.12466" lon="6.10082">
        <ele>281.3</ele>
        <time>2011-11-06T08:28:11Z</time>
      </trkpt>
      <trkpt lat="49.12468" lon="6.10093">
        <ele>281.5</ele>
        <time>2011-11-06T08:28:12Z</time>
      </trkpt>
      <trkpt lat="49.1247" lon="6.10104">
        <ele>281.9</ele>
        <time>2011-11-06T08:28:14Z</time>
      </trkpt>
      <trkpt lat="49.12469" lon="6.10112">
        <ele>282.1</ele>
        <time>2011-11-06T08:28:15Z</time>
      </trkpt>
      <trkpt lat="49.12474" lon="6.10128">
        <ele>280.8</ele>
        <time>2011-11-06T08:28:17Z</time>
      </trkpt>
      <trkpt lat="49.12475" lon="6.10134">
        <ele>280.4</ele>
        <time>2011-11-06T08:28:18Z</time>
      </trkpt>
      <trkpt lat="49.12478" lon="6.10143">
        <ele>280.2</ele>
        <time>2011-11-06T08:28:19Z</time>
      </trkpt>
      <trkpt lat="49.12479" lon="6.10153">
        <ele>280.3</ele>
        <time>2011-11-06T08:28:20Z</time>
      </trkpt>
      <trkpt lat="49.12478" lon="6.10164">
        <ele>280.6</ele>
        <time>2011-11-06T08:28:21Z</time>
      </trkpt>
      <trkpt lat="49.12478" lon="6.10172">
        <ele>280.8</ele>
        <time>2011-11-06T08:28:22Z</time>
      </trkpt>
      <trkpt lat="49.12475" lon="6.10183">
        <ele>279.5</ele>
        <time>2011-11-06T08:28:23Z</time>
      </trkpt>
      <trkpt lat="49.12475" lon="6.1019">
        <ele>279.5</ele>
        <time>2011-11-06T08:28:24Z</time>
      </trkpt>
      <trkpt lat="49.12473" lon="6.10197">
        <ele>279.3</ele>
        <time>2011-11-06T08:28:25Z</time>
      </trkpt>
      <trkpt lat="49.12469" lon="6.10206">
        <ele>280</ele>
        <time>2011-11-06T08:28:27Z</time>
      </trkpt>
      <trkpt lat="49.12468" lon="6.10214">
        <ele>280.6</ele>
        <time>2011-11-06T08:28:29Z</time>
      </trkpt>
      <trkpt lat="49.12468" lon="6.10222">
        <ele>281.1</ele>
        <time>2011-11-06T08:28:31Z</time>
      </trkpt>
      <trkpt lat="49.12464" lon="6.1023">
        <ele>282.3</ele>
        <time>2011-11-06T08:28:34Z</time>
      </trkpt>
      <trkpt lat="49.12462" lon="6.10239">
        <ele>282.9</ele>
        <time>2011-11-06T08:28:36Z</time>
      </trkpt>
      <trkpt lat="49.12469" lon="6.10251">
        <ele>283.1</ele>
        <time>2011-11-06T08:28:39Z</time>
      </trkpt>
      <trkpt lat="49.12473" lon="6.10259">
        <ele>284</ele>
        <time>2011-11-06T08:28:41Z</time>
      </trkpt>
      <trkpt lat="49.12473" lon="6.1027">
        <ele>284.4</ele>
        <time>2011-11-06T08:28:43Z</time>
      </trkpt>
      <trkpt lat="49.12474" lon="6.1028">
        <ele>284.7</ele>
        <time>2011-11-06T08:28:44Z</time>
      </trkpt>
      <trkpt lat="49.12476" lon="6.10287">
        <ele>285.4</ele>
        <time>2011-11-06T08:28:45Z</time>
      </trkpt>
      <trkpt lat="49.12481" lon="6.103">
        <ele>286.2</ele>
        <time>2011-11-06T08:28:47Z</time>
      </trkpt>
      <trkpt lat="49.12487" lon="6.10312">
        <ele>287.2</ele>
        <time>2011-11-06T08:28:49Z</time>
      </trkpt>
      <trkpt lat="49.12491" lon="6.10319">
        <ele>287.2</ele>
        <time>2011-11-06T08:28:50Z</time>
      </trkpt>
      <trkpt lat="49.12499" lon="6.10331">
        <ele>286.6</ele>
        <time>2011-11-06T08:28:51Z</time>
      </trkpt>
      <trkpt lat="49.12506" lon="6.1034">
        <ele>285.6</ele>
        <time>2011-11-06T08:28:52Z</time>
      </trkpt>
      <trkpt lat="49.12514" lon="6.10349">
        <ele>285.8</ele>
        <time>2011-11-06T08:28:53Z</time>
      </trkpt>
      <trkpt lat="49.12519" lon="6.10356">
        <ele>285.8</ele>
        <time>2011-11-06T08:28:54Z</time>
      </trkpt>
      <trkpt lat="49.12538" lon="6.10386">
        <ele>284.6</ele>
        <time>2011-11-06T08:28:58Z</time>
      </trkpt>
      <trkpt lat="49.12544" lon="6.10394">
        <ele>284.2</ele>
        <time>2011-11-06T08:28:59Z</time>
      </trkpt>
      <trkpt lat="49.12549" lon="6.10402">
        <ele>283.6</ele>
        <time>2011-11-06T08:29:00Z</time>
      </trkpt>
      <trkpt lat="49.12556" lon="6.10415">
        <ele>283.2</ele>
        <time>2011-11-06T08:29:02Z</time>
      </trkpt>
      <trkpt lat="49.12557" lon="6.10423">
        <ele>282.7</ele>
        <time>2011-11-06T08:29:03Z</time>
      </trkpt>
      <trkpt lat="49.12562" lon="6.10438">
        <ele>282.3</ele>
        <time>2011-11-06T08:29:05Z</time>
      </trkpt>
      <trkpt lat="49.12563" lon="6.10445">
        <ele>282.1</ele>
        <time>2011-11-06T08:29:06Z</time>
      </trkpt>
      <trkpt lat="49.12567" lon="6.10451">
        <ele>282.1</ele>
        <time>2011-11-06T08:29:08Z</time>
      </trkpt>
      <trkpt lat="49.12571" lon="6.1046">
        <ele>281.9</ele>
        <time>2011-11-06T08:29:09Z</time>
      </trkpt>
      <trkpt lat="49.12572" lon="6.10469">
        <ele>281.7</ele>
        <time>2011-11-06T08:29:10Z</time>
      </trkpt>
      <trkpt lat="49.12569" lon="6.10483">
        <ele>281.4</ele>
        <time>2011-11-06T08:29:12Z</time>
      </trkpt>
      <trkpt lat="49.12568" lon="6.1049">
        <ele>281.3</ele>
        <time>2011-11-06T08:29:13Z</time>
      </trkpt>
      <trkpt lat="49.12568" lon="6.10502">
        <ele>281.3</ele>
        <time>2011-11-06T08:29:15Z</time>
      </trkpt>
      <trkpt lat="49.12568" lon="6.10517">
        <ele>281.1</ele>
        <time>2011-11-06T08:29:16Z</time>
      </trkpt>
      <trkpt lat="49.12568" lon="6.1053">
        <ele>281.1</ele>
        <time>2011-11-06T08:29:18Z</time>
      </trkpt>
      <trkpt lat="49.12566" lon="6.1054">
        <ele>281</ele>
        <time>2011-11-06T08:29:19Z</time>
      </trkpt>
      <trkpt lat="49.12562" lon="6.10551">
        <ele>280.8</ele>
        <time>2011-11-06T08:29:22Z</time>
      </trkpt>
      <trkpt lat="49.12561" lon="6.10558">
        <ele>280.7</ele>
        <time>2011-11-06T08:29:23Z</time>
      </trkpt>
      <trkpt lat="49.12557" lon="6.1057">
        <ele>280.6</ele>
        <time>2011-11-06T08:29:25Z</time>
      </trkpt>
      <trkpt lat="49.12556" lon="6.10589">
        <ele>280.5</ele>
        <time>2011-11-06T08:29:27Z</time>
      </trkpt>
      <trkpt lat="49.12556" lon="6.10596">
        <ele>280.5</ele>
        <time>2011-11-06T08:29:28Z</time>
      </trkpt>
      <trkpt lat="49.12555" lon="6.10604">
        <ele>280.4</ele>
        <time>2011-11-06T08:29:29Z</time>
      </trkpt>
      <trkpt lat="49.12553" lon="6.10615">
        <ele>280.4</ele>
        <time>2011-11-06T08:29:30Z</time>
      </trkpt>
      <trkpt lat="49.12553" lon="6.10628">
        <ele>280.3</ele>
        <time>2011-11-06T08:29:31Z</time>
      </trkpt>
      <trkpt lat="49.12553" lon="6.10638">
        <ele>280.2</ele>
        <time>2011-11-06T08:29:32Z</time>
      </trkpt>
      <trkpt lat="49.12554" lon="6.10648">
        <ele>280.1</ele>
        <time>2011-11-06T08:29:34Z</time>
      </trkpt>
      <trkpt lat="49.12552" lon="6.1066">
        <ele>280.1</ele>
        <time>2011-11-06T08:29:36Z</time>
      </trkpt>
      <trkpt lat="49.12552" lon="6.10671">
        <ele>280</ele>
        <time>2011-11-06T08:29:38Z</time>
      </trkpt>
      <trkpt lat="49.12549" lon="6.10684">
        <ele>280</ele>
        <time>2011-11-06T08:29:41Z</time>
      </trkpt>
      <trkpt lat="49.12547" lon="6.1069">
        <ele>280</ele>
        <time>2011-11-06T08:29:42Z</time>
      </trkpt>
      <trkpt lat="49.12547" lon="6.10704">
        <ele>280</ele>
        <time>2011-11-06T08:29:44Z</time>
      </trkpt>
      <trkpt lat="49.12544" lon="6.10714">
        <ele>279.9</ele>
        <time>2011-11-06T08:29:46Z</time>
      </trkpt>
      <trkpt lat="49.12542" lon="6.1072">
        <ele>279.9</ele>
        <time>2011-11-06T08:29:48Z</time>
      </trkpt>
      <trkpt lat="49.12538" lon="6.10726">
        <ele>279.9</ele>
        <time>2011-11-06T08:29:51Z</time>
      </trkpt>
      <trkpt lat="49.12543" lon="6.10725">
        <ele>280</ele>
        <time>2011-11-06T08:30:02Z</time>
      </trkpt>
      <trkpt lat="49.12544" lon="6.10734">
        <ele>279.8</ele>
        <time>2011-11-06T08:30:10Z</time>
      </trkpt>
      <trkpt lat="49.12543" lon="6.10741">
        <ele>279.5</ele>
        <time>2011-11-06T08:30:11Z</time>
      </trkpt>
      <trkpt lat="49.12543" lon="6.10751">
        <ele>279.2</ele>
        <time>2011-11-06T08:30:12Z</time>
      </trkpt>
      <trkpt lat="49.12578" lon="6.10781">
        <ele>279.1</ele>
        <time>2011-11-06T08:30:31Z</time>
      </trkpt>
      <trkpt lat="49.12597" lon="6.10799">
        <ele>279</ele>
        <time>2011-11-06T08:30:32Z</time>
      </trkpt>
      <trkpt lat="49.12601" lon="6.10816">
        <ele>278.9</ele>
        <time>2011-11-06T08:30:33Z</time>
      </trkpt>
      <trkpt lat="49.12616" lon="6.10826">
        <ele>278.7</ele>
        <time>2011-11-06T08:30:34Z</time>
      </trkpt>
      <trkpt lat="49.12622" lon="6.10839">
        <ele>278.5</ele>
        <time>2011-11-06T08:30:35Z</time>
      </trkpt>
      <trkpt lat="49.12626" lon="6.10843">
        <ele>278.8</ele>
        <time>2011-11-06T08:30:36Z</time>
      </trkpt>
      <trkpt lat="49.12626" lon="6.10852">
        <ele>278.6</ele>
        <time>2011-11-06T08:30:37Z</time>
      </trkpt>
      <trkpt lat="49.1263" lon="6.10862">
        <ele>278.5</ele>
        <time>2011-11-06T08:30:38Z</time>
      </trkpt>
      <trkpt lat="49.12631" lon="6.10872">
        <ele>278.5</ele>
        <time>2011-11-06T08:30:39Z</time>
      </trkpt>
      <trkpt lat="49.12632" lon="6.10883">
        <ele>278.5</ele>
        <time>2011-11-06T08:30:40Z</time>
      </trkpt>
      <trkpt lat="49.12632" lon="6.10895">
        <ele>278.4</ele>
        <time>2011-11-06T08:30:41Z</time>
      </trkpt>
      <trkpt lat="49.12636" lon="6.10904">
        <ele>278.5</ele>
        <time>2011-11-06T08:30:43Z</time>
      </trkpt>
      <trkpt lat="49.12631" lon="6.10913">
        <ele>278.4</ele>
        <time>2011-11-06T08:30:44Z</time>
      </trkpt>
      <trkpt lat="49.12628" lon="6.10922">
        <ele>278.4</ele>
        <time>2011-11-06T08:30:45Z</time>
      </trkpt>
      <trkpt lat="49.12558" lon="6.10993">
        <ele>285.5</ele>
        <time>2011-11-06T08:30:46Z</time>
      </trkpt>
      <trkpt lat="49.12534" lon="6.11025">
        <ele>291.7</ele>
        <time>2011-11-06T08:30:47Z</time>
      </trkpt>
      <trkpt lat="49.12518" lon="6.11055">
        <ele>300.1</ele>
        <time>2011-11-06T08:30:48Z</time>
      </trkpt>
      <trkpt lat="49.12512" lon="6.11069">
        <ele>303.9</ele>
        <time>2011-11-06T08:30:49Z</time>
      </trkpt>
      <trkpt lat="49.12509" lon="6.11087">
        <ele>306.7</ele>
        <time>2011-11-06T08:30:51Z</time>
      </trkpt>
      <trkpt lat="49.12501" lon="6.11102">
        <ele>306.1</ele>
        <time>2011-11-06T08:30:53Z</time>
      </trkpt>
      <trkpt lat="49.12496" lon="6.1111">
        <ele>305.8</ele>
        <time>2011-11-06T08:30:54Z</time>
      </trkpt>
      <trkpt lat="49.12495" lon="6.11121">
        <ele>307.7</ele>
        <time>2011-11-06T08:30:56Z</time>
      </trkpt>
      <trkpt lat="49.12495" lon="6.11132">
        <ele>307.7</ele>
        <time>2011-11-06T08:30:59Z</time>
      </trkpt>
      <trkpt lat="49.12496" lon="6.11141">
        <ele>308.4</ele>
        <time>2011-11-06T08:31:03Z</time>
      </trkpt>
      <trkpt lat="49.12494" lon="6.11152">
        <ele>309.6</ele>
        <time>2011-11-06T08:31:05Z</time>
      </trkpt>
      <trkpt lat="49.12493" lon="6.11164">
        <ele>309.2</ele>
        <time>2011-11-06T08:31:07Z</time>
      </trkpt>
      <trkpt lat="49.12492" lon="6.11173">
        <ele>309.6</ele>
        <time>2011-11-06T08:31:08Z</time>
      </trkpt>
      <trkpt lat="49.1249" lon="6.11184">
        <ele>309</ele>
        <time>2011-11-06T08:31:09Z</time>
      </trkpt>
      <trkpt lat="49.12488" lon="6.11192">
        <ele>308.2</ele>
        <time>2011-11-06T08:31:10Z</time>
      </trkpt>
      <trkpt lat="49.12486" lon="6.11204">
        <ele>307.2</ele>
        <time>2011-11-06T08:31:12Z</time>
      </trkpt>
      <trkpt lat="49.12484" lon="6.11211">
        <ele>307.8</ele>
        <time>2011-11-06T08:31:14Z</time>
      </trkpt>
      <trkpt lat="49.12485" lon="6.1122">
        <ele>309.2</ele>
        <time>2011-11-06T08:31:15Z</time>
      </trkpt>
      <trkpt lat="49.12487" lon="6.11228">
        <ele>311.2</ele>
        <time>2011-11-06T08:31:16Z</time>
      </trkpt>
      <trkpt lat="49.12486" lon="6.11236">
        <ele>312.9</ele>
        <time>2011-11-06T08:31:17Z</time>
      </trkpt>
      <trkpt lat="49.12485" lon="6.11242">
        <ele>313.4</ele>
        <time>2011-11-06T08:31:18Z</time>
      </trkpt>
      <trkpt lat="49.12485" lon="6.11254">
        <ele>315.8</ele>
        <time>2011-11-06T08:31:20Z</time>
      </trkpt>
      <trkpt lat="49.1249" lon="6.11262">
        <ele>317.2</ele>
        <time>2011-11-06T08:31:21Z</time>
      </trkpt>
      <trkpt lat="49.12492" lon="6.1127">
        <ele>318</ele>
        <time>2011-11-06T08:31:22Z</time>
      </trkpt>
      <trkpt lat="49.1249" lon="6.11279">
        <ele>317.5</ele>
        <time>2011-11-06T08:31:23Z</time>
      </trkpt>
      <trkpt lat="49.12487" lon="6.11287">
        <ele>317.1</ele>
        <time>2011-11-06T08:31:24Z</time>
      </trkpt>
      <trkpt lat="49.12487" lon="6.11302">
        <ele>317.3</ele>
        <time>2011-11-06T08:31:26Z</time>
      </trkpt>
      <trkpt lat="49.12486" lon="6.11309">
        <ele>317.2</ele>
        <time>2011-11-06T08:31:27Z</time>
      </trkpt>
      <trkpt lat="49.1248" lon="6.11318">
        <ele>316.8</ele>
        <time>2011-11-06T08:31:28Z</time>
      </trkpt>
      <trkpt lat="49.12477" lon="6.11328">
        <ele>316.7</ele>
        <time>2011-11-06T08:31:29Z</time>
      </trkpt>
      <trkpt lat="49.12474" lon="6.1134">
        <ele>316.9</ele>
        <time>2011-11-06T08:31:30Z</time>
      </trkpt>
      <trkpt lat="49.12472" lon="6.11347">
        <ele>316.8</ele>
        <time>2011-11-06T08:31:31Z</time>
      </trkpt>
      <trkpt lat="49.1247" lon="6.11354">
        <ele>317.1</ele>
        <time>2011-11-06T08:31:32Z</time>
      </trkpt>
      <trkpt lat="49.12468" lon="6.11361">
        <ele>317.6</ele>
        <time>2011-11-06T08:31:33Z</time>
      </trkpt>
      <trkpt lat="49.12471" lon="6.11369">
        <ele>319</ele>
        <time>2011-11-06T08:31:34Z</time>
      </trkpt>
      <trkpt lat="49.12473" lon="6.11376">
        <ele>320.3</ele>
        <time>2011-11-06T08:31:35Z</time>
      </trkpt>
      <trkpt lat="49.12471" lon="6.11392">
        <ele>321.4</ele>
        <time>2011-11-06T08:31:37Z</time>
      </trkpt>
      <trkpt lat="49.12469" lon="6.11404">
        <ele>321.8</ele>
        <time>2011-11-06T08:31:38Z</time>
      </trkpt>
      <trkpt lat="49.12468" lon="6.11415">
        <ele>321.9</ele>
        <time>2011-11-06T08:31:39Z</time>
      </trkpt>
      <trkpt lat="49.12464" lon="6.11421">
        <ele>322.8</ele>
        <time>2011-11-06T08:31:40Z</time>
      </trkpt>
      <trkpt lat="49.12464" lon="6.1143">
        <ele>323.3</ele>
        <time>2011-11-06T08:31:41Z</time>
      </trkpt>
      <trkpt lat="49.12467" lon="6.11436">
        <ele>324.3</ele>
        <time>2011-11-06T08:31:42Z</time>
      </trkpt>
      <trkpt lat="49.12471" lon="6.11443">
        <ele>325.6</ele>
        <time>2011-11-06T08:31:43Z</time>
      </trkpt>
      <trkpt lat="49.12474" lon="6.11451">
        <ele>326.6</ele>
        <time>2011-11-06T08:31:44Z</time>
      </trkpt>
      <trkpt lat="49.12479" lon="6.11458">
        <ele>327.2</ele>
        <time>2011-11-06T08:31:45Z</time>
      </trkpt>
      <trkpt lat="49.12496" lon="6.11468">
        <ele>329.9</ele>
        <time>2011-11-06T08:31:46Z</time>
      </trkpt>
      <trkpt lat="49.1251" lon="6.11477">
        <ele>332.7</ele>
        <time>2011-11-06T08:31:47Z</time>
      </trkpt>
      <trkpt lat="49.12516" lon="6.11477">
        <ele>334.5</ele>
        <time>2011-11-06T08:31:48Z</time>
      </trkpt>
      <trkpt lat="49.12522" lon="6.11484">
        <ele>334.3</ele>
        <time>2011-11-06T08:31:49Z</time>
      </trkpt>
      <trkpt lat="49.12527" lon="6.11491">
        <ele>332.8</ele>
        <time>2011-11-06T08:31:50Z</time>
      </trkpt>
      <trkpt lat="49.12532" lon="6.11497">
        <ele>334</ele>
        <time>2011-11-06T08:31:51Z</time>
      </trkpt>
      <trkpt lat="49.12536" lon="6.11504">
        <ele>334.9</ele>
        <time>2011-11-06T08:31:52Z</time>
      </trkpt>
      <trkpt lat="49.12539" lon="6.11512">
        <ele>335.2</ele>
        <time>2011-11-06T08:31:53Z</time>
      </trkpt>
      <trkpt lat="49.12542" lon="6.1152">
        <ele>336.2</ele>
        <time>2011-11-06T08:31:55Z</time>
      </trkpt>
      <trkpt lat="49.12544" lon="6.11533">
        <ele>336.9</ele>
        <time>2011-11-06T08:31:58Z</time>
      </trkpt>
      <trkpt lat="49.12544" lon="6.11543">
        <ele>337.3</ele>
        <time>2011-11-06T08:32:01Z</time>
      </trkpt>
      <trkpt lat="49.12544" lon="6.11551">
        <ele>337.5</ele>
        <time>2011-11-06T08:32:03Z</time>
      </trkpt>
      <trkpt lat="49.12542" lon="6.11558">
        <ele>338.4</ele>
        <time>2011-11-06T08:32:05Z</time>
      </trkpt>
      <trkpt lat="49.12543" lon="6.1157">
        <ele>339</ele>
        <time>2011-11-06T08:32:07Z</time>
      </trkpt>
      <trkpt lat="49.1254" lon="6.11579">
        <ele>340.5</ele>
        <time>2011-11-06T08:32:10Z</time>
      </trkpt>
      <trkpt lat="49.12548" lon="6.11579">
        <ele>337</ele>
        <time>2011-11-06T08:32:12Z</time>
      </trkpt>
      <trkpt lat="49.12553" lon="6.11577">
        <ele>334</ele>
        <time>2011-11-06T08:32:15Z</time>
      </trkpt>
      <trkpt lat="49.12556" lon="6.1157">
        <ele>335.6</ele>
        <time>2011-11-06T08:32:18Z</time>
      </trkpt>
      <trkpt lat="49.12558" lon="6.11563">
        <ele>338.1</ele>
        <time>2011-11-06T08:32:22Z</time>
      </trkpt>
      <trkpt lat="49.1256" lon="6.11557">
        <ele>339.8</ele>
        <time>2011-11-06T08:32:27Z</time>
      </trkpt>
      <trkpt lat="49.12559" lon="6.1155">
        <ele>342.7</ele>
        <time>2011-11-06T08:32:33Z</time>
      </trkpt>
      <trkpt lat="49.1256" lon="6.11543">
        <ele>344.3</ele>
        <time>2011-11-06T08:32:36Z</time>
      </trkpt>
      <trkpt lat="49.12561" lon="6.11568">
        <ele>344</ele>
        <time>2011-11-06T08:32:51Z</time>
      </trkpt>
      <trkpt lat="49.12563" lon="6.11583">
        <ele>344</ele>
        <time>2011-11-06T08:32:52Z</time>
      </trkpt>
      <trkpt lat="49.12568" lon="6.116">
        <ele>344.5</ele>
        <time>2011-11-06T08:32:53Z</time>
      </trkpt>
      <trkpt lat="49.12569" lon="6.11607">
        <ele>344.7</ele>
        <time>2011-11-06T08:32:54Z</time>
      </trkpt>
      <trkpt lat="49.12569" lon="6.11616">
        <ele>344.6</ele>
        <time>2011-11-06T08:32:55Z</time>
      </trkpt>
      <trkpt lat="49.12574" lon="6.1164">
        <ele>345</ele>
        <time>2011-11-06T08:32:57Z</time>
      </trkpt>
      <trkpt lat="49.1258" lon="6.11652">
        <ele>344.9</ele>
        <time>2011-11-06T08:32:58Z</time>
      </trkpt>
      <trkpt lat="49.12584" lon="6.11662">
        <ele>344.8</ele>
        <time>2011-11-06T08:32:59Z</time>
      </trkpt>
      <trkpt lat="49.12589" lon="6.11674">
        <ele>345</ele>
        <time>2011-11-06T08:33:00Z</time>
      </trkpt>
      <trkpt lat="49.12593" lon="6.11683">
        <ele>345.1</ele>
        <time>2011-11-06T08:33:01Z</time>
      </trkpt>
      <trkpt lat="49.12597" lon="6.11692">
        <ele>345.1</ele>
        <time>2011-11-06T08:33:02Z</time>
      </trkpt>
      <trkpt lat="49.126" lon="6.117">
        <ele>345.3</ele>
        <time>2011-11-06T08:33:03Z</time>
      </trkpt>
      <trkpt lat="49.12603" lon="6.11709">
        <ele>345.4</ele>
        <time>2011-11-06T08:33:04Z</time>
      </trkpt>
      <trkpt lat="49.12607" lon="6.11721">
        <ele>345.8</ele>
        <time>2011-11-06T08:33:05Z</time>
      </trkpt>
      <trkpt lat="49.1261" lon="6.11728">
        <ele>346</ele>
        <time>2011-11-06T08:33:06Z</time>
      </trkpt>
      <trkpt lat="49.12612" lon="6.11736">
        <ele>346.2</ele>
        <time>2011-11-06T08:33:07Z</time>
      </trkpt>
      <trkpt lat="49.12616" lon="6.11749">
        <ele>346.4</ele>
        <time>2011-11-06T08:33:08Z</time>
      </trkpt>
      <trkpt lat="49.12619" lon="6.11762">
        <ele>344.8</ele>
        <time>2011-11-06T08:33:09Z</time>
      </trkpt>
      <trkpt lat="49.12625" lon="6.11781">
        <ele>345</ele>
        <time>2011-11-06T08:33:10Z</time>
      </trkpt>
      <trkpt lat="49.12632" lon="6.11795">
        <ele>345.6</ele>
        <time>2011-11-06T08:33:11Z</time>
      </trkpt>
      <trkpt lat="49.12638" lon="6.11806">
        <ele>346.1</ele>
        <time>2011-11-06T08:33:12Z</time>
      </trkpt>
      <trkpt lat="49.12643" lon="6.11816">
        <ele>346.1</ele>
        <time>2011-11-06T08:33:13Z</time>
      </trkpt>
      <trkpt lat="49.12648" lon="6.11827">
        <ele>346.1</ele>
        <time>2011-11-06T08:33:14Z</time>
      </trkpt>
      <trkpt lat="49.12655" lon="6.11833">
        <ele>346</ele>
        <time>2011-11-06T08:33:15Z</time>
      </trkpt>
      <trkpt lat="49.1266" lon="6.11838">
        <ele>346.2</ele>
        <time>2011-11-06T08:33:16Z</time>
      </trkpt>
      <trkpt lat="49.12669" lon="6.11847">
        <ele>346.5</ele>
        <time>2011-11-06T08:33:17Z</time>
      </trkpt>
      <trkpt lat="49.12677" lon="6.11859">
        <ele>346.7</ele>
        <time>2011-11-06T08:33:18Z</time>
      </trkpt>
      <trkpt lat="49.12682" lon="6.11868">
        <ele>346.7</ele>
        <time>2011-11-06T08:33:19Z</time>
      </trkpt>
      <trkpt lat="49.12689" lon="6.11877">
        <ele>347.2</ele>
        <time>2011-11-06T08:33:20Z</time>
      </trkpt>
      <trkpt lat="49.12694" lon="6.11885">
        <ele>347.2</ele>
        <time>2011-11-06T08:33:21Z</time>
      </trkpt>
      <trkpt lat="49.12699" lon="6.1189">
        <ele>346.8</ele>
        <time>2011-11-06T08:33:22Z</time>
      </trkpt>
      <trkpt lat="49.12704" lon="6.11897">
        <ele>347</ele>
        <time>2011-11-06T08:33:23Z</time>
      </trkpt>
      <trkpt lat="49.12709" lon="6.11905">
        <ele>347.1</ele>
        <time>2011-11-06T08:33:24Z</time>
      </trkpt>
      <trkpt lat="49.12712" lon="6.11912">
        <ele>347.4</ele>
        <time>2011-11-06T08:33:25Z</time>
      </trkpt>
      <trkpt lat="49.12718" lon="6.11922">
        <ele>347.5</ele>
        <time>2011-11-06T08:33:26Z</time>
      </trkpt>
      <trkpt lat="49.12723" lon="6.11928">
        <ele>347.6</ele>
        <time>2011-11-06T08:33:27Z</time>
      </trkpt>
      <trkpt lat="49.12727" lon="6.11935">
        <ele>347.8</ele>
        <time>2011-11-06T08:33:28Z</time>
      </trkpt>
      <trkpt lat="49.12734" lon="6.11945">
        <ele>348</ele>
        <time>2011-11-06T08:33:29Z</time>
      </trkpt>
      <trkpt lat="49.12739" lon="6.11954">
        <ele>348</ele>
        <time>2011-11-06T08:33:30Z</time>
      </trkpt>
      <trkpt lat="49.12742" lon="6.11962">
        <ele>348</ele>
        <time>2011-11-06T08:33:31Z</time>
      </trkpt>
      <trkpt lat="49.1275" lon="6.11972">
        <ele>347.9</ele>
        <time>2011-11-06T08:33:32Z</time>
      </trkpt>
      <trkpt lat="49.12757" lon="6.11978">
        <ele>347.7</ele>
        <time>2011-11-06T08:33:33Z</time>
      </trkpt>
      <trkpt lat="49.12768" lon="6.11992">
        <ele>346.2</ele>
        <time>2011-11-06T08:33:34Z</time>
      </trkpt>
      <trkpt lat="49.12779" lon="6.11999">
        <ele>345.5</ele>
        <time>2011-11-06T08:33:35Z</time>
      </trkpt>
      <trkpt lat="49.1279" lon="6.12006">
        <ele>345.5</ele>
        <time>2011-11-06T08:33:36Z</time>
      </trkpt>
      <trkpt lat="49.12796" lon="6.12012">
        <ele>345.9</ele>
        <time>2011-11-06T08:33:37Z</time>
      </trkpt>
      <trkpt lat="49.12804" lon="6.1202">
        <ele>344.9</ele>
        <time>2011-11-06T08:33:38Z</time>
      </trkpt>
      <trkpt lat="49.12811" lon="6.12027">
        <ele>345</ele>
        <time>2011-11-06T08:33:39Z</time>
      </trkpt>
      <trkpt lat="49.12816" lon="6.12036">
        <ele>344.9</ele>
        <time>2011-11-06T08:33:40Z</time>
      </trkpt>
      <trkpt lat="49.12822" lon="6.12044">
        <ele>343.6</ele>
        <time>2011-11-06T08:33:41Z</time>
      </trkpt>
      <trkpt lat="49.1283" lon="6.12053">
        <ele>342.4</ele>
        <time>2011-11-06T08:33:42Z</time>
      </trkpt>
      <trkpt lat="49.12838" lon="6.12061">
        <ele>341.2</ele>
        <time>2011-11-06T08:33:43Z</time>
      </trkpt>
      <trkpt lat="49.12847" lon="6.12067">
        <ele>340.4</ele>
        <time>2011-11-06T08:33:44Z</time>
      </trkpt>
      <trkpt lat="49.12854" lon="6.1207">
        <ele>340.6</ele>
        <time>2011-11-06T08:33:45Z</time>
      </trkpt>
      <trkpt lat="49.1286" lon="6.12073">
        <ele>340.4</ele>
        <time>2011-11-06T08:33:46Z</time>
      </trkpt>
      <trkpt lat="49.12865" lon="6.12076">
        <ele>340.4</ele>
        <time>2011-11-06T08:33:47Z</time>
      </trkpt>
      <trkpt lat="49.12871" lon="6.1208">
        <ele>340.4</ele>
        <time>2011-11-06T08:33:48Z</time>
      </trkpt>
      <trkpt lat="49.12878" lon="6.12077">
        <ele>340.5</ele>
        <time>2011-11-06T08:33:49Z</time>
      </trkpt>
      <trkpt lat="49.12886" lon="6.1208">
        <ele>340.6</ele>
        <time>2011-11-06T08:33:50Z</time>
      </trkpt>
      <trkpt lat="49.12894" lon="6.12082">
        <ele>340.4</ele>
        <time>2011-11-06T08:33:51Z</time>
      </trkpt>
      <trkpt lat="49.129" lon="6.12086">
        <ele>339.3</ele>
        <time>2011-11-06T08:33:52Z</time>
      </trkpt>
      <trkpt lat="49.12907" lon="6.12088">
        <ele>339.6</ele>
        <time>2011-11-06T08:33:53Z</time>
      </trkpt>
      <trkpt lat="49.12914" lon="6.12088">
        <ele>339.3</ele>
        <time>2011-11-06T08:33:54Z</time>
      </trkpt>
      <trkpt lat="49.12921" lon="6.1209">
        <ele>339.1</ele>
        <time>2011-11-06T08:33:55Z</time>
      </trkpt>
      <trkpt lat="49.12934" lon="6.12094">
        <ele>339.1</ele>
        <time>2011-11-06T08:33:57Z</time>
      </trkpt>
      <trkpt lat="49.12941" lon="6.12096">
        <ele>339.1</ele>
        <time>2011-11-06T08:33:58Z</time>
      </trkpt>
      <trkpt lat="49.12949" lon="6.12099">
        <ele>339.1</ele>
        <time>2011-11-06T08:33:59Z</time>
      </trkpt>
      <trkpt lat="49.12957" lon="6.12102">
        <ele>339</ele>
        <time>2011-11-06T08:34:00Z</time>
      </trkpt>
      <trkpt lat="49.12965" lon="6.12105">
        <ele>339.1</ele>
        <time>2011-11-06T08:34:01Z</time>
      </trkpt>
      <trkpt lat="49.12973" lon="6.12109">
        <ele>338.9</ele>
        <time>2011-11-06T08:34:02Z</time>
      </trkpt>
      <trkpt lat="49.1298" lon="6.12113">
        <ele>339</ele>
        <time>2011-11-06T08:34:03Z</time>
      </trkpt>
      <trkpt lat="49.12988" lon="6.12116">
        <ele>339</ele>
        <time>2011-11-06T08:34:04Z</time>
      </trkpt>
      <trkpt lat="49.12996" lon="6.12115">
        <ele>338.5</ele>
        <time>2011-11-06T08:34:05Z</time>
      </trkpt>
      <trkpt lat="49.13004" lon="6.12116">
        <ele>338.4</ele>
        <time>2011-11-06T08:34:06Z</time>
      </trkpt>
      <trkpt lat="49.13012" lon="6.12116">
        <ele>338.3</ele>
        <time>2011-11-06T08:34:07Z</time>
      </trkpt>
      <trkpt lat="49.1302" lon="6.12115">
        <ele>338.3</ele>
        <time>2011-11-06T08:34:08Z</time>
      </trkpt>
      <trkpt lat="49.13027" lon="6.12119">
        <ele>338.1</ele>
        <time>2011-11-06T08:34:09Z</time>
      </trkpt>
      <trkpt lat="49.13035" lon="6.12119">
        <ele>338.2</ele>
        <time>2011-11-06T08:34:10Z</time>
      </trkpt>
      <trkpt lat="49.13009" lon="6.12113">
        <ele>338</ele>
        <time>2011-11-06T08:34:11Z</time>
      </trkpt>
      <trkpt lat="49.13012" lon="6.12107">
        <ele>338</ele>
        <time>2011-11-06T08:34:13Z</time>
      </trkpt>
      <trkpt lat="49.13022" lon="6.12102">
        <ele>337.8</ele>
        <time>2011-11-06T08:34:16Z</time>
      </trkpt>
      <trkpt lat="49.13029" lon="6.12102">
        <ele>337.6</ele>
        <time>2011-11-06T08:34:17Z</time>
      </trkpt>
      <trkpt lat="49.13034" lon="6.12102">
        <ele>337.4</ele>
        <time>2011-11-06T08:34:18Z</time>
      </trkpt>
      <trkpt lat="49.13055" lon="6.12108">
        <ele>337</ele>
        <time>2011-11-06T08:34:20Z</time>
      </trkpt>
      <trkpt lat="49.1306" lon="6.12112">
        <ele>336.9</ele>
        <time>2011-11-06T08:34:21Z</time>
      </trkpt>
      <trkpt lat="49.13066" lon="6.12111">
        <ele>337.1</ele>
        <time>2011-11-06T08:34:23Z</time>
      </trkpt>
      <trkpt lat="49.13077" lon="6.12117">
        <ele>336.8</ele>
        <time>2011-11-06T08:34:24Z</time>
      </trkpt>
      <trkpt lat="49.13094" lon="6.12125">
        <ele>336.6</ele>
        <time>2011-11-06T08:34:26Z</time>
      </trkpt>
      <trkpt lat="49.13102" lon="6.12126">
        <ele>336.4</ele>
        <time>2011-11-06T08:34:27Z</time>
      </trkpt>
      <trkpt lat="49.13112" lon="6.1213">
        <ele>336.3</ele>
        <time>2011-11-06T08:34:28Z</time>
      </trkpt>
      <trkpt lat="49.13118" lon="6.12134">
        <ele>336.2</ele>
        <time>2011-11-06T08:34:29Z</time>
      </trkpt>
      <trkpt lat="49.13123" lon="6.12137">
        <ele>336.2</ele>
        <time>2011-11-06T08:34:30Z</time>
      </trkpt>
      <trkpt lat="49.13129" lon="6.12146">
        <ele>336.2</ele>
        <time>2011-11-06T08:34:32Z</time>
      </trkpt>
      <trkpt lat="49.13136" lon="6.12151">
        <ele>336.2</ele>
        <time>2011-11-06T08:34:33Z</time>
      </trkpt>
      <trkpt lat="49.1314" lon="6.12155">
        <ele>336.2</ele>
        <time>2011-11-06T08:34:34Z</time>
      </trkpt>
      <trkpt lat="49.13145" lon="6.12161">
        <ele>336.2</ele>
        <time>2011-11-06T08:34:36Z</time>
      </trkpt>
      <trkpt lat="49.13154" lon="6.1217">
        <ele>336.3</ele>
        <time>2011-11-06T08:34:37Z</time>
      </trkpt>
      <trkpt lat="49.13158" lon="6.12175">
        <ele>336.3</ele>
        <time>2011-11-06T08:34:38Z</time>
      </trkpt>
      <trkpt lat="49.13163" lon="6.1218">
        <ele>336.3</ele>
        <time>2011-11-06T08:34:39Z</time>
      </trkpt>
      <trkpt lat="49.13169" lon="6.12203">
        <ele>336.3</ele>
        <time>2011-11-06T08:34:41Z</time>
      </trkpt>
      <trkpt lat="49.13172" lon="6.1221">
        <ele>336.3</ele>
        <time>2011-11-06T08:34:42Z</time>
      </trkpt>
      <trkpt lat="49.13179" lon="6.1222">
        <ele>336.4</ele>
        <time>2011-11-06T08:34:43Z</time>
      </trkpt>
      <trkpt lat="49.13184" lon="6.12228">
        <ele>336.4</ele>
        <time>2011-11-06T08:34:44Z</time>
      </trkpt>
      <trkpt lat="49.13188" lon="6.12239">
        <ele>336.4</ele>
        <time>2011-11-06T08:34:45Z</time>
      </trkpt>
      <trkpt lat="49.13204" lon="6.1224">
        <ele>336.6</ele>
        <time>2011-11-06T08:34:46Z</time>
      </trkpt>
      <trkpt lat="49.1321" lon="6.12249">
        <ele>336.6</ele>
        <time>2011-11-06T08:34:47Z</time>
      </trkpt>
      <trkpt lat="49.13211" lon="6.12268">
        <ele>336.6</ele>
        <time>2011-11-06T08:34:48Z</time>
      </trkpt>
      <trkpt lat="49.13215" lon="6.12277">
        <ele>336.6</ele>
        <time>2011-11-06T08:34:49Z</time>
      </trkpt>
      <trkpt lat="49.13221" lon="6.12281">
        <ele>336.6</ele>
        <time>2011-11-06T08:34:50Z</time>
      </trkpt>
      <trkpt lat="49.13227" lon="6.1229">
        <ele>336.7</ele>
        <time>2011-11-06T08:34:51Z</time>
      </trkpt>
      <trkpt lat="49.13229" lon="6.12301">
        <ele>336.6</ele>
        <time>2011-11-06T08:34:52Z</time>
      </trkpt>
      <trkpt lat="49.1323" lon="6.12308">
        <ele>336.6</ele>
        <time>2011-11-06T08:34:53Z</time>
      </trkpt>
      <trkpt lat="49.13239" lon="6.12318">
        <ele>336.6</ele>
        <time>2011-11-06T08:34:54Z</time>
      </trkpt>
      <trkpt lat="49.1325" lon="6.12326">
        <ele>336.7</ele>
        <time>2011-11-06T08:34:55Z</time>
      </trkpt>
      <trkpt lat="49.13262" lon="6.12335">
        <ele>329.9</ele>
        <time>2011-11-06T08:34:58Z</time>
      </trkpt>
      <trkpt lat="49.13268" lon="6.12342">
        <ele>328.5</ele>
        <time>2011-11-06T08:34:59Z</time>
      </trkpt>
      <trkpt lat="49.13273" lon="6.12346">
        <ele>327.7</ele>
        <time>2011-11-06T08:35:00Z</time>
      </trkpt>
      <trkpt lat="49.13279" lon="6.12353">
        <ele>327.7</ele>
        <time>2011-11-06T08:35:01Z</time>
      </trkpt>
      <trkpt lat="49.13288" lon="6.12358">
        <ele>328.1</ele>
        <time>2011-11-06T08:35:02Z</time>
      </trkpt>
      <trkpt lat="49.13293" lon="6.1236">
        <ele>327.8</ele>
        <time>2011-11-06T08:35:03Z</time>
      </trkpt>
      <trkpt lat="49.13298" lon="6.12366">
        <ele>327.8</ele>
        <time>2011-11-06T08:35:04Z</time>
      </trkpt>
      <trkpt lat="49.13302" lon="6.1237">
        <ele>327.8</ele>
        <time>2011-11-06T08:35:05Z</time>
      </trkpt>
      <trkpt lat="49.13308" lon="6.12375">
        <ele>327.8</ele>
        <time>2011-11-06T08:35:06Z</time>
      </trkpt>
      <trkpt lat="49.13312" lon="6.12379">
        <ele>327.8</ele>
        <time>2011-11-06T08:35:07Z</time>
      </trkpt>
      <trkpt lat="49.13318" lon="6.12384">
        <ele>327.7</ele>
        <time>2011-11-06T08:35:08Z</time>
      </trkpt>
      <trkpt lat="49.13326" lon="6.12384">
        <ele>327.5</ele>
        <time>2011-11-06T08:35:10Z</time>
      </trkpt>
      <trkpt lat="49.13331" lon="6.12388">
        <ele>327.3</ele>
        <time>2011-11-06T08:35:11Z</time>
      </trkpt>
      <trkpt lat="49.13336" lon="6.12395">
        <ele>327.5</ele>
        <time>2011-11-06T08:35:12Z</time>
      </trkpt>
      <trkpt lat="49.13341" lon="6.12401">
        <ele>327.6</ele>
        <time>2011-11-06T08:35:13Z</time>
      </trkpt>
      <trkpt lat="49.13349" lon="6.12403">
        <ele>327.7</ele>
        <time>2011-11-06T08:35:14Z</time>
      </trkpt>
      <trkpt lat="49.13357" lon="6.12402">
        <ele>327.9</ele>
        <time>2011-11-06T08:35:16Z</time>
      </trkpt>
      <trkpt lat="49.13361" lon="6.12398">
        <ele>328</ele>
        <time>2011-11-06T08:35:17Z</time>
      </trkpt>
      <trkpt lat="49.13376" lon="6.12397">
        <ele>315.2</ele>
        <time>2011-11-06T08:35:18Z</time>
      </trkpt>
      <trkpt lat="49.13383" lon="6.12396">
        <ele>309.4</ele>
        <time>2011-11-06T08:35:19Z</time>
      </trkpt>
      <trkpt lat="49.13389" lon="6.12388">
        <ele>307.6</ele>
        <time>2011-11-06T08:35:21Z</time>
      </trkpt>
      <trkpt lat="49.13393" lon="6.12385">
        <ele>307.1</ele>
        <time>2011-11-06T08:35:22Z</time>
      </trkpt>
      <trkpt lat="49.13401" lon="6.12378">
        <ele>306.8</ele>
        <time>2011-11-06T08:35:24Z</time>
      </trkpt>
      <trkpt lat="49.13408" lon="6.12373">
        <ele>305.3</ele>
        <time>2011-11-06T08:35:25Z</time>
      </trkpt>
      <trkpt lat="49.13414" lon="6.12367">
        <ele>304.1</ele>
        <time>2011-11-06T08:35:26Z</time>
      </trkpt>
      <trkpt lat="49.13417" lon="6.12362">
        <ele>302.5</ele>
        <time>2011-11-06T08:35:27Z</time>
      </trkpt>
      <trkpt lat="49.13424" lon="6.12361">
        <ele>303.2</ele>
        <time>2011-11-06T08:35:29Z</time>
      </trkpt>
      <trkpt lat="49.13433" lon="6.12367">
        <ele>303.3</ele>
        <time>2011-11-06T08:35:31Z</time>
      </trkpt>
      <trkpt lat="49.1344" lon="6.12373">
        <ele>303.1</ele>
        <time>2011-11-06T08:35:33Z</time>
      </trkpt>
      <trkpt lat="49.13446" lon="6.12377">
        <ele>302.2</ele>
        <time>2011-11-06T08:35:34Z</time>
      </trkpt>
      <trkpt lat="49.13456" lon="6.12375">
        <ele>299.9</ele>
        <time>2011-11-06T08:35:35Z</time>
      </trkpt>
      <trkpt lat="49.13462" lon="6.12378">
        <ele>298.9</ele>
        <time>2011-11-06T08:35:36Z</time>
      </trkpt>
      <trkpt lat="49.1347" lon="6.12383">
        <ele>301.7</ele>
        <time>2011-11-06T08:35:37Z</time>
      </trkpt>
      <trkpt lat="49.13476" lon="6.12386">
        <ele>301.8</ele>
        <time>2011-11-06T08:35:38Z</time>
      </trkpt>
      <trkpt lat="49.13481" lon="6.12388">
        <ele>301.4</ele>
        <time>2011-11-06T08:35:39Z</time>
      </trkpt>
      <trkpt lat="49.13489" lon="6.12388">
        <ele>301.4</ele>
        <time>2011-11-06T08:35:40Z</time>
      </trkpt>
      <trkpt lat="49.13496" lon="6.1239">
        <ele>301.7</ele>
        <time>2011-11-06T08:35:41Z</time>
      </trkpt>
      <trkpt lat="49.13503" lon="6.12391">
        <ele>301.8</ele>
        <time>2011-11-06T08:35:42Z</time>
      </trkpt>
      <trkpt lat="49.1351" lon="6.12391">
        <ele>301.4</ele>
        <time>2011-11-06T08:35:43Z</time>
      </trkpt>
      <trkpt lat="49.13517" lon="6.12392">
        <ele>300.8</ele>
        <time>2011-11-06T08:35:44Z</time>
      </trkpt>
      <trkpt lat="49.13524" lon="6.12393">
        <ele>300.4</ele>
        <time>2011-11-06T08:35:45Z</time>
      </trkpt>
      <trkpt lat="49.13533" lon="6.12392">
        <ele>298.1</ele>
        <time>2011-11-06T08:35:46Z</time>
      </trkpt>
      <trkpt lat="49.13539" lon="6.12391">
        <ele>297</ele>
        <time>2011-11-06T08:35:47Z</time>
      </trkpt>
      <trkpt lat="49.13546" lon="6.1239">
        <ele>296.8</ele>
        <time>2011-11-06T08:35:48Z</time>
      </trkpt>
      <trkpt lat="49.13554" lon="6.12388">
        <ele>296</ele>
        <time>2011-11-06T08:35:49Z</time>
      </trkpt>
      <trkpt lat="49.13561" lon="6.12385">
        <ele>295.6</ele>
        <time>2011-11-06T08:35:50Z</time>
      </trkpt>
      <trkpt lat="49.13569" lon="6.12382">
        <ele>294.4</ele>
        <time>2011-11-06T08:35:51Z</time>
      </trkpt>
      <trkpt lat="49.13574" lon="6.12381">
        <ele>293.7</ele>
        <time>2011-11-06T08:35:52Z</time>
      </trkpt>
      <trkpt lat="49.13581" lon="6.12378">
        <ele>293.7</ele>
        <time>2011-11-06T08:35:53Z</time>
      </trkpt>
      <trkpt lat="49.13587" lon="6.12376">
        <ele>293.4</ele>
        <time>2011-11-06T08:35:54Z</time>
      </trkpt>
      <trkpt lat="49.13592" lon="6.12378">
        <ele>292.9</ele>
        <time>2011-11-06T08:35:55Z</time>
      </trkpt>
      <trkpt lat="49.13598" lon="6.12378">
        <ele>292.9</ele>
        <time>2011-11-06T08:35:56Z</time>
      </trkpt>
      <trkpt lat="49.13604" lon="6.12378">
        <ele>292.9</ele>
        <time>2011-11-06T08:35:57Z</time>
      </trkpt>
      <trkpt lat="49.1361" lon="6.12378">
        <ele>293</ele>
        <time>2011-11-06T08:35:58Z</time>
      </trkpt>
      <trkpt lat="49.13616" lon="6.12379">
        <ele>292.9</ele>
        <time>2011-11-06T08:35:59Z</time>
      </trkpt>
      <trkpt lat="49.13621" lon="6.12383">
        <ele>292.6</ele>
        <time>2011-11-06T08:36:00Z</time>
      </trkpt>
      <trkpt lat="49.13627" lon="6.12383">
        <ele>292.7</ele>
        <time>2011-11-06T08:36:01Z</time>
      </trkpt>
      <trkpt lat="49.13633" lon="6.12382">
        <ele>292.6</ele>
        <time>2011-11-06T08:36:02Z</time>
      </trkpt>
      <trkpt lat="49.13638" lon="6.12381">
        <ele>292.6</ele>
        <time>2011-11-06T08:36:03Z</time>
      </trkpt>
      <trkpt lat="49.13645" lon="6.1238">
        <ele>292.6</ele>
        <time>2011-11-06T08:36:04Z</time>
      </trkpt>
      <trkpt lat="49.13656" lon="6.12373">
        <ele>292.6</ele>
        <time>2011-11-06T08:36:06Z</time>
      </trkpt>
      <trkpt lat="49.13661" lon="6.12368">
        <ele>292.7</ele>
        <time>2011-11-06T08:36:07Z</time>
      </trkpt>
      <trkpt lat="49.13668" lon="6.12362">
        <ele>292.9</ele>
        <time>2011-11-06T08:36:08Z</time>
      </trkpt>
      <trkpt lat="49.13674" lon="6.1236">
        <ele>292.9</ele>
        <time>2011-11-06T08:36:09Z</time>
      </trkpt>
      <trkpt lat="49.13679" lon="6.12359">
        <ele>292.9</ele>
        <time>2011-11-06T08:36:10Z</time>
      </trkpt>
      <trkpt lat="49.13688" lon="6.12356">
        <ele>293</ele>
        <time>2011-11-06T08:36:12Z</time>
      </trkpt>
      <trkpt lat="49.13693" lon="6.12351">
        <ele>293</ele>
        <time>2011-11-06T08:36:18Z</time>
      </trkpt>
      <trkpt lat="49.13699" lon="6.1235">
        <ele>293</ele>
        <time>2011-11-06T08:36:20Z</time>
      </trkpt>
      <trkpt lat="49.13704" lon="6.1235">
        <ele>293</ele>
        <time>2011-11-06T08:36:23Z</time>
      </trkpt>
      <trkpt lat="49.1371" lon="6.12351">
        <ele>293</ele>
        <time>2011-11-06T08:36:25Z</time>
      </trkpt>
      <trkpt lat="49.13715" lon="6.12348">
        <ele>293.1</ele>
        <time>2011-11-06T08:36:26Z</time>
      </trkpt>
      <trkpt lat="49.13727" lon="6.12344">
        <ele>293.1</ele>
        <time>2011-11-06T08:36:28Z</time>
      </trkpt>
      <trkpt lat="49.13738" lon="6.12346">
        <ele>293.2</ele>
        <time>2011-11-06T08:36:29Z</time>
      </trkpt>
      <trkpt lat="49.1375" lon="6.12338">
        <ele>293.2</ele>
        <time>2011-11-06T08:36:30Z</time>
      </trkpt>
      <trkpt lat="49.13756" lon="6.12335">
        <ele>293.2</ele>
        <time>2011-11-06T08:36:31Z</time>
      </trkpt>
      <trkpt lat="49.13762" lon="6.12332">
        <ele>293.2</ele>
        <time>2011-11-06T08:36:32Z</time>
      </trkpt>
      <trkpt lat="49.13768" lon="6.12329">
        <ele>293.3</ele>
        <time>2011-11-06T08:36:33Z</time>
      </trkpt>
      <trkpt lat="49.1378" lon="6.12328">
        <ele>293.3</ele>
        <time>2011-11-06T08:36:34Z</time>
      </trkpt>
      <trkpt lat="49.13797" lon="6.1233">
        <ele>293.4</ele>
        <time>2011-11-06T08:36:35Z</time>
      </trkpt>
      <trkpt lat="49.13822" lon="6.12335">
        <ele>293.4</ele>
        <time>2011-11-06T08:36:36Z</time>
      </trkpt>
      <trkpt lat="49.1384" lon="6.12337">
        <ele>293.5</ele>
        <time>2011-11-06T08:36:37Z</time>
      </trkpt>
      <trkpt lat="49.13858" lon="6.1234">
        <ele>293.6</ele>
        <time>2011-11-06T08:36:38Z</time>
      </trkpt>
      <trkpt lat="49.13876" lon="6.12342">
        <ele>293.6</ele>
        <time>2011-11-06T08:36:39Z</time>
      </trkpt>
      <trkpt lat="49.13896" lon="6.12346">
        <ele>293.5</ele>
        <time>2011-11-06T08:36:40Z</time>
      </trkpt>
      <trkpt lat="49.13932" lon="6.12358">
        <ele>293.5</ele>
        <time>2011-11-06T08:36:41Z</time>
      </trkpt>
      <trkpt lat="49.1395" lon="6.12366">
        <ele>293.4</ele>
        <time>2011-11-06T08:36:42Z</time>
      </trkpt>
      <trkpt lat="49.13968" lon="6.12368">
        <ele>293.4</ele>
        <time>2011-11-06T08:36:43Z</time>
      </trkpt>
      <trkpt lat="49.13982" lon="6.12367">
        <ele>293.4</ele>
        <time>2011-11-06T08:36:44Z</time>
      </trkpt>
      <trkpt lat="49.13996" lon="6.12356">
        <ele>293.4</ele>
        <time>2011-11-06T08:36:45Z</time>
      </trkpt>
      <trkpt lat="49.14005" lon="6.12354">
        <ele>293.5</ele>
        <time>2011-11-06T08:36:46Z</time>
      </trkpt>
      <trkpt lat="49.14014" lon="6.12352">
        <ele>293.5</ele>
        <time>2011-11-06T08:36:47Z</time>
      </trkpt>
      <trkpt lat="49.14022" lon="6.1235">
        <ele>293.5</ele>
        <time>2011-11-06T08:36:48Z</time>
      </trkpt>
      <trkpt lat="49.14032" lon="6.12346">
        <ele>293.6</ele>
        <time>2011-11-06T08:36:49Z</time>
      </trkpt>
      <trkpt lat="49.14041" lon="6.12343">
        <ele>293.6</ele>
        <time>2011-11-06T08:36:51Z</time>
      </trkpt>
      <trkpt lat="49.14048" lon="6.12343">
        <ele>293.7</ele>
        <time>2011-11-06T08:36:52Z</time>
      </trkpt>
      <trkpt lat="49.14056" lon="6.12343">
        <ele>293.8</ele>
        <time>2011-11-06T08:36:53Z</time>
      </trkpt>
      <trkpt lat="49.14064" lon="6.12342">
        <ele>293.8</ele>
        <time>2011-11-06T08:36:54Z</time>
      </trkpt>
      <trkpt lat="49.14068" lon="6.12357">
        <ele>293.7</ele>
        <time>2011-11-06T08:36:55Z</time>
      </trkpt>
      <trkpt lat="49.14075" lon="6.12361">
        <ele>293.8</ele>
        <time>2011-11-06T08:36:56Z</time>
      </trkpt>
      <trkpt lat="49.14079" lon="6.1238">
        <ele>293.8</ele>
        <time>2011-11-06T08:36:57Z</time>
      </trkpt>
      <trkpt lat="49.14085" lon="6.12388">
        <ele>293.8</ele>
        <time>2011-11-06T08:36:58Z</time>
      </trkpt>
      <trkpt lat="49.14091" lon="6.12398">
        <ele>293.8</ele>
        <time>2011-11-06T08:36:59Z</time>
      </trkpt>
      <trkpt lat="49.14096" lon="6.12404">
        <ele>293.8</ele>
        <time>2011-11-06T08:37:00Z</time>
      </trkpt>
      <trkpt lat="49.1409" lon="6.12399">
        <ele>293.8</ele>
        <time>2011-11-06T08:37:01Z</time>
      </trkpt>
      <trkpt lat="49.14101" lon="6.12407">
        <ele>293.7</ele>
        <time>2011-11-06T08:37:02Z</time>
      </trkpt>
      <trkpt lat="49.14107" lon="6.12412">
        <ele>293.9</ele>
        <time>2011-11-06T08:37:04Z</time>
      </trkpt>
      <trkpt lat="49.14117" lon="6.12416">
        <ele>293.9</ele>
        <time>2011-11-06T08:37:05Z</time>
      </trkpt>
      <trkpt lat="49.14123" lon="6.12419">
        <ele>293.9</ele>
        <time>2011-11-06T08:37:06Z</time>
      </trkpt>
      <trkpt lat="49.14123" lon="6.12401">
        <ele>293.9</ele>
        <time>2011-11-06T08:37:07Z</time>
      </trkpt>
      <trkpt lat="49.14131" lon="6.12398">
        <ele>293.9</ele>
        <time>2011-11-06T08:37:09Z</time>
      </trkpt>
      <trkpt lat="49.1414" lon="6.12395">
        <ele>294</ele>
        <time>2011-11-06T08:37:11Z</time>
      </trkpt>
      <trkpt lat="49.14141" lon="6.12379">
        <ele>294</ele>
        <time>2011-11-06T08:37:12Z</time>
      </trkpt>
      <trkpt lat="49.14145" lon="6.12375">
        <ele>294</ele>
        <time>2011-11-06T08:37:13Z</time>
      </trkpt>
      <trkpt lat="49.14148" lon="6.12354">
        <ele>294</ele>
        <time>2011-11-06T08:37:14Z</time>
      </trkpt>
      <trkpt lat="49.14154" lon="6.12354">
        <ele>294</ele>
        <time>2011-11-06T08:37:15Z</time>
      </trkpt>
      <trkpt lat="49.14159" lon="6.12352">
        <ele>294</ele>
        <time>2011-11-06T08:37:16Z</time>
      </trkpt>
      <trkpt lat="49.14163" lon="6.12348">
        <ele>294.1</ele>
        <time>2011-11-06T08:37:17Z</time>
      </trkpt>
      <trkpt lat="49.14168" lon="6.12344">
        <ele>294.1</ele>
        <time>2011-11-06T08:37:18Z</time>
      </trkpt>
      <trkpt lat="49.14175" lon="6.12338">
        <ele>294.1</ele>
        <time>2011-11-06T08:37:19Z</time>
      </trkpt>
      <trkpt lat="49.14184" lon="6.1233">
        <ele>294.1</ele>
        <time>2011-11-06T08:37:20Z</time>
      </trkpt>
      <trkpt lat="49.1419" lon="6.12325">
        <ele>294.1</ele>
        <time>2011-11-06T08:37:21Z</time>
      </trkpt>
      <trkpt lat="49.14195" lon="6.1232">
        <ele>294.2</ele>
        <time>2011-11-06T08:37:22Z</time>
      </trkpt>
      <trkpt lat="49.14202" lon="6.12314">
        <ele>294.2</ele>
        <time>2011-11-06T08:37:23Z</time>
      </trkpt>
      <trkpt lat="49.14206" lon="6.12309">
        <ele>294.2</ele>
        <time>2011-11-06T08:37:24Z</time>
      </trkpt>
      <trkpt lat="49.14213" lon="6.12302">
        <ele>291.4</ele>
        <time>2011-11-06T08:37:26Z</time>
      </trkpt>
      <trkpt lat="49.14217" lon="6.12298">
        <ele>291.4</ele>
        <time>2011-11-06T08:37:27Z</time>
      </trkpt>
      <trkpt lat="49.14221" lon="6.12291">
        <ele>289.8</ele>
        <time>2011-11-06T08:37:28Z</time>
      </trkpt>
      <trkpt lat="49.14229" lon="6.12279">
        <ele>287.5</ele>
        <time>2011-11-06T08:37:30Z</time>
      </trkpt>
      <trkpt lat="49.14233" lon="6.12278">
        <ele>287</ele>
        <time>2011-11-06T08:37:31Z</time>
      </trkpt>
      <trkpt lat="49.14238" lon="6.1227">
        <ele>287.1</ele>
        <time>2011-11-06T08:37:32Z</time>
      </trkpt>
      <trkpt lat="49.14243" lon="6.12266">
        <ele>287.1</ele>
        <time>2011-11-06T08:37:33Z</time>
      </trkpt>
      <trkpt lat="49.14245" lon="6.12259">
        <ele>285.8</ele>
        <time>2011-11-06T08:37:34Z</time>
      </trkpt>
      <trkpt lat="49.14249" lon="6.12255">
        <ele>285.8</ele>
        <time>2011-11-06T08:37:35Z</time>
      </trkpt>
      <trkpt lat="49.14251" lon="6.12249">
        <ele>283.7</ele>
        <time>2011-11-06T08:37:36Z</time>
      </trkpt>
      <trkpt lat="49.14255" lon="6.12252">
        <ele>285.4</ele>
        <time>2011-11-06T08:37:38Z</time>
      </trkpt>
      <trkpt lat="49.14261" lon="6.12252">
        <ele>286.7</ele>
        <time>2011-11-06T08:37:39Z</time>
      </trkpt>
      <trkpt lat="49.14265" lon="6.12263">
        <ele>286.3</ele>
        <time>2011-11-06T08:37:41Z</time>
      </trkpt>
      <trkpt lat="49.14269" lon="6.12276">
        <ele>286</ele>
        <time>2011-11-06T08:37:43Z</time>
      </trkpt>
      <trkpt lat="49.14271" lon="6.12283">
        <ele>285.9</ele>
        <time>2011-11-06T08:37:44Z</time>
      </trkpt>
      <trkpt lat="49.14273" lon="6.1229">
        <ele>285.9</ele>
        <time>2011-11-06T08:37:45Z</time>
      </trkpt>
      <trkpt lat="49.14275" lon="6.12301">
        <ele>285.9</ele>
        <time>2011-11-06T08:37:46Z</time>
      </trkpt>
      <trkpt lat="49.14278" lon="6.1231">
        <ele>285.7</ele>
        <time>2011-11-06T08:37:47Z</time>
      </trkpt>
      <trkpt lat="49.14284" lon="6.12323">
        <ele>284.1</ele>
        <time>2011-11-06T08:37:48Z</time>
      </trkpt>
      <trkpt lat="49.14286" lon="6.12332">
        <ele>284.2</ele>
        <time>2011-11-06T08:37:49Z</time>
      </trkpt>
      <trkpt lat="49.14289" lon="6.12338">
        <ele>284.1</ele>
        <time>2011-11-06T08:37:50Z</time>
      </trkpt>
      <trkpt lat="49.14292" lon="6.12346">
        <ele>284.2</ele>
        <time>2011-11-06T08:37:51Z</time>
      </trkpt>
      <trkpt lat="49.14293" lon="6.12358">
        <ele>284</ele>
        <time>2011-11-06T08:37:52Z</time>
      </trkpt>
      <trkpt lat="49.14296" lon="6.12366">
        <ele>284</ele>
        <time>2011-11-06T08:37:53Z</time>
      </trkpt>
      <trkpt lat="49.143" lon="6.12374">
        <ele>283.8</ele>
        <time>2011-11-06T08:37:54Z</time>
      </trkpt>
      <trkpt lat="49.14303" lon="6.12382">
        <ele>283.7</ele>
        <time>2011-11-06T08:37:55Z</time>
      </trkpt>
      <trkpt lat="49.14308" lon="6.1239">
        <ele>283.6</ele>
        <time>2011-11-06T08:37:56Z</time>
      </trkpt>
      <trkpt lat="49.1431" lon="6.12398">
        <ele>283.5</ele>
        <time>2011-11-06T08:37:57Z</time>
      </trkpt>
      <trkpt lat="49.14313" lon="6.12408">
        <ele>283.4</ele>
        <time>2011-11-06T08:37:58Z</time>
      </trkpt>
      <trkpt lat="49.14316" lon="6.12416">
        <ele>283.5</ele>
        <time>2011-11-06T08:37:59Z</time>
      </trkpt>
      <trkpt lat="49.1432" lon="6.12425">
        <ele>283.5</ele>
        <time>2011-11-06T08:38:00Z</time>
      </trkpt>
      <trkpt lat="49.14325" lon="6.12438">
        <ele>282.5</ele>
        <time>2011-11-06T08:38:01Z</time>
      </trkpt>
      <trkpt lat="49.14326" lon="6.12448">
        <ele>282.2</ele>
        <time>2011-11-06T08:38:02Z</time>
      </trkpt>
      <trkpt lat="49.1433" lon="6.12457">
        <ele>282.3</ele>
        <time>2011-11-06T08:38:03Z</time>
      </trkpt>
      <trkpt lat="49.14337" lon="6.12468">
        <ele>281.2</ele>
        <time>2011-11-06T08:38:04Z</time>
      </trkpt>
      <trkpt lat="49.14341" lon="6.12477">
        <ele>281.8</ele>
        <time>2011-11-06T08:38:05Z</time>
      </trkpt>
      <trkpt lat="49.14345" lon="6.12484">
        <ele>281.6</ele>
        <time>2011-11-06T08:38:06Z</time>
      </trkpt>
      <trkpt lat="49.14349" lon="6.12492">
        <ele>281.6</ele>
        <time>2011-11-06T08:38:07Z</time>
      </trkpt>
      <trkpt lat="49.14357" lon="6.12508">
        <ele>282.2</ele>
        <time>2011-11-06T08:38:08Z</time>
      </trkpt>
      <trkpt lat="49.14361" lon="6.12517">
        <ele>282.4</ele>
        <time>2011-11-06T08:38:09Z</time>
      </trkpt>
      <trkpt lat="49.14367" lon="6.12527">
        <ele>282.4</ele>
        <time>2011-11-06T08:38:10Z</time>
      </trkpt>
      <trkpt lat="49.14371" lon="6.12535">
        <ele>282.4</ele>
        <time>2011-11-06T08:38:11Z</time>
      </trkpt>
      <trkpt lat="49.14376" lon="6.12544">
        <ele>282.4</ele>
        <time>2011-11-06T08:38:12Z</time>
      </trkpt>
      <trkpt lat="49.14381" lon="6.12556">
        <ele>282.4</ele>
        <time>2011-11-06T08:38:13Z</time>
      </trkpt>
      <trkpt lat="49.14387" lon="6.12566">
        <ele>282.4</ele>
        <time>2011-11-06T08:38:14Z</time>
      </trkpt>
      <trkpt lat="49.14394" lon="6.12577">
        <ele>281.4</ele>
        <time>2011-11-06T08:38:15Z</time>
      </trkpt>
      <trkpt lat="49.144" lon="6.12587">
        <ele>279.2</ele>
        <time>2011-11-06T08:38:16Z</time>
      </trkpt>
      <trkpt lat="49.14402" lon="6.12594">
        <ele>280.8</ele>
        <time>2011-11-06T08:38:17Z</time>
      </trkpt>
      <trkpt lat="49.14408" lon="6.126">
        <ele>283.4</ele>
        <time>2011-11-06T08:38:18Z</time>
      </trkpt>
      <trkpt lat="49.14415" lon="6.12608">
        <ele>280.9</ele>
        <time>2011-11-06T08:38:19Z</time>
      </trkpt>
      <trkpt lat="49.14422" lon="6.12618">
        <ele>278.9</ele>
        <time>2011-11-06T08:38:20Z</time>
      </trkpt>
      <trkpt lat="49.14425" lon="6.12628">
        <ele>278.3</ele>
        <time>2011-11-06T08:38:21Z</time>
      </trkpt>
      <trkpt lat="49.14429" lon="6.12635">
        <ele>277.7</ele>
        <time>2011-11-06T08:38:22Z</time>
      </trkpt>
      <trkpt lat="49.14434" lon="6.12644">
        <ele>277.5</ele>
        <time>2011-11-06T08:38:23Z</time>
      </trkpt>
      <trkpt lat="49.14439" lon="6.12654">
        <ele>276.8</ele>
        <time>2011-11-06T08:38:24Z</time>
      </trkpt>
      <trkpt lat="49.14444" lon="6.12664">
        <ele>277.3</ele>
        <time>2011-11-06T08:38:25Z</time>
      </trkpt>
      <trkpt lat="49.14452" lon="6.12672">
        <ele>275</ele>
        <time>2011-11-06T08:38:26Z</time>
      </trkpt>
      <trkpt lat="49.14457" lon="6.1268">
        <ele>274.3</ele>
        <time>2011-11-06T08:38:27Z</time>
      </trkpt>
      <trkpt lat="49.14459" lon="6.12685">
        <ele>276</ele>
        <time>2011-11-06T08:38:28Z</time>
      </trkpt>
      <trkpt lat="49.14463" lon="6.12692">
        <ele>275</ele>
        <time>2011-11-06T08:38:29Z</time>
      </trkpt>
      <trkpt lat="49.14466" lon="6.12698">
        <ele>274.9</ele>
        <time>2011-11-06T08:38:30Z</time>
      </trkpt>
      <trkpt lat="49.14468" lon="6.12705">
        <ele>274.9</ele>
        <time>2011-11-06T08:38:31Z</time>
      </trkpt>
      <trkpt lat="49.14472" lon="6.1271">
        <ele>275.1</ele>
        <time>2011-11-06T08:38:32Z</time>
      </trkpt>
      <trkpt lat="49.14475" lon="6.12716">
        <ele>275.1</ele>
        <time>2011-11-06T08:38:33Z</time>
      </trkpt>
      <trkpt lat="49.14473" lon="6.12722">
        <ele>270.2</ele>
        <time>2011-11-06T08:38:37Z</time>
      </trkpt>
      <trkpt lat="49.14479" lon="6.12727">
        <ele>267.8</ele>
        <time>2011-11-06T08:38:46Z</time>
      </trkpt>
      <trkpt lat="49.14484" lon="6.12728">
        <ele>266.9</ele>
        <time>2011-11-06T08:38:47Z</time>
      </trkpt>
      <trkpt lat="49.14495" lon="6.12719">
        <ele>266.4</ele>
        <time>2011-11-06T08:38:49Z</time>
      </trkpt>
      <trkpt lat="49.14502" lon="6.12713">
        <ele>264.8</ele>
        <time>2011-11-06T08:38:51Z</time>
      </trkpt>
      <trkpt lat="49.14507" lon="6.12712">
        <ele>264.5</ele>
        <time>2011-11-06T08:38:52Z</time>
      </trkpt>
      <trkpt lat="49.14513" lon="6.12708">
        <ele>264.1</ele>
        <time>2011-11-06T08:38:53Z</time>
      </trkpt>
      <trkpt lat="49.14521" lon="6.12696">
        <ele>263.7</ele>
        <time>2011-11-06T08:38:54Z</time>
      </trkpt>
      <trkpt lat="49.14527" lon="6.1269">
        <ele>263.5</ele>
        <time>2011-11-06T08:38:55Z</time>
      </trkpt>
      <trkpt lat="49.14533" lon="6.12683">
        <ele>263.2</ele>
        <time>2011-11-06T08:38:56Z</time>
      </trkpt>
      <trkpt lat="49.14539" lon="6.12676">
        <ele>263.5</ele>
        <time>2011-11-06T08:38:57Z</time>
      </trkpt>
      <trkpt lat="49.14546" lon="6.12668">
        <ele>263.2</ele>
        <time>2011-11-06T08:38:58Z</time>
      </trkpt>
      <trkpt lat="49.14553" lon="6.1266">
        <ele>263.6</ele>
        <time>2011-11-06T08:38:59Z</time>
      </trkpt>
      <trkpt lat="49.14561" lon="6.12655">
        <ele>263.4</ele>
        <time>2011-11-06T08:39:00Z</time>
      </trkpt>
      <trkpt lat="49.14567" lon="6.12648">
        <ele>263.4</ele>
        <time>2011-11-06T08:39:01Z</time>
      </trkpt>
      <trkpt lat="49.14574" lon="6.12642">
        <ele>263.1</ele>
        <time>2011-11-06T08:39:02Z</time>
      </trkpt>
      <trkpt lat="49.14582" lon="6.12632">
        <ele>263.5</ele>
        <time>2011-11-06T08:39:03Z</time>
      </trkpt>
      <trkpt lat="49.1459" lon="6.12622">
        <ele>263.5</ele>
        <time>2011-11-06T08:39:04Z</time>
      </trkpt>
      <trkpt lat="49.14598" lon="6.12615">
        <ele>263.6</ele>
        <time>2011-11-06T08:39:05Z</time>
      </trkpt>
      <trkpt lat="49.14606" lon="6.12608">
        <ele>263.5</ele>
        <time>2011-11-06T08:39:06Z</time>
      </trkpt>
      <trkpt lat="49.1461" lon="6.12599">
        <ele>263</ele>
        <time>2011-11-06T08:39:07Z</time>
      </trkpt>
      <trkpt lat="49.1462" lon="6.12593">
        <ele>263.1</ele>
        <time>2011-11-06T08:39:08Z</time>
      </trkpt>
      <trkpt lat="49.14627" lon="6.12588">
        <ele>263.2</ele>
        <time>2011-11-06T08:39:09Z</time>
      </trkpt>
      <trkpt lat="49.14637" lon="6.12584">
        <ele>263.1</ele>
        <time>2011-11-06T08:39:10Z</time>
      </trkpt>
      <trkpt lat="49.14646" lon="6.12582">
        <ele>263.3</ele>
        <time>2011-11-06T08:39:11Z</time>
      </trkpt>
      <trkpt lat="49.14654" lon="6.12576">
        <ele>263.8</ele>
        <time>2011-11-06T08:39:12Z</time>
      </trkpt>
      <trkpt lat="49.14666" lon="6.12572">
        <ele>263.8</ele>
        <time>2011-11-06T08:39:13Z</time>
      </trkpt>
      <trkpt lat="49.14675" lon="6.12568">
        <ele>263.8</ele>
        <time>2011-11-06T08:39:14Z</time>
      </trkpt>
      <trkpt lat="49.14686" lon="6.12566">
        <ele>264</ele>
        <time>2011-11-06T08:39:15Z</time>
      </trkpt>
      <trkpt lat="49.14695" lon="6.12565">
        <ele>264</ele>
        <time>2011-11-06T08:39:16Z</time>
      </trkpt>
      <trkpt lat="49.14702" lon="6.12561">
        <ele>264.4</ele>
        <time>2011-11-06T08:39:17Z</time>
      </trkpt>
      <trkpt lat="49.14714" lon="6.12557">
        <ele>263.5</ele>
        <time>2011-11-06T08:39:18Z</time>
      </trkpt>
      <trkpt lat="49.14723" lon="6.12554">
        <ele>264.2</ele>
        <time>2011-11-06T08:39:19Z</time>
      </trkpt>
      <trkpt lat="49.14733" lon="6.12548">
        <ele>264</ele>
        <time>2011-11-06T08:39:20Z</time>
      </trkpt>
      <trkpt lat="49.1474" lon="6.12539">
        <ele>263.1</ele>
        <time>2011-11-06T08:39:21Z</time>
      </trkpt>
      <trkpt lat="49.14749" lon="6.12532">
        <ele>263.1</ele>
        <time>2011-11-06T08:39:22Z</time>
      </trkpt>
      <trkpt lat="49.14759" lon="6.12524">
        <ele>257.7</ele>
        <time>2011-11-06T08:39:23Z</time>
      </trkpt>
      <trkpt lat="49.14767" lon="6.12516">
        <ele>257.4</ele>
        <time>2011-11-06T08:39:24Z</time>
      </trkpt>
      <trkpt lat="49.14776" lon="6.12507">
        <ele>256</ele>
        <time>2011-11-06T08:39:25Z</time>
      </trkpt>
      <trkpt lat="49.14784" lon="6.12497">
        <ele>255.1</ele>
        <time>2011-11-06T08:39:26Z</time>
      </trkpt>
      <trkpt lat="49.14791" lon="6.12486">
        <ele>255</ele>
        <time>2011-11-06T08:39:27Z</time>
      </trkpt>
      <trkpt lat="49.14799" lon="6.12476">
        <ele>255</ele>
        <time>2011-11-06T08:39:28Z</time>
      </trkpt>
      <trkpt lat="49.14806" lon="6.12465">
        <ele>255.1</ele>
        <time>2011-11-06T08:39:29Z</time>
      </trkpt>
      <trkpt lat="49.14812" lon="6.12449">
        <ele>254.7</ele>
        <time>2011-11-06T08:39:30Z</time>
      </trkpt>
      <trkpt lat="49.14819" lon="6.12435">
        <ele>254.9</ele>
        <time>2011-11-06T08:39:31Z</time>
      </trkpt>
      <trkpt lat="49.14828" lon="6.1242">
        <ele>254.9</ele>
        <time>2011-11-06T08:39:32Z</time>
      </trkpt>
      <trkpt lat="49.14838" lon="6.12407">
        <ele>255.2</ele>
        <time>2011-11-06T08:39:33Z</time>
      </trkpt>
      <trkpt lat="49.14853" lon="6.12397">
        <ele>252.2</ele>
        <time>2011-11-06T08:39:34Z</time>
      </trkpt>
      <trkpt lat="49.14863" lon="6.12393">
        <ele>250.6</ele>
        <time>2011-11-06T08:39:35Z</time>
      </trkpt>
      <trkpt lat="49.14874" lon="6.12388">
        <ele>249.9</ele>
        <time>2011-11-06T08:39:36Z</time>
      </trkpt>
      <trkpt lat="49.14883" lon="6.12378">
        <ele>249.7</ele>
        <time>2011-11-06T08:39:37Z</time>
      </trkpt>
      <trkpt lat="49.14892" lon="6.12372">
        <ele>249.9</ele>
        <time>2011-11-06T08:39:38Z</time>
      </trkpt>
      <trkpt lat="49.14898" lon="6.1237">
        <ele>249.1</ele>
        <time>2011-11-06T08:39:39Z</time>
      </trkpt>
      <trkpt lat="49.14908" lon="6.12366">
        <ele>248.7</ele>
        <time>2011-11-06T08:39:40Z</time>
      </trkpt>
      <trkpt lat="49.14914" lon="6.12367">
        <ele>248.6</ele>
        <time>2011-11-06T08:39:41Z</time>
      </trkpt>
      <trkpt lat="49.14923" lon="6.12364">
        <ele>249.5</ele>
        <time>2011-11-06T08:39:42Z</time>
      </trkpt>
      <trkpt lat="49.1493" lon="6.12362">
        <ele>249.9</ele>
        <time>2011-11-06T08:39:43Z</time>
      </trkpt>
      <trkpt lat="49.14937" lon="6.12361">
        <ele>248.6</ele>
        <time>2011-11-06T08:39:44Z</time>
      </trkpt>
      <trkpt lat="49.14945" lon="6.12359">
        <ele>247</ele>
        <time>2011-11-06T08:39:45Z</time>
      </trkpt>
      <trkpt lat="49.14952" lon="6.12359">
        <ele>247.3</ele>
        <time>2011-11-06T08:39:46Z</time>
      </trkpt>
      <trkpt lat="49.14959" lon="6.12357">
        <ele>247</ele>
        <time>2011-11-06T08:39:47Z</time>
      </trkpt>
      <trkpt lat="49.14966" lon="6.12356">
        <ele>247.4</ele>
        <time>2011-11-06T08:39:48Z</time>
      </trkpt>
      <trkpt lat="49.14973" lon="6.12355">
        <ele>247.8</ele>
        <time>2011-11-06T08:39:49Z</time>
      </trkpt>
      <trkpt lat="49.1498" lon="6.12354">
        <ele>247.8</ele>
        <time>2011-11-06T08:39:50Z</time>
      </trkpt>
      <trkpt lat="49.14987" lon="6.12352">
        <ele>247.7</ele>
        <time>2011-11-06T08:39:51Z</time>
      </trkpt>
      <trkpt lat="49.14993" lon="6.1235">
        <ele>247.6</ele>
        <time>2011-11-06T08:39:52Z</time>
      </trkpt>
      <trkpt lat="49.14999" lon="6.1235">
        <ele>247.5</ele>
        <time>2011-11-06T08:39:53Z</time>
      </trkpt>
      <trkpt lat="49.15005" lon="6.12349">
        <ele>247.5</ele>
        <time>2011-11-06T08:39:54Z</time>
      </trkpt>
      <trkpt lat="49.15011" lon="6.12349">
        <ele>247.6</ele>
        <time>2011-11-06T08:39:55Z</time>
      </trkpt>
      <trkpt lat="49.15018" lon="6.1235">
        <ele>247.7</ele>
        <time>2011-11-06T08:39:56Z</time>
      </trkpt>
      <trkpt lat="49.15026" lon="6.12351">
        <ele>247.3</ele>
        <time>2011-11-06T08:39:58Z</time>
      </trkpt>
      <trkpt lat="49.15031" lon="6.12349">
        <ele>247.8</ele>
        <time>2011-11-06T08:39:59Z</time>
      </trkpt>
      <trkpt lat="49.15037" lon="6.12347">
        <ele>248.2</ele>
        <time>2011-11-06T08:40:00Z</time>
      </trkpt>
      <trkpt lat="49.15042" lon="6.12344">
        <ele>247.9</ele>
        <time>2011-11-06T08:40:01Z</time>
      </trkpt>
      <trkpt lat="49.15048" lon="6.12343">
        <ele>248</ele>
        <time>2011-11-06T08:40:02Z</time>
      </trkpt>
      <trkpt lat="49.15055" lon="6.12341">
        <ele>248</ele>
        <time>2011-11-06T08:40:03Z</time>
      </trkpt>
      <trkpt lat="49.1506" lon="6.12339">
        <ele>248.5</ele>
        <time>2011-11-06T08:40:04Z</time>
      </trkpt>
      <trkpt lat="49.15066" lon="6.12338">
        <ele>249.1</ele>
        <time>2011-11-06T08:40:05Z</time>
      </trkpt>
      <trkpt lat="49.15073" lon="6.12333">
        <ele>248.5</ele>
        <time>2011-11-06T08:40:06Z</time>
      </trkpt>
      <trkpt lat="49.15081" lon="6.12329">
        <ele>248.2</ele>
        <time>2011-11-06T08:40:07Z</time>
      </trkpt>
      <trkpt lat="49.15092" lon="6.12326">
        <ele>245.9</ele>
        <time>2011-11-06T08:40:08Z</time>
      </trkpt>
      <trkpt lat="49.15098" lon="6.12322">
        <ele>246.1</ele>
        <time>2011-11-06T08:40:09Z</time>
      </trkpt>
      <trkpt lat="49.15107" lon="6.12316">
        <ele>245.1</ele>
        <time>2011-11-06T08:40:10Z</time>
      </trkpt>
      <trkpt lat="49.15114" lon="6.1231">
        <ele>244.8</ele>
        <time>2011-11-06T08:40:11Z</time>
      </trkpt>
      <trkpt lat="49.1512" lon="6.12302">
        <ele>245.5</ele>
        <time>2011-11-06T08:40:12Z</time>
      </trkpt>
      <trkpt lat="49.15128" lon="6.12297">
        <ele>244.7</ele>
        <time>2011-11-06T08:40:13Z</time>
      </trkpt>
      <trkpt lat="49.15135" lon="6.12292">
        <ele>244.7</ele>
        <time>2011-11-06T08:40:14Z</time>
      </trkpt>
      <trkpt lat="49.15141" lon="6.1229">
        <ele>243.7</ele>
        <time>2011-11-06T08:40:15Z</time>
      </trkpt>
      <trkpt lat="49.15149" lon="6.12286">
        <ele>243.7</ele>
        <time>2011-11-06T08:40:16Z</time>
      </trkpt>
      <trkpt lat="49.15155" lon="6.12279">
        <ele>242.8</ele>
        <time>2011-11-06T08:40:17Z</time>
      </trkpt>
      <trkpt lat="49.15162" lon="6.12274">
        <ele>242.8</ele>
        <time>2011-11-06T08:40:18Z</time>
      </trkpt>
      <trkpt lat="49.1517" lon="6.12265">
        <ele>242.4</ele>
        <time>2011-11-06T08:40:19Z</time>
      </trkpt>
      <trkpt lat="49.15182" lon="6.12253">
        <ele>241.7</ele>
        <time>2011-11-06T08:40:20Z</time>
      </trkpt>
      <trkpt lat="49.1519" lon="6.12245">
        <ele>241.4</ele>
        <time>2011-11-06T08:40:21Z</time>
      </trkpt>
      <trkpt lat="49.15199" lon="6.12234">
        <ele>240.4</ele>
        <time>2011-11-06T08:40:22Z</time>
      </trkpt>
      <trkpt lat="49.15209" lon="6.12227">
        <ele>240.9</ele>
        <time>2011-11-06T08:40:23Z</time>
      </trkpt>
      <trkpt lat="49.15218" lon="6.12217">
        <ele>240</ele>
        <time>2011-11-06T08:40:24Z</time>
      </trkpt>
      <trkpt lat="49.15231" lon="6.12208">
        <ele>238.6</ele>
        <time>2011-11-06T08:40:25Z</time>
      </trkpt>
      <trkpt lat="49.15241" lon="6.12202">
        <ele>238.4</ele>
        <time>2011-11-06T08:40:26Z</time>
      </trkpt>
      <trkpt lat="49.15249" lon="6.12197">
        <ele>238.7</ele>
        <time>2011-11-06T08:40:27Z</time>
      </trkpt>
      <trkpt lat="49.15259" lon="6.12188">
        <ele>237.5</ele>
        <time>2011-11-06T08:40:28Z</time>
      </trkpt>
      <trkpt lat="49.15266" lon="6.12182">
        <ele>236.9</ele>
        <time>2011-11-06T08:40:29Z</time>
      </trkpt>
      <trkpt lat="49.15274" lon="6.12176">
        <ele>236.3</ele>
        <time>2011-11-06T08:40:30Z</time>
      </trkpt>
      <trkpt lat="49.15283" lon="6.12168">
        <ele>236.3</ele>
        <time>2011-11-06T08:40:31Z</time>
      </trkpt>
      <trkpt lat="49.15292" lon="6.12159">
        <ele>236.2</ele>
        <time>2011-11-06T08:40:32Z</time>
      </trkpt>
      <trkpt lat="49.15301" lon="6.1215">
        <ele>235.8</ele>
        <time>2011-11-06T08:40:33Z</time>
      </trkpt>
      <trkpt lat="49.15308" lon="6.12144">
        <ele>236.1</ele>
        <time>2011-11-06T08:40:34Z</time>
      </trkpt>
      <trkpt lat="49.15316" lon="6.12138">
        <ele>236.7</ele>
        <time>2011-11-06T08:40:35Z</time>
      </trkpt>
      <trkpt lat="49.15324" lon="6.1213">
        <ele>236.7</ele>
        <time>2011-11-06T08:40:36Z</time>
      </trkpt>
      <trkpt lat="49.1533" lon="6.12123">
        <ele>236.5</ele>
        <time>2011-11-06T08:40:37Z</time>
      </trkpt>
      <trkpt lat="49.15335" lon="6.12115">
        <ele>235.9</ele>
        <time>2011-11-06T08:40:38Z</time>
      </trkpt>
      <trkpt lat="49.15341" lon="6.12108">
        <ele>235</ele>
        <time>2011-11-06T08:40:39Z</time>
      </trkpt>
      <trkpt lat="49.15347" lon="6.12101">
        <ele>235.5</ele>
        <time>2011-11-06T08:40:40Z</time>
      </trkpt>
      <trkpt lat="49.15353" lon="6.12093">
        <ele>235.6</ele>
        <time>2011-11-06T08:40:41Z</time>
      </trkpt>
      <trkpt lat="49.15359" lon="6.12083">
        <ele>235.3</ele>
        <time>2011-11-06T08:40:41Z</time>
      </trkpt>
      <trkpt lat="49.15364" lon="6.12079">
        <ele>236.4</ele>
        <time>2011-11-06T08:40:43Z</time>
      </trkpt>
      <trkpt lat="49.1537" lon="6.12079">
        <ele>235</ele>
        <time>2011-11-06T08:40:46Z</time>
      </trkpt>
      <trkpt lat="49.15372" lon="6.12088">
        <ele>234.8</ele>
        <time>2011-11-06T08:40:48Z</time>
      </trkpt>
      <trkpt lat="49.15375" lon="6.12095">
        <ele>234</ele>
        <time>2011-11-06T08:40:49Z</time>
      </trkpt>
      <trkpt lat="49.15373" lon="6.12115">
        <ele>234</ele>
        <time>2011-11-06T08:40:51Z</time>
      </trkpt>
      <trkpt lat="49.15371" lon="6.12132">
        <ele>233.6</ele>
        <time>2011-11-06T08:40:52Z</time>
      </trkpt>
      <trkpt lat="49.1537" lon="6.12142">
        <ele>233.7</ele>
        <time>2011-11-06T08:40:53Z</time>
      </trkpt>
      <trkpt lat="49.15367" lon="6.12151">
        <ele>233.8</ele>
        <time>2011-11-06T08:40:54Z</time>
      </trkpt>
      <trkpt lat="49.15364" lon="6.12164">
        <ele>234.3</ele>
        <time>2011-11-06T08:40:55Z</time>
      </trkpt>
      <trkpt lat="49.15361" lon="6.12176">
        <ele>234.5</ele>
        <time>2011-11-06T08:40:56Z</time>
      </trkpt>
      <trkpt lat="49.15358" lon="6.12194">
        <ele>234.3</ele>
        <time>2011-11-06T08:40:58Z</time>
      </trkpt>
      <trkpt lat="49.15354" lon="6.12204">
        <ele>234.1</ele>
        <time>2011-11-06T08:40:58Z</time>
      </trkpt>
      <trkpt lat="49.15354" lon="6.12217">
        <ele>234</ele>
        <time>2011-11-06T08:40:59Z</time>
      </trkpt>
      <trkpt lat="49.15352" lon="6.12228">
        <ele>234</ele>
        <time>2011-11-06T08:41:00Z</time>
      </trkpt>
      <trkpt lat="49.1535" lon="6.12241">
        <ele>233.9</ele>
        <time>2011-11-06T08:41:01Z</time>
      </trkpt>
      <trkpt lat="49.15347" lon="6.12253">
        <ele>233.9</ele>
        <time>2011-11-06T08:41:02Z</time>
      </trkpt>
      <trkpt lat="49.15344" lon="6.12264">
        <ele>233.8</ele>
        <time>2011-11-06T08:41:03Z</time>
      </trkpt>
      <trkpt lat="49.15342" lon="6.12276">
        <ele>233.8</ele>
        <time>2011-11-06T08:41:05Z</time>
      </trkpt>
      <trkpt lat="49.15339" lon="6.12287">
        <ele>233.8</ele>
        <time>2011-11-06T08:41:05Z</time>
      </trkpt>
      <trkpt lat="49.15337" lon="6.12299">
        <ele>233.8</ele>
        <time>2011-11-06T08:41:06Z</time>
      </trkpt>
      <trkpt lat="49.15335" lon="6.1231">
        <ele>233.8</ele>
        <time>2011-11-06T08:41:07Z</time>
      </trkpt>
      <trkpt lat="49.15334" lon="6.1232">
        <ele>233.8</ele>
        <time>2011-11-06T08:41:08Z</time>
      </trkpt>
      <trkpt lat="49.15332" lon="6.12333">
        <ele>233.8</ele>
        <time>2011-11-06T08:41:09Z</time>
      </trkpt>
      <trkpt lat="49.15329" lon="6.12345">
        <ele>233.7</ele>
        <time>2011-11-06T08:41:10Z</time>
      </trkpt>
      <trkpt lat="49.15325" lon="6.12367">
        <ele>233.5</ele>
        <time>2011-11-06T08:41:11Z</time>
      </trkpt>
      <trkpt lat="49.15319" lon="6.12383">
        <ele>233.4</ele>
        <time>2011-11-06T08:41:12Z</time>
      </trkpt>
      <trkpt lat="49.15315" lon="6.12392">
        <ele>233.5</ele>
        <time>2011-11-06T08:41:13Z</time>
      </trkpt>
      <trkpt lat="49.1532" lon="6.12408">
        <ele>233.5</ele>
        <time>2011-11-06T08:41:14Z</time>
      </trkpt>
      <trkpt lat="49.15318" lon="6.12421">
        <ele>233.5</ele>
        <time>2011-11-06T08:41:15Z</time>
      </trkpt>
      <trkpt lat="49.15317" lon="6.1244">
        <ele>233.4</ele>
        <time>2011-11-06T08:41:16Z</time>
      </trkpt>
      <trkpt lat="49.15316" lon="6.12454">
        <ele>233.4</ele>
        <time>2011-11-06T08:41:17Z</time>
      </trkpt>
      <trkpt lat="49.15318" lon="6.12464">
        <ele>233.4</ele>
        <time>2011-11-06T08:41:18Z</time>
      </trkpt>
      <trkpt lat="49.15323" lon="6.12472">
        <ele>233.5</ele>
        <time>2011-11-06T08:41:19Z</time>
      </trkpt>
      <trkpt lat="49.1532" lon="6.12488">
        <ele>233.5</ele>
        <time>2011-11-06T08:41:20Z</time>
      </trkpt>
      <trkpt lat="49.15318" lon="6.12503">
        <ele>233.5</ele>
        <time>2011-11-06T08:41:21Z</time>
      </trkpt>
      <trkpt lat="49.1532" lon="6.12515">
        <ele>233.5</ele>
        <time>2011-11-06T08:41:22Z</time>
      </trkpt>
      <trkpt lat="49.15321" lon="6.12528">
        <ele>233.5</ele>
        <time>2011-11-06T08:41:23Z</time>
      </trkpt>
      <trkpt lat="49.15319" lon="6.12545">
        <ele>233.4</ele>
        <time>2011-11-06T08:41:24Z</time>
      </trkpt>
      <trkpt lat="49.15315" lon="6.12564">
        <ele>233.4</ele>
        <time>2011-11-06T08:41:25Z</time>
      </trkpt>
      <trkpt lat="49.15315" lon="6.12577">
        <ele>233.4</ele>
        <time>2011-11-06T08:41:26Z</time>
      </trkpt>
      <trkpt lat="49.15314" lon="6.1259">
        <ele>233.4</ele>
        <time>2011-11-06T08:41:27Z</time>
      </trkpt>
      <trkpt lat="49.15315" lon="6.12601">
        <ele>233.4</ele>
        <time>2011-11-06T08:41:28Z</time>
      </trkpt>
      <trkpt lat="49.15315" lon="6.12614">
        <ele>233.4</ele>
        <time>2011-11-06T08:41:29Z</time>
      </trkpt>
      <trkpt lat="49.15314" lon="6.12629">
        <ele>233.4</ele>
        <time>2011-11-06T08:41:30Z</time>
      </trkpt>
      <trkpt lat="49.15316" lon="6.1264">
        <ele>233.4</ele>
        <time>2011-11-06T08:41:31Z</time>
      </trkpt>
      <trkpt lat="49.15319" lon="6.12652">
        <ele>233.4</ele>
        <time>2011-11-06T08:41:32Z</time>
      </trkpt>
      <trkpt lat="49.15315" lon="6.12668">
        <ele>233.4</ele>
        <time>2011-11-06T08:41:33Z</time>
      </trkpt>
      <trkpt lat="49.15322" lon="6.12676">
        <ele>233.4</ele>
        <time>2011-11-06T08:41:34Z</time>
      </trkpt>
      <trkpt lat="49.15321" lon="6.12692">
        <ele>233.4</ele>
        <time>2011-11-06T08:41:35Z</time>
      </trkpt>
      <trkpt lat="49.15318" lon="6.12708">
        <ele>233.4</ele>
        <time>2011-11-06T08:41:36Z</time>
      </trkpt>
      <trkpt lat="49.15319" lon="6.12722">
        <ele>233.4</ele>
        <time>2011-11-06T08:41:37Z</time>
      </trkpt>
      <trkpt lat="49.15324" lon="6.12732">
        <ele>233.4</ele>
        <time>2011-11-06T08:41:38Z</time>
      </trkpt>
      <trkpt lat="49.15326" lon="6.12745">
        <ele>233.4</ele>
        <time>2011-11-06T08:41:39Z</time>
      </trkpt>
      <trkpt lat="49.15325" lon="6.1276">
        <ele>233.4</ele>
        <time>2011-11-06T08:41:40Z</time>
      </trkpt>
      <trkpt lat="49.15324" lon="6.1277">
        <ele>233.4</ele>
        <time>2011-11-06T08:41:41Z</time>
      </trkpt>
      <trkpt lat="49.15324" lon="6.12783">
        <ele>233.4</ele>
        <time>2011-11-06T08:41:42Z</time>
      </trkpt>
      <trkpt lat="49.15322" lon="6.12799">
        <ele>233.4</ele>
        <time>2011-11-06T08:41:43Z</time>
      </trkpt>
      <trkpt lat="49.15323" lon="6.12807">
        <ele>233.5</ele>
        <time>2011-11-06T08:41:44Z</time>
      </trkpt>
      <trkpt lat="49.15318" lon="6.12825">
        <ele>233.4</ele>
        <time>2011-11-06T08:41:45Z</time>
      </trkpt>
      <trkpt lat="49.15316" lon="6.12843">
        <ele>233.4</ele>
        <time>2011-11-06T08:41:46Z</time>
      </trkpt>
      <trkpt lat="49.15315" lon="6.12856">
        <ele>233.4</ele>
        <time>2011-11-06T08:41:47Z</time>
      </trkpt>
      <trkpt lat="49.15316" lon="6.12867">
        <ele>233.4</ele>
        <time>2011-11-06T08:41:48Z</time>
      </trkpt>
      <trkpt lat="49.15316" lon="6.12879">
        <ele>233.4</ele>
        <time>2011-11-06T08:41:49Z</time>
      </trkpt>
      <trkpt lat="49.15319" lon="6.12887">
        <ele>233.5</ele>
        <time>2011-11-06T08:41:50Z</time>
      </trkpt>
      <trkpt lat="49.15319" lon="6.12898">
        <ele>233.4</ele>
        <time>2011-11-06T08:41:51Z</time>
      </trkpt>
      <trkpt lat="49.15319" lon="6.1291">
        <ele>233.5</ele>
        <time>2011-11-06T08:41:52Z</time>
      </trkpt>
      <trkpt lat="49.15318" lon="6.12922">
        <ele>233.4</ele>
        <time>2011-11-06T08:41:53Z</time>
      </trkpt>
      <trkpt lat="49.15314" lon="6.12937">
        <ele>233.4</ele>
        <time>2011-11-06T08:41:54Z</time>
      </trkpt>
      <trkpt lat="49.15321" lon="6.12981">
        <ele>230.8</ele>
        <time>2011-11-06T08:41:58Z</time>
      </trkpt>
      <trkpt lat="49.1532" lon="6.1299">
        <ele>230.9</ele>
        <time>2011-11-06T08:41:59Z</time>
      </trkpt>
      <trkpt lat="49.1532" lon="6.13007">
        <ele>230</ele>
        <time>2011-11-06T08:42:00Z</time>
      </trkpt>
      <trkpt lat="49.15316" lon="6.13019">
        <ele>228.1</ele>
        <time>2011-11-06T08:42:01Z</time>
      </trkpt>
      <trkpt lat="49.15315" lon="6.13032">
        <ele>228</ele>
        <time>2011-11-06T08:42:02Z</time>
      </trkpt>
      <trkpt lat="49.15315" lon="6.13048">
        <ele>227.4</ele>
        <time>2011-11-06T08:42:03Z</time>
      </trkpt>
      <trkpt lat="49.15315" lon="6.13069">
        <ele>226.3</ele>
        <time>2011-11-06T08:42:04Z</time>
      </trkpt>
      <trkpt lat="49.15316" lon="6.13084">
        <ele>227.8</ele>
        <time>2011-11-06T08:42:05Z</time>
      </trkpt>
      <trkpt lat="49.15316" lon="6.13094">
        <ele>228.2</ele>
        <time>2011-11-06T08:42:06Z</time>
      </trkpt>
      <trkpt lat="49.15314" lon="6.13105">
        <ele>226.8</ele>
        <time>2011-11-06T08:42:07Z</time>
      </trkpt>
      <trkpt lat="49.15313" lon="6.1312">
        <ele>226.6</ele>
        <time>2011-11-06T08:42:08Z</time>
      </trkpt>
      <trkpt lat="49.15313" lon="6.13134">
        <ele>226.6</ele>
        <time>2011-11-06T08:42:09Z</time>
      </trkpt>
      <trkpt lat="49.15312" lon="6.13148">
        <ele>226.4</ele>
        <time>2011-11-06T08:42:10Z</time>
      </trkpt>
      <trkpt lat="49.15314" lon="6.13165">
        <ele>226.6</ele>
        <time>2011-11-06T08:42:11Z</time>
      </trkpt>
      <trkpt lat="49.15315" lon="6.13178">
        <ele>226.6</ele>
        <time>2011-11-06T08:42:12Z</time>
      </trkpt>
      <trkpt lat="49.15316" lon="6.13187">
        <ele>227.4</ele>
        <time>2011-11-06T08:42:13Z</time>
      </trkpt>
      <trkpt lat="49.15315" lon="6.13202">
        <ele>226.3</ele>
        <time>2011-11-06T08:42:14Z</time>
      </trkpt>
      <trkpt lat="49.15314" lon="6.13215">
        <ele>226.3</ele>
        <time>2011-11-06T08:42:15Z</time>
      </trkpt>
      <trkpt lat="49.15313" lon="6.13229">
        <ele>226</ele>
        <time>2011-11-06T08:42:16Z</time>
      </trkpt>
      <trkpt lat="49.15309" lon="6.13243">
        <ele>225.1</ele>
        <time>2011-11-06T08:42:17Z</time>
      </trkpt>
      <trkpt lat="49.15308" lon="6.13252">
        <ele>225.1</ele>
        <time>2011-11-06T08:42:18Z</time>
      </trkpt>
      <trkpt lat="49.15306" lon="6.13265">
        <ele>224.5</ele>
        <time>2011-11-06T08:42:19Z</time>
      </trkpt>
      <trkpt lat="49.15306" lon="6.13275">
        <ele>224.5</ele>
        <time>2011-11-06T08:42:20Z</time>
      </trkpt>
      <trkpt lat="49.15305" lon="6.13282">
        <ele>224.1</ele>
        <time>2011-11-06T08:42:21Z</time>
      </trkpt>
      <trkpt lat="49.15302" lon="6.1329">
        <ele>224</ele>
        <time>2011-11-06T08:42:22Z</time>
      </trkpt>
      <trkpt lat="49.153" lon="6.133">
        <ele>224.1</ele>
        <time>2011-11-06T08:42:23Z</time>
      </trkpt>
      <trkpt lat="49.15299" lon="6.13313">
        <ele>224.2</ele>
        <time>2011-11-06T08:42:24Z</time>
      </trkpt>
      <trkpt lat="49.15299" lon="6.13325">
        <ele>224.2</ele>
        <time>2011-11-06T08:42:25Z</time>
      </trkpt>
      <trkpt lat="49.15295" lon="6.13338">
        <ele>224.6</ele>
        <time>2011-11-06T08:42:26Z</time>
      </trkpt>
      <trkpt lat="49.1529" lon="6.13351">
        <ele>224.8</ele>
        <time>2011-11-06T08:42:27Z</time>
      </trkpt>
      <trkpt lat="49.15282" lon="6.13354">
        <ele>225.1</ele>
        <time>2011-11-06T08:42:28Z</time>
      </trkpt>
      <trkpt lat="49.15278" lon="6.13364">
        <ele>225.1</ele>
        <time>2011-11-06T08:42:29Z</time>
      </trkpt>
      <trkpt lat="49.15281" lon="6.13372">
        <ele>225</ele>
        <time>2011-11-06T08:42:31Z</time>
      </trkpt>
      <trkpt lat="49.1528" lon="6.13379">
        <ele>224.8</ele>
        <time>2011-11-06T08:42:32Z</time>
      </trkpt>
      <trkpt lat="49.15279" lon="6.13388">
        <ele>224.5</ele>
        <time>2011-11-06T08:42:33Z</time>
      </trkpt>
      <trkpt lat="49.15277" lon="6.13396">
        <ele>224.5</ele>
        <time>2011-11-06T08:42:34Z</time>
      </trkpt>
      <trkpt lat="49.15275" lon="6.13403">
        <ele>224.7</ele>
        <time>2011-11-06T08:42:35Z</time>
      </trkpt>
      <trkpt lat="49.15272" lon="6.1341">
        <ele>224.7</ele>
        <time>2011-11-06T08:42:36Z</time>
      </trkpt>
      <trkpt lat="49.15263" lon="6.13417">
        <ele>224.8</ele>
        <time>2011-11-06T08:42:37Z</time>
      </trkpt>
      <trkpt lat="49.15258" lon="6.13426">
        <ele>224.9</ele>
        <time>2011-11-06T08:42:38Z</time>
      </trkpt>
      <trkpt lat="49.15256" lon="6.13436">
        <ele>224.9</ele>
        <time>2011-11-06T08:42:39Z</time>
      </trkpt>
      <trkpt lat="49.15253" lon="6.13451">
        <ele>224.6</ele>
        <time>2011-11-06T08:42:40Z</time>
      </trkpt>
      <trkpt lat="49.15251" lon="6.13467">
        <ele>224.6</ele>
        <time>2011-11-06T08:42:41Z</time>
      </trkpt>
      <trkpt lat="49.15251" lon="6.13482">
        <ele>225.8</ele>
        <time>2011-11-06T08:42:42Z</time>
      </trkpt>
      <trkpt lat="49.15249" lon="6.13498">
        <ele>226.7</ele>
        <time>2011-11-06T08:42:43Z</time>
      </trkpt>
      <trkpt lat="49.15248" lon="6.13511">
        <ele>226.6</ele>
        <time>2011-11-06T08:42:44Z</time>
      </trkpt>
      <trkpt lat="49.15251" lon="6.13528">
        <ele>225.3</ele>
        <time>2011-11-06T08:42:45Z</time>
      </trkpt>
      <trkpt lat="49.15253" lon="6.13539">
        <ele>225.3</ele>
        <time>2011-11-06T08:42:46Z</time>
      </trkpt>
      <trkpt lat="49.15252" lon="6.13551">
        <ele>225.3</ele>
        <time>2011-11-06T08:42:47Z</time>
      </trkpt>
      <trkpt lat="49.15252" lon="6.13562">
        <ele>225.2</ele>
        <time>2011-11-06T08:42:48Z</time>
      </trkpt>
      <trkpt lat="49.15253" lon="6.13575">
        <ele>225.3</ele>
        <time>2011-11-06T08:42:49Z</time>
      </trkpt>
      <trkpt lat="49.15254" lon="6.13586">
        <ele>225.3</ele>
        <time>2011-11-06T08:42:50Z</time>
      </trkpt>
      <trkpt lat="49.15256" lon="6.13599">
        <ele>225.2</ele>
        <time>2011-11-06T08:42:51Z</time>
      </trkpt>
      <trkpt lat="49.15257" lon="6.13611">
        <ele>224.9</ele>
        <time>2011-11-06T08:42:52Z</time>
      </trkpt>
      <trkpt lat="49.15256" lon="6.13625">
        <ele>224.6</ele>
        <time>2011-11-06T08:42:53Z</time>
      </trkpt>
      <trkpt lat="49.15258" lon="6.13637">
        <ele>224.1</ele>
        <time>2011-11-06T08:42:54Z</time>
      </trkpt>
      <trkpt lat="49.15257" lon="6.13657">
        <ele>223.7</ele>
        <time>2011-11-06T08:42:56Z</time>
      </trkpt>
      <trkpt lat="49.1526" lon="6.13678">
        <ele>223</ele>
        <time>2011-11-06T08:42:57Z</time>
      </trkpt>
      <trkpt lat="49.1526" lon="6.13692">
        <ele>222.9</ele>
        <time>2011-11-06T08:42:58Z</time>
      </trkpt>
      <trkpt lat="49.15262" lon="6.13701">
        <ele>222.9</ele>
        <time>2011-11-06T08:42:59Z</time>
      </trkpt>
      <trkpt lat="49.15263" lon="6.13713">
        <ele>222.9</ele>
        <time>2011-11-06T08:43:00Z</time>
      </trkpt>
      <trkpt lat="49.15265" lon="6.13728">
        <ele>222.2</ele>
        <time>2011-11-06T08:43:01Z</time>
      </trkpt>
      <trkpt lat="49.15268" lon="6.13742">
        <ele>223.1</ele>
        <time>2011-11-06T08:43:02Z</time>
      </trkpt>
      <trkpt lat="49.1527" lon="6.13756">
        <ele>223.6</ele>
        <time>2011-11-06T08:43:03Z</time>
      </trkpt>
      <trkpt lat="49.15272" lon="6.13768">
        <ele>223.5</ele>
        <time>2011-11-06T08:43:04Z</time>
      </trkpt>
      <trkpt lat="49.15271" lon="6.13778">
        <ele>223.6</ele>
        <time>2011-11-06T08:43:05Z</time>
      </trkpt>
      <trkpt lat="49.15271" lon="6.1379">
        <ele>223.8</ele>
        <time>2011-11-06T08:43:06Z</time>
      </trkpt>
      <trkpt lat="49.15269" lon="6.13802">
        <ele>223.6</ele>
        <time>2011-11-06T08:43:07Z</time>
      </trkpt>
      <trkpt lat="49.15271" lon="6.13817">
        <ele>223.1</ele>
        <time>2011-11-06T08:43:08Z</time>
      </trkpt>
      <trkpt lat="49.15271" lon="6.13831">
        <ele>223.7</ele>
        <time>2011-11-06T08:43:09Z</time>
      </trkpt>
      <trkpt lat="49.15271" lon="6.1384">
        <ele>223.7</ele>
        <time>2011-11-06T08:43:10Z</time>
      </trkpt>
      <trkpt lat="49.15271" lon="6.13853">
        <ele>223.2</ele>
        <time>2011-11-06T08:43:11Z</time>
      </trkpt>
      <trkpt lat="49.15271" lon="6.13866">
        <ele>223.3</ele>
        <time>2011-11-06T08:43:12Z</time>
      </trkpt>
      <trkpt lat="49.15271" lon="6.13877">
        <ele>223.4</ele>
        <time>2011-11-06T08:43:13Z</time>
      </trkpt>
      <trkpt lat="49.1527" lon="6.1389">
        <ele>223.2</ele>
        <time>2011-11-06T08:43:14Z</time>
      </trkpt>
      <trkpt lat="49.15271" lon="6.13903">
        <ele>222.7</ele>
        <time>2011-11-06T08:43:15Z</time>
      </trkpt>
      <trkpt lat="49.15272" lon="6.13918">
        <ele>222.8</ele>
        <time>2011-11-06T08:43:16Z</time>
      </trkpt>
      <trkpt lat="49.15273" lon="6.13932">
        <ele>222.7</ele>
        <time>2011-11-06T08:43:17Z</time>
      </trkpt>
      <trkpt lat="49.15273" lon="6.13943">
        <ele>222.5</ele>
        <time>2011-11-06T08:43:18Z</time>
      </trkpt>
      <trkpt lat="49.15272" lon="6.13955">
        <ele>222.7</ele>
        <time>2011-11-06T08:43:19Z</time>
      </trkpt>
      <trkpt lat="49.15271" lon="6.13964">
        <ele>222.6</ele>
        <time>2011-11-06T08:43:20Z</time>
      </trkpt>
      <trkpt lat="49.15271" lon="6.13977">
        <ele>222.7</ele>
        <time>2011-11-06T08:43:21Z</time>
      </trkpt>
      <trkpt lat="49.15272" lon="6.13989">
        <ele>222.5</ele>
        <time>2011-11-06T08:43:22Z</time>
      </trkpt>
      <trkpt lat="49.1527" lon="6.14002">
        <ele>222.3</ele>
        <time>2011-11-06T08:43:23Z</time>
      </trkpt>
      <trkpt lat="49.1527" lon="6.14015">
        <ele>222.3</ele>
        <time>2011-11-06T08:43:24Z</time>
      </trkpt>
      <trkpt lat="49.1527" lon="6.14026">
        <ele>221.8</ele>
        <time>2011-11-06T08:43:25Z</time>
      </trkpt>
      <trkpt lat="49.15274" lon="6.14042">
        <ele>221.2</ele>
        <time>2011-11-06T08:43:26Z</time>
      </trkpt>
      <trkpt lat="49.15276" lon="6.14054">
        <ele>221</ele>
        <time>2011-11-06T08:43:27Z</time>
      </trkpt>
      <trkpt lat="49.15278" lon="6.14066">
        <ele>221.1</ele>
        <time>2011-11-06T08:43:28Z</time>
      </trkpt>
      <trkpt lat="49.15281" lon="6.14079">
        <ele>220.9</ele>
        <time>2011-11-06T08:43:29Z</time>
      </trkpt>
      <trkpt lat="49.15282" lon="6.1409">
        <ele>220.7</ele>
        <time>2011-11-06T08:43:30Z</time>
      </trkpt>
      <trkpt lat="49.15285" lon="6.141">
        <ele>220.8</ele>
        <time>2011-11-06T08:43:31Z</time>
      </trkpt>
      <trkpt lat="49.15287" lon="6.14111">
        <ele>221</ele>
        <time>2011-11-06T08:43:32Z</time>
      </trkpt>
      <trkpt lat="49.15288" lon="6.14123">
        <ele>220.8</ele>
        <time>2011-11-06T08:43:33Z</time>
      </trkpt>
      <trkpt lat="49.1529" lon="6.14133">
        <ele>221</ele>
        <time>2011-11-06T08:43:34Z</time>
      </trkpt>
      <trkpt lat="49.15291" lon="6.14144">
        <ele>220.9</ele>
        <time>2011-11-06T08:43:35Z</time>
      </trkpt>
      <trkpt lat="49.15293" lon="6.14155">
        <ele>220.6</ele>
        <time>2011-11-06T08:43:36Z</time>
      </trkpt>
      <trkpt lat="49.15296" lon="6.14166">
        <ele>220.8</ele>
        <time>2011-11-06T08:43:37Z</time>
      </trkpt>
      <trkpt lat="49.153" lon="6.14182">
        <ele>220.2</ele>
        <time>2011-11-06T08:43:38Z</time>
      </trkpt>
      <trkpt lat="49.15302" lon="6.14196">
        <ele>220.1</ele>
        <time>2011-11-06T08:43:39Z</time>
      </trkpt>
      <trkpt lat="49.15305" lon="6.14209">
        <ele>220.1</ele>
        <time>2011-11-06T08:43:40Z</time>
      </trkpt>
      <trkpt lat="49.15304" lon="6.14223">
        <ele>219.4</ele>
        <time>2011-11-06T08:43:41Z</time>
      </trkpt>
      <trkpt lat="49.15305" lon="6.14234">
        <ele>218.5</ele>
        <time>2011-11-06T08:43:42Z</time>
      </trkpt>
      <trkpt lat="49.15307" lon="6.14251">
        <ele>218.8</ele>
        <time>2011-11-06T08:43:43Z</time>
      </trkpt>
      <trkpt lat="49.15308" lon="6.14264">
        <ele>219.2</ele>
        <time>2011-11-06T08:43:44Z</time>
      </trkpt>
      <trkpt lat="49.15307" lon="6.14275">
        <ele>220</ele>
        <time>2011-11-06T08:43:45Z</time>
      </trkpt>
      <trkpt lat="49.15307" lon="6.14288">
        <ele>219.6</ele>
        <time>2011-11-06T08:43:46Z</time>
      </trkpt>
      <trkpt lat="49.15306" lon="6.14301">
        <ele>219.7</ele>
        <time>2011-11-06T08:43:47Z</time>
      </trkpt>
      <trkpt lat="49.15306" lon="6.14315">
        <ele>219.6</ele>
        <time>2011-11-06T08:43:48Z</time>
      </trkpt>
      <trkpt lat="49.15306" lon="6.14328">
        <ele>219.6</ele>
        <time>2011-11-06T08:43:49Z</time>
      </trkpt>
      <trkpt lat="49.15307" lon="6.1434">
        <ele>219.5</ele>
        <time>2011-11-06T08:43:50Z</time>
      </trkpt>
      <trkpt lat="49.15308" lon="6.14354">
        <ele>219.3</ele>
        <time>2011-11-06T08:43:51Z</time>
      </trkpt>
      <trkpt lat="49.15309" lon="6.14366">
        <ele>219.1</ele>
        <time>2011-11-06T08:43:52Z</time>
      </trkpt>
      <trkpt lat="49.15308" lon="6.14376">
        <ele>219.2</ele>
        <time>2011-11-06T08:43:53Z</time>
      </trkpt>
      <trkpt lat="49.15309" lon="6.14387">
        <ele>219.6</ele>
        <time>2011-11-06T08:43:54Z</time>
      </trkpt>
      <trkpt lat="49.1531" lon="6.14415">
        <ele>219.6</ele>
        <time>2011-11-06T08:43:57Z</time>
      </trkpt>
      <trkpt lat="49.15312" lon="6.14423">
        <ele>219.6</ele>
        <time>2011-11-06T08:43:58Z</time>
      </trkpt>
      <trkpt lat="49.15315" lon="6.14443">
        <ele>218.2</ele>
        <time>2011-11-06T08:44:00Z</time>
      </trkpt>
      <trkpt lat="49.15316" lon="6.1445">
        <ele>218.1</ele>
        <time>2011-11-06T08:44:01Z</time>
      </trkpt>
      <trkpt lat="49.15316" lon="6.14441">
        <ele>218.3</ele>
        <time>2011-11-06T08:44:02Z</time>
      </trkpt>
      <trkpt lat="49.15319" lon="6.14435">
        <ele>218.1</ele>
        <time>2011-11-06T08:44:05Z</time>
      </trkpt>
      <trkpt lat="49.15322" lon="6.14426">
        <ele>218.2</ele>
        <time>2011-11-06T08:44:07Z</time>
      </trkpt>
      <trkpt lat="49.15337" lon="6.14424">
        <ele>218.2</ele>
        <time>2011-11-06T08:44:09Z</time>
      </trkpt>
      <trkpt lat="49.15343" lon="6.14423">
        <ele>218.3</ele>
        <time>2011-11-06T08:44:10Z</time>
      </trkpt>
      <trkpt lat="49.15352" lon="6.14416">
        <ele>218.4</ele>
        <time>2011-11-06T08:44:11Z</time>
      </trkpt>
      <trkpt lat="49.15361" lon="6.14408">
        <ele>218.4</ele>
        <time>2011-11-06T08:44:12Z</time>
      </trkpt>
      <trkpt lat="49.15366" lon="6.14404">
        <ele>218.4</ele>
        <time>2011-11-06T08:44:13Z</time>
      </trkpt>
      <trkpt lat="49.15373" lon="6.14404">
        <ele>218.3</ele>
        <time>2011-11-06T08:44:14Z</time>
      </trkpt>
      <trkpt lat="49.15378" lon="6.144">
        <ele>218.4</ele>
        <time>2011-11-06T08:44:15Z</time>
      </trkpt>
      <trkpt lat="49.15381" lon="6.14395">
        <ele>218.4</ele>
        <time>2011-11-06T08:44:16Z</time>
      </trkpt>
      <trkpt lat="49.15386" lon="6.14391">
        <ele>218.6</ele>
        <time>2011-11-06T08:44:17Z</time>
      </trkpt>
      <trkpt lat="49.15393" lon="6.14383">
        <ele>218.5</ele>
        <time>2011-11-06T08:44:19Z</time>
      </trkpt>
      <trkpt lat="49.15397" lon="6.1438">
        <ele>218.5</ele>
        <time>2011-11-06T08:44:20Z</time>
      </trkpt>
      <trkpt lat="49.154" lon="6.14374">
        <ele>218.5</ele>
        <time>2011-11-06T08:44:21Z</time>
      </trkpt>
      <trkpt lat="49.15402" lon="6.14367">
        <ele>218.6</ele>
        <time>2011-11-06T08:44:22Z</time>
      </trkpt>
      <trkpt lat="49.15403" lon="6.14354">
        <ele>218.6</ele>
        <time>2011-11-06T08:44:24Z</time>
      </trkpt>
      <trkpt lat="49.1541" lon="6.14349">
        <ele>218.5</ele>
        <time>2011-11-06T08:44:26Z</time>
      </trkpt>
      <trkpt lat="49.15413" lon="6.1434">
        <ele>218.4</ele>
        <time>2011-11-06T08:44:29Z</time>
      </trkpt>
      <trkpt lat="49.15417" lon="6.14331">
        <ele>218.5</ele>
        <time>2011-11-06T08:44:31Z</time>
      </trkpt>
      <trkpt lat="49.15421" lon="6.14322">
        <ele>218.5</ele>
        <time>2011-11-06T08:44:33Z</time>
      </trkpt>
      <trkpt lat="49.15484" lon="6.1423">
        <ele>195.6</ele>
        <time>2011-11-06T08:44:34Z</time>
      </trkpt>
      <trkpt lat="49.15425" lon="6.14298">
        <ele>218.5</ele>
        <time>2011-11-06T08:44:35Z</time>
      </trkpt>
      <trkpt lat="49.15436" lon="6.14288">
        <ele>218.6</ele>
        <time>2011-11-06T08:44:37Z</time>
      </trkpt>
      <trkpt lat="49.15441" lon="6.14283">
        <ele>218.6</ele>
        <time>2011-11-06T08:44:38Z</time>
      </trkpt>
      <trkpt lat="49.15443" lon="6.14276">
        <ele>218.6</ele>
        <time>2011-11-06T08:44:39Z</time>
      </trkpt>
      <trkpt lat="49.15447" lon="6.14271">
        <ele>218.6</ele>
        <time>2011-11-06T08:44:40Z</time>
      </trkpt>
      <trkpt lat="49.15458" lon="6.14267">
        <ele>218.6</ele>
        <time>2011-11-06T08:44:41Z</time>
      </trkpt>
      <trkpt lat="49.15471" lon="6.14264">
        <ele>218.6</ele>
        <time>2011-11-06T08:44:42Z</time>
      </trkpt>
      <trkpt lat="49.15462" lon="6.14256">
        <ele>218.6</ele>
        <time>2011-11-06T08:44:43Z</time>
      </trkpt>
      <trkpt lat="49.15467" lon="6.14244">
        <ele>218.6</ele>
        <time>2011-11-06T08:44:45Z</time>
      </trkpt>
      <trkpt lat="49.15472" lon="6.14234">
        <ele>218.6</ele>
        <time>2011-11-06T08:44:47Z</time>
      </trkpt>
      <trkpt lat="49.15477" lon="6.14219">
        <ele>218.7</ele>
        <time>2011-11-06T08:44:49Z</time>
      </trkpt>
      <trkpt lat="49.15493" lon="6.14202">
        <ele>218.8</ele>
        <time>2011-11-06T08:44:50Z</time>
      </trkpt>
      <trkpt lat="49.155" lon="6.14196">
        <ele>218.8</ele>
        <time>2011-11-06T08:44:51Z</time>
      </trkpt>
      <trkpt lat="49.15506" lon="6.14189">
        <ele>218.8</ele>
        <time>2011-11-06T08:44:52Z</time>
      </trkpt>
      <trkpt lat="49.15509" lon="6.14167">
        <ele>218.9</ele>
        <time>2011-11-06T08:44:53Z</time>
      </trkpt>
      <trkpt lat="49.15514" lon="6.14159">
        <ele>218.9</ele>
        <time>2011-11-06T08:44:54Z</time>
      </trkpt>
      <trkpt lat="49.15533" lon="6.14133">
        <ele>221</ele>
        <time>2011-11-06T08:44:58Z</time>
      </trkpt>
      <trkpt lat="49.1554" lon="6.14129">
        <ele>220.1</ele>
        <time>2011-11-06T08:44:59Z</time>
      </trkpt>
      <trkpt lat="49.15544" lon="6.14124">
        <ele>220.1</ele>
        <time>2011-11-06T08:45:00Z</time>
      </trkpt>
      <trkpt lat="49.15548" lon="6.14117">
        <ele>220.7</ele>
        <time>2011-11-06T08:45:01Z</time>
      </trkpt>
      <trkpt lat="49.15554" lon="6.1411">
        <ele>220.1</ele>
        <time>2011-11-06T08:45:02Z</time>
      </trkpt>
      <trkpt lat="49.15559" lon="6.14105">
        <ele>221.1</ele>
        <time>2011-11-06T08:45:03Z</time>
      </trkpt>
      <trkpt lat="49.15564" lon="6.14098">
        <ele>222</ele>
        <time>2011-11-06T08:45:04Z</time>
      </trkpt>
      <trkpt lat="49.15569" lon="6.14094">
        <ele>221.4</ele>
        <time>2011-11-06T08:45:05Z</time>
      </trkpt>
      <trkpt lat="49.15578" lon="6.14087">
        <ele>223.6</ele>
        <time>2011-11-06T08:45:07Z</time>
      </trkpt>
      <trkpt lat="49.15583" lon="6.14081">
        <ele>225.2</ele>
        <time>2011-11-06T08:45:08Z</time>
      </trkpt>
      <trkpt lat="49.15588" lon="6.14075">
        <ele>225.9</ele>
        <time>2011-11-06T08:45:09Z</time>
      </trkpt>
      <trkpt lat="49.15592" lon="6.1407">
        <ele>226</ele>
        <time>2011-11-06T08:45:10Z</time>
      </trkpt>
      <trkpt lat="49.15598" lon="6.14067">
        <ele>226.7</ele>
        <time>2011-11-06T08:45:11Z</time>
      </trkpt>
      <trkpt lat="49.15607" lon="6.14057">
        <ele>226.8</ele>
        <time>2011-11-06T08:45:13Z</time>
      </trkpt>
      <trkpt lat="49.15611" lon="6.14052">
        <ele>226.5</ele>
        <time>2011-11-06T08:45:14Z</time>
      </trkpt>
      <trkpt lat="49.15617" lon="6.14045">
        <ele>224.3</ele>
        <time>2011-11-06T08:45:15Z</time>
      </trkpt>
      <trkpt lat="49.15622" lon="6.14038">
        <ele>222.1</ele>
        <time>2011-11-06T08:45:16Z</time>
      </trkpt>
      <trkpt lat="49.15626" lon="6.14032">
        <ele>222.1</ele>
        <time>2011-11-06T08:45:17Z</time>
      </trkpt>
      <trkpt lat="49.15631" lon="6.14024">
        <ele>222.9</ele>
        <time>2011-11-06T08:45:18Z</time>
      </trkpt>
      <trkpt lat="49.15635" lon="6.14018">
        <ele>223</ele>
        <time>2011-11-06T08:45:19Z</time>
      </trkpt>
      <trkpt lat="49.15638" lon="6.1401">
        <ele>223.5</ele>
        <time>2011-11-06T08:45:20Z</time>
      </trkpt>
      <trkpt lat="49.15641" lon="6.14004">
        <ele>223.5</ele>
        <time>2011-11-06T08:45:21Z</time>
      </trkpt>
      <trkpt lat="49.15646" lon="6.14">
        <ele>224.1</ele>
        <time>2011-11-06T08:45:22Z</time>
      </trkpt>
      <trkpt lat="49.15653" lon="6.13989">
        <ele>222.8</ele>
        <time>2011-11-06T08:45:24Z</time>
      </trkpt>
      <trkpt lat="49.15656" lon="6.13983">
        <ele>222.9</ele>
        <time>2011-11-06T08:45:25Z</time>
      </trkpt>
      <trkpt lat="49.15661" lon="6.13976">
        <ele>223.8</ele>
        <time>2011-11-06T08:45:26Z</time>
      </trkpt>
      <trkpt lat="49.15665" lon="6.13971">
        <ele>224.5</ele>
        <time>2011-11-06T08:45:27Z</time>
      </trkpt>
      <trkpt lat="49.15669" lon="6.13966">
        <ele>224.5</ele>
        <time>2011-11-06T08:45:28Z</time>
      </trkpt>
      <trkpt lat="49.15672" lon="6.1396">
        <ele>225.7</ele>
        <time>2011-11-06T08:45:29Z</time>
      </trkpt>
      <trkpt lat="49.15677" lon="6.13955">
        <ele>225.4</ele>
        <time>2011-11-06T08:45:30Z</time>
      </trkpt>
      <trkpt lat="49.1568" lon="6.13946">
        <ele>224.6</ele>
        <time>2011-11-06T08:45:31Z</time>
      </trkpt>
      <trkpt lat="49.15684" lon="6.13938">
        <ele>224.9</ele>
        <time>2011-11-06T08:45:32Z</time>
      </trkpt>
      <trkpt lat="49.15688" lon="6.13932">
        <ele>224.9</ele>
        <time>2011-11-06T08:45:33Z</time>
      </trkpt>
      <trkpt lat="49.15693" lon="6.13925">
        <ele>224.7</ele>
        <time>2011-11-06T08:45:34Z</time>
      </trkpt>
      <trkpt lat="49.15697" lon="6.13918">
        <ele>225.6</ele>
        <time>2011-11-06T08:45:35Z</time>
      </trkpt>
      <trkpt lat="49.15702" lon="6.13909">
        <ele>226</ele>
        <time>2011-11-06T08:45:36Z</time>
      </trkpt>
      <trkpt lat="49.15706" lon="6.139">
        <ele>225.9</ele>
        <time>2011-11-06T08:45:37Z</time>
      </trkpt>
      <trkpt lat="49.15715" lon="6.13887">
        <ele>227.1</ele>
        <time>2011-11-06T08:45:39Z</time>
      </trkpt>
      <trkpt lat="49.15718" lon="6.13879">
        <ele>227.2</ele>
        <time>2011-11-06T08:45:40Z</time>
      </trkpt>
      <trkpt lat="49.15722" lon="6.13872">
        <ele>227.4</ele>
        <time>2011-11-06T08:45:41Z</time>
      </trkpt>
      <trkpt lat="49.15726" lon="6.13865">
        <ele>227.2</ele>
        <time>2011-11-06T08:45:42Z</time>
      </trkpt>
      <trkpt lat="49.1573" lon="6.1386">
        <ele>227.1</ele>
        <time>2011-11-06T08:45:43Z</time>
      </trkpt>
      <trkpt lat="49.15734" lon="6.13854">
        <ele>227.3</ele>
        <time>2011-11-06T08:45:44Z</time>
      </trkpt>
      <trkpt lat="49.15739" lon="6.13848">
        <ele>227.2</ele>
        <time>2011-11-06T08:45:45Z</time>
      </trkpt>
      <trkpt lat="49.15742" lon="6.1384">
        <ele>226.9</ele>
        <time>2011-11-06T08:45:46Z</time>
      </trkpt>
      <trkpt lat="49.15747" lon="6.13836">
        <ele>227.2</ele>
        <time>2011-11-06T08:45:47Z</time>
      </trkpt>
      <trkpt lat="49.15752" lon="6.13832">
        <ele>227.9</ele>
        <time>2011-11-06T08:45:48Z</time>
      </trkpt>
      <trkpt lat="49.15759" lon="6.13827">
        <ele>228.2</ele>
        <time>2011-11-06T08:45:49Z</time>
      </trkpt>
      <trkpt lat="49.15764" lon="6.13821">
        <ele>228.3</ele>
        <time>2011-11-06T08:45:50Z</time>
      </trkpt>
      <trkpt lat="49.15768" lon="6.13815">
        <ele>228.4</ele>
        <time>2011-11-06T08:45:51Z</time>
      </trkpt>
      <trkpt lat="49.15775" lon="6.13806">
        <ele>230.4</ele>
        <time>2011-11-06T08:45:53Z</time>
      </trkpt>
      <trkpt lat="49.15779" lon="6.13801">
        <ele>231.4</ele>
        <time>2011-11-06T08:45:54Z</time>
      </trkpt>
      <trkpt lat="49.15786" lon="6.13791">
        <ele>232.3</ele>
        <time>2011-11-06T08:45:56Z</time>
      </trkpt>
      <trkpt lat="49.15792" lon="6.13786">
        <ele>232.3</ele>
        <time>2011-11-06T08:45:57Z</time>
      </trkpt>
      <trkpt lat="49.15797" lon="6.13781">
        <ele>232.4</ele>
        <time>2011-11-06T08:45:58Z</time>
      </trkpt>
      <trkpt lat="49.15801" lon="6.13778">
        <ele>232.2</ele>
        <time>2011-11-06T08:45:59Z</time>
      </trkpt>
      <trkpt lat="49.15806" lon="6.13772">
        <ele>232.2</ele>
        <time>2011-11-06T08:46:00Z</time>
      </trkpt>
      <trkpt lat="49.15811" lon="6.13768">
        <ele>232.2</ele>
        <time>2011-11-06T08:46:01Z</time>
      </trkpt>
      <trkpt lat="49.15816" lon="6.13759">
        <ele>232.3</ele>
        <time>2011-11-06T08:46:02Z</time>
      </trkpt>
      <trkpt lat="49.15821" lon="6.13753">
        <ele>232.3</ele>
        <time>2011-11-06T08:46:03Z</time>
      </trkpt>
      <trkpt lat="49.15826" lon="6.13748">
        <ele>232.3</ele>
        <time>2011-11-06T08:46:04Z</time>
      </trkpt>
      <trkpt lat="49.15831" lon="6.13742">
        <ele>232.3</ele>
        <time>2011-11-06T08:46:05Z</time>
      </trkpt>
      <trkpt lat="49.15836" lon="6.13738">
        <ele>232.3</ele>
        <time>2011-11-06T08:46:06Z</time>
      </trkpt>
      <trkpt lat="49.15841" lon="6.13733">
        <ele>232.4</ele>
        <time>2011-11-06T08:46:07Z</time>
      </trkpt>
      <trkpt lat="49.15844" lon="6.13725">
        <ele>232.4</ele>
        <time>2011-11-06T08:46:08Z</time>
      </trkpt>
      <trkpt lat="49.15849" lon="6.1372">
        <ele>232.5</ele>
        <time>2011-11-06T08:46:09Z</time>
      </trkpt>
      <trkpt lat="49.15853" lon="6.13715">
        <ele>232.5</ele>
        <time>2011-11-06T08:46:10Z</time>
      </trkpt>
      <trkpt lat="49.15858" lon="6.13709">
        <ele>232.5</ele>
        <time>2011-11-06T08:46:11Z</time>
      </trkpt>
      <trkpt lat="49.15877" lon="6.13703">
        <ele>232.6</ele>
        <time>2011-11-06T08:46:12Z</time>
      </trkpt>
      <trkpt lat="49.15882" lon="6.13698">
        <ele>232.6</ele>
        <time>2011-11-06T08:46:13Z</time>
      </trkpt>
      <trkpt lat="49.1589" lon="6.13687">
        <ele>232.6</ele>
        <time>2011-11-06T08:46:15Z</time>
      </trkpt>
      <trkpt lat="49.15895" lon="6.13682">
        <ele>232.6</ele>
        <time>2011-11-06T08:46:16Z</time>
      </trkpt>
      <trkpt lat="49.15911" lon="6.13677">
        <ele>232.7</ele>
        <time>2011-11-06T08:46:17Z</time>
      </trkpt>
      <trkpt lat="49.15916" lon="6.13672">
        <ele>232.7</ele>
        <time>2011-11-06T08:46:18Z</time>
      </trkpt>
      <trkpt lat="49.15916" lon="6.13609">
        <ele>233</ele>
        <time>2011-11-06T08:46:20Z</time>
      </trkpt>
      <trkpt lat="49.15918" lon="6.13602">
        <ele>233</ele>
        <time>2011-11-06T08:46:21Z</time>
      </trkpt>
      <trkpt lat="49.15922" lon="6.13594">
        <ele>233</ele>
        <time>2011-11-06T08:46:22Z</time>
      </trkpt>
      <trkpt lat="49.15926" lon="6.13586">
        <ele>233</ele>
        <time>2011-11-06T08:46:23Z</time>
      </trkpt>
      <trkpt lat="49.15933" lon="6.13587">
        <ele>233.1</ele>
        <time>2011-11-06T08:46:24Z</time>
      </trkpt>
      <trkpt lat="49.15937" lon="6.13581">
        <ele>233.1</ele>
        <time>2011-11-06T08:46:25Z</time>
      </trkpt>
      <trkpt lat="49.15942" lon="6.13576">
        <ele>233.1</ele>
        <time>2011-11-06T08:46:26Z</time>
      </trkpt>
      <trkpt lat="49.15946" lon="6.1357">
        <ele>233.1</ele>
        <time>2011-11-06T08:46:27Z</time>
      </trkpt>
      <trkpt lat="49.1595" lon="6.13565">
        <ele>233.1</ele>
        <time>2011-11-06T08:46:28Z</time>
      </trkpt>
      <trkpt lat="49.15955" lon="6.13559">
        <ele>233.1</ele>
        <time>2011-11-06T08:46:29Z</time>
      </trkpt>
      <trkpt lat="49.15959" lon="6.13553">
        <ele>233.2</ele>
        <time>2011-11-06T08:46:30Z</time>
      </trkpt>
      <trkpt lat="49.15964" lon="6.13547">
        <ele>233.2</ele>
        <time>2011-11-06T08:46:31Z</time>
      </trkpt>
      <trkpt lat="49.15968" lon="6.13542">
        <ele>233.2</ele>
        <time>2011-11-06T08:46:32Z</time>
      </trkpt>
      <trkpt lat="49.15972" lon="6.13531">
        <ele>233.2</ele>
        <time>2011-11-06T08:46:34Z</time>
      </trkpt>
      <trkpt lat="49.15975" lon="6.13526">
        <ele>233.2</ele>
        <time>2011-11-06T08:46:35Z</time>
      </trkpt>
      <trkpt lat="49.15978" lon="6.13531">
        <ele>233.2</ele>
        <time>2011-11-06T08:46:36Z</time>
      </trkpt>
      <trkpt lat="49.15984" lon="6.13527">
        <ele>233.3</ele>
        <time>2011-11-06T08:46:38Z</time>
      </trkpt>
      <trkpt lat="49.15994" lon="6.13529">
        <ele>233.3</ele>
        <time>2011-11-06T08:46:40Z</time>
      </trkpt>
      <trkpt lat="49.1601" lon="6.13514">
        <ele>233.3</ele>
        <time>2011-11-06T08:46:42Z</time>
      </trkpt>
      <trkpt lat="49.16017" lon="6.13505">
        <ele>233.3</ele>
        <time>2011-11-06T08:46:44Z</time>
      </trkpt>
      <trkpt lat="49.1602" lon="6.13496">
        <ele>233.4</ele>
        <time>2011-11-06T08:46:46Z</time>
      </trkpt>
      <trkpt lat="49.16025" lon="6.13492">
        <ele>233.4</ele>
        <time>2011-11-06T08:46:47Z</time>
      </trkpt>
      <trkpt lat="49.16027" lon="6.13475">
        <ele>233.4</ele>
        <time>2011-11-06T08:46:48Z</time>
      </trkpt>
      <trkpt lat="49.16037" lon="6.13476">
        <ele>233.5</ele>
        <time>2011-11-06T08:46:49Z</time>
      </trkpt>
      <trkpt lat="49.16042" lon="6.13472">
        <ele>233.5</ele>
        <time>2011-11-06T08:46:50Z</time>
      </trkpt>
      <trkpt lat="49.16044" lon="6.13464">
        <ele>233.5</ele>
        <time>2011-11-06T08:46:51Z</time>
      </trkpt>
      <trkpt lat="49.16048" lon="6.1346">
        <ele>233.5</ele>
        <time>2011-11-06T08:46:52Z</time>
      </trkpt>
      <trkpt lat="49.16058" lon="6.1345">
        <ele>233.5</ele>
        <time>2011-11-06T08:46:54Z</time>
      </trkpt>
      <trkpt lat="49.16062" lon="6.13446">
        <ele>233.6</ele>
        <time>2011-11-06T08:46:55Z</time>
      </trkpt>
      <trkpt lat="49.16066" lon="6.13439">
        <ele>233.6</ele>
        <time>2011-11-06T08:46:57Z</time>
      </trkpt>
      <trkpt lat="49.16074" lon="6.13434">
        <ele>233.6</ele>
        <time>2011-11-06T08:46:58Z</time>
      </trkpt>
      <trkpt lat="49.1608" lon="6.13429">
        <ele>233.6</ele>
        <time>2011-11-06T08:46:59Z</time>
      </trkpt>
      <trkpt lat="49.16086" lon="6.13424">
        <ele>233.6</ele>
        <time>2011-11-06T08:47:00Z</time>
      </trkpt>
      <trkpt lat="49.16093" lon="6.13416">
        <ele>233.7</ele>
        <time>2011-11-06T08:47:02Z</time>
      </trkpt>
      <trkpt lat="49.16102" lon="6.13408">
        <ele>233.7</ele>
        <time>2011-11-06T08:47:04Z</time>
      </trkpt>
      <trkpt lat="49.16108" lon="6.13404">
        <ele>233.7</ele>
        <time>2011-11-06T08:47:05Z</time>
      </trkpt>
      <trkpt lat="49.16109" lon="6.13387">
        <ele>233.7</ele>
        <time>2011-11-06T08:47:06Z</time>
      </trkpt>
      <trkpt lat="49.16112" lon="6.13379">
        <ele>233.7</ele>
        <time>2011-11-06T08:47:07Z</time>
      </trkpt>
      <trkpt lat="49.1612" lon="6.13369">
        <ele>233.8</ele>
        <time>2011-11-06T08:47:09Z</time>
      </trkpt>
      <trkpt lat="49.16127" lon="6.1336">
        <ele>233.8</ele>
        <time>2011-11-06T08:47:11Z</time>
      </trkpt>
      <trkpt lat="49.16132" lon="6.13351">
        <ele>233.8</ele>
        <time>2011-11-06T08:47:13Z</time>
      </trkpt>
      <trkpt lat="49.16136" lon="6.13345">
        <ele>233.8</ele>
        <time>2011-11-06T08:47:14Z</time>
      </trkpt>
      <trkpt lat="49.16139" lon="6.13338">
        <ele>233.8</ele>
        <time>2011-11-06T08:47:15Z</time>
      </trkpt>
      <trkpt lat="49.16142" lon="6.13324">
        <ele>233.8</ele>
        <time>2011-11-06T08:47:17Z</time>
      </trkpt>
      <trkpt lat="49.16146" lon="6.13317">
        <ele>233.8</ele>
        <time>2011-11-06T08:47:18Z</time>
      </trkpt>
      <trkpt lat="49.1615" lon="6.1331">
        <ele>233.9</ele>
        <time>2011-11-06T08:47:19Z</time>
      </trkpt>
      <trkpt lat="49.16153" lon="6.13296">
        <ele>233.9</ele>
        <time>2011-11-06T08:47:21Z</time>
      </trkpt>
      <trkpt lat="49.16155" lon="6.13287">
        <ele>233.9</ele>
        <time>2011-11-06T08:47:22Z</time>
      </trkpt>
      <trkpt lat="49.16161" lon="6.1327">
        <ele>234</ele>
        <time>2011-11-06T08:47:24Z</time>
      </trkpt>
      <trkpt lat="49.16157" lon="6.13238">
        <ele>237.6</ele>
        <time>2011-11-06T08:47:25Z</time>
      </trkpt>
      <trkpt lat="49.16158" lon="6.13223">
        <ele>238</ele>
        <time>2011-11-06T08:47:26Z</time>
      </trkpt>
      <trkpt lat="49.16158" lon="6.13204">
        <ele>238.8</ele>
        <time>2011-11-06T08:47:27Z</time>
      </trkpt>
      <trkpt lat="49.16157" lon="6.1319">
        <ele>239.1</ele>
        <time>2011-11-06T08:47:28Z</time>
      </trkpt>
      <trkpt lat="49.16155" lon="6.13174">
        <ele>239.3</ele>
        <time>2011-11-06T08:47:29Z</time>
      </trkpt>
      <trkpt lat="49.16156" lon="6.13165">
        <ele>239.7</ele>
        <time>2011-11-06T08:47:30Z</time>
      </trkpt>
      <trkpt lat="49.16155" lon="6.13152">
        <ele>240.2</ele>
        <time>2011-11-06T08:47:31Z</time>
      </trkpt>
      <trkpt lat="49.16155" lon="6.13138">
        <ele>241.1</ele>
        <time>2011-11-06T08:47:32Z</time>
      </trkpt>
      <trkpt lat="49.16155" lon="6.13127">
        <ele>241.9</ele>
        <time>2011-11-06T08:47:33Z</time>
      </trkpt>
      <trkpt lat="49.16154" lon="6.13114">
        <ele>242.1</ele>
        <time>2011-11-06T08:47:34Z</time>
      </trkpt>
      <trkpt lat="49.16156" lon="6.13097">
        <ele>243.7</ele>
        <time>2011-11-06T08:47:36Z</time>
      </trkpt>
      <trkpt lat="49.16156" lon="6.1309">
        <ele>243.9</ele>
        <time>2011-11-06T08:47:37Z</time>
      </trkpt>
      <trkpt lat="49.16156" lon="6.1308">
        <ele>244</ele>
        <time>2011-11-06T08:47:38Z</time>
      </trkpt>
      <trkpt lat="49.16158" lon="6.13066">
        <ele>244</ele>
        <time>2011-11-06T08:47:39Z</time>
      </trkpt>
      <trkpt lat="49.16161" lon="6.13052">
        <ele>244.7</ele>
        <time>2011-11-06T08:47:41Z</time>
      </trkpt>
      <trkpt lat="49.16164" lon="6.13043">
        <ele>245.2</ele>
        <time>2011-11-06T08:47:42Z</time>
      </trkpt>
      <trkpt lat="49.16166" lon="6.13034">
        <ele>245.4</ele>
        <time>2011-11-06T08:47:43Z</time>
      </trkpt>
      <trkpt lat="49.16168" lon="6.13022">
        <ele>245.5</ele>
        <time>2011-11-06T08:47:44Z</time>
      </trkpt>
      <trkpt lat="49.1617" lon="6.13012">
        <ele>245.4</ele>
        <time>2011-11-06T08:47:45Z</time>
      </trkpt>
      <trkpt lat="49.16172" lon="6.13003">
        <ele>245.9</ele>
        <time>2011-11-06T08:47:46Z</time>
      </trkpt>
      <trkpt lat="49.16173" lon="6.12994">
        <ele>246.4</ele>
        <time>2011-11-06T08:47:47Z</time>
      </trkpt>
      <trkpt lat="49.16176" lon="6.12986">
        <ele>246.4</ele>
        <time>2011-11-06T08:47:48Z</time>
      </trkpt>
      <trkpt lat="49.1618" lon="6.12978">
        <ele>246.6</ele>
        <time>2011-11-06T08:47:49Z</time>
      </trkpt>
      <trkpt lat="49.16182" lon="6.12964">
        <ele>245.5</ele>
        <time>2011-11-06T08:47:50Z</time>
      </trkpt>
      <trkpt lat="49.16185" lon="6.12953">
        <ele>245.1</ele>
        <time>2011-11-06T08:47:51Z</time>
      </trkpt>
      <trkpt lat="49.16188" lon="6.12939">
        <ele>244.4</ele>
        <time>2011-11-06T08:47:52Z</time>
      </trkpt>
      <trkpt lat="49.16192" lon="6.12926">
        <ele>244.2</ele>
        <time>2011-11-06T08:47:53Z</time>
      </trkpt>
      <trkpt lat="49.16196" lon="6.12914">
        <ele>244.5</ele>
        <time>2011-11-06T08:47:54Z</time>
      </trkpt>
      <trkpt lat="49.16199" lon="6.12906">
        <ele>244.2</ele>
        <time>2011-11-06T08:47:55Z</time>
      </trkpt>
      <trkpt lat="49.16204" lon="6.12896">
        <ele>245.4</ele>
        <time>2011-11-06T08:47:56Z</time>
      </trkpt>
      <trkpt lat="49.16208" lon="6.12887">
        <ele>245.4</ele>
        <time>2011-11-06T08:47:57Z</time>
      </trkpt>
      <trkpt lat="49.16214" lon="6.12875">
        <ele>245.5</ele>
        <time>2011-11-06T08:47:59Z</time>
      </trkpt>
      <trkpt lat="49.16213" lon="6.12867">
        <ele>244.3</ele>
        <time>2011-11-06T08:48:01Z</time>
      </trkpt>
      <trkpt lat="49.16219" lon="6.12858">
        <ele>243.9</ele>
        <time>2011-11-06T08:48:03Z</time>
      </trkpt>
      <trkpt lat="49.16224" lon="6.12855">
        <ele>244</ele>
        <time>2011-11-06T08:48:04Z</time>
      </trkpt>
      <trkpt lat="49.16228" lon="6.12848">
        <ele>243.8</ele>
        <time>2011-11-06T08:48:05Z</time>
      </trkpt>
      <trkpt lat="49.16232" lon="6.12842">
        <ele>243.7</ele>
        <time>2011-11-06T08:48:06Z</time>
      </trkpt>
      <trkpt lat="49.16236" lon="6.12831">
        <ele>243.3</ele>
        <time>2011-11-06T08:48:07Z</time>
      </trkpt>
      <trkpt lat="49.16242" lon="6.12819">
        <ele>243</ele>
        <time>2011-11-06T08:48:09Z</time>
      </trkpt>
      <trkpt lat="49.16248" lon="6.12814">
        <ele>243.1</ele>
        <time>2011-11-06T08:48:10Z</time>
      </trkpt>
      <trkpt lat="49.16256" lon="6.12809">
        <ele>243.1</ele>
        <time>2011-11-06T08:48:11Z</time>
      </trkpt>
      <trkpt lat="49.16262" lon="6.12804">
        <ele>243.2</ele>
        <time>2011-11-06T08:48:12Z</time>
      </trkpt>
      <trkpt lat="49.16267" lon="6.128">
        <ele>243.2</ele>
        <time>2011-11-06T08:48:13Z</time>
      </trkpt>
      <trkpt lat="49.16271" lon="6.12795">
        <ele>243.2</ele>
        <time>2011-11-06T08:48:15Z</time>
      </trkpt>
      <trkpt lat="49.16275" lon="6.12791">
        <ele>243.4</ele>
        <time>2011-11-06T08:48:16Z</time>
      </trkpt>
      <trkpt lat="49.16282" lon="6.12787">
        <ele>243.6</ele>
        <time>2011-11-06T08:48:18Z</time>
      </trkpt>
      <trkpt lat="49.16286" lon="6.12785">
        <ele>243.7</ele>
        <time>2011-11-06T08:48:19Z</time>
      </trkpt>
      <trkpt lat="49.16292" lon="6.12782">
        <ele>243.8</ele>
        <time>2011-11-06T08:48:20Z</time>
      </trkpt>
      <trkpt lat="49.16299" lon="6.12775">
        <ele>243.2</ele>
        <time>2011-11-06T08:48:21Z</time>
      </trkpt>
      <trkpt lat="49.16306" lon="6.12766">
        <ele>245.2</ele>
        <time>2011-11-06T08:48:22Z</time>
      </trkpt>
      <trkpt lat="49.16316" lon="6.1275">
        <ele>245.6</ele>
        <time>2011-11-06T08:48:24Z</time>
      </trkpt>
      <trkpt lat="49.16323" lon="6.12735">
        <ele>245</ele>
        <time>2011-11-06T08:48:25Z</time>
      </trkpt>
      <trkpt lat="49.16328" lon="6.12726">
        <ele>245.7</ele>
        <time>2011-11-06T08:48:26Z</time>
      </trkpt>
      <trkpt lat="49.16337" lon="6.12712">
        <ele>245.6</ele>
        <time>2011-11-06T08:48:27Z</time>
      </trkpt>
      <trkpt lat="49.16342" lon="6.12705">
        <ele>245.7</ele>
        <time>2011-11-06T08:48:28Z</time>
      </trkpt>
      <trkpt lat="49.16345" lon="6.12694">
        <ele>246.2</ele>
        <time>2011-11-06T08:48:29Z</time>
      </trkpt>
      <trkpt lat="49.16352" lon="6.12687">
        <ele>247.3</ele>
        <time>2011-11-06T08:48:30Z</time>
      </trkpt>
      <trkpt lat="49.16357" lon="6.12677">
        <ele>247.3</ele>
        <time>2011-11-06T08:48:31Z</time>
      </trkpt>
      <trkpt lat="49.16361" lon="6.12667">
        <ele>247.7</ele>
        <time>2011-11-06T08:48:32Z</time>
      </trkpt>
      <trkpt lat="49.16366" lon="6.12661">
        <ele>248.5</ele>
        <time>2011-11-06T08:48:33Z</time>
      </trkpt>
      <trkpt lat="49.1637" lon="6.12657">
        <ele>249.6</ele>
        <time>2011-11-06T08:48:34Z</time>
      </trkpt>
      <trkpt lat="49.16375" lon="6.12652">
        <ele>250.2</ele>
        <time>2011-11-06T08:48:35Z</time>
      </trkpt>
      <trkpt lat="49.16384" lon="6.12642">
        <ele>254.1</ele>
        <time>2011-11-06T08:48:37Z</time>
      </trkpt>
      <trkpt lat="49.16388" lon="6.12636">
        <ele>253</ele>
        <time>2011-11-06T08:48:38Z</time>
      </trkpt>
      <trkpt lat="49.16393" lon="6.12631">
        <ele>253.2</ele>
        <time>2011-11-06T08:48:39Z</time>
      </trkpt>
      <trkpt lat="49.16398" lon="6.12624">
        <ele>253.2</ele>
        <time>2011-11-06T08:48:40Z</time>
      </trkpt>
      <trkpt lat="49.16402" lon="6.12618">
        <ele>253.1</ele>
        <time>2011-11-06T08:48:41Z</time>
      </trkpt>
      <trkpt lat="49.16406" lon="6.12612">
        <ele>252.6</ele>
        <time>2011-11-06T08:48:42Z</time>
      </trkpt>
      <trkpt lat="49.1641" lon="6.12609">
        <ele>252.9</ele>
        <time>2011-11-06T08:48:43Z</time>
      </trkpt>
      <trkpt lat="49.16414" lon="6.12602">
        <ele>253.1</ele>
        <time>2011-11-06T08:48:44Z</time>
      </trkpt>
      <trkpt lat="49.16419" lon="6.12598">
        <ele>253</ele>
        <time>2011-11-06T08:48:45Z</time>
      </trkpt>
      <trkpt lat="49.16423" lon="6.12591">
        <ele>252.9</ele>
        <time>2011-11-06T08:48:46Z</time>
      </trkpt>
      <trkpt lat="49.16427" lon="6.12586">
        <ele>252.9</ele>
        <time>2011-11-06T08:48:47Z</time>
      </trkpt>
      <trkpt lat="49.16429" lon="6.1258">
        <ele>253.2</ele>
        <time>2011-11-06T08:48:48Z</time>
      </trkpt>
      <trkpt lat="49.16434" lon="6.1257">
        <ele>252.8</ele>
        <time>2011-11-06T08:48:49Z</time>
      </trkpt>
      <trkpt lat="49.16438" lon="6.12562">
        <ele>253</ele>
        <time>2011-11-06T08:48:50Z</time>
      </trkpt>
      <trkpt lat="49.16444" lon="6.1256">
        <ele>253.7</ele>
        <time>2011-11-06T08:48:51Z</time>
      </trkpt>
      <trkpt lat="49.16449" lon="6.12556">
        <ele>254.2</ele>
        <time>2011-11-06T08:48:52Z</time>
      </trkpt>
      <trkpt lat="49.16452" lon="6.12549">
        <ele>254.5</ele>
        <time>2011-11-06T08:48:53Z</time>
      </trkpt>
      <trkpt lat="49.16457" lon="6.12543">
        <ele>254.6</ele>
        <time>2011-11-06T08:48:54Z</time>
      </trkpt>
      <trkpt lat="49.16461" lon="6.12536">
        <ele>255.2</ele>
        <time>2011-11-06T08:48:55Z</time>
      </trkpt>
      <trkpt lat="49.16468" lon="6.12525">
        <ele>254.2</ele>
        <time>2011-11-06T08:48:57Z</time>
      </trkpt>
      <trkpt lat="49.16472" lon="6.12514">
        <ele>254.6</ele>
        <time>2011-11-06T08:48:58Z</time>
      </trkpt>
      <trkpt lat="49.16477" lon="6.12507">
        <ele>254.9</ele>
        <time>2011-11-06T08:48:59Z</time>
      </trkpt>
      <trkpt lat="49.16482" lon="6.12501">
        <ele>255</ele>
        <time>2011-11-06T08:49:00Z</time>
      </trkpt>
      <trkpt lat="49.16487" lon="6.12495">
        <ele>255.9</ele>
        <time>2011-11-06T08:49:01Z</time>
      </trkpt>
      <trkpt lat="49.16491" lon="6.12492">
        <ele>256.3</ele>
        <time>2011-11-06T08:49:02Z</time>
      </trkpt>
      <trkpt lat="49.16496" lon="6.12484">
        <ele>256.6</ele>
        <time>2011-11-06T08:49:03Z</time>
      </trkpt>
      <trkpt lat="49.16501" lon="6.12477">
        <ele>256.6</ele>
        <time>2011-11-06T08:49:04Z</time>
      </trkpt>
      <trkpt lat="49.16506" lon="6.12471">
        <ele>256.6</ele>
        <time>2011-11-06T08:49:05Z</time>
      </trkpt>
      <trkpt lat="49.16511" lon="6.12465">
        <ele>256.5</ele>
        <time>2011-11-06T08:49:07Z</time>
      </trkpt>
      <trkpt lat="49.16516" lon="6.12458">
        <ele>256.7</ele>
        <time>2011-11-06T08:49:09Z</time>
      </trkpt>
      <trkpt lat="49.16519" lon="6.12452">
        <ele>256.6</ele>
        <time>2011-11-06T08:49:10Z</time>
      </trkpt>
      <trkpt lat="49.16527" lon="6.12441">
        <ele>256.6</ele>
        <time>2011-11-06T08:49:12Z</time>
      </trkpt>
      <trkpt lat="49.16533" lon="6.12436">
        <ele>256.7</ele>
        <time>2011-11-06T08:49:13Z</time>
      </trkpt>
      <trkpt lat="49.16538" lon="6.1243">
        <ele>256.9</ele>
        <time>2011-11-06T08:49:14Z</time>
      </trkpt>
      <trkpt lat="49.16547" lon="6.12422">
        <ele>256.8</ele>
        <time>2011-11-06T08:49:15Z</time>
      </trkpt>
      <trkpt lat="49.16553" lon="6.12416">
        <ele>256.8</ele>
        <time>2011-11-06T08:49:16Z</time>
      </trkpt>
      <trkpt lat="49.16561" lon="6.12412">
        <ele>257</ele>
        <time>2011-11-06T08:49:17Z</time>
      </trkpt>
      <trkpt lat="49.16567" lon="6.12407">
        <ele>257</ele>
        <time>2011-11-06T08:49:18Z</time>
      </trkpt>
      <trkpt lat="49.16574" lon="6.12402">
        <ele>257</ele>
        <time>2011-11-06T08:49:19Z</time>
      </trkpt>
      <trkpt lat="49.16582" lon="6.12393">
        <ele>256.6</ele>
        <time>2011-11-06T08:49:20Z</time>
      </trkpt>
      <trkpt lat="49.16591" lon="6.12388">
        <ele>255.3</ele>
        <time>2011-11-06T08:49:21Z</time>
      </trkpt>
      <trkpt lat="49.16596" lon="6.1238">
        <ele>255</ele>
        <time>2011-11-06T08:49:22Z</time>
      </trkpt>
      <trkpt lat="49.16605" lon="6.12373">
        <ele>255</ele>
        <time>2011-11-06T08:49:23Z</time>
      </trkpt>
      <trkpt lat="49.1661" lon="6.12372">
        <ele>256.1</ele>
        <time>2011-11-06T08:49:24Z</time>
      </trkpt>
      <trkpt lat="49.16616" lon="6.12366">
        <ele>256.4</ele>
        <time>2011-11-06T08:49:25Z</time>
      </trkpt>
      <trkpt lat="49.16626" lon="6.12361">
        <ele>256.5</ele>
        <time>2011-11-06T08:49:26Z</time>
      </trkpt>
      <trkpt lat="49.16633" lon="6.12355">
        <ele>256</ele>
        <time>2011-11-06T08:49:27Z</time>
      </trkpt>
      <trkpt lat="49.16639" lon="6.12351">
        <ele>255.9</ele>
        <time>2011-11-06T08:49:28Z</time>
      </trkpt>
      <trkpt lat="49.16644" lon="6.12342">
        <ele>256.9</ele>
        <time>2011-11-06T08:49:29Z</time>
      </trkpt>
      <trkpt lat="49.1665" lon="6.12337">
        <ele>257.5</ele>
        <time>2011-11-06T08:49:30Z</time>
      </trkpt>
      <trkpt lat="49.16658" lon="6.12332">
        <ele>258.5</ele>
        <time>2011-11-06T08:49:31Z</time>
      </trkpt>
      <trkpt lat="49.16666" lon="6.12325">
        <ele>257.8</ele>
        <time>2011-11-06T08:49:32Z</time>
      </trkpt>
      <trkpt lat="49.16671" lon="6.12321">
        <ele>258.2</ele>
        <time>2011-11-06T08:49:33Z</time>
      </trkpt>
      <trkpt lat="49.16676" lon="6.12318">
        <ele>259</ele>
        <time>2011-11-06T08:49:34Z</time>
      </trkpt>
      <trkpt lat="49.16681" lon="6.12314">
        <ele>259</ele>
        <time>2011-11-06T08:49:35Z</time>
      </trkpt>
      <trkpt lat="49.16687" lon="6.12308">
        <ele>258.5</ele>
        <time>2011-11-06T08:49:36Z</time>
      </trkpt>
      <trkpt lat="49.16692" lon="6.12303">
        <ele>257</ele>
        <time>2011-11-06T08:49:37Z</time>
      </trkpt>
      <trkpt lat="49.16698" lon="6.12299">
        <ele>256.6</ele>
        <time>2011-11-06T08:49:38Z</time>
      </trkpt>
      <trkpt lat="49.16703" lon="6.12294">
        <ele>256.9</ele>
        <time>2011-11-06T08:49:39Z</time>
      </trkpt>
      <trkpt lat="49.16712" lon="6.12288">
        <ele>256.5</ele>
        <time>2011-11-06T08:49:41Z</time>
      </trkpt>
      <trkpt lat="49.16717" lon="6.12284">
        <ele>256.5</ele>
        <time>2011-11-06T08:49:42Z</time>
      </trkpt>
      <trkpt lat="49.16723" lon="6.1228">
        <ele>255.7</ele>
        <time>2011-11-06T08:49:43Z</time>
      </trkpt>
      <trkpt lat="49.16728" lon="6.12277">
        <ele>257.5</ele>
        <time>2011-11-06T08:49:44Z</time>
      </trkpt>
      <trkpt lat="49.16733" lon="6.12274">
        <ele>257.3</ele>
        <time>2011-11-06T08:49:45Z</time>
      </trkpt>
      <trkpt lat="49.1674" lon="6.1227">
        <ele>258.1</ele>
        <time>2011-11-06T08:49:46Z</time>
      </trkpt>
      <trkpt lat="49.16745" lon="6.12266">
        <ele>258.4</ele>
        <time>2011-11-06T08:49:47Z</time>
      </trkpt>
      <trkpt lat="49.16749" lon="6.12262">
        <ele>259.1</ele>
        <time>2011-11-06T08:49:48Z</time>
      </trkpt>
      <trkpt lat="49.16754" lon="6.12258">
        <ele>258.6</ele>
        <time>2011-11-06T08:49:49Z</time>
      </trkpt>
      <trkpt lat="49.16759" lon="6.12254">
        <ele>258.8</ele>
        <time>2011-11-06T08:49:50Z</time>
      </trkpt>
      <trkpt lat="49.16764" lon="6.1225">
        <ele>259.1</ele>
        <time>2011-11-06T08:49:51Z</time>
      </trkpt>
      <trkpt lat="49.16769" lon="6.12246">
        <ele>259.1</ele>
        <time>2011-11-06T08:49:52Z</time>
      </trkpt>
      <trkpt lat="49.16775" lon="6.12241">
        <ele>259.1</ele>
        <time>2011-11-06T08:49:53Z</time>
      </trkpt>
      <trkpt lat="49.1678" lon="6.12239">
        <ele>259.2</ele>
        <time>2011-11-06T08:49:54Z</time>
      </trkpt>
      <trkpt lat="49.16787" lon="6.12235">
        <ele>259.7</ele>
        <time>2011-11-06T08:49:55Z</time>
      </trkpt>
      <trkpt lat="49.16793" lon="6.12231">
        <ele>259.9</ele>
        <time>2011-11-06T08:49:56Z</time>
      </trkpt>
      <trkpt lat="49.16798" lon="6.12227">
        <ele>259.7</ele>
        <time>2011-11-06T08:49:57Z</time>
      </trkpt>
      <trkpt lat="49.16804" lon="6.12224">
        <ele>259.6</ele>
        <time>2011-11-06T08:49:58Z</time>
      </trkpt>
      <trkpt lat="49.1681" lon="6.1222">
        <ele>259.6</ele>
        <time>2011-11-06T08:49:59Z</time>
      </trkpt>
      <trkpt lat="49.16815" lon="6.12216">
        <ele>260.1</ele>
        <time>2011-11-06T08:50:00Z</time>
      </trkpt>
      <trkpt lat="49.16821" lon="6.12213">
        <ele>260.2</ele>
        <time>2011-11-06T08:50:01Z</time>
      </trkpt>
      <trkpt lat="49.16825" lon="6.12209">
        <ele>260.6</ele>
        <time>2011-11-06T08:50:02Z</time>
      </trkpt>
      <trkpt lat="49.16831" lon="6.12205">
        <ele>260.5</ele>
        <time>2011-11-06T08:50:03Z</time>
      </trkpt>
      <trkpt lat="49.16838" lon="6.122">
        <ele>260</ele>
        <time>2011-11-06T08:50:04Z</time>
      </trkpt>
      <trkpt lat="49.16844" lon="6.122">
        <ele>260.8</ele>
        <time>2011-11-06T08:50:05Z</time>
      </trkpt>
      <trkpt lat="49.1685" lon="6.12194">
        <ele>261.8</ele>
        <time>2011-11-06T08:50:06Z</time>
      </trkpt>
      <trkpt lat="49.16855" lon="6.1219">
        <ele>262.5</ele>
        <time>2011-11-06T08:50:07Z</time>
      </trkpt>
      <trkpt lat="49.1686" lon="6.12184">
        <ele>262.7</ele>
        <time>2011-11-06T08:50:08Z</time>
      </trkpt>
      <trkpt lat="49.16864" lon="6.12178">
        <ele>263.2</ele>
        <time>2011-11-06T08:50:09Z</time>
      </trkpt>
      <trkpt lat="49.1687" lon="6.12173">
        <ele>263.9</ele>
        <time>2011-11-06T08:50:10Z</time>
      </trkpt>
      <trkpt lat="49.16875" lon="6.12167">
        <ele>264</ele>
        <time>2011-11-06T08:50:11Z</time>
      </trkpt>
      <trkpt lat="49.16878" lon="6.12159">
        <ele>263.9</ele>
        <time>2011-11-06T08:50:12Z</time>
      </trkpt>
      <trkpt lat="49.16882" lon="6.12152">
        <ele>264</ele>
        <time>2011-11-06T08:50:13Z</time>
      </trkpt>
      <trkpt lat="49.16887" lon="6.12145">
        <ele>264.4</ele>
        <time>2011-11-06T08:50:14Z</time>
      </trkpt>
      <trkpt lat="49.16892" lon="6.12137">
        <ele>265.2</ele>
        <time>2011-11-06T08:50:15Z</time>
      </trkpt>
      <trkpt lat="49.16897" lon="6.12131">
        <ele>265.5</ele>
        <time>2011-11-06T08:50:16Z</time>
      </trkpt>
      <trkpt lat="49.16901" lon="6.12123">
        <ele>265.1</ele>
        <time>2011-11-06T08:50:17Z</time>
      </trkpt>
      <trkpt lat="49.16906" lon="6.12115">
        <ele>265</ele>
        <time>2011-11-06T08:50:18Z</time>
      </trkpt>
      <trkpt lat="49.16911" lon="6.12107">
        <ele>265.4</ele>
        <time>2011-11-06T08:50:19Z</time>
      </trkpt>
      <trkpt lat="49.16916" lon="6.12097">
        <ele>265.5</ele>
        <time>2011-11-06T08:50:20Z</time>
      </trkpt>
      <trkpt lat="49.16921" lon="6.12089">
        <ele>265.6</ele>
        <time>2011-11-06T08:50:21Z</time>
      </trkpt>
      <trkpt lat="49.16926" lon="6.12081">
        <ele>265.4</ele>
        <time>2011-11-06T08:50:22Z</time>
      </trkpt>
      <trkpt lat="49.16931" lon="6.12073">
        <ele>264.9</ele>
        <time>2011-11-06T08:50:23Z</time>
      </trkpt>
      <trkpt lat="49.16936" lon="6.12065">
        <ele>264.3</ele>
        <time>2011-11-06T08:50:24Z</time>
      </trkpt>
      <trkpt lat="49.1694" lon="6.12056">
        <ele>264.3</ele>
        <time>2011-11-06T08:50:25Z</time>
      </trkpt>
      <trkpt lat="49.16946" lon="6.12048">
        <ele>264.4</ele>
        <time>2011-11-06T08:50:26Z</time>
      </trkpt>
      <trkpt lat="49.16954" lon="6.12042">
        <ele>264</ele>
        <time>2011-11-06T08:50:27Z</time>
      </trkpt>
      <trkpt lat="49.16959" lon="6.12033">
        <ele>263.2</ele>
        <time>2011-11-06T08:50:28Z</time>
      </trkpt>
      <trkpt lat="49.16964" lon="6.12028">
        <ele>262.9</ele>
        <time>2011-11-06T08:50:29Z</time>
      </trkpt>
      <trkpt lat="49.16969" lon="6.12023">
        <ele>262.5</ele>
        <time>2011-11-06T08:50:30Z</time>
      </trkpt>
      <trkpt lat="49.16975" lon="6.12017">
        <ele>262.4</ele>
        <time>2011-11-06T08:50:31Z</time>
      </trkpt>
      <trkpt lat="49.1698" lon="6.1201">
        <ele>260.9</ele>
        <time>2011-11-06T08:50:32Z</time>
      </trkpt>
      <trkpt lat="49.16986" lon="6.12002">
        <ele>261.2</ele>
        <time>2011-11-06T08:50:33Z</time>
      </trkpt>
      <trkpt lat="49.16992" lon="6.11995">
        <ele>260.5</ele>
        <time>2011-11-06T08:50:34Z</time>
      </trkpt>
      <trkpt lat="49.16997" lon="6.1199">
        <ele>259.5</ele>
        <time>2011-11-06T08:50:35Z</time>
      </trkpt>
      <trkpt lat="49.17004" lon="6.11983">
        <ele>259.7</ele>
        <time>2011-11-06T08:50:36Z</time>
      </trkpt>
      <trkpt lat="49.17011" lon="6.11975">
        <ele>259.5</ele>
        <time>2011-11-06T08:50:37Z</time>
      </trkpt>
      <trkpt lat="49.17018" lon="6.11968">
        <ele>258.9</ele>
        <time>2011-11-06T08:50:38Z</time>
      </trkpt>
      <trkpt lat="49.17024" lon="6.11962">
        <ele>258.5</ele>
        <time>2011-11-06T08:50:39Z</time>
      </trkpt>
      <trkpt lat="49.17032" lon="6.11954">
        <ele>257.8</ele>
        <time>2011-11-06T08:50:40Z</time>
      </trkpt>
      <trkpt lat="49.17039" lon="6.11946">
        <ele>257.2</ele>
        <time>2011-11-06T08:50:41Z</time>
      </trkpt>
      <trkpt lat="49.17046" lon="6.11939">
        <ele>256.2</ele>
        <time>2011-11-06T08:50:42Z</time>
      </trkpt>
      <trkpt lat="49.17053" lon="6.11933">
        <ele>255.9</ele>
        <time>2011-11-06T08:50:43Z</time>
      </trkpt>
      <trkpt lat="49.1706" lon="6.11928">
        <ele>255.4</ele>
        <time>2011-11-06T08:50:44Z</time>
      </trkpt>
      <trkpt lat="49.17067" lon="6.11921">
        <ele>255.1</ele>
        <time>2011-11-06T08:50:45Z</time>
      </trkpt>
      <trkpt lat="49.17076" lon="6.11913">
        <ele>254.9</ele>
        <time>2011-11-06T08:50:46Z</time>
      </trkpt>
      <trkpt lat="49.17083" lon="6.11906">
        <ele>254.9</ele>
        <time>2011-11-06T08:50:47Z</time>
      </trkpt>
      <trkpt lat="49.17091" lon="6.119">
        <ele>254.5</ele>
        <time>2011-11-06T08:50:48Z</time>
      </trkpt>
      <trkpt lat="49.17099" lon="6.11893">
        <ele>254.1</ele>
        <time>2011-11-06T08:50:49Z</time>
      </trkpt>
      <trkpt lat="49.17106" lon="6.11887">
        <ele>253.3</ele>
        <time>2011-11-06T08:50:50Z</time>
      </trkpt>
      <trkpt lat="49.17114" lon="6.11881">
        <ele>252.7</ele>
        <time>2011-11-06T08:50:51Z</time>
      </trkpt>
      <trkpt lat="49.17121" lon="6.11876">
        <ele>252.7</ele>
        <time>2011-11-06T08:50:52Z</time>
      </trkpt>
      <trkpt lat="49.17129" lon="6.11872">
        <ele>252.4</ele>
        <time>2011-11-06T08:50:53Z</time>
      </trkpt>
      <trkpt lat="49.17136" lon="6.11869">
        <ele>252.8</ele>
        <time>2011-11-06T08:50:54Z</time>
      </trkpt>
      <trkpt lat="49.17144" lon="6.11864">
        <ele>252.2</ele>
        <time>2011-11-06T08:50:55Z</time>
      </trkpt>
      <trkpt lat="49.17151" lon="6.1186">
        <ele>252.2</ele>
        <time>2011-11-06T08:50:56Z</time>
      </trkpt>
      <trkpt lat="49.17159" lon="6.11855">
        <ele>252.2</ele>
        <time>2011-11-06T08:50:57Z</time>
      </trkpt>
      <trkpt lat="49.17167" lon="6.11851">
        <ele>252.2</ele>
        <time>2011-11-06T08:50:58Z</time>
      </trkpt>
      <trkpt lat="49.17174" lon="6.11844">
        <ele>252.5</ele>
        <time>2011-11-06T08:50:59Z</time>
      </trkpt>
      <trkpt lat="49.17181" lon="6.11841">
        <ele>252.4</ele>
        <time>2011-11-06T08:51:00Z</time>
      </trkpt>
      <trkpt lat="49.17188" lon="6.11835">
        <ele>252.4</ele>
        <time>2011-11-06T08:51:01Z</time>
      </trkpt>
      <trkpt lat="49.17195" lon="6.1183">
        <ele>252.4</ele>
        <time>2011-11-06T08:51:02Z</time>
      </trkpt>
      <trkpt lat="49.17202" lon="6.11825">
        <ele>252.5</ele>
        <time>2011-11-06T08:51:03Z</time>
      </trkpt>
      <trkpt lat="49.17209" lon="6.1182">
        <ele>252.5</ele>
        <time>2011-11-06T08:51:04Z</time>
      </trkpt>
      <trkpt lat="49.17217" lon="6.11814">
        <ele>252.6</ele>
        <time>2011-11-06T08:51:05Z</time>
      </trkpt>
      <trkpt lat="49.17224" lon="6.11809">
        <ele>252.6</ele>
        <time>2011-11-06T08:51:06Z</time>
      </trkpt>
      <trkpt lat="49.17231" lon="6.11802">
        <ele>252.6</ele>
        <time>2011-11-06T08:51:07Z</time>
      </trkpt>
      <trkpt lat="49.17239" lon="6.118">
        <ele>252.6</ele>
        <time>2011-11-06T08:51:08Z</time>
      </trkpt>
      <trkpt lat="49.17246" lon="6.11795">
        <ele>252.6</ele>
        <time>2011-11-06T08:51:09Z</time>
      </trkpt>
      <trkpt lat="49.17253" lon="6.11793">
        <ele>252.6</ele>
        <time>2011-11-06T08:51:10Z</time>
      </trkpt>
      <trkpt lat="49.1726" lon="6.11787">
        <ele>252.6</ele>
        <time>2011-11-06T08:51:11Z</time>
      </trkpt>
      <trkpt lat="49.17267" lon="6.11786">
        <ele>252.5</ele>
        <time>2011-11-06T08:51:12Z</time>
      </trkpt>
      <trkpt lat="49.17273" lon="6.11784">
        <ele>252.5</ele>
        <time>2011-11-06T08:51:13Z</time>
      </trkpt>
      <trkpt lat="49.1728" lon="6.11779">
        <ele>252.5</ele>
        <time>2011-11-06T08:51:14Z</time>
      </trkpt>
      <trkpt lat="49.17286" lon="6.11774">
        <ele>252.5</ele>
        <time>2011-11-06T08:51:15Z</time>
      </trkpt>
      <trkpt lat="49.17292" lon="6.11769">
        <ele>252.6</ele>
        <time>2011-11-06T08:51:16Z</time>
      </trkpt>
      <trkpt lat="49.17299" lon="6.11764">
        <ele>252.6</ele>
        <time>2011-11-06T08:51:17Z</time>
      </trkpt>
      <trkpt lat="49.17305" lon="6.11759">
        <ele>252.7</ele>
        <time>2011-11-06T08:51:18Z</time>
      </trkpt>
      <trkpt lat="49.17315" lon="6.11753">
        <ele>252.7</ele>
        <time>2011-11-06T08:51:20Z</time>
      </trkpt>
      <trkpt lat="49.17321" lon="6.11749">
        <ele>252.7</ele>
        <time>2011-11-06T08:51:21Z</time>
      </trkpt>
      <trkpt lat="49.17328" lon="6.11749">
        <ele>252.7</ele>
        <time>2011-11-06T08:51:22Z</time>
      </trkpt>
      <trkpt lat="49.1734" lon="6.11746">
        <ele>252.7</ele>
        <time>2011-11-06T08:51:23Z</time>
      </trkpt>
      <trkpt lat="49.17346" lon="6.11742">
        <ele>252.7</ele>
        <time>2011-11-06T08:51:24Z</time>
      </trkpt>
      <trkpt lat="49.17355" lon="6.11736">
        <ele>252.7</ele>
        <time>2011-11-06T08:51:25Z</time>
      </trkpt>
      <trkpt lat="49.17358" lon="6.11729">
        <ele>252.8</ele>
        <time>2011-11-06T08:51:26Z</time>
      </trkpt>
      <trkpt lat="49.17361" lon="6.11722">
        <ele>252.8</ele>
        <time>2011-11-06T08:51:27Z</time>
      </trkpt>
      <trkpt lat="49.17367" lon="6.11714">
        <ele>252.9</ele>
        <time>2011-11-06T08:51:28Z</time>
      </trkpt>
      <trkpt lat="49.17372" lon="6.11709">
        <ele>252.9</ele>
        <time>2011-11-06T08:51:29Z</time>
      </trkpt>
      <trkpt lat="49.17377" lon="6.11705">
        <ele>252.9</ele>
        <time>2011-11-06T08:51:30Z</time>
      </trkpt>
      <trkpt lat="49.17382" lon="6.11702">
        <ele>252.9</ele>
        <time>2011-11-06T08:51:31Z</time>
      </trkpt>
      <trkpt lat="49.17387" lon="6.11696">
        <ele>253</ele>
        <time>2011-11-06T08:51:32Z</time>
      </trkpt>
      <trkpt lat="49.17391" lon="6.11697">
        <ele>253.2</ele>
        <time>2011-11-06T08:51:34Z</time>
      </trkpt>
      <trkpt lat="49.17398" lon="6.11696">
        <ele>253.2</ele>
        <time>2011-11-06T08:51:36Z</time>
      </trkpt>
      <trkpt lat="49.17402" lon="6.1171">
        <ele>253.4</ele>
        <time>2011-11-06T08:51:38Z</time>
      </trkpt>
      <trkpt lat="49.17406" lon="6.11728">
        <ele>253.3</ele>
        <time>2011-11-06T08:51:40Z</time>
      </trkpt>
      <trkpt lat="49.17408" lon="6.11734">
        <ele>253.3</ele>
        <time>2011-11-06T08:51:41Z</time>
      </trkpt>
      <trkpt lat="49.1741" lon="6.11741">
        <ele>253.3</ele>
        <time>2011-11-06T08:51:42Z</time>
      </trkpt>
      <trkpt lat="49.17414" lon="6.11748">
        <ele>253.4</ele>
        <time>2011-11-06T08:51:43Z</time>
      </trkpt>
      <trkpt lat="49.17416" lon="6.11755">
        <ele>253.4</ele>
        <time>2011-11-06T08:51:44Z</time>
      </trkpt>
      <trkpt lat="49.17419" lon="6.11762">
        <ele>253.4</ele>
        <time>2011-11-06T08:51:45Z</time>
      </trkpt>
      <trkpt lat="49.17422" lon="6.11784">
        <ele>253.4</ele>
        <time>2011-11-06T08:51:46Z</time>
      </trkpt>
      <trkpt lat="49.17422" lon="6.11804">
        <ele>253.3</ele>
        <time>2011-11-06T08:51:47Z</time>
      </trkpt>
      <trkpt lat="49.17422" lon="6.11813">
        <ele>253.3</ele>
        <time>2011-11-06T08:51:48Z</time>
      </trkpt>
      <trkpt lat="49.17424" lon="6.11823">
        <ele>253.3</ele>
        <time>2011-11-06T08:51:49Z</time>
      </trkpt>
      <trkpt lat="49.17422" lon="6.11831">
        <ele>253.2</ele>
        <time>2011-11-06T08:51:50Z</time>
      </trkpt>
      <trkpt lat="49.17424" lon="6.11842">
        <ele>253.2</ele>
        <time>2011-11-06T08:51:51Z</time>
      </trkpt>
      <trkpt lat="49.17426" lon="6.11852">
        <ele>253.2</ele>
        <time>2011-11-06T08:51:52Z</time>
      </trkpt>
      <trkpt lat="49.17429" lon="6.11862">
        <ele>253.2</ele>
        <time>2011-11-06T08:51:53Z</time>
      </trkpt>
      <trkpt lat="49.17432" lon="6.11872">
        <ele>253.2</ele>
        <time>2011-11-06T08:51:54Z</time>
      </trkpt>
      <trkpt lat="49.17434" lon="6.11883">
        <ele>253.3</ele>
        <time>2011-11-06T08:51:55Z</time>
      </trkpt>
      <trkpt lat="49.17436" lon="6.11893">
        <ele>253.3</ele>
        <time>2011-11-06T08:51:56Z</time>
      </trkpt>
      <trkpt lat="49.1744" lon="6.11907">
        <ele>253.3</ele>
        <time>2011-11-06T08:51:57Z</time>
      </trkpt>
      <trkpt lat="49.17441" lon="6.11926">
        <ele>253.3</ele>
        <time>2011-11-06T08:51:58Z</time>
      </trkpt>
      <trkpt lat="49.17446" lon="6.1194">
        <ele>253.3</ele>
        <time>2011-11-06T08:51:59Z</time>
      </trkpt>
      <trkpt lat="49.1745" lon="6.11949">
        <ele>253.3</ele>
        <time>2011-11-06T08:52:00Z</time>
      </trkpt>
      <trkpt lat="49.17448" lon="6.11962">
        <ele>253.3</ele>
        <time>2011-11-06T08:52:01Z</time>
      </trkpt>
      <trkpt lat="49.17452" lon="6.11975">
        <ele>253.3</ele>
        <time>2011-11-06T08:52:02Z</time>
      </trkpt>
      <trkpt lat="49.17455" lon="6.11984">
        <ele>253.3</ele>
        <time>2011-11-06T08:52:03Z</time>
      </trkpt>
      <trkpt lat="49.17453" lon="6.11994">
        <ele>253.3</ele>
        <time>2011-11-06T08:52:04Z</time>
      </trkpt>
      <trkpt lat="49.17459" lon="6.12016">
        <ele>253.3</ele>
        <time>2011-11-06T08:52:05Z</time>
      </trkpt>
      <trkpt lat="49.17455" lon="6.12028">
        <ele>253.2</ele>
        <time>2011-11-06T08:52:06Z</time>
      </trkpt>
      <trkpt lat="49.17462" lon="6.12044">
        <ele>253.2</ele>
        <time>2011-11-06T08:52:07Z</time>
      </trkpt>
      <trkpt lat="49.17462" lon="6.12051">
        <ele>253.3</ele>
        <time>2011-11-06T08:52:08Z</time>
      </trkpt>
      <trkpt lat="49.17464" lon="6.12064">
        <ele>253.3</ele>
        <time>2011-11-06T08:52:09Z</time>
      </trkpt>
      <trkpt lat="49.17465" lon="6.12074">
        <ele>253.3</ele>
        <time>2011-11-06T08:52:10Z</time>
      </trkpt>
      <trkpt lat="49.17466" lon="6.12086">
        <ele>253.2</ele>
        <time>2011-11-06T08:52:11Z</time>
      </trkpt>
      <trkpt lat="49.17468" lon="6.12098">
        <ele>253.2</ele>
        <time>2011-11-06T08:52:12Z</time>
      </trkpt>
      <trkpt lat="49.17472" lon="6.12112">
        <ele>253.2</ele>
        <time>2011-11-06T08:52:13Z</time>
      </trkpt>
      <trkpt lat="49.17473" lon="6.12122">
        <ele>253.2</ele>
        <time>2011-11-06T08:52:14Z</time>
      </trkpt>
      <trkpt lat="49.17475" lon="6.12131">
        <ele>253.2</ele>
        <time>2011-11-06T08:52:15Z</time>
      </trkpt>
      <trkpt lat="49.17491" lon="6.12147">
        <ele>253.3</ele>
        <time>2011-11-06T08:52:16Z</time>
      </trkpt>
      <trkpt lat="49.17495" lon="6.12158">
        <ele>253.3</ele>
        <time>2011-11-06T08:52:17Z</time>
      </trkpt>
      <trkpt lat="49.17501" lon="6.12169">
        <ele>253.3</ele>
        <time>2011-11-06T08:52:18Z</time>
      </trkpt>
      <trkpt lat="49.17508" lon="6.12181">
        <ele>253.4</ele>
        <time>2011-11-06T08:52:19Z</time>
      </trkpt>
      <trkpt lat="49.17512" lon="6.12192">
        <ele>253.4</ele>
        <time>2011-11-06T08:52:20Z</time>
      </trkpt>
      <trkpt lat="49.17515" lon="6.12202">
        <ele>253.4</ele>
        <time>2011-11-06T08:52:21Z</time>
      </trkpt>
      <trkpt lat="49.17519" lon="6.12213">
        <ele>253.4</ele>
        <time>2011-11-06T08:52:22Z</time>
      </trkpt>
      <trkpt lat="49.17528" lon="6.12228">
        <ele>253.4</ele>
        <time>2011-11-06T08:52:23Z</time>
      </trkpt>
      <trkpt lat="49.17539" lon="6.12241">
        <ele>253.5</ele>
        <time>2011-11-06T08:52:24Z</time>
      </trkpt>
      <trkpt lat="49.17549" lon="6.1225">
        <ele>247.8</ele>
        <time>2011-11-06T08:52:26Z</time>
      </trkpt>
      <trkpt lat="49.17554" lon="6.12259">
        <ele>249</ele>
        <time>2011-11-06T08:52:27Z</time>
      </trkpt>
      <trkpt lat="49.17559" lon="6.12274">
        <ele>247.1</ele>
        <time>2011-11-06T08:52:29Z</time>
      </trkpt>
      <trkpt lat="49.17563" lon="6.12284">
        <ele>247</ele>
        <time>2011-11-06T08:52:30Z</time>
      </trkpt>
      <trkpt lat="49.17571" lon="6.12297">
        <ele>245.4</ele>
        <time>2011-11-06T08:52:31Z</time>
      </trkpt>
      <trkpt lat="49.17577" lon="6.12309">
        <ele>247.3</ele>
        <time>2011-11-06T08:52:32Z</time>
      </trkpt>
      <trkpt lat="49.17581" lon="6.12318">
        <ele>245.5</ele>
        <time>2011-11-06T08:52:33Z</time>
      </trkpt>
      <trkpt lat="49.17584" lon="6.12331">
        <ele>245.2</ele>
        <time>2011-11-06T08:52:34Z</time>
      </trkpt>
      <trkpt lat="49.17588" lon="6.1234">
        <ele>244.5</ele>
        <time>2011-11-06T08:52:35Z</time>
      </trkpt>
      <trkpt lat="49.17592" lon="6.12351">
        <ele>244.5</ele>
        <time>2011-11-06T08:52:36Z</time>
      </trkpt>
      <trkpt lat="49.17595" lon="6.12363">
        <ele>241.1</ele>
        <time>2011-11-06T08:52:37Z</time>
      </trkpt>
      <trkpt lat="49.17597" lon="6.12375">
        <ele>240.8</ele>
        <time>2011-11-06T08:52:38Z</time>
      </trkpt>
      <trkpt lat="49.17601" lon="6.12386">
        <ele>239.1</ele>
        <time>2011-11-06T08:52:39Z</time>
      </trkpt>
      <trkpt lat="49.17605" lon="6.12396">
        <ele>237.7</ele>
        <time>2011-11-06T08:52:40Z</time>
      </trkpt>
      <trkpt lat="49.17608" lon="6.12409">
        <ele>234.1</ele>
        <time>2011-11-06T08:52:41Z</time>
      </trkpt>
      <trkpt lat="49.17612" lon="6.12421">
        <ele>234.2</ele>
        <time>2011-11-06T08:52:42Z</time>
      </trkpt>
      <trkpt lat="49.17616" lon="6.12433">
        <ele>234.7</ele>
        <time>2011-11-06T08:52:43Z</time>
      </trkpt>
      <trkpt lat="49.17619" lon="6.12444">
        <ele>233.6</ele>
        <time>2011-11-06T08:52:44Z</time>
      </trkpt>
      <trkpt lat="49.17623" lon="6.12455">
        <ele>233.2</ele>
        <time>2011-11-06T08:52:45Z</time>
      </trkpt>
      <trkpt lat="49.17626" lon="6.12466">
        <ele>233.9</ele>
        <time>2011-11-06T08:52:46Z</time>
      </trkpt>
      <trkpt lat="49.1763" lon="6.12478">
        <ele>234.3</ele>
        <time>2011-11-06T08:52:47Z</time>
      </trkpt>
      <trkpt lat="49.17634" lon="6.1249">
        <ele>234.3</ele>
        <time>2011-11-06T08:52:48Z</time>
      </trkpt>
      <trkpt lat="49.17638" lon="6.125">
        <ele>235.8</ele>
        <time>2011-11-06T08:52:49Z</time>
      </trkpt>
      <trkpt lat="49.17642" lon="6.12511">
        <ele>235.8</ele>
        <time>2011-11-06T08:52:50Z</time>
      </trkpt>
      <trkpt lat="49.17641" lon="6.12521">
        <ele>235.3</ele>
        <time>2011-11-06T08:52:51Z</time>
      </trkpt>
      <trkpt lat="49.17644" lon="6.12532">
        <ele>235.3</ele>
        <time>2011-11-06T08:52:52Z</time>
      </trkpt>
      <trkpt lat="49.17648" lon="6.12546">
        <ele>234.7</ele>
        <time>2011-11-06T08:52:53Z</time>
      </trkpt>
      <trkpt lat="49.17651" lon="6.12559">
        <ele>234.9</ele>
        <time>2011-11-06T08:52:54Z</time>
      </trkpt>
      <trkpt lat="49.17654" lon="6.1257">
        <ele>234.9</ele>
        <time>2011-11-06T08:52:55Z</time>
      </trkpt>
      <trkpt lat="49.17656" lon="6.12584">
        <ele>234.1</ele>
        <time>2011-11-06T08:52:56Z</time>
      </trkpt>
      <trkpt lat="49.17658" lon="6.12594">
        <ele>234</ele>
        <time>2011-11-06T08:52:57Z</time>
      </trkpt>
      <trkpt lat="49.1766" lon="6.12609">
        <ele>234.7</ele>
        <time>2011-11-06T08:52:58Z</time>
      </trkpt>
      <trkpt lat="49.17659" lon="6.12622">
        <ele>234.4</ele>
        <time>2011-11-06T08:52:59Z</time>
      </trkpt>
      <trkpt lat="49.17658" lon="6.12635">
        <ele>234.1</ele>
        <time>2011-11-06T08:53:00Z</time>
      </trkpt>
      <trkpt lat="49.17658" lon="6.12648">
        <ele>233.3</ele>
        <time>2011-11-06T08:53:01Z</time>
      </trkpt>
      <trkpt lat="49.17658" lon="6.12663">
        <ele>232.8</ele>
        <time>2011-11-06T08:53:02Z</time>
      </trkpt>
      <trkpt lat="49.1766" lon="6.12677">
        <ele>232.9</ele>
        <time>2011-11-06T08:53:03Z</time>
      </trkpt>
      <trkpt lat="49.17659" lon="6.12691">
        <ele>233.9</ele>
        <time>2011-11-06T08:53:04Z</time>
      </trkpt>
      <trkpt lat="49.17659" lon="6.12703">
        <ele>235.4</ele>
        <time>2011-11-06T08:53:05Z</time>
      </trkpt>
      <trkpt lat="49.1766" lon="6.12717">
        <ele>234.5</ele>
        <time>2011-11-06T08:53:06Z</time>
      </trkpt>
      <trkpt lat="49.1766" lon="6.12731">
        <ele>233.6</ele>
        <time>2011-11-06T08:53:07Z</time>
      </trkpt>
      <trkpt lat="49.1766" lon="6.12742">
        <ele>232.6</ele>
        <time>2011-11-06T08:53:08Z</time>
      </trkpt>
      <trkpt lat="49.17661" lon="6.12756">
        <ele>232.2</ele>
        <time>2011-11-06T08:53:09Z</time>
      </trkpt>
      <trkpt lat="49.17661" lon="6.12769">
        <ele>232.6</ele>
        <time>2011-11-06T08:53:10Z</time>
      </trkpt>
      <trkpt lat="49.17661" lon="6.12784">
        <ele>231.8</ele>
        <time>2011-11-06T08:53:11Z</time>
      </trkpt>
      <trkpt lat="49.17662" lon="6.12796">
        <ele>231.7</ele>
        <time>2011-11-06T08:53:12Z</time>
      </trkpt>
      <trkpt lat="49.17663" lon="6.12809">
        <ele>231.6</ele>
        <time>2011-11-06T08:53:13Z</time>
      </trkpt>
      <trkpt lat="49.17665" lon="6.12825">
        <ele>232.3</ele>
        <time>2011-11-06T08:53:14Z</time>
      </trkpt>
      <trkpt lat="49.17666" lon="6.12838">
        <ele>232.3</ele>
        <time>2011-11-06T08:53:15Z</time>
      </trkpt>
      <trkpt lat="49.17666" lon="6.12853">
        <ele>232.6</ele>
        <time>2011-11-06T08:53:16Z</time>
      </trkpt>
      <trkpt lat="49.17668" lon="6.12865">
        <ele>232.8</ele>
        <time>2011-11-06T08:53:17Z</time>
      </trkpt>
      <trkpt lat="49.17669" lon="6.12878">
        <ele>232.8</ele>
        <time>2011-11-06T08:53:18Z</time>
      </trkpt>
      <trkpt lat="49.1767" lon="6.12889">
        <ele>233.2</ele>
        <time>2011-11-06T08:53:19Z</time>
      </trkpt>
      <trkpt lat="49.17673" lon="6.12899">
        <ele>233.2</ele>
        <time>2011-11-06T08:53:20Z</time>
      </trkpt>
      <trkpt lat="49.17678" lon="6.12908">
        <ele>233.4</ele>
        <time>2011-11-06T08:53:21Z</time>
      </trkpt>
      <trkpt lat="49.17683" lon="6.12917">
        <ele>233.2</ele>
        <time>2011-11-06T08:53:22Z</time>
      </trkpt>
      <trkpt lat="49.17688" lon="6.12926">
        <ele>233.3</ele>
        <time>2011-11-06T08:53:23Z</time>
      </trkpt>
      <trkpt lat="49.17692" lon="6.12933">
        <ele>233.2</ele>
        <time>2011-11-06T08:53:24Z</time>
      </trkpt>
      <trkpt lat="49.17695" lon="6.12941">
        <ele>233.3</ele>
        <time>2011-11-06T08:53:25Z</time>
      </trkpt>
      <trkpt lat="49.17699" lon="6.12949">
        <ele>233.5</ele>
        <time>2011-11-06T08:53:26Z</time>
      </trkpt>
      <trkpt lat="49.17704" lon="6.12956">
        <ele>233.8</ele>
        <time>2011-11-06T08:53:27Z</time>
      </trkpt>
      <trkpt lat="49.17707" lon="6.12964">
        <ele>234</ele>
        <time>2011-11-06T08:53:28Z</time>
      </trkpt>
      <trkpt lat="49.17712" lon="6.12972">
        <ele>234.4</ele>
        <time>2011-11-06T08:53:29Z</time>
      </trkpt>
      <trkpt lat="49.17717" lon="6.12981">
        <ele>234.7</ele>
        <time>2011-11-06T08:53:30Z</time>
      </trkpt>
      <trkpt lat="49.17721" lon="6.1299">
        <ele>234.9</ele>
        <time>2011-11-06T08:53:31Z</time>
      </trkpt>
      <trkpt lat="49.17723" lon="6.12996">
        <ele>234.8</ele>
        <time>2011-11-06T08:53:32Z</time>
      </trkpt>
      <trkpt lat="49.17726" lon="6.13005">
        <ele>234.8</ele>
        <time>2011-11-06T08:53:33Z</time>
      </trkpt>
      <trkpt lat="49.17729" lon="6.13014">
        <ele>234.5</ele>
        <time>2011-11-06T08:53:34Z</time>
      </trkpt>
      <trkpt lat="49.17735" lon="6.13022">
        <ele>234.4</ele>
        <time>2011-11-06T08:53:35Z</time>
      </trkpt>
      <trkpt lat="49.17737" lon="6.13031">
        <ele>234</ele>
        <time>2011-11-06T08:53:36Z</time>
      </trkpt>
      <trkpt lat="49.1774" lon="6.13037">
        <ele>234.2</ele>
        <time>2011-11-06T08:53:37Z</time>
      </trkpt>
      <trkpt lat="49.17743" lon="6.13046">
        <ele>234.2</ele>
        <time>2011-11-06T08:53:38Z</time>
      </trkpt>
      <trkpt lat="49.17748" lon="6.13055">
        <ele>234</ele>
        <time>2011-11-06T08:53:39Z</time>
      </trkpt>
      <trkpt lat="49.1775" lon="6.13063">
        <ele>234.2</ele>
        <time>2011-11-06T08:53:40Z</time>
      </trkpt>
      <trkpt lat="49.17753" lon="6.13073">
        <ele>234.1</ele>
        <time>2011-11-06T08:53:41Z</time>
      </trkpt>
      <trkpt lat="49.17756" lon="6.13083">
        <ele>234.1</ele>
        <time>2011-11-06T08:53:42Z</time>
      </trkpt>
      <trkpt lat="49.17759" lon="6.13091">
        <ele>234</ele>
        <time>2011-11-06T08:53:43Z</time>
      </trkpt>
      <trkpt lat="49.1776" lon="6.13098">
        <ele>234.2</ele>
        <time>2011-11-06T08:53:44Z</time>
      </trkpt>
      <trkpt lat="49.17764" lon="6.13108">
        <ele>234.4</ele>
        <time>2011-11-06T08:53:45Z</time>
      </trkpt>
      <trkpt lat="49.17768" lon="6.1312">
        <ele>234.1</ele>
        <time>2011-11-06T08:53:46Z</time>
      </trkpt>
      <trkpt lat="49.17772" lon="6.13128">
        <ele>233.9</ele>
        <time>2011-11-06T08:53:47Z</time>
      </trkpt>
      <trkpt lat="49.17777" lon="6.13141">
        <ele>233.7</ele>
        <time>2011-11-06T08:53:48Z</time>
      </trkpt>
      <trkpt lat="49.17782" lon="6.13153">
        <ele>233.4</ele>
        <time>2011-11-06T08:53:49Z</time>
      </trkpt>
      <trkpt lat="49.17786" lon="6.13163">
        <ele>233.9</ele>
        <time>2011-11-06T08:53:50Z</time>
      </trkpt>
      <trkpt lat="49.17791" lon="6.13175">
        <ele>234</ele>
        <time>2011-11-06T08:53:51Z</time>
      </trkpt>
      <trkpt lat="49.17796" lon="6.13186">
        <ele>234.2</ele>
        <time>2011-11-06T08:53:52Z</time>
      </trkpt>
      <trkpt lat="49.17803" lon="6.132">
        <ele>234.3</ele>
        <time>2011-11-06T08:53:53Z</time>
      </trkpt>
      <trkpt lat="49.17807" lon="6.1321">
        <ele>234.3</ele>
        <time>2011-11-06T08:53:54Z</time>
      </trkpt>
      <trkpt lat="49.17816" lon="6.13223">
        <ele>235.8</ele>
        <time>2011-11-06T08:53:55Z</time>
      </trkpt>
      <trkpt lat="49.1782" lon="6.13234">
        <ele>235.8</ele>
        <time>2011-11-06T08:53:56Z</time>
      </trkpt>
      <trkpt lat="49.17822" lon="6.13244">
        <ele>235.1</ele>
        <time>2011-11-06T08:53:57Z</time>
      </trkpt>
      <trkpt lat="49.17826" lon="6.13255">
        <ele>235.1</ele>
        <time>2011-11-06T08:53:58Z</time>
      </trkpt>
      <trkpt lat="49.17828" lon="6.13262">
        <ele>234.8</ele>
        <time>2011-11-06T08:53:59Z</time>
      </trkpt>
      <trkpt lat="49.17831" lon="6.13272">
        <ele>234.8</ele>
        <time>2011-11-06T08:54:00Z</time>
      </trkpt>
      <trkpt lat="49.17835" lon="6.13283">
        <ele>234.6</ele>
        <time>2011-11-06T08:54:01Z</time>
      </trkpt>
      <trkpt lat="49.17837" lon="6.13294">
        <ele>234.9</ele>
        <time>2011-11-06T08:54:02Z</time>
      </trkpt>
      <trkpt lat="49.1784" lon="6.13304">
        <ele>234.5</ele>
        <time>2011-11-06T08:54:03Z</time>
      </trkpt>
      <trkpt lat="49.17842" lon="6.13312">
        <ele>234.5</ele>
        <time>2011-11-06T08:54:04Z</time>
      </trkpt>
      <trkpt lat="49.17842" lon="6.13319">
        <ele>233.7</ele>
        <time>2011-11-06T08:54:05Z</time>
      </trkpt>
      <trkpt lat="49.17845" lon="6.1333">
        <ele>235</ele>
        <time>2011-11-06T08:54:06Z</time>
      </trkpt>
      <trkpt lat="49.17847" lon="6.1334">
        <ele>235</ele>
        <time>2011-11-06T08:54:07Z</time>
      </trkpt>
      <trkpt lat="49.17848" lon="6.13349">
        <ele>235.2</ele>
        <time>2011-11-06T08:54:08Z</time>
      </trkpt>
      <trkpt lat="49.17852" lon="6.13362">
        <ele>235.9</ele>
        <time>2011-11-06T08:54:09Z</time>
      </trkpt>
      <trkpt lat="49.17852" lon="6.1337">
        <ele>234.6</ele>
        <time>2011-11-06T08:54:10Z</time>
      </trkpt>
      <trkpt lat="49.17855" lon="6.13378">
        <ele>234.9</ele>
        <time>2011-11-06T08:54:11Z</time>
      </trkpt>
      <trkpt lat="49.17857" lon="6.13387">
        <ele>234.5</ele>
        <time>2011-11-06T08:54:12Z</time>
      </trkpt>
      <trkpt lat="49.1786" lon="6.13403">
        <ele>233.9</ele>
        <time>2011-11-06T08:54:14Z</time>
      </trkpt>
      <trkpt lat="49.17861" lon="6.13412">
        <ele>233.5</ele>
        <time>2011-11-06T08:54:15Z</time>
      </trkpt>
      <trkpt lat="49.17861" lon="6.13422">
        <ele>232.5</ele>
        <time>2011-11-06T08:54:16Z</time>
      </trkpt>
      <trkpt lat="49.17863" lon="6.13433">
        <ele>232.8</ele>
        <time>2011-11-06T08:54:17Z</time>
      </trkpt>
      <trkpt lat="49.17865" lon="6.13442">
        <ele>232.8</ele>
        <time>2011-11-06T08:54:18Z</time>
      </trkpt>
      <trkpt lat="49.17865" lon="6.13451">
        <ele>233</ele>
        <time>2011-11-06T08:54:19Z</time>
      </trkpt>
      <trkpt lat="49.17864" lon="6.1346">
        <ele>233.1</ele>
        <time>2011-11-06T08:54:20Z</time>
      </trkpt>
      <trkpt lat="49.17864" lon="6.1347">
        <ele>233.3</ele>
        <time>2011-11-06T08:54:21Z</time>
      </trkpt>
      <trkpt lat="49.17864" lon="6.13481">
        <ele>233.1</ele>
        <time>2011-11-06T08:54:22Z</time>
      </trkpt>
      <trkpt lat="49.17865" lon="6.13492">
        <ele>235.6</ele>
        <time>2011-11-06T08:54:23Z</time>
      </trkpt>
      <trkpt lat="49.17865" lon="6.13503">
        <ele>235.4</ele>
        <time>2011-11-06T08:54:24Z</time>
      </trkpt>
      <trkpt lat="49.17865" lon="6.13514">
        <ele>234.6</ele>
        <time>2011-11-06T08:54:25Z</time>
      </trkpt>
      <trkpt lat="49.17865" lon="6.13524">
        <ele>234.5</ele>
        <time>2011-11-06T08:54:26Z</time>
      </trkpt>
      <trkpt lat="49.17866" lon="6.13535">
        <ele>234.4</ele>
        <time>2011-11-06T08:54:27Z</time>
      </trkpt>
      <trkpt lat="49.17867" lon="6.13545">
        <ele>234.5</ele>
        <time>2011-11-06T08:54:28Z</time>
      </trkpt>
      <trkpt lat="49.17869" lon="6.13555">
        <ele>234.6</ele>
        <time>2011-11-06T08:54:29Z</time>
      </trkpt>
      <trkpt lat="49.17872" lon="6.13566">
        <ele>234.6</ele>
        <time>2011-11-06T08:54:30Z</time>
      </trkpt>
      <trkpt lat="49.17874" lon="6.13577">
        <ele>233.4</ele>
        <time>2011-11-06T08:54:31Z</time>
      </trkpt>
      <trkpt lat="49.17877" lon="6.13586">
        <ele>232.4</ele>
        <time>2011-11-06T08:54:32Z</time>
      </trkpt>
      <trkpt lat="49.17878" lon="6.13597">
        <ele>231.8</ele>
        <time>2011-11-06T08:54:33Z</time>
      </trkpt>
      <trkpt lat="49.1788" lon="6.13609">
        <ele>231.5</ele>
        <time>2011-11-06T08:54:34Z</time>
      </trkpt>
      <trkpt lat="49.17883" lon="6.13626">
        <ele>231.4</ele>
        <time>2011-11-06T08:54:35Z</time>
      </trkpt>
      <trkpt lat="49.17884" lon="6.13638">
        <ele>230.8</ele>
        <time>2011-11-06T08:54:36Z</time>
      </trkpt>
      <trkpt lat="49.17886" lon="6.13654">
        <ele>229.4</ele>
        <time>2011-11-06T08:54:37Z</time>
      </trkpt>
      <trkpt lat="49.17889" lon="6.13668">
        <ele>230.5</ele>
        <time>2011-11-06T08:54:38Z</time>
      </trkpt>
      <trkpt lat="49.1789" lon="6.13681">
        <ele>229.4</ele>
        <time>2011-11-06T08:54:39Z</time>
      </trkpt>
      <trkpt lat="49.17892" lon="6.13695">
        <ele>229.7</ele>
        <time>2011-11-06T08:54:40Z</time>
      </trkpt>
      <trkpt lat="49.17893" lon="6.1371">
        <ele>229</ele>
        <time>2011-11-06T08:54:41Z</time>
      </trkpt>
      <trkpt lat="49.17893" lon="6.13723">
        <ele>228.6</ele>
        <time>2011-11-06T08:54:42Z</time>
      </trkpt>
      <trkpt lat="49.17893" lon="6.13738">
        <ele>227.2</ele>
        <time>2011-11-06T08:54:43Z</time>
      </trkpt>
      <trkpt lat="49.17893" lon="6.13752">
        <ele>227.7</ele>
        <time>2011-11-06T08:54:44Z</time>
      </trkpt>
      <trkpt lat="49.17892" lon="6.13768">
        <ele>228.1</ele>
        <time>2011-11-06T08:54:45Z</time>
      </trkpt>
      <trkpt lat="49.1789" lon="6.13781">
        <ele>227.5</ele>
        <time>2011-11-06T08:54:46Z</time>
      </trkpt>
      <trkpt lat="49.17888" lon="6.13796">
        <ele>227.1</ele>
        <time>2011-11-06T08:54:47Z</time>
      </trkpt>
      <trkpt lat="49.17886" lon="6.13811">
        <ele>227.1</ele>
        <time>2011-11-06T08:54:48Z</time>
      </trkpt>
      <trkpt lat="49.17884" lon="6.13825">
        <ele>227.4</ele>
        <time>2011-11-06T08:54:49Z</time>
      </trkpt>
      <trkpt lat="49.17882" lon="6.1384">
        <ele>226.8</ele>
        <time>2011-11-06T08:54:50Z</time>
      </trkpt>
      <trkpt lat="49.17879" lon="6.13854">
        <ele>226.6</ele>
        <time>2011-11-06T08:54:51Z</time>
      </trkpt>
      <trkpt lat="49.17876" lon="6.13866">
        <ele>226.2</ele>
        <time>2011-11-06T08:54:52Z</time>
      </trkpt>
      <trkpt lat="49.17874" lon="6.13879">
        <ele>226.2</ele>
        <time>2011-11-06T08:54:53Z</time>
      </trkpt>
      <trkpt lat="49.1787" lon="6.13891">
        <ele>224.7</ele>
        <time>2011-11-06T08:54:54Z</time>
      </trkpt>
      <trkpt lat="49.17867" lon="6.13903">
        <ele>223.4</ele>
        <time>2011-11-06T08:54:55Z</time>
      </trkpt>
      <trkpt lat="49.17863" lon="6.13917">
        <ele>223.6</ele>
        <time>2011-11-06T08:54:56Z</time>
      </trkpt>
      <trkpt lat="49.17861" lon="6.13927">
        <ele>223.5</ele>
        <time>2011-11-06T08:54:57Z</time>
      </trkpt>
      <trkpt lat="49.17857" lon="6.13937">
        <ele>223.1</ele>
        <time>2011-11-06T08:54:58Z</time>
      </trkpt>
      <trkpt lat="49.17855" lon="6.13947">
        <ele>224.4</ele>
        <time>2011-11-06T08:54:59Z</time>
      </trkpt>
      <trkpt lat="49.17851" lon="6.13958">
        <ele>224.6</ele>
        <time>2011-11-06T08:55:00Z</time>
      </trkpt>
      <trkpt lat="49.17847" lon="6.13967">
        <ele>224.8</ele>
        <time>2011-11-06T08:55:01Z</time>
      </trkpt>
      <trkpt lat="49.17843" lon="6.13978">
        <ele>224.9</ele>
        <time>2011-11-06T08:55:02Z</time>
      </trkpt>
      <trkpt lat="49.17842" lon="6.13994">
        <ele>223.4</ele>
        <time>2011-11-06T08:55:03Z</time>
      </trkpt>
      <trkpt lat="49.17839" lon="6.14007">
        <ele>223.3</ele>
        <time>2011-11-06T08:55:04Z</time>
      </trkpt>
      <trkpt lat="49.17835" lon="6.14016">
        <ele>224</ele>
        <time>2011-11-06T08:55:05Z</time>
      </trkpt>
      <trkpt lat="49.17833" lon="6.14028">
        <ele>223.6</ele>
        <time>2011-11-06T08:55:06Z</time>
      </trkpt>
      <trkpt lat="49.1783" lon="6.14038">
        <ele>223.9</ele>
        <time>2011-11-06T08:55:07Z</time>
      </trkpt>
      <trkpt lat="49.17831" lon="6.14055">
        <ele>224.5</ele>
        <time>2011-11-06T08:55:08Z</time>
      </trkpt>
      <trkpt lat="49.17831" lon="6.14068">
        <ele>224.4</ele>
        <time>2011-11-06T08:55:09Z</time>
      </trkpt>
      <trkpt lat="49.17833" lon="6.1408">
        <ele>222.8</ele>
        <time>2011-11-06T08:55:10Z</time>
      </trkpt>
      <trkpt lat="49.17834" lon="6.14093">
        <ele>222.4</ele>
        <time>2011-11-06T08:55:11Z</time>
      </trkpt>
      <trkpt lat="49.17836" lon="6.14107">
        <ele>222.9</ele>
        <time>2011-11-06T08:55:12Z</time>
      </trkpt>
      <trkpt lat="49.17837" lon="6.14123">
        <ele>222</ele>
        <time>2011-11-06T08:55:13Z</time>
      </trkpt>
      <trkpt lat="49.1784" lon="6.14136">
        <ele>222.1</ele>
        <time>2011-11-06T08:55:14Z</time>
      </trkpt>
      <trkpt lat="49.17841" lon="6.1415">
        <ele>221.7</ele>
        <time>2011-11-06T08:55:15Z</time>
      </trkpt>
      <trkpt lat="49.17842" lon="6.14166">
        <ele>220.8</ele>
        <time>2011-11-06T08:55:16Z</time>
      </trkpt>
      <trkpt lat="49.17844" lon="6.14177">
        <ele>220.6</ele>
        <time>2011-11-06T08:55:17Z</time>
      </trkpt>
      <trkpt lat="49.17845" lon="6.14192">
        <ele>220.1</ele>
        <time>2011-11-06T08:55:18Z</time>
      </trkpt>
      <trkpt lat="49.17846" lon="6.14204">
        <ele>219.9</ele>
        <time>2011-11-06T08:55:19Z</time>
      </trkpt>
      <trkpt lat="49.17847" lon="6.14218">
        <ele>219.4</ele>
        <time>2011-11-06T08:55:20Z</time>
      </trkpt>
      <trkpt lat="49.17847" lon="6.1423">
        <ele>219.7</ele>
        <time>2011-11-06T08:55:21Z</time>
      </trkpt>
      <trkpt lat="49.17847" lon="6.14243">
        <ele>219.7</ele>
        <time>2011-11-06T08:55:22Z</time>
      </trkpt>
      <trkpt lat="49.17847" lon="6.14256">
        <ele>219.5</ele>
        <time>2011-11-06T08:55:23Z</time>
      </trkpt>
      <trkpt lat="49.17845" lon="6.14268">
        <ele>219.3</ele>
        <time>2011-11-06T08:55:24Z</time>
      </trkpt>
      <trkpt lat="49.17844" lon="6.14278">
        <ele>218.7</ele>
        <time>2011-11-06T08:55:25Z</time>
      </trkpt>
      <trkpt lat="49.17843" lon="6.14291">
        <ele>218.7</ele>
        <time>2011-11-06T08:55:26Z</time>
      </trkpt>
      <trkpt lat="49.17843" lon="6.14307">
        <ele>218.6</ele>
        <time>2011-11-06T08:55:27Z</time>
      </trkpt>
      <trkpt lat="49.1784" lon="6.14319">
        <ele>218.4</ele>
        <time>2011-11-06T08:55:28Z</time>
      </trkpt>
      <trkpt lat="49.17839" lon="6.14332">
        <ele>218.3</ele>
        <time>2011-11-06T08:55:29Z</time>
      </trkpt>
      <trkpt lat="49.17839" lon="6.14342">
        <ele>218.1</ele>
        <time>2011-11-06T08:55:30Z</time>
      </trkpt>
      <trkpt lat="49.17839" lon="6.14354">
        <ele>218.1</ele>
        <time>2011-11-06T08:55:31Z</time>
      </trkpt>
      <trkpt lat="49.17839" lon="6.14369">
        <ele>218.1</ele>
        <time>2011-11-06T08:55:32Z</time>
      </trkpt>
      <trkpt lat="49.17838" lon="6.14381">
        <ele>218.1</ele>
        <time>2011-11-06T08:55:33Z</time>
      </trkpt>
      <trkpt lat="49.17841" lon="6.14395">
        <ele>217.8</ele>
        <time>2011-11-06T08:55:34Z</time>
      </trkpt>
      <trkpt lat="49.1784" lon="6.14403">
        <ele>217.5</ele>
        <time>2011-11-06T08:55:35Z</time>
      </trkpt>
      <trkpt lat="49.1784" lon="6.14419">
        <ele>216.9</ele>
        <time>2011-11-06T08:55:36Z</time>
      </trkpt>
      <trkpt lat="49.1784" lon="6.14433">
        <ele>218.5</ele>
        <time>2011-11-06T08:55:37Z</time>
      </trkpt>
      <trkpt lat="49.17841" lon="6.14445">
        <ele>218.5</ele>
        <time>2011-11-06T08:55:38Z</time>
      </trkpt>
      <trkpt lat="49.17841" lon="6.14457">
        <ele>219.7</ele>
        <time>2011-11-06T08:55:39Z</time>
      </trkpt>
      <trkpt lat="49.17842" lon="6.14469">
        <ele>218.1</ele>
        <time>2011-11-06T08:55:40Z</time>
      </trkpt>
      <trkpt lat="49.17843" lon="6.14481">
        <ele>217.9</ele>
        <time>2011-11-06T08:55:41Z</time>
      </trkpt>
      <trkpt lat="49.17844" lon="6.14494">
        <ele>217.6</ele>
        <time>2011-11-06T08:55:42Z</time>
      </trkpt>
      <trkpt lat="49.17844" lon="6.14504">
        <ele>218</ele>
        <time>2011-11-06T08:55:43Z</time>
      </trkpt>
      <trkpt lat="49.17843" lon="6.14515">
        <ele>216.1</ele>
        <time>2011-11-06T08:55:44Z</time>
      </trkpt>
      <trkpt lat="49.17843" lon="6.14526">
        <ele>215.4</ele>
        <time>2011-11-06T08:55:45Z</time>
      </trkpt>
      <trkpt lat="49.17844" lon="6.14536">
        <ele>215.4</ele>
        <time>2011-11-06T08:55:46Z</time>
      </trkpt>
      <trkpt lat="49.17843" lon="6.14546">
        <ele>213.5</ele>
        <time>2011-11-06T08:55:47Z</time>
      </trkpt>
      <trkpt lat="49.17843" lon="6.14558">
        <ele>213.4</ele>
        <time>2011-11-06T08:55:48Z</time>
      </trkpt>
      <trkpt lat="49.17841" lon="6.14568">
        <ele>212.8</ele>
        <time>2011-11-06T08:55:49Z</time>
      </trkpt>
      <trkpt lat="49.17839" lon="6.14578">
        <ele>212.9</ele>
        <time>2011-11-06T08:55:50Z</time>
      </trkpt>
      <trkpt lat="49.17837" lon="6.14588">
        <ele>213.8</ele>
        <time>2011-11-06T08:55:51Z</time>
      </trkpt>
      <trkpt lat="49.17835" lon="6.14597">
        <ele>213.6</ele>
        <time>2011-11-06T08:55:52Z</time>
      </trkpt>
      <trkpt lat="49.17834" lon="6.14608">
        <ele>212.8</ele>
        <time>2011-11-06T08:55:53Z</time>
      </trkpt>
      <trkpt lat="49.17836" lon="6.1462">
        <ele>211.4</ele>
        <time>2011-11-06T08:55:54Z</time>
      </trkpt>
      <trkpt lat="49.17837" lon="6.14631">
        <ele>211.6</ele>
        <time>2011-11-06T08:55:55Z</time>
      </trkpt>
      <trkpt lat="49.17837" lon="6.14643">
        <ele>211.9</ele>
        <time>2011-11-06T08:55:56Z</time>
      </trkpt>
      <trkpt lat="49.17837" lon="6.14656">
        <ele>211.6</ele>
        <time>2011-11-06T08:55:57Z</time>
      </trkpt>
      <trkpt lat="49.17837" lon="6.14668">
        <ele>212.1</ele>
        <time>2011-11-06T08:55:58Z</time>
      </trkpt>
      <trkpt lat="49.17836" lon="6.14679">
        <ele>212.6</ele>
        <time>2011-11-06T08:55:59Z</time>
      </trkpt>
      <trkpt lat="49.17837" lon="6.14693">
        <ele>213.1</ele>
        <time>2011-11-06T08:56:00Z</time>
      </trkpt>
      <trkpt lat="49.17836" lon="6.14704">
        <ele>213.5</ele>
        <time>2011-11-06T08:56:01Z</time>
      </trkpt>
      <trkpt lat="49.17837" lon="6.14716">
        <ele>213.8</ele>
        <time>2011-11-06T08:56:02Z</time>
      </trkpt>
      <trkpt lat="49.17836" lon="6.14727">
        <ele>214.7</ele>
        <time>2011-11-06T08:56:03Z</time>
      </trkpt>
      <trkpt lat="49.17836" lon="6.14738">
        <ele>214.7</ele>
        <time>2011-11-06T08:56:04Z</time>
      </trkpt>
      <trkpt lat="49.17836" lon="6.14751">
        <ele>214.2</ele>
        <time>2011-11-06T08:56:05Z</time>
      </trkpt>
      <trkpt lat="49.17835" lon="6.1476">
        <ele>214</ele>
        <time>2011-11-06T08:56:06Z</time>
      </trkpt>
      <trkpt lat="49.17835" lon="6.14772">
        <ele>214.4</ele>
        <time>2011-11-06T08:56:07Z</time>
      </trkpt>
      <trkpt lat="49.17836" lon="6.14783">
        <ele>214.9</ele>
        <time>2011-11-06T08:56:08Z</time>
      </trkpt>
      <trkpt lat="49.17838" lon="6.14796">
        <ele>214.2</ele>
        <time>2011-11-06T08:56:09Z</time>
      </trkpt>
      <trkpt lat="49.1784" lon="6.14808">
        <ele>214.1</ele>
        <time>2011-11-06T08:56:10Z</time>
      </trkpt>
      <trkpt lat="49.17843" lon="6.14819">
        <ele>214.6</ele>
        <time>2011-11-06T08:56:11Z</time>
      </trkpt>
      <trkpt lat="49.17845" lon="6.14828">
        <ele>214.6</ele>
        <time>2011-11-06T08:56:12Z</time>
      </trkpt>
      <trkpt lat="49.17847" lon="6.14838">
        <ele>215.4</ele>
        <time>2011-11-06T08:56:13Z</time>
      </trkpt>
      <trkpt lat="49.17848" lon="6.14848">
        <ele>215.5</ele>
        <time>2011-11-06T08:56:14Z</time>
      </trkpt>
      <trkpt lat="49.17846" lon="6.14858">
        <ele>215.7</ele>
        <time>2011-11-06T08:56:15Z</time>
      </trkpt>
      <trkpt lat="49.17845" lon="6.14868">
        <ele>215.8</ele>
        <time>2011-11-06T08:56:16Z</time>
      </trkpt>
      <trkpt lat="49.17845" lon="6.14878">
        <ele>215.2</ele>
        <time>2011-11-06T08:56:17Z</time>
      </trkpt>
      <trkpt lat="49.17847" lon="6.14889">
        <ele>215.5</ele>
        <time>2011-11-06T08:56:18Z</time>
      </trkpt>
      <trkpt lat="49.17849" lon="6.149">
        <ele>215.4</ele>
        <time>2011-11-06T08:56:19Z</time>
      </trkpt>
      <trkpt lat="49.17851" lon="6.14907">
        <ele>214.3</ele>
        <time>2011-11-06T08:56:20Z</time>
      </trkpt>
      <trkpt lat="49.17854" lon="6.14916">
        <ele>214</ele>
        <time>2011-11-06T08:56:21Z</time>
      </trkpt>
      <trkpt lat="49.17857" lon="6.14924">
        <ele>214</ele>
        <time>2011-11-06T08:56:22Z</time>
      </trkpt>
      <trkpt lat="49.17863" lon="6.14925">
        <ele>215.1</ele>
        <time>2011-11-06T08:56:23Z</time>
      </trkpt>
      <trkpt lat="49.17867" lon="6.14929">
        <ele>215.3</ele>
        <time>2011-11-06T08:56:24Z</time>
      </trkpt>
      <trkpt lat="49.17873" lon="6.1493">
        <ele>215.7</ele>
        <time>2011-11-06T08:56:25Z</time>
      </trkpt>
      <trkpt lat="49.17881" lon="6.14928">
        <ele>214.9</ele>
        <time>2011-11-06T08:56:26Z</time>
      </trkpt>
      <trkpt lat="49.17887" lon="6.14926">
        <ele>214.7</ele>
        <time>2011-11-06T08:56:27Z</time>
      </trkpt>
      <trkpt lat="49.17895" lon="6.14921">
        <ele>215.5</ele>
        <time>2011-11-06T08:56:28Z</time>
      </trkpt>
      <trkpt lat="49.17901" lon="6.14917">
        <ele>215.4</ele>
        <time>2011-11-06T08:56:29Z</time>
      </trkpt>
      <trkpt lat="49.17907" lon="6.14916">
        <ele>215.7</ele>
        <time>2011-11-06T08:56:30Z</time>
      </trkpt>
      <trkpt lat="49.17913" lon="6.14913">
        <ele>215.6</ele>
        <time>2011-11-06T08:56:31Z</time>
      </trkpt>
      <trkpt lat="49.17913" lon="6.14902">
        <ele>215.3</ele>
        <time>2011-11-06T08:56:32Z</time>
      </trkpt>
      <trkpt lat="49.17914" lon="6.14894">
        <ele>215.5</ele>
        <time>2011-11-06T08:56:33Z</time>
      </trkpt>
      <trkpt lat="49.17915" lon="6.14885">
        <ele>214.8</ele>
        <time>2011-11-06T08:56:34Z</time>
      </trkpt>
      <trkpt lat="49.17915" lon="6.14876">
        <ele>214.8</ele>
        <time>2011-11-06T08:56:35Z</time>
      </trkpt>
      <trkpt lat="49.17915" lon="6.14864">
        <ele>214.8</ele>
        <time>2011-11-06T08:56:36Z</time>
      </trkpt>
      <trkpt lat="49.17914" lon="6.14855">
        <ele>215</ele>
        <time>2011-11-06T08:56:37Z</time>
      </trkpt>
      <trkpt lat="49.17912" lon="6.14848">
        <ele>215.1</ele>
        <time>2011-11-06T08:56:38Z</time>
      </trkpt>
      <trkpt lat="49.17907" lon="6.1484">
        <ele>214.8</ele>
        <time>2011-11-06T08:56:39Z</time>
      </trkpt>
      <trkpt lat="49.17902" lon="6.14834">
        <ele>215.2</ele>
        <time>2011-11-06T08:56:40Z</time>
      </trkpt>
      <trkpt lat="49.17894" lon="6.14828">
        <ele>214.7</ele>
        <time>2011-11-06T08:56:41Z</time>
      </trkpt>
      <trkpt lat="49.17888" lon="6.14824">
        <ele>214.7</ele>
        <time>2011-11-06T08:56:42Z</time>
      </trkpt>
      <trkpt lat="49.17882" lon="6.14821">
        <ele>214.4</ele>
        <time>2011-11-06T08:56:43Z</time>
      </trkpt>
      <trkpt lat="49.17874" lon="6.14824">
        <ele>214.2</ele>
        <time>2011-11-06T08:56:44Z</time>
      </trkpt>
      <trkpt lat="49.17868" lon="6.14828">
        <ele>213.9</ele>
        <time>2011-11-06T08:56:45Z</time>
      </trkpt>
      <trkpt lat="49.17863" lon="6.14834">
        <ele>213.3</ele>
        <time>2011-11-06T08:56:46Z</time>
      </trkpt>
      <trkpt lat="49.17856" lon="6.14842">
        <ele>212.9</ele>
        <time>2011-11-06T08:56:47Z</time>
      </trkpt>
      <trkpt lat="49.17852" lon="6.14852">
        <ele>212.4</ele>
        <time>2011-11-06T08:56:48Z</time>
      </trkpt>
      <trkpt lat="49.17849" lon="6.14862">
        <ele>210.7</ele>
        <time>2011-11-06T08:56:49Z</time>
      </trkpt>
      <trkpt lat="49.17848" lon="6.14874">
        <ele>209.7</ele>
        <time>2011-11-06T08:56:50Z</time>
      </trkpt>
      <trkpt lat="49.17846" lon="6.14884">
        <ele>208.5</ele>
        <time>2011-11-06T08:56:51Z</time>
      </trkpt>
      <trkpt lat="49.17847" lon="6.14894">
        <ele>207.6</ele>
        <time>2011-11-06T08:56:52Z</time>
      </trkpt>
      <trkpt lat="49.17849" lon="6.14904">
        <ele>208.2</ele>
        <time>2011-11-06T08:56:53Z</time>
      </trkpt>
      <trkpt lat="49.17854" lon="6.14914">
        <ele>209.2</ele>
        <time>2011-11-06T08:56:54Z</time>
      </trkpt>
      <trkpt lat="49.17859" lon="6.14922">
        <ele>209.4</ele>
        <time>2011-11-06T08:56:55Z</time>
      </trkpt>
      <trkpt lat="49.17866" lon="6.14931">
        <ele>209.8</ele>
        <time>2011-11-06T08:56:56Z</time>
      </trkpt>
      <trkpt lat="49.17875" lon="6.14937">
        <ele>210</ele>
        <time>2011-11-06T08:56:58Z</time>
      </trkpt>
      <trkpt lat="49.17883" lon="6.14939">
        <ele>209.7</ele>
        <time>2011-11-06T08:56:59Z</time>
      </trkpt>
      <trkpt lat="49.1789" lon="6.1494">
        <ele>210</ele>
        <time>2011-11-06T08:57:00Z</time>
      </trkpt>
      <trkpt lat="49.17898" lon="6.1494">
        <ele>209.8</ele>
        <time>2011-11-06T08:57:01Z</time>
      </trkpt>
      <trkpt lat="49.17905" lon="6.14942">
        <ele>209.8</ele>
        <time>2011-11-06T08:57:02Z</time>
      </trkpt>
      <trkpt lat="49.17911" lon="6.14946">
        <ele>209.7</ele>
        <time>2011-11-06T08:57:03Z</time>
      </trkpt>
      <trkpt lat="49.17917" lon="6.14953">
        <ele>210.2</ele>
        <time>2011-11-06T08:57:04Z</time>
      </trkpt>
      <trkpt lat="49.17922" lon="6.1496">
        <ele>210.2</ele>
        <time>2011-11-06T08:57:05Z</time>
      </trkpt>
      <trkpt lat="49.17928" lon="6.14966">
        <ele>209.2</ele>
        <time>2011-11-06T08:57:06Z</time>
      </trkpt>
      <trkpt lat="49.17932" lon="6.14975">
        <ele>210.7</ele>
        <time>2011-11-06T08:57:07Z</time>
      </trkpt>
      <trkpt lat="49.17933" lon="6.14985">
        <ele>210.6</ele>
        <time>2011-11-06T08:57:08Z</time>
      </trkpt>
      <trkpt lat="49.17936" lon="6.14997">
        <ele>211</ele>
        <time>2011-11-06T08:57:09Z</time>
      </trkpt>
      <trkpt lat="49.17935" lon="6.15008">
        <ele>211.5</ele>
        <time>2011-11-06T08:57:10Z</time>
      </trkpt>
      <trkpt lat="49.17935" lon="6.1502">
        <ele>211.3</ele>
        <time>2011-11-06T08:57:11Z</time>
      </trkpt>
      <trkpt lat="49.17934" lon="6.15031">
        <ele>211.2</ele>
        <time>2011-11-06T08:57:12Z</time>
      </trkpt>
      <trkpt lat="49.17935" lon="6.15042">
        <ele>210.9</ele>
        <time>2011-11-06T08:57:13Z</time>
      </trkpt>
      <trkpt lat="49.17935" lon="6.15052">
        <ele>211.3</ele>
        <time>2011-11-06T08:57:14Z</time>
      </trkpt>
      <trkpt lat="49.17936" lon="6.15062">
        <ele>211.5</ele>
        <time>2011-11-06T08:57:15Z</time>
      </trkpt>
      <trkpt lat="49.17936" lon="6.15071">
        <ele>211.7</ele>
        <time>2011-11-06T08:57:15Z</time>
      </trkpt>
      <trkpt lat="49.17936" lon="6.15081">
        <ele>211.7</ele>
        <time>2011-11-06T08:57:17Z</time>
      </trkpt>
      <trkpt lat="49.17935" lon="6.1509">
        <ele>211.8</ele>
        <time>2011-11-06T08:57:19Z</time>
      </trkpt>
      <trkpt lat="49.17937" lon="6.15098">
        <ele>212.2</ele>
        <time>2011-11-06T08:57:20Z</time>
      </trkpt>
      <trkpt lat="49.17938" lon="6.15106">
        <ele>212.3</ele>
        <time>2011-11-06T08:57:20Z</time>
      </trkpt>
      <trkpt lat="49.17937" lon="6.15114">
        <ele>212.3</ele>
        <time>2011-11-06T08:57:21Z</time>
      </trkpt>
      <trkpt lat="49.17934" lon="6.15123">
        <ele>212.7</ele>
        <time>2011-11-06T08:57:23Z</time>
      </trkpt>
      <trkpt lat="49.17934" lon="6.1513">
        <ele>213</ele>
        <time>2011-11-06T08:57:24Z</time>
      </trkpt>
      <trkpt lat="49.17934" lon="6.15137">
        <ele>213</ele>
        <time>2011-11-06T08:57:25Z</time>
      </trkpt>
      <trkpt lat="49.17932" lon="6.15144">
        <ele>213.9</ele>
        <time>2011-11-06T08:57:26Z</time>
      </trkpt>
      <trkpt lat="49.17931" lon="6.15155">
        <ele>214.3</ele>
        <time>2011-11-06T08:57:27Z</time>
      </trkpt>
      <trkpt lat="49.17934" lon="6.15169">
        <ele>214</ele>
        <time>2011-11-06T08:57:28Z</time>
      </trkpt>
      <trkpt lat="49.17936" lon="6.15176">
        <ele>213.2</ele>
        <time>2011-11-06T08:57:32Z</time>
      </trkpt>
      <trkpt lat="49.1794" lon="6.15181">
        <ele>213.7</ele>
        <time>2011-11-06T08:57:36Z</time>
      </trkpt>
      <trkpt lat="49.17946" lon="6.15185">
        <ele>213.4</ele>
        <time>2011-11-06T08:57:43Z</time>
      </trkpt>
      <trkpt lat="49.1795" lon="6.15184">
        <ele>214.9</ele>
        <time>2011-11-06T08:58:25Z</time>
      </trkpt>
      <trkpt lat="49.1795" lon="6.15184">
        <ele>214.9</ele>
        <time>2011-11-06T08:58:25Z</time>
      </trkpt>
      <trkpt lat="49.1795" lon="6.15184">
        <ele>214.9</ele>
        <time>2011-11-06T08:58:26Z</time>
      </trkpt>
      <trkpt lat="49.17949" lon="6.15168">
        <ele>215.2</ele>
        <time>2011-11-06T08:59:29Z</time>
      </trkpt>
      <trkpt lat="49.17948" lon="6.15158">
        <ele>215.2</ele>
        <time>2011-11-06T08:59:30Z</time>
      </trkpt>
      <trkpt lat="49.17948" lon="6.1515">
        <ele>214.8</ele>
        <time>2011-11-06T08:59:31Z</time>
      </trkpt>
      <trkpt lat="49.17947" lon="6.15133">
        <ele>214.6</ele>
        <time>2011-11-06T08:59:33Z</time>
      </trkpt>
      <trkpt lat="49.17943" lon="6.15124">
        <ele>215</ele>
        <time>2011-11-06T08:59:34Z</time>
      </trkpt>
      <trkpt lat="49.1794" lon="6.15116">
        <ele>215.2</ele>
        <time>2011-11-06T08:59:35Z</time>
      </trkpt>
      <trkpt lat="49.17936" lon="6.15103">
        <ele>215.3</ele>
        <time>2011-11-06T08:59:36Z</time>
      </trkpt>
      <trkpt lat="49.17931" lon="6.1509">
        <ele>215.4</ele>
        <time>2011-11-06T08:59:37Z</time>
      </trkpt>
      <trkpt lat="49.17927" lon="6.15079">
        <ele>215.5</ele>
        <time>2011-11-06T08:59:38Z</time>
      </trkpt>
      <trkpt lat="49.17921" lon="6.15066">
        <ele>216.2</ele>
        <time>2011-11-06T08:59:39Z</time>
      </trkpt>
      <trkpt lat="49.17919" lon="6.15054">
        <ele>217.1</ele>
        <time>2011-11-06T08:59:40Z</time>
      </trkpt>
      <trkpt lat="49.17919" lon="6.15039">
        <ele>216.9</ele>
        <time>2011-11-06T08:59:41Z</time>
      </trkpt>
      <trkpt lat="49.1792" lon="6.1503">
        <ele>217.3</ele>
        <time>2011-11-06T08:59:42Z</time>
      </trkpt>
      <trkpt lat="49.17922" lon="6.15021">
        <ele>217.8</ele>
        <time>2011-11-06T08:59:43Z</time>
      </trkpt>
      <trkpt lat="49.17925" lon="6.15008">
        <ele>217.7</ele>
        <time>2011-11-06T08:59:44Z</time>
      </trkpt>
      <trkpt lat="49.17926" lon="6.14999">
        <ele>217.7</ele>
        <time>2011-11-06T08:59:45Z</time>
      </trkpt>
      <trkpt lat="49.17927" lon="6.1499">
        <ele>217.8</ele>
        <time>2011-11-06T08:59:46Z</time>
      </trkpt>
      <trkpt lat="49.17927" lon="6.14982">
        <ele>217.9</ele>
        <time>2011-11-06T08:59:47Z</time>
      </trkpt>
      <trkpt lat="49.17927" lon="6.14974">
        <ele>217.8</ele>
        <time>2011-11-06T08:59:48Z</time>
      </trkpt>
      <trkpt lat="49.17913" lon="6.14961">
        <ele>218.2</ele>
        <time>2011-11-06T08:59:50Z</time>
      </trkpt>
      <trkpt lat="49.17912" lon="6.14953">
        <ele>217.9</ele>
        <time>2011-11-06T08:59:51Z</time>
      </trkpt>
      <trkpt lat="49.1791" lon="6.14945">
        <ele>217.9</ele>
        <time>2011-11-06T08:59:52Z</time>
      </trkpt>
      <trkpt lat="49.17907" lon="6.14938">
        <ele>217.8</ele>
        <time>2011-11-06T08:59:53Z</time>
      </trkpt>
      <trkpt lat="49.17904" lon="6.1493">
        <ele>218.3</ele>
        <time>2011-11-06T08:59:54Z</time>
      </trkpt>
      <trkpt lat="49.17909" lon="6.14901">
        <ele>219.4</ele>
        <time>2011-11-06T08:59:57Z</time>
      </trkpt>
      <trkpt lat="49.17912" lon="6.14887">
        <ele>219</ele>
        <time>2011-11-06T08:59:58Z</time>
      </trkpt>
      <trkpt lat="49.17913" lon="6.14877">
        <ele>218.9</ele>
        <time>2011-11-06T08:59:59Z</time>
      </trkpt>
      <trkpt lat="49.17912" lon="6.14864">
        <ele>216.5</ele>
        <time>2011-11-06T09:00:00Z</time>
      </trkpt>
      <trkpt lat="49.17907" lon="6.14855">
        <ele>216.9</ele>
        <time>2011-11-06T09:00:01Z</time>
      </trkpt>
      <trkpt lat="49.17903" lon="6.14847">
        <ele>216.6</ele>
        <time>2011-11-06T09:00:02Z</time>
      </trkpt>
      <trkpt lat="49.17899" lon="6.14839">
        <ele>215.1</ele>
        <time>2011-11-06T09:00:03Z</time>
      </trkpt>
      <trkpt lat="49.17892" lon="6.14832">
        <ele>214.9</ele>
        <time>2011-11-06T09:00:04Z</time>
      </trkpt>
      <trkpt lat="49.17886" lon="6.14828">
        <ele>215.1</ele>
        <time>2011-11-06T09:00:05Z</time>
      </trkpt>
      <trkpt lat="49.1788" lon="6.14825">
        <ele>213.6</ele>
        <time>2011-11-06T09:00:06Z</time>
      </trkpt>
      <trkpt lat="49.17874" lon="6.14821">
        <ele>213</ele>
        <time>2011-11-06T09:00:07Z</time>
      </trkpt>
      <trkpt lat="49.17868" lon="6.14818">
        <ele>213.5</ele>
        <time>2011-11-06T09:00:08Z</time>
      </trkpt>
      <trkpt lat="49.17863" lon="6.14815">
        <ele>215.1</ele>
        <time>2011-11-06T09:00:09Z</time>
      </trkpt>
      <trkpt lat="49.17857" lon="6.1481">
        <ele>216</ele>
        <time>2011-11-06T09:00:10Z</time>
      </trkpt>
      <trkpt lat="49.17851" lon="6.14803">
        <ele>215.6</ele>
        <time>2011-11-06T09:00:11Z</time>
      </trkpt>
      <trkpt lat="49.17849" lon="6.14795">
        <ele>214.9</ele>
        <time>2011-11-06T09:00:12Z</time>
      </trkpt>
      <trkpt lat="49.17848" lon="6.14786">
        <ele>215.1</ele>
        <time>2011-11-06T09:00:13Z</time>
      </trkpt>
      <trkpt lat="49.17848" lon="6.14777">
        <ele>214.8</ele>
        <time>2011-11-06T09:00:14Z</time>
      </trkpt>
      <trkpt lat="49.17847" lon="6.14767">
        <ele>214.7</ele>
        <time>2011-11-06T09:00:16Z</time>
      </trkpt>
      <trkpt lat="49.17846" lon="6.14783">
        <ele>215.3</ele>
        <time>2011-11-06T09:07:49Z</time>
      </trkpt>
      <trkpt lat="49.17843" lon="6.14793">
        <ele>216.5</ele>
        <time>2011-11-06T09:07:50Z</time>
      </trkpt>
      <trkpt lat="49.17842" lon="6.14808">
        <ele>216.5</ele>
        <time>2011-11-06T09:07:51Z</time>
      </trkpt>
      <trkpt lat="49.1784" lon="6.14818">
        <ele>216.8</ele>
        <time>2011-11-06T09:07:52Z</time>
      </trkpt>
      <trkpt lat="49.17838" lon="6.14828">
        <ele>217.4</ele>
        <time>2011-11-06T09:07:53Z</time>
      </trkpt>
      <trkpt lat="49.17837" lon="6.14838">
        <ele>217.7</ele>
        <time>2011-11-06T09:07:54Z</time>
      </trkpt>
      <trkpt lat="49.17837" lon="6.14847">
        <ele>217.3</ele>
        <time>2011-11-06T09:07:55Z</time>
      </trkpt>
      <trkpt lat="49.17843" lon="6.14866">
        <ele>218.9</ele>
        <time>2011-11-06T09:07:57Z</time>
      </trkpt>
      <trkpt lat="49.17845" lon="6.14875">
        <ele>218.2</ele>
        <time>2011-11-06T09:07:58Z</time>
      </trkpt>
      <trkpt lat="49.17847" lon="6.14885">
        <ele>218.6</ele>
        <time>2011-11-06T09:07:59Z</time>
      </trkpt>
      <trkpt lat="49.17848" lon="6.14892">
        <ele>218.6</ele>
        <time>2011-11-06T09:08:00Z</time>
      </trkpt>
      <trkpt lat="49.17851" lon="6.14899">
        <ele>218.5</ele>
        <time>2011-11-06T09:08:01Z</time>
      </trkpt>
      <trkpt lat="49.17855" lon="6.14906">
        <ele>218.7</ele>
        <time>2011-11-06T09:08:02Z</time>
      </trkpt>
      <trkpt lat="49.1786" lon="6.14912">
        <ele>219.2</ele>
        <time>2011-11-06T09:08:03Z</time>
      </trkpt>
      <trkpt lat="49.17865" lon="6.14916">
        <ele>219</ele>
        <time>2011-11-06T09:08:04Z</time>
      </trkpt>
      <trkpt lat="49.17871" lon="6.14923">
        <ele>218.3</ele>
        <time>2011-11-06T09:08:06Z</time>
      </trkpt>
      <trkpt lat="49.17892" lon="6.14932">
        <ele>217.9</ele>
        <time>2011-11-06T09:08:09Z</time>
      </trkpt>
      <trkpt lat="49.17905" lon="6.14946">
        <ele>215.2</ele>
        <time>2011-11-06T09:08:11Z</time>
      </trkpt>
      <trkpt lat="49.17912" lon="6.1495">
        <ele>215</ele>
        <time>2011-11-06T09:08:12Z</time>
      </trkpt>
      <trkpt lat="49.17916" lon="6.14956">
        <ele>215</ele>
        <time>2011-11-06T09:08:13Z</time>
      </trkpt>
      <trkpt lat="49.1792" lon="6.14963">
        <ele>215.4</ele>
        <time>2011-11-06T09:08:14Z</time>
      </trkpt>
      <trkpt lat="49.17927" lon="6.14973">
        <ele>214.3</ele>
        <time>2011-11-06T09:08:16Z</time>
      </trkpt>
      <trkpt lat="49.17928" lon="6.1498">
        <ele>214.8</ele>
        <time>2011-11-06T09:08:17Z</time>
      </trkpt>
      <trkpt lat="49.1793" lon="6.14989">
        <ele>215</ele>
        <time>2011-11-06T09:08:18Z</time>
      </trkpt>
      <trkpt lat="49.17931" lon="6.14998">
        <ele>215.1</ele>
        <time>2011-11-06T09:08:19Z</time>
      </trkpt>
      <trkpt lat="49.17931" lon="6.15006">
        <ele>214.8</ele>
        <time>2011-11-06T09:08:20Z</time>
      </trkpt>
      <trkpt lat="49.17932" lon="6.15015">
        <ele>214.9</ele>
        <time>2011-11-06T09:08:21Z</time>
      </trkpt>
      <trkpt lat="49.17934" lon="6.15026">
        <ele>214.5</ele>
        <time>2011-11-06T09:08:22Z</time>
      </trkpt>
      <trkpt lat="49.17935" lon="6.15036">
        <ele>214.5</ele>
        <time>2011-11-06T09:08:23Z</time>
      </trkpt>
      <trkpt lat="49.17933" lon="6.15044">
        <ele>213.9</ele>
        <time>2011-11-06T09:08:24Z</time>
      </trkpt>
      <trkpt lat="49.17937" lon="6.15056">
        <ele>214.6</ele>
        <time>2011-11-06T09:08:25Z</time>
      </trkpt>
      <trkpt lat="49.17938" lon="6.15066">
        <ele>214.3</ele>
        <time>2011-11-06T09:08:26Z</time>
      </trkpt>
      <trkpt lat="49.17937" lon="6.15075">
        <ele>213.9</ele>
        <time>2011-11-06T09:08:27Z</time>
      </trkpt>
      <trkpt lat="49.17939" lon="6.15087">
        <ele>214.9</ele>
        <time>2011-11-06T09:08:28Z</time>
      </trkpt>
      <trkpt lat="49.17939" lon="6.15097">
        <ele>214.9</ele>
        <time>2011-11-06T09:08:29Z</time>
      </trkpt>
      <trkpt lat="49.17942" lon="6.1511">
        <ele>215.9</ele>
        <time>2011-11-06T09:08:31Z</time>
      </trkpt>
      <trkpt lat="49.17941" lon="6.15119">
        <ele>216.1</ele>
        <time>2011-11-06T09:08:32Z</time>
      </trkpt>
      <trkpt lat="49.17942" lon="6.15127">
        <ele>215.9</ele>
        <time>2011-11-06T09:08:33Z</time>
      </trkpt>
      <trkpt lat="49.17942" lon="6.15136">
        <ele>215.9</ele>
        <time>2011-11-06T09:08:34Z</time>
      </trkpt>
      <trkpt lat="49.17942" lon="6.15145">
        <ele>216.1</ele>
        <time>2011-11-06T09:08:35Z</time>
      </trkpt>
      <trkpt lat="49.17942" lon="6.15158">
        <ele>216</ele>
        <time>2011-11-06T09:08:37Z</time>
      </trkpt>
      <trkpt lat="49.17941" lon="6.15164">
        <ele>216.3</ele>
        <time>2011-11-06T09:08:38Z</time>
      </trkpt>
      <trkpt lat="49.17942" lon="6.15177">
        <ele>216.9</ele>
        <time>2011-11-06T09:08:40Z</time>
      </trkpt>
      <trkpt lat="49.17946" lon="6.15184">
        <ele>216.5</ele>
        <time>2011-11-06T09:08:41Z</time>
      </trkpt>
      <trkpt lat="49.17954" lon="6.15189">
        <ele>216.6</ele>
        <time>2011-11-06T09:08:43Z</time>
      </trkpt>
      <trkpt lat="49.17959" lon="6.15187">
        <ele>216.7</ele>
        <time>2011-11-06T09:08:44Z</time>
      </trkpt>
      <trkpt lat="49.17967" lon="6.15188">
        <ele>216.9</ele>
        <time>2011-11-06T09:08:46Z</time>
      </trkpt>
      <trkpt lat="49.17973" lon="6.1519">
        <ele>216.4</ele>
        <time>2011-11-06T09:08:47Z</time>
      </trkpt>
      <trkpt lat="49.17982" lon="6.15192">
        <ele>215.7</ele>
        <time>2011-11-06T09:08:49Z</time>
      </trkpt>
      <trkpt lat="49.17987" lon="6.15192">
        <ele>215.7</ele>
        <time>2011-11-06T09:08:50Z</time>
      </trkpt>
      <trkpt lat="49.17992" lon="6.1519">
        <ele>215.7</ele>
        <time>2011-11-06T09:08:51Z</time>
      </trkpt>
      <trkpt lat="49.18" lon="6.15191">
        <ele>215.8</ele>
        <time>2011-11-06T09:08:52Z</time>
      </trkpt>
      <trkpt lat="49.18004" lon="6.1519">
        <ele>215.8</ele>
        <time>2011-11-06T09:08:53Z</time>
      </trkpt>
      <trkpt lat="49.1801" lon="6.1519">
        <ele>215.5</ele>
        <time>2011-11-06T09:08:54Z</time>
      </trkpt>
      <trkpt lat="49.18015" lon="6.15188">
        <ele>215.6</ele>
        <time>2011-11-06T09:08:55Z</time>
      </trkpt>
      <trkpt lat="49.18021" lon="6.15187">
        <ele>215.7</ele>
        <time>2011-11-06T09:08:56Z</time>
      </trkpt>
      <trkpt lat="49.18026" lon="6.15187">
        <ele>215.7</ele>
        <time>2011-11-06T09:08:57Z</time>
      </trkpt>
      <trkpt lat="49.18032" lon="6.15186">
        <ele>215.7</ele>
        <time>2011-11-06T09:08:58Z</time>
      </trkpt>
      <trkpt lat="49.18038" lon="6.15186">
        <ele>215.8</ele>
        <time>2011-11-06T09:08:59Z</time>
      </trkpt>
      <trkpt lat="49.18045" lon="6.15186">
        <ele>215.9</ele>
        <time>2011-11-06T09:09:00Z</time>
      </trkpt>
      <trkpt lat="49.18051" lon="6.15186">
        <ele>215.9</ele>
        <time>2011-11-06T09:09:01Z</time>
      </trkpt>
      <trkpt lat="49.18057" lon="6.15186">
        <ele>215.9</ele>
        <time>2011-11-06T09:09:02Z</time>
      </trkpt>
      <trkpt lat="49.18062" lon="6.15185">
        <ele>215.9</ele>
        <time>2011-11-06T09:09:03Z</time>
      </trkpt>
      <trkpt lat="49.18069" lon="6.15185">
        <ele>215.9</ele>
        <time>2011-11-06T09:09:04Z</time>
      </trkpt>
      <trkpt lat="49.18075" lon="6.15185">
        <ele>215.9</ele>
        <time>2011-11-06T09:09:05Z</time>
      </trkpt>
      <trkpt lat="49.18082" lon="6.15186">
        <ele>216</ele>
        <time>2011-11-06T09:09:06Z</time>
      </trkpt>
      <trkpt lat="49.18089" lon="6.15186">
        <ele>216</ele>
        <time>2011-11-06T09:09:07Z</time>
      </trkpt>
      <trkpt lat="49.18095" lon="6.15186">
        <ele>216</ele>
        <time>2011-11-06T09:09:08Z</time>
      </trkpt>
      <trkpt lat="49.18103" lon="6.15187">
        <ele>216</ele>
        <time>2011-11-06T09:09:09Z</time>
      </trkpt>
      <trkpt lat="49.18109" lon="6.15187">
        <ele>216.1</ele>
        <time>2011-11-06T09:09:10Z</time>
      </trkpt>
      <trkpt lat="49.18117" lon="6.15185">
        <ele>216</ele>
        <time>2011-11-06T09:09:12Z</time>
      </trkpt>
      <trkpt lat="49.18127" lon="6.15184">
        <ele>216</ele>
        <time>2011-11-06T09:09:14Z</time>
      </trkpt>
      <trkpt lat="49.18135" lon="6.15181">
        <ele>216</ele>
        <time>2011-11-06T09:09:16Z</time>
      </trkpt>
      <trkpt lat="49.18145" lon="6.15183">
        <ele>216.1</ele>
        <time>2011-11-06T09:09:17Z</time>
      </trkpt>
      <trkpt lat="49.18151" lon="6.15184">
        <ele>216.1</ele>
        <time>2011-11-06T09:09:18Z</time>
      </trkpt>
      <trkpt lat="49.18157" lon="6.15183">
        <ele>216.1</ele>
        <time>2011-11-06T09:09:19Z</time>
      </trkpt>
      <trkpt lat="49.18166" lon="6.15186">
        <ele>216.3</ele>
        <time>2011-11-06T09:09:20Z</time>
      </trkpt>
      <trkpt lat="49.18172" lon="6.15185">
        <ele>216.3</ele>
        <time>2011-11-06T09:09:21Z</time>
      </trkpt>
      <trkpt lat="49.18177" lon="6.15185">
        <ele>216.2</ele>
        <time>2011-11-06T09:09:22Z</time>
      </trkpt>
      <trkpt lat="49.18186" lon="6.15188">
        <ele>216.4</ele>
        <time>2011-11-06T09:09:23Z</time>
      </trkpt>
      <trkpt lat="49.18192" lon="6.15187">
        <ele>216.4</ele>
        <time>2011-11-06T09:09:24Z</time>
      </trkpt>
      <trkpt lat="49.18302" lon="6.15149">
        <ele>216.9</ele>
        <time>2011-11-06T09:09:42Z</time>
      </trkpt>
      <trkpt lat="49.18313" lon="6.15138">
        <ele>216.9</ele>
        <time>2011-11-06T09:09:43Z</time>
      </trkpt>
      <trkpt lat="49.18321" lon="6.1514">
        <ele>217</ele>
        <time>2011-11-06T09:09:44Z</time>
      </trkpt>
      <trkpt lat="49.18328" lon="6.15138">
        <ele>217</ele>
        <time>2011-11-06T09:09:45Z</time>
      </trkpt>
      <trkpt lat="49.18338" lon="6.15142">
        <ele>217</ele>
        <time>2011-11-06T09:09:47Z</time>
      </trkpt>
      <trkpt lat="49.18343" lon="6.15142">
        <ele>217</ele>
        <time>2011-11-06T09:09:48Z</time>
      </trkpt>
      <trkpt lat="49.18349" lon="6.15135">
        <ele>217.1</ele>
        <time>2011-11-06T09:09:49Z</time>
      </trkpt>
      <trkpt lat="49.18355" lon="6.15134">
        <ele>217.1</ele>
        <time>2011-11-06T09:09:50Z</time>
      </trkpt>
      <trkpt lat="49.18362" lon="6.15128">
        <ele>217.1</ele>
        <time>2011-11-06T09:09:51Z</time>
      </trkpt>
      <trkpt lat="49.18368" lon="6.15121">
        <ele>217.1</ele>
        <time>2011-11-06T09:09:52Z</time>
      </trkpt>
      <trkpt lat="49.18375" lon="6.15122">
        <ele>217.2</ele>
        <time>2011-11-06T09:09:53Z</time>
      </trkpt>
      <trkpt lat="49.1838" lon="6.1512">
        <ele>217.2</ele>
        <time>2011-11-06T09:09:54Z</time>
      </trkpt>
      <trkpt lat="49.18384" lon="6.15113">
        <ele>217.2</ele>
        <time>2011-11-06T09:09:55Z</time>
      </trkpt>
      <trkpt lat="49.1843" lon="6.15136">
        <ele>217.2</ele>
        <time>2011-11-06T09:09:59Z</time>
      </trkpt>
      <trkpt lat="49.18431" lon="6.15129">
        <ele>218.3</ele>
        <time>2011-11-06T09:10:00Z</time>
      </trkpt>
      <trkpt lat="49.18437" lon="6.15136">
        <ele>220.9</ele>
        <time>2011-11-06T09:10:01Z</time>
      </trkpt>
      <trkpt lat="49.18444" lon="6.15133">
        <ele>221.2</ele>
        <time>2011-11-06T09:10:02Z</time>
      </trkpt>
      <trkpt lat="49.18452" lon="6.1513">
        <ele>221.3</ele>
        <time>2011-11-06T09:10:03Z</time>
      </trkpt>
      <trkpt lat="49.1846" lon="6.1513">
        <ele>222</ele>
        <time>2011-11-06T09:10:04Z</time>
      </trkpt>
      <trkpt lat="49.18469" lon="6.15129">
        <ele>221.8</ele>
        <time>2011-11-06T09:10:05Z</time>
      </trkpt>
      <trkpt lat="49.18477" lon="6.15131">
        <ele>221.8</ele>
        <time>2011-11-06T09:10:06Z</time>
      </trkpt>
      <trkpt lat="49.18484" lon="6.15131">
        <ele>222.6</ele>
        <time>2011-11-06T09:10:07Z</time>
      </trkpt>
      <trkpt lat="49.18495" lon="6.15134">
        <ele>222.8</ele>
        <time>2011-11-06T09:10:08Z</time>
      </trkpt>
      <trkpt lat="49.18504" lon="6.15136">
        <ele>223.5</ele>
        <time>2011-11-06T09:10:09Z</time>
      </trkpt>
      <trkpt lat="49.1851" lon="6.15134">
        <ele>223.6</ele>
        <time>2011-11-06T09:10:10Z</time>
      </trkpt>
      <trkpt lat="49.18515" lon="6.15132">
        <ele>223.4</ele>
        <time>2011-11-06T09:10:11Z</time>
      </trkpt>
      <trkpt lat="49.18521" lon="6.1513">
        <ele>223.1</ele>
        <time>2011-11-06T09:10:12Z</time>
      </trkpt>
      <trkpt lat="49.18529" lon="6.15127">
        <ele>223.3</ele>
        <time>2011-11-06T09:10:13Z</time>
      </trkpt>
      <trkpt lat="49.18538" lon="6.15126">
        <ele>221.8</ele>
        <time>2011-11-06T09:10:14Z</time>
      </trkpt>
      <trkpt lat="49.18545" lon="6.15126">
        <ele>221.4</ele>
        <time>2011-11-06T09:10:15Z</time>
      </trkpt>
      <trkpt lat="49.18551" lon="6.15122">
        <ele>221.4</ele>
        <time>2011-11-06T09:10:16Z</time>
      </trkpt>
      <trkpt lat="49.18557" lon="6.15121">
        <ele>221.5</ele>
        <time>2011-11-06T09:10:17Z</time>
      </trkpt>
      <trkpt lat="49.18563" lon="6.15119">
        <ele>221.1</ele>
        <time>2011-11-06T09:10:18Z</time>
      </trkpt>
      <trkpt lat="49.18568" lon="6.15118">
        <ele>221.1</ele>
        <time>2011-11-06T09:10:19Z</time>
      </trkpt>
      <trkpt lat="49.18576" lon="6.15119">
        <ele>221.5</ele>
        <time>2011-11-06T09:10:20Z</time>
      </trkpt>
      <trkpt lat="49.18583" lon="6.15115">
        <ele>220.6</ele>
        <time>2011-11-06T09:10:21Z</time>
      </trkpt>
      <trkpt lat="49.1859" lon="6.15114">
        <ele>221.1</ele>
        <time>2011-11-06T09:10:22Z</time>
      </trkpt>
      <trkpt lat="49.18596" lon="6.15113">
        <ele>221</ele>
        <time>2011-11-06T09:10:23Z</time>
      </trkpt>
      <trkpt lat="49.18603" lon="6.15112">
        <ele>221</ele>
        <time>2011-11-06T09:10:24Z</time>
      </trkpt>
      <trkpt lat="49.18612" lon="6.15112">
        <ele>220.9</ele>
        <time>2011-11-06T09:10:25Z</time>
      </trkpt>
      <trkpt lat="49.18621" lon="6.15114">
        <ele>221.1</ele>
        <time>2011-11-06T09:10:26Z</time>
      </trkpt>
      <trkpt lat="49.18628" lon="6.15114">
        <ele>221.1</ele>
        <time>2011-11-06T09:10:27Z</time>
      </trkpt>
      <trkpt lat="49.18636" lon="6.15113">
        <ele>221.1</ele>
        <time>2011-11-06T09:10:28Z</time>
      </trkpt>
      <trkpt lat="49.18644" lon="6.15113">
        <ele>221.2</ele>
        <time>2011-11-06T09:10:29Z</time>
      </trkpt>
      <trkpt lat="49.1865" lon="6.15112">
        <ele>221</ele>
        <time>2011-11-06T09:10:30Z</time>
      </trkpt>
      <trkpt lat="49.18659" lon="6.15111">
        <ele>221</ele>
        <time>2011-11-06T09:10:31Z</time>
      </trkpt>
      <trkpt lat="49.18666" lon="6.1511">
        <ele>221</ele>
        <time>2011-11-06T09:10:32Z</time>
      </trkpt>
      <trkpt lat="49.18673" lon="6.15107">
        <ele>220.7</ele>
        <time>2011-11-06T09:10:33Z</time>
      </trkpt>
      <trkpt lat="49.1868" lon="6.15105">
        <ele>220.9</ele>
        <time>2011-11-06T09:10:34Z</time>
      </trkpt>
      <trkpt lat="49.18687" lon="6.15103">
        <ele>220.6</ele>
        <time>2011-11-06T09:10:35Z</time>
      </trkpt>
      <trkpt lat="49.18693" lon="6.15101">
        <ele>220.2</ele>
        <time>2011-11-06T09:10:36Z</time>
      </trkpt>
      <trkpt lat="49.18701" lon="6.15099">
        <ele>219.6</ele>
        <time>2011-11-06T09:10:37Z</time>
      </trkpt>
      <trkpt lat="49.18707" lon="6.15098">
        <ele>220.1</ele>
        <time>2011-11-06T09:10:38Z</time>
      </trkpt>
      <trkpt lat="49.18714" lon="6.15099">
        <ele>220.7</ele>
        <time>2011-11-06T09:10:39Z</time>
      </trkpt>
      <trkpt lat="49.18722" lon="6.15099">
        <ele>220.6</ele>
        <time>2011-11-06T09:10:40Z</time>
      </trkpt>
      <trkpt lat="49.18728" lon="6.15098">
        <ele>221.3</ele>
        <time>2011-11-06T09:10:41Z</time>
      </trkpt>
      <trkpt lat="49.18736" lon="6.15098">
        <ele>221.9</ele>
        <time>2011-11-06T09:10:42Z</time>
      </trkpt>
      <trkpt lat="49.18743" lon="6.15094">
        <ele>221.9</ele>
        <time>2011-11-06T09:10:43Z</time>
      </trkpt>
      <trkpt lat="49.1875" lon="6.15092">
        <ele>222.4</ele>
        <time>2011-11-06T09:10:44Z</time>
      </trkpt>
      <trkpt lat="49.18759" lon="6.15089">
        <ele>222.5</ele>
        <time>2011-11-06T09:10:45Z</time>
      </trkpt>
      <trkpt lat="49.18766" lon="6.15088">
        <ele>222</ele>
        <time>2011-11-06T09:10:46Z</time>
      </trkpt>
      <trkpt lat="49.18773" lon="6.15088">
        <ele>221.7</ele>
        <time>2011-11-06T09:10:47Z</time>
      </trkpt>
      <trkpt lat="49.18778" lon="6.15089">
        <ele>221.5</ele>
        <time>2011-11-06T09:10:48Z</time>
      </trkpt>
      <trkpt lat="49.18787" lon="6.15091">
        <ele>221.6</ele>
        <time>2011-11-06T09:10:49Z</time>
      </trkpt>
      <trkpt lat="49.18795" lon="6.15091">
        <ele>221.8</ele>
        <time>2011-11-06T09:10:50Z</time>
      </trkpt>
      <trkpt lat="49.18801" lon="6.1509">
        <ele>221.8</ele>
        <time>2011-11-06T09:10:51Z</time>
      </trkpt>
      <trkpt lat="49.18809" lon="6.1509">
        <ele>222.3</ele>
        <time>2011-11-06T09:10:52Z</time>
      </trkpt>
      <trkpt lat="49.18817" lon="6.15093">
        <ele>222.3</ele>
        <time>2011-11-06T09:10:53Z</time>
      </trkpt>
      <trkpt lat="49.18824" lon="6.15094">
        <ele>221.6</ele>
        <time>2011-11-06T09:10:54Z</time>
      </trkpt>
      <trkpt lat="49.18831" lon="6.15094">
        <ele>222</ele>
        <time>2011-11-06T09:10:55Z</time>
      </trkpt>
      <trkpt lat="49.18841" lon="6.15094">
        <ele>222.2</ele>
        <time>2011-11-06T09:10:56Z</time>
      </trkpt>
      <trkpt lat="49.18847" lon="6.15093">
        <ele>222.3</ele>
        <time>2011-11-06T09:10:57Z</time>
      </trkpt>
      <trkpt lat="49.18854" lon="6.15092">
        <ele>222.5</ele>
        <time>2011-11-06T09:10:58Z</time>
      </trkpt>
      <trkpt lat="49.18861" lon="6.15092">
        <ele>222.3</ele>
        <time>2011-11-06T09:10:59Z</time>
      </trkpt>
      <trkpt lat="49.18868" lon="6.15091">
        <ele>222.6</ele>
        <time>2011-11-06T09:11:00Z</time>
      </trkpt>
      <trkpt lat="49.18875" lon="6.1509">
        <ele>222.4</ele>
        <time>2011-11-06T09:11:01Z</time>
      </trkpt>
      <trkpt lat="49.18882" lon="6.1509">
        <ele>222.3</ele>
        <time>2011-11-06T09:11:02Z</time>
      </trkpt>
      <trkpt lat="49.1889" lon="6.15087">
        <ele>222.2</ele>
        <time>2011-11-06T09:11:03Z</time>
      </trkpt>
      <trkpt lat="49.18899" lon="6.15083">
        <ele>222.4</ele>
        <time>2011-11-06T09:11:04Z</time>
      </trkpt>
      <trkpt lat="49.18908" lon="6.15083">
        <ele>222.5</ele>
        <time>2011-11-06T09:11:05Z</time>
      </trkpt>
      <trkpt lat="49.18916" lon="6.15079">
        <ele>222.7</ele>
        <time>2011-11-06T09:11:06Z</time>
      </trkpt>
      <trkpt lat="49.18926" lon="6.15078">
        <ele>222.8</ele>
        <time>2011-11-06T09:11:07Z</time>
      </trkpt>
      <trkpt lat="49.18934" lon="6.15077">
        <ele>222.9</ele>
        <time>2011-11-06T09:11:08Z</time>
      </trkpt>
      <trkpt lat="49.18943" lon="6.15076">
        <ele>223</ele>
        <time>2011-11-06T09:11:09Z</time>
      </trkpt>
      <trkpt lat="49.1895" lon="6.15074">
        <ele>223</ele>
        <time>2011-11-06T09:11:10Z</time>
      </trkpt>
      <trkpt lat="49.18957" lon="6.15075">
        <ele>223</ele>
        <time>2011-11-06T09:11:11Z</time>
      </trkpt>
      <trkpt lat="49.18965" lon="6.15074">
        <ele>222.9</ele>
        <time>2011-11-06T09:11:12Z</time>
      </trkpt>
      <trkpt lat="49.18972" lon="6.15072">
        <ele>222.9</ele>
        <time>2011-11-06T09:11:13Z</time>
      </trkpt>
      <trkpt lat="49.18979" lon="6.15067">
        <ele>223</ele>
        <time>2011-11-06T09:11:14Z</time>
      </trkpt>
      <trkpt lat="49.18987" lon="6.15066">
        <ele>223.1</ele>
        <time>2011-11-06T09:11:15Z</time>
      </trkpt>
      <trkpt lat="49.18996" lon="6.15066">
        <ele>223.2</ele>
        <time>2011-11-06T09:11:16Z</time>
      </trkpt>
      <trkpt lat="49.19003" lon="6.15065">
        <ele>223.2</ele>
        <time>2011-11-06T09:11:17Z</time>
      </trkpt>
      <trkpt lat="49.19009" lon="6.15064">
        <ele>223.1</ele>
        <time>2011-11-06T09:11:18Z</time>
      </trkpt>
      <trkpt lat="49.19018" lon="6.15066">
        <ele>223.1</ele>
        <time>2011-11-06T09:11:19Z</time>
      </trkpt>
      <trkpt lat="49.19025" lon="6.15062">
        <ele>223.1</ele>
        <time>2011-11-06T09:11:20Z</time>
      </trkpt>
      <trkpt lat="49.19032" lon="6.15066">
        <ele>223</ele>
        <time>2011-11-06T09:11:21Z</time>
      </trkpt>
      <trkpt lat="49.19042" lon="6.15064">
        <ele>223</ele>
        <time>2011-11-06T09:11:22Z</time>
      </trkpt>
      <trkpt lat="49.19047" lon="6.15058">
        <ele>223</ele>
        <time>2011-11-06T09:11:23Z</time>
      </trkpt>
      <trkpt lat="49.19055" lon="6.15059">
        <ele>223</ele>
        <time>2011-11-06T09:11:24Z</time>
      </trkpt>
      <trkpt lat="49.19063" lon="6.15058">
        <ele>223.1</ele>
        <time>2011-11-06T09:11:25Z</time>
      </trkpt>
      <trkpt lat="49.19077" lon="6.15062">
        <ele>223.1</ele>
        <time>2011-11-06T09:11:26Z</time>
      </trkpt>
      <trkpt lat="49.19085" lon="6.15069">
        <ele>223.1</ele>
        <time>2011-11-06T09:11:27Z</time>
      </trkpt>
      <trkpt lat="49.19096" lon="6.15073">
        <ele>223.2</ele>
        <time>2011-11-06T09:11:28Z</time>
      </trkpt>
      <trkpt lat="49.19105" lon="6.15072">
        <ele>223.3</ele>
        <time>2011-11-06T09:11:29Z</time>
      </trkpt>
      <trkpt lat="49.19118" lon="6.15076">
        <ele>223.3</ele>
        <time>2011-11-06T09:11:30Z</time>
      </trkpt>
      <trkpt lat="49.19118" lon="6.15064">
        <ele>223.2</ele>
        <time>2011-11-06T09:11:31Z</time>
      </trkpt>
      <trkpt lat="49.19123" lon="6.15064">
        <ele>223.1</ele>
        <time>2011-11-06T09:11:32Z</time>
      </trkpt>
      <trkpt lat="49.1913" lon="6.15063">
        <ele>223.1</ele>
        <time>2011-11-06T09:11:33Z</time>
      </trkpt>
      <trkpt lat="49.19137" lon="6.15061">
        <ele>223.2</ele>
        <time>2011-11-06T09:11:34Z</time>
      </trkpt>
      <trkpt lat="49.19144" lon="6.1506">
        <ele>223.2</ele>
        <time>2011-11-06T09:11:35Z</time>
      </trkpt>
      <trkpt lat="49.19151" lon="6.15057">
        <ele>223.3</ele>
        <time>2011-11-06T09:11:36Z</time>
      </trkpt>
      <trkpt lat="49.19157" lon="6.15055">
        <ele>223.3</ele>
        <time>2011-11-06T09:11:37Z</time>
      </trkpt>
      <trkpt lat="49.19167" lon="6.15059">
        <ele>223.4</ele>
        <time>2011-11-06T09:11:38Z</time>
      </trkpt>
      <trkpt lat="49.19175" lon="6.15054">
        <ele>223.4</ele>
        <time>2011-11-06T09:11:39Z</time>
      </trkpt>
      <trkpt lat="49.19183" lon="6.15048">
        <ele>223.4</ele>
        <time>2011-11-06T09:11:40Z</time>
      </trkpt>
      <trkpt lat="49.19194" lon="6.15046">
        <ele>223.5</ele>
        <time>2011-11-06T09:11:42Z</time>
      </trkpt>
      <trkpt lat="49.19202" lon="6.15044">
        <ele>223.5</ele>
        <time>2011-11-06T09:11:43Z</time>
      </trkpt>
      <trkpt lat="49.19207" lon="6.15043">
        <ele>223.6</ele>
        <time>2011-11-06T09:11:44Z</time>
      </trkpt>
      <trkpt lat="49.19215" lon="6.15045">
        <ele>223.6</ele>
        <time>2011-11-06T09:11:45Z</time>
      </trkpt>
      <trkpt lat="49.19223" lon="6.15047">
        <ele>223.6</ele>
        <time>2011-11-06T09:11:46Z</time>
      </trkpt>
      <trkpt lat="49.19231" lon="6.15048">
        <ele>223.7</ele>
        <time>2011-11-06T09:11:48Z</time>
      </trkpt>
      <trkpt lat="49.19237" lon="6.15051">
        <ele>223.7</ele>
        <time>2011-11-06T09:11:49Z</time>
      </trkpt>
      <trkpt lat="49.1924" lon="6.15059">
        <ele>223.7</ele>
        <time>2011-11-06T09:11:51Z</time>
      </trkpt>
      <trkpt lat="49.19244" lon="6.15063">
        <ele>223.7</ele>
        <time>2011-11-06T09:11:52Z</time>
      </trkpt>
      <trkpt lat="49.19252" lon="6.15075">
        <ele>223.7</ele>
        <time>2011-11-06T09:11:53Z</time>
      </trkpt>
      <trkpt lat="49.19257" lon="6.15086">
        <ele>223.8</ele>
        <time>2011-11-06T09:11:54Z</time>
      </trkpt>
      <trkpt lat="49.19262" lon="6.15091">
        <ele>223.8</ele>
        <time>2011-11-06T09:11:55Z</time>
      </trkpt>
      <trkpt lat="49.19263" lon="6.15098">
        <ele>223.9</ele>
        <time>2011-11-06T09:11:56Z</time>
      </trkpt>
      <trkpt lat="49.19271" lon="6.15101">
        <ele>223.7</ele>
        <time>2011-11-06T09:11:57Z</time>
      </trkpt>
      <trkpt lat="49.19278" lon="6.15109">
        <ele>223.7</ele>
        <time>2011-11-06T09:11:58Z</time>
      </trkpt>
      <trkpt lat="49.19284" lon="6.15112">
        <ele>223.7</ele>
        <time>2011-11-06T09:11:59Z</time>
      </trkpt>
      <trkpt lat="49.19291" lon="6.15117">
        <ele>223.7</ele>
        <time>2011-11-06T09:12:00Z</time>
      </trkpt>
      <trkpt lat="49.19298" lon="6.15117">
        <ele>223.7</ele>
        <time>2011-11-06T09:12:01Z</time>
      </trkpt>
      <trkpt lat="49.19305" lon="6.15113">
        <ele>223.8</ele>
        <time>2011-11-06T09:12:02Z</time>
      </trkpt>
      <trkpt lat="49.19312" lon="6.15113">
        <ele>223.8</ele>
        <time>2011-11-06T09:12:03Z</time>
      </trkpt>
      <trkpt lat="49.1932" lon="6.15111">
        <ele>223.8</ele>
        <time>2011-11-06T09:12:04Z</time>
      </trkpt>
      <trkpt lat="49.19329" lon="6.15107">
        <ele>223.9</ele>
        <time>2011-11-06T09:12:05Z</time>
      </trkpt>
      <trkpt lat="49.19336" lon="6.151">
        <ele>224</ele>
        <time>2011-11-06T09:12:06Z</time>
      </trkpt>
      <trkpt lat="49.19344" lon="6.151">
        <ele>224</ele>
        <time>2011-11-06T09:12:07Z</time>
      </trkpt>
      <trkpt lat="49.19349" lon="6.15093">
        <ele>224</ele>
        <time>2011-11-06T09:12:08Z</time>
      </trkpt>
      <trkpt lat="49.19356" lon="6.15092">
        <ele>224</ele>
        <time>2011-11-06T09:12:09Z</time>
      </trkpt>
      <trkpt lat="49.19364" lon="6.15085">
        <ele>224</ele>
        <time>2011-11-06T09:12:10Z</time>
      </trkpt>
      <trkpt lat="49.19369" lon="6.15082">
        <ele>224.1</ele>
        <time>2011-11-06T09:12:11Z</time>
      </trkpt>
      <trkpt lat="49.19375" lon="6.15082">
        <ele>224.1</ele>
        <time>2011-11-06T09:12:12Z</time>
      </trkpt>
      <trkpt lat="49.19376" lon="6.15074">
        <ele>224.1</ele>
        <time>2011-11-06T09:12:13Z</time>
      </trkpt>
      <trkpt lat="49.19383" lon="6.1507">
        <ele>224.1</ele>
        <time>2011-11-06T09:12:14Z</time>
      </trkpt>
      <trkpt lat="49.19388" lon="6.15065">
        <ele>224.1</ele>
        <time>2011-11-06T09:12:15Z</time>
      </trkpt>
      <trkpt lat="49.19396" lon="6.15063">
        <ele>224.1</ele>
        <time>2011-11-06T09:12:16Z</time>
      </trkpt>
      <trkpt lat="49.19403" lon="6.15059">
        <ele>224.1</ele>
        <time>2011-11-06T09:12:17Z</time>
      </trkpt>
      <trkpt lat="49.19413" lon="6.15055">
        <ele>224.2</ele>
        <time>2011-11-06T09:12:18Z</time>
      </trkpt>
      <trkpt lat="49.19419" lon="6.15054">
        <ele>224.2</ele>
        <time>2011-11-06T09:12:19Z</time>
      </trkpt>
      <trkpt lat="49.19422" lon="6.15043">
        <ele>224.2</ele>
        <time>2011-11-06T09:12:20Z</time>
      </trkpt>
      <trkpt lat="49.19427" lon="6.1504">
        <ele>224.2</ele>
        <time>2011-11-06T09:12:21Z</time>
      </trkpt>
      <trkpt lat="49.19434" lon="6.15038">
        <ele>224.3</ele>
        <time>2011-11-06T09:12:22Z</time>
      </trkpt>
      <trkpt lat="49.19438" lon="6.15029">
        <ele>225.7</ele>
        <time>2011-11-06T09:12:24Z</time>
      </trkpt>
      <trkpt lat="49.19448" lon="6.1503">
        <ele>225.2</ele>
        <time>2011-11-06T09:12:25Z</time>
      </trkpt>
      <trkpt lat="49.19454" lon="6.15026">
        <ele>224.3</ele>
        <time>2011-11-06T09:12:26Z</time>
      </trkpt>
      <trkpt lat="49.19458" lon="6.1502">
        <ele>224.4</ele>
        <time>2011-11-06T09:12:27Z</time>
      </trkpt>
      <trkpt lat="49.19462" lon="6.15019">
        <ele>225.1</ele>
        <time>2011-11-06T09:12:28Z</time>
      </trkpt>
      <trkpt lat="49.1947" lon="6.15017">
        <ele>225.4</ele>
        <time>2011-11-06T09:12:29Z</time>
      </trkpt>
      <trkpt lat="49.19476" lon="6.15015">
        <ele>226</ele>
        <time>2011-11-06T09:12:30Z</time>
      </trkpt>
      <trkpt lat="49.19482" lon="6.15014">
        <ele>226.5</ele>
        <time>2011-11-06T09:12:31Z</time>
      </trkpt>
      <trkpt lat="49.19489" lon="6.15012">
        <ele>226</ele>
        <time>2011-11-06T09:12:32Z</time>
      </trkpt>
      <trkpt lat="49.19496" lon="6.15011">
        <ele>226.8</ele>
        <time>2011-11-06T09:12:33Z</time>
      </trkpt>
      <trkpt lat="49.19504" lon="6.1501">
        <ele>226.5</ele>
        <time>2011-11-06T09:12:34Z</time>
      </trkpt>
      <trkpt lat="49.19513" lon="6.15011">
        <ele>226.7</ele>
        <time>2011-11-06T09:12:35Z</time>
      </trkpt>
      <trkpt lat="49.19521" lon="6.15011">
        <ele>226.9</ele>
        <time>2011-11-06T09:12:36Z</time>
      </trkpt>
      <trkpt lat="49.1953" lon="6.1501">
        <ele>228</ele>
        <time>2011-11-06T09:12:37Z</time>
      </trkpt>
      <trkpt lat="49.19537" lon="6.1501">
        <ele>228.4</ele>
        <time>2011-11-06T09:12:38Z</time>
      </trkpt>
      <trkpt lat="49.19546" lon="6.15009">
        <ele>228.8</ele>
        <time>2011-11-06T09:12:39Z</time>
      </trkpt>
      <trkpt lat="49.19554" lon="6.15008">
        <ele>229.2</ele>
        <time>2011-11-06T09:12:40Z</time>
      </trkpt>
      <trkpt lat="49.19563" lon="6.15007">
        <ele>229.3</ele>
        <time>2011-11-06T09:12:41Z</time>
      </trkpt>
      <trkpt lat="49.19571" lon="6.15004">
        <ele>227.7</ele>
        <time>2011-11-06T09:12:42Z</time>
      </trkpt>
      <trkpt lat="49.1958" lon="6.15005">
        <ele>227.9</ele>
        <time>2011-11-06T09:12:43Z</time>
      </trkpt>
      <trkpt lat="49.19589" lon="6.15003">
        <ele>227.1</ele>
        <time>2011-11-06T09:12:44Z</time>
      </trkpt>
      <trkpt lat="49.19598" lon="6.15002">
        <ele>226.4</ele>
        <time>2011-11-06T09:12:45Z</time>
      </trkpt>
      <trkpt lat="49.19607" lon="6.15002">
        <ele>227.3</ele>
        <time>2011-11-06T09:12:46Z</time>
      </trkpt>
      <trkpt lat="49.19617" lon="6.14999">
        <ele>226.3</ele>
        <time>2011-11-06T09:12:47Z</time>
      </trkpt>
      <trkpt lat="49.19626" lon="6.14999">
        <ele>225.8</ele>
        <time>2011-11-06T09:12:48Z</time>
      </trkpt>
      <trkpt lat="49.19634" lon="6.14998">
        <ele>225.8</ele>
        <time>2011-11-06T09:12:49Z</time>
      </trkpt>
      <trkpt lat="49.19709" lon="6.14986">
        <ele>226.3</ele>
        <time>2011-11-06T09:12:58Z</time>
      </trkpt>
      <trkpt lat="49.19716" lon="6.14984">
        <ele>226.4</ele>
        <time>2011-11-06T09:12:59Z</time>
      </trkpt>
      <trkpt lat="49.19723" lon="6.14984">
        <ele>226.8</ele>
        <time>2011-11-06T09:13:00Z</time>
      </trkpt>
      <trkpt lat="49.19729" lon="6.14984">
        <ele>226.2</ele>
        <time>2011-11-06T09:13:01Z</time>
      </trkpt>
      <trkpt lat="49.19736" lon="6.14981">
        <ele>226.1</ele>
        <time>2011-11-06T09:13:02Z</time>
      </trkpt>
      <trkpt lat="49.19744" lon="6.14981">
        <ele>226.1</ele>
        <time>2011-11-06T09:13:03Z</time>
      </trkpt>
      <trkpt lat="49.19753" lon="6.1498">
        <ele>226.2</ele>
        <time>2011-11-06T09:13:04Z</time>
      </trkpt>
      <trkpt lat="49.1976" lon="6.14978">
        <ele>226.5</ele>
        <time>2011-11-06T09:13:05Z</time>
      </trkpt>
      <trkpt lat="49.19769" lon="6.14978">
        <ele>226.1</ele>
        <time>2011-11-06T09:13:06Z</time>
      </trkpt>
      <trkpt lat="49.19776" lon="6.14978">
        <ele>225.9</ele>
        <time>2011-11-06T09:13:07Z</time>
      </trkpt>
      <trkpt lat="49.19783" lon="6.14978">
        <ele>225.6</ele>
        <time>2011-11-06T09:13:08Z</time>
      </trkpt>
      <trkpt lat="49.19791" lon="6.14976">
        <ele>225.3</ele>
        <time>2011-11-06T09:13:09Z</time>
      </trkpt>
      <trkpt lat="49.19798" lon="6.14976">
        <ele>224.9</ele>
        <time>2011-11-06T09:13:10Z</time>
      </trkpt>
      <trkpt lat="49.19806" lon="6.14975">
        <ele>224.8</ele>
        <time>2011-11-06T09:13:11Z</time>
      </trkpt>
      <trkpt lat="49.19812" lon="6.14974">
        <ele>224.9</ele>
        <time>2011-11-06T09:13:12Z</time>
      </trkpt>
      <trkpt lat="49.1982" lon="6.14973">
        <ele>224.8</ele>
        <time>2011-11-06T09:13:13Z</time>
      </trkpt>
      <trkpt lat="49.19828" lon="6.14972">
        <ele>225.1</ele>
        <time>2011-11-06T09:13:14Z</time>
      </trkpt>
      <trkpt lat="49.19838" lon="6.14972">
        <ele>224.9</ele>
        <time>2011-11-06T09:13:15Z</time>
      </trkpt>
      <trkpt lat="49.19848" lon="6.14973">
        <ele>225.5</ele>
        <time>2011-11-06T09:13:16Z</time>
      </trkpt>
      <trkpt lat="49.19855" lon="6.14969">
        <ele>224.8</ele>
        <time>2011-11-06T09:13:17Z</time>
      </trkpt>
      <trkpt lat="49.19862" lon="6.14968">
        <ele>225.1</ele>
        <time>2011-11-06T09:13:18Z</time>
      </trkpt>
      <trkpt lat="49.19867" lon="6.14965">
        <ele>225.3</ele>
        <time>2011-11-06T09:13:19Z</time>
      </trkpt>
      <trkpt lat="49.19874" lon="6.14965">
        <ele>225.9</ele>
        <time>2011-11-06T09:13:20Z</time>
      </trkpt>
      <trkpt lat="49.1988" lon="6.14962">
        <ele>226.6</ele>
        <time>2011-11-06T09:13:21Z</time>
      </trkpt>
      <trkpt lat="49.19889" lon="6.14962">
        <ele>226.2</ele>
        <time>2011-11-06T09:13:22Z</time>
      </trkpt>
      <trkpt lat="49.19897" lon="6.14962">
        <ele>225.9</ele>
        <time>2011-11-06T09:13:23Z</time>
      </trkpt>
      <trkpt lat="49.19908" lon="6.14962">
        <ele>226.1</ele>
        <time>2011-11-06T09:13:24Z</time>
      </trkpt>
      <trkpt lat="49.19916" lon="6.14959">
        <ele>225.7</ele>
        <time>2011-11-06T09:13:25Z</time>
      </trkpt>
      <trkpt lat="49.19924" lon="6.14959">
        <ele>225.6</ele>
        <time>2011-11-06T09:13:26Z</time>
      </trkpt>
      <trkpt lat="49.19933" lon="6.1496">
        <ele>225.9</ele>
        <time>2011-11-06T09:13:27Z</time>
      </trkpt>
      <trkpt lat="49.19941" lon="6.14959">
        <ele>226.2</ele>
        <time>2011-11-06T09:13:28Z</time>
      </trkpt>
      <trkpt lat="49.19947" lon="6.14958">
        <ele>226.3</ele>
        <time>2011-11-06T09:13:29Z</time>
      </trkpt>
      <trkpt lat="49.19953" lon="6.14957">
        <ele>226.9</ele>
        <time>2011-11-06T09:13:30Z</time>
      </trkpt>
      <trkpt lat="49.1996" lon="6.14959">
        <ele>227</ele>
        <time>2011-11-06T09:13:31Z</time>
      </trkpt>
      <trkpt lat="49.19967" lon="6.14959">
        <ele>226.8</ele>
        <time>2011-11-06T09:13:32Z</time>
      </trkpt>
      <trkpt lat="49.19976" lon="6.14957">
        <ele>226.6</ele>
        <time>2011-11-06T09:13:33Z</time>
      </trkpt>
      <trkpt lat="49.19983" lon="6.14954">
        <ele>226.7</ele>
        <time>2011-11-06T09:13:34Z</time>
      </trkpt>
      <trkpt lat="49.19992" lon="6.14953">
        <ele>226.5</ele>
        <time>2011-11-06T09:13:35Z</time>
      </trkpt>
      <trkpt lat="49.19999" lon="6.14951">
        <ele>226.5</ele>
        <time>2011-11-06T09:13:36Z</time>
      </trkpt>
      <trkpt lat="49.20007" lon="6.14951">
        <ele>226.4</ele>
        <time>2011-11-06T09:13:37Z</time>
      </trkpt>
      <trkpt lat="49.20015" lon="6.1495">
        <ele>226.2</ele>
        <time>2011-11-06T09:13:38Z</time>
      </trkpt>
      <trkpt lat="49.20021" lon="6.14946">
        <ele>226.5</ele>
        <time>2011-11-06T09:13:39Z</time>
      </trkpt>
      <trkpt lat="49.2003" lon="6.14946">
        <ele>226.5</ele>
        <time>2011-11-06T09:13:40Z</time>
      </trkpt>
      <trkpt lat="49.20039" lon="6.14945">
        <ele>226.2</ele>
        <time>2011-11-06T09:13:41Z</time>
      </trkpt>
      <trkpt lat="49.20046" lon="6.14943">
        <ele>225</ele>
        <time>2011-11-06T09:13:42Z</time>
      </trkpt>
      <trkpt lat="49.20052" lon="6.14942">
        <ele>224.7</ele>
        <time>2011-11-06T09:13:43Z</time>
      </trkpt>
      <trkpt lat="49.20062" lon="6.14944">
        <ele>224.1</ele>
        <time>2011-11-06T09:13:44Z</time>
      </trkpt>
      <trkpt lat="49.2007" lon="6.14945">
        <ele>224</ele>
        <time>2011-11-06T09:13:45Z</time>
      </trkpt>
      <trkpt lat="49.20079" lon="6.14945">
        <ele>223.7</ele>
        <time>2011-11-06T09:13:46Z</time>
      </trkpt>
      <trkpt lat="49.20088" lon="6.14945">
        <ele>223.6</ele>
        <time>2011-11-06T09:13:47Z</time>
      </trkpt>
      <trkpt lat="49.20095" lon="6.14946">
        <ele>223.2</ele>
        <time>2011-11-06T09:13:48Z</time>
      </trkpt>
      <trkpt lat="49.20103" lon="6.14946">
        <ele>223.3</ele>
        <time>2011-11-06T09:13:49Z</time>
      </trkpt>
      <trkpt lat="49.2011" lon="6.14945">
        <ele>223.5</ele>
        <time>2011-11-06T09:13:50Z</time>
      </trkpt>
      <trkpt lat="49.20116" lon="6.14943">
        <ele>223.9</ele>
        <time>2011-11-06T09:13:51Z</time>
      </trkpt>
      <trkpt lat="49.20124" lon="6.14942">
        <ele>223.9</ele>
        <time>2011-11-06T09:13:51Z</time>
      </trkpt>
      <trkpt lat="49.20134" lon="6.1494">
        <ele>223.9</ele>
        <time>2011-11-06T09:13:53Z</time>
      </trkpt>
      <trkpt lat="49.20139" lon="6.14934">
        <ele>224.3</ele>
        <time>2011-11-06T09:13:54Z</time>
      </trkpt>
      <trkpt lat="49.20146" lon="6.14934">
        <ele>223.7</ele>
        <time>2011-11-06T09:13:55Z</time>
      </trkpt>
      <trkpt lat="49.20157" lon="6.14933">
        <ele>223.7</ele>
        <time>2011-11-06T09:13:56Z</time>
      </trkpt>
      <trkpt lat="49.20162" lon="6.14932">
        <ele>223.7</ele>
        <time>2011-11-06T09:13:56Z</time>
      </trkpt>
      <trkpt lat="49.20168" lon="6.14932">
        <ele>223.7</ele>
        <time>2011-11-06T09:13:57Z</time>
      </trkpt>
      <trkpt lat="49.20174" lon="6.14931">
        <ele>223.4</ele>
        <time>2011-11-06T09:13:58Z</time>
      </trkpt>
      <trkpt lat="49.2018" lon="6.14931">
        <ele>223.1</ele>
        <time>2011-11-06T09:13:59Z</time>
      </trkpt>
      <trkpt lat="49.20187" lon="6.14929">
        <ele>223.3</ele>
        <time>2011-11-06T09:14:00Z</time>
      </trkpt>
      <trkpt lat="49.20194" lon="6.14929">
        <ele>223.4</ele>
        <time>2011-11-06T09:14:01Z</time>
      </trkpt>
      <trkpt lat="49.20204" lon="6.1493">
        <ele>223.6</ele>
        <time>2011-11-06T09:14:02Z</time>
      </trkpt>
      <trkpt lat="49.20212" lon="6.14931">
        <ele>223.8</ele>
        <time>2011-11-06T09:14:03Z</time>
      </trkpt>
      <trkpt lat="49.20221" lon="6.14936">
        <ele>223.9</ele>
        <time>2011-11-06T09:14:04Z</time>
      </trkpt>
      <trkpt lat="49.20229" lon="6.1494">
        <ele>224</ele>
        <time>2011-11-06T09:14:05Z</time>
      </trkpt>
      <trkpt lat="49.20238" lon="6.14945">
        <ele>224</ele>
        <time>2011-11-06T09:14:06Z</time>
      </trkpt>
      <trkpt lat="49.20246" lon="6.14949">
        <ele>224.1</ele>
        <time>2011-11-06T09:14:07Z</time>
      </trkpt>
      <trkpt lat="49.20256" lon="6.14954">
        <ele>224</ele>
        <time>2011-11-06T09:14:09Z</time>
      </trkpt>
      <trkpt lat="49.20263" lon="6.14958">
        <ele>224.1</ele>
        <time>2011-11-06T09:14:10Z</time>
      </trkpt>
      <trkpt lat="49.2027" lon="6.14961">
        <ele>224</ele>
        <time>2011-11-06T09:14:11Z</time>
      </trkpt>
      <trkpt lat="49.20278" lon="6.14966">
        <ele>224</ele>
        <time>2011-11-06T09:14:12Z</time>
      </trkpt>
      <trkpt lat="49.20286" lon="6.14968">
        <ele>223.9</ele>
        <time>2011-11-06T09:14:13Z</time>
      </trkpt>
      <trkpt lat="49.20296" lon="6.14963">
        <ele>223.7</ele>
        <time>2011-11-06T09:14:15Z</time>
      </trkpt>
      <trkpt lat="49.20305" lon="6.14964">
        <ele>223.7</ele>
        <time>2011-11-06T09:14:16Z</time>
      </trkpt>
      <trkpt lat="49.20312" lon="6.14965">
        <ele>223.7</ele>
        <time>2011-11-06T09:14:17Z</time>
      </trkpt>
      <trkpt lat="49.2032" lon="6.14968">
        <ele>223.7</ele>
        <time>2011-11-06T09:14:18Z</time>
      </trkpt>
      <trkpt lat="49.20325" lon="6.14966">
        <ele>223.8</ele>
        <time>2011-11-06T09:14:19Z</time>
      </trkpt>
      <trkpt lat="49.20332" lon="6.14961">
        <ele>223.8</ele>
        <time>2011-11-06T09:14:20Z</time>
      </trkpt>
      <trkpt lat="49.2034" lon="6.14957">
        <ele>223.9</ele>
        <time>2011-11-06T09:14:21Z</time>
      </trkpt>
      <trkpt lat="49.20348" lon="6.14956">
        <ele>223.9</ele>
        <time>2011-11-06T09:14:22Z</time>
      </trkpt>
      <trkpt lat="49.20356" lon="6.14952">
        <ele>223.8</ele>
        <time>2011-11-06T09:14:24Z</time>
      </trkpt>
      <trkpt lat="49.20362" lon="6.14947">
        <ele>223.9</ele>
        <time>2011-11-06T09:14:25Z</time>
      </trkpt>
      <trkpt lat="49.20369" lon="6.14947">
        <ele>223.9</ele>
        <time>2011-11-06T09:14:26Z</time>
      </trkpt>
      <trkpt lat="49.20379" lon="6.14948">
        <ele>224</ele>
        <time>2011-11-06T09:14:27Z</time>
      </trkpt>
      <trkpt lat="49.20384" lon="6.14946">
        <ele>224</ele>
        <time>2011-11-06T09:14:28Z</time>
      </trkpt>
      <trkpt lat="49.20387" lon="6.14935">
        <ele>223.9</ele>
        <time>2011-11-06T09:14:29Z</time>
      </trkpt>
      <trkpt lat="49.20393" lon="6.14929">
        <ele>223.9</ele>
        <time>2011-11-06T09:14:30Z</time>
      </trkpt>
      <trkpt lat="49.20403" lon="6.14923">
        <ele>224</ele>
        <time>2011-11-06T09:14:31Z</time>
      </trkpt>
      <trkpt lat="49.20411" lon="6.1492">
        <ele>224</ele>
        <time>2011-11-06T09:14:32Z</time>
      </trkpt>
      <trkpt lat="49.20418" lon="6.14911">
        <ele>224</ele>
        <time>2011-11-06T09:14:33Z</time>
      </trkpt>
      <trkpt lat="49.20422" lon="6.14901">
        <ele>224</ele>
        <time>2011-11-06T09:14:34Z</time>
      </trkpt>
      <trkpt lat="49.20429" lon="6.14897">
        <ele>224</ele>
        <time>2011-11-06T09:14:35Z</time>
      </trkpt>
      <trkpt lat="49.20437" lon="6.14892">
        <ele>224.1</ele>
        <time>2011-11-06T09:14:36Z</time>
      </trkpt>
      <trkpt lat="49.20445" lon="6.1489">
        <ele>224.1</ele>
        <time>2011-11-06T09:14:37Z</time>
      </trkpt>
      <trkpt lat="49.2045" lon="6.14888">
        <ele>224.1</ele>
        <time>2011-11-06T09:14:38Z</time>
      </trkpt>
      <trkpt lat="49.2046" lon="6.14888">
        <ele>224.1</ele>
        <time>2011-11-06T09:14:39Z</time>
      </trkpt>
      <trkpt lat="49.20468" lon="6.14884">
        <ele>224.1</ele>
        <time>2011-11-06T09:14:41Z</time>
      </trkpt>
      <trkpt lat="49.20474" lon="6.14881">
        <ele>224.1</ele>
        <time>2011-11-06T09:14:42Z</time>
      </trkpt>
      <trkpt lat="49.20482" lon="6.14878">
        <ele>224.1</ele>
        <time>2011-11-06T09:14:43Z</time>
      </trkpt>
      <trkpt lat="49.20493" lon="6.14885">
        <ele>224.2</ele>
        <time>2011-11-06T09:14:44Z</time>
      </trkpt>
      <trkpt lat="49.20504" lon="6.14886">
        <ele>224.3</ele>
        <time>2011-11-06T09:14:45Z</time>
      </trkpt>
      <trkpt lat="49.20511" lon="6.14887">
        <ele>224.3</ele>
        <time>2011-11-06T09:14:46Z</time>
      </trkpt>
      <trkpt lat="49.20518" lon="6.14888">
        <ele>224.3</ele>
        <time>2011-11-06T09:14:47Z</time>
      </trkpt>
      <trkpt lat="49.20526" lon="6.14883">
        <ele>224.3</ele>
        <time>2011-11-06T09:14:48Z</time>
      </trkpt>
      <trkpt lat="49.20533" lon="6.14881">
        <ele>224.4</ele>
        <time>2011-11-06T09:14:49Z</time>
      </trkpt>
      <trkpt lat="49.2054" lon="6.14881">
        <ele>224.4</ele>
        <time>2011-11-06T09:14:50Z</time>
      </trkpt>
      <trkpt lat="49.20547" lon="6.14883">
        <ele>224.4</ele>
        <time>2011-11-06T09:14:51Z</time>
      </trkpt>
      <trkpt lat="49.20553" lon="6.14882">
        <ele>224.5</ele>
        <time>2011-11-06T09:14:52Z</time>
      </trkpt>
      <trkpt lat="49.2056" lon="6.14884">
        <ele>224.5</ele>
        <time>2011-11-06T09:14:53Z</time>
      </trkpt>
      <trkpt lat="49.20568" lon="6.14884">
        <ele>224.5</ele>
        <time>2011-11-06T09:14:54Z</time>
      </trkpt>
      <trkpt lat="49.20593" lon="6.14879">
        <ele>225.5</ele>
        <time>2011-11-06T09:14:58Z</time>
      </trkpt>
      <trkpt lat="49.20599" lon="6.14878">
        <ele>227</ele>
        <time>2011-11-06T09:14:59Z</time>
      </trkpt>
      <trkpt lat="49.20609" lon="6.14872">
        <ele>227.4</ele>
        <time>2011-11-06T09:15:01Z</time>
      </trkpt>
      <trkpt lat="49.20624" lon="6.14874">
        <ele>226.7</ele>
        <time>2011-11-06T09:15:02Z</time>
      </trkpt>
      <trkpt lat="49.20633" lon="6.14873">
        <ele>226.6</ele>
        <time>2011-11-06T09:15:03Z</time>
      </trkpt>
      <trkpt lat="49.2064" lon="6.14874">
        <ele>226.6</ele>
        <time>2011-11-06T09:15:04Z</time>
      </trkpt>
      <trkpt lat="49.20649" lon="6.1487">
        <ele>225.2</ele>
        <time>2011-11-06T09:15:05Z</time>
      </trkpt>
      <trkpt lat="49.20657" lon="6.1487">
        <ele>225.4</ele>
        <time>2011-11-06T09:15:06Z</time>
      </trkpt>
      <trkpt lat="49.20666" lon="6.1487">
        <ele>225.1</ele>
        <time>2011-11-06T09:15:07Z</time>
      </trkpt>
      <trkpt lat="49.20675" lon="6.1487">
        <ele>225.4</ele>
        <time>2011-11-06T09:15:08Z</time>
      </trkpt>
      <trkpt lat="49.20686" lon="6.14871">
        <ele>225.9</ele>
        <time>2011-11-06T09:15:09Z</time>
      </trkpt>
      <trkpt lat="49.20694" lon="6.14869">
        <ele>226.1</ele>
        <time>2011-11-06T09:15:10Z</time>
      </trkpt>
      <trkpt lat="49.20703" lon="6.14867">
        <ele>225.8</ele>
        <time>2011-11-06T09:15:11Z</time>
      </trkpt>
      <trkpt lat="49.20712" lon="6.14866">
        <ele>226</ele>
        <time>2011-11-06T09:15:12Z</time>
      </trkpt>
      <trkpt lat="49.2072" lon="6.14866">
        <ele>225</ele>
        <time>2011-11-06T09:15:13Z</time>
      </trkpt>
      <trkpt lat="49.20726" lon="6.14863">
        <ele>225.2</ele>
        <time>2011-11-06T09:15:14Z</time>
      </trkpt>
      <trkpt lat="49.20735" lon="6.14863">
        <ele>225.2</ele>
        <time>2011-11-06T09:15:15Z</time>
      </trkpt>
      <trkpt lat="49.20742" lon="6.14862">
        <ele>225.5</ele>
        <time>2011-11-06T09:15:16Z</time>
      </trkpt>
      <trkpt lat="49.2075" lon="6.14864">
        <ele>225.4</ele>
        <time>2011-11-06T09:15:17Z</time>
      </trkpt>
      <trkpt lat="49.20758" lon="6.14861">
        <ele>225.7</ele>
        <time>2011-11-06T09:15:18Z</time>
      </trkpt>
      <trkpt lat="49.20764" lon="6.1486">
        <ele>225.3</ele>
        <time>2011-11-06T09:15:19Z</time>
      </trkpt>
      <trkpt lat="49.20771" lon="6.14859">
        <ele>224.8</ele>
        <time>2011-11-06T09:15:20Z</time>
      </trkpt>
      <trkpt lat="49.20777" lon="6.14857">
        <ele>224.7</ele>
        <time>2011-11-06T09:15:21Z</time>
      </trkpt>
      <trkpt lat="49.20785" lon="6.14856">
        <ele>224.1</ele>
        <time>2011-11-06T09:15:22Z</time>
      </trkpt>
      <trkpt lat="49.20794" lon="6.14855">
        <ele>224.2</ele>
        <time>2011-11-06T09:15:23Z</time>
      </trkpt>
      <trkpt lat="49.20801" lon="6.14853">
        <ele>224.2</ele>
        <time>2011-11-06T09:15:24Z</time>
      </trkpt>
      <trkpt lat="49.20808" lon="6.14852">
        <ele>224.6</ele>
        <time>2011-11-06T09:15:25Z</time>
      </trkpt>
      <trkpt lat="49.20814" lon="6.14852">
        <ele>224.5</ele>
        <time>2011-11-06T09:15:26Z</time>
      </trkpt>
      <trkpt lat="49.2082" lon="6.14851">
        <ele>223.9</ele>
        <time>2011-11-06T09:15:27Z</time>
      </trkpt>
      <trkpt lat="49.20826" lon="6.14848">
        <ele>224.3</ele>
        <time>2011-11-06T09:15:28Z</time>
      </trkpt>
      <trkpt lat="49.20837" lon="6.14848">
        <ele>224.3</ele>
        <time>2011-11-06T09:15:29Z</time>
      </trkpt>
      <trkpt lat="49.20847" lon="6.14847">
        <ele>224.5</ele>
        <time>2011-11-06T09:15:30Z</time>
      </trkpt>
      <trkpt lat="49.20854" lon="6.14846">
        <ele>223</ele>
        <time>2011-11-06T09:15:31Z</time>
      </trkpt>
      <trkpt lat="49.20861" lon="6.14844">
        <ele>222.9</ele>
        <time>2011-11-06T09:15:32Z</time>
      </trkpt>
      <trkpt lat="49.20869" lon="6.14843">
        <ele>222.9</ele>
        <time>2011-11-06T09:15:33Z</time>
      </trkpt>
      <trkpt lat="49.20876" lon="6.14843">
        <ele>222.5</ele>
        <time>2011-11-06T09:15:34Z</time>
      </trkpt>
      <trkpt lat="49.20884" lon="6.14842">
        <ele>222.7</ele>
        <time>2011-11-06T09:15:35Z</time>
      </trkpt>
      <trkpt lat="49.20892" lon="6.14842">
        <ele>222.7</ele>
        <time>2011-11-06T09:15:36Z</time>
      </trkpt>
      <trkpt lat="49.20898" lon="6.14841">
        <ele>222.6</ele>
        <time>2011-11-06T09:15:37Z</time>
      </trkpt>
      <trkpt lat="49.20906" lon="6.1484">
        <ele>223</ele>
        <time>2011-11-06T09:15:38Z</time>
      </trkpt>
      <trkpt lat="49.20912" lon="6.14838">
        <ele>222</ele>
        <time>2011-11-06T09:15:39Z</time>
      </trkpt>
      <trkpt lat="49.2092" lon="6.14836">
        <ele>222.4</ele>
        <time>2011-11-06T09:15:40Z</time>
      </trkpt>
      <trkpt lat="49.20927" lon="6.14836">
        <ele>222</ele>
        <time>2011-11-06T09:15:41Z</time>
      </trkpt>
      <trkpt lat="49.20932" lon="6.14835">
        <ele>222</ele>
        <time>2011-11-06T09:15:42Z</time>
      </trkpt>
      <trkpt lat="49.20939" lon="6.14833">
        <ele>222.1</ele>
        <time>2011-11-06T09:15:43Z</time>
      </trkpt>
      <trkpt lat="49.20947" lon="6.14832">
        <ele>221.8</ele>
        <time>2011-11-06T09:15:44Z</time>
      </trkpt>
      <trkpt lat="49.20954" lon="6.1483">
        <ele>221.9</ele>
        <time>2011-11-06T09:15:45Z</time>
      </trkpt>
      <trkpt lat="49.20962" lon="6.1483">
        <ele>221.8</ele>
        <time>2011-11-06T09:15:46Z</time>
      </trkpt>
      <trkpt lat="49.20968" lon="6.14829">
        <ele>221.3</ele>
        <time>2011-11-06T09:15:47Z</time>
      </trkpt>
      <trkpt lat="49.20974" lon="6.14828">
        <ele>221.5</ele>
        <time>2011-11-06T09:15:48Z</time>
      </trkpt>
      <trkpt lat="49.20981" lon="6.14826">
        <ele>222</ele>
        <time>2011-11-06T09:15:49Z</time>
      </trkpt>
      <trkpt lat="49.20988" lon="6.14825">
        <ele>221.6</ele>
        <time>2011-11-06T09:15:50Z</time>
      </trkpt>
      <trkpt lat="49.20998" lon="6.14823">
        <ele>221.9</ele>
        <time>2011-11-06T09:15:51Z</time>
      </trkpt>
      <trkpt lat="49.21007" lon="6.14821">
        <ele>222.2</ele>
        <time>2011-11-06T09:15:52Z</time>
      </trkpt>
      <trkpt lat="49.21014" lon="6.14819">
        <ele>222.2</ele>
        <time>2011-11-06T09:15:53Z</time>
      </trkpt>
      <trkpt lat="49.21021" lon="6.14819">
        <ele>222.2</ele>
        <time>2011-11-06T09:15:54Z</time>
      </trkpt>
      <trkpt lat="49.21056" lon="6.14809">
        <ele>222.6</ele>
        <time>2011-11-06T09:15:59Z</time>
      </trkpt>
      <trkpt lat="49.21062" lon="6.14811">
        <ele>222.6</ele>
        <time>2011-11-06T09:16:00Z</time>
      </trkpt>
      <trkpt lat="49.21068" lon="6.14815">
        <ele>222.5</ele>
        <time>2011-11-06T09:16:01Z</time>
      </trkpt>
      <trkpt lat="49.21075" lon="6.1482">
        <ele>222.5</ele>
        <time>2011-11-06T09:16:02Z</time>
      </trkpt>
      <trkpt lat="49.21079" lon="6.14823">
        <ele>222.5</ele>
        <time>2011-11-06T09:16:03Z</time>
      </trkpt>
      <trkpt lat="49.21085" lon="6.14823">
        <ele>222.4</ele>
        <time>2011-11-06T09:16:05Z</time>
      </trkpt>
      <trkpt lat="49.21091" lon="6.1482">
        <ele>222.4</ele>
        <time>2011-11-06T09:16:07Z</time>
      </trkpt>
      <trkpt lat="49.21098" lon="6.14818">
        <ele>222.4</ele>
        <time>2011-11-06T09:16:09Z</time>
      </trkpt>
      <trkpt lat="49.21103" lon="6.14815">
        <ele>222.4</ele>
        <time>2011-11-06T09:16:10Z</time>
      </trkpt>
      <trkpt lat="49.21108" lon="6.14812">
        <ele>222.4</ele>
        <time>2011-11-06T09:16:11Z</time>
      </trkpt>
      <trkpt lat="49.21101" lon="6.14792">
        <ele>222.4</ele>
        <time>2011-11-06T09:16:12Z</time>
      </trkpt>
      <trkpt lat="49.21105" lon="6.14788">
        <ele>222.4</ele>
        <time>2011-11-06T09:16:13Z</time>
      </trkpt>
      <trkpt lat="49.21086" lon="6.1476">
        <ele>222.2</ele>
        <time>2011-11-06T09:16:14Z</time>
      </trkpt>
      <trkpt lat="49.21089" lon="6.14752">
        <ele>222.2</ele>
        <time>2011-11-06T09:16:15Z</time>
      </trkpt>
      <trkpt lat="49.21094" lon="6.14738">
        <ele>222.2</ele>
        <time>2011-11-06T09:16:17Z</time>
      </trkpt>
      <trkpt lat="49.21086" lon="6.14727">
        <ele>222.1</ele>
        <time>2011-11-06T09:16:18Z</time>
      </trkpt>
      <trkpt lat="49.21087" lon="6.14714">
        <ele>222.1</ele>
        <time>2011-11-06T09:16:19Z</time>
      </trkpt>
      <trkpt lat="49.2108" lon="6.14703">
        <ele>222</ele>
        <time>2011-11-06T09:16:20Z</time>
      </trkpt>
      <trkpt lat="49.2108" lon="6.14691">
        <ele>222</ele>
        <time>2011-11-06T09:16:21Z</time>
      </trkpt>
      <trkpt lat="49.21071" lon="6.14674">
        <ele>222</ele>
        <time>2011-11-06T09:16:23Z</time>
      </trkpt>
      <trkpt lat="49.21063" lon="6.14658">
        <ele>221.9</ele>
        <time>2011-11-06T09:16:24Z</time>
      </trkpt>
      <trkpt lat="49.21063" lon="6.14649">
        <ele>221.9</ele>
        <time>2011-11-06T09:16:25Z</time>
      </trkpt>
      <trkpt lat="49.2106" lon="6.14636">
        <ele>221.9</ele>
        <time>2011-11-06T09:16:26Z</time>
      </trkpt>
      <trkpt lat="49.21059" lon="6.14628">
        <ele>221.9</ele>
        <time>2011-11-06T09:16:27Z</time>
      </trkpt>
      <trkpt lat="49.21052" lon="6.14619">
        <ele>221.8</ele>
        <time>2011-11-06T09:16:28Z</time>
      </trkpt>
      <trkpt lat="49.21047" lon="6.14606">
        <ele>221.8</ele>
        <time>2011-11-06T09:16:29Z</time>
      </trkpt>
      <trkpt lat="49.21043" lon="6.14593">
        <ele>221.8</ele>
        <time>2011-11-06T09:16:30Z</time>
      </trkpt>
      <trkpt lat="49.2104" lon="6.14582">
        <ele>221.8</ele>
        <time>2011-11-06T09:16:31Z</time>
      </trkpt>
      <trkpt lat="49.2103" lon="6.14563">
        <ele>221.8</ele>
        <time>2011-11-06T09:16:32Z</time>
      </trkpt>
      <trkpt lat="49.21026" lon="6.14552">
        <ele>221.8</ele>
        <time>2011-11-06T09:16:33Z</time>
      </trkpt>
      <trkpt lat="49.21022" lon="6.14542">
        <ele>221.7</ele>
        <time>2011-11-06T09:16:34Z</time>
      </trkpt>
      <trkpt lat="49.21016" lon="6.14534">
        <ele>221.7</ele>
        <time>2011-11-06T09:16:35Z</time>
      </trkpt>
      <trkpt lat="49.21012" lon="6.1452">
        <ele>221.8</ele>
        <time>2011-11-06T09:16:37Z</time>
      </trkpt>
      <trkpt lat="49.21007" lon="6.14506">
        <ele>221.8</ele>
        <time>2011-11-06T09:16:38Z</time>
      </trkpt>
      <trkpt lat="49.21002" lon="6.145">
        <ele>221.7</ele>
        <time>2011-11-06T09:16:39Z</time>
      </trkpt>
      <trkpt lat="49.20997" lon="6.14491">
        <ele>221.7</ele>
        <time>2011-11-06T09:16:40Z</time>
      </trkpt>
      <trkpt lat="49.20993" lon="6.14479">
        <ele>221.7</ele>
        <time>2011-11-06T09:16:41Z</time>
      </trkpt>
      <trkpt lat="49.20988" lon="6.14471">
        <ele>221.7</ele>
        <time>2011-11-06T09:16:42Z</time>
      </trkpt>
      <trkpt lat="49.20982" lon="6.14449">
        <ele>221.6</ele>
        <time>2011-11-06T09:16:44Z</time>
      </trkpt>
      <trkpt lat="49.20976" lon="6.14436">
        <ele>221.6</ele>
        <time>2011-11-06T09:16:45Z</time>
      </trkpt>
      <trkpt lat="49.2098" lon="6.14434">
        <ele>221.7</ele>
        <time>2011-11-06T09:16:46Z</time>
      </trkpt>
      <trkpt lat="49.20974" lon="6.14421">
        <ele>221.7</ele>
        <time>2011-11-06T09:16:47Z</time>
      </trkpt>
      <trkpt lat="49.20972" lon="6.14412">
        <ele>221.7</ele>
        <time>2011-11-06T09:16:48Z</time>
      </trkpt>
      <trkpt lat="49.20968" lon="6.14402">
        <ele>221.7</ele>
        <time>2011-11-06T09:16:49Z</time>
      </trkpt>
      <trkpt lat="49.20962" lon="6.14386">
        <ele>221.7</ele>
        <time>2011-11-06T09:16:50Z</time>
      </trkpt>
      <trkpt lat="49.2096" lon="6.14377">
        <ele>221.7</ele>
        <time>2011-11-06T09:16:51Z</time>
      </trkpt>
      <trkpt lat="49.20955" lon="6.14367">
        <ele>221.7</ele>
        <time>2011-11-06T09:16:52Z</time>
      </trkpt>
      <trkpt lat="49.20951" lon="6.14353">
        <ele>221.6</ele>
        <time>2011-11-06T09:16:53Z</time>
      </trkpt>
      <trkpt lat="49.20946" lon="6.14345">
        <ele>221.6</ele>
        <time>2011-11-06T09:16:54Z</time>
      </trkpt>
      <trkpt lat="49.20926" lon="6.14285">
        <ele>220.3</ele>
        <time>2011-11-06T09:17:00Z</time>
      </trkpt>
      <trkpt lat="49.20919" lon="6.14271">
        <ele>220.7</ele>
        <time>2011-11-06T09:17:01Z</time>
      </trkpt>
      <trkpt lat="49.20914" lon="6.14251">
        <ele>220.8</ele>
        <time>2011-11-06T09:17:02Z</time>
      </trkpt>
      <trkpt lat="49.20907" lon="6.1424">
        <ele>220.7</ele>
        <time>2011-11-06T09:17:03Z</time>
      </trkpt>
      <trkpt lat="49.20899" lon="6.14232">
        <ele>220.5</ele>
        <time>2011-11-06T09:17:04Z</time>
      </trkpt>
      <trkpt lat="49.20894" lon="6.14215">
        <ele>219.9</ele>
        <time>2011-11-06T09:17:05Z</time>
      </trkpt>
      <trkpt lat="49.20889" lon="6.14205">
        <ele>219.8</ele>
        <time>2011-11-06T09:17:06Z</time>
      </trkpt>
      <trkpt lat="49.20884" lon="6.14195">
        <ele>219.7</ele>
        <time>2011-11-06T09:17:07Z</time>
      </trkpt>
      <trkpt lat="49.20878" lon="6.14187">
        <ele>219.7</ele>
        <time>2011-11-06T09:17:08Z</time>
      </trkpt>
      <trkpt lat="49.20873" lon="6.14174">
        <ele>220.2</ele>
        <time>2011-11-06T09:17:09Z</time>
      </trkpt>
      <trkpt lat="49.20867" lon="6.14168">
        <ele>221.5</ele>
        <time>2011-11-06T09:17:10Z</time>
      </trkpt>
      <trkpt lat="49.20865" lon="6.14156">
        <ele>221.6</ele>
        <time>2011-11-06T09:17:11Z</time>
      </trkpt>
      <trkpt lat="49.2086" lon="6.14143">
        <ele>221.8</ele>
        <time>2011-11-06T09:17:12Z</time>
      </trkpt>
      <trkpt lat="49.20855" lon="6.14135">
        <ele>221.8</ele>
        <time>2011-11-06T09:17:13Z</time>
      </trkpt>
      <trkpt lat="49.2085" lon="6.14124">
        <ele>222.2</ele>
        <time>2011-11-06T09:17:14Z</time>
      </trkpt>
      <trkpt lat="49.20846" lon="6.14112">
        <ele>222.2</ele>
        <time>2011-11-06T09:17:15Z</time>
      </trkpt>
      <trkpt lat="49.20844" lon="6.14099">
        <ele>222.1</ele>
        <time>2011-11-06T09:17:16Z</time>
      </trkpt>
      <trkpt lat="49.20842" lon="6.14087">
        <ele>222.8</ele>
        <time>2011-11-06T09:17:17Z</time>
      </trkpt>
      <trkpt lat="49.20839" lon="6.14072">
        <ele>222.7</ele>
        <time>2011-11-06T09:17:18Z</time>
      </trkpt>
      <trkpt lat="49.20837" lon="6.14063">
        <ele>222.7</ele>
        <time>2011-11-06T09:17:19Z</time>
      </trkpt>
      <trkpt lat="49.20835" lon="6.14053">
        <ele>222.8</ele>
        <time>2011-11-06T09:17:20Z</time>
      </trkpt>
      <trkpt lat="49.20833" lon="6.14039">
        <ele>222.8</ele>
        <time>2011-11-06T09:17:21Z</time>
      </trkpt>
      <trkpt lat="49.20832" lon="6.14026">
        <ele>222.7</ele>
        <time>2011-11-06T09:17:22Z</time>
      </trkpt>
      <trkpt lat="49.20832" lon="6.14014">
        <ele>222.4</ele>
        <time>2011-11-06T09:17:23Z</time>
      </trkpt>
      <trkpt lat="49.20831" lon="6.14001">
        <ele>222.2</ele>
        <time>2011-11-06T09:17:24Z</time>
      </trkpt>
      <trkpt lat="49.20831" lon="6.1399">
        <ele>221.9</ele>
        <time>2011-11-06T09:17:25Z</time>
      </trkpt>
      <trkpt lat="49.20832" lon="6.13978">
        <ele>222.2</ele>
        <time>2011-11-06T09:17:26Z</time>
      </trkpt>
      <trkpt lat="49.20831" lon="6.13966">
        <ele>222.2</ele>
        <time>2011-11-06T09:17:27Z</time>
      </trkpt>
      <trkpt lat="49.20834" lon="6.13953">
        <ele>221.9</ele>
        <time>2011-11-06T09:17:28Z</time>
      </trkpt>
      <trkpt lat="49.20836" lon="6.13944">
        <ele>222.6</ele>
        <time>2011-11-06T09:17:29Z</time>
      </trkpt>
      <trkpt lat="49.20838" lon="6.13932">
        <ele>222.7</ele>
        <time>2011-11-06T09:17:30Z</time>
      </trkpt>
      <trkpt lat="49.20844" lon="6.13924">
        <ele>223.4</ele>
        <time>2011-11-06T09:17:31Z</time>
      </trkpt>
      <trkpt lat="49.20849" lon="6.13913">
        <ele>222.8</ele>
        <time>2011-11-06T09:17:32Z</time>
      </trkpt>
      <trkpt lat="49.20854" lon="6.139">
        <ele>222.5</ele>
        <time>2011-11-06T09:17:33Z</time>
      </trkpt>
      <trkpt lat="49.20858" lon="6.1389">
        <ele>222.2</ele>
        <time>2011-11-06T09:17:34Z</time>
      </trkpt>
      <trkpt lat="49.20863" lon="6.13879">
        <ele>222.2</ele>
        <time>2011-11-06T09:17:35Z</time>
      </trkpt>
      <trkpt lat="49.20868" lon="6.1387">
        <ele>222.2</ele>
        <time>2011-11-06T09:17:36Z</time>
      </trkpt>
      <trkpt lat="49.20874" lon="6.1386">
        <ele>222.6</ele>
        <time>2011-11-06T09:17:37Z</time>
      </trkpt>
      <trkpt lat="49.2088" lon="6.13851">
        <ele>222.7</ele>
        <time>2011-11-06T09:17:38Z</time>
      </trkpt>
      <trkpt lat="49.20886" lon="6.13842">
        <ele>222.7</ele>
        <time>2011-11-06T09:17:39Z</time>
      </trkpt>
      <trkpt lat="49.2089" lon="6.13835">
        <ele>222.8</ele>
        <time>2011-11-06T09:17:40Z</time>
      </trkpt>
      <trkpt lat="49.20893" lon="6.13827">
        <ele>222.8</ele>
        <time>2011-11-06T09:17:41Z</time>
      </trkpt>
      <trkpt lat="49.209" lon="6.1382">
        <ele>222.8</ele>
        <time>2011-11-06T09:17:42Z</time>
      </trkpt>
      <trkpt lat="49.20905" lon="6.13812">
        <ele>222.8</ele>
        <time>2011-11-06T09:17:43Z</time>
      </trkpt>
      <trkpt lat="49.2091" lon="6.13802">
        <ele>222.9</ele>
        <time>2011-11-06T09:17:44Z</time>
      </trkpt>
      <trkpt lat="49.20914" lon="6.13791">
        <ele>222.9</ele>
        <time>2011-11-06T09:17:45Z</time>
      </trkpt>
      <trkpt lat="49.20918" lon="6.13781">
        <ele>222.9</ele>
        <time>2011-11-06T09:17:46Z</time>
      </trkpt>
      <trkpt lat="49.2092" lon="6.13768">
        <ele>222.9</ele>
        <time>2011-11-06T09:17:47Z</time>
      </trkpt>
      <trkpt lat="49.20923" lon="6.13755">
        <ele>223.2</ele>
        <time>2011-11-06T09:17:48Z</time>
      </trkpt>
      <trkpt lat="49.20926" lon="6.13741">
        <ele>223.5</ele>
        <time>2011-11-06T09:17:49Z</time>
      </trkpt>
      <trkpt lat="49.20931" lon="6.13727">
        <ele>223.6</ele>
        <time>2011-11-06T09:17:50Z</time>
      </trkpt>
      <trkpt lat="49.20932" lon="6.13716">
        <ele>223.4</ele>
        <time>2011-11-06T09:17:51Z</time>
      </trkpt>
      <trkpt lat="49.20935" lon="6.13703">
        <ele>223.4</ele>
        <time>2011-11-06T09:17:52Z</time>
      </trkpt>
      <trkpt lat="49.20938" lon="6.1369">
        <ele>223.6</ele>
        <time>2011-11-06T09:17:53Z</time>
      </trkpt>
      <trkpt lat="49.20943" lon="6.13679">
        <ele>223.5</ele>
        <time>2011-11-06T09:17:54Z</time>
      </trkpt>
      <trkpt lat="49.20953" lon="6.1364">
        <ele>223.6</ele>
        <time>2011-11-06T09:17:57Z</time>
      </trkpt>
      <trkpt lat="49.20954" lon="6.13628">
        <ele>223.7</ele>
        <time>2011-11-06T09:17:58Z</time>
      </trkpt>
      <trkpt lat="49.20957" lon="6.13616">
        <ele>223.8</ele>
        <time>2011-11-06T09:17:59Z</time>
      </trkpt>
      <trkpt lat="49.2096" lon="6.13604">
        <ele>223.8</ele>
        <time>2011-11-06T09:18:00Z</time>
      </trkpt>
      <trkpt lat="49.20965" lon="6.13592">
        <ele>223.6</ele>
        <time>2011-11-06T09:18:01Z</time>
      </trkpt>
      <trkpt lat="49.20969" lon="6.13582">
        <ele>223.7</ele>
        <time>2011-11-06T09:18:02Z</time>
      </trkpt>
      <trkpt lat="49.20972" lon="6.13572">
        <ele>223.7</ele>
        <time>2011-11-06T09:18:03Z</time>
      </trkpt>
      <trkpt lat="49.20975" lon="6.13561">
        <ele>223.9</ele>
        <time>2011-11-06T09:18:04Z</time>
      </trkpt>
      <trkpt lat="49.20979" lon="6.13548">
        <ele>223.9</ele>
        <time>2011-11-06T09:18:05Z</time>
      </trkpt>
      <trkpt lat="49.20981" lon="6.13538">
        <ele>224.3</ele>
        <time>2011-11-06T09:18:06Z</time>
      </trkpt>
      <trkpt lat="49.20983" lon="6.13526">
        <ele>224.4</ele>
        <time>2011-11-06T09:18:07Z</time>
      </trkpt>
      <trkpt lat="49.20985" lon="6.13512">
        <ele>224.4</ele>
        <time>2011-11-06T09:18:08Z</time>
      </trkpt>
      <trkpt lat="49.20991" lon="6.13501">
        <ele>224.9</ele>
        <time>2011-11-06T09:18:09Z</time>
      </trkpt>
      <trkpt lat="49.20995" lon="6.13489">
        <ele>225.2</ele>
        <time>2011-11-06T09:18:10Z</time>
      </trkpt>
      <trkpt lat="49.20996" lon="6.13479">
        <ele>224.6</ele>
        <time>2011-11-06T09:18:11Z</time>
      </trkpt>
      <trkpt lat="49.20997" lon="6.13466">
        <ele>224.4</ele>
        <time>2011-11-06T09:18:12Z</time>
      </trkpt>
      <trkpt lat="49.20998" lon="6.13454">
        <ele>224.5</ele>
        <time>2011-11-06T09:18:13Z</time>
      </trkpt>
      <trkpt lat="49.21002" lon="6.13443">
        <ele>224.4</ele>
        <time>2011-11-06T09:18:14Z</time>
      </trkpt>
      <trkpt lat="49.21005" lon="6.13431">
        <ele>223.9</ele>
        <time>2011-11-06T09:18:15Z</time>
      </trkpt>
      <trkpt lat="49.21009" lon="6.13419">
        <ele>223.8</ele>
        <time>2011-11-06T09:18:16Z</time>
      </trkpt>
      <trkpt lat="49.21013" lon="6.13409">
        <ele>223.6</ele>
        <time>2011-11-06T09:18:17Z</time>
      </trkpt>
      <trkpt lat="49.21014" lon="6.13397">
        <ele>223.5</ele>
        <time>2011-11-06T09:18:18Z</time>
      </trkpt>
      <trkpt lat="49.21013" lon="6.13385">
        <ele>223.2</ele>
        <time>2011-11-06T09:18:19Z</time>
      </trkpt>
      <trkpt lat="49.21016" lon="6.13374">
        <ele>223.1</ele>
        <time>2011-11-06T09:18:20Z</time>
      </trkpt>
      <trkpt lat="49.21019" lon="6.13363">
        <ele>223</ele>
        <time>2011-11-06T09:18:21Z</time>
      </trkpt>
      <trkpt lat="49.21024" lon="6.13352">
        <ele>223.2</ele>
        <time>2011-11-06T09:18:22Z</time>
      </trkpt>
      <trkpt lat="49.21026" lon="6.1334">
        <ele>223.1</ele>
        <time>2011-11-06T09:18:23Z</time>
      </trkpt>
      <trkpt lat="49.21028" lon="6.1333">
        <ele>224.4</ele>
        <time>2011-11-06T09:18:24Z</time>
      </trkpt>
      <trkpt lat="49.2103" lon="6.1332">
        <ele>224.4</ele>
        <time>2011-11-06T09:18:25Z</time>
      </trkpt>
      <trkpt lat="49.2103" lon="6.13308">
        <ele>224.2</ele>
        <time>2011-11-06T09:18:26Z</time>
      </trkpt>
      <trkpt lat="49.21031" lon="6.13297">
        <ele>223.9</ele>
        <time>2011-11-06T09:18:27Z</time>
      </trkpt>
      <trkpt lat="49.21033" lon="6.13286">
        <ele>223.9</ele>
        <time>2011-11-06T09:18:28Z</time>
      </trkpt>
      <trkpt lat="49.21036" lon="6.13275">
        <ele>224.5</ele>
        <time>2011-11-06T09:18:29Z</time>
      </trkpt>
      <trkpt lat="49.2104" lon="6.13266">
        <ele>224.4</ele>
        <time>2011-11-06T09:18:30Z</time>
      </trkpt>
      <trkpt lat="49.21041" lon="6.13254">
        <ele>224.7</ele>
        <time>2011-11-06T09:18:31Z</time>
      </trkpt>
      <trkpt lat="49.21046" lon="6.13244">
        <ele>224.5</ele>
        <time>2011-11-06T09:18:32Z</time>
      </trkpt>
      <trkpt lat="49.21048" lon="6.13233">
        <ele>224.7</ele>
        <time>2011-11-06T09:18:33Z</time>
      </trkpt>
      <trkpt lat="49.21049" lon="6.13221">
        <ele>225</ele>
        <time>2011-11-06T09:18:34Z</time>
      </trkpt>
      <trkpt lat="49.2105" lon="6.13211">
        <ele>224.6</ele>
        <time>2011-11-06T09:18:35Z</time>
      </trkpt>
      <trkpt lat="49.2105" lon="6.132">
        <ele>224.8</ele>
        <time>2011-11-06T09:18:36Z</time>
      </trkpt>
      <trkpt lat="49.21053" lon="6.13187">
        <ele>224.7</ele>
        <time>2011-11-06T09:18:37Z</time>
      </trkpt>
      <trkpt lat="49.21054" lon="6.13177">
        <ele>224.9</ele>
        <time>2011-11-06T09:18:38Z</time>
      </trkpt>
      <trkpt lat="49.21058" lon="6.13165">
        <ele>225.1</ele>
        <time>2011-11-06T09:18:39Z</time>
      </trkpt>
      <trkpt lat="49.21061" lon="6.13154">
        <ele>224.9</ele>
        <time>2011-11-06T09:18:40Z</time>
      </trkpt>
      <trkpt lat="49.21067" lon="6.13143">
        <ele>224.6</ele>
        <time>2011-11-06T09:18:41Z</time>
      </trkpt>
      <trkpt lat="49.2107" lon="6.13131">
        <ele>224.5</ele>
        <time>2011-11-06T09:18:42Z</time>
      </trkpt>
      <trkpt lat="49.21074" lon="6.13123">
        <ele>224.5</ele>
        <time>2011-11-06T09:18:43Z</time>
      </trkpt>
      <trkpt lat="49.21076" lon="6.13112">
        <ele>225</ele>
        <time>2011-11-06T09:18:44Z</time>
      </trkpt>
      <trkpt lat="49.2108" lon="6.131">
        <ele>224.6</ele>
        <time>2011-11-06T09:18:45Z</time>
      </trkpt>
      <trkpt lat="49.21081" lon="6.13088">
        <ele>224.4</ele>
        <time>2011-11-06T09:18:46Z</time>
      </trkpt>
      <trkpt lat="49.21084" lon="6.13078">
        <ele>224.5</ele>
        <time>2011-11-06T09:18:47Z</time>
      </trkpt>
      <trkpt lat="49.21086" lon="6.13066">
        <ele>224.8</ele>
        <time>2011-11-06T09:18:48Z</time>
      </trkpt>
      <trkpt lat="49.21087" lon="6.13054">
        <ele>225.1</ele>
        <time>2011-11-06T09:18:49Z</time>
      </trkpt>
      <trkpt lat="49.21089" lon="6.13045">
        <ele>225.3</ele>
        <time>2011-11-06T09:18:50Z</time>
      </trkpt>
      <trkpt lat="49.21092" lon="6.13035">
        <ele>225.6</ele>
        <time>2011-11-06T09:18:51Z</time>
      </trkpt>
      <trkpt lat="49.21095" lon="6.13026">
        <ele>226.1</ele>
        <time>2011-11-06T09:18:52Z</time>
      </trkpt>
      <trkpt lat="49.21097" lon="6.13013">
        <ele>226.4</ele>
        <time>2011-11-06T09:18:53Z</time>
      </trkpt>
      <trkpt lat="49.211" lon="6.13001">
        <ele>226.1</ele>
        <time>2011-11-06T09:18:54Z</time>
      </trkpt>
      <trkpt lat="49.21106" lon="6.1298">
        <ele>226.5</ele>
        <time>2011-11-06T09:18:56Z</time>
      </trkpt>
      <trkpt lat="49.2111" lon="6.12968">
        <ele>226.6</ele>
        <time>2011-11-06T09:18:57Z</time>
      </trkpt>
      <trkpt lat="49.2111" lon="6.12956">
        <ele>226.6</ele>
        <time>2011-11-06T09:18:58Z</time>
      </trkpt>
      <trkpt lat="49.21114" lon="6.12945">
        <ele>227</ele>
        <time>2011-11-06T09:18:59Z</time>
      </trkpt>
      <trkpt lat="49.21115" lon="6.12935">
        <ele>226.7</ele>
        <time>2011-11-06T09:19:00Z</time>
      </trkpt>
      <trkpt lat="49.21113" lon="6.12922">
        <ele>226.7</ele>
        <time>2011-11-06T09:19:01Z</time>
      </trkpt>
      <trkpt lat="49.21114" lon="6.12909">
        <ele>226.7</ele>
        <time>2011-11-06T09:19:02Z</time>
      </trkpt>
      <trkpt lat="49.21113" lon="6.12899">
        <ele>226.7</ele>
        <time>2011-11-06T09:19:03Z</time>
      </trkpt>
      <trkpt lat="49.21115" lon="6.12889">
        <ele>226.9</ele>
        <time>2011-11-06T09:19:04Z</time>
      </trkpt>
      <trkpt lat="49.21116" lon="6.12876">
        <ele>226.7</ele>
        <time>2011-11-06T09:19:05Z</time>
      </trkpt>
      <trkpt lat="49.21115" lon="6.12864">
        <ele>226.8</ele>
        <time>2011-11-06T09:19:06Z</time>
      </trkpt>
      <trkpt lat="49.21115" lon="6.12853">
        <ele>226.8</ele>
        <time>2011-11-06T09:19:07Z</time>
      </trkpt>
      <trkpt lat="49.21116" lon="6.12838">
        <ele>227</ele>
        <time>2011-11-06T09:19:08Z</time>
      </trkpt>
      <trkpt lat="49.21116" lon="6.12823">
        <ele>227</ele>
        <time>2011-11-06T09:19:09Z</time>
      </trkpt>
      <trkpt lat="49.21115" lon="6.1281">
        <ele>226.9</ele>
        <time>2011-11-06T09:19:10Z</time>
      </trkpt>
      <trkpt lat="49.21116" lon="6.128">
        <ele>227.2</ele>
        <time>2011-11-06T09:19:11Z</time>
      </trkpt>
      <trkpt lat="49.21116" lon="6.12789">
        <ele>227.3</ele>
        <time>2011-11-06T09:19:12Z</time>
      </trkpt>
      <trkpt lat="49.21117" lon="6.12778">
        <ele>227.5</ele>
        <time>2011-11-06T09:19:13Z</time>
      </trkpt>
      <trkpt lat="49.2112" lon="6.12766">
        <ele>227.9</ele>
        <time>2011-11-06T09:19:14Z</time>
      </trkpt>
      <trkpt lat="49.21124" lon="6.12755">
        <ele>228.6</ele>
        <time>2011-11-06T09:19:15Z</time>
      </trkpt>
      <trkpt lat="49.21127" lon="6.12746">
        <ele>228.9</ele>
        <time>2011-11-06T09:19:16Z</time>
      </trkpt>
      <trkpt lat="49.2113" lon="6.12736">
        <ele>228.9</ele>
        <time>2011-11-06T09:19:17Z</time>
      </trkpt>
      <trkpt lat="49.21134" lon="6.12726">
        <ele>228.7</ele>
        <time>2011-11-06T09:19:18Z</time>
      </trkpt>
      <trkpt lat="49.21138" lon="6.12715">
        <ele>228.5</ele>
        <time>2011-11-06T09:19:19Z</time>
      </trkpt>
      <trkpt lat="49.21142" lon="6.12704">
        <ele>228.1</ele>
        <time>2011-11-06T09:19:20Z</time>
      </trkpt>
      <trkpt lat="49.21148" lon="6.12694">
        <ele>228.3</ele>
        <time>2011-11-06T09:19:21Z</time>
      </trkpt>
      <trkpt lat="49.21152" lon="6.12678">
        <ele>229.1</ele>
        <time>2011-11-06T09:19:22Z</time>
      </trkpt>
      <trkpt lat="49.21155" lon="6.12669">
        <ele>229.1</ele>
        <time>2011-11-06T09:19:23Z</time>
      </trkpt>
      <trkpt lat="49.2116" lon="6.12658">
        <ele>229.4</ele>
        <time>2011-11-06T09:19:24Z</time>
      </trkpt>
      <trkpt lat="49.21164" lon="6.12647">
        <ele>229.2</ele>
        <time>2011-11-06T09:19:25Z</time>
      </trkpt>
      <trkpt lat="49.21166" lon="6.12641">
        <ele>228.9</ele>
        <time>2011-11-06T09:19:26Z</time>
      </trkpt>
      <trkpt lat="49.21166" lon="6.1263">
        <ele>228.6</ele>
        <time>2011-11-06T09:19:27Z</time>
      </trkpt>
      <trkpt lat="49.21166" lon="6.12621">
        <ele>229.5</ele>
        <time>2011-11-06T09:19:28Z</time>
      </trkpt>
      <trkpt lat="49.21168" lon="6.12611">
        <ele>228.7</ele>
        <time>2011-11-06T09:19:29Z</time>
      </trkpt>
      <trkpt lat="49.2117" lon="6.126">
        <ele>229.1</ele>
        <time>2011-11-06T09:19:30Z</time>
      </trkpt>
      <trkpt lat="49.21171" lon="6.12589">
        <ele>229.2</ele>
        <time>2011-11-06T09:19:31Z</time>
      </trkpt>
      <trkpt lat="49.2117" lon="6.12577">
        <ele>229.7</ele>
        <time>2011-11-06T09:19:32Z</time>
      </trkpt>
      <trkpt lat="49.2117" lon="6.12567">
        <ele>229.9</ele>
        <time>2011-11-06T09:19:33Z</time>
      </trkpt>
      <trkpt lat="49.2117" lon="6.12555">
        <ele>229.7</ele>
        <time>2011-11-06T09:19:34Z</time>
      </trkpt>
      <trkpt lat="49.21171" lon="6.12543">
        <ele>229.3</ele>
        <time>2011-11-06T09:19:35Z</time>
      </trkpt>
      <trkpt lat="49.2117" lon="6.12532">
        <ele>229.9</ele>
        <time>2011-11-06T09:19:36Z</time>
      </trkpt>
      <trkpt lat="49.21173" lon="6.1252">
        <ele>229.2</ele>
        <time>2011-11-06T09:19:37Z</time>
      </trkpt>
      <trkpt lat="49.21173" lon="6.12509">
        <ele>229</ele>
        <time>2011-11-06T09:19:38Z</time>
      </trkpt>
      <trkpt lat="49.21172" lon="6.12498">
        <ele>228.6</ele>
        <time>2011-11-06T09:19:39Z</time>
      </trkpt>
      <trkpt lat="49.21169" lon="6.12488">
        <ele>228.8</ele>
        <time>2011-11-06T09:19:40Z</time>
      </trkpt>
      <trkpt lat="49.21165" lon="6.12482">
        <ele>229.2</ele>
        <time>2011-11-06T09:19:41Z</time>
      </trkpt>
      <trkpt lat="49.21158" lon="6.12475">
        <ele>229.8</ele>
        <time>2011-11-06T09:19:42Z</time>
      </trkpt>
      <trkpt lat="49.21153" lon="6.12468">
        <ele>230.3</ele>
        <time>2011-11-06T09:19:43Z</time>
      </trkpt>
      <trkpt lat="49.21149" lon="6.12459">
        <ele>230.5</ele>
        <time>2011-11-06T09:19:44Z</time>
      </trkpt>
      <trkpt lat="49.21147" lon="6.12451">
        <ele>230.9</ele>
        <time>2011-11-06T09:19:45Z</time>
      </trkpt>
      <trkpt lat="49.21147" lon="6.12443">
        <ele>231</ele>
        <time>2011-11-06T09:19:46Z</time>
      </trkpt>
      <trkpt lat="49.21149" lon="6.12434">
        <ele>231</ele>
        <time>2011-11-06T09:19:47Z</time>
      </trkpt>
      <trkpt lat="49.21149" lon="6.12426">
        <ele>230.9</ele>
        <time>2011-11-06T09:19:48Z</time>
      </trkpt>
      <trkpt lat="49.21152" lon="6.12415">
        <ele>231</ele>
        <time>2011-11-06T09:19:49Z</time>
      </trkpt>
      <trkpt lat="49.21153" lon="6.12404">
        <ele>231.1</ele>
        <time>2011-11-06T09:19:50Z</time>
      </trkpt>
      <trkpt lat="49.21156" lon="6.12394">
        <ele>231.1</ele>
        <time>2011-11-06T09:19:51Z</time>
      </trkpt>
      <trkpt lat="49.21159" lon="6.12384">
        <ele>231.1</ele>
        <time>2011-11-06T09:19:52Z</time>
      </trkpt>
      <trkpt lat="49.21161" lon="6.12373">
        <ele>230.9</ele>
        <time>2011-11-06T09:19:53Z</time>
      </trkpt>
      <trkpt lat="49.21163" lon="6.12362">
        <ele>230.8</ele>
        <time>2011-11-06T09:19:54Z</time>
      </trkpt>
      <trkpt lat="49.21165" lon="6.12349">
        <ele>230.6</ele>
        <time>2011-11-06T09:19:55Z</time>
      </trkpt>
      <trkpt lat="49.21168" lon="6.12336">
        <ele>230.4</ele>
        <time>2011-11-06T09:19:56Z</time>
      </trkpt>
      <trkpt lat="49.21171" lon="6.12324">
        <ele>230.4</ele>
        <time>2011-11-06T09:19:57Z</time>
      </trkpt>
      <trkpt lat="49.21174" lon="6.12314">
        <ele>230.8</ele>
        <time>2011-11-06T09:19:58Z</time>
      </trkpt>
      <trkpt lat="49.21178" lon="6.12303">
        <ele>230.9</ele>
        <time>2011-11-06T09:19:59Z</time>
      </trkpt>
      <trkpt lat="49.21182" lon="6.12291">
        <ele>231.2</ele>
        <time>2011-11-06T09:20:00Z</time>
      </trkpt>
      <trkpt lat="49.21188" lon="6.12278">
        <ele>230.2</ele>
        <time>2011-11-06T09:20:01Z</time>
      </trkpt>
      <trkpt lat="49.21189" lon="6.12268">
        <ele>230.6</ele>
        <time>2011-11-06T09:20:02Z</time>
      </trkpt>
      <trkpt lat="49.21192" lon="6.12257">
        <ele>230.7</ele>
        <time>2011-11-06T09:20:03Z</time>
      </trkpt>
      <trkpt lat="49.21194" lon="6.12248">
        <ele>230.4</ele>
        <time>2011-11-06T09:20:04Z</time>
      </trkpt>
      <trkpt lat="49.21195" lon="6.12239">
        <ele>230.3</ele>
        <time>2011-11-06T09:20:05Z</time>
      </trkpt>
      <trkpt lat="49.21197" lon="6.12229">
        <ele>230.7</ele>
        <time>2011-11-06T09:20:06Z</time>
      </trkpt>
      <trkpt lat="49.21201" lon="6.1222">
        <ele>231.3</ele>
        <time>2011-11-06T09:20:07Z</time>
      </trkpt>
      <trkpt lat="49.21203" lon="6.12211">
        <ele>231.7</ele>
        <time>2011-11-06T09:20:08Z</time>
      </trkpt>
      <trkpt lat="49.21204" lon="6.12201">
        <ele>231.3</ele>
        <time>2011-11-06T09:20:09Z</time>
      </trkpt>
      <trkpt lat="49.21206" lon="6.1219">
        <ele>231.7</ele>
        <time>2011-11-06T09:20:10Z</time>
      </trkpt>
      <trkpt lat="49.21208" lon="6.1218">
        <ele>232</ele>
        <time>2011-11-06T09:20:11Z</time>
      </trkpt>
      <trkpt lat="49.21209" lon="6.12171">
        <ele>231.6</ele>
        <time>2011-11-06T09:20:12Z</time>
      </trkpt>
      <trkpt lat="49.21212" lon="6.1216">
        <ele>231.1</ele>
        <time>2011-11-06T09:20:13Z</time>
      </trkpt>
      <trkpt lat="49.21212" lon="6.1215">
        <ele>231.1</ele>
        <time>2011-11-06T09:20:14Z</time>
      </trkpt>
      <trkpt lat="49.21213" lon="6.12141">
        <ele>230.6</ele>
        <time>2011-11-06T09:20:15Z</time>
      </trkpt>
      <trkpt lat="49.21215" lon="6.1213">
        <ele>230.4</ele>
        <time>2011-11-06T09:20:16Z</time>
      </trkpt>
      <trkpt lat="49.21216" lon="6.12122">
        <ele>230.5</ele>
        <time>2011-11-06T09:20:17Z</time>
      </trkpt>
      <trkpt lat="49.21218" lon="6.12111">
        <ele>230.4</ele>
        <time>2011-11-06T09:20:18Z</time>
      </trkpt>
      <trkpt lat="49.21219" lon="6.12101">
        <ele>230.5</ele>
        <time>2011-11-06T09:20:19Z</time>
      </trkpt>
      <trkpt lat="49.21221" lon="6.12091">
        <ele>230.7</ele>
        <time>2011-11-06T09:20:20Z</time>
      </trkpt>
      <trkpt lat="49.21223" lon="6.12079">
        <ele>230.8</ele>
        <time>2011-11-06T09:20:21Z</time>
      </trkpt>
      <trkpt lat="49.21225" lon="6.12071">
        <ele>231.3</ele>
        <time>2011-11-06T09:20:22Z</time>
      </trkpt>
      <trkpt lat="49.21227" lon="6.1206">
        <ele>231.8</ele>
        <time>2011-11-06T09:20:23Z</time>
      </trkpt>
      <trkpt lat="49.21229" lon="6.12049">
        <ele>231.7</ele>
        <time>2011-11-06T09:20:24Z</time>
      </trkpt>
      <trkpt lat="49.21231" lon="6.12037">
        <ele>231.6</ele>
        <time>2011-11-06T09:20:25Z</time>
      </trkpt>
      <trkpt lat="49.21233" lon="6.12026">
        <ele>231.4</ele>
        <time>2011-11-06T09:20:26Z</time>
      </trkpt>
      <trkpt lat="49.21238" lon="6.12015">
        <ele>231.9</ele>
        <time>2011-11-06T09:20:27Z</time>
      </trkpt>
      <trkpt lat="49.2124" lon="6.12001">
        <ele>231.8</ele>
        <time>2011-11-06T09:20:28Z</time>
      </trkpt>
      <trkpt lat="49.21242" lon="6.11992">
        <ele>231.9</ele>
        <time>2011-11-06T09:20:29Z</time>
      </trkpt>
      <trkpt lat="49.21243" lon="6.1198">
        <ele>232</ele>
        <time>2011-11-06T09:20:30Z</time>
      </trkpt>
      <trkpt lat="49.21246" lon="6.11969">
        <ele>232.2</ele>
        <time>2011-11-06T09:20:31Z</time>
      </trkpt>
      <trkpt lat="49.21246" lon="6.1196">
        <ele>231.8</ele>
        <time>2011-11-06T09:20:32Z</time>
      </trkpt>
      <trkpt lat="49.21248" lon="6.1195">
        <ele>231.8</ele>
        <time>2011-11-06T09:20:33Z</time>
      </trkpt>
      <trkpt lat="49.2125" lon="6.11941">
        <ele>231.6</ele>
        <time>2011-11-06T09:20:34Z</time>
      </trkpt>
      <trkpt lat="49.21251" lon="6.11931">
        <ele>231.6</ele>
        <time>2011-11-06T09:20:35Z</time>
      </trkpt>
      <trkpt lat="49.21252" lon="6.11922">
        <ele>231.9</ele>
        <time>2011-11-06T09:20:36Z</time>
      </trkpt>
      <trkpt lat="49.21254" lon="6.11912">
        <ele>231.8</ele>
        <time>2011-11-06T09:20:37Z</time>
      </trkpt>
      <trkpt lat="49.21256" lon="6.11901">
        <ele>231.8</ele>
        <time>2011-11-06T09:20:38Z</time>
      </trkpt>
      <trkpt lat="49.21258" lon="6.1189">
        <ele>231.8</ele>
        <time>2011-11-06T09:20:39Z</time>
      </trkpt>
      <trkpt lat="49.21261" lon="6.11879">
        <ele>232.3</ele>
        <time>2011-11-06T09:20:40Z</time>
      </trkpt>
      <trkpt lat="49.21263" lon="6.11868">
        <ele>232</ele>
        <time>2011-11-06T09:20:41Z</time>
      </trkpt>
      <trkpt lat="49.21267" lon="6.11858">
        <ele>232.9</ele>
        <time>2011-11-06T09:20:42Z</time>
      </trkpt>
      <trkpt lat="49.21271" lon="6.11844">
        <ele>233.2</ele>
        <time>2011-11-06T09:20:43Z</time>
      </trkpt>
      <trkpt lat="49.21273" lon="6.11831">
        <ele>232.9</ele>
        <time>2011-11-06T09:20:44Z</time>
      </trkpt>
      <trkpt lat="49.21275" lon="6.11821">
        <ele>233</ele>
        <time>2011-11-06T09:20:45Z</time>
      </trkpt>
      <trkpt lat="49.21277" lon="6.11808">
        <ele>233.2</ele>
        <time>2011-11-06T09:20:46Z</time>
      </trkpt>
      <trkpt lat="49.21279" lon="6.11796">
        <ele>233.7</ele>
        <time>2011-11-06T09:20:47Z</time>
      </trkpt>
      <trkpt lat="49.21279" lon="6.11784">
        <ele>233.9</ele>
        <time>2011-11-06T09:20:48Z</time>
      </trkpt>
      <trkpt lat="49.21281" lon="6.11772">
        <ele>233.9</ele>
        <time>2011-11-06T09:20:49Z</time>
      </trkpt>
      <trkpt lat="49.2128" lon="6.11762">
        <ele>233.7</ele>
        <time>2011-11-06T09:20:50Z</time>
      </trkpt>
      <trkpt lat="49.21279" lon="6.11751">
        <ele>233.2</ele>
        <time>2011-11-06T09:20:51Z</time>
      </trkpt>
      <trkpt lat="49.21278" lon="6.11739">
        <ele>233.3</ele>
        <time>2011-11-06T09:20:52Z</time>
      </trkpt>
      <trkpt lat="49.21277" lon="6.11727">
        <ele>233</ele>
        <time>2011-11-06T09:20:53Z</time>
      </trkpt>
      <trkpt lat="49.21274" lon="6.11717">
        <ele>232.9</ele>
        <time>2011-11-06T09:20:54Z</time>
      </trkpt>
      <trkpt lat="49.21272" lon="6.11706">
        <ele>233.1</ele>
        <time>2011-11-06T09:20:55Z</time>
      </trkpt>
      <trkpt lat="49.2127" lon="6.11693">
        <ele>233.2</ele>
        <time>2011-11-06T09:20:56Z</time>
      </trkpt>
      <trkpt lat="49.21268" lon="6.11682">
        <ele>233.3</ele>
        <time>2011-11-06T09:20:57Z</time>
      </trkpt>
      <trkpt lat="49.21264" lon="6.11672">
        <ele>233.4</ele>
        <time>2011-11-06T09:20:58Z</time>
      </trkpt>
      <trkpt lat="49.21262" lon="6.11661">
        <ele>233.3</ele>
        <time>2011-11-06T09:20:59Z</time>
      </trkpt>
      <trkpt lat="49.2126" lon="6.11649">
        <ele>233.3</ele>
        <time>2011-11-06T09:21:00Z</time>
      </trkpt>
      <trkpt lat="49.21256" lon="6.11636">
        <ele>233.9</ele>
        <time>2011-11-06T09:21:01Z</time>
      </trkpt>
      <trkpt lat="49.21253" lon="6.11624">
        <ele>233.6</ele>
        <time>2011-11-06T09:21:02Z</time>
      </trkpt>
      <trkpt lat="49.21248" lon="6.11616">
        <ele>233.5</ele>
        <time>2011-11-06T09:21:03Z</time>
      </trkpt>
      <trkpt lat="49.21246" lon="6.11604">
        <ele>234.3</ele>
        <time>2011-11-06T09:21:04Z</time>
      </trkpt>
      <trkpt lat="49.21241" lon="6.11595">
        <ele>233.9</ele>
        <time>2011-11-06T09:21:05Z</time>
      </trkpt>
      <trkpt lat="49.21237" lon="6.11584">
        <ele>233.4</ele>
        <time>2011-11-06T09:21:06Z</time>
      </trkpt>
      <trkpt lat="49.21231" lon="6.11576">
        <ele>233.3</ele>
        <time>2011-11-06T09:21:07Z</time>
      </trkpt>
      <trkpt lat="49.21226" lon="6.11568">
        <ele>233</ele>
        <time>2011-11-06T09:21:08Z</time>
      </trkpt>
      <trkpt lat="49.21222" lon="6.11557">
        <ele>233.6</ele>
        <time>2011-11-06T09:21:09Z</time>
      </trkpt>
      <trkpt lat="49.21217" lon="6.11549">
        <ele>234.2</ele>
        <time>2011-11-06T09:21:10Z</time>
      </trkpt>
      <trkpt lat="49.21211" lon="6.11543">
        <ele>234.8</ele>
        <time>2011-11-06T09:21:11Z</time>
      </trkpt>
      <trkpt lat="49.21205" lon="6.11532">
        <ele>234.8</ele>
        <time>2011-11-06T09:21:12Z</time>
      </trkpt>
      <trkpt lat="49.21199" lon="6.11523">
        <ele>234.3</ele>
        <time>2011-11-06T09:21:13Z</time>
      </trkpt>
      <trkpt lat="49.21194" lon="6.11514">
        <ele>233.9</ele>
        <time>2011-11-06T09:21:14Z</time>
      </trkpt>
      <trkpt lat="49.21188" lon="6.11501">
        <ele>234</ele>
        <time>2011-11-06T09:21:15Z</time>
      </trkpt>
      <trkpt lat="49.2118" lon="6.11493">
        <ele>234.1</ele>
        <time>2011-11-06T09:21:16Z</time>
      </trkpt>
      <trkpt lat="49.21174" lon="6.11482">
        <ele>234.6</ele>
        <time>2011-11-06T09:21:17Z</time>
      </trkpt>
      <trkpt lat="49.21169" lon="6.11474">
        <ele>234.5</ele>
        <time>2011-11-06T09:21:18Z</time>
      </trkpt>
      <trkpt lat="49.21163" lon="6.11463">
        <ele>234.5</ele>
        <time>2011-11-06T09:21:19Z</time>
      </trkpt>
      <trkpt lat="49.21158" lon="6.11451">
        <ele>234.4</ele>
        <time>2011-11-06T09:21:20Z</time>
      </trkpt>
      <trkpt lat="49.21154" lon="6.11441">
        <ele>234.5</ele>
        <time>2011-11-06T09:21:21Z</time>
      </trkpt>
      <trkpt lat="49.21149" lon="6.11436">
        <ele>234.9</ele>
        <time>2011-11-06T09:21:22Z</time>
      </trkpt>
      <trkpt lat="49.21143" lon="6.1143">
        <ele>234.8</ele>
        <time>2011-11-06T09:21:23Z</time>
      </trkpt>
      <trkpt lat="49.21136" lon="6.11425">
        <ele>235.4</ele>
        <time>2011-11-06T09:21:24Z</time>
      </trkpt>
      <trkpt lat="49.21132" lon="6.11418">
        <ele>235.4</ele>
        <time>2011-11-06T09:21:25Z</time>
      </trkpt>
      <trkpt lat="49.21125" lon="6.11408">
        <ele>235.3</ele>
        <time>2011-11-06T09:21:26Z</time>
      </trkpt>
      <trkpt lat="49.21119" lon="6.11397">
        <ele>235.8</ele>
        <time>2011-11-06T09:21:27Z</time>
      </trkpt>
      <trkpt lat="49.21113" lon="6.11387">
        <ele>235.7</ele>
        <time>2011-11-06T09:21:28Z</time>
      </trkpt>
      <trkpt lat="49.21108" lon="6.11378">
        <ele>235.6</ele>
        <time>2011-11-06T09:21:29Z</time>
      </trkpt>
      <trkpt lat="49.21102" lon="6.11367">
        <ele>235.4</ele>
        <time>2011-11-06T09:21:30Z</time>
      </trkpt>
      <trkpt lat="49.21096" lon="6.11359">
        <ele>235.2</ele>
        <time>2011-11-06T09:21:31Z</time>
      </trkpt>
      <trkpt lat="49.2109" lon="6.11348">
        <ele>235.6</ele>
        <time>2011-11-06T09:21:32Z</time>
      </trkpt>
      <trkpt lat="49.21085" lon="6.11339">
        <ele>235.7</ele>
        <time>2011-11-06T09:21:33Z</time>
      </trkpt>
      <trkpt lat="49.21079" lon="6.11323">
        <ele>235.5</ele>
        <time>2011-11-06T09:21:34Z</time>
      </trkpt>
      <trkpt lat="49.21074" lon="6.11312">
        <ele>235.3</ele>
        <time>2011-11-06T09:21:35Z</time>
      </trkpt>
      <trkpt lat="49.21069" lon="6.11305">
        <ele>235.3</ele>
        <time>2011-11-06T09:21:36Z</time>
      </trkpt>
      <trkpt lat="49.21064" lon="6.11293">
        <ele>235.1</ele>
        <time>2011-11-06T09:21:37Z</time>
      </trkpt>
      <trkpt lat="49.2106" lon="6.11286">
        <ele>235.3</ele>
        <time>2011-11-06T09:21:38Z</time>
      </trkpt>
      <trkpt lat="49.21053" lon="6.11276">
        <ele>234.8</ele>
        <time>2011-11-06T09:21:39Z</time>
      </trkpt>
      <trkpt lat="49.21048" lon="6.11267">
        <ele>235.2</ele>
        <time>2011-11-06T09:21:40Z</time>
      </trkpt>
      <trkpt lat="49.2104" lon="6.11256">
        <ele>234.9</ele>
        <time>2011-11-06T09:21:41Z</time>
      </trkpt>
      <trkpt lat="49.21034" lon="6.11245">
        <ele>234.5</ele>
        <time>2011-11-06T09:21:42Z</time>
      </trkpt>
      <trkpt lat="49.21028" lon="6.11236">
        <ele>233.9</ele>
        <time>2011-11-06T09:21:43Z</time>
      </trkpt>
      <trkpt lat="49.2102" lon="6.11225">
        <ele>233.7</ele>
        <time>2011-11-06T09:21:44Z</time>
      </trkpt>
      <trkpt lat="49.21014" lon="6.11216">
        <ele>234.5</ele>
        <time>2011-11-06T09:21:45Z</time>
      </trkpt>
      <trkpt lat="49.21008" lon="6.11213">
        <ele>236.7</ele>
        <time>2011-11-06T09:21:46Z</time>
      </trkpt>
      <trkpt lat="49.21001" lon="6.11201">
        <ele>236.9</ele>
        <time>2011-11-06T09:21:47Z</time>
      </trkpt>
      <trkpt lat="49.20995" lon="6.11193">
        <ele>236.5</ele>
        <time>2011-11-06T09:21:48Z</time>
      </trkpt>
      <trkpt lat="49.20988" lon="6.11187">
        <ele>235.9</ele>
        <time>2011-11-06T09:21:49Z</time>
      </trkpt>
      <trkpt lat="49.20979" lon="6.11178">
        <ele>235.8</ele>
        <time>2011-11-06T09:21:50Z</time>
      </trkpt>
      <trkpt lat="49.20973" lon="6.1117">
        <ele>235.9</ele>
        <time>2011-11-06T09:21:51Z</time>
      </trkpt>
      <trkpt lat="49.20966" lon="6.11161">
        <ele>235.8</ele>
        <time>2011-11-06T09:21:52Z</time>
      </trkpt>
      <trkpt lat="49.20959" lon="6.11155">
        <ele>235.4</ele>
        <time>2011-11-06T09:21:53Z</time>
      </trkpt>
      <trkpt lat="49.20951" lon="6.11146">
        <ele>235.5</ele>
        <time>2011-11-06T09:21:54Z</time>
      </trkpt>
      <trkpt lat="49.20943" lon="6.11135">
        <ele>236</ele>
        <time>2011-11-06T09:21:55Z</time>
      </trkpt>
      <trkpt lat="49.20937" lon="6.11127">
        <ele>236</ele>
        <time>2011-11-06T09:21:56Z</time>
      </trkpt>
      <trkpt lat="49.20929" lon="6.11117">
        <ele>236.1</ele>
        <time>2011-11-06T09:21:57Z</time>
      </trkpt>
      <trkpt lat="49.20923" lon="6.11106">
        <ele>236.2</ele>
        <time>2011-11-06T09:21:58Z</time>
      </trkpt>
      <trkpt lat="49.20918" lon="6.11095">
        <ele>236.3</ele>
        <time>2011-11-06T09:21:59Z</time>
      </trkpt>
      <trkpt lat="49.20913" lon="6.11084">
        <ele>236.1</ele>
        <time>2011-11-06T09:22:00Z</time>
      </trkpt>
      <trkpt lat="49.20907" lon="6.11073">
        <ele>236.3</ele>
        <time>2011-11-06T09:22:01Z</time>
      </trkpt>
      <trkpt lat="49.20903" lon="6.11062">
        <ele>236.3</ele>
        <time>2011-11-06T09:22:02Z</time>
      </trkpt>
      <trkpt lat="49.20896" lon="6.11052">
        <ele>236.1</ele>
        <time>2011-11-06T09:22:03Z</time>
      </trkpt>
      <trkpt lat="49.2089" lon="6.1104">
        <ele>235.9</ele>
        <time>2011-11-06T09:22:04Z</time>
      </trkpt>
      <trkpt lat="49.20884" lon="6.1103">
        <ele>235.7</ele>
        <time>2011-11-06T09:22:05Z</time>
      </trkpt>
      <trkpt lat="49.2088" lon="6.11018">
        <ele>235.5</ele>
        <time>2011-11-06T09:22:06Z</time>
      </trkpt>
      <trkpt lat="49.20876" lon="6.11006">
        <ele>235.5</ele>
        <time>2011-11-06T09:22:07Z</time>
      </trkpt>
      <trkpt lat="49.20873" lon="6.10993">
        <ele>235.8</ele>
        <time>2011-11-06T09:22:08Z</time>
      </trkpt>
      <trkpt lat="49.20868" lon="6.10981">
        <ele>236</ele>
        <time>2011-11-06T09:22:09Z</time>
      </trkpt>
      <trkpt lat="49.20864" lon="6.1097">
        <ele>236.3</ele>
        <time>2011-11-06T09:22:10Z</time>
      </trkpt>
      <trkpt lat="49.20859" lon="6.1096">
        <ele>236.3</ele>
        <time>2011-11-06T09:22:11Z</time>
      </trkpt>
      <trkpt lat="49.20853" lon="6.10949">
        <ele>236</ele>
        <time>2011-11-06T09:22:12Z</time>
      </trkpt>
      <trkpt lat="49.20847" lon="6.10937">
        <ele>235.9</ele>
        <time>2011-11-06T09:22:13Z</time>
      </trkpt>
      <trkpt lat="49.20841" lon="6.10928">
        <ele>236.1</ele>
        <time>2011-11-06T09:22:14Z</time>
      </trkpt>
      <trkpt lat="49.20836" lon="6.10916">
        <ele>236.1</ele>
        <time>2011-11-06T09:22:15Z</time>
      </trkpt>
      <trkpt lat="49.2083" lon="6.10904">
        <ele>236.1</ele>
        <time>2011-11-06T09:22:16Z</time>
      </trkpt>
      <trkpt lat="49.20825" lon="6.1089">
        <ele>236.1</ele>
        <time>2011-11-06T09:22:17Z</time>
      </trkpt>
      <trkpt lat="49.20819" lon="6.10878">
        <ele>235.8</ele>
        <time>2011-11-06T09:22:18Z</time>
      </trkpt>
      <trkpt lat="49.20813" lon="6.10861">
        <ele>235.8</ele>
        <time>2011-11-06T09:22:19Z</time>
      </trkpt>
      <trkpt lat="49.20806" lon="6.1085">
        <ele>236.6</ele>
        <time>2011-11-06T09:22:20Z</time>
      </trkpt>
      <trkpt lat="49.20799" lon="6.10835">
        <ele>236.7</ele>
        <time>2011-11-06T09:22:21Z</time>
      </trkpt>
      <trkpt lat="49.20792" lon="6.10824">
        <ele>236.8</ele>
        <time>2011-11-06T09:22:22Z</time>
      </trkpt>
      <trkpt lat="49.20786" lon="6.10813">
        <ele>236.8</ele>
        <time>2011-11-06T09:22:23Z</time>
      </trkpt>
      <trkpt lat="49.20782" lon="6.10802">
        <ele>236.7</ele>
        <time>2011-11-06T09:22:24Z</time>
      </trkpt>
      <trkpt lat="49.20777" lon="6.10798">
        <ele>237.3</ele>
        <time>2011-11-06T09:22:25Z</time>
      </trkpt>
      <trkpt lat="49.20772" lon="6.10787">
        <ele>237.7</ele>
        <time>2011-11-06T09:22:26Z</time>
      </trkpt>
      <trkpt lat="49.20766" lon="6.10772">
        <ele>237.9</ele>
        <time>2011-11-06T09:22:27Z</time>
      </trkpt>
      <trkpt lat="49.20759" lon="6.1076">
        <ele>237.8</ele>
        <time>2011-11-06T09:22:28Z</time>
      </trkpt>
      <trkpt lat="49.20754" lon="6.10746">
        <ele>237.9</ele>
        <time>2011-11-06T09:22:29Z</time>
      </trkpt>
      <trkpt lat="49.2075" lon="6.1073">
        <ele>238.3</ele>
        <time>2011-11-06T09:22:30Z</time>
      </trkpt>
      <trkpt lat="49.20746" lon="6.10715">
        <ele>238.6</ele>
        <time>2011-11-06T09:22:31Z</time>
      </trkpt>
      <trkpt lat="49.20741" lon="6.10704">
        <ele>238.8</ele>
        <time>2011-11-06T09:22:32Z</time>
      </trkpt>
      <trkpt lat="49.20735" lon="6.10695">
        <ele>238.3</ele>
        <time>2011-11-06T09:22:33Z</time>
      </trkpt>
      <trkpt lat="49.2073" lon="6.10684">
        <ele>238.3</ele>
        <time>2011-11-06T09:22:34Z</time>
      </trkpt>
      <trkpt lat="49.20726" lon="6.10673">
        <ele>239</ele>
        <time>2011-11-06T09:22:35Z</time>
      </trkpt>
      <trkpt lat="49.20721" lon="6.10661">
        <ele>238.4</ele>
        <time>2011-11-06T09:22:36Z</time>
      </trkpt>
      <trkpt lat="49.20715" lon="6.10652">
        <ele>238.6</ele>
        <time>2011-11-06T09:22:37Z</time>
      </trkpt>
      <trkpt lat="49.2071" lon="6.1064">
        <ele>239.1</ele>
        <time>2011-11-06T09:22:38Z</time>
      </trkpt>
      <trkpt lat="49.20704" lon="6.10631">
        <ele>239.8</ele>
        <time>2011-11-06T09:22:39Z</time>
      </trkpt>
      <trkpt lat="49.20701" lon="6.10622">
        <ele>240.4</ele>
        <time>2011-11-06T09:22:40Z</time>
      </trkpt>
      <trkpt lat="49.20697" lon="6.10611">
        <ele>240.5</ele>
        <time>2011-11-06T09:22:41Z</time>
      </trkpt>
      <trkpt lat="49.20692" lon="6.10599">
        <ele>240.9</ele>
        <time>2011-11-06T09:22:42Z</time>
      </trkpt>
      <trkpt lat="49.20689" lon="6.10585">
        <ele>240.6</ele>
        <time>2011-11-06T09:22:43Z</time>
      </trkpt>
      <trkpt lat="49.20686" lon="6.10576">
        <ele>241.1</ele>
        <time>2011-11-06T09:22:44Z</time>
      </trkpt>
      <trkpt lat="49.20683" lon="6.10565">
        <ele>241.3</ele>
        <time>2011-11-06T09:22:45Z</time>
      </trkpt>
      <trkpt lat="49.20679" lon="6.10553">
        <ele>241.3</ele>
        <time>2011-11-06T09:22:46Z</time>
      </trkpt>
      <trkpt lat="49.20675" lon="6.1054">
        <ele>241.3</ele>
        <time>2011-11-06T09:22:47Z</time>
      </trkpt>
      <trkpt lat="49.20671" lon="6.10528">
        <ele>241.9</ele>
        <time>2011-11-06T09:22:48Z</time>
      </trkpt>
      <trkpt lat="49.20666" lon="6.10516">
        <ele>242.2</ele>
        <time>2011-11-06T09:22:49Z</time>
      </trkpt>
      <trkpt lat="49.20661" lon="6.10503">
        <ele>242.1</ele>
        <time>2011-11-06T09:22:50Z</time>
      </trkpt>
      <trkpt lat="49.20657" lon="6.1049">
        <ele>242.9</ele>
        <time>2011-11-06T09:22:51Z</time>
      </trkpt>
      <trkpt lat="49.20653" lon="6.10477">
        <ele>242.7</ele>
        <time>2011-11-06T09:22:52Z</time>
      </trkpt>
      <trkpt lat="49.2065" lon="6.10463">
        <ele>242.6</ele>
        <time>2011-11-06T09:22:53Z</time>
      </trkpt>
      <trkpt lat="49.20647" lon="6.1045">
        <ele>243</ele>
        <time>2011-11-06T09:22:54Z</time>
      </trkpt>
      <trkpt lat="49.20642" lon="6.10438">
        <ele>243.4</ele>
        <time>2011-11-06T09:22:55Z</time>
      </trkpt>
      <trkpt lat="49.20638" lon="6.10426">
        <ele>243.2</ele>
        <time>2011-11-06T09:22:56Z</time>
      </trkpt>
      <trkpt lat="49.20634" lon="6.10413">
        <ele>243.4</ele>
        <time>2011-11-06T09:22:57Z</time>
      </trkpt>
      <trkpt lat="49.2063" lon="6.10401">
        <ele>243.7</ele>
        <time>2011-11-06T09:22:58Z</time>
      </trkpt>
      <trkpt lat="49.20627" lon="6.10388">
        <ele>243.9</ele>
        <time>2011-11-06T09:22:59Z</time>
      </trkpt>
      <trkpt lat="49.20622" lon="6.10376">
        <ele>244.2</ele>
        <time>2011-11-06T09:23:00Z</time>
      </trkpt>
      <trkpt lat="49.20618" lon="6.10364">
        <ele>244.3</ele>
        <time>2011-11-06T09:23:01Z</time>
      </trkpt>
      <trkpt lat="49.20614" lon="6.10352">
        <ele>244.2</ele>
        <time>2011-11-06T09:23:02Z</time>
      </trkpt>
      <trkpt lat="49.2061" lon="6.10339">
        <ele>244.2</ele>
        <time>2011-11-06T09:23:03Z</time>
      </trkpt>
      <trkpt lat="49.20606" lon="6.10327">
        <ele>244.3</ele>
        <time>2011-11-06T09:23:04Z</time>
      </trkpt>
      <trkpt lat="49.20601" lon="6.10315">
        <ele>244.7</ele>
        <time>2011-11-06T09:23:05Z</time>
      </trkpt>
      <trkpt lat="49.20597" lon="6.10302">
        <ele>244.9</ele>
        <time>2011-11-06T09:23:06Z</time>
      </trkpt>
      <trkpt lat="49.20591" lon="6.10291">
        <ele>245.1</ele>
        <time>2011-11-06T09:23:07Z</time>
      </trkpt>
      <trkpt lat="49.20586" lon="6.10278">
        <ele>244.8</ele>
        <time>2011-11-06T09:23:08Z</time>
      </trkpt>
      <trkpt lat="49.2058" lon="6.10267">
        <ele>245.1</ele>
        <time>2011-11-06T09:23:09Z</time>
      </trkpt>
      <trkpt lat="49.20575" lon="6.10254">
        <ele>245.2</ele>
        <time>2011-11-06T09:23:10Z</time>
      </trkpt>
      <trkpt lat="49.2057" lon="6.10243">
        <ele>244.8</ele>
        <time>2011-11-06T09:23:11Z</time>
      </trkpt>
      <trkpt lat="49.20565" lon="6.10231">
        <ele>245.1</ele>
        <time>2011-11-06T09:23:12Z</time>
      </trkpt>
      <trkpt lat="49.20559" lon="6.10221">
        <ele>245.3</ele>
        <time>2011-11-06T09:23:13Z</time>
      </trkpt>
      <trkpt lat="49.20552" lon="6.10212">
        <ele>246.1</ele>
        <time>2011-11-06T09:23:14Z</time>
      </trkpt>
      <trkpt lat="49.20546" lon="6.10201">
        <ele>246.1</ele>
        <time>2011-11-06T09:23:15Z</time>
      </trkpt>
      <trkpt lat="49.2054" lon="6.10191">
        <ele>246.1</ele>
        <time>2011-11-06T09:23:16Z</time>
      </trkpt>
      <trkpt lat="49.20536" lon="6.10182">
        <ele>245.7</ele>
        <time>2011-11-06T09:23:17Z</time>
      </trkpt>
      <trkpt lat="49.2053" lon="6.10172">
        <ele>246.2</ele>
        <time>2011-11-06T09:23:18Z</time>
      </trkpt>
      <trkpt lat="49.20525" lon="6.10161">
        <ele>247.2</ele>
        <time>2011-11-06T09:23:19Z</time>
      </trkpt>
      <trkpt lat="49.20519" lon="6.1015">
        <ele>247.1</ele>
        <time>2011-11-06T09:23:20Z</time>
      </trkpt>
      <trkpt lat="49.20514" lon="6.10137">
        <ele>246.2</ele>
        <time>2011-11-06T09:23:21Z</time>
      </trkpt>
      <trkpt lat="49.20507" lon="6.10128">
        <ele>246.9</ele>
        <time>2011-11-06T09:23:22Z</time>
      </trkpt>
      <trkpt lat="49.205" lon="6.10119">
        <ele>247.1</ele>
        <time>2011-11-06T09:23:23Z</time>
      </trkpt>
      <trkpt lat="49.20494" lon="6.10108">
        <ele>247.8</ele>
        <time>2011-11-06T09:23:24Z</time>
      </trkpt>
      <trkpt lat="49.20489" lon="6.10097">
        <ele>247.7</ele>
        <time>2011-11-06T09:23:25Z</time>
      </trkpt>
      <trkpt lat="49.20483" lon="6.10087">
        <ele>247.3</ele>
        <time>2011-11-06T09:23:26Z</time>
      </trkpt>
      <trkpt lat="49.20478" lon="6.10074">
        <ele>247.2</ele>
        <time>2011-11-06T09:23:27Z</time>
      </trkpt>
      <trkpt lat="49.20473" lon="6.10061">
        <ele>245.8</ele>
        <time>2011-11-06T09:23:28Z</time>
      </trkpt>
      <trkpt lat="49.20468" lon="6.10054">
        <ele>246.2</ele>
        <time>2011-11-06T09:23:29Z</time>
      </trkpt>
      <trkpt lat="49.20464" lon="6.10042">
        <ele>245.7</ele>
        <time>2011-11-06T09:23:30Z</time>
      </trkpt>
      <trkpt lat="49.20457" lon="6.10031">
        <ele>244.9</ele>
        <time>2011-11-06T09:23:31Z</time>
      </trkpt>
      <trkpt lat="49.20452" lon="6.10022">
        <ele>245</ele>
        <time>2011-11-06T09:23:32Z</time>
      </trkpt>
      <trkpt lat="49.20448" lon="6.10012">
        <ele>244.5</ele>
        <time>2011-11-06T09:23:33Z</time>
      </trkpt>
      <trkpt lat="49.20443" lon="6.10003">
        <ele>244.3</ele>
        <time>2011-11-06T09:23:34Z</time>
      </trkpt>
      <trkpt lat="49.20437" lon="6.09995">
        <ele>243.7</ele>
        <time>2011-11-06T09:23:35Z</time>
      </trkpt>
      <trkpt lat="49.20432" lon="6.09986">
        <ele>243.6</ele>
        <time>2011-11-06T09:23:36Z</time>
      </trkpt>
      <trkpt lat="49.20427" lon="6.09977">
        <ele>244.1</ele>
        <time>2011-11-06T09:23:37Z</time>
      </trkpt>
      <trkpt lat="49.20424" lon="6.09969">
        <ele>244</ele>
        <time>2011-11-06T09:23:38Z</time>
      </trkpt>
      <trkpt lat="49.20419" lon="6.0996">
        <ele>244.4</ele>
        <time>2011-11-06T09:23:39Z</time>
      </trkpt>
      <trkpt lat="49.20415" lon="6.09951">
        <ele>244.9</ele>
        <time>2011-11-06T09:23:40Z</time>
      </trkpt>
      <trkpt lat="49.2041" lon="6.09943">
        <ele>245.1</ele>
        <time>2011-11-06T09:23:41Z</time>
      </trkpt>
      <trkpt lat="49.20406" lon="6.09935">
        <ele>245.3</ele>
        <time>2011-11-06T09:23:42Z</time>
      </trkpt>
      <trkpt lat="49.204" lon="6.09928">
        <ele>245.4</ele>
        <time>2011-11-06T09:23:43Z</time>
      </trkpt>
      <trkpt lat="49.20396" lon="6.09922">
        <ele>244.8</ele>
        <time>2011-11-06T09:23:44Z</time>
      </trkpt>
      <trkpt lat="49.2039" lon="6.09915">
        <ele>244.6</ele>
        <time>2011-11-06T09:23:45Z</time>
      </trkpt>
      <trkpt lat="49.20385" lon="6.09908">
        <ele>244.6</ele>
        <time>2011-11-06T09:23:46Z</time>
      </trkpt>
      <trkpt lat="49.20379" lon="6.09901">
        <ele>244.8</ele>
        <time>2011-11-06T09:23:47Z</time>
      </trkpt>
      <trkpt lat="49.20374" lon="6.09893">
        <ele>244.9</ele>
        <time>2011-11-06T09:23:48Z</time>
      </trkpt>
      <trkpt lat="49.2037" lon="6.09883">
        <ele>245</ele>
        <time>2011-11-06T09:23:49Z</time>
      </trkpt>
      <trkpt lat="49.20365" lon="6.09876">
        <ele>245.3</ele>
        <time>2011-11-06T09:23:50Z</time>
      </trkpt>
      <trkpt lat="49.20359" lon="6.09869">
        <ele>246.1</ele>
        <time>2011-11-06T09:23:51Z</time>
      </trkpt>
      <trkpt lat="49.20353" lon="6.09861">
        <ele>246.2</ele>
        <time>2011-11-06T09:23:52Z</time>
      </trkpt>
      <trkpt lat="49.20349" lon="6.09855">
        <ele>246.7</ele>
        <time>2011-11-06T09:23:53Z</time>
      </trkpt>
      <trkpt lat="49.20344" lon="6.09847">
        <ele>246.5</ele>
        <time>2011-11-06T09:23:54Z</time>
      </trkpt>
      <trkpt lat="49.20338" lon="6.0984">
        <ele>246.7</ele>
        <time>2011-11-06T09:23:55Z</time>
      </trkpt>
      <trkpt lat="49.20333" lon="6.09833">
        <ele>246.8</ele>
        <time>2011-11-06T09:23:56Z</time>
      </trkpt>
      <trkpt lat="49.2033" lon="6.09827">
        <ele>246.8</ele>
        <time>2011-11-06T09:23:57Z</time>
      </trkpt>
      <trkpt lat="49.20325" lon="6.0982">
        <ele>247.1</ele>
        <time>2011-11-06T09:23:58Z</time>
      </trkpt>
      <trkpt lat="49.2032" lon="6.09814">
        <ele>247.1</ele>
        <time>2011-11-06T09:23:59Z</time>
      </trkpt>
      <trkpt lat="49.20316" lon="6.0981">
        <ele>247.1</ele>
        <time>2011-11-06T09:24:00Z</time>
      </trkpt>
      <trkpt lat="49.20313" lon="6.098">
        <ele>246.6</ele>
        <time>2011-11-06T09:24:01Z</time>
      </trkpt>
      <trkpt lat="49.20307" lon="6.09785">
        <ele>245.9</ele>
        <time>2011-11-06T09:24:03Z</time>
      </trkpt>
      <trkpt lat="49.20302" lon="6.09777">
        <ele>245.9</ele>
        <time>2011-11-06T09:24:04Z</time>
      </trkpt>
      <trkpt lat="49.20298" lon="6.09766">
        <ele>246.7</ele>
        <time>2011-11-06T09:24:05Z</time>
      </trkpt>
      <trkpt lat="49.20294" lon="6.09758">
        <ele>246.5</ele>
        <time>2011-11-06T09:24:06Z</time>
      </trkpt>
      <trkpt lat="49.2029" lon="6.0975">
        <ele>246.5</ele>
        <time>2011-11-06T09:24:07Z</time>
      </trkpt>
      <trkpt lat="49.20285" lon="6.09741">
        <ele>246.7</ele>
        <time>2011-11-06T09:24:08Z</time>
      </trkpt>
      <trkpt lat="49.20281" lon="6.09733">
        <ele>246.3</ele>
        <time>2011-11-06T09:24:09Z</time>
      </trkpt>
      <trkpt lat="49.20277" lon="6.09723">
        <ele>246.3</ele>
        <time>2011-11-06T09:24:10Z</time>
      </trkpt>
      <trkpt lat="49.20274" lon="6.09714">
        <ele>246.4</ele>
        <time>2011-11-06T09:24:11Z</time>
      </trkpt>
      <trkpt lat="49.20271" lon="6.09705">
        <ele>246.4</ele>
        <time>2011-11-06T09:24:12Z</time>
      </trkpt>
      <trkpt lat="49.20268" lon="6.09694">
        <ele>246.6</ele>
        <time>2011-11-06T09:24:13Z</time>
      </trkpt>
      <trkpt lat="49.20265" lon="6.09683">
        <ele>246.8</ele>
        <time>2011-11-06T09:24:14Z</time>
      </trkpt>
      <trkpt lat="49.20263" lon="6.09672">
        <ele>247.2</ele>
        <time>2011-11-06T09:24:15Z</time>
      </trkpt>
      <trkpt lat="49.20259" lon="6.09663">
        <ele>247.5</ele>
        <time>2011-11-06T09:24:16Z</time>
      </trkpt>
      <trkpt lat="49.20256" lon="6.09653">
        <ele>247.7</ele>
        <time>2011-11-06T09:24:17Z</time>
      </trkpt>
      <trkpt lat="49.20254" lon="6.09643">
        <ele>247.8</ele>
        <time>2011-11-06T09:24:18Z</time>
      </trkpt>
      <trkpt lat="49.20251" lon="6.09635">
        <ele>248</ele>
        <time>2011-11-06T09:24:19Z</time>
      </trkpt>
      <trkpt lat="49.20246" lon="6.09627">
        <ele>248.1</ele>
        <time>2011-11-06T09:24:20Z</time>
      </trkpt>
      <trkpt lat="49.20243" lon="6.09618">
        <ele>248.2</ele>
        <time>2011-11-06T09:24:21Z</time>
      </trkpt>
      <trkpt lat="49.20239" lon="6.0961">
        <ele>248</ele>
        <time>2011-11-06T09:24:22Z</time>
      </trkpt>
      <trkpt lat="49.20234" lon="6.09603">
        <ele>248.3</ele>
        <time>2011-11-06T09:24:23Z</time>
      </trkpt>
      <trkpt lat="49.20231" lon="6.09595">
        <ele>248.7</ele>
        <time>2011-11-06T09:24:24Z</time>
      </trkpt>
      <trkpt lat="49.20227" lon="6.09586">
        <ele>249</ele>
        <time>2011-11-06T09:24:25Z</time>
      </trkpt>
      <trkpt lat="49.20223" lon="6.09576">
        <ele>249.4</ele>
        <time>2011-11-06T09:24:26Z</time>
      </trkpt>
      <trkpt lat="49.20221" lon="6.09563">
        <ele>249.2</ele>
        <time>2011-11-06T09:24:27Z</time>
      </trkpt>
      <trkpt lat="49.20217" lon="6.09553">
        <ele>249.5</ele>
        <time>2011-11-06T09:24:28Z</time>
      </trkpt>
      <trkpt lat="49.20214" lon="6.09543">
        <ele>249.3</ele>
        <time>2011-11-06T09:24:29Z</time>
      </trkpt>
      <trkpt lat="49.20211" lon="6.09532">
        <ele>249.4</ele>
        <time>2011-11-06T09:24:30Z</time>
      </trkpt>
      <trkpt lat="49.20207" lon="6.09523">
        <ele>249.4</ele>
        <time>2011-11-06T09:24:31Z</time>
      </trkpt>
      <trkpt lat="49.20204" lon="6.09512">
        <ele>249.8</ele>
        <time>2011-11-06T09:24:32Z</time>
      </trkpt>
      <trkpt lat="49.20201" lon="6.09501">
        <ele>250.2</ele>
        <time>2011-11-06T09:24:33Z</time>
      </trkpt>
      <trkpt lat="49.202" lon="6.09493">
        <ele>250.5</ele>
        <time>2011-11-06T09:24:34Z</time>
      </trkpt>
      <trkpt lat="49.20199" lon="6.09483">
        <ele>250.5</ele>
        <time>2011-11-06T09:24:35Z</time>
      </trkpt>
      <trkpt lat="49.20198" lon="6.09471">
        <ele>250.5</ele>
        <time>2011-11-06T09:24:36Z</time>
      </trkpt>
      <trkpt lat="49.20196" lon="6.0946">
        <ele>250.5</ele>
        <time>2011-11-06T09:24:37Z</time>
      </trkpt>
      <trkpt lat="49.20195" lon="6.09447">
        <ele>250.3</ele>
        <time>2011-11-06T09:24:38Z</time>
      </trkpt>
      <trkpt lat="49.20193" lon="6.09433">
        <ele>250.1</ele>
        <time>2011-11-06T09:24:39Z</time>
      </trkpt>
      <trkpt lat="49.20191" lon="6.09422">
        <ele>249.9</ele>
        <time>2011-11-06T09:24:40Z</time>
      </trkpt>
      <trkpt lat="49.2019" lon="6.09409">
        <ele>249.7</ele>
        <time>2011-11-06T09:24:41Z</time>
      </trkpt>
      <trkpt lat="49.2019" lon="6.09397">
        <ele>250.2</ele>
        <time>2011-11-06T09:24:42Z</time>
      </trkpt>
      <trkpt lat="49.20188" lon="6.09384">
        <ele>250.3</ele>
        <time>2011-11-06T09:24:43Z</time>
      </trkpt>
      <trkpt lat="49.20187" lon="6.09372">
        <ele>250.5</ele>
        <time>2011-11-06T09:24:44Z</time>
      </trkpt>
      <trkpt lat="49.20186" lon="6.09359">
        <ele>250.6</ele>
        <time>2011-11-06T09:24:45Z</time>
      </trkpt>
      <trkpt lat="49.20184" lon="6.09344">
        <ele>250.8</ele>
        <time>2011-11-06T09:24:46Z</time>
      </trkpt>
      <trkpt lat="49.20183" lon="6.09331">
        <ele>250.5</ele>
        <time>2011-11-06T09:24:47Z</time>
      </trkpt>
      <trkpt lat="49.20181" lon="6.09318">
        <ele>250</ele>
        <time>2011-11-06T09:24:48Z</time>
      </trkpt>
      <trkpt lat="49.2018" lon="6.09306">
        <ele>250.5</ele>
        <time>2011-11-06T09:24:49Z</time>
      </trkpt>
      <trkpt lat="49.20178" lon="6.09293">
        <ele>250.7</ele>
        <time>2011-11-06T09:24:50Z</time>
      </trkpt>
      <trkpt lat="49.20176" lon="6.09283">
        <ele>250.3</ele>
        <time>2011-11-06T09:24:51Z</time>
      </trkpt>
      <trkpt lat="49.20173" lon="6.09271">
        <ele>250.2</ele>
        <time>2011-11-06T09:24:52Z</time>
      </trkpt>
      <trkpt lat="49.20172" lon="6.0926">
        <ele>249.9</ele>
        <time>2011-11-06T09:24:53Z</time>
      </trkpt>
      <trkpt lat="49.20166" lon="6.09248">
        <ele>249.8</ele>
        <time>2011-11-06T09:24:54Z</time>
      </trkpt>
      <trkpt lat="49.20162" lon="6.09234">
        <ele>249.6</ele>
        <time>2011-11-06T09:24:55Z</time>
      </trkpt>
      <trkpt lat="49.20158" lon="6.09224">
        <ele>250</ele>
        <time>2011-11-06T09:24:56Z</time>
      </trkpt>
      <trkpt lat="49.20152" lon="6.09211">
        <ele>250.4</ele>
        <time>2011-11-06T09:24:57Z</time>
      </trkpt>
      <trkpt lat="49.20145" lon="6.09199">
        <ele>250</ele>
        <time>2011-11-06T09:24:58Z</time>
      </trkpt>
      <trkpt lat="49.20136" lon="6.09192">
        <ele>250.1</ele>
        <time>2011-11-06T09:24:59Z</time>
      </trkpt>
      <trkpt lat="49.20131" lon="6.09182">
        <ele>250.3</ele>
        <time>2011-11-06T09:25:00Z</time>
      </trkpt>
      <trkpt lat="49.20126" lon="6.0917">
        <ele>250.6</ele>
        <time>2011-11-06T09:25:01Z</time>
      </trkpt>
      <trkpt lat="49.2012" lon="6.0916">
        <ele>250.6</ele>
        <time>2011-11-06T09:25:02Z</time>
      </trkpt>
      <trkpt lat="49.20113" lon="6.0915">
        <ele>251.9</ele>
        <time>2011-11-06T09:25:03Z</time>
      </trkpt>
      <trkpt lat="49.20107" lon="6.09138">
        <ele>250.5</ele>
        <time>2011-11-06T09:25:04Z</time>
      </trkpt>
      <trkpt lat="49.201" lon="6.0913">
        <ele>251</ele>
        <time>2011-11-06T09:25:05Z</time>
      </trkpt>
      <trkpt lat="49.20094" lon="6.09122">
        <ele>251.2</ele>
        <time>2011-11-06T09:25:06Z</time>
      </trkpt>
      <trkpt lat="49.20088" lon="6.09114">
        <ele>251.1</ele>
        <time>2011-11-06T09:25:07Z</time>
      </trkpt>
      <trkpt lat="49.20082" lon="6.09106">
        <ele>251.2</ele>
        <time>2011-11-06T09:25:08Z</time>
      </trkpt>
      <trkpt lat="49.20076" lon="6.09099">
        <ele>251.2</ele>
        <time>2011-11-06T09:25:09Z</time>
      </trkpt>
      <trkpt lat="49.20067" lon="6.09091">
        <ele>251.5</ele>
        <time>2011-11-06T09:25:10Z</time>
      </trkpt>
      <trkpt lat="49.2006" lon="6.09083">
        <ele>252.1</ele>
        <time>2011-11-06T09:25:11Z</time>
      </trkpt>
      <trkpt lat="49.20054" lon="6.09076">
        <ele>252.2</ele>
        <time>2011-11-06T09:25:12Z</time>
      </trkpt>
      <trkpt lat="49.20042" lon="6.09069">
        <ele>252</ele>
        <time>2011-11-06T09:25:13Z</time>
      </trkpt>
      <trkpt lat="49.20034" lon="6.09061">
        <ele>251.5</ele>
        <time>2011-11-06T09:25:14Z</time>
      </trkpt>
      <trkpt lat="49.20026" lon="6.09054">
        <ele>251.6</ele>
        <time>2011-11-06T09:25:15Z</time>
      </trkpt>
      <trkpt lat="49.2002" lon="6.09048">
        <ele>251.3</ele>
        <time>2011-11-06T09:25:16Z</time>
      </trkpt>
      <trkpt lat="49.20013" lon="6.09041">
        <ele>251.7</ele>
        <time>2011-11-06T09:25:17Z</time>
      </trkpt>
      <trkpt lat="49.20006" lon="6.09032">
        <ele>252.1</ele>
        <time>2011-11-06T09:25:18Z</time>
      </trkpt>
      <trkpt lat="49.19999" lon="6.09026">
        <ele>251.8</ele>
        <time>2011-11-06T09:25:19Z</time>
      </trkpt>
      <trkpt lat="49.19992" lon="6.09018">
        <ele>251.9</ele>
        <time>2011-11-06T09:25:20Z</time>
      </trkpt>
      <trkpt lat="49.19986" lon="6.09011">
        <ele>252.7</ele>
        <time>2011-11-06T09:25:21Z</time>
      </trkpt>
      <trkpt lat="49.19979" lon="6.09005">
        <ele>252.9</ele>
        <time>2011-11-06T09:25:22Z</time>
      </trkpt>
      <trkpt lat="49.19972" lon="6.09">
        <ele>253.1</ele>
        <time>2011-11-06T09:25:23Z</time>
      </trkpt>
      <trkpt lat="49.19965" lon="6.08995">
        <ele>253.7</ele>
        <time>2011-11-06T09:25:24Z</time>
      </trkpt>
      <trkpt lat="49.19956" lon="6.0899">
        <ele>254</ele>
        <time>2011-11-06T09:25:25Z</time>
      </trkpt>
      <trkpt lat="49.19949" lon="6.08986">
        <ele>254</ele>
        <time>2011-11-06T09:25:26Z</time>
      </trkpt>
      <trkpt lat="49.19941" lon="6.08983">
        <ele>253.9</ele>
        <time>2011-11-06T09:25:27Z</time>
      </trkpt>
      <trkpt lat="49.19934" lon="6.0898">
        <ele>254.3</ele>
        <time>2011-11-06T09:25:28Z</time>
      </trkpt>
      <trkpt lat="49.19926" lon="6.08977">
        <ele>254.4</ele>
        <time>2011-11-06T09:25:29Z</time>
      </trkpt>
      <trkpt lat="49.19919" lon="6.08974">
        <ele>254.8</ele>
        <time>2011-11-06T09:25:30Z</time>
      </trkpt>
      <trkpt lat="49.19911" lon="6.08971">
        <ele>255.4</ele>
        <time>2011-11-06T09:25:31Z</time>
      </trkpt>
      <trkpt lat="49.19904" lon="6.08968">
        <ele>255.2</ele>
        <time>2011-11-06T09:25:32Z</time>
      </trkpt>
      <trkpt lat="49.19897" lon="6.08963">
        <ele>255.5</ele>
        <time>2011-11-06T09:25:33Z</time>
      </trkpt>
      <trkpt lat="49.19888" lon="6.0896">
        <ele>255.7</ele>
        <time>2011-11-06T09:25:34Z</time>
      </trkpt>
      <trkpt lat="49.19879" lon="6.08956">
        <ele>255.6</ele>
        <time>2011-11-06T09:25:35Z</time>
      </trkpt>
      <trkpt lat="49.19872" lon="6.08952">
        <ele>255.8</ele>
        <time>2011-11-06T09:25:36Z</time>
      </trkpt>
      <trkpt lat="49.19864" lon="6.08947">
        <ele>255.9</ele>
        <time>2011-11-06T09:25:37Z</time>
      </trkpt>
      <trkpt lat="49.19856" lon="6.08943">
        <ele>256.1</ele>
        <time>2011-11-06T09:25:38Z</time>
      </trkpt>
      <trkpt lat="49.19848" lon="6.08939">
        <ele>256.7</ele>
        <time>2011-11-06T09:25:39Z</time>
      </trkpt>
      <trkpt lat="49.1984" lon="6.08932">
        <ele>256.8</ele>
        <time>2011-11-06T09:25:40Z</time>
      </trkpt>
      <trkpt lat="49.19832" lon="6.08927">
        <ele>257</ele>
        <time>2011-11-06T09:25:41Z</time>
      </trkpt>
      <trkpt lat="49.19824" lon="6.08922">
        <ele>257.5</ele>
        <time>2011-11-06T09:25:42Z</time>
      </trkpt>
      <trkpt lat="49.19814" lon="6.08918">
        <ele>257.3</ele>
        <time>2011-11-06T09:25:43Z</time>
      </trkpt>
      <trkpt lat="49.19807" lon="6.08914">
        <ele>257.3</ele>
        <time>2011-11-06T09:25:44Z</time>
      </trkpt>
      <trkpt lat="49.198" lon="6.08911">
        <ele>257.3</ele>
        <time>2011-11-06T09:25:45Z</time>
      </trkpt>
      <trkpt lat="49.19794" lon="6.08906">
        <ele>257.3</ele>
        <time>2011-11-06T09:25:46Z</time>
      </trkpt>
      <trkpt lat="49.19786" lon="6.08902">
        <ele>257.5</ele>
        <time>2011-11-06T09:25:47Z</time>
      </trkpt>
      <trkpt lat="49.19779" lon="6.08897">
        <ele>257.7</ele>
        <time>2011-11-06T09:25:48Z</time>
      </trkpt>
      <trkpt lat="49.19771" lon="6.08894">
        <ele>257.7</ele>
        <time>2011-11-06T09:25:49Z</time>
      </trkpt>
      <trkpt lat="49.19764" lon="6.08889">
        <ele>257.9</ele>
        <time>2011-11-06T09:25:50Z</time>
      </trkpt>
      <trkpt lat="49.1976" lon="6.08884">
        <ele>258.3</ele>
        <time>2011-11-06T09:25:51Z</time>
      </trkpt>
      <trkpt lat="49.19753" lon="6.08883">
        <ele>258.8</ele>
        <time>2011-11-06T09:25:52Z</time>
      </trkpt>
      <trkpt lat="49.19744" lon="6.08887">
        <ele>261</ele>
        <time>2011-11-06T09:25:53Z</time>
      </trkpt>
      <trkpt lat="49.19742" lon="6.08877">
        <ele>262.7</ele>
        <time>2011-11-06T09:25:54Z</time>
      </trkpt>
      <trkpt lat="49.19735" lon="6.08872">
        <ele>262.6</ele>
        <time>2011-11-06T09:25:55Z</time>
      </trkpt>
      <trkpt lat="49.19723" lon="6.08857">
        <ele>263.6</ele>
        <time>2011-11-06T09:25:57Z</time>
      </trkpt>
      <trkpt lat="49.19716" lon="6.0885">
        <ele>263.6</ele>
        <time>2011-11-06T09:25:58Z</time>
      </trkpt>
      <trkpt lat="49.19711" lon="6.08842">
        <ele>264.2</ele>
        <time>2011-11-06T09:25:59Z</time>
      </trkpt>
      <trkpt lat="49.19703" lon="6.08833">
        <ele>264.7</ele>
        <time>2011-11-06T09:26:00Z</time>
      </trkpt>
      <trkpt lat="49.19697" lon="6.08825">
        <ele>264.7</ele>
        <time>2011-11-06T09:26:01Z</time>
      </trkpt>
      <trkpt lat="49.19693" lon="6.08818">
        <ele>264.7</ele>
        <time>2011-11-06T09:26:02Z</time>
      </trkpt>
      <trkpt lat="49.19689" lon="6.08813">
        <ele>264.1</ele>
        <time>2011-11-06T09:26:03Z</time>
      </trkpt>
      <trkpt lat="49.19683" lon="6.08806">
        <ele>264.1</ele>
        <time>2011-11-06T09:26:04Z</time>
      </trkpt>
      <trkpt lat="49.19674" lon="6.088">
        <ele>263.7</ele>
        <time>2011-11-06T09:26:05Z</time>
      </trkpt>
      <trkpt lat="49.19667" lon="6.08793">
        <ele>263.7</ele>
        <time>2011-11-06T09:26:06Z</time>
      </trkpt>
      <trkpt lat="49.19664" lon="6.08785">
        <ele>263.7</ele>
        <time>2011-11-06T09:26:07Z</time>
      </trkpt>
      <trkpt lat="49.19652" lon="6.08781">
        <ele>263.6</ele>
        <time>2011-11-06T09:26:08Z</time>
      </trkpt>
      <trkpt lat="49.19646" lon="6.08775">
        <ele>263.6</ele>
        <time>2011-11-06T09:26:09Z</time>
      </trkpt>
      <trkpt lat="49.19639" lon="6.08769">
        <ele>263.6</ele>
        <time>2011-11-06T09:26:10Z</time>
      </trkpt>
      <trkpt lat="49.19633" lon="6.08765">
        <ele>263.7</ele>
        <time>2011-11-06T09:26:11Z</time>
      </trkpt>
      <trkpt lat="49.19626" lon="6.08762">
        <ele>263.5</ele>
        <time>2011-11-06T09:26:12Z</time>
      </trkpt>
      <trkpt lat="49.19619" lon="6.08756">
        <ele>263.6</ele>
        <time>2011-11-06T09:26:13Z</time>
      </trkpt>
      <trkpt lat="49.19612" lon="6.08742">
        <ele>264.2</ele>
        <time>2011-11-06T09:26:14Z</time>
      </trkpt>
      <trkpt lat="49.19605" lon="6.08731">
        <ele>264.8</ele>
        <time>2011-11-06T09:26:15Z</time>
      </trkpt>
      <trkpt lat="49.19601" lon="6.08722">
        <ele>264.7</ele>
        <time>2011-11-06T09:26:16Z</time>
      </trkpt>
      <trkpt lat="49.19597" lon="6.08713">
        <ele>264.4</ele>
        <time>2011-11-06T09:26:17Z</time>
      </trkpt>
      <trkpt lat="49.19593" lon="6.08704">
        <ele>264.4</ele>
        <time>2011-11-06T09:26:18Z</time>
      </trkpt>
      <trkpt lat="49.19588" lon="6.08697">
        <ele>264.4</ele>
        <time>2011-11-06T09:26:19Z</time>
      </trkpt>
      <trkpt lat="49.19585" lon="6.08687">
        <ele>264.1</ele>
        <time>2011-11-06T09:26:20Z</time>
      </trkpt>
      <trkpt lat="49.19579" lon="6.08682">
        <ele>263.8</ele>
        <time>2011-11-06T09:26:21Z</time>
      </trkpt>
      <trkpt lat="49.19575" lon="6.08674">
        <ele>263.7</ele>
        <time>2011-11-06T09:26:22Z</time>
      </trkpt>
      <trkpt lat="49.19572" lon="6.08658">
        <ele>263.4</ele>
        <time>2011-11-06T09:26:23Z</time>
      </trkpt>
      <trkpt lat="49.19569" lon="6.08647">
        <ele>263.5</ele>
        <time>2011-11-06T09:26:24Z</time>
      </trkpt>
      <trkpt lat="49.19565" lon="6.08638">
        <ele>263.5</ele>
        <time>2011-11-06T09:26:25Z</time>
      </trkpt>
      <trkpt lat="49.19559" lon="6.08635">
        <ele>264.6</ele>
        <time>2011-11-06T09:26:26Z</time>
      </trkpt>
      <trkpt lat="49.19557" lon="6.08625">
        <ele>264.5</ele>
        <time>2011-11-06T09:26:27Z</time>
      </trkpt>
      <trkpt lat="49.19554" lon="6.08616">
        <ele>264.5</ele>
        <time>2011-11-06T09:26:28Z</time>
      </trkpt>
      <trkpt lat="49.1955" lon="6.08607">
        <ele>264.5</ele>
        <time>2011-11-06T09:26:29Z</time>
      </trkpt>
      <trkpt lat="49.19547" lon="6.08597">
        <ele>264.4</ele>
        <time>2011-11-06T09:26:30Z</time>
      </trkpt>
      <trkpt lat="49.19543" lon="6.08588">
        <ele>264.4</ele>
        <time>2011-11-06T09:26:31Z</time>
      </trkpt>
      <trkpt lat="49.19538" lon="6.0858">
        <ele>264.5</ele>
        <time>2011-11-06T09:26:32Z</time>
      </trkpt>
      <trkpt lat="49.19534" lon="6.08571">
        <ele>264.5</ele>
        <time>2011-11-06T09:26:33Z</time>
      </trkpt>
      <trkpt lat="49.19528" lon="6.08563">
        <ele>264.4</ele>
        <time>2011-11-06T09:26:34Z</time>
      </trkpt>
      <trkpt lat="49.19525" lon="6.08556">
        <ele>264.4</ele>
        <time>2011-11-06T09:26:35Z</time>
      </trkpt>
      <trkpt lat="49.19521" lon="6.08548">
        <ele>264.4</ele>
        <time>2011-11-06T09:26:36Z</time>
      </trkpt>
      <trkpt lat="49.19515" lon="6.08537">
        <ele>264.9</ele>
        <time>2011-11-06T09:26:37Z</time>
      </trkpt>
      <trkpt lat="49.19511" lon="6.08532">
        <ele>265.3</ele>
        <time>2011-11-06T09:26:38Z</time>
      </trkpt>
      <trkpt lat="49.19506" lon="6.08524">
        <ele>265.3</ele>
        <time>2011-11-06T09:26:39Z</time>
      </trkpt>
      <trkpt lat="49.19501" lon="6.08514">
        <ele>265.2</ele>
        <time>2011-11-06T09:26:40Z</time>
      </trkpt>
      <trkpt lat="49.19498" lon="6.08504">
        <ele>265.4</ele>
        <time>2011-11-06T09:26:41Z</time>
      </trkpt>
      <trkpt lat="49.19493" lon="6.08496">
        <ele>265.4</ele>
        <time>2011-11-06T09:26:42Z</time>
      </trkpt>
      <trkpt lat="49.19487" lon="6.0849">
        <ele>265.4</ele>
        <time>2011-11-06T09:26:43Z</time>
      </trkpt>
      <trkpt lat="49.19484" lon="6.08483">
        <ele>265.7</ele>
        <time>2011-11-06T09:26:44Z</time>
      </trkpt>
      <trkpt lat="49.1948" lon="6.08475">
        <ele>265.8</ele>
        <time>2011-11-06T09:26:45Z</time>
      </trkpt>
      <trkpt lat="49.19476" lon="6.08468">
        <ele>265.8</ele>
        <time>2011-11-06T09:26:46Z</time>
      </trkpt>
      <trkpt lat="49.19471" lon="6.0846">
        <ele>265.7</ele>
        <time>2011-11-06T09:26:47Z</time>
      </trkpt>
      <trkpt lat="49.19465" lon="6.08453">
        <ele>265.9</ele>
        <time>2011-11-06T09:26:48Z</time>
      </trkpt>
      <trkpt lat="49.19459" lon="6.08446">
        <ele>265.9</ele>
        <time>2011-11-06T09:26:49Z</time>
      </trkpt>
      <trkpt lat="49.19455" lon="6.08441">
        <ele>267.4</ele>
        <time>2011-11-06T09:26:50Z</time>
      </trkpt>
      <trkpt lat="49.1945" lon="6.08435">
        <ele>267.4</ele>
        <time>2011-11-06T09:26:51Z</time>
      </trkpt>
      <trkpt lat="49.19445" lon="6.08425">
        <ele>267.9</ele>
        <time>2011-11-06T09:26:52Z</time>
      </trkpt>
      <trkpt lat="49.1944" lon="6.08418">
        <ele>267.9</ele>
        <time>2011-11-06T09:26:53Z</time>
      </trkpt>
      <trkpt lat="49.19433" lon="6.08412">
        <ele>268.3</ele>
        <time>2011-11-06T09:26:54Z</time>
      </trkpt>
      <trkpt lat="49.19428" lon="6.08405">
        <ele>268.2</ele>
        <time>2011-11-06T09:26:55Z</time>
      </trkpt>
      <trkpt lat="49.19421" lon="6.08399">
        <ele>268.2</ele>
        <time>2011-11-06T09:26:56Z</time>
      </trkpt>
      <trkpt lat="49.19416" lon="6.08392">
        <ele>268.2</ele>
        <time>2011-11-06T09:26:57Z</time>
      </trkpt>
      <trkpt lat="49.19414" lon="6.08386">
        <ele>268.1</ele>
        <time>2011-11-06T09:26:58Z</time>
      </trkpt>
      <trkpt lat="49.19409" lon="6.0838">
        <ele>268.6</ele>
        <time>2011-11-06T09:26:59Z</time>
      </trkpt>
      <trkpt lat="49.19403" lon="6.0837">
        <ele>268.9</ele>
        <time>2011-11-06T09:27:00Z</time>
      </trkpt>
      <trkpt lat="49.19398" lon="6.08363">
        <ele>268.9</ele>
        <time>2011-11-06T09:27:01Z</time>
      </trkpt>
      <trkpt lat="49.19393" lon="6.08357">
        <ele>269.3</ele>
        <time>2011-11-06T09:27:02Z</time>
      </trkpt>
      <trkpt lat="49.19392" lon="6.0835">
        <ele>269.2</ele>
        <time>2011-11-06T09:27:03Z</time>
      </trkpt>
      <trkpt lat="49.19386" lon="6.08342">
        <ele>270.3</ele>
        <time>2011-11-06T09:27:04Z</time>
      </trkpt>
      <trkpt lat="49.19382" lon="6.08335">
        <ele>270.2</ele>
        <time>2011-11-06T09:27:05Z</time>
      </trkpt>
      <trkpt lat="49.19377" lon="6.08327">
        <ele>270.6</ele>
        <time>2011-11-06T09:27:06Z</time>
      </trkpt>
      <trkpt lat="49.19368" lon="6.08322">
        <ele>270.7</ele>
        <time>2011-11-06T09:27:07Z</time>
      </trkpt>
      <trkpt lat="49.19363" lon="6.08313">
        <ele>271</ele>
        <time>2011-11-06T09:27:08Z</time>
      </trkpt>
      <trkpt lat="49.19357" lon="6.08306">
        <ele>271</ele>
        <time>2011-11-06T09:27:09Z</time>
      </trkpt>
      <trkpt lat="49.19357" lon="6.08296">
        <ele>270.4</ele>
        <time>2011-11-06T09:27:10Z</time>
      </trkpt>
      <trkpt lat="49.19352" lon="6.08289">
        <ele>270.4</ele>
        <time>2011-11-06T09:27:11Z</time>
      </trkpt>
      <trkpt lat="49.19345" lon="6.08283">
        <ele>270.6</ele>
        <time>2011-11-06T09:27:12Z</time>
      </trkpt>
      <trkpt lat="49.19338" lon="6.08278">
        <ele>269.9</ele>
        <time>2011-11-06T09:27:13Z</time>
      </trkpt>
      <trkpt lat="49.19333" lon="6.08271">
        <ele>269.9</ele>
        <time>2011-11-06T09:27:14Z</time>
      </trkpt>
      <trkpt lat="49.19327" lon="6.08264">
        <ele>269.9</ele>
        <time>2011-11-06T09:27:15Z</time>
      </trkpt>
      <trkpt lat="49.19325" lon="6.08251">
        <ele>269.9</ele>
        <time>2011-11-06T09:27:16Z</time>
      </trkpt>
      <trkpt lat="49.19318" lon="6.08244">
        <ele>270</ele>
        <time>2011-11-06T09:27:17Z</time>
      </trkpt>
      <trkpt lat="49.19313" lon="6.08237">
        <ele>270</ele>
        <time>2011-11-06T09:27:18Z</time>
      </trkpt>
      <trkpt lat="49.19308" lon="6.0823">
        <ele>269.9</ele>
        <time>2011-11-06T09:27:19Z</time>
      </trkpt>
      <trkpt lat="49.19302" lon="6.08219">
        <ele>270.3</ele>
        <time>2011-11-06T09:27:20Z</time>
      </trkpt>
      <trkpt lat="49.19297" lon="6.08212">
        <ele>270.3</ele>
        <time>2011-11-06T09:27:21Z</time>
      </trkpt>
      <trkpt lat="49.19292" lon="6.08204">
        <ele>270.2</ele>
        <time>2011-11-06T09:27:22Z</time>
      </trkpt>
      <trkpt lat="49.19288" lon="6.08198">
        <ele>272.9</ele>
        <time>2011-11-06T09:27:23Z</time>
      </trkpt>
      <trkpt lat="49.19284" lon="6.0819">
        <ele>275.2</ele>
        <time>2011-11-06T09:27:24Z</time>
      </trkpt>
      <trkpt lat="49.1928" lon="6.08182">
        <ele>275.2</ele>
        <time>2011-11-06T09:27:25Z</time>
      </trkpt>
      <trkpt lat="49.19274" lon="6.08178">
        <ele>277.8</ele>
        <time>2011-11-06T09:27:26Z</time>
      </trkpt>
      <trkpt lat="49.19268" lon="6.08178">
        <ele>282.7</ele>
        <time>2011-11-06T09:27:28Z</time>
      </trkpt>
      <trkpt lat="49.19264" lon="6.08172">
        <ele>282.8</ele>
        <time>2011-11-06T09:27:29Z</time>
      </trkpt>
      <trkpt lat="49.19261" lon="6.08162">
        <ele>283.3</ele>
        <time>2011-11-06T09:27:30Z</time>
      </trkpt>
      <trkpt lat="49.19255" lon="6.08158">
        <ele>285.4</ele>
        <time>2011-11-06T09:27:31Z</time>
      </trkpt>
      <trkpt lat="49.19251" lon="6.08152">
        <ele>285.4</ele>
        <time>2011-11-06T09:27:32Z</time>
      </trkpt>
      <trkpt lat="49.19241" lon="6.08143">
        <ele>287.8</ele>
        <time>2011-11-06T09:27:34Z</time>
      </trkpt>
      <trkpt lat="49.19236" lon="6.08136">
        <ele>289.3</ele>
        <time>2011-11-06T09:27:35Z</time>
      </trkpt>
      <trkpt lat="49.19231" lon="6.08129">
        <ele>289.7</ele>
        <time>2011-11-06T09:27:36Z</time>
      </trkpt>
      <trkpt lat="49.19226" lon="6.08122">
        <ele>290.6</ele>
        <time>2011-11-06T09:27:37Z</time>
      </trkpt>
      <trkpt lat="49.19221" lon="6.08115">
        <ele>290.7</ele>
        <time>2011-11-06T09:27:38Z</time>
      </trkpt>
      <trkpt lat="49.19217" lon="6.08105">
        <ele>292.4</ele>
        <time>2011-11-06T09:27:40Z</time>
      </trkpt>
      <trkpt lat="49.19214" lon="6.08099">
        <ele>292.4</ele>
        <time>2011-11-06T09:27:41Z</time>
      </trkpt>
      <trkpt lat="49.19208" lon="6.08092">
        <ele>293.2</ele>
        <time>2011-11-06T09:27:42Z</time>
      </trkpt>
      <trkpt lat="49.19202" lon="6.08087">
        <ele>293.7</ele>
        <time>2011-11-06T09:27:43Z</time>
      </trkpt>
      <trkpt lat="49.19199" lon="6.08078">
        <ele>293.9</ele>
        <time>2011-11-06T09:27:44Z</time>
      </trkpt>
      <trkpt lat="49.1919" lon="6.08068">
        <ele>294.4</ele>
        <time>2011-11-06T09:27:46Z</time>
      </trkpt>
      <trkpt lat="49.19186" lon="6.08062">
        <ele>294.5</ele>
        <time>2011-11-06T09:27:47Z</time>
      </trkpt>
      <trkpt lat="49.19182" lon="6.08057">
        <ele>295.2</ele>
        <time>2011-11-06T09:27:48Z</time>
      </trkpt>
      <trkpt lat="49.19177" lon="6.08052">
        <ele>295.5</ele>
        <time>2011-11-06T09:27:49Z</time>
      </trkpt>
      <trkpt lat="49.19175" lon="6.08041">
        <ele>296</ele>
        <time>2011-11-06T09:27:50Z</time>
      </trkpt>
      <trkpt lat="49.1917" lon="6.08034">
        <ele>296</ele>
        <time>2011-11-06T09:27:51Z</time>
      </trkpt>
      <trkpt lat="49.19166" lon="6.08028">
        <ele>296</ele>
        <time>2011-11-06T09:27:52Z</time>
      </trkpt>
      <trkpt lat="49.19157" lon="6.08023">
        <ele>296.9</ele>
        <time>2011-11-06T09:27:53Z</time>
      </trkpt>
      <trkpt lat="49.19154" lon="6.08016">
        <ele>297.7</ele>
        <time>2011-11-06T09:27:54Z</time>
      </trkpt>
      <trkpt lat="49.1915" lon="6.0801">
        <ele>297.7</ele>
        <time>2011-11-06T09:27:55Z</time>
      </trkpt>
      <trkpt lat="49.19139" lon="6.07998">
        <ele>299.4</ele>
        <time>2011-11-06T09:27:58Z</time>
      </trkpt>
      <trkpt lat="49.19135" lon="6.0799">
        <ele>300</ele>
        <time>2011-11-06T09:27:59Z</time>
      </trkpt>
      <trkpt lat="49.1913" lon="6.07985">
        <ele>300</ele>
        <time>2011-11-06T09:28:00Z</time>
      </trkpt>
      <trkpt lat="49.1912" lon="6.0798">
        <ele>300.3</ele>
        <time>2011-11-06T09:28:01Z</time>
      </trkpt>
      <trkpt lat="49.19114" lon="6.07974">
        <ele>300.3</ele>
        <time>2011-11-06T09:28:02Z</time>
      </trkpt>
      <trkpt lat="49.19108" lon="6.07976">
        <ele>302.2</ele>
        <time>2011-11-06T09:28:03Z</time>
      </trkpt>
      <trkpt lat="49.19102" lon="6.07971">
        <ele>302.2</ele>
        <time>2011-11-06T09:28:04Z</time>
      </trkpt>
      <trkpt lat="49.19095" lon="6.07967">
        <ele>303.7</ele>
        <time>2011-11-06T09:28:05Z</time>
      </trkpt>
      <trkpt lat="49.19089" lon="6.07963">
        <ele>303.7</ele>
        <time>2011-11-06T09:28:06Z</time>
      </trkpt>
      <trkpt lat="49.19082" lon="6.0796">
        <ele>304.1</ele>
        <time>2011-11-06T09:28:07Z</time>
      </trkpt>
      <trkpt lat="49.19074" lon="6.07959">
        <ele>303.8</ele>
        <time>2011-11-06T09:28:08Z</time>
      </trkpt>
      <trkpt lat="49.19069" lon="6.0796">
        <ele>304.6</ele>
        <time>2011-11-06T09:28:09Z</time>
      </trkpt>
      <trkpt lat="49.19065" lon="6.07956">
        <ele>304.6</ele>
        <time>2011-11-06T09:28:10Z</time>
      </trkpt>
      <trkpt lat="49.19058" lon="6.07954">
        <ele>305.3</ele>
        <time>2011-11-06T09:28:11Z</time>
      </trkpt>
      <trkpt lat="49.19051" lon="6.07946">
        <ele>304.1</ele>
        <time>2011-11-06T09:28:12Z</time>
      </trkpt>
      <trkpt lat="49.19044" lon="6.07944">
        <ele>303.9</ele>
        <time>2011-11-06T09:28:13Z</time>
      </trkpt>
      <trkpt lat="49.19037" lon="6.07943">
        <ele>304.4</ele>
        <time>2011-11-06T09:28:14Z</time>
      </trkpt>
      <trkpt lat="49.1903" lon="6.07941">
        <ele>304.8</ele>
        <time>2011-11-06T09:28:15Z</time>
      </trkpt>
      <trkpt lat="49.19024" lon="6.07939">
        <ele>305.5</ele>
        <time>2011-11-06T09:28:16Z</time>
      </trkpt>
      <trkpt lat="49.19018" lon="6.07937">
        <ele>305.8</ele>
        <time>2011-11-06T09:28:17Z</time>
      </trkpt>
      <trkpt lat="49.19011" lon="6.07932">
        <ele>305.7</ele>
        <time>2011-11-06T09:28:18Z</time>
      </trkpt>
      <trkpt lat="49.19002" lon="6.0793">
        <ele>306.1</ele>
        <time>2011-11-06T09:28:19Z</time>
      </trkpt>
      <trkpt lat="49.18995" lon="6.07928">
        <ele>306.3</ele>
        <time>2011-11-06T09:28:20Z</time>
      </trkpt>
      <trkpt lat="49.18989" lon="6.07925">
        <ele>306.3</ele>
        <time>2011-11-06T09:28:21Z</time>
      </trkpt>
      <trkpt lat="49.1898" lon="6.07924">
        <ele>306.4</ele>
        <time>2011-11-06T09:28:23Z</time>
      </trkpt>
      <trkpt lat="49.18975" lon="6.07922">
        <ele>306.4</ele>
        <time>2011-11-06T09:28:24Z</time>
      </trkpt>
      <trkpt lat="49.18968" lon="6.07919">
        <ele>305.9</ele>
        <time>2011-11-06T09:28:25Z</time>
      </trkpt>
      <trkpt lat="49.18962" lon="6.07917">
        <ele>305.2</ele>
        <time>2011-11-06T09:28:26Z</time>
      </trkpt>
      <trkpt lat="49.18955" lon="6.07915">
        <ele>305.7</ele>
        <time>2011-11-06T09:28:27Z</time>
      </trkpt>
      <trkpt lat="49.1895" lon="6.07914">
        <ele>305.5</ele>
        <time>2011-11-06T09:28:28Z</time>
      </trkpt>
      <trkpt lat="49.18943" lon="6.07916">
        <ele>306</ele>
        <time>2011-11-06T09:28:29Z</time>
      </trkpt>
      <trkpt lat="49.18936" lon="6.07914">
        <ele>306.4</ele>
        <time>2011-11-06T09:28:30Z</time>
      </trkpt>
      <trkpt lat="49.1893" lon="6.07913">
        <ele>306.7</ele>
        <time>2011-11-06T09:28:31Z</time>
      </trkpt>
      <trkpt lat="49.18922" lon="6.07912">
        <ele>304.9</ele>
        <time>2011-11-06T09:28:32Z</time>
      </trkpt>
      <trkpt lat="49.18916" lon="6.07911">
        <ele>304.8</ele>
        <time>2011-11-06T09:28:33Z</time>
      </trkpt>
      <trkpt lat="49.1891" lon="6.0791">
        <ele>305.2</ele>
        <time>2011-11-06T09:28:34Z</time>
      </trkpt>
      <trkpt lat="49.18905" lon="6.07909">
        <ele>305.3</ele>
        <time>2011-11-06T09:28:35Z</time>
      </trkpt>
      <trkpt lat="49.18896" lon="6.07908">
        <ele>306.2</ele>
        <time>2011-11-06T09:28:37Z</time>
      </trkpt>
      <trkpt lat="49.1889" lon="6.07905">
        <ele>306.1</ele>
        <time>2011-11-06T09:28:38Z</time>
      </trkpt>
      <trkpt lat="49.18882" lon="6.07907">
        <ele>306.5</ele>
        <time>2011-11-06T09:28:39Z</time>
      </trkpt>
      <trkpt lat="49.18876" lon="6.07907">
        <ele>306.5</ele>
        <time>2011-11-06T09:28:40Z</time>
      </trkpt>
      <trkpt lat="49.18869" lon="6.07905">
        <ele>307</ele>
        <time>2011-11-06T09:28:41Z</time>
      </trkpt>
      <trkpt lat="49.18862" lon="6.07904">
        <ele>307</ele>
        <time>2011-11-06T09:28:42Z</time>
      </trkpt>
      <trkpt lat="49.18855" lon="6.079">
        <ele>305.9</ele>
        <time>2011-11-06T09:28:43Z</time>
      </trkpt>
      <trkpt lat="49.18846" lon="6.079">
        <ele>306.3</ele>
        <time>2011-11-06T09:28:44Z</time>
      </trkpt>
      <trkpt lat="49.18839" lon="6.07899">
        <ele>306.2</ele>
        <time>2011-11-06T09:28:45Z</time>
      </trkpt>
      <trkpt lat="49.18833" lon="6.07896">
        <ele>306.4</ele>
        <time>2011-11-06T09:28:46Z</time>
      </trkpt>
      <trkpt lat="49.18826" lon="6.07895">
        <ele>306.5</ele>
        <time>2011-11-06T09:28:47Z</time>
      </trkpt>
      <trkpt lat="49.18819" lon="6.07893">
        <ele>306.6</ele>
        <time>2011-11-06T09:28:48Z</time>
      </trkpt>
      <trkpt lat="49.1881" lon="6.0789">
        <ele>306.8</ele>
        <time>2011-11-06T09:28:49Z</time>
      </trkpt>
      <trkpt lat="49.18802" lon="6.07888">
        <ele>306.8</ele>
        <time>2011-11-06T09:28:50Z</time>
      </trkpt>
      <trkpt lat="49.18795" lon="6.07886">
        <ele>306.8</ele>
        <time>2011-11-06T09:28:51Z</time>
      </trkpt>
      <trkpt lat="49.18787" lon="6.07881">
        <ele>307</ele>
        <time>2011-11-06T09:28:52Z</time>
      </trkpt>
      <trkpt lat="49.18779" lon="6.07878">
        <ele>307</ele>
        <time>2011-11-06T09:28:53Z</time>
      </trkpt>
      <trkpt lat="49.18773" lon="6.07869">
        <ele>307.6</ele>
        <time>2011-11-06T09:28:54Z</time>
      </trkpt>
      <trkpt lat="49.18765" lon="6.07865">
        <ele>307.7</ele>
        <time>2011-11-06T09:28:55Z</time>
      </trkpt>
      <trkpt lat="49.18754" lon="6.07825">
        <ele>304.5</ele>
        <time>2011-11-06T09:28:57Z</time>
      </trkpt>
      <trkpt lat="49.18745" lon="6.07818">
        <ele>304.3</ele>
        <time>2011-11-06T09:28:58Z</time>
      </trkpt>
      <trkpt lat="49.1874" lon="6.07809">
        <ele>304.3</ele>
        <time>2011-11-06T09:28:59Z</time>
      </trkpt>
      <trkpt lat="49.18733" lon="6.078">
        <ele>304.3</ele>
        <time>2011-11-06T09:29:00Z</time>
      </trkpt>
      <trkpt lat="49.18726" lon="6.07788">
        <ele>304.3</ele>
        <time>2011-11-06T09:29:01Z</time>
      </trkpt>
      <trkpt lat="49.18722" lon="6.07777">
        <ele>304.1</ele>
        <time>2011-11-06T09:29:02Z</time>
      </trkpt>
      <trkpt lat="49.18716" lon="6.07768">
        <ele>304.5</ele>
        <time>2011-11-06T09:29:03Z</time>
      </trkpt>
      <trkpt lat="49.1871" lon="6.07757">
        <ele>304.6</ele>
        <time>2011-11-06T09:29:04Z</time>
      </trkpt>
      <trkpt lat="49.18706" lon="6.07744">
        <ele>304.6</ele>
        <time>2011-11-06T09:29:05Z</time>
      </trkpt>
      <trkpt lat="49.18703" lon="6.07726">
        <ele>304.4</ele>
        <time>2011-11-06T09:29:06Z</time>
      </trkpt>
      <trkpt lat="49.18701" lon="6.0771">
        <ele>304.5</ele>
        <time>2011-11-06T09:29:07Z</time>
      </trkpt>
      <trkpt lat="49.187" lon="6.07695">
        <ele>304.2</ele>
        <time>2011-11-06T09:29:08Z</time>
      </trkpt>
      <trkpt lat="49.18698" lon="6.07678">
        <ele>304.1</ele>
        <time>2011-11-06T09:29:09Z</time>
      </trkpt>
      <trkpt lat="49.18693" lon="6.07666">
        <ele>304.3</ele>
        <time>2011-11-06T09:29:10Z</time>
      </trkpt>
      <trkpt lat="49.18693" lon="6.0765">
        <ele>304.4</ele>
        <time>2011-11-06T09:29:11Z</time>
      </trkpt>
      <trkpt lat="49.18692" lon="6.07637">
        <ele>304.8</ele>
        <time>2011-11-06T09:29:12Z</time>
      </trkpt>
      <trkpt lat="49.18691" lon="6.07621">
        <ele>305</ele>
        <time>2011-11-06T09:29:13Z</time>
      </trkpt>
      <trkpt lat="49.18686" lon="6.07609">
        <ele>305.2</ele>
        <time>2011-11-06T09:29:14Z</time>
      </trkpt>
      <trkpt lat="49.18682" lon="6.07592">
        <ele>304.9</ele>
        <time>2011-11-06T09:29:15Z</time>
      </trkpt>
      <trkpt lat="49.1868" lon="6.07579">
        <ele>305.5</ele>
        <time>2011-11-06T09:29:16Z</time>
      </trkpt>
      <trkpt lat="49.18672" lon="6.07563">
        <ele>305.5</ele>
        <time>2011-11-06T09:29:17Z</time>
      </trkpt>
      <trkpt lat="49.18668" lon="6.07549">
        <ele>305.5</ele>
        <time>2011-11-06T09:29:18Z</time>
      </trkpt>
      <trkpt lat="49.18661" lon="6.0753">
        <ele>305.9</ele>
        <time>2011-11-06T09:29:19Z</time>
      </trkpt>
      <trkpt lat="49.1866" lon="6.07517">
        <ele>306</ele>
        <time>2011-11-06T09:29:20Z</time>
      </trkpt>
      <trkpt lat="49.18655" lon="6.07502">
        <ele>305.9</ele>
        <time>2011-11-06T09:29:21Z</time>
      </trkpt>
      <trkpt lat="49.18652" lon="6.07489">
        <ele>305.9</ele>
        <time>2011-11-06T09:29:22Z</time>
      </trkpt>
      <trkpt lat="49.18647" lon="6.07474">
        <ele>305.9</ele>
        <time>2011-11-06T09:29:23Z</time>
      </trkpt>
      <trkpt lat="49.18637" lon="6.07456">
        <ele>305.9</ele>
        <time>2011-11-06T09:29:24Z</time>
      </trkpt>
      <trkpt lat="49.18631" lon="6.07444">
        <ele>306</ele>
        <time>2011-11-06T09:29:25Z</time>
      </trkpt>
      <trkpt lat="49.1863" lon="6.07434">
        <ele>306.3</ele>
        <time>2011-11-06T09:29:26Z</time>
      </trkpt>
      <trkpt lat="49.18625" lon="6.07418">
        <ele>306.3</ele>
        <time>2011-11-06T09:29:27Z</time>
      </trkpt>
      <trkpt lat="49.1862" lon="6.07402">
        <ele>306.4</ele>
        <time>2011-11-06T09:29:28Z</time>
      </trkpt>
      <trkpt lat="49.18616" lon="6.07388">
        <ele>306.4</ele>
        <time>2011-11-06T09:29:29Z</time>
      </trkpt>
      <trkpt lat="49.18607" lon="6.07371">
        <ele>306.4</ele>
        <time>2011-11-06T09:29:30Z</time>
      </trkpt>
      <trkpt lat="49.18604" lon="6.07357">
        <ele>305.8</ele>
        <time>2011-11-06T09:29:31Z</time>
      </trkpt>
      <trkpt lat="49.18598" lon="6.0734">
        <ele>306</ele>
        <time>2011-11-06T09:29:32Z</time>
      </trkpt>
      <trkpt lat="49.18593" lon="6.07324">
        <ele>306</ele>
        <time>2011-11-06T09:29:33Z</time>
      </trkpt>
      <trkpt lat="49.18593" lon="6.07304">
        <ele>304</ele>
        <time>2011-11-06T09:29:34Z</time>
      </trkpt>
      <trkpt lat="49.18592" lon="6.07287">
        <ele>304.4</ele>
        <time>2011-11-06T09:29:35Z</time>
      </trkpt>
      <trkpt lat="49.1859" lon="6.07274">
        <ele>304.3</ele>
        <time>2011-11-06T09:29:36Z</time>
      </trkpt>
      <trkpt lat="49.18586" lon="6.0726">
        <ele>304.3</ele>
        <time>2011-11-06T09:29:37Z</time>
      </trkpt>
      <trkpt lat="49.18578" lon="6.07248">
        <ele>304.2</ele>
        <time>2011-11-06T09:29:38Z</time>
      </trkpt>
      <trkpt lat="49.18572" lon="6.07234">
        <ele>304.2</ele>
        <time>2011-11-06T09:29:39Z</time>
      </trkpt>
      <trkpt lat="49.18565" lon="6.07225">
        <ele>304.2</ele>
        <time>2011-11-06T09:29:40Z</time>
      </trkpt>
      <trkpt lat="49.18558" lon="6.07216">
        <ele>304.2</ele>
        <time>2011-11-06T09:29:41Z</time>
      </trkpt>
      <trkpt lat="49.18563" lon="6.07208">
        <ele>304.5</ele>
        <time>2011-11-06T09:29:42Z</time>
      </trkpt>
      <trkpt lat="49.18564" lon="6.07195">
        <ele>304.8</ele>
        <time>2011-11-06T09:29:43Z</time>
      </trkpt>
      <trkpt lat="49.1856" lon="6.07182">
        <ele>305</ele>
        <time>2011-11-06T09:29:44Z</time>
      </trkpt>
      <trkpt lat="49.18562" lon="6.07169">
        <ele>304.5</ele>
        <time>2011-11-06T09:29:45Z</time>
      </trkpt>
      <trkpt lat="49.18577" lon="6.0716">
        <ele>303.6</ele>
        <time>2011-11-06T09:29:46Z</time>
      </trkpt>
      <trkpt lat="49.18577" lon="6.07145">
        <ele>303.5</ele>
        <time>2011-11-06T09:29:47Z</time>
      </trkpt>
      <trkpt lat="49.18572" lon="6.07133">
        <ele>303.5</ele>
        <time>2011-11-06T09:29:48Z</time>
      </trkpt>
      <trkpt lat="49.18568" lon="6.07123">
        <ele>303.5</ele>
        <time>2011-11-06T09:29:49Z</time>
      </trkpt>
      <trkpt lat="49.18563" lon="6.07109">
        <ele>303.7</ele>
        <time>2011-11-06T09:29:50Z</time>
      </trkpt>
      <trkpt lat="49.18559" lon="6.07098">
        <ele>303.7</ele>
        <time>2011-11-06T09:29:51Z</time>
      </trkpt>
      <trkpt lat="49.18556" lon="6.07091">
        <ele>303.5</ele>
        <time>2011-11-06T09:29:52Z</time>
      </trkpt>
      <trkpt lat="49.18551" lon="6.07087">
        <ele>303.8</ele>
        <time>2011-11-06T09:29:53Z</time>
      </trkpt>
      <trkpt lat="49.18548" lon="6.07078">
        <ele>303.8</ele>
        <time>2011-11-06T09:29:54Z</time>
      </trkpt>
      <trkpt lat="49.18545" lon="6.07072">
        <ele>304.4</ele>
        <time>2011-11-06T09:29:55Z</time>
      </trkpt>
      <trkpt lat="49.18532" lon="6.07033">
        <ele>307.5</ele>
        <time>2011-11-06T09:29:59Z</time>
      </trkpt>
      <trkpt lat="49.18532" lon="6.07014">
        <ele>306.3</ele>
        <time>2011-11-06T09:30:00Z</time>
      </trkpt>
      <trkpt lat="49.18529" lon="6.07004">
        <ele>306.5</ele>
        <time>2011-11-06T09:30:01Z</time>
      </trkpt>
      <trkpt lat="49.1852" lon="6.06991">
        <ele>306.1</ele>
        <time>2011-11-06T09:30:02Z</time>
      </trkpt>
      <trkpt lat="49.18515" lon="6.06983">
        <ele>306.3</ele>
        <time>2011-11-06T09:30:03Z</time>
      </trkpt>
      <trkpt lat="49.18511" lon="6.06975">
        <ele>306.6</ele>
        <time>2011-11-06T09:30:04Z</time>
      </trkpt>
      <trkpt lat="49.18504" lon="6.06968">
        <ele>306.2</ele>
        <time>2011-11-06T09:30:05Z</time>
      </trkpt>
      <trkpt lat="49.18499" lon="6.06962">
        <ele>306.4</ele>
        <time>2011-11-06T09:30:06Z</time>
      </trkpt>
      <trkpt lat="49.18494" lon="6.06957">
        <ele>306.3</ele>
        <time>2011-11-06T09:30:07Z</time>
      </trkpt>
      <trkpt lat="49.18491" lon="6.0695">
        <ele>306.8</ele>
        <time>2011-11-06T09:30:08Z</time>
      </trkpt>
      <trkpt lat="49.18487" lon="6.0694">
        <ele>307.5</ele>
        <time>2011-11-06T09:30:09Z</time>
      </trkpt>
      <trkpt lat="49.18482" lon="6.06931">
        <ele>307.7</ele>
        <time>2011-11-06T09:30:10Z</time>
      </trkpt>
      <trkpt lat="49.18478" lon="6.0692">
        <ele>306.5</ele>
        <time>2011-11-06T09:30:11Z</time>
      </trkpt>
      <trkpt lat="49.18474" lon="6.06908">
        <ele>306.2</ele>
        <time>2011-11-06T09:30:12Z</time>
      </trkpt>
      <trkpt lat="49.18468" lon="6.069">
        <ele>306.6</ele>
        <time>2011-11-06T09:30:13Z</time>
      </trkpt>
      <trkpt lat="49.18465" lon="6.06891">
        <ele>306.8</ele>
        <time>2011-11-06T09:30:14Z</time>
      </trkpt>
      <trkpt lat="49.1846" lon="6.06883">
        <ele>306.4</ele>
        <time>2011-11-06T09:30:15Z</time>
      </trkpt>
      <trkpt lat="49.18456" lon="6.06874">
        <ele>305.9</ele>
        <time>2011-11-06T09:30:16Z</time>
      </trkpt>
      <trkpt lat="49.1845" lon="6.06865">
        <ele>306.4</ele>
        <time>2011-11-06T09:30:17Z</time>
      </trkpt>
      <trkpt lat="49.18446" lon="6.06859">
        <ele>306.6</ele>
        <time>2011-11-06T09:30:18Z</time>
      </trkpt>
      <trkpt lat="49.18443" lon="6.0685">
        <ele>306.7</ele>
        <time>2011-11-06T09:30:19Z</time>
      </trkpt>
      <trkpt lat="49.18438" lon="6.06842">
        <ele>306.8</ele>
        <time>2011-11-06T09:30:20Z</time>
      </trkpt>
      <trkpt lat="49.18434" lon="6.06833">
        <ele>306.9</ele>
        <time>2011-11-06T09:30:21Z</time>
      </trkpt>
      <trkpt lat="49.1843" lon="6.06826">
        <ele>307.1</ele>
        <time>2011-11-06T09:30:22Z</time>
      </trkpt>
      <trkpt lat="49.18425" lon="6.06818">
        <ele>307.8</ele>
        <time>2011-11-06T09:30:23Z</time>
      </trkpt>
      <trkpt lat="49.18422" lon="6.0681">
        <ele>308</ele>
        <time>2011-11-06T09:30:23Z</time>
      </trkpt>
      <trkpt lat="49.18419" lon="6.068">
        <ele>308.6</ele>
        <time>2011-11-06T09:30:24Z</time>
      </trkpt>
      <trkpt lat="49.18412" lon="6.06796">
        <ele>308.9</ele>
        <time>2011-11-06T09:30:26Z</time>
      </trkpt>
      <trkpt lat="49.18406" lon="6.0679">
        <ele>308.8</ele>
        <time>2011-11-06T09:30:27Z</time>
      </trkpt>
      <trkpt lat="49.18403" lon="6.0678">
        <ele>309.2</ele>
        <time>2011-11-06T09:30:28Z</time>
      </trkpt>
      <trkpt lat="49.184" lon="6.06768">
        <ele>309.2</ele>
        <time>2011-11-06T09:30:29Z</time>
      </trkpt>
      <trkpt lat="49.18397" lon="6.06758">
        <ele>309.4</ele>
        <time>2011-11-06T09:30:30Z</time>
      </trkpt>
      <trkpt lat="49.18392" lon="6.06748">
        <ele>309</ele>
        <time>2011-11-06T09:30:31Z</time>
      </trkpt>
      <trkpt lat="49.18389" lon="6.06734">
        <ele>308.8</ele>
        <time>2011-11-06T09:30:31Z</time>
      </trkpt>
      <trkpt lat="49.18386" lon="6.06724">
        <ele>309</ele>
        <time>2011-11-06T09:30:33Z</time>
      </trkpt>
      <trkpt lat="49.18382" lon="6.06715">
        <ele>309.2</ele>
        <time>2011-11-06T09:30:33Z</time>
      </trkpt>
      <trkpt lat="49.18377" lon="6.0671">
        <ele>309.9</ele>
        <time>2011-11-06T09:30:34Z</time>
      </trkpt>
      <trkpt lat="49.18374" lon="6.06699">
        <ele>309.5</ele>
        <time>2011-11-06T09:30:35Z</time>
      </trkpt>
      <trkpt lat="49.18374" lon="6.06685">
        <ele>309.3</ele>
        <time>2011-11-06T09:30:36Z</time>
      </trkpt>
      <trkpt lat="49.1837" lon="6.06677">
        <ele>309</ele>
        <time>2011-11-06T09:30:37Z</time>
      </trkpt>
      <trkpt lat="49.18369" lon="6.06662">
        <ele>308.9</ele>
        <time>2011-11-06T09:30:38Z</time>
      </trkpt>
      <trkpt lat="49.18365" lon="6.06653">
        <ele>308.8</ele>
        <time>2011-11-06T09:30:39Z</time>
      </trkpt>
      <trkpt lat="49.18362" lon="6.06644">
        <ele>308.3</ele>
        <time>2011-11-06T09:30:40Z</time>
      </trkpt>
      <trkpt lat="49.18359" lon="6.06634">
        <ele>308.1</ele>
        <time>2011-11-06T09:30:41Z</time>
      </trkpt>
      <trkpt lat="49.18357" lon="6.06623">
        <ele>308</ele>
        <time>2011-11-06T09:30:42Z</time>
      </trkpt>
      <trkpt lat="49.18356" lon="6.06609">
        <ele>307.4</ele>
        <time>2011-11-06T09:30:43Z</time>
      </trkpt>
      <trkpt lat="49.18354" lon="6.06598">
        <ele>307.2</ele>
        <time>2011-11-06T09:30:44Z</time>
      </trkpt>
      <trkpt lat="49.18358" lon="6.0658">
        <ele>307.4</ele>
        <time>2011-11-06T09:30:45Z</time>
      </trkpt>
      <trkpt lat="49.18356" lon="6.06564">
        <ele>307.3</ele>
        <time>2011-11-06T09:30:46Z</time>
      </trkpt>
      <trkpt lat="49.1836" lon="6.06544">
        <ele>308.1</ele>
        <time>2011-11-06T09:30:47Z</time>
      </trkpt>
      <trkpt lat="49.18364" lon="6.06523">
        <ele>308.9</ele>
        <time>2011-11-06T09:30:48Z</time>
      </trkpt>
      <trkpt lat="49.18366" lon="6.06512">
        <ele>309.3</ele>
        <time>2011-11-06T09:30:49Z</time>
      </trkpt>
      <trkpt lat="49.18367" lon="6.065">
        <ele>310.3</ele>
        <time>2011-11-06T09:30:50Z</time>
      </trkpt>
      <trkpt lat="49.18367" lon="6.06489">
        <ele>310.4</ele>
        <time>2011-11-06T09:30:51Z</time>
      </trkpt>
      <trkpt lat="49.18371" lon="6.06474">
        <ele>309.6</ele>
        <time>2011-11-06T09:30:52Z</time>
      </trkpt>
      <trkpt lat="49.18372" lon="6.06462">
        <ele>310.4</ele>
        <time>2011-11-06T09:30:53Z</time>
      </trkpt>
      <trkpt lat="49.18372" lon="6.06452">
        <ele>310.5</ele>
        <time>2011-11-06T09:30:54Z</time>
      </trkpt>
      <trkpt lat="49.18374" lon="6.06433">
        <ele>311.4</ele>
        <time>2011-11-06T09:30:56Z</time>
      </trkpt>
      <trkpt lat="49.18376" lon="6.06412">
        <ele>311.5</ele>
        <time>2011-11-06T09:30:57Z</time>
      </trkpt>
      <trkpt lat="49.18376" lon="6.06401">
        <ele>311.6</ele>
        <time>2011-11-06T09:30:58Z</time>
      </trkpt>
      <trkpt lat="49.18378" lon="6.06393">
        <ele>311.1</ele>
        <time>2011-11-06T09:30:59Z</time>
      </trkpt>
      <trkpt lat="49.18377" lon="6.0638">
        <ele>311.7</ele>
        <time>2011-11-06T09:31:00Z</time>
      </trkpt>
      <trkpt lat="49.18378" lon="6.06369">
        <ele>311.7</ele>
        <time>2011-11-06T09:31:01Z</time>
      </trkpt>
      <trkpt lat="49.18381" lon="6.0636">
        <ele>311.6</ele>
        <time>2011-11-06T09:31:02Z</time>
      </trkpt>
      <trkpt lat="49.18379" lon="6.06348">
        <ele>311.6</ele>
        <time>2011-11-06T09:31:03Z</time>
      </trkpt>
      <trkpt lat="49.18379" lon="6.06338">
        <ele>311.6</ele>
        <time>2011-11-06T09:31:04Z</time>
      </trkpt>
      <trkpt lat="49.18379" lon="6.0633">
        <ele>312.2</ele>
        <time>2011-11-06T09:31:05Z</time>
      </trkpt>
      <trkpt lat="49.18377" lon="6.06314">
        <ele>313.3</ele>
        <time>2011-11-06T09:31:06Z</time>
      </trkpt>
      <trkpt lat="49.18384" lon="6.06305">
        <ele>311.2</ele>
        <time>2011-11-06T09:31:07Z</time>
      </trkpt>
      <trkpt lat="49.18385" lon="6.06296">
        <ele>311.1</ele>
        <time>2011-11-06T09:31:08Z</time>
      </trkpt>
      <trkpt lat="49.18393" lon="6.06293">
        <ele>310.6</ele>
        <time>2011-11-06T09:31:09Z</time>
      </trkpt>
      <trkpt lat="49.184" lon="6.06286">
        <ele>311.2</ele>
        <time>2011-11-06T09:31:10Z</time>
      </trkpt>
      <trkpt lat="49.18405" lon="6.06283">
        <ele>311.1</ele>
        <time>2011-11-06T09:31:11Z</time>
      </trkpt>
      <trkpt lat="49.18408" lon="6.06276">
        <ele>311.1</ele>
        <time>2011-11-06T09:31:12Z</time>
      </trkpt>
      <trkpt lat="49.18413" lon="6.06267">
        <ele>310.2</ele>
        <time>2011-11-06T09:31:13Z</time>
      </trkpt>
      <trkpt lat="49.18419" lon="6.06261">
        <ele>310.3</ele>
        <time>2011-11-06T09:31:14Z</time>
      </trkpt>
      <trkpt lat="49.18424" lon="6.06257">
        <ele>310.8</ele>
        <time>2011-11-06T09:31:15Z</time>
      </trkpt>
      <trkpt lat="49.18427" lon="6.06251">
        <ele>311</ele>
        <time>2011-11-06T09:31:16Z</time>
      </trkpt>
      <trkpt lat="49.18433" lon="6.06246">
        <ele>311.5</ele>
        <time>2011-11-06T09:31:17Z</time>
      </trkpt>
      <trkpt lat="49.1844" lon="6.06242">
        <ele>311.5</ele>
        <time>2011-11-06T09:31:18Z</time>
      </trkpt>
      <trkpt lat="49.18444" lon="6.06237">
        <ele>311.6</ele>
        <time>2011-11-06T09:31:19Z</time>
      </trkpt>
      <trkpt lat="49.18449" lon="6.06227">
        <ele>312.1</ele>
        <time>2011-11-06T09:31:21Z</time>
      </trkpt>
      <trkpt lat="49.18455" lon="6.0622">
        <ele>312.6</ele>
        <time>2011-11-06T09:31:23Z</time>
      </trkpt>
      <trkpt lat="49.18459" lon="6.06214">
        <ele>312.6</ele>
        <time>2011-11-06T09:31:24Z</time>
      </trkpt>
      <trkpt lat="49.18462" lon="6.06208">
        <ele>312.8</ele>
        <time>2011-11-06T09:31:25Z</time>
      </trkpt>
      <trkpt lat="49.18468" lon="6.06206">
        <ele>312</ele>
        <time>2011-11-06T09:31:26Z</time>
      </trkpt>
      <trkpt lat="49.18468" lon="6.0619">
        <ele>312.3</ele>
        <time>2011-11-06T09:31:28Z</time>
      </trkpt>
      <trkpt lat="49.18466" lon="6.06174">
        <ele>313.3</ele>
        <time>2011-11-06T09:31:30Z</time>
      </trkpt>
      <trkpt lat="49.18463" lon="6.06161">
        <ele>313</ele>
        <time>2011-11-06T09:31:32Z</time>
      </trkpt>
      <trkpt lat="49.18464" lon="6.0615">
        <ele>312.4</ele>
        <time>2011-11-06T09:31:33Z</time>
      </trkpt>
      <trkpt lat="49.18464" lon="6.06138">
        <ele>313.4</ele>
        <time>2011-11-06T09:31:35Z</time>
      </trkpt>
      <trkpt lat="49.18464" lon="6.06124">
        <ele>313.7</ele>
        <time>2011-11-06T09:31:37Z</time>
      </trkpt>
      <trkpt lat="49.1847" lon="6.0612">
        <ele>314.2</ele>
        <time>2011-11-06T09:31:38Z</time>
      </trkpt>
      <trkpt lat="49.18479" lon="6.06119">
        <ele>315.1</ele>
        <time>2011-11-06T09:31:39Z</time>
      </trkpt>
      <trkpt lat="49.18481" lon="6.06108">
        <ele>315</ele>
        <time>2011-11-06T09:31:41Z</time>
      </trkpt>
      <trkpt lat="49.18483" lon="6.06101">
        <ele>315.1</ele>
        <time>2011-11-06T09:31:43Z</time>
      </trkpt>
      <trkpt lat="49.18482" lon="6.06088">
        <ele>314.7</ele>
        <time>2011-11-06T09:31:45Z</time>
      </trkpt>
      <trkpt lat="49.18478" lon="6.06084">
        <ele>314.9</ele>
        <time>2011-11-06T09:31:46Z</time>
      </trkpt>
      <trkpt lat="49.18472" lon="6.06071">
        <ele>315.5</ele>
        <time>2011-11-06T09:31:48Z</time>
      </trkpt>
      <trkpt lat="49.18469" lon="6.06062">
        <ele>315.7</ele>
        <time>2011-11-06T09:31:49Z</time>
      </trkpt>
      <trkpt lat="49.18465" lon="6.06054">
        <ele>316</ele>
        <time>2011-11-06T09:31:50Z</time>
      </trkpt>
      <trkpt lat="49.18463" lon="6.06046">
        <ele>316.1</ele>
        <time>2011-11-06T09:31:51Z</time>
      </trkpt>
      <trkpt lat="49.18459" lon="6.06041">
        <ele>316.1</ele>
        <time>2011-11-06T09:31:52Z</time>
      </trkpt>
      <trkpt lat="49.18455" lon="6.06036">
        <ele>316.4</ele>
        <time>2011-11-06T09:31:53Z</time>
      </trkpt>
      <trkpt lat="49.18451" lon="6.06027">
        <ele>317.1</ele>
        <time>2011-11-06T09:31:54Z</time>
      </trkpt>
      <trkpt lat="49.1844" lon="6.06002">
        <ele>318.8</ele>
        <time>2011-11-06T09:31:57Z</time>
      </trkpt>
      <trkpt lat="49.18436" lon="6.05998">
        <ele>320.6</ele>
        <time>2011-11-06T09:31:58Z</time>
      </trkpt>
      <trkpt lat="49.1843" lon="6.05991">
        <ele>322.2</ele>
        <time>2011-11-06T09:31:59Z</time>
      </trkpt>
      <trkpt lat="49.18422" lon="6.05985">
        <ele>325</ele>
        <time>2011-11-06T09:32:01Z</time>
      </trkpt>
      <trkpt lat="49.1842" lon="6.05979">
        <ele>325.7</ele>
        <time>2011-11-06T09:32:02Z</time>
      </trkpt>
      <trkpt lat="49.18417" lon="6.0597">
        <ele>327.9</ele>
        <time>2011-11-06T09:32:03Z</time>
      </trkpt>
      <trkpt lat="49.18413" lon="6.05964">
        <ele>329.4</ele>
        <time>2011-11-06T09:32:04Z</time>
      </trkpt>
      <trkpt lat="49.18412" lon="6.05955">
        <ele>331.3</ele>
        <time>2011-11-06T09:32:05Z</time>
      </trkpt>
      <trkpt lat="49.18409" lon="6.05946">
        <ele>333.3</ele>
        <time>2011-11-06T09:32:06Z</time>
      </trkpt>
      <trkpt lat="49.18406" lon="6.05938">
        <ele>334.6</ele>
        <time>2011-11-06T09:32:07Z</time>
      </trkpt>
      <trkpt lat="49.18402" lon="6.05929">
        <ele>335.7</ele>
        <time>2011-11-06T09:32:08Z</time>
      </trkpt>
      <trkpt lat="49.18398" lon="6.05921">
        <ele>336.8</ele>
        <time>2011-11-06T09:32:09Z</time>
      </trkpt>
      <trkpt lat="49.18394" lon="6.05914">
        <ele>338.1</ele>
        <time>2011-11-06T09:32:10Z</time>
      </trkpt>
      <trkpt lat="49.18392" lon="6.05905">
        <ele>338.6</ele>
        <time>2011-11-06T09:32:11Z</time>
      </trkpt>
      <trkpt lat="49.18387" lon="6.05896">
        <ele>338.4</ele>
        <time>2011-11-06T09:32:12Z</time>
      </trkpt>
      <trkpt lat="49.18383" lon="6.05889">
        <ele>339.4</ele>
        <time>2011-11-06T09:32:13Z</time>
      </trkpt>
      <trkpt lat="49.18378" lon="6.05881">
        <ele>339.8</ele>
        <time>2011-11-06T09:32:14Z</time>
      </trkpt>
      <trkpt lat="49.18375" lon="6.05873">
        <ele>340.8</ele>
        <time>2011-11-06T09:32:15Z</time>
      </trkpt>
      <trkpt lat="49.18372" lon="6.05862">
        <ele>341.7</ele>
        <time>2011-11-06T09:32:16Z</time>
      </trkpt>
      <trkpt lat="49.1837" lon="6.05848">
        <ele>341.4</ele>
        <time>2011-11-06T09:32:17Z</time>
      </trkpt>
      <trkpt lat="49.18366" lon="6.05835">
        <ele>340.8</ele>
        <time>2011-11-06T09:32:18Z</time>
      </trkpt>
      <trkpt lat="49.18364" lon="6.05816">
        <ele>339.4</ele>
        <time>2011-11-06T09:32:19Z</time>
      </trkpt>
      <trkpt lat="49.18362" lon="6.05803">
        <ele>338.8</ele>
        <time>2011-11-06T09:32:20Z</time>
      </trkpt>
      <trkpt lat="49.18358" lon="6.05795">
        <ele>338.3</ele>
        <time>2011-11-06T09:32:21Z</time>
      </trkpt>
      <trkpt lat="49.18356" lon="6.05785">
        <ele>338.9</ele>
        <time>2011-11-06T09:32:22Z</time>
      </trkpt>
      <trkpt lat="49.18354" lon="6.0577">
        <ele>338.1</ele>
        <time>2011-11-06T09:32:23Z</time>
      </trkpt>
      <trkpt lat="49.18351" lon="6.05759">
        <ele>339.4</ele>
        <time>2011-11-06T09:32:25Z</time>
      </trkpt>
      <trkpt lat="49.18347" lon="6.05749">
        <ele>339.8</ele>
        <time>2011-11-06T09:32:27Z</time>
      </trkpt>
      <trkpt lat="49.18344" lon="6.05742">
        <ele>339.2</ele>
        <time>2011-11-06T09:32:28Z</time>
      </trkpt>
      <trkpt lat="49.18339" lon="6.05732">
        <ele>339.7</ele>
        <time>2011-11-06T09:32:30Z</time>
      </trkpt>
      <trkpt lat="49.1834" lon="6.05718">
        <ele>341.5</ele>
        <time>2011-11-06T09:32:32Z</time>
      </trkpt>
      <trkpt lat="49.18341" lon="6.0571">
        <ele>341.6</ele>
        <time>2011-11-06T09:32:33Z</time>
      </trkpt>
      <trkpt lat="49.18338" lon="6.05694">
        <ele>342.5</ele>
        <time>2011-11-06T09:32:35Z</time>
      </trkpt>
      <trkpt lat="49.18338" lon="6.05686">
        <ele>343</ele>
        <time>2011-11-06T09:32:36Z</time>
      </trkpt>
      <trkpt lat="49.18337" lon="6.05679">
        <ele>343.4</ele>
        <time>2011-11-06T09:32:37Z</time>
      </trkpt>
      <trkpt lat="49.18336" lon="6.0567">
        <ele>344.4</ele>
        <time>2011-11-06T09:32:38Z</time>
      </trkpt>
      <trkpt lat="49.18334" lon="6.05662">
        <ele>345</ele>
        <time>2011-11-06T09:32:39Z</time>
      </trkpt>
      <trkpt lat="49.18334" lon="6.05648">
        <ele>344</ele>
        <time>2011-11-06T09:32:40Z</time>
      </trkpt>
      <trkpt lat="49.18334" lon="6.05638">
        <ele>344.7</ele>
        <time>2011-11-06T09:32:41Z</time>
      </trkpt>
      <trkpt lat="49.18338" lon="6.05623">
        <ele>346.5</ele>
        <time>2011-11-06T09:32:42Z</time>
      </trkpt>
      <trkpt lat="49.18339" lon="6.05605">
        <ele>347.7</ele>
        <time>2011-11-06T09:32:43Z</time>
      </trkpt>
      <trkpt lat="49.1834" lon="6.05596">
        <ele>347.8</ele>
        <time>2011-11-06T09:32:44Z</time>
      </trkpt>
      <trkpt lat="49.18343" lon="6.05582">
        <ele>347.9</ele>
        <time>2011-11-06T09:32:45Z</time>
      </trkpt>
      <trkpt lat="49.18344" lon="6.05573">
        <ele>347.9</ele>
        <time>2011-11-06T09:32:46Z</time>
      </trkpt>
      <trkpt lat="49.1835" lon="6.05563">
        <ele>349.2</ele>
        <time>2011-11-06T09:32:47Z</time>
      </trkpt>
      <trkpt lat="49.18352" lon="6.05552">
        <ele>347.8</ele>
        <time>2011-11-06T09:32:48Z</time>
      </trkpt>
      <trkpt lat="49.18354" lon="6.05543">
        <ele>347.8</ele>
        <time>2011-11-06T09:32:49Z</time>
      </trkpt>
      <trkpt lat="49.18355" lon="6.05531">
        <ele>347.7</ele>
        <time>2011-11-06T09:32:50Z</time>
      </trkpt>
      <trkpt lat="49.18353" lon="6.05522">
        <ele>348.1</ele>
        <time>2011-11-06T09:32:51Z</time>
      </trkpt>
      <trkpt lat="49.18353" lon="6.05511">
        <ele>347.5</ele>
        <time>2011-11-06T09:32:52Z</time>
      </trkpt>
      <trkpt lat="49.18353" lon="6.05502">
        <ele>347.5</ele>
        <time>2011-11-06T09:32:53Z</time>
      </trkpt>
      <trkpt lat="49.18351" lon="6.05495">
        <ele>348.3</ele>
        <time>2011-11-06T09:32:54Z</time>
      </trkpt>
      <trkpt lat="49.18343" lon="6.05486">
        <ele>350.6</ele>
        <time>2011-11-06T09:32:56Z</time>
      </trkpt>
      <trkpt lat="49.18341" lon="6.05478">
        <ele>350.3</ele>
        <time>2011-11-06T09:32:57Z</time>
      </trkpt>
      <trkpt lat="49.18341" lon="6.05466">
        <ele>350.5</ele>
        <time>2011-11-06T09:32:59Z</time>
      </trkpt>
      <trkpt lat="49.18344" lon="6.0546">
        <ele>351.6</ele>
        <time>2011-11-06T09:33:00Z</time>
      </trkpt>
      <trkpt lat="49.18345" lon="6.05454">
        <ele>351</ele>
        <time>2011-11-06T09:33:01Z</time>
      </trkpt>
      <trkpt lat="49.18346" lon="6.05445">
        <ele>352.4</ele>
        <time>2011-11-06T09:33:02Z</time>
      </trkpt>
      <trkpt lat="49.18349" lon="6.05433">
        <ele>351.6</ele>
        <time>2011-11-06T09:33:04Z</time>
      </trkpt>
      <trkpt lat="49.18352" lon="6.05422">
        <ele>350.8</ele>
        <time>2011-11-06T09:33:06Z</time>
      </trkpt>
      <trkpt lat="49.18354" lon="6.05411">
        <ele>350.6</ele>
        <time>2011-11-06T09:33:08Z</time>
      </trkpt>
      <trkpt lat="49.18356" lon="6.05399">
        <ele>350.5</ele>
        <time>2011-11-06T09:33:10Z</time>
      </trkpt>
      <trkpt lat="49.1836" lon="6.05389">
        <ele>351.7</ele>
        <time>2011-11-06T09:33:12Z</time>
      </trkpt>
      <trkpt lat="49.1836" lon="6.05382">
        <ele>351.9</ele>
        <time>2011-11-06T09:33:13Z</time>
      </trkpt>
      <trkpt lat="49.18362" lon="6.05371">
        <ele>353</ele>
        <time>2011-11-06T09:33:15Z</time>
      </trkpt>
      <trkpt lat="49.18363" lon="6.0536">
        <ele>352.9</ele>
        <time>2011-11-06T09:33:17Z</time>
      </trkpt>
      <trkpt lat="49.18366" lon="6.05346">
        <ele>353.4</ele>
        <time>2011-11-06T09:33:19Z</time>
      </trkpt>
      <trkpt lat="49.18368" lon="6.05334">
        <ele>353.8</ele>
        <time>2011-11-06T09:33:21Z</time>
      </trkpt>
      <trkpt lat="49.18368" lon="6.05321">
        <ele>353.7</ele>
        <time>2011-11-06T09:33:23Z</time>
      </trkpt>
      <trkpt lat="49.1837" lon="6.0531">
        <ele>353.2</ele>
        <time>2011-11-06T09:33:25Z</time>
      </trkpt>
      <trkpt lat="49.18372" lon="6.053">
        <ele>354.2</ele>
        <time>2011-11-06T09:33:27Z</time>
      </trkpt>
      <trkpt lat="49.18374" lon="6.05288">
        <ele>355.3</ele>
        <time>2011-11-06T09:33:29Z</time>
      </trkpt>
      <trkpt lat="49.18374" lon="6.0528">
        <ele>356</ele>
        <time>2011-11-06T09:33:31Z</time>
      </trkpt>
      <trkpt lat="49.18376" lon="6.05271">
        <ele>355.5</ele>
        <time>2011-11-06T09:33:33Z</time>
      </trkpt>
      <trkpt lat="49.18376" lon="6.05262">
        <ele>356.5</ele>
        <time>2011-11-06T09:33:35Z</time>
      </trkpt>
      <trkpt lat="49.18375" lon="6.05255">
        <ele>356.4</ele>
        <time>2011-11-06T09:33:37Z</time>
      </trkpt>
      <trkpt lat="49.1837" lon="6.05268">
        <ele>356.7</ele>
        <time>2011-11-06T09:33:40Z</time>
      </trkpt>
      <trkpt lat="49.18368" lon="6.05279">
        <ele>357.9</ele>
        <time>2011-11-06T09:33:42Z</time>
      </trkpt>
      <trkpt lat="49.18366" lon="6.05291">
        <ele>356.9</ele>
        <time>2011-11-06T09:33:44Z</time>
      </trkpt>
      <trkpt lat="49.18363" lon="6.05302">
        <ele>356.3</ele>
        <time>2011-11-06T09:33:46Z</time>
      </trkpt>
      <trkpt lat="49.18362" lon="6.0531">
        <ele>356.3</ele>
        <time>2011-11-06T09:33:47Z</time>
      </trkpt>
      <trkpt lat="49.1836" lon="6.05317">
        <ele>355.4</ele>
        <time>2011-11-06T09:33:48Z</time>
      </trkpt>
      <trkpt lat="49.1836" lon="6.05324">
        <ele>354</ele>
        <time>2011-11-06T09:33:49Z</time>
      </trkpt>
      <trkpt lat="49.18358" lon="6.05332">
        <ele>354.3</ele>
        <time>2011-11-06T09:33:50Z</time>
      </trkpt>
      <trkpt lat="49.18356" lon="6.0534">
        <ele>354.6</ele>
        <time>2011-11-06T09:33:51Z</time>
      </trkpt>
      <trkpt lat="49.18354" lon="6.05349">
        <ele>355.4</ele>
        <time>2011-11-06T09:33:52Z</time>
      </trkpt>
      <trkpt lat="49.18353" lon="6.05357">
        <ele>354.5</ele>
        <time>2011-11-06T09:33:53Z</time>
      </trkpt>
      <trkpt lat="49.18352" lon="6.05367">
        <ele>353.5</ele>
        <time>2011-11-06T09:33:54Z</time>
      </trkpt>
      <trkpt lat="49.1835" lon="6.05382">
        <ele>353.2</ele>
        <time>2011-11-06T09:33:56Z</time>
      </trkpt>
      <trkpt lat="49.18348" lon="6.05396">
        <ele>353.1</ele>
        <time>2011-11-06T09:33:57Z</time>
      </trkpt>
      <trkpt lat="49.18346" lon="6.05405">
        <ele>353</ele>
        <time>2011-11-06T09:33:58Z</time>
      </trkpt>
      <trkpt lat="49.18344" lon="6.05414">
        <ele>352.9</ele>
        <time>2011-11-06T09:33:59Z</time>
      </trkpt>
      <trkpt lat="49.18342" lon="6.05424">
        <ele>352.9</ele>
        <time>2011-11-06T09:34:00Z</time>
      </trkpt>
      <trkpt lat="49.18339" lon="6.05432">
        <ele>352.8</ele>
        <time>2011-11-06T09:34:01Z</time>
      </trkpt>
      <trkpt lat="49.18344" lon="6.05428">
        <ele>353.3</ele>
        <time>2011-11-06T09:34:05Z</time>
      </trkpt>
      <trkpt lat="49.18348" lon="6.05424">
        <ele>353.2</ele>
        <time>2011-11-06T09:34:11Z</time>
      </trkpt>
      <trkpt lat="49.1835" lon="6.05414">
        <ele>354.8</ele>
        <time>2011-11-06T09:34:12Z</time>
      </trkpt>
      <trkpt lat="49.18353" lon="6.05402">
        <ele>353.9</ele>
        <time>2011-11-06T09:34:14Z</time>
      </trkpt>
      <trkpt lat="49.18355" lon="6.05392">
        <ele>353.8</ele>
        <time>2011-11-06T09:34:16Z</time>
      </trkpt>
      <trkpt lat="49.18361" lon="6.05382">
        <ele>353.7</ele>
        <time>2011-11-06T09:34:18Z</time>
      </trkpt>
      <trkpt lat="49.18364" lon="6.05374">
        <ele>353.7</ele>
        <time>2011-11-06T09:34:19Z</time>
      </trkpt>
      <trkpt lat="49.18362" lon="6.05366">
        <ele>352.8</ele>
        <time>2011-11-06T09:34:20Z</time>
      </trkpt>
      <trkpt lat="49.18362" lon="6.05356">
        <ele>354</ele>
        <time>2011-11-06T09:34:21Z</time>
      </trkpt>
      <trkpt lat="49.18364" lon="6.05347">
        <ele>353.6</ele>
        <time>2011-11-06T09:34:22Z</time>
      </trkpt>
      <trkpt lat="49.18365" lon="6.0534">
        <ele>353.4</ele>
        <time>2011-11-06T09:34:23Z</time>
      </trkpt>
      <trkpt lat="49.18366" lon="6.05327">
        <ele>353.8</ele>
        <time>2011-11-06T09:34:25Z</time>
      </trkpt>
      <trkpt lat="49.1837" lon="6.05308">
        <ele>353.4</ele>
        <time>2011-11-06T09:34:27Z</time>
      </trkpt>
      <trkpt lat="49.18371" lon="6.053">
        <ele>353.2</ele>
        <time>2011-11-06T09:34:28Z</time>
      </trkpt>
      <trkpt lat="49.18374" lon="6.05291">
        <ele>354.3</ele>
        <time>2011-11-06T09:34:29Z</time>
      </trkpt>
      <trkpt lat="49.18374" lon="6.05276">
        <ele>353.8</ele>
        <time>2011-11-06T09:34:31Z</time>
      </trkpt>
      <trkpt lat="49.18376" lon="6.05269">
        <ele>353.4</ele>
        <time>2011-11-06T09:34:32Z</time>
      </trkpt>
      <trkpt lat="49.18377" lon="6.0526">
        <ele>353.6</ele>
        <time>2011-11-06T09:34:33Z</time>
      </trkpt>
      <trkpt lat="49.18378" lon="6.05251">
        <ele>353.1</ele>
        <time>2011-11-06T09:34:34Z</time>
      </trkpt>
      <trkpt lat="49.18379" lon="6.05236">
        <ele>354</ele>
        <time>2011-11-06T09:34:35Z</time>
      </trkpt>
      <trkpt lat="49.18381" lon="6.05226">
        <ele>354.3</ele>
        <time>2011-11-06T09:34:36Z</time>
      </trkpt>
      <trkpt lat="49.18382" lon="6.05212">
        <ele>354.1</ele>
        <time>2011-11-06T09:34:38Z</time>
      </trkpt>
      <trkpt lat="49.18388" lon="6.05195">
        <ele>353.9</ele>
        <time>2011-11-06T09:34:39Z</time>
      </trkpt>
      <trkpt lat="49.18388" lon="6.05184">
        <ele>353.7</ele>
        <time>2011-11-06T09:34:40Z</time>
      </trkpt>
      <trkpt lat="49.18389" lon="6.05177">
        <ele>353.4</ele>
        <time>2011-11-06T09:34:41Z</time>
      </trkpt>
      <trkpt lat="49.18388" lon="6.05169">
        <ele>353.4</ele>
        <time>2011-11-06T09:34:42Z</time>
      </trkpt>
      <trkpt lat="49.1839" lon="6.05156">
        <ele>354.1</ele>
        <time>2011-11-06T09:34:44Z</time>
      </trkpt>
      <trkpt lat="49.18392" lon="6.05141">
        <ele>351.5</ele>
        <time>2011-11-06T09:34:46Z</time>
      </trkpt>
      <trkpt lat="49.18392" lon="6.0513">
        <ele>351.6</ele>
        <time>2011-11-06T09:34:47Z</time>
      </trkpt>
      <trkpt lat="49.18394" lon="6.05121">
        <ele>351.7</ele>
        <time>2011-11-06T09:34:48Z</time>
      </trkpt>
      <trkpt lat="49.18398" lon="6.05112">
        <ele>351.7</ele>
        <time>2011-11-06T09:34:49Z</time>
      </trkpt>
      <trkpt lat="49.18398" lon="6.05104">
        <ele>351.7</ele>
        <time>2011-11-06T09:34:50Z</time>
      </trkpt>
      <trkpt lat="49.184" lon="6.05096">
        <ele>351.7</ele>
        <time>2011-11-06T09:34:51Z</time>
      </trkpt>
      <trkpt lat="49.18403" lon="6.05083">
        <ele>351.1</ele>
        <time>2011-11-06T09:34:52Z</time>
      </trkpt>
      <trkpt lat="49.18404" lon="6.05075">
        <ele>351.1</ele>
        <time>2011-11-06T09:34:53Z</time>
      </trkpt>
      <trkpt lat="49.18408" lon="6.05067">
        <ele>350.6</ele>
        <time>2011-11-06T09:34:54Z</time>
      </trkpt>
      <trkpt lat="49.18407" lon="6.05042">
        <ele>351.2</ele>
        <time>2011-11-06T09:34:57Z</time>
      </trkpt>
      <trkpt lat="49.18409" lon="6.05036">
        <ele>351.5</ele>
        <time>2011-11-06T09:34:58Z</time>
      </trkpt>
      <trkpt lat="49.18411" lon="6.05029">
        <ele>352.6</ele>
        <time>2011-11-06T09:34:59Z</time>
      </trkpt>
      <trkpt lat="49.18414" lon="6.05016">
        <ele>352.7</ele>
        <time>2011-11-06T09:35:01Z</time>
      </trkpt>
      <trkpt lat="49.18415" lon="6.05005">
        <ele>351</ele>
        <time>2011-11-06T09:35:02Z</time>
      </trkpt>
      <trkpt lat="49.18414" lon="6.04994">
        <ele>350.8</ele>
        <time>2011-11-06T09:35:03Z</time>
      </trkpt>
      <trkpt lat="49.18417" lon="6.04983">
        <ele>351.8</ele>
        <time>2011-11-06T09:35:04Z</time>
      </trkpt>
      <trkpt lat="49.18419" lon="6.04976">
        <ele>353.1</ele>
        <time>2011-11-06T09:35:05Z</time>
      </trkpt>
      <trkpt lat="49.18421" lon="6.04963">
        <ele>352.2</ele>
        <time>2011-11-06T09:35:06Z</time>
      </trkpt>
      <trkpt lat="49.18422" lon="6.04953">
        <ele>352.7</ele>
        <time>2011-11-06T09:35:07Z</time>
      </trkpt>
      <trkpt lat="49.18423" lon="6.04945">
        <ele>353.1</ele>
        <time>2011-11-06T09:35:08Z</time>
      </trkpt>
      <trkpt lat="49.18424" lon="6.04936">
        <ele>354.4</ele>
        <time>2011-11-06T09:35:09Z</time>
      </trkpt>
      <trkpt lat="49.18427" lon="6.04925">
        <ele>352.8</ele>
        <time>2011-11-06T09:35:10Z</time>
      </trkpt>
      <trkpt lat="49.18428" lon="6.04915">
        <ele>354.1</ele>
        <time>2011-11-06T09:35:11Z</time>
      </trkpt>
      <trkpt lat="49.18429" lon="6.04904">
        <ele>353.7</ele>
        <time>2011-11-06T09:35:12Z</time>
      </trkpt>
      <trkpt lat="49.1843" lon="6.04893">
        <ele>353.9</ele>
        <time>2011-11-06T09:35:13Z</time>
      </trkpt>
      <trkpt lat="49.18433" lon="6.04884">
        <ele>354.1</ele>
        <time>2011-11-06T09:35:14Z</time>
      </trkpt>
      <trkpt lat="49.18434" lon="6.04874">
        <ele>354.8</ele>
        <time>2011-11-06T09:35:15Z</time>
      </trkpt>
      <trkpt lat="49.18436" lon="6.04865">
        <ele>354.8</ele>
        <time>2011-11-06T09:35:16Z</time>
      </trkpt>
      <trkpt lat="49.18438" lon="6.04855">
        <ele>355.3</ele>
        <time>2011-11-06T09:35:17Z</time>
      </trkpt>
      <trkpt lat="49.18439" lon="6.04845">
        <ele>355.5</ele>
        <time>2011-11-06T09:35:18Z</time>
      </trkpt>
      <trkpt lat="49.18441" lon="6.04835">
        <ele>356</ele>
        <time>2011-11-06T09:35:19Z</time>
      </trkpt>
      <trkpt lat="49.18444" lon="6.04827">
        <ele>356.4</ele>
        <time>2011-11-06T09:35:20Z</time>
      </trkpt>
      <trkpt lat="49.18445" lon="6.04816">
        <ele>357.7</ele>
        <time>2011-11-06T09:35:21Z</time>
      </trkpt>
      <trkpt lat="49.18448" lon="6.04807">
        <ele>357.4</ele>
        <time>2011-11-06T09:35:22Z</time>
      </trkpt>
      <trkpt lat="49.1845" lon="6.04798">
        <ele>357.5</ele>
        <time>2011-11-06T09:35:23Z</time>
      </trkpt>
      <trkpt lat="49.18451" lon="6.0479">
        <ele>357.3</ele>
        <time>2011-11-06T09:35:24Z</time>
      </trkpt>
      <trkpt lat="49.18452" lon="6.04781">
        <ele>356.8</ele>
        <time>2011-11-06T09:35:25Z</time>
      </trkpt>
      <trkpt lat="49.18452" lon="6.04772">
        <ele>357.5</ele>
        <time>2011-11-06T09:35:26Z</time>
      </trkpt>
      <trkpt lat="49.18452" lon="6.04761">
        <ele>357.7</ele>
        <time>2011-11-06T09:35:27Z</time>
      </trkpt>
      <trkpt lat="49.18455" lon="6.04752">
        <ele>357.7</ele>
        <time>2011-11-06T09:35:28Z</time>
      </trkpt>
      <trkpt lat="49.18456" lon="6.04741">
        <ele>356.9</ele>
        <time>2011-11-06T09:35:29Z</time>
      </trkpt>
      <trkpt lat="49.18457" lon="6.04732">
        <ele>358.2</ele>
        <time>2011-11-06T09:35:30Z</time>
      </trkpt>
      <trkpt lat="49.18459" lon="6.04722">
        <ele>358.3</ele>
        <time>2011-11-06T09:35:31Z</time>
      </trkpt>
      <trkpt lat="49.18461" lon="6.0471">
        <ele>358.5</ele>
        <time>2011-11-06T09:35:32Z</time>
      </trkpt>
      <trkpt lat="49.18462" lon="6.04701">
        <ele>358.5</ele>
        <time>2011-11-06T09:35:33Z</time>
      </trkpt>
      <trkpt lat="49.18464" lon="6.04691">
        <ele>358.2</ele>
        <time>2011-11-06T09:35:34Z</time>
      </trkpt>
      <trkpt lat="49.18465" lon="6.04681">
        <ele>358.2</ele>
        <time>2011-11-06T09:35:35Z</time>
      </trkpt>
      <trkpt lat="49.18468" lon="6.04675">
        <ele>358.2</ele>
        <time>2011-11-06T09:35:36Z</time>
      </trkpt>
      <trkpt lat="49.18471" lon="6.04664">
        <ele>358.2</ele>
        <time>2011-11-06T09:35:37Z</time>
      </trkpt>
      <trkpt lat="49.18474" lon="6.04654">
        <ele>357</ele>
        <time>2011-11-06T09:35:38Z</time>
      </trkpt>
      <trkpt lat="49.18478" lon="6.04646">
        <ele>356.6</ele>
        <time>2011-11-06T09:35:39Z</time>
      </trkpt>
      <trkpt lat="49.18479" lon="6.04636">
        <ele>356.5</ele>
        <time>2011-11-06T09:35:40Z</time>
      </trkpt>
      <trkpt lat="49.18479" lon="6.04626">
        <ele>357.2</ele>
        <time>2011-11-06T09:35:41Z</time>
      </trkpt>
      <trkpt lat="49.18478" lon="6.04615">
        <ele>357.6</ele>
        <time>2011-11-06T09:35:42Z</time>
      </trkpt>
      <trkpt lat="49.18479" lon="6.04603">
        <ele>358.1</ele>
        <time>2011-11-06T09:35:43Z</time>
      </trkpt>
      <trkpt lat="49.1848" lon="6.04595">
        <ele>357.9</ele>
        <time>2011-11-06T09:35:44Z</time>
      </trkpt>
      <trkpt lat="49.1848" lon="6.04587">
        <ele>358</ele>
        <time>2011-11-06T09:35:45Z</time>
      </trkpt>
      <trkpt lat="49.18482" lon="6.04573">
        <ele>358</ele>
        <time>2011-11-06T09:35:46Z</time>
      </trkpt>
      <trkpt lat="49.18482" lon="6.04559">
        <ele>358.7</ele>
        <time>2011-11-06T09:35:47Z</time>
      </trkpt>
      <trkpt lat="49.18483" lon="6.04548">
        <ele>358.3</ele>
        <time>2011-11-06T09:35:48Z</time>
      </trkpt>
      <trkpt lat="49.18486" lon="6.04537">
        <ele>358.6</ele>
        <time>2011-11-06T09:35:49Z</time>
      </trkpt>
      <trkpt lat="49.18486" lon="6.04529">
        <ele>359.1</ele>
        <time>2011-11-06T09:35:50Z</time>
      </trkpt>
      <trkpt lat="49.18488" lon="6.0452">
        <ele>360.1</ele>
        <time>2011-11-06T09:35:51Z</time>
      </trkpt>
      <trkpt lat="49.18489" lon="6.04509">
        <ele>360.7</ele>
        <time>2011-11-06T09:35:52Z</time>
      </trkpt>
      <trkpt lat="49.18489" lon="6.04499">
        <ele>361.4</ele>
        <time>2011-11-06T09:35:53Z</time>
      </trkpt>
      <trkpt lat="49.18493" lon="6.0449">
        <ele>361.9</ele>
        <time>2011-11-06T09:35:54Z</time>
      </trkpt>
      <trkpt lat="49.18496" lon="6.04484">
        <ele>362.3</ele>
        <time>2011-11-06T09:35:55Z</time>
      </trkpt>
      <trkpt lat="49.18502" lon="6.04452">
        <ele>362.4</ele>
        <time>2011-11-06T09:35:58Z</time>
      </trkpt>
      <trkpt lat="49.18503" lon="6.04444">
        <ele>362.5</ele>
        <time>2011-11-06T09:35:59Z</time>
      </trkpt>
      <trkpt lat="49.18503" lon="6.04432">
        <ele>362.3</ele>
        <time>2011-11-06T09:36:00Z</time>
      </trkpt>
      <trkpt lat="49.18503" lon="6.04424">
        <ele>361.9</ele>
        <time>2011-11-06T09:36:01Z</time>
      </trkpt>
      <trkpt lat="49.18506" lon="6.04412">
        <ele>362.3</ele>
        <time>2011-11-06T09:36:02Z</time>
      </trkpt>
      <trkpt lat="49.18506" lon="6.04403">
        <ele>362.2</ele>
        <time>2011-11-06T09:36:03Z</time>
      </trkpt>
      <trkpt lat="49.18512" lon="6.04394">
        <ele>362.7</ele>
        <time>2011-11-06T09:36:04Z</time>
      </trkpt>
      <trkpt lat="49.18514" lon="6.04385">
        <ele>363.3</ele>
        <time>2011-11-06T09:36:05Z</time>
      </trkpt>
      <trkpt lat="49.18518" lon="6.04374">
        <ele>363.5</ele>
        <time>2011-11-06T09:36:06Z</time>
      </trkpt>
      <trkpt lat="49.18521" lon="6.04364">
        <ele>364.1</ele>
        <time>2011-11-06T09:36:07Z</time>
      </trkpt>
      <trkpt lat="49.18524" lon="6.04355">
        <ele>363.4</ele>
        <time>2011-11-06T09:36:08Z</time>
      </trkpt>
      <trkpt lat="49.18526" lon="6.04344">
        <ele>363.5</ele>
        <time>2011-11-06T09:36:09Z</time>
      </trkpt>
      <trkpt lat="49.18527" lon="6.04336">
        <ele>362.7</ele>
        <time>2011-11-06T09:36:10Z</time>
      </trkpt>
      <trkpt lat="49.18529" lon="6.04327">
        <ele>363.5</ele>
        <time>2011-11-06T09:36:11Z</time>
      </trkpt>
      <trkpt lat="49.18532" lon="6.04314">
        <ele>362.9</ele>
        <time>2011-11-06T09:36:12Z</time>
      </trkpt>
      <trkpt lat="49.18534" lon="6.04304">
        <ele>362.9</ele>
        <time>2011-11-06T09:36:13Z</time>
      </trkpt>
      <trkpt lat="49.18531" lon="6.04293">
        <ele>363.1</ele>
        <time>2011-11-06T09:36:14Z</time>
      </trkpt>
      <trkpt lat="49.1853" lon="6.0428">
        <ele>362.6</ele>
        <time>2011-11-06T09:36:15Z</time>
      </trkpt>
      <trkpt lat="49.18525" lon="6.04267">
        <ele>362.6</ele>
        <time>2011-11-06T09:36:16Z</time>
      </trkpt>
      <trkpt lat="49.1853" lon="6.04252">
        <ele>363.2</ele>
        <time>2011-11-06T09:36:17Z</time>
      </trkpt>
      <trkpt lat="49.18532" lon="6.04237">
        <ele>364</ele>
        <time>2011-11-06T09:36:18Z</time>
      </trkpt>
      <trkpt lat="49.18535" lon="6.04227">
        <ele>364.3</ele>
        <time>2011-11-06T09:36:19Z</time>
      </trkpt>
      <trkpt lat="49.18536" lon="6.04217">
        <ele>363.5</ele>
        <time>2011-11-06T09:36:20Z</time>
      </trkpt>
      <trkpt lat="49.18539" lon="6.04205">
        <ele>363.6</ele>
        <time>2011-11-06T09:36:21Z</time>
      </trkpt>
      <trkpt lat="49.18539" lon="6.04193">
        <ele>364.1</ele>
        <time>2011-11-06T09:36:22Z</time>
      </trkpt>
      <trkpt lat="49.1854" lon="6.04182">
        <ele>363.7</ele>
        <time>2011-11-06T09:36:23Z</time>
      </trkpt>
      <trkpt lat="49.18541" lon="6.04175">
        <ele>363.8</ele>
        <time>2011-11-06T09:36:24Z</time>
      </trkpt>
      <trkpt lat="49.18543" lon="6.04164">
        <ele>363.8</ele>
        <time>2011-11-06T09:36:25Z</time>
      </trkpt>
      <trkpt lat="49.18546" lon="6.04148">
        <ele>362.7</ele>
        <time>2011-11-06T09:36:26Z</time>
      </trkpt>
      <trkpt lat="49.18553" lon="6.04138">
        <ele>362.6</ele>
        <time>2011-11-06T09:36:27Z</time>
      </trkpt>
      <trkpt lat="49.18556" lon="6.04127">
        <ele>362.6</ele>
        <time>2011-11-06T09:36:28Z</time>
      </trkpt>
      <trkpt lat="49.18556" lon="6.04118">
        <ele>362.1</ele>
        <time>2011-11-06T09:36:29Z</time>
      </trkpt>
      <trkpt lat="49.18558" lon="6.04105">
        <ele>361.4</ele>
        <time>2011-11-06T09:36:30Z</time>
      </trkpt>
      <trkpt lat="49.1856" lon="6.04091">
        <ele>362.3</ele>
        <time>2011-11-06T09:36:31Z</time>
      </trkpt>
      <trkpt lat="49.1856" lon="6.04074">
        <ele>363.4</ele>
        <time>2011-11-06T09:36:32Z</time>
      </trkpt>
      <trkpt lat="49.18562" lon="6.04062">
        <ele>363.4</ele>
        <time>2011-11-06T09:36:33Z</time>
      </trkpt>
      <trkpt lat="49.18564" lon="6.04054">
        <ele>363.5</ele>
        <time>2011-11-06T09:36:34Z</time>
      </trkpt>
      <trkpt lat="49.18565" lon="6.04042">
        <ele>363.5</ele>
        <time>2011-11-06T09:36:35Z</time>
      </trkpt>
      <trkpt lat="49.18574" lon="6.04031">
        <ele>363.9</ele>
        <time>2011-11-06T09:36:36Z</time>
      </trkpt>
      <trkpt lat="49.18574" lon="6.04017">
        <ele>363.3</ele>
        <time>2011-11-06T09:36:37Z</time>
      </trkpt>
      <trkpt lat="49.18573" lon="6.04005">
        <ele>364.3</ele>
        <time>2011-11-06T09:36:38Z</time>
      </trkpt>
      <trkpt lat="49.18577" lon="6.03995">
        <ele>364</ele>
        <time>2011-11-06T09:36:39Z</time>
      </trkpt>
      <trkpt lat="49.1858" lon="6.03985">
        <ele>364.8</ele>
        <time>2011-11-06T09:36:40Z</time>
      </trkpt>
      <trkpt lat="49.18581" lon="6.03974">
        <ele>364.2</ele>
        <time>2011-11-06T09:36:41Z</time>
      </trkpt>
      <trkpt lat="49.1858" lon="6.0396">
        <ele>363.2</ele>
        <time>2011-11-06T09:36:42Z</time>
      </trkpt>
      <trkpt lat="49.18582" lon="6.03949">
        <ele>363.2</ele>
        <time>2011-11-06T09:36:43Z</time>
      </trkpt>
      <trkpt lat="49.18583" lon="6.03942">
        <ele>363.3</ele>
        <time>2011-11-06T09:36:44Z</time>
      </trkpt>
      <trkpt lat="49.18585" lon="6.03931">
        <ele>363.3</ele>
        <time>2011-11-06T09:36:45Z</time>
      </trkpt>
      <trkpt lat="49.18588" lon="6.03919">
        <ele>365.5</ele>
        <time>2011-11-06T09:36:46Z</time>
      </trkpt>
      <trkpt lat="49.1859" lon="6.03905">
        <ele>364.7</ele>
        <time>2011-11-06T09:36:47Z</time>
      </trkpt>
      <trkpt lat="49.18592" lon="6.03894">
        <ele>364.6</ele>
        <time>2011-11-06T09:36:48Z</time>
      </trkpt>
      <trkpt lat="49.18594" lon="6.03883">
        <ele>364.6</ele>
        <time>2011-11-06T09:36:49Z</time>
      </trkpt>
      <trkpt lat="49.18595" lon="6.03871">
        <ele>364.5</ele>
        <time>2011-11-06T09:36:50Z</time>
      </trkpt>
      <trkpt lat="49.18596" lon="6.03859">
        <ele>364.8</ele>
        <time>2011-11-06T09:36:51Z</time>
      </trkpt>
      <trkpt lat="49.18594" lon="6.03847">
        <ele>363.9</ele>
        <time>2011-11-06T09:36:52Z</time>
      </trkpt>
      <trkpt lat="49.18597" lon="6.03837">
        <ele>363.1</ele>
        <time>2011-11-06T09:36:53Z</time>
      </trkpt>
      <trkpt lat="49.18598" lon="6.03826">
        <ele>363.1</ele>
        <time>2011-11-06T09:36:54Z</time>
      </trkpt>
      <trkpt lat="49.186" lon="6.03812">
        <ele>364.7</ele>
        <time>2011-11-06T09:36:55Z</time>
      </trkpt>
      <trkpt lat="49.18607" lon="6.03788">
        <ele>364.7</ele>
        <time>2011-11-06T09:36:57Z</time>
      </trkpt>
      <trkpt lat="49.18608" lon="6.03776">
        <ele>364.3</ele>
        <time>2011-11-06T09:36:58Z</time>
      </trkpt>
      <trkpt lat="49.1861" lon="6.03764">
        <ele>363.3</ele>
        <time>2011-11-06T09:36:59Z</time>
      </trkpt>
      <trkpt lat="49.18612" lon="6.03751">
        <ele>363.1</ele>
        <time>2011-11-06T09:37:00Z</time>
      </trkpt>
      <trkpt lat="49.18614" lon="6.03734">
        <ele>363.7</ele>
        <time>2011-11-06T09:37:01Z</time>
      </trkpt>
      <trkpt lat="49.18614" lon="6.03717">
        <ele>364.2</ele>
        <time>2011-11-06T09:37:02Z</time>
      </trkpt>
      <trkpt lat="49.18617" lon="6.03705">
        <ele>365.3</ele>
        <time>2011-11-06T09:37:03Z</time>
      </trkpt>
      <trkpt lat="49.18617" lon="6.03696">
        <ele>365.6</ele>
        <time>2011-11-06T09:37:04Z</time>
      </trkpt>
      <trkpt lat="49.1862" lon="6.03682">
        <ele>365</ele>
        <time>2011-11-06T09:37:05Z</time>
      </trkpt>
      <trkpt lat="49.18622" lon="6.03668">
        <ele>365</ele>
        <time>2011-11-06T09:37:06Z</time>
      </trkpt>
      <trkpt lat="49.18626" lon="6.03652">
        <ele>364.8</ele>
        <time>2011-11-06T09:37:07Z</time>
      </trkpt>
      <trkpt lat="49.18627" lon="6.03635">
        <ele>365.6</ele>
        <time>2011-11-06T09:37:08Z</time>
      </trkpt>
      <trkpt lat="49.18629" lon="6.03626">
        <ele>365.2</ele>
        <time>2011-11-06T09:37:09Z</time>
      </trkpt>
      <trkpt lat="49.18631" lon="6.03613">
        <ele>365.2</ele>
        <time>2011-11-06T09:37:10Z</time>
      </trkpt>
      <trkpt lat="49.18634" lon="6.03599">
        <ele>365.6</ele>
        <time>2011-11-06T09:37:11Z</time>
      </trkpt>
      <trkpt lat="49.18635" lon="6.03588">
        <ele>365.2</ele>
        <time>2011-11-06T09:37:12Z</time>
      </trkpt>
      <trkpt lat="49.18638" lon="6.03572">
        <ele>365.7</ele>
        <time>2011-11-06T09:37:14Z</time>
      </trkpt>
      <trkpt lat="49.18639" lon="6.03562">
        <ele>366.1</ele>
        <time>2011-11-06T09:37:15Z</time>
      </trkpt>
      <trkpt lat="49.18642" lon="6.03546">
        <ele>365.6</ele>
        <time>2011-11-06T09:37:16Z</time>
      </trkpt>
      <trkpt lat="49.18644" lon="6.03533">
        <ele>365.4</ele>
        <time>2011-11-06T09:37:17Z</time>
      </trkpt>
      <trkpt lat="49.18646" lon="6.03519">
        <ele>365.6</ele>
        <time>2011-11-06T09:37:18Z</time>
      </trkpt>
      <trkpt lat="49.18649" lon="6.03505">
        <ele>367.2</ele>
        <time>2011-11-06T09:37:19Z</time>
      </trkpt>
      <trkpt lat="49.18651" lon="6.03491">
        <ele>368</ele>
        <time>2011-11-06T09:37:20Z</time>
      </trkpt>
      <trkpt lat="49.18653" lon="6.03481">
        <ele>368.2</ele>
        <time>2011-11-06T09:37:21Z</time>
      </trkpt>
      <trkpt lat="49.18654" lon="6.03471">
        <ele>368.2</ele>
        <time>2011-11-06T09:37:22Z</time>
      </trkpt>
      <trkpt lat="49.18655" lon="6.03461">
        <ele>368</ele>
        <time>2011-11-06T09:37:23Z</time>
      </trkpt>
      <trkpt lat="49.18659" lon="6.03445">
        <ele>368.8</ele>
        <time>2011-11-06T09:37:24Z</time>
      </trkpt>
      <trkpt lat="49.18662" lon="6.03427">
        <ele>366.6</ele>
        <time>2011-11-06T09:37:25Z</time>
      </trkpt>
      <trkpt lat="49.18664" lon="6.03416">
        <ele>366.6</ele>
        <time>2011-11-06T09:37:26Z</time>
      </trkpt>
      <trkpt lat="49.18666" lon="6.03407">
        <ele>366.6</ele>
        <time>2011-11-06T09:37:27Z</time>
      </trkpt>
      <trkpt lat="49.18668" lon="6.03395">
        <ele>366.6</ele>
        <time>2011-11-06T09:37:28Z</time>
      </trkpt>
      <trkpt lat="49.18668" lon="6.03384">
        <ele>366.9</ele>
        <time>2011-11-06T09:37:29Z</time>
      </trkpt>
      <trkpt lat="49.18667" lon="6.03373">
        <ele>367.7</ele>
        <time>2011-11-06T09:37:30Z</time>
      </trkpt>
      <trkpt lat="49.18671" lon="6.03362">
        <ele>367.7</ele>
        <time>2011-11-06T09:37:31Z</time>
      </trkpt>
      <trkpt lat="49.18671" lon="6.03351">
        <ele>368.1</ele>
        <time>2011-11-06T09:37:32Z</time>
      </trkpt>
      <trkpt lat="49.18674" lon="6.03339">
        <ele>368.5</ele>
        <time>2011-11-06T09:37:33Z</time>
      </trkpt>
      <trkpt lat="49.18676" lon="6.03328">
        <ele>368.5</ele>
        <time>2011-11-06T09:37:34Z</time>
      </trkpt>
      <trkpt lat="49.18679" lon="6.03318">
        <ele>368.9</ele>
        <time>2011-11-06T09:37:35Z</time>
      </trkpt>
      <trkpt lat="49.18682" lon="6.03312">
        <ele>369.5</ele>
        <time>2011-11-06T09:37:36Z</time>
      </trkpt>
      <trkpt lat="49.18685" lon="6.03306">
        <ele>372.7</ele>
        <time>2011-11-06T09:37:37Z</time>
      </trkpt>
      <trkpt lat="49.18688" lon="6.03296">
        <ele>372.5</ele>
        <time>2011-11-06T09:37:38Z</time>
      </trkpt>
      <trkpt lat="49.1869" lon="6.03285">
        <ele>370.8</ele>
        <time>2011-11-06T09:37:39Z</time>
      </trkpt>
      <trkpt lat="49.18691" lon="6.03276">
        <ele>371.3</ele>
        <time>2011-11-06T09:37:40Z</time>
      </trkpt>
      <trkpt lat="49.18691" lon="6.03264">
        <ele>370.7</ele>
        <time>2011-11-06T09:37:41Z</time>
      </trkpt>
      <trkpt lat="49.18692" lon="6.03251">
        <ele>370.2</ele>
        <time>2011-11-06T09:37:42Z</time>
      </trkpt>
      <trkpt lat="49.18692" lon="6.03238">
        <ele>371.3</ele>
        <time>2011-11-06T09:37:43Z</time>
      </trkpt>
      <trkpt lat="49.18694" lon="6.03229">
        <ele>371.9</ele>
        <time>2011-11-06T09:37:44Z</time>
      </trkpt>
      <trkpt lat="49.18696" lon="6.03218">
        <ele>371.8</ele>
        <time>2011-11-06T09:37:45Z</time>
      </trkpt>
      <trkpt lat="49.18698" lon="6.03206">
        <ele>371.4</ele>
        <time>2011-11-06T09:37:46Z</time>
      </trkpt>
      <trkpt lat="49.18697" lon="6.03193">
        <ele>370.9</ele>
        <time>2011-11-06T09:37:47Z</time>
      </trkpt>
      <trkpt lat="49.18704" lon="6.03176">
        <ele>370.4</ele>
        <time>2011-11-06T09:37:48Z</time>
      </trkpt>
      <trkpt lat="49.18707" lon="6.03161">
        <ele>370.3</ele>
        <time>2011-11-06T09:37:49Z</time>
      </trkpt>
      <trkpt lat="49.18708" lon="6.03146">
        <ele>370.3</ele>
        <time>2011-11-06T09:37:50Z</time>
      </trkpt>
      <trkpt lat="49.18711" lon="6.03131">
        <ele>370.3</ele>
        <time>2011-11-06T09:37:51Z</time>
      </trkpt>
      <trkpt lat="49.18713" lon="6.03112">
        <ele>370.5</ele>
        <time>2011-11-06T09:37:52Z</time>
      </trkpt>
      <trkpt lat="49.18715" lon="6.03093">
        <ele>370.5</ele>
        <time>2011-11-06T09:37:53Z</time>
      </trkpt>
      <trkpt lat="49.18718" lon="6.03076">
        <ele>370</ele>
        <time>2011-11-06T09:37:54Z</time>
      </trkpt>
      <trkpt lat="49.18721" lon="6.03058">
        <ele>369.1</ele>
        <time>2011-11-06T09:37:55Z</time>
      </trkpt>
      <trkpt lat="49.18723" lon="6.03043">
        <ele>368.6</ele>
        <time>2011-11-06T09:37:56Z</time>
      </trkpt>
      <trkpt lat="49.18726" lon="6.03024">
        <ele>367.4</ele>
        <time>2011-11-06T09:37:57Z</time>
      </trkpt>
      <trkpt lat="49.18727" lon="6.03004">
        <ele>367.6</ele>
        <time>2011-11-06T09:37:58Z</time>
      </trkpt>
      <trkpt lat="49.1873" lon="6.02985">
        <ele>366.2</ele>
        <time>2011-11-06T09:37:59Z</time>
      </trkpt>
      <trkpt lat="49.18732" lon="6.02965">
        <ele>365.3</ele>
        <time>2011-11-06T09:38:00Z</time>
      </trkpt>
      <trkpt lat="49.18736" lon="6.02942">
        <ele>364</ele>
        <time>2011-11-06T09:38:01Z</time>
      </trkpt>
      <trkpt lat="49.1874" lon="6.02923">
        <ele>363.9</ele>
        <time>2011-11-06T09:38:02Z</time>
      </trkpt>
      <trkpt lat="49.18743" lon="6.02904">
        <ele>363.1</ele>
        <time>2011-11-06T09:38:03Z</time>
      </trkpt>
      <trkpt lat="49.18747" lon="6.02883">
        <ele>362.3</ele>
        <time>2011-11-06T09:38:04Z</time>
      </trkpt>
      <trkpt lat="49.18751" lon="6.02862">
        <ele>362.2</ele>
        <time>2011-11-06T09:38:05Z</time>
      </trkpt>
      <trkpt lat="49.18755" lon="6.02842">
        <ele>362.4</ele>
        <time>2011-11-06T09:38:06Z</time>
      </trkpt>
      <trkpt lat="49.18759" lon="6.02821">
        <ele>361.7</ele>
        <time>2011-11-06T09:38:07Z</time>
      </trkpt>
      <trkpt lat="49.18762" lon="6.02801">
        <ele>361.9</ele>
        <time>2011-11-06T09:38:08Z</time>
      </trkpt>
      <trkpt lat="49.18765" lon="6.0278">
        <ele>362.3</ele>
        <time>2011-11-06T09:38:09Z</time>
      </trkpt>
      <trkpt lat="49.18768" lon="6.0276">
        <ele>361.6</ele>
        <time>2011-11-06T09:38:10Z</time>
      </trkpt>
      <trkpt lat="49.18771" lon="6.0274">
        <ele>361.3</ele>
        <time>2011-11-06T09:38:11Z</time>
      </trkpt>
      <trkpt lat="49.18774" lon="6.0272">
        <ele>360.7</ele>
        <time>2011-11-06T09:38:12Z</time>
      </trkpt>
      <trkpt lat="49.18776" lon="6.02699">
        <ele>360.4</ele>
        <time>2011-11-06T09:38:13Z</time>
      </trkpt>
      <trkpt lat="49.1878" lon="6.0268">
        <ele>360</ele>
        <time>2011-11-06T09:38:14Z</time>
      </trkpt>
      <trkpt lat="49.18782" lon="6.0266">
        <ele>360.1</ele>
        <time>2011-11-06T09:38:15Z</time>
      </trkpt>
      <trkpt lat="49.18784" lon="6.0264">
        <ele>360.2</ele>
        <time>2011-11-06T09:38:16Z</time>
      </trkpt>
      <trkpt lat="49.18788" lon="6.02619">
        <ele>360.4</ele>
        <time>2011-11-06T09:38:17Z</time>
      </trkpt>
      <trkpt lat="49.18792" lon="6.02599">
        <ele>359.9</ele>
        <time>2011-11-06T09:38:18Z</time>
      </trkpt>
      <trkpt lat="49.18795" lon="6.02579">
        <ele>359.3</ele>
        <time>2011-11-06T09:38:19Z</time>
      </trkpt>
      <trkpt lat="49.18799" lon="6.0256">
        <ele>359.3</ele>
        <time>2011-11-06T09:38:20Z</time>
      </trkpt>
      <trkpt lat="49.18804" lon="6.0254">
        <ele>358.8</ele>
        <time>2011-11-06T09:38:21Z</time>
      </trkpt>
      <trkpt lat="49.18806" lon="6.02522">
        <ele>358.7</ele>
        <time>2011-11-06T09:38:22Z</time>
      </trkpt>
      <trkpt lat="49.18809" lon="6.02503">
        <ele>358.5</ele>
        <time>2011-11-06T09:38:23Z</time>
      </trkpt>
      <trkpt lat="49.1881" lon="6.02483">
        <ele>358.9</ele>
        <time>2011-11-06T09:38:24Z</time>
      </trkpt>
      <trkpt lat="49.18813" lon="6.02465">
        <ele>358.6</ele>
        <time>2011-11-06T09:38:25Z</time>
      </trkpt>
      <trkpt lat="49.18817" lon="6.02446">
        <ele>358.5</ele>
        <time>2011-11-06T09:38:26Z</time>
      </trkpt>
      <trkpt lat="49.18822" lon="6.02431">
        <ele>358.2</ele>
        <time>2011-11-06T09:38:27Z</time>
      </trkpt>
      <trkpt lat="49.18824" lon="6.02416">
        <ele>357.8</ele>
        <time>2011-11-06T09:38:28Z</time>
      </trkpt>
      <trkpt lat="49.18828" lon="6.02388">
        <ele>357.7</ele>
        <time>2011-11-06T09:38:29Z</time>
      </trkpt>
      <trkpt lat="49.1883" lon="6.02368">
        <ele>357.1</ele>
        <time>2011-11-06T09:38:30Z</time>
      </trkpt>
      <trkpt lat="49.18834" lon="6.02341">
        <ele>357</ele>
        <time>2011-11-06T09:38:31Z</time>
      </trkpt>
      <trkpt lat="49.18838" lon="6.02317">
        <ele>357</ele>
        <time>2011-11-06T09:38:32Z</time>
      </trkpt>
      <trkpt lat="49.1884" lon="6.02295">
        <ele>355.2</ele>
        <time>2011-11-06T09:38:33Z</time>
      </trkpt>
      <trkpt lat="49.18844" lon="6.02276">
        <ele>354</ele>
        <time>2011-11-06T09:38:34Z</time>
      </trkpt>
      <trkpt lat="49.18847" lon="6.02258">
        <ele>353.5</ele>
        <time>2011-11-06T09:38:35Z</time>
      </trkpt>
      <trkpt lat="49.1885" lon="6.02242">
        <ele>352.8</ele>
        <time>2011-11-06T09:38:36Z</time>
      </trkpt>
      <trkpt lat="49.18852" lon="6.02227">
        <ele>352.9</ele>
        <time>2011-11-06T09:38:37Z</time>
      </trkpt>
      <trkpt lat="49.18854" lon="6.02208">
        <ele>353.3</ele>
        <time>2011-11-06T09:38:38Z</time>
      </trkpt>
      <trkpt lat="49.18856" lon="6.0219">
        <ele>352.2</ele>
        <time>2011-11-06T09:38:39Z</time>
      </trkpt>
      <trkpt lat="49.18861" lon="6.02174">
        <ele>351.1</ele>
        <time>2011-11-06T09:38:40Z</time>
      </trkpt>
      <trkpt lat="49.18863" lon="6.02155">
        <ele>351.4</ele>
        <time>2011-11-06T09:38:41Z</time>
      </trkpt>
      <trkpt lat="49.18865" lon="6.02138">
        <ele>350.7</ele>
        <time>2011-11-06T09:38:42Z</time>
      </trkpt>
      <trkpt lat="49.18869" lon="6.02118">
        <ele>351.2</ele>
        <time>2011-11-06T09:38:43Z</time>
      </trkpt>
      <trkpt lat="49.18871" lon="6.021">
        <ele>350.7</ele>
        <time>2011-11-06T09:38:44Z</time>
      </trkpt>
      <trkpt lat="49.18874" lon="6.02083">
        <ele>350.1</ele>
        <time>2011-11-06T09:38:45Z</time>
      </trkpt>
      <trkpt lat="49.18877" lon="6.02065">
        <ele>349.9</ele>
        <time>2011-11-06T09:38:46Z</time>
      </trkpt>
      <trkpt lat="49.18881" lon="6.02047">
        <ele>349.5</ele>
        <time>2011-11-06T09:38:47Z</time>
      </trkpt>
      <trkpt lat="49.18884" lon="6.02028">
        <ele>349.4</ele>
        <time>2011-11-06T09:38:48Z</time>
      </trkpt>
      <trkpt lat="49.18887" lon="6.02004">
        <ele>348.5</ele>
        <time>2011-11-06T09:38:49Z</time>
      </trkpt>
      <trkpt lat="49.1889" lon="6.01986">
        <ele>347.9</ele>
        <time>2011-11-06T09:38:50Z</time>
      </trkpt>
      <trkpt lat="49.18892" lon="6.01968">
        <ele>347.6</ele>
        <time>2011-11-06T09:38:51Z</time>
      </trkpt>
      <trkpt lat="49.18894" lon="6.0195">
        <ele>347.4</ele>
        <time>2011-11-06T09:38:52Z</time>
      </trkpt>
      <trkpt lat="49.18895" lon="6.01933">
        <ele>347.5</ele>
        <time>2011-11-06T09:38:53Z</time>
      </trkpt>
      <trkpt lat="49.18898" lon="6.01916">
        <ele>347.4</ele>
        <time>2011-11-06T09:38:54Z</time>
      </trkpt>
      <trkpt lat="49.18902" lon="6.01896">
        <ele>346.5</ele>
        <time>2011-11-06T09:38:55Z</time>
      </trkpt>
      <trkpt lat="49.18906" lon="6.01876">
        <ele>345.6</ele>
        <time>2011-11-06T09:38:56Z</time>
      </trkpt>
      <trkpt lat="49.18909" lon="6.01858">
        <ele>345.5</ele>
        <time>2011-11-06T09:38:57Z</time>
      </trkpt>
      <trkpt lat="49.18913" lon="6.0184">
        <ele>345.6</ele>
        <time>2011-11-06T09:38:58Z</time>
      </trkpt>
      <trkpt lat="49.18915" lon="6.01822">
        <ele>345.6</ele>
        <time>2011-11-06T09:38:59Z</time>
      </trkpt>
      <trkpt lat="49.18918" lon="6.01804">
        <ele>345.2</ele>
        <time>2011-11-06T09:39:00Z</time>
      </trkpt>
      <trkpt lat="49.1892" lon="6.01788">
        <ele>345.2</ele>
        <time>2011-11-06T09:39:01Z</time>
      </trkpt>
      <trkpt lat="49.18924" lon="6.0177">
        <ele>345.3</ele>
        <time>2011-11-06T09:39:02Z</time>
      </trkpt>
      <trkpt lat="49.18924" lon="6.01756">
        <ele>345.5</ele>
        <time>2011-11-06T09:39:03Z</time>
      </trkpt>
      <trkpt lat="49.18926" lon="6.01737">
        <ele>345.5</ele>
        <time>2011-11-06T09:39:04Z</time>
      </trkpt>
      <trkpt lat="49.18928" lon="6.01723">
        <ele>345</ele>
        <time>2011-11-06T09:39:05Z</time>
      </trkpt>
      <trkpt lat="49.1893" lon="6.01706">
        <ele>344.8</ele>
        <time>2011-11-06T09:39:06Z</time>
      </trkpt>
      <trkpt lat="49.18933" lon="6.01691">
        <ele>344.1</ele>
        <time>2011-11-06T09:39:07Z</time>
      </trkpt>
      <trkpt lat="49.18937" lon="6.01672">
        <ele>343.4</ele>
        <time>2011-11-06T09:39:08Z</time>
      </trkpt>
      <trkpt lat="49.1894" lon="6.01651">
        <ele>342.3</ele>
        <time>2011-11-06T09:39:09Z</time>
      </trkpt>
      <trkpt lat="49.18942" lon="6.01634">
        <ele>341.8</ele>
        <time>2011-11-06T09:39:10Z</time>
      </trkpt>
      <trkpt lat="49.18944" lon="6.01618">
        <ele>341.9</ele>
        <time>2011-11-06T09:39:11Z</time>
      </trkpt>
      <trkpt lat="49.18947" lon="6.01601">
        <ele>341.9</ele>
        <time>2011-11-06T09:39:12Z</time>
      </trkpt>
      <trkpt lat="49.18949" lon="6.01581">
        <ele>342</ele>
        <time>2011-11-06T09:39:13Z</time>
      </trkpt>
      <trkpt lat="49.18953" lon="6.01563">
        <ele>340.5</ele>
        <time>2011-11-06T09:39:14Z</time>
      </trkpt>
      <trkpt lat="49.18957" lon="6.01542">
        <ele>337.4</ele>
        <time>2011-11-06T09:39:15Z</time>
      </trkpt>
      <trkpt lat="49.18959" lon="6.01524">
        <ele>336.6</ele>
        <time>2011-11-06T09:39:16Z</time>
      </trkpt>
      <trkpt lat="49.18961" lon="6.01506">
        <ele>337</ele>
        <time>2011-11-06T09:39:17Z</time>
      </trkpt>
      <trkpt lat="49.18965" lon="6.01489">
        <ele>336.6</ele>
        <time>2011-11-06T09:39:18Z</time>
      </trkpt>
      <trkpt lat="49.18967" lon="6.01469">
        <ele>336.7</ele>
        <time>2011-11-06T09:39:19Z</time>
      </trkpt>
      <trkpt lat="49.18971" lon="6.01454">
        <ele>336.7</ele>
        <time>2011-11-06T09:39:20Z</time>
      </trkpt>
      <trkpt lat="49.18974" lon="6.01436">
        <ele>336.2</ele>
        <time>2011-11-06T09:39:21Z</time>
      </trkpt>
      <trkpt lat="49.18977" lon="6.01415">
        <ele>336.8</ele>
        <time>2011-11-06T09:39:22Z</time>
      </trkpt>
      <trkpt lat="49.18979" lon="6.01399">
        <ele>336.2</ele>
        <time>2011-11-06T09:39:23Z</time>
      </trkpt>
      <trkpt lat="49.18985" lon="6.01382">
        <ele>335.4</ele>
        <time>2011-11-06T09:39:24Z</time>
      </trkpt>
      <trkpt lat="49.18989" lon="6.01362">
        <ele>334.7</ele>
        <time>2011-11-06T09:39:25Z</time>
      </trkpt>
      <trkpt lat="49.18992" lon="6.01343">
        <ele>335.5</ele>
        <time>2011-11-06T09:39:26Z</time>
      </trkpt>
      <trkpt lat="49.18995" lon="6.01324">
        <ele>336.1</ele>
        <time>2011-11-06T09:39:27Z</time>
      </trkpt>
      <trkpt lat="49.18998" lon="6.01306">
        <ele>335.5</ele>
        <time>2011-11-06T09:39:28Z</time>
      </trkpt>
      <trkpt lat="49.19001" lon="6.01287">
        <ele>334.7</ele>
        <time>2011-11-06T09:39:29Z</time>
      </trkpt>
      <trkpt lat="49.19004" lon="6.01267">
        <ele>333.9</ele>
        <time>2011-11-06T09:39:30Z</time>
      </trkpt>
      <trkpt lat="49.19007" lon="6.01249">
        <ele>334</ele>
        <time>2011-11-06T09:39:31Z</time>
      </trkpt>
      <trkpt lat="49.19008" lon="6.0123">
        <ele>334.1</ele>
        <time>2011-11-06T09:39:32Z</time>
      </trkpt>
      <trkpt lat="49.19012" lon="6.01212">
        <ele>334</ele>
        <time>2011-11-06T09:39:33Z</time>
      </trkpt>
      <trkpt lat="49.19015" lon="6.01194">
        <ele>333.6</ele>
        <time>2011-11-06T09:39:34Z</time>
      </trkpt>
      <trkpt lat="49.19017" lon="6.01177">
        <ele>333</ele>
        <time>2011-11-06T09:39:35Z</time>
      </trkpt>
      <trkpt lat="49.1902" lon="6.0116">
        <ele>332.8</ele>
        <time>2011-11-06T09:39:36Z</time>
      </trkpt>
      <trkpt lat="49.19024" lon="6.01144">
        <ele>333</ele>
        <time>2011-11-06T09:39:37Z</time>
      </trkpt>
      <trkpt lat="49.19027" lon="6.01128">
        <ele>332.7</ele>
        <time>2011-11-06T09:39:38Z</time>
      </trkpt>
      <trkpt lat="49.19029" lon="6.01111">
        <ele>333</ele>
        <time>2011-11-06T09:39:39Z</time>
      </trkpt>
      <trkpt lat="49.1903" lon="6.01097">
        <ele>332.8</ele>
        <time>2011-11-06T09:39:40Z</time>
      </trkpt>
      <trkpt lat="49.19031" lon="6.01083">
        <ele>332.8</ele>
        <time>2011-11-06T09:39:41Z</time>
      </trkpt>
      <trkpt lat="49.19035" lon="6.01062">
        <ele>330.1</ele>
        <time>2011-11-06T09:39:42Z</time>
      </trkpt>
      <trkpt lat="49.19038" lon="6.01041">
        <ele>327.8</ele>
        <time>2011-11-06T09:39:43Z</time>
      </trkpt>
      <trkpt lat="49.19041" lon="6.01023">
        <ele>327.1</ele>
        <time>2011-11-06T09:39:44Z</time>
      </trkpt>
      <trkpt lat="49.19045" lon="6.01007">
        <ele>326.5</ele>
        <time>2011-11-06T09:39:45Z</time>
      </trkpt>
      <trkpt lat="49.19045" lon="6.00992">
        <ele>326.6</ele>
        <time>2011-11-06T09:39:46Z</time>
      </trkpt>
      <trkpt lat="49.19047" lon="6.00976">
        <ele>327.3</ele>
        <time>2011-11-06T09:39:47Z</time>
      </trkpt>
      <trkpt lat="49.1905" lon="6.00962">
        <ele>327.2</ele>
        <time>2011-11-06T09:39:48Z</time>
      </trkpt>
      <trkpt lat="49.19052" lon="6.00944">
        <ele>327.6</ele>
        <time>2011-11-06T09:39:49Z</time>
      </trkpt>
      <trkpt lat="49.19055" lon="6.00928">
        <ele>326.5</ele>
        <time>2011-11-06T09:39:50Z</time>
      </trkpt>
      <trkpt lat="49.19057" lon="6.00914">
        <ele>326</ele>
        <time>2011-11-06T09:39:51Z</time>
      </trkpt>
      <trkpt lat="49.1906" lon="6.00898">
        <ele>326.3</ele>
        <time>2011-11-06T09:39:52Z</time>
      </trkpt>
      <trkpt lat="49.19062" lon="6.0088">
        <ele>325.8</ele>
        <time>2011-11-06T09:39:53Z</time>
      </trkpt>
      <trkpt lat="49.19064" lon="6.00866">
        <ele>325.4</ele>
        <time>2011-11-06T09:39:54Z</time>
      </trkpt>
      <trkpt lat="49.19067" lon="6.00851">
        <ele>324.4</ele>
        <time>2011-11-06T09:39:55Z</time>
      </trkpt>
      <trkpt lat="49.19069" lon="6.00836">
        <ele>324.1</ele>
        <time>2011-11-06T09:39:56Z</time>
      </trkpt>
      <trkpt lat="49.19072" lon="6.00821">
        <ele>323.8</ele>
        <time>2011-11-06T09:39:57Z</time>
      </trkpt>
      <trkpt lat="49.19073" lon="6.0081">
        <ele>324</ele>
        <time>2011-11-06T09:39:58Z</time>
      </trkpt>
      <trkpt lat="49.19075" lon="6.00798">
        <ele>323.4</ele>
        <time>2011-11-06T09:39:59Z</time>
      </trkpt>
      <trkpt lat="49.19076" lon="6.00787">
        <ele>322.4</ele>
        <time>2011-11-06T09:40:00Z</time>
      </trkpt>
      <trkpt lat="49.19079" lon="6.00774">
        <ele>321.9</ele>
        <time>2011-11-06T09:40:01Z</time>
      </trkpt>
      <trkpt lat="49.19081" lon="6.00759">
        <ele>322.2</ele>
        <time>2011-11-06T09:40:02Z</time>
      </trkpt>
      <trkpt lat="49.19083" lon="6.00746">
        <ele>322.3</ele>
        <time>2011-11-06T09:40:03Z</time>
      </trkpt>
      <trkpt lat="49.19086" lon="6.00728">
        <ele>320.6</ele>
        <time>2011-11-06T09:40:04Z</time>
      </trkpt>
      <trkpt lat="49.19089" lon="6.00712">
        <ele>319.8</ele>
        <time>2011-11-06T09:40:05Z</time>
      </trkpt>
      <trkpt lat="49.19092" lon="6.00698">
        <ele>319.6</ele>
        <time>2011-11-06T09:40:06Z</time>
      </trkpt>
      <trkpt lat="49.19094" lon="6.00685">
        <ele>319.7</ele>
        <time>2011-11-06T09:40:07Z</time>
      </trkpt>
      <trkpt lat="49.19097" lon="6.00671">
        <ele>319.3</ele>
        <time>2011-11-06T09:40:08Z</time>
      </trkpt>
      <trkpt lat="49.19099" lon="6.00661">
        <ele>319.1</ele>
        <time>2011-11-06T09:40:09Z</time>
      </trkpt>
      <trkpt lat="49.19102" lon="6.00644">
        <ele>320.3</ele>
        <time>2011-11-06T09:40:11Z</time>
      </trkpt>
      <trkpt lat="49.19103" lon="6.00633">
        <ele>320.5</ele>
        <time>2011-11-06T09:40:12Z</time>
      </trkpt>
      <trkpt lat="49.19105" lon="6.00621">
        <ele>320.5</ele>
        <time>2011-11-06T09:40:13Z</time>
      </trkpt>
      <trkpt lat="49.19108" lon="6.00607">
        <ele>319.4</ele>
        <time>2011-11-06T09:40:14Z</time>
      </trkpt>
      <trkpt lat="49.19109" lon="6.00597">
        <ele>319.6</ele>
        <time>2011-11-06T09:40:15Z</time>
      </trkpt>
      <trkpt lat="49.19111" lon="6.00586">
        <ele>319.5</ele>
        <time>2011-11-06T09:40:16Z</time>
      </trkpt>
      <trkpt lat="49.1911" lon="6.00571">
        <ele>319.8</ele>
        <time>2011-11-06T09:40:17Z</time>
      </trkpt>
      <trkpt lat="49.19112" lon="6.00559">
        <ele>319.8</ele>
        <time>2011-11-06T09:40:18Z</time>
      </trkpt>
      <trkpt lat="49.19113" lon="6.00549">
        <ele>319.8</ele>
        <time>2011-11-06T09:40:19Z</time>
      </trkpt>
      <trkpt lat="49.19115" lon="6.00537">
        <ele>319.8</ele>
        <time>2011-11-06T09:40:20Z</time>
      </trkpt>
      <trkpt lat="49.19118" lon="6.00527">
        <ele>319.9</ele>
        <time>2011-11-06T09:40:21Z</time>
      </trkpt>
      <trkpt lat="49.1912" lon="6.00518">
        <ele>320</ele>
        <time>2011-11-06T09:40:22Z</time>
      </trkpt>
      <trkpt lat="49.19124" lon="6.005">
        <ele>320.5</ele>
        <time>2011-11-06T09:40:24Z</time>
      </trkpt>
      <trkpt lat="49.19126" lon="6.00486">
        <ele>320.9</ele>
        <time>2011-11-06T09:40:25Z</time>
      </trkpt>
      <trkpt lat="49.19126" lon="6.00474">
        <ele>323</ele>
        <time>2011-11-06T09:40:26Z</time>
      </trkpt>
      <trkpt lat="49.19128" lon="6.00466">
        <ele>324.3</ele>
        <time>2011-11-06T09:40:27Z</time>
      </trkpt>
      <trkpt lat="49.1913" lon="6.00457">
        <ele>324.1</ele>
        <time>2011-11-06T09:40:28Z</time>
      </trkpt>
      <trkpt lat="49.19131" lon="6.00446">
        <ele>324.1</ele>
        <time>2011-11-06T09:40:29Z</time>
      </trkpt>
      <trkpt lat="49.19133" lon="6.00438">
        <ele>323.2</ele>
        <time>2011-11-06T09:40:30Z</time>
      </trkpt>
      <trkpt lat="49.19133" lon="6.00428">
        <ele>323.2</ele>
        <time>2011-11-06T09:40:31Z</time>
      </trkpt>
      <trkpt lat="49.19133" lon="6.0042">
        <ele>323.4</ele>
        <time>2011-11-06T09:40:32Z</time>
      </trkpt>
      <trkpt lat="49.19134" lon="6.00412">
        <ele>323</ele>
        <time>2011-11-06T09:40:33Z</time>
      </trkpt>
      <trkpt lat="49.19135" lon="6.00405">
        <ele>323</ele>
        <time>2011-11-06T09:40:34Z</time>
      </trkpt>
      <trkpt lat="49.19137" lon="6.00397">
        <ele>322.7</ele>
        <time>2011-11-06T09:40:35Z</time>
      </trkpt>
      <trkpt lat="49.19138" lon="6.00386">
        <ele>322.1</ele>
        <time>2011-11-06T09:40:36Z</time>
      </trkpt>
      <trkpt lat="49.19141" lon="6.00375">
        <ele>323.7</ele>
        <time>2011-11-06T09:40:37Z</time>
      </trkpt>
      <trkpt lat="49.19144" lon="6.00365">
        <ele>323.5</ele>
        <time>2011-11-06T09:40:38Z</time>
      </trkpt>
      <trkpt lat="49.19146" lon="6.00356">
        <ele>322.4</ele>
        <time>2011-11-06T09:40:39Z</time>
      </trkpt>
      <trkpt lat="49.19148" lon="6.00347">
        <ele>323.1</ele>
        <time>2011-11-06T09:40:40Z</time>
      </trkpt>
      <trkpt lat="49.1915" lon="6.0034">
        <ele>324</ele>
        <time>2011-11-06T09:40:41Z</time>
      </trkpt>
      <trkpt lat="49.19152" lon="6.00331">
        <ele>322.4</ele>
        <time>2011-11-06T09:40:42Z</time>
      </trkpt>
      <trkpt lat="49.19154" lon="6.00324">
        <ele>321.3</ele>
        <time>2011-11-06T09:40:43Z</time>
      </trkpt>
      <trkpt lat="49.19157" lon="6.00316">
        <ele>321.4</ele>
        <time>2011-11-06T09:40:44Z</time>
      </trkpt>
      <trkpt lat="49.19159" lon="6.00306">
        <ele>320.9</ele>
        <time>2011-11-06T09:40:45Z</time>
      </trkpt>
      <trkpt lat="49.19161" lon="6.00298">
        <ele>320.9</ele>
        <time>2011-11-06T09:40:46Z</time>
      </trkpt>
      <trkpt lat="49.19163" lon="6.00289">
        <ele>319.9</ele>
        <time>2011-11-06T09:40:47Z</time>
      </trkpt>
      <trkpt lat="49.19167" lon="6.00278">
        <ele>318.3</ele>
        <time>2011-11-06T09:40:48Z</time>
      </trkpt>
      <trkpt lat="49.19172" lon="6.00272">
        <ele>316.5</ele>
        <time>2011-11-06T09:40:49Z</time>
      </trkpt>
      <trkpt lat="49.19172" lon="6.00264">
        <ele>316.7</ele>
        <time>2011-11-06T09:40:50Z</time>
      </trkpt>
      <trkpt lat="49.19172" lon="6.00256">
        <ele>316.7</ele>
        <time>2011-11-06T09:40:51Z</time>
      </trkpt>
      <trkpt lat="49.19171" lon="6.00242">
        <ele>317.6</ele>
        <time>2011-11-06T09:40:53Z</time>
      </trkpt>
      <trkpt lat="49.19172" lon="6.00232">
        <ele>318.3</ele>
        <time>2011-11-06T09:40:55Z</time>
      </trkpt>
      <trkpt lat="49.19172" lon="6.00224">
        <ele>318.4</ele>
        <time>2011-11-06T09:40:56Z</time>
      </trkpt>
      <trkpt lat="49.19172" lon="6.00217">
        <ele>318.3</ele>
        <time>2011-11-06T09:40:57Z</time>
      </trkpt>
      <trkpt lat="49.19173" lon="6.00205">
        <ele>318.6</ele>
        <time>2011-11-06T09:40:59Z</time>
      </trkpt>
      <trkpt lat="49.19176" lon="6.00199">
        <ele>316.3</ele>
        <time>2011-11-06T09:41:00Z</time>
      </trkpt>
      <trkpt lat="49.19174" lon="6.0019">
        <ele>316.4</ele>
        <time>2011-11-06T09:41:01Z</time>
      </trkpt>
      <trkpt lat="49.19164" lon="6.00184">
        <ele>316.9</ele>
        <time>2011-11-06T09:41:02Z</time>
      </trkpt>
      <trkpt lat="49.19157" lon="6.00185">
        <ele>317.2</ele>
        <time>2011-11-06T09:41:04Z</time>
      </trkpt>
      <trkpt lat="49.19151" lon="6.00185">
        <ele>316.9</ele>
        <time>2011-11-06T09:41:06Z</time>
      </trkpt>
      <trkpt lat="49.19146" lon="6.00185">
        <ele>317.1</ele>
        <time>2011-11-06T09:41:09Z</time>
      </trkpt>
      <trkpt lat="49.19138" lon="6.00187">
        <ele>315.9</ele>
        <time>2011-11-06T09:41:12Z</time>
      </trkpt>
      <trkpt lat="49.19132" lon="6.00189">
        <ele>315.5</ele>
        <time>2011-11-06T09:41:14Z</time>
      </trkpt>
      <trkpt lat="49.19121" lon="6.00189">
        <ele>316.7</ele>
        <time>2011-11-06T09:41:16Z</time>
      </trkpt>
      <trkpt lat="49.19108" lon="6.00188">
        <ele>316</ele>
        <time>2011-11-06T09:41:18Z</time>
      </trkpt>
      <trkpt lat="49.19096" lon="6.00183">
        <ele>314.8</ele>
        <time>2011-11-06T09:41:19Z</time>
      </trkpt>
      <trkpt lat="49.19091" lon="6.00184">
        <ele>315.3</ele>
        <time>2011-11-06T09:41:20Z</time>
      </trkpt>
      <trkpt lat="49.19085" lon="6.00179">
        <ele>315.8</ele>
        <time>2011-11-06T09:41:22Z</time>
      </trkpt>
      <trkpt lat="49.19088" lon="6.00173">
        <ele>309.7</ele>
        <time>2011-11-06T09:41:42Z</time>
      </trkpt>
      <trkpt lat="49.19083" lon="6.0017">
        <ele>312.6</ele>
        <time>2011-11-06T09:44:10Z</time>
      </trkpt>
      <trkpt lat="49.19078" lon="6.00166">
        <ele>313.9</ele>
        <time>2011-11-06T09:44:13Z</time>
      </trkpt>
      <trkpt lat="49.19075" lon="6.00162">
        <ele>313.1</ele>
        <time>2011-11-06T09:44:15Z</time>
      </trkpt>
      <trkpt lat="49.1907" lon="6.00159">
        <ele>311.1</ele>
        <time>2011-11-06T09:44:17Z</time>
      </trkpt>
      <trkpt lat="49.19065" lon="6.00154">
        <ele>311.7</ele>
        <time>2011-11-06T09:44:19Z</time>
      </trkpt>
      <trkpt lat="49.19057" lon="6.00148">
        <ele>311.6</ele>
        <time>2011-11-06T09:44:21Z</time>
      </trkpt>
      <trkpt lat="49.19048" lon="6.0014">
        <ele>311.4</ele>
        <time>2011-11-06T09:44:23Z</time>
      </trkpt>
      <trkpt lat="49.19042" lon="6.00136">
        <ele>311.6</ele>
        <time>2011-11-06T09:44:24Z</time>
      </trkpt>
      <trkpt lat="49.19037" lon="6.00129">
        <ele>311.6</ele>
        <time>2011-11-06T09:44:25Z</time>
      </trkpt>
      <trkpt lat="49.19033" lon="6.00124">
        <ele>312.1</ele>
        <time>2011-11-06T09:44:26Z</time>
      </trkpt>
      <trkpt lat="49.19029" lon="6.0012">
        <ele>312.1</ele>
        <time>2011-11-06T09:44:27Z</time>
      </trkpt>
      <trkpt lat="49.19024" lon="6.00115">
        <ele>313.1</ele>
        <time>2011-11-06T09:44:28Z</time>
      </trkpt>
      <trkpt lat="49.19017" lon="6.00112">
        <ele>313.8</ele>
        <time>2011-11-06T09:44:30Z</time>
      </trkpt>
      <trkpt lat="49.19011" lon="6.00108">
        <ele>314.3</ele>
        <time>2011-11-06T09:44:37Z</time>
      </trkpt>
      <trkpt lat="49.19007" lon="6.00105">
        <ele>315.3</ele>
        <time>2011-11-06T09:44:43Z</time>
      </trkpt>
      <trkpt lat="49.19004" lon="6.00099">
        <ele>314.9</ele>
        <time>2011-11-06T09:44:46Z</time>
      </trkpt>
      <trkpt lat="49.18997" lon="6.00098">
        <ele>315.1</ele>
        <time>2011-11-06T09:44:47Z</time>
      </trkpt>
      <trkpt lat="49.18992" lon="6.00091">
        <ele>315.5</ele>
        <time>2011-11-06T09:44:49Z</time>
      </trkpt>
      <trkpt lat="49.18984" lon="6.00082">
        <ele>316.6</ele>
        <time>2011-11-06T09:44:50Z</time>
      </trkpt>
      <trkpt lat="49.1898" lon="6.00076">
        <ele>317</ele>
        <time>2011-11-06T09:44:51Z</time>
      </trkpt>
      <trkpt lat="49.18968" lon="6.00069">
        <ele>315.7</ele>
        <time>2011-11-06T09:44:53Z</time>
      </trkpt>
      <trkpt lat="49.18963" lon="6.00068">
        <ele>316.5</ele>
        <time>2011-11-06T09:44:54Z</time>
      </trkpt>
      <trkpt lat="49.18957" lon="6.00059">
        <ele>316.6</ele>
        <time>2011-11-06T09:44:55Z</time>
      </trkpt>
      <trkpt lat="49.18949" lon="6.00059">
        <ele>317.3</ele>
        <time>2011-11-06T09:44:56Z</time>
      </trkpt>
      <trkpt lat="49.18946" lon="6.00046">
        <ele>318</ele>
        <time>2011-11-06T09:44:57Z</time>
      </trkpt>
      <trkpt lat="49.1894" lon="6.00043">
        <ele>318.1</ele>
        <time>2011-11-06T09:44:58Z</time>
      </trkpt>
      <trkpt lat="49.18931" lon="6.0004">
        <ele>317.7</ele>
        <time>2011-11-06T09:44:59Z</time>
      </trkpt>
      <trkpt lat="49.18924" lon="6.00033">
        <ele>317.9</ele>
        <time>2011-11-06T09:45:00Z</time>
      </trkpt>
      <trkpt lat="49.18913" lon="6.00028">
        <ele>317.7</ele>
        <time>2011-11-06T09:45:01Z</time>
      </trkpt>
      <trkpt lat="49.18907" lon="6.00023">
        <ele>318.1</ele>
        <time>2011-11-06T09:45:02Z</time>
      </trkpt>
      <trkpt lat="49.189" lon="6.00016">
        <ele>316.9</ele>
        <time>2011-11-06T09:45:03Z</time>
      </trkpt>
      <trkpt lat="49.18893" lon="6.00012">
        <ele>316.9</ele>
        <time>2011-11-06T09:45:04Z</time>
      </trkpt>
      <trkpt lat="49.18886" lon="6.00009">
        <ele>316.5</ele>
        <time>2011-11-06T09:45:05Z</time>
      </trkpt>
      <trkpt lat="49.18879" lon="6.00006">
        <ele>315.6</ele>
        <time>2011-11-06T09:45:06Z</time>
      </trkpt>
      <trkpt lat="49.18872" lon="6.00004">
        <ele>315.3</ele>
        <time>2011-11-06T09:45:07Z</time>
      </trkpt>
      <trkpt lat="49.18865" lon="6.00002">
        <ele>315.3</ele>
        <time>2011-11-06T09:45:08Z</time>
      </trkpt>
      <trkpt lat="49.18857" lon="5.99999">
        <ele>314.6</ele>
        <time>2011-11-06T09:45:09Z</time>
      </trkpt>
      <trkpt lat="49.1885" lon="5.99996">
        <ele>315.1</ele>
        <time>2011-11-06T09:45:10Z</time>
      </trkpt>
      <trkpt lat="49.18842" lon="5.99995">
        <ele>316.4</ele>
        <time>2011-11-06T09:45:11Z</time>
      </trkpt>
      <trkpt lat="49.18834" lon="5.99998">
        <ele>316.7</ele>
        <time>2011-11-06T09:45:12Z</time>
      </trkpt>
      <trkpt lat="49.18826" lon="6">
        <ele>316.3</ele>
        <time>2011-11-06T09:45:13Z</time>
      </trkpt>
      <trkpt lat="49.1882" lon="6.00003">
        <ele>315.6</ele>
        <time>2011-11-06T09:45:14Z</time>
      </trkpt>
      <trkpt lat="49.18808" lon="6.00005">
        <ele>316.3</ele>
        <time>2011-11-06T09:45:15Z</time>
      </trkpt>
      <trkpt lat="49.18801" lon="6.00007">
        <ele>315.6</ele>
        <time>2011-11-06T09:45:16Z</time>
      </trkpt>
      <trkpt lat="49.18794" lon="6.0001">
        <ele>315.6</ele>
        <time>2011-11-06T09:45:17Z</time>
      </trkpt>
      <trkpt lat="49.18786" lon="6.0001">
        <ele>314.8</ele>
        <time>2011-11-06T09:45:18Z</time>
      </trkpt>
      <trkpt lat="49.18779" lon="6.00013">
        <ele>313.8</ele>
        <time>2011-11-06T09:45:19Z</time>
      </trkpt>
      <trkpt lat="49.18771" lon="6.00015">
        <ele>313.2</ele>
        <time>2011-11-06T09:45:20Z</time>
      </trkpt>
      <trkpt lat="49.18763" lon="6.00017">
        <ele>313.6</ele>
        <time>2011-11-06T09:45:21Z</time>
      </trkpt>
      <trkpt lat="49.18757" lon="6.00018">
        <ele>313.8</ele>
        <time>2011-11-06T09:45:22Z</time>
      </trkpt>
      <trkpt lat="49.1875" lon="6.00021">
        <ele>313.2</ele>
        <time>2011-11-06T09:45:23Z</time>
      </trkpt>
      <trkpt lat="49.18743" lon="6.00022">
        <ele>313</ele>
        <time>2011-11-06T09:45:24Z</time>
      </trkpt>
      <trkpt lat="49.18737" lon="6.00023">
        <ele>314.4</ele>
        <time>2011-11-06T09:45:25Z</time>
      </trkpt>
      <trkpt lat="49.1873" lon="6.00024">
        <ele>314.1</ele>
        <time>2011-11-06T09:45:26Z</time>
      </trkpt>
      <trkpt lat="49.18723" lon="6.00024">
        <ele>314</ele>
        <time>2011-11-06T09:45:27Z</time>
      </trkpt>
      <trkpt lat="49.18716" lon="6.00024">
        <ele>314.1</ele>
        <time>2011-11-06T09:45:28Z</time>
      </trkpt>
      <trkpt lat="49.1871" lon="6.00022">
        <ele>314.2</ele>
        <time>2011-11-06T09:45:29Z</time>
      </trkpt>
      <trkpt lat="49.18704" lon="6.00021">
        <ele>314.2</ele>
        <time>2011-11-06T09:45:30Z</time>
      </trkpt>
      <trkpt lat="49.18698" lon="6.00019">
        <ele>315.1</ele>
        <time>2011-11-06T09:45:31Z</time>
      </trkpt>
      <trkpt lat="49.1869" lon="6.00018">
        <ele>314.5</ele>
        <time>2011-11-06T09:45:32Z</time>
      </trkpt>
      <trkpt lat="49.18684" lon="6.00016">
        <ele>314.8</ele>
        <time>2011-11-06T09:45:33Z</time>
      </trkpt>
      <trkpt lat="49.18677" lon="6.00013">
        <ele>314.7</ele>
        <time>2011-11-06T09:45:34Z</time>
      </trkpt>
      <trkpt lat="49.1867" lon="6.00011">
        <ele>314.8</ele>
        <time>2011-11-06T09:45:35Z</time>
      </trkpt>
      <trkpt lat="49.18663" lon="6.00009">
        <ele>315.1</ele>
        <time>2011-11-06T09:45:36Z</time>
      </trkpt>
      <trkpt lat="49.18656" lon="6.00007">
        <ele>315.1</ele>
        <time>2011-11-06T09:45:37Z</time>
      </trkpt>
      <trkpt lat="49.18649" lon="6.00005">
        <ele>315</ele>
        <time>2011-11-06T09:45:38Z</time>
      </trkpt>
      <trkpt lat="49.18643" lon="6.00003">
        <ele>315</ele>
        <time>2011-11-06T09:45:39Z</time>
      </trkpt>
      <trkpt lat="49.18632" lon="5.99995">
        <ele>315</ele>
        <time>2011-11-06T09:45:40Z</time>
      </trkpt>
      <trkpt lat="49.18627" lon="5.99998">
        <ele>314.7</ele>
        <time>2011-11-06T09:45:41Z</time>
      </trkpt>
      <trkpt lat="49.1862" lon="5.99996">
        <ele>315</ele>
        <time>2011-11-06T09:45:42Z</time>
      </trkpt>
      <trkpt lat="49.18615" lon="5.99994">
        <ele>314.7</ele>
        <time>2011-11-06T09:45:43Z</time>
      </trkpt>
      <trkpt lat="49.18609" lon="5.99994">
        <ele>315</ele>
        <time>2011-11-06T09:45:44Z</time>
      </trkpt>
      <trkpt lat="49.18602" lon="5.99993">
        <ele>315.4</ele>
        <time>2011-11-06T09:45:45Z</time>
      </trkpt>
      <trkpt lat="49.18595" lon="5.9999">
        <ele>314.7</ele>
        <time>2011-11-06T09:45:46Z</time>
      </trkpt>
      <trkpt lat="49.18589" lon="5.9999">
        <ele>315</ele>
        <time>2011-11-06T09:45:47Z</time>
      </trkpt>
      <trkpt lat="49.18583" lon="5.99989">
        <ele>314.8</ele>
        <time>2011-11-06T09:45:48Z</time>
      </trkpt>
      <trkpt lat="49.18576" lon="5.99986">
        <ele>315.2</ele>
        <time>2011-11-06T09:45:49Z</time>
      </trkpt>
      <trkpt lat="49.18569" lon="5.99984">
        <ele>315.6</ele>
        <time>2011-11-06T09:45:50Z</time>
      </trkpt>
      <trkpt lat="49.18562" lon="5.99983">
        <ele>316</ele>
        <time>2011-11-06T09:45:51Z</time>
      </trkpt>
      <trkpt lat="49.18555" lon="5.9998">
        <ele>316.2</ele>
        <time>2011-11-06T09:45:52Z</time>
      </trkpt>
      <trkpt lat="49.18548" lon="5.99978">
        <ele>316</ele>
        <time>2011-11-06T09:45:53Z</time>
      </trkpt>
      <trkpt lat="49.18541" lon="5.99975">
        <ele>316.2</ele>
        <time>2011-11-06T09:45:54Z</time>
      </trkpt>
      <trkpt lat="49.18535" lon="5.99974">
        <ele>316.3</ele>
        <time>2011-11-06T09:45:55Z</time>
      </trkpt>
      <trkpt lat="49.1852" lon="5.99974">
        <ele>316.1</ele>
        <time>2011-11-06T09:45:57Z</time>
      </trkpt>
      <trkpt lat="49.18511" lon="5.9997">
        <ele>316.6</ele>
        <time>2011-11-06T09:45:59Z</time>
      </trkpt>
      <trkpt lat="49.18505" lon="5.99969">
        <ele>316.6</ele>
        <time>2011-11-06T09:46:00Z</time>
      </trkpt>
      <trkpt lat="49.18499" lon="5.99967">
        <ele>316.6</ele>
        <time>2011-11-06T09:46:01Z</time>
      </trkpt>
      <trkpt lat="49.18492" lon="5.99967">
        <ele>316.6</ele>
        <time>2011-11-06T09:46:02Z</time>
      </trkpt>
      <trkpt lat="49.18487" lon="5.99965">
        <ele>316.6</ele>
        <time>2011-11-06T09:46:03Z</time>
      </trkpt>
      <trkpt lat="49.18479" lon="5.99964">
        <ele>316.5</ele>
        <time>2011-11-06T09:46:04Z</time>
      </trkpt>
      <trkpt lat="49.18474" lon="5.99962">
        <ele>316.5</ele>
        <time>2011-11-06T09:46:05Z</time>
      </trkpt>
      <trkpt lat="49.18463" lon="5.99945">
        <ele>316.7</ele>
        <time>2011-11-06T09:46:06Z</time>
      </trkpt>
      <trkpt lat="49.18456" lon="5.99942">
        <ele>316.6</ele>
        <time>2011-11-06T09:46:07Z</time>
      </trkpt>
      <trkpt lat="49.1845" lon="5.99938">
        <ele>316.6</ele>
        <time>2011-11-06T09:46:08Z</time>
      </trkpt>
      <trkpt lat="49.18444" lon="5.99938">
        <ele>316.4</ele>
        <time>2011-11-06T09:46:09Z</time>
      </trkpt>
      <trkpt lat="49.18437" lon="5.99936">
        <ele>316.3</ele>
        <time>2011-11-06T09:46:10Z</time>
      </trkpt>
      <trkpt lat="49.18432" lon="5.99929">
        <ele>316.2</ele>
        <time>2011-11-06T09:46:11Z</time>
      </trkpt>
      <trkpt lat="49.18426" lon="5.99927">
        <ele>316.2</ele>
        <time>2011-11-06T09:46:12Z</time>
      </trkpt>
      <trkpt lat="49.1842" lon="5.99924">
        <ele>316.2</ele>
        <time>2011-11-06T09:46:13Z</time>
      </trkpt>
      <trkpt lat="49.18414" lon="5.9992">
        <ele>316.1</ele>
        <time>2011-11-06T09:46:14Z</time>
      </trkpt>
      <trkpt lat="49.18407" lon="5.99921">
        <ele>316</ele>
        <time>2011-11-06T09:46:15Z</time>
      </trkpt>
      <trkpt lat="49.18401" lon="5.9992">
        <ele>315.7</ele>
        <time>2011-11-06T09:46:16Z</time>
      </trkpt>
      <trkpt lat="49.18394" lon="5.99921">
        <ele>315.3</ele>
        <time>2011-11-06T09:46:17Z</time>
      </trkpt>
      <trkpt lat="49.18388" lon="5.99918">
        <ele>315.3</ele>
        <time>2011-11-06T09:46:18Z</time>
      </trkpt>
      <trkpt lat="49.18382" lon="5.99916">
        <ele>315.3</ele>
        <time>2011-11-06T09:46:19Z</time>
      </trkpt>
      <trkpt lat="49.18374" lon="5.99915">
        <ele>315.3</ele>
        <time>2011-11-06T09:46:20Z</time>
      </trkpt>
      <trkpt lat="49.18368" lon="5.99914">
        <ele>315.4</ele>
        <time>2011-11-06T09:46:21Z</time>
      </trkpt>
      <trkpt lat="49.18362" lon="5.99912">
        <ele>315.4</ele>
        <time>2011-11-06T09:46:22Z</time>
      </trkpt>
      <trkpt lat="49.18354" lon="5.99908">
        <ele>316.2</ele>
        <time>2011-11-06T09:46:23Z</time>
      </trkpt>
      <trkpt lat="49.18348" lon="5.99906">
        <ele>316.2</ele>
        <time>2011-11-06T09:46:24Z</time>
      </trkpt>
      <trkpt lat="49.18341" lon="5.99908">
        <ele>316</ele>
        <time>2011-11-06T09:46:25Z</time>
      </trkpt>
      <trkpt lat="49.18338" lon="5.999">
        <ele>316.6</ele>
        <time>2011-11-06T09:46:26Z</time>
      </trkpt>
      <trkpt lat="49.18327" lon="5.99903">
        <ele>316.5</ele>
        <time>2011-11-06T09:46:27Z</time>
      </trkpt>
      <trkpt lat="49.18322" lon="5.99901">
        <ele>317.2</ele>
        <time>2011-11-06T09:46:28Z</time>
      </trkpt>
      <trkpt lat="49.18312" lon="5.99897">
        <ele>316.8</ele>
        <time>2011-11-06T09:46:29Z</time>
      </trkpt>
      <trkpt lat="49.18305" lon="5.99895">
        <ele>317</ele>
        <time>2011-11-06T09:46:30Z</time>
      </trkpt>
      <trkpt lat="49.18296" lon="5.99889">
        <ele>316.6</ele>
        <time>2011-11-06T09:46:31Z</time>
      </trkpt>
      <trkpt lat="49.1829" lon="5.99886">
        <ele>316.6</ele>
        <time>2011-11-06T09:46:32Z</time>
      </trkpt>
      <trkpt lat="49.18282" lon="5.99884">
        <ele>316.2</ele>
        <time>2011-11-06T09:46:33Z</time>
      </trkpt>
      <trkpt lat="49.18276" lon="5.99881">
        <ele>316.6</ele>
        <time>2011-11-06T09:46:34Z</time>
      </trkpt>
      <trkpt lat="49.18266" lon="5.99881">
        <ele>316.6</ele>
        <time>2011-11-06T09:46:35Z</time>
      </trkpt>
      <trkpt lat="49.18253" lon="5.99874">
        <ele>315.1</ele>
        <time>2011-11-06T09:46:36Z</time>
      </trkpt>
      <trkpt lat="49.18245" lon="5.9987">
        <ele>315.1</ele>
        <time>2011-11-06T09:46:37Z</time>
      </trkpt>
      <trkpt lat="49.18236" lon="5.99866">
        <ele>315</ele>
        <time>2011-11-06T09:46:38Z</time>
      </trkpt>
      <trkpt lat="49.18229" lon="5.99862">
        <ele>315</ele>
        <time>2011-11-06T09:46:39Z</time>
      </trkpt>
      <trkpt lat="49.18222" lon="5.99857">
        <ele>315</ele>
        <time>2011-11-06T09:46:40Z</time>
      </trkpt>
      <trkpt lat="49.18214" lon="5.99853">
        <ele>314.9</ele>
        <time>2011-11-06T09:46:41Z</time>
      </trkpt>
      <trkpt lat="49.18207" lon="5.9985">
        <ele>314.8</ele>
        <time>2011-11-06T09:46:42Z</time>
      </trkpt>
      <trkpt lat="49.18198" lon="5.99845">
        <ele>314.8</ele>
        <time>2011-11-06T09:46:43Z</time>
      </trkpt>
      <trkpt lat="49.18189" lon="5.99841">
        <ele>314.7</ele>
        <time>2011-11-06T09:46:44Z</time>
      </trkpt>
      <trkpt lat="49.18184" lon="5.99834">
        <ele>314.7</ele>
        <time>2011-11-06T09:46:45Z</time>
      </trkpt>
      <trkpt lat="49.18177" lon="5.9983">
        <ele>314.7</ele>
        <time>2011-11-06T09:46:46Z</time>
      </trkpt>
      <trkpt lat="49.1817" lon="5.99825">
        <ele>314.7</ele>
        <time>2011-11-06T09:46:47Z</time>
      </trkpt>
      <trkpt lat="49.18164" lon="5.9981">
        <ele>314.8</ele>
        <time>2011-11-06T09:46:49Z</time>
      </trkpt>
      <trkpt lat="49.18157" lon="5.99806">
        <ele>314.7</ele>
        <time>2011-11-06T09:46:50Z</time>
      </trkpt>
      <trkpt lat="49.18149" lon="5.99812">
        <ele>314.7</ele>
        <time>2011-11-06T09:46:51Z</time>
      </trkpt>
      <trkpt lat="49.18143" lon="5.9981">
        <ele>314.6</ele>
        <time>2011-11-06T09:46:52Z</time>
      </trkpt>
      <trkpt lat="49.18135" lon="5.99812">
        <ele>314.8</ele>
        <time>2011-11-06T09:46:53Z</time>
      </trkpt>
      <trkpt lat="49.18126" lon="5.99812">
        <ele>315.1</ele>
        <time>2011-11-06T09:46:54Z</time>
      </trkpt>
      <trkpt lat="49.18122" lon="5.99809">
        <ele>315.1</ele>
        <time>2011-11-06T09:46:55Z</time>
      </trkpt>
      <trkpt lat="49.18114" lon="5.9982">
        <ele>316.7</ele>
        <time>2011-11-06T09:46:56Z</time>
      </trkpt>
      <trkpt lat="49.18105" lon="5.99818">
        <ele>316.4</ele>
        <time>2011-11-06T09:46:58Z</time>
      </trkpt>
      <trkpt lat="49.18099" lon="5.9982">
        <ele>315.8</ele>
        <time>2011-11-06T09:46:58Z</time>
      </trkpt>
      <trkpt lat="49.18091" lon="5.9982">
        <ele>317.5</ele>
        <time>2011-11-06T09:46:59Z</time>
      </trkpt>
      <trkpt lat="49.18077" lon="5.99818">
        <ele>317.1</ele>
        <time>2011-11-06T09:47:01Z</time>
      </trkpt>
      <trkpt lat="49.18065" lon="5.99819">
        <ele>317.4</ele>
        <time>2011-11-06T09:47:04Z</time>
      </trkpt>
      <trkpt lat="49.1806" lon="5.99819">
        <ele>321.1</ele>
        <time>2011-11-06T09:47:04Z</time>
      </trkpt>
      <trkpt lat="49.18055" lon="5.99818">
        <ele>321.7</ele>
        <time>2011-11-06T09:47:05Z</time>
      </trkpt>
      <trkpt lat="49.18048" lon="5.99817">
        <ele>323.4</ele>
        <time>2011-11-06T09:47:06Z</time>
      </trkpt>
      <trkpt lat="49.18042" lon="5.99817">
        <ele>323.4</ele>
        <time>2011-11-06T09:47:07Z</time>
      </trkpt>
      <trkpt lat="49.18033" lon="5.99819">
        <ele>323.9</ele>
        <time>2011-11-06T09:47:08Z</time>
      </trkpt>
      <trkpt lat="49.18024" lon="5.99819">
        <ele>323</ele>
        <time>2011-11-06T09:47:09Z</time>
      </trkpt>
      <trkpt lat="49.18017" lon="5.9982">
        <ele>323.1</ele>
        <time>2011-11-06T09:47:10Z</time>
      </trkpt>
      <trkpt lat="49.1801" lon="5.99819">
        <ele>322.3</ele>
        <time>2011-11-06T09:47:11Z</time>
      </trkpt>
      <trkpt lat="49.18004" lon="5.9982">
        <ele>323</ele>
        <time>2011-11-06T09:47:12Z</time>
      </trkpt>
      <trkpt lat="49.17994" lon="5.99822">
        <ele>322.6</ele>
        <time>2011-11-06T09:47:13Z</time>
      </trkpt>
      <trkpt lat="49.17984" lon="5.99822">
        <ele>322.4</ele>
        <time>2011-11-06T09:47:14Z</time>
      </trkpt>
      <trkpt lat="49.17976" lon="5.99822">
        <ele>322.8</ele>
        <time>2011-11-06T09:47:15Z</time>
      </trkpt>
      <trkpt lat="49.17966" lon="5.99825">
        <ele>321.3</ele>
        <time>2011-11-06T09:47:16Z</time>
      </trkpt>
      <trkpt lat="49.1796" lon="5.99825">
        <ele>322.6</ele>
        <time>2011-11-06T09:47:17Z</time>
      </trkpt>
      <trkpt lat="49.17951" lon="5.99824">
        <ele>321.8</ele>
        <time>2011-11-06T09:47:18Z</time>
      </trkpt>
      <trkpt lat="49.17944" lon="5.99824">
        <ele>321.3</ele>
        <time>2011-11-06T09:47:19Z</time>
      </trkpt>
      <trkpt lat="49.17937" lon="5.99823">
        <ele>321.8</ele>
        <time>2011-11-06T09:47:20Z</time>
      </trkpt>
      <trkpt lat="49.1793" lon="5.99822">
        <ele>322.1</ele>
        <time>2011-11-06T09:47:21Z</time>
      </trkpt>
      <trkpt lat="49.17922" lon="5.9982">
        <ele>322.4</ele>
        <time>2011-11-06T09:47:22Z</time>
      </trkpt>
      <trkpt lat="49.17915" lon="5.99817">
        <ele>322.5</ele>
        <time>2011-11-06T09:47:23Z</time>
      </trkpt>
      <trkpt lat="49.17908" lon="5.99814">
        <ele>323</ele>
        <time>2011-11-06T09:47:24Z</time>
      </trkpt>
      <trkpt lat="49.17901" lon="5.99811">
        <ele>323.3</ele>
        <time>2011-11-06T09:47:25Z</time>
      </trkpt>
      <trkpt lat="49.17892" lon="5.99808">
        <ele>323.2</ele>
        <time>2011-11-06T09:47:26Z</time>
      </trkpt>
      <trkpt lat="49.17885" lon="5.99806">
        <ele>322.5</ele>
        <time>2011-11-06T09:47:27Z</time>
      </trkpt>
      <trkpt lat="49.17877" lon="5.99804">
        <ele>323.1</ele>
        <time>2011-11-06T09:47:28Z</time>
      </trkpt>
      <trkpt lat="49.1787" lon="5.99803">
        <ele>323.2</ele>
        <time>2011-11-06T09:47:29Z</time>
      </trkpt>
      <trkpt lat="49.17862" lon="5.99801">
        <ele>323.3</ele>
        <time>2011-11-06T09:47:30Z</time>
      </trkpt>
      <trkpt lat="49.17853" lon="5.99803">
        <ele>323.4</ele>
        <time>2011-11-06T09:47:31Z</time>
      </trkpt>
      <trkpt lat="49.17845" lon="5.99802">
        <ele>324.4</ele>
        <time>2011-11-06T09:47:32Z</time>
      </trkpt>
      <trkpt lat="49.17836" lon="5.99802">
        <ele>323.1</ele>
        <time>2011-11-06T09:47:33Z</time>
      </trkpt>
      <trkpt lat="49.17828" lon="5.99802">
        <ele>323.1</ele>
        <time>2011-11-06T09:47:34Z</time>
      </trkpt>
      <trkpt lat="49.1782" lon="5.99803">
        <ele>323.5</ele>
        <time>2011-11-06T09:47:35Z</time>
      </trkpt>
      <trkpt lat="49.17813" lon="5.99806">
        <ele>323.6</ele>
        <time>2011-11-06T09:47:36Z</time>
      </trkpt>
      <trkpt lat="49.17805" lon="5.99809">
        <ele>324.2</ele>
        <time>2011-11-06T09:47:37Z</time>
      </trkpt>
      <trkpt lat="49.17797" lon="5.99811">
        <ele>324.5</ele>
        <time>2011-11-06T09:47:38Z</time>
      </trkpt>
      <trkpt lat="49.17789" lon="5.99813">
        <ele>325.7</ele>
        <time>2011-11-06T09:47:39Z</time>
      </trkpt>
      <trkpt lat="49.1778" lon="5.99814">
        <ele>325.9</ele>
        <time>2011-11-06T09:47:40Z</time>
      </trkpt>
      <trkpt lat="49.17771" lon="5.99817">
        <ele>325.6</ele>
        <time>2011-11-06T09:47:41Z</time>
      </trkpt>
      <trkpt lat="49.17763" lon="5.99821">
        <ele>325.2</ele>
        <time>2011-11-06T09:47:42Z</time>
      </trkpt>
      <trkpt lat="49.17754" lon="5.99824">
        <ele>325.6</ele>
        <time>2011-11-06T09:47:43Z</time>
      </trkpt>
      <trkpt lat="49.17746" lon="5.99827">
        <ele>326</ele>
        <time>2011-11-06T09:47:44Z</time>
      </trkpt>
      <trkpt lat="49.17738" lon="5.9983">
        <ele>326.2</ele>
        <time>2011-11-06T09:47:45Z</time>
      </trkpt>
      <trkpt lat="49.17729" lon="5.99832">
        <ele>325.1</ele>
        <time>2011-11-06T09:47:46Z</time>
      </trkpt>
      <trkpt lat="49.17721" lon="5.99835">
        <ele>324.6</ele>
        <time>2011-11-06T09:47:47Z</time>
      </trkpt>
      <trkpt lat="49.17712" lon="5.99838">
        <ele>325.1</ele>
        <time>2011-11-06T09:47:48Z</time>
      </trkpt>
      <trkpt lat="49.17703" lon="5.99839">
        <ele>325</ele>
        <time>2011-11-06T09:47:49Z</time>
      </trkpt>
      <trkpt lat="49.17695" lon="5.99839">
        <ele>325.2</ele>
        <time>2011-11-06T09:47:50Z</time>
      </trkpt>
      <trkpt lat="49.17687" lon="5.99841">
        <ele>325.1</ele>
        <time>2011-11-06T09:47:51Z</time>
      </trkpt>
      <trkpt lat="49.17677" lon="5.99842">
        <ele>324.8</ele>
        <time>2011-11-06T09:47:52Z</time>
      </trkpt>
      <trkpt lat="49.17668" lon="5.99844">
        <ele>324.6</ele>
        <time>2011-11-06T09:47:53Z</time>
      </trkpt>
      <trkpt lat="49.1766" lon="5.99844">
        <ele>324.6</ele>
        <time>2011-11-06T09:47:54Z</time>
      </trkpt>
      <trkpt lat="49.17648" lon="5.99843">
        <ele>324.6</ele>
        <time>2011-11-06T09:47:56Z</time>
      </trkpt>
      <trkpt lat="49.17636" lon="5.99843">
        <ele>324.7</ele>
        <time>2011-11-06T09:47:57Z</time>
      </trkpt>
      <trkpt lat="49.17628" lon="5.9984">
        <ele>324.7</ele>
        <time>2011-11-06T09:47:58Z</time>
      </trkpt>
      <trkpt lat="49.17619" lon="5.9984">
        <ele>325</ele>
        <time>2011-11-06T09:47:59Z</time>
      </trkpt>
      <trkpt lat="49.1761" lon="5.99838">
        <ele>325.3</ele>
        <time>2011-11-06T09:48:00Z</time>
      </trkpt>
      <trkpt lat="49.17604" lon="5.99838">
        <ele>325</ele>
        <time>2011-11-06T09:48:01Z</time>
      </trkpt>
      <trkpt lat="49.17595" lon="5.99834">
        <ele>325.7</ele>
        <time>2011-11-06T09:48:03Z</time>
      </trkpt>
      <trkpt lat="49.17588" lon="5.9983">
        <ele>326.1</ele>
        <time>2011-11-06T09:48:04Z</time>
      </trkpt>
      <trkpt lat="49.17583" lon="5.99827">
        <ele>325.7</ele>
        <time>2011-11-06T09:48:05Z</time>
      </trkpt>
      <trkpt lat="49.17575" lon="5.99825">
        <ele>328.7</ele>
        <time>2011-11-06T09:48:07Z</time>
      </trkpt>
      <trkpt lat="49.17569" lon="5.99824">
        <ele>327.9</ele>
        <time>2011-11-06T09:48:08Z</time>
      </trkpt>
      <trkpt lat="49.17563" lon="5.99825">
        <ele>327.5</ele>
        <time>2011-11-06T09:48:09Z</time>
      </trkpt>
      <trkpt lat="49.17557" lon="5.99826">
        <ele>327.4</ele>
        <time>2011-11-06T09:48:10Z</time>
      </trkpt>
      <trkpt lat="49.17551" lon="5.99831">
        <ele>326.7</ele>
        <time>2011-11-06T09:48:11Z</time>
      </trkpt>
      <trkpt lat="49.17544" lon="5.99837">
        <ele>327.5</ele>
        <time>2011-11-06T09:48:12Z</time>
      </trkpt>
      <trkpt lat="49.17538" lon="5.99841">
        <ele>327.6</ele>
        <time>2011-11-06T09:48:13Z</time>
      </trkpt>
      <trkpt lat="49.17531" lon="5.99843">
        <ele>327.8</ele>
        <time>2011-11-06T09:48:14Z</time>
      </trkpt>
      <trkpt lat="49.17524" lon="5.99844">
        <ele>326.1</ele>
        <time>2011-11-06T09:48:15Z</time>
      </trkpt>
      <trkpt lat="49.17516" lon="5.99845">
        <ele>326.4</ele>
        <time>2011-11-06T09:48:16Z</time>
      </trkpt>
      <trkpt lat="49.17509" lon="5.99845">
        <ele>326.3</ele>
        <time>2011-11-06T09:48:17Z</time>
      </trkpt>
      <trkpt lat="49.17502" lon="5.99846">
        <ele>325.8</ele>
        <time>2011-11-06T09:48:18Z</time>
      </trkpt>
      <trkpt lat="49.17495" lon="5.99847">
        <ele>325.2</ele>
        <time>2011-11-06T09:48:19Z</time>
      </trkpt>
      <trkpt lat="49.17489" lon="5.99848">
        <ele>325.3</ele>
        <time>2011-11-06T09:48:20Z</time>
      </trkpt>
      <trkpt lat="49.17483" lon="5.99848">
        <ele>326.1</ele>
        <time>2011-11-06T09:48:21Z</time>
      </trkpt>
      <trkpt lat="49.17477" lon="5.99848">
        <ele>326.3</ele>
        <time>2011-11-06T09:48:22Z</time>
      </trkpt>
      <trkpt lat="49.1747" lon="5.99848">
        <ele>326.4</ele>
        <time>2011-11-06T09:48:23Z</time>
      </trkpt>
      <trkpt lat="49.17464" lon="5.99848">
        <ele>326.4</ele>
        <time>2011-11-06T09:48:24Z</time>
      </trkpt>
      <trkpt lat="49.17457" lon="5.99848">
        <ele>326.4</ele>
        <time>2011-11-06T09:48:25Z</time>
      </trkpt>
      <trkpt lat="49.17451" lon="5.9985">
        <ele>326.5</ele>
        <time>2011-11-06T09:48:26Z</time>
      </trkpt>
      <trkpt lat="49.17446" lon="5.99852">
        <ele>325.8</ele>
        <time>2011-11-06T09:48:27Z</time>
      </trkpt>
      <trkpt lat="49.17439" lon="5.99851">
        <ele>325.9</ele>
        <time>2011-11-06T09:48:28Z</time>
      </trkpt>
      <trkpt lat="49.17433" lon="5.99849">
        <ele>325.8</ele>
        <time>2011-11-06T09:48:29Z</time>
      </trkpt>
      <trkpt lat="49.17422" lon="5.9985">
        <ele>324.8</ele>
        <time>2011-11-06T09:48:30Z</time>
      </trkpt>
      <trkpt lat="49.17416" lon="5.9985">
        <ele>324.6</ele>
        <time>2011-11-06T09:48:31Z</time>
      </trkpt>
      <trkpt lat="49.17409" lon="5.99849">
        <ele>324.6</ele>
        <time>2011-11-06T09:48:32Z</time>
      </trkpt>
      <trkpt lat="49.174" lon="5.9985">
        <ele>324</ele>
        <time>2011-11-06T09:48:33Z</time>
      </trkpt>
      <trkpt lat="49.17393" lon="5.99851">
        <ele>323.9</ele>
        <time>2011-11-06T09:48:34Z</time>
      </trkpt>
      <trkpt lat="49.17387" lon="5.99852">
        <ele>324.3</ele>
        <time>2011-11-06T09:48:35Z</time>
      </trkpt>
      <trkpt lat="49.1738" lon="5.99853">
        <ele>324.6</ele>
        <time>2011-11-06T09:48:36Z</time>
      </trkpt>
      <trkpt lat="49.17372" lon="5.99854">
        <ele>324.4</ele>
        <time>2011-11-06T09:48:37Z</time>
      </trkpt>
      <trkpt lat="49.17364" lon="5.99855">
        <ele>324.2</ele>
        <time>2011-11-06T09:48:38Z</time>
      </trkpt>
      <trkpt lat="49.17357" lon="5.99856">
        <ele>324.1</ele>
        <time>2011-11-06T09:48:39Z</time>
      </trkpt>
      <trkpt lat="49.17348" lon="5.99858">
        <ele>324</ele>
        <time>2011-11-06T09:48:40Z</time>
      </trkpt>
      <trkpt lat="49.1734" lon="5.9986">
        <ele>323.7</ele>
        <time>2011-11-06T09:48:41Z</time>
      </trkpt>
      <trkpt lat="49.17332" lon="5.99861">
        <ele>323.7</ele>
        <time>2011-11-06T09:48:42Z</time>
      </trkpt>
      <trkpt lat="49.17323" lon="5.99864">
        <ele>323.7</ele>
        <time>2011-11-06T09:48:43Z</time>
      </trkpt>
      <trkpt lat="49.17315" lon="5.99868">
        <ele>324.6</ele>
        <time>2011-11-06T09:48:44Z</time>
      </trkpt>
      <trkpt lat="49.17305" lon="5.99871">
        <ele>324.3</ele>
        <time>2011-11-06T09:48:45Z</time>
      </trkpt>
      <trkpt lat="49.17296" lon="5.99876">
        <ele>324.2</ele>
        <time>2011-11-06T09:48:46Z</time>
      </trkpt>
      <trkpt lat="49.17287" lon="5.9988">
        <ele>323.8</ele>
        <time>2011-11-06T09:48:47Z</time>
      </trkpt>
      <trkpt lat="49.17278" lon="5.99885">
        <ele>323.2</ele>
        <time>2011-11-06T09:48:48Z</time>
      </trkpt>
      <trkpt lat="49.17268" lon="5.9989">
        <ele>322.8</ele>
        <time>2011-11-06T09:48:49Z</time>
      </trkpt>
      <trkpt lat="49.17259" lon="5.99895">
        <ele>322.9</ele>
        <time>2011-11-06T09:48:50Z</time>
      </trkpt>
      <trkpt lat="49.17251" lon="5.99902">
        <ele>322.3</ele>
        <time>2011-11-06T09:48:51Z</time>
      </trkpt>
      <trkpt lat="49.17242" lon="5.9991">
        <ele>322.4</ele>
        <time>2011-11-06T09:48:52Z</time>
      </trkpt>
      <trkpt lat="49.17232" lon="5.99919">
        <ele>321.9</ele>
        <time>2011-11-06T09:48:53Z</time>
      </trkpt>
      <trkpt lat="49.17224" lon="5.99927">
        <ele>320.3</ele>
        <time>2011-11-06T09:48:54Z</time>
      </trkpt>
      <trkpt lat="49.17209" lon="5.9994">
        <ele>319.5</ele>
        <time>2011-11-06T09:48:56Z</time>
      </trkpt>
      <trkpt lat="49.17195" lon="5.99952">
        <ele>319.2</ele>
        <time>2011-11-06T09:48:57Z</time>
      </trkpt>
      <trkpt lat="49.17186" lon="5.99961">
        <ele>319.2</ele>
        <time>2011-11-06T09:48:58Z</time>
      </trkpt>
      <trkpt lat="49.17177" lon="5.99971">
        <ele>319</ele>
        <time>2011-11-06T09:48:59Z</time>
      </trkpt>
      <trkpt lat="49.17168" lon="5.99979">
        <ele>318.9</ele>
        <time>2011-11-06T09:49:00Z</time>
      </trkpt>
      <trkpt lat="49.17159" lon="5.99988">
        <ele>318.6</ele>
        <time>2011-11-06T09:49:01Z</time>
      </trkpt>
      <trkpt lat="49.1715" lon="5.99996">
        <ele>318.5</ele>
        <time>2011-11-06T09:49:02Z</time>
      </trkpt>
      <trkpt lat="49.17141" lon="6.00005">
        <ele>318.5</ele>
        <time>2011-11-06T09:49:03Z</time>
      </trkpt>
      <trkpt lat="49.1713" lon="6.00012">
        <ele>318.9</ele>
        <time>2011-11-06T09:49:04Z</time>
      </trkpt>
      <trkpt lat="49.17121" lon="6.0002">
        <ele>319</ele>
        <time>2011-11-06T09:49:05Z</time>
      </trkpt>
      <trkpt lat="49.17111" lon="6.00028">
        <ele>318.8</ele>
        <time>2011-11-06T09:49:06Z</time>
      </trkpt>
      <trkpt lat="49.17102" lon="6.00036">
        <ele>318.8</ele>
        <time>2011-11-06T09:49:07Z</time>
      </trkpt>
      <trkpt lat="49.17093" lon="6.00044">
        <ele>318.8</ele>
        <time>2011-11-06T09:49:08Z</time>
      </trkpt>
      <trkpt lat="49.17083" lon="6.00052">
        <ele>318.7</ele>
        <time>2011-11-06T09:49:09Z</time>
      </trkpt>
      <trkpt lat="49.17074" lon="6.0006">
        <ele>318.7</ele>
        <time>2011-11-06T09:49:10Z</time>
      </trkpt>
      <trkpt lat="49.17065" lon="6.0007">
        <ele>318.6</ele>
        <time>2011-11-06T09:49:11Z</time>
      </trkpt>
      <trkpt lat="49.17056" lon="6.00073">
        <ele>318.5</ele>
        <time>2011-11-06T09:49:13Z</time>
      </trkpt>
      <trkpt lat="49.17048" lon="6.0008">
        <ele>318.5</ele>
        <time>2011-11-06T09:49:14Z</time>
      </trkpt>
      <trkpt lat="49.17041" lon="6.00079">
        <ele>318.4</ele>
        <time>2011-11-06T09:49:15Z</time>
      </trkpt>
      <trkpt lat="49.17033" lon="6.00087">
        <ele>317.7</ele>
        <time>2011-11-06T09:49:16Z</time>
      </trkpt>
      <trkpt lat="49.17023" lon="6.00095">
        <ele>317.7</ele>
        <time>2011-11-06T09:49:17Z</time>
      </trkpt>
      <trkpt lat="49.17015" lon="6.00102">
        <ele>317.4</ele>
        <time>2011-11-06T09:49:18Z</time>
      </trkpt>
      <trkpt lat="49.17007" lon="6.00108">
        <ele>317.4</ele>
        <time>2011-11-06T09:49:19Z</time>
      </trkpt>
      <trkpt lat="49.16997" lon="6.0011">
        <ele>317.2</ele>
        <time>2011-11-06T09:49:20Z</time>
      </trkpt>
      <trkpt lat="49.16987" lon="6.00118">
        <ele>317.2</ele>
        <time>2011-11-06T09:49:21Z</time>
      </trkpt>
      <trkpt lat="49.16976" lon="6.00119">
        <ele>317.1</ele>
        <time>2011-11-06T09:49:22Z</time>
      </trkpt>
      <trkpt lat="49.16967" lon="6.00124">
        <ele>317</ele>
        <time>2011-11-06T09:49:23Z</time>
      </trkpt>
      <trkpt lat="49.16959" lon="6.00126">
        <ele>317</ele>
        <time>2011-11-06T09:49:24Z</time>
      </trkpt>
      <trkpt lat="49.16944" lon="6.00138">
        <ele>317.7</ele>
        <time>2011-11-06T09:49:25Z</time>
      </trkpt>
      <trkpt lat="49.16935" lon="6.00143">
        <ele>317.7</ele>
        <time>2011-11-06T09:49:26Z</time>
      </trkpt>
      <trkpt lat="49.16924" lon="6.00149">
        <ele>317.7</ele>
        <time>2011-11-06T09:49:27Z</time>
      </trkpt>
      <trkpt lat="49.16914" lon="6.00151">
        <ele>317.6</ele>
        <time>2011-11-06T09:49:28Z</time>
      </trkpt>
      <trkpt lat="49.16904" lon="6.00156">
        <ele>317.6</ele>
        <time>2011-11-06T09:49:29Z</time>
      </trkpt>
      <trkpt lat="49.16896" lon="6.00166">
        <ele>317.6</ele>
        <time>2011-11-06T09:49:30Z</time>
      </trkpt>
      <trkpt lat="49.16886" lon="6.00169">
        <ele>317.6</ele>
        <time>2011-11-06T09:49:31Z</time>
      </trkpt>
      <trkpt lat="49.16876" lon="6.00175">
        <ele>318.3</ele>
        <time>2011-11-06T09:49:32Z</time>
      </trkpt>
      <trkpt lat="49.16866" lon="6.00177">
        <ele>318.2</ele>
        <time>2011-11-06T09:49:33Z</time>
      </trkpt>
      <trkpt lat="49.16859" lon="6.00174">
        <ele>318.3</ele>
        <time>2011-11-06T09:49:34Z</time>
      </trkpt>
      <trkpt lat="49.16849" lon="6.00174">
        <ele>318.1</ele>
        <time>2011-11-06T09:49:35Z</time>
      </trkpt>
      <trkpt lat="49.1684" lon="6.00167">
        <ele>318.1</ele>
        <time>2011-11-06T09:49:37Z</time>
      </trkpt>
      <trkpt lat="49.16835" lon="6.00161">
        <ele>318.6</ele>
        <time>2011-11-06T09:49:38Z</time>
      </trkpt>
      <trkpt lat="49.16826" lon="6.00162">
        <ele>318.6</ele>
        <time>2011-11-06T09:49:39Z</time>
      </trkpt>
      <trkpt lat="49.16818" lon="6.00162">
        <ele>318.6</ele>
        <time>2011-11-06T09:49:40Z</time>
      </trkpt>
      <trkpt lat="49.16808" lon="6.00158">
        <ele>318.7</ele>
        <time>2011-11-06T09:49:41Z</time>
      </trkpt>
      <trkpt lat="49.16798" lon="6.00159">
        <ele>318.9</ele>
        <time>2011-11-06T09:49:42Z</time>
      </trkpt>
      <trkpt lat="49.16792" lon="6.00157">
        <ele>319</ele>
        <time>2011-11-06T09:49:43Z</time>
      </trkpt>
      <trkpt lat="49.16783" lon="6.00157">
        <ele>318.9</ele>
        <time>2011-11-06T09:49:44Z</time>
      </trkpt>
      <trkpt lat="49.16774" lon="6.00159">
        <ele>318.9</ele>
        <time>2011-11-06T09:49:45Z</time>
      </trkpt>
      <trkpt lat="49.16769" lon="6.00156">
        <ele>318.9</ele>
        <time>2011-11-06T09:49:46Z</time>
      </trkpt>
      <trkpt lat="49.16758" lon="6.00158">
        <ele>318.8</ele>
        <time>2011-11-06T09:49:47Z</time>
      </trkpt>
      <trkpt lat="49.16748" lon="6.00163">
        <ele>318.9</ele>
        <time>2011-11-06T09:49:48Z</time>
      </trkpt>
      <trkpt lat="49.16736" lon="6.00167">
        <ele>318.8</ele>
        <time>2011-11-06T09:49:49Z</time>
      </trkpt>
      <trkpt lat="49.16728" lon="6.00164">
        <ele>318.5</ele>
        <time>2011-11-06T09:49:50Z</time>
      </trkpt>
      <trkpt lat="49.16721" lon="6.0016">
        <ele>318.4</ele>
        <time>2011-11-06T09:49:51Z</time>
      </trkpt>
      <trkpt lat="49.16714" lon="6.00155">
        <ele>318.3</ele>
        <time>2011-11-06T09:49:52Z</time>
      </trkpt>
      <trkpt lat="49.16702" lon="6.00154">
        <ele>318.1</ele>
        <time>2011-11-06T09:49:53Z</time>
      </trkpt>
      <trkpt lat="49.16693" lon="6.00148">
        <ele>317.8</ele>
        <time>2011-11-06T09:49:54Z</time>
      </trkpt>
      <trkpt lat="49.16676" lon="6.00158">
        <ele>321.1</ele>
        <time>2011-11-06T09:49:56Z</time>
      </trkpt>
      <trkpt lat="49.16662" lon="6.00163">
        <ele>323.1</ele>
        <time>2011-11-06T09:49:57Z</time>
      </trkpt>
      <trkpt lat="49.16655" lon="6.0016">
        <ele>324.9</ele>
        <time>2011-11-06T09:49:58Z</time>
      </trkpt>
      <trkpt lat="49.16647" lon="6.0016">
        <ele>327.9</ele>
        <time>2011-11-06T09:49:59Z</time>
      </trkpt>
      <trkpt lat="49.16639" lon="6.00161">
        <ele>328.7</ele>
        <time>2011-11-06T09:50:00Z</time>
      </trkpt>
      <trkpt lat="49.1663" lon="6.0016">
        <ele>328</ele>
        <time>2011-11-06T09:50:01Z</time>
      </trkpt>
      <trkpt lat="49.16621" lon="6.00158">
        <ele>328.7</ele>
        <time>2011-11-06T09:50:02Z</time>
      </trkpt>
      <trkpt lat="49.16613" lon="6.00157">
        <ele>329</ele>
        <time>2011-11-06T09:50:03Z</time>
      </trkpt>
      <trkpt lat="49.16605" lon="6.00156">
        <ele>329</ele>
        <time>2011-11-06T09:50:04Z</time>
      </trkpt>
      <trkpt lat="49.16596" lon="6.00155">
        <ele>328.8</ele>
        <time>2011-11-06T09:50:05Z</time>
      </trkpt>
      <trkpt lat="49.16586" lon="6.00154">
        <ele>329</ele>
        <time>2011-11-06T09:50:06Z</time>
      </trkpt>
      <trkpt lat="49.16578" lon="6.00152">
        <ele>328.6</ele>
        <time>2011-11-06T09:50:07Z</time>
      </trkpt>
      <trkpt lat="49.16568" lon="6.0015">
        <ele>330.2</ele>
        <time>2011-11-06T09:50:08Z</time>
      </trkpt>
      <trkpt lat="49.16558" lon="6.00149">
        <ele>330.9</ele>
        <time>2011-11-06T09:50:09Z</time>
      </trkpt>
      <trkpt lat="49.1655" lon="6.00148">
        <ele>330.9</ele>
        <time>2011-11-06T09:50:10Z</time>
      </trkpt>
      <trkpt lat="49.16541" lon="6.00149">
        <ele>331</ele>
        <time>2011-11-06T09:50:11Z</time>
      </trkpt>
      <trkpt lat="49.16532" lon="6.00146">
        <ele>331.6</ele>
        <time>2011-11-06T09:50:12Z</time>
      </trkpt>
      <trkpt lat="49.1652" lon="6.00146">
        <ele>331.5</ele>
        <time>2011-11-06T09:50:13Z</time>
      </trkpt>
      <trkpt lat="49.16506" lon="6.00142">
        <ele>331.5</ele>
        <time>2011-11-06T09:50:15Z</time>
      </trkpt>
      <trkpt lat="49.16494" lon="6.00142">
        <ele>330.6</ele>
        <time>2011-11-06T09:50:16Z</time>
      </trkpt>
      <trkpt lat="49.16486" lon="6.00142">
        <ele>329.8</ele>
        <time>2011-11-06T09:50:17Z</time>
      </trkpt>
      <trkpt lat="49.16476" lon="6.00143">
        <ele>329.6</ele>
        <time>2011-11-06T09:50:18Z</time>
      </trkpt>
      <trkpt lat="49.1647" lon="6.00142">
        <ele>330.6</ele>
        <time>2011-11-06T09:50:19Z</time>
      </trkpt>
      <trkpt lat="49.16463" lon="6.00138">
        <ele>330.7</ele>
        <time>2011-11-06T09:50:20Z</time>
      </trkpt>
      <trkpt lat="49.16455" lon="6.00137">
        <ele>331.4</ele>
        <time>2011-11-06T09:50:21Z</time>
      </trkpt>
      <trkpt lat="49.16444" lon="6.00139">
        <ele>331.4</ele>
        <time>2011-11-06T09:50:22Z</time>
      </trkpt>
      <trkpt lat="49.16436" lon="6.00137">
        <ele>331.7</ele>
        <time>2011-11-06T09:50:23Z</time>
      </trkpt>
      <trkpt lat="49.16426" lon="6.00134">
        <ele>332.3</ele>
        <time>2011-11-06T09:50:24Z</time>
      </trkpt>
      <trkpt lat="49.16418" lon="6.00132">
        <ele>332.5</ele>
        <time>2011-11-06T09:50:25Z</time>
      </trkpt>
      <trkpt lat="49.16411" lon="6.00132">
        <ele>331.7</ele>
        <time>2011-11-06T09:50:26Z</time>
      </trkpt>
      <trkpt lat="49.16402" lon="6.0013">
        <ele>331.6</ele>
        <time>2011-11-06T09:50:27Z</time>
      </trkpt>
      <trkpt lat="49.16396" lon="6.00129">
        <ele>332</ele>
        <time>2011-11-06T09:50:28Z</time>
      </trkpt>
      <trkpt lat="49.16386" lon="6.00129">
        <ele>332.2</ele>
        <time>2011-11-06T09:50:29Z</time>
      </trkpt>
      <trkpt lat="49.16381" lon="6.00126">
        <ele>333.5</ele>
        <time>2011-11-06T09:50:30Z</time>
      </trkpt>
      <trkpt lat="49.16372" lon="6.00126">
        <ele>333.8</ele>
        <time>2011-11-06T09:50:31Z</time>
      </trkpt>
      <trkpt lat="49.16364" lon="6.00125">
        <ele>334.1</ele>
        <time>2011-11-06T09:50:32Z</time>
      </trkpt>
      <trkpt lat="49.16353" lon="6.00125">
        <ele>334.9</ele>
        <time>2011-11-06T09:50:33Z</time>
      </trkpt>
      <trkpt lat="49.16344" lon="6.00124">
        <ele>334.8</ele>
        <time>2011-11-06T09:50:34Z</time>
      </trkpt>
      <trkpt lat="49.16335" lon="6.00125">
        <ele>334.4</ele>
        <time>2011-11-06T09:50:35Z</time>
      </trkpt>
      <trkpt lat="49.16328" lon="6.00125">
        <ele>334.3</ele>
        <time>2011-11-06T09:50:36Z</time>
      </trkpt>
      <trkpt lat="49.16317" lon="6.00126">
        <ele>333.3</ele>
        <time>2011-11-06T09:50:37Z</time>
      </trkpt>
      <trkpt lat="49.16311" lon="6.00126">
        <ele>333.4</ele>
        <time>2011-11-06T09:50:38Z</time>
      </trkpt>
      <trkpt lat="49.16303" lon="6.00127">
        <ele>333.8</ele>
        <time>2011-11-06T09:50:39Z</time>
      </trkpt>
      <trkpt lat="49.16296" lon="6.00126">
        <ele>333.9</ele>
        <time>2011-11-06T09:50:40Z</time>
      </trkpt>
      <trkpt lat="49.16284" lon="6.00126">
        <ele>333.3</ele>
        <time>2011-11-06T09:50:41Z</time>
      </trkpt>
      <trkpt lat="49.16278" lon="6.00127">
        <ele>332.9</ele>
        <time>2011-11-06T09:50:42Z</time>
      </trkpt>
      <trkpt lat="49.1627" lon="6.00127">
        <ele>333</ele>
        <time>2011-11-06T09:50:43Z</time>
      </trkpt>
      <trkpt lat="49.16263" lon="6.00127">
        <ele>333.1</ele>
        <time>2011-11-06T09:50:44Z</time>
      </trkpt>
      <trkpt lat="49.16258" lon="6.00126">
        <ele>333.6</ele>
        <time>2011-11-06T09:50:45Z</time>
      </trkpt>
      <trkpt lat="49.16249" lon="6.00125">
        <ele>334.3</ele>
        <time>2011-11-06T09:50:46Z</time>
      </trkpt>
      <trkpt lat="49.16241" lon="6.00122">
        <ele>335.8</ele>
        <time>2011-11-06T09:50:47Z</time>
      </trkpt>
      <trkpt lat="49.16235" lon="6.00121">
        <ele>337.7</ele>
        <time>2011-11-06T09:50:48Z</time>
      </trkpt>
      <trkpt lat="49.16227" lon="6.00121">
        <ele>337.7</ele>
        <time>2011-11-06T09:50:49Z</time>
      </trkpt>
      <trkpt lat="49.16219" lon="6.0012">
        <ele>338.3</ele>
        <time>2011-11-06T09:50:50Z</time>
      </trkpt>
      <trkpt lat="49.1621" lon="6.00121">
        <ele>338.1</ele>
        <time>2011-11-06T09:50:51Z</time>
      </trkpt>
      <trkpt lat="49.162" lon="6.0012">
        <ele>338.9</ele>
        <time>2011-11-06T09:50:52Z</time>
      </trkpt>
      <trkpt lat="49.16193" lon="6.00122">
        <ele>338.7</ele>
        <time>2011-11-06T09:50:53Z</time>
      </trkpt>
      <trkpt lat="49.16184" lon="6.00123">
        <ele>339.1</ele>
        <time>2011-11-06T09:50:54Z</time>
      </trkpt>
      <trkpt lat="49.16169" lon="6.00125">
        <ele>339.4</ele>
        <time>2011-11-06T09:50:56Z</time>
      </trkpt>
      <trkpt lat="49.1616" lon="6.00125">
        <ele>340.4</ele>
        <time>2011-11-06T09:50:57Z</time>
      </trkpt>
      <trkpt lat="49.1615" lon="6.00125">
        <ele>340.3</ele>
        <time>2011-11-06T09:50:58Z</time>
      </trkpt>
      <trkpt lat="49.16142" lon="6.00125">
        <ele>339.7</ele>
        <time>2011-11-06T09:50:59Z</time>
      </trkpt>
      <trkpt lat="49.16136" lon="6.00125">
        <ele>339.8</ele>
        <time>2011-11-06T09:51:00Z</time>
      </trkpt>
      <trkpt lat="49.16129" lon="6.00124">
        <ele>339.6</ele>
        <time>2011-11-06T09:51:01Z</time>
      </trkpt>
      <trkpt lat="49.1612" lon="6.00122">
        <ele>339.6</ele>
        <time>2011-11-06T09:51:02Z</time>
      </trkpt>
      <trkpt lat="49.1611" lon="6.00126">
        <ele>339.4</ele>
        <time>2011-11-06T09:51:03Z</time>
      </trkpt>
      <trkpt lat="49.16102" lon="6.00125">
        <ele>339.7</ele>
        <time>2011-11-06T09:51:04Z</time>
      </trkpt>
      <trkpt lat="49.16094" lon="6.00124">
        <ele>340.1</ele>
        <time>2011-11-06T09:51:05Z</time>
      </trkpt>
      <trkpt lat="49.16086" lon="6.00125">
        <ele>340.1</ele>
        <time>2011-11-06T09:51:06Z</time>
      </trkpt>
      <trkpt lat="49.16078" lon="6.00123">
        <ele>339.6</ele>
        <time>2011-11-06T09:51:07Z</time>
      </trkpt>
      <trkpt lat="49.1607" lon="6.00124">
        <ele>339.5</ele>
        <time>2011-11-06T09:51:08Z</time>
      </trkpt>
      <trkpt lat="49.16061" lon="6.00123">
        <ele>339.5</ele>
        <time>2011-11-06T09:51:09Z</time>
      </trkpt>
      <trkpt lat="49.16054" lon="6.00125">
        <ele>339.5</ele>
        <time>2011-11-06T09:51:10Z</time>
      </trkpt>
      <trkpt lat="49.16046" lon="6.00125">
        <ele>339.6</ele>
        <time>2011-11-06T09:51:11Z</time>
      </trkpt>
      <trkpt lat="49.16038" lon="6.00126">
        <ele>340</ele>
        <time>2011-11-06T09:51:12Z</time>
      </trkpt>
      <trkpt lat="49.1603" lon="6.00126">
        <ele>340</ele>
        <time>2011-11-06T09:51:13Z</time>
      </trkpt>
      <trkpt lat="49.16023" lon="6.00127">
        <ele>340</ele>
        <time>2011-11-06T09:51:14Z</time>
      </trkpt>
      <trkpt lat="49.16015" lon="6.00127">
        <ele>340</ele>
        <time>2011-11-06T09:51:15Z</time>
      </trkpt>
      <trkpt lat="49.16008" lon="6.00128">
        <ele>340.5</ele>
        <time>2011-11-06T09:51:16Z</time>
      </trkpt>
      <trkpt lat="49.16" lon="6.00129">
        <ele>340.5</ele>
        <time>2011-11-06T09:51:17Z</time>
      </trkpt>
      <trkpt lat="49.15992" lon="6.00129">
        <ele>340.4</ele>
        <time>2011-11-06T09:51:18Z</time>
      </trkpt>
      <trkpt lat="49.15984" lon="6.00129">
        <ele>340.3</ele>
        <time>2011-11-06T09:51:19Z</time>
      </trkpt>
      <trkpt lat="49.15977" lon="6.00129">
        <ele>340.3</ele>
        <time>2011-11-06T09:51:20Z</time>
      </trkpt>
      <trkpt lat="49.15969" lon="6.00129">
        <ele>340.3</ele>
        <time>2011-11-06T09:51:21Z</time>
      </trkpt>
      <trkpt lat="49.15966" lon="6.00136">
        <ele>340.3</ele>
        <time>2011-11-06T09:51:22Z</time>
      </trkpt>
      <trkpt lat="49.15954" lon="6.00149">
        <ele>340.2</ele>
        <time>2011-11-06T09:51:23Z</time>
      </trkpt>
      <trkpt lat="49.15947" lon="6.00152">
        <ele>340.2</ele>
        <time>2011-11-06T09:51:24Z</time>
      </trkpt>
      <trkpt lat="49.15941" lon="6.00158">
        <ele>340.1</ele>
        <time>2011-11-06T09:51:25Z</time>
      </trkpt>
      <trkpt lat="49.15936" lon="6.00165">
        <ele>339.8</ele>
        <time>2011-11-06T09:51:26Z</time>
      </trkpt>
      <trkpt lat="49.15928" lon="6.00168">
        <ele>339.7</ele>
        <time>2011-11-06T09:51:27Z</time>
      </trkpt>
      <trkpt lat="49.1592" lon="6.00171">
        <ele>340</ele>
        <time>2011-11-06T09:51:28Z</time>
      </trkpt>
      <trkpt lat="49.15913" lon="6.00174">
        <ele>340</ele>
        <time>2011-11-06T09:51:29Z</time>
      </trkpt>
      <trkpt lat="49.15905" lon="6.00177">
        <ele>339.9</ele>
        <time>2011-11-06T09:51:30Z</time>
      </trkpt>
      <trkpt lat="49.15901" lon="6.00166">
        <ele>339.7</ele>
        <time>2011-11-06T09:51:31Z</time>
      </trkpt>
      <trkpt lat="49.15895" lon="6.00167">
        <ele>339.6</ele>
        <time>2011-11-06T09:51:32Z</time>
      </trkpt>
      <trkpt lat="49.15889" lon="6.00167">
        <ele>339.7</ele>
        <time>2011-11-06T09:51:33Z</time>
      </trkpt>
      <trkpt lat="49.1588" lon="6.00159">
        <ele>339.2</ele>
        <time>2011-11-06T09:51:34Z</time>
      </trkpt>
      <trkpt lat="49.15872" lon="6.00159">
        <ele>339.2</ele>
        <time>2011-11-06T09:51:35Z</time>
      </trkpt>
      <trkpt lat="49.15866" lon="6.00159">
        <ele>340</ele>
        <time>2011-11-06T09:51:36Z</time>
      </trkpt>
      <trkpt lat="49.15865" lon="6.0015">
        <ele>340.3</ele>
        <time>2011-11-06T09:51:37Z</time>
      </trkpt>
      <trkpt lat="49.1586" lon="6.00138">
        <ele>339.7</ele>
        <time>2011-11-06T09:51:38Z</time>
      </trkpt>
      <trkpt lat="49.15853" lon="6.00136">
        <ele>339.6</ele>
        <time>2011-11-06T09:51:39Z</time>
      </trkpt>
      <trkpt lat="49.15843" lon="6.00144">
        <ele>340.2</ele>
        <time>2011-11-06T09:51:40Z</time>
      </trkpt>
      <trkpt lat="49.15838" lon="6.00139">
        <ele>340.6</ele>
        <time>2011-11-06T09:51:41Z</time>
      </trkpt>
      <trkpt lat="49.15831" lon="6.00138">
        <ele>341.1</ele>
        <time>2011-11-06T09:51:42Z</time>
      </trkpt>
      <trkpt lat="49.15825" lon="6.00133">
        <ele>340.7</ele>
        <time>2011-11-06T09:51:43Z</time>
      </trkpt>
      <trkpt lat="49.15817" lon="6.00131">
        <ele>341.7</ele>
        <time>2011-11-06T09:51:44Z</time>
      </trkpt>
      <trkpt lat="49.1581" lon="6.00132">
        <ele>341.8</ele>
        <time>2011-11-06T09:51:45Z</time>
      </trkpt>
      <trkpt lat="49.15803" lon="6.00131">
        <ele>341.9</ele>
        <time>2011-11-06T09:51:46Z</time>
      </trkpt>
      <trkpt lat="49.15796" lon="6.00131">
        <ele>342</ele>
        <time>2011-11-06T09:51:47Z</time>
      </trkpt>
      <trkpt lat="49.15789" lon="6.00131">
        <ele>342</ele>
        <time>2011-11-06T09:51:48Z</time>
      </trkpt>
      <trkpt lat="49.15783" lon="6.00131">
        <ele>342</ele>
        <time>2011-11-06T09:51:49Z</time>
      </trkpt>
      <trkpt lat="49.15776" lon="6.00131">
        <ele>342.4</ele>
        <time>2011-11-06T09:51:50Z</time>
      </trkpt>
      <trkpt lat="49.1577" lon="6.00131">
        <ele>342.5</ele>
        <time>2011-11-06T09:51:51Z</time>
      </trkpt>
      <trkpt lat="49.15763" lon="6.00132">
        <ele>342.5</ele>
        <time>2011-11-06T09:51:52Z</time>
      </trkpt>
      <trkpt lat="49.15755" lon="6.00131">
        <ele>343</ele>
        <time>2011-11-06T09:51:53Z</time>
      </trkpt>
      <trkpt lat="49.15748" lon="6.00131">
        <ele>343.9</ele>
        <time>2011-11-06T09:51:54Z</time>
      </trkpt>
      <trkpt lat="49.15741" lon="6.00131">
        <ele>344.1</ele>
        <time>2011-11-06T09:51:55Z</time>
      </trkpt>
      <trkpt lat="49.15733" lon="6.00129">
        <ele>343.5</ele>
        <time>2011-11-06T09:51:56Z</time>
      </trkpt>
      <trkpt lat="49.15735" lon="6.00111">
        <ele>343.3</ele>
        <time>2011-11-06T09:51:57Z</time>
      </trkpt>
      <trkpt lat="49.15731" lon="6.00106">
        <ele>343.4</ele>
        <time>2011-11-06T09:51:58Z</time>
      </trkpt>
      <trkpt lat="49.15717" lon="6.0012">
        <ele>343.3</ele>
        <time>2011-11-06T09:51:59Z</time>
      </trkpt>
      <trkpt lat="49.1571" lon="6.00119">
        <ele>343.3</ele>
        <time>2011-11-06T09:52:00Z</time>
      </trkpt>
      <trkpt lat="49.15697" lon="6.00131">
        <ele>343</ele>
        <time>2011-11-06T09:52:02Z</time>
      </trkpt>
      <trkpt lat="49.1569" lon="6.0013">
        <ele>343.7</ele>
        <time>2011-11-06T09:52:03Z</time>
      </trkpt>
      <trkpt lat="49.15678" lon="6.00123">
        <ele>342.8</ele>
        <time>2011-11-06T09:52:04Z</time>
      </trkpt>
      <trkpt lat="49.15672" lon="6.00123">
        <ele>343.3</ele>
        <time>2011-11-06T09:52:05Z</time>
      </trkpt>
      <trkpt lat="49.15666" lon="6.00125">
        <ele>343.7</ele>
        <time>2011-11-06T09:52:06Z</time>
      </trkpt>
      <trkpt lat="49.1566" lon="6.00125">
        <ele>343.3</ele>
        <time>2011-11-06T09:52:07Z</time>
      </trkpt>
      <trkpt lat="49.15659" lon="6.00114">
        <ele>342.5</ele>
        <time>2011-11-06T09:52:08Z</time>
      </trkpt>
      <trkpt lat="49.15652" lon="6.00114">
        <ele>342.4</ele>
        <time>2011-11-06T09:52:09Z</time>
      </trkpt>
      <trkpt lat="49.15646" lon="6.00114">
        <ele>342.4</ele>
        <time>2011-11-06T09:52:10Z</time>
      </trkpt>
      <trkpt lat="49.1564" lon="6.00115">
        <ele>342.4</ele>
        <time>2011-11-06T09:52:11Z</time>
      </trkpt>
      <trkpt lat="49.15634" lon="6.00115">
        <ele>342.1</ele>
        <time>2011-11-06T09:52:12Z</time>
      </trkpt>
      <trkpt lat="49.15628" lon="6.00116">
        <ele>342.1</ele>
        <time>2011-11-06T09:52:13Z</time>
      </trkpt>
      <trkpt lat="49.15632" lon="6.00109">
        <ele>342.5</ele>
        <time>2011-11-06T09:52:14Z</time>
      </trkpt>
      <trkpt lat="49.15615" lon="6.00123">
        <ele>341.8</ele>
        <time>2011-11-06T09:52:15Z</time>
      </trkpt>
      <trkpt lat="49.15605" lon="6.00128">
        <ele>341.4</ele>
        <time>2011-11-06T09:52:16Z</time>
      </trkpt>
      <trkpt lat="49.15598" lon="6.00126">
        <ele>341.6</ele>
        <time>2011-11-06T09:52:17Z</time>
      </trkpt>
      <trkpt lat="49.15588" lon="6.00128">
        <ele>341.6</ele>
        <time>2011-11-06T09:52:19Z</time>
      </trkpt>
      <trkpt lat="49.15582" lon="6.00131">
        <ele>341.9</ele>
        <time>2011-11-06T09:52:20Z</time>
      </trkpt>
      <trkpt lat="49.15574" lon="6.00136">
        <ele>346.1</ele>
        <time>2011-11-06T09:52:21Z</time>
      </trkpt>
      <trkpt lat="49.15563" lon="6.0014">
        <ele>348</ele>
        <time>2011-11-06T09:52:22Z</time>
      </trkpt>
      <trkpt lat="49.15554" lon="6.00143">
        <ele>350.9</ele>
        <time>2011-11-06T09:52:23Z</time>
      </trkpt>
      <trkpt lat="49.15545" lon="6.00145">
        <ele>351.5</ele>
        <time>2011-11-06T09:52:24Z</time>
      </trkpt>
      <trkpt lat="49.15535" lon="6.00148">
        <ele>352.3</ele>
        <time>2011-11-06T09:52:25Z</time>
      </trkpt>
      <trkpt lat="49.15527" lon="6.00148">
        <ele>354.2</ele>
        <time>2011-11-06T09:52:26Z</time>
      </trkpt>
      <trkpt lat="49.15519" lon="6.00149">
        <ele>355.8</ele>
        <time>2011-11-06T09:52:27Z</time>
      </trkpt>
      <trkpt lat="49.15511" lon="6.00151">
        <ele>357.4</ele>
        <time>2011-11-06T09:52:28Z</time>
      </trkpt>
      <trkpt lat="49.15503" lon="6.00152">
        <ele>359.8</ele>
        <time>2011-11-06T09:52:29Z</time>
      </trkpt>
      <trkpt lat="49.15494" lon="6.00154">
        <ele>359.2</ele>
        <time>2011-11-06T09:52:30Z</time>
      </trkpt>
      <trkpt lat="49.15485" lon="6.00155">
        <ele>361</ele>
        <time>2011-11-06T09:52:31Z</time>
      </trkpt>
      <trkpt lat="49.15478" lon="6.00156">
        <ele>361.1</ele>
        <time>2011-11-06T09:52:32Z</time>
      </trkpt>
      <trkpt lat="49.1547" lon="6.00157">
        <ele>362.4</ele>
        <time>2011-11-06T09:52:33Z</time>
      </trkpt>
      <trkpt lat="49.15462" lon="6.00159">
        <ele>362.8</ele>
        <time>2011-11-06T09:52:34Z</time>
      </trkpt>
      <trkpt lat="49.15453" lon="6.00159">
        <ele>364</ele>
        <time>2011-11-06T09:52:35Z</time>
      </trkpt>
      <trkpt lat="49.15445" lon="6.0016">
        <ele>364.8</ele>
        <time>2011-11-06T09:52:36Z</time>
      </trkpt>
      <trkpt lat="49.15436" lon="6.00162">
        <ele>367.1</ele>
        <time>2011-11-06T09:52:37Z</time>
      </trkpt>
      <trkpt lat="49.15428" lon="6.00164">
        <ele>367.8</ele>
        <time>2011-11-06T09:52:38Z</time>
      </trkpt>
      <trkpt lat="49.1542" lon="6.00166">
        <ele>367.9</ele>
        <time>2011-11-06T09:52:39Z</time>
      </trkpt>
      <trkpt lat="49.15412" lon="6.00169">
        <ele>367.7</ele>
        <time>2011-11-06T09:52:40Z</time>
      </trkpt>
      <trkpt lat="49.15403" lon="6.00171">
        <ele>367.7</ele>
        <time>2011-11-06T09:52:41Z</time>
      </trkpt>
      <trkpt lat="49.15395" lon="6.00173">
        <ele>366.3</ele>
        <time>2011-11-06T09:52:42Z</time>
      </trkpt>
      <trkpt lat="49.15386" lon="6.00176">
        <ele>366.4</ele>
        <time>2011-11-06T09:52:43Z</time>
      </trkpt>
      <trkpt lat="49.15377" lon="6.0018">
        <ele>365.6</ele>
        <time>2011-11-06T09:52:44Z</time>
      </trkpt>
      <trkpt lat="49.15369" lon="6.00183">
        <ele>364.8</ele>
        <time>2011-11-06T09:52:45Z</time>
      </trkpt>
      <trkpt lat="49.15361" lon="6.00186">
        <ele>363.9</ele>
        <time>2011-11-06T09:52:46Z</time>
      </trkpt>
      <trkpt lat="49.15352" lon="6.00189">
        <ele>364.3</ele>
        <time>2011-11-06T09:52:47Z</time>
      </trkpt>
      <trkpt lat="49.15342" lon="6.00194">
        <ele>364.1</ele>
        <time>2011-11-06T09:52:48Z</time>
      </trkpt>
      <trkpt lat="49.15333" lon="6.00199">
        <ele>364.8</ele>
        <time>2011-11-06T09:52:49Z</time>
      </trkpt>
      <trkpt lat="49.15324" lon="6.00204">
        <ele>364.1</ele>
        <time>2011-11-06T09:52:50Z</time>
      </trkpt>
      <trkpt lat="49.15315" lon="6.00209">
        <ele>363.6</ele>
        <time>2011-11-06T09:52:51Z</time>
      </trkpt>
      <trkpt lat="49.15306" lon="6.00214">
        <ele>363</ele>
        <time>2011-11-06T09:52:52Z</time>
      </trkpt>
      <trkpt lat="49.15297" lon="6.0022">
        <ele>363.1</ele>
        <time>2011-11-06T09:52:53Z</time>
      </trkpt>
      <trkpt lat="49.15288" lon="6.00225">
        <ele>363.2</ele>
        <time>2011-11-06T09:52:54Z</time>
      </trkpt>
      <trkpt lat="49.15281" lon="6.00232">
        <ele>363</ele>
        <time>2011-11-06T09:52:55Z</time>
      </trkpt>
      <trkpt lat="49.15273" lon="6.00236">
        <ele>363.1</ele>
        <time>2011-11-06T09:52:56Z</time>
      </trkpt>
      <trkpt lat="49.15267" lon="6.0024">
        <ele>363.4</ele>
        <time>2011-11-06T09:52:57Z</time>
      </trkpt>
      <trkpt lat="49.15261" lon="6.00246">
        <ele>363.5</ele>
        <time>2011-11-06T09:52:58Z</time>
      </trkpt>
      <trkpt lat="49.1525" lon="6.0025">
        <ele>363.5</ele>
        <time>2011-11-06T09:52:59Z</time>
      </trkpt>
      <trkpt lat="49.1524" lon="6.00258">
        <ele>363.1</ele>
        <time>2011-11-06T09:53:00Z</time>
      </trkpt>
      <trkpt lat="49.15232" lon="6.00266">
        <ele>362.7</ele>
        <time>2011-11-06T09:53:01Z</time>
      </trkpt>
      <trkpt lat="49.15226" lon="6.00275">
        <ele>362.8</ele>
        <time>2011-11-06T09:53:02Z</time>
      </trkpt>
      <trkpt lat="49.1522" lon="6.0028">
        <ele>362.1</ele>
        <time>2011-11-06T09:53:03Z</time>
      </trkpt>
      <trkpt lat="49.15213" lon="6.00288">
        <ele>362.4</ele>
        <time>2011-11-06T09:53:04Z</time>
      </trkpt>
      <trkpt lat="49.15205" lon="6.00296">
        <ele>362</ele>
        <time>2011-11-06T09:53:05Z</time>
      </trkpt>
      <trkpt lat="49.15198" lon="6.00304">
        <ele>361.4</ele>
        <time>2011-11-06T09:53:06Z</time>
      </trkpt>
      <trkpt lat="49.15191" lon="6.00314">
        <ele>362</ele>
        <time>2011-11-06T09:53:07Z</time>
      </trkpt>
      <trkpt lat="49.15184" lon="6.00322">
        <ele>363.7</ele>
        <time>2011-11-06T09:53:08Z</time>
      </trkpt>
      <trkpt lat="49.15177" lon="6.00331">
        <ele>363.4</ele>
        <time>2011-11-06T09:53:09Z</time>
      </trkpt>
      <trkpt lat="49.15168" lon="6.00339">
        <ele>363.4</ele>
        <time>2011-11-06T09:53:10Z</time>
      </trkpt>
      <trkpt lat="49.15162" lon="6.00347">
        <ele>362.6</ele>
        <time>2011-11-06T09:53:11Z</time>
      </trkpt>
      <trkpt lat="49.15154" lon="6.00356">
        <ele>362.9</ele>
        <time>2011-11-06T09:53:12Z</time>
      </trkpt>
      <trkpt lat="49.15147" lon="6.00364">
        <ele>362.6</ele>
        <time>2011-11-06T09:53:13Z</time>
      </trkpt>
      <trkpt lat="49.15138" lon="6.00372">
        <ele>362.2</ele>
        <time>2011-11-06T09:53:14Z</time>
      </trkpt>
      <trkpt lat="49.15131" lon="6.00381">
        <ele>362.9</ele>
        <time>2011-11-06T09:53:15Z</time>
      </trkpt>
      <trkpt lat="49.15124" lon="6.00388">
        <ele>363</ele>
        <time>2011-11-06T09:53:16Z</time>
      </trkpt>
      <trkpt lat="49.15117" lon="6.00395">
        <ele>363.1</ele>
        <time>2011-11-06T09:53:17Z</time>
      </trkpt>
      <trkpt lat="49.15109" lon="6.00403">
        <ele>362.6</ele>
        <time>2011-11-06T09:53:18Z</time>
      </trkpt>
      <trkpt lat="49.15102" lon="6.00411">
        <ele>362.8</ele>
        <time>2011-11-06T09:53:19Z</time>
      </trkpt>
      <trkpt lat="49.15096" lon="6.00419">
        <ele>363</ele>
        <time>2011-11-06T09:53:20Z</time>
      </trkpt>
      <trkpt lat="49.15088" lon="6.00426">
        <ele>362.5</ele>
        <time>2011-11-06T09:53:21Z</time>
      </trkpt>
      <trkpt lat="49.15081" lon="6.00434">
        <ele>362.3</ele>
        <time>2011-11-06T09:53:22Z</time>
      </trkpt>
      <trkpt lat="49.15074" lon="6.00443">
        <ele>362.6</ele>
        <time>2011-11-06T09:53:23Z</time>
      </trkpt>
      <trkpt lat="49.15066" lon="6.00451">
        <ele>362</ele>
        <time>2011-11-06T09:53:24Z</time>
      </trkpt>
      <trkpt lat="49.15058" lon="6.00459">
        <ele>361.7</ele>
        <time>2011-11-06T09:53:25Z</time>
      </trkpt>
      <trkpt lat="49.15051" lon="6.00467">
        <ele>361.3</ele>
        <time>2011-11-06T09:53:26Z</time>
      </trkpt>
      <trkpt lat="49.15043" lon="6.00476">
        <ele>360.9</ele>
        <time>2011-11-06T09:53:27Z</time>
      </trkpt>
      <trkpt lat="49.15035" lon="6.00485">
        <ele>360.3</ele>
        <time>2011-11-06T09:53:28Z</time>
      </trkpt>
      <trkpt lat="49.15028" lon="6.00494">
        <ele>359.8</ele>
        <time>2011-11-06T09:53:29Z</time>
      </trkpt>
      <trkpt lat="49.15019" lon="6.00503">
        <ele>359.1</ele>
        <time>2011-11-06T09:53:30Z</time>
      </trkpt>
      <trkpt lat="49.15011" lon="6.00512">
        <ele>359.5</ele>
        <time>2011-11-06T09:53:31Z</time>
      </trkpt>
      <trkpt lat="49.15002" lon="6.00521">
        <ele>359.4</ele>
        <time>2011-11-06T09:53:32Z</time>
      </trkpt>
      <trkpt lat="49.14993" lon="6.00529">
        <ele>359.6</ele>
        <time>2011-11-06T09:53:33Z</time>
      </trkpt>
      <trkpt lat="49.14984" lon="6.00538">
        <ele>359.5</ele>
        <time>2011-11-06T09:53:34Z</time>
      </trkpt>
      <trkpt lat="49.14976" lon="6.00547">
        <ele>359.7</ele>
        <time>2011-11-06T09:53:35Z</time>
      </trkpt>
      <trkpt lat="49.14968" lon="6.00556">
        <ele>359.3</ele>
        <time>2011-11-06T09:53:36Z</time>
      </trkpt>
      <trkpt lat="49.14959" lon="6.00565">
        <ele>359.1</ele>
        <time>2011-11-06T09:53:37Z</time>
      </trkpt>
      <trkpt lat="49.1495" lon="6.00572">
        <ele>358.8</ele>
        <time>2011-11-06T09:53:38Z</time>
      </trkpt>
      <trkpt lat="49.14942" lon="6.00582">
        <ele>358.6</ele>
        <time>2011-11-06T09:53:39Z</time>
      </trkpt>
      <trkpt lat="49.14933" lon="6.00592">
        <ele>358.4</ele>
        <time>2011-11-06T09:53:40Z</time>
      </trkpt>
      <trkpt lat="49.14925" lon="6.006">
        <ele>357.7</ele>
        <time>2011-11-06T09:53:41Z</time>
      </trkpt>
      <trkpt lat="49.14916" lon="6.0061">
        <ele>357.1</ele>
        <time>2011-11-06T09:53:42Z</time>
      </trkpt>
      <trkpt lat="49.14908" lon="6.00619">
        <ele>357.1</ele>
        <time>2011-11-06T09:53:43Z</time>
      </trkpt>
      <trkpt lat="49.14899" lon="6.00629">
        <ele>357</ele>
        <time>2011-11-06T09:53:44Z</time>
      </trkpt>
      <trkpt lat="49.14892" lon="6.00637">
        <ele>357.3</ele>
        <time>2011-11-06T09:53:45Z</time>
      </trkpt>
      <trkpt lat="49.14884" lon="6.00644">
        <ele>357</ele>
        <time>2011-11-06T09:53:46Z</time>
      </trkpt>
      <trkpt lat="49.14875" lon="6.00653">
        <ele>357.2</ele>
        <time>2011-11-06T09:53:47Z</time>
      </trkpt>
      <trkpt lat="49.14866" lon="6.00663">
        <ele>356.8</ele>
        <time>2011-11-06T09:53:48Z</time>
      </trkpt>
      <trkpt lat="49.14858" lon="6.00673">
        <ele>356.7</ele>
        <time>2011-11-06T09:53:49Z</time>
      </trkpt>
      <trkpt lat="49.14849" lon="6.00683">
        <ele>356.6</ele>
        <time>2011-11-06T09:53:50Z</time>
      </trkpt>
      <trkpt lat="49.1484" lon="6.00693">
        <ele>356.5</ele>
        <time>2011-11-06T09:53:51Z</time>
      </trkpt>
      <trkpt lat="49.14834" lon="6.00703">
        <ele>356.2</ele>
        <time>2011-11-06T09:53:52Z</time>
      </trkpt>
      <trkpt lat="49.14824" lon="6.00714">
        <ele>355.2</ele>
        <time>2011-11-06T09:53:53Z</time>
      </trkpt>
      <trkpt lat="49.14815" lon="6.00723">
        <ele>353.9</ele>
        <time>2011-11-06T09:53:54Z</time>
      </trkpt>
      <trkpt lat="49.14805" lon="6.00732">
        <ele>353.6</ele>
        <time>2011-11-06T09:53:55Z</time>
      </trkpt>
      <trkpt lat="49.14798" lon="6.00741">
        <ele>353.5</ele>
        <time>2011-11-06T09:53:56Z</time>
      </trkpt>
      <trkpt lat="49.14789" lon="6.00754">
        <ele>353</ele>
        <time>2011-11-06T09:53:57Z</time>
      </trkpt>
      <trkpt lat="49.14779" lon="6.00763">
        <ele>353</ele>
        <time>2011-11-06T09:53:58Z</time>
      </trkpt>
      <trkpt lat="49.14772" lon="6.00771">
        <ele>351.9</ele>
        <time>2011-11-06T09:53:59Z</time>
      </trkpt>
      <trkpt lat="49.14762" lon="6.00782">
        <ele>351.3</ele>
        <time>2011-11-06T09:54:00Z</time>
      </trkpt>
      <trkpt lat="49.14754" lon="6.00794">
        <ele>351.8</ele>
        <time>2011-11-06T09:54:01Z</time>
      </trkpt>
      <trkpt lat="49.14746" lon="6.00803">
        <ele>352.7</ele>
        <time>2011-11-06T09:54:02Z</time>
      </trkpt>
      <trkpt lat="49.14738" lon="6.00815">
        <ele>353.1</ele>
        <time>2011-11-06T09:54:03Z</time>
      </trkpt>
      <trkpt lat="49.1473" lon="6.00826">
        <ele>353.1</ele>
        <time>2011-11-06T09:54:04Z</time>
      </trkpt>
      <trkpt lat="49.14722" lon="6.00836">
        <ele>353.7</ele>
        <time>2011-11-06T09:54:05Z</time>
      </trkpt>
      <trkpt lat="49.14716" lon="6.00846">
        <ele>354.1</ele>
        <time>2011-11-06T09:54:06Z</time>
      </trkpt>
      <trkpt lat="49.14708" lon="6.00857">
        <ele>355.3</ele>
        <time>2011-11-06T09:54:07Z</time>
      </trkpt>
      <trkpt lat="49.147" lon="6.00866">
        <ele>354.9</ele>
        <time>2011-11-06T09:54:08Z</time>
      </trkpt>
      <trkpt lat="49.14693" lon="6.00876">
        <ele>356.2</ele>
        <time>2011-11-06T09:54:09Z</time>
      </trkpt>
      <trkpt lat="49.14686" lon="6.00887">
        <ele>356.9</ele>
        <time>2011-11-06T09:54:10Z</time>
      </trkpt>
      <trkpt lat="49.14679" lon="6.00898">
        <ele>356.8</ele>
        <time>2011-11-06T09:54:11Z</time>
      </trkpt>
      <trkpt lat="49.14673" lon="6.00907">
        <ele>355.4</ele>
        <time>2011-11-06T09:54:12Z</time>
      </trkpt>
      <trkpt lat="49.14665" lon="6.00918">
        <ele>355.8</ele>
        <time>2011-11-06T09:54:13Z</time>
      </trkpt>
      <trkpt lat="49.14659" lon="6.00929">
        <ele>356.6</ele>
        <time>2011-11-06T09:54:14Z</time>
      </trkpt>
      <trkpt lat="49.14652" lon="6.00938">
        <ele>357.2</ele>
        <time>2011-11-06T09:54:15Z</time>
      </trkpt>
      <trkpt lat="49.14646" lon="6.00949">
        <ele>357.3</ele>
        <time>2011-11-06T09:54:16Z</time>
      </trkpt>
      <trkpt lat="49.1464" lon="6.00958">
        <ele>356.9</ele>
        <time>2011-11-06T09:54:17Z</time>
      </trkpt>
      <trkpt lat="49.14634" lon="6.00968">
        <ele>356.5</ele>
        <time>2011-11-06T09:54:18Z</time>
      </trkpt>
      <trkpt lat="49.14627" lon="6.00978">
        <ele>355.9</ele>
        <time>2011-11-06T09:54:19Z</time>
      </trkpt>
      <trkpt lat="49.14621" lon="6.00988">
        <ele>355.6</ele>
        <time>2011-11-06T09:54:20Z</time>
      </trkpt>
      <trkpt lat="49.14615" lon="6.00999">
        <ele>356</ele>
        <time>2011-11-06T09:54:21Z</time>
      </trkpt>
      <trkpt lat="49.14609" lon="6.01009">
        <ele>356.2</ele>
        <time>2011-11-06T09:54:22Z</time>
      </trkpt>
      <trkpt lat="49.14602" lon="6.01019">
        <ele>355.8</ele>
        <time>2011-11-06T09:54:23Z</time>
      </trkpt>
      <trkpt lat="49.14596" lon="6.01031">
        <ele>355.9</ele>
        <time>2011-11-06T09:54:24Z</time>
      </trkpt>
      <trkpt lat="49.14589" lon="6.01041">
        <ele>358</ele>
        <time>2011-11-06T09:54:25Z</time>
      </trkpt>
      <trkpt lat="49.14583" lon="6.01051">
        <ele>358.1</ele>
        <time>2011-11-06T09:54:26Z</time>
      </trkpt>
      <trkpt lat="49.14576" lon="6.01061">
        <ele>358</ele>
        <time>2011-11-06T09:54:27Z</time>
      </trkpt>
      <trkpt lat="49.14569" lon="6.01071">
        <ele>357.8</ele>
        <time>2011-11-06T09:54:28Z</time>
      </trkpt>
      <trkpt lat="49.14563" lon="6.01081">
        <ele>358.4</ele>
        <time>2011-11-06T09:54:29Z</time>
      </trkpt>
      <trkpt lat="49.14556" lon="6.01091">
        <ele>357.9</ele>
        <time>2011-11-06T09:54:30Z</time>
      </trkpt>
      <trkpt lat="49.1455" lon="6.01101">
        <ele>358.2</ele>
        <time>2011-11-06T09:54:31Z</time>
      </trkpt>
      <trkpt lat="49.14543" lon="6.0111">
        <ele>357.5</ele>
        <time>2011-11-06T09:54:32Z</time>
      </trkpt>
      <trkpt lat="49.14536" lon="6.0112">
        <ele>357.2</ele>
        <time>2011-11-06T09:54:33Z</time>
      </trkpt>
      <trkpt lat="49.14529" lon="6.0113">
        <ele>357.1</ele>
        <time>2011-11-06T09:54:34Z</time>
      </trkpt>
      <trkpt lat="49.14523" lon="6.01138">
        <ele>357.2</ele>
        <time>2011-11-06T09:54:35Z</time>
      </trkpt>
      <trkpt lat="49.14515" lon="6.01146">
        <ele>357.2</ele>
        <time>2011-11-06T09:54:36Z</time>
      </trkpt>
      <trkpt lat="49.14507" lon="6.01153">
        <ele>357</ele>
        <time>2011-11-06T09:54:37Z</time>
      </trkpt>
      <trkpt lat="49.14499" lon="6.0116">
        <ele>357</ele>
        <time>2011-11-06T09:54:38Z</time>
      </trkpt>
      <trkpt lat="49.14492" lon="6.01166">
        <ele>357</ele>
        <time>2011-11-06T09:54:39Z</time>
      </trkpt>
      <trkpt lat="49.14483" lon="6.01175">
        <ele>356.9</ele>
        <time>2011-11-06T09:54:40Z</time>
      </trkpt>
      <trkpt lat="49.14476" lon="6.01184">
        <ele>356.8</ele>
        <time>2011-11-06T09:54:41Z</time>
      </trkpt>
      <trkpt lat="49.14466" lon="6.01191">
        <ele>356.7</ele>
        <time>2011-11-06T09:54:42Z</time>
      </trkpt>
      <trkpt lat="49.14458" lon="6.01198">
        <ele>356.4</ele>
        <time>2011-11-06T09:54:43Z</time>
      </trkpt>
      <trkpt lat="49.14451" lon="6.01203">
        <ele>356.8</ele>
        <time>2011-11-06T09:54:44Z</time>
      </trkpt>
      <trkpt lat="49.14444" lon="6.01209">
        <ele>356.5</ele>
        <time>2011-11-06T09:54:45Z</time>
      </trkpt>
      <trkpt lat="49.14437" lon="6.01212">
        <ele>357</ele>
        <time>2011-11-06T09:54:46Z</time>
      </trkpt>
      <trkpt lat="49.14428" lon="6.0122">
        <ele>358.1</ele>
        <time>2011-11-06T09:54:47Z</time>
      </trkpt>
      <trkpt lat="49.14419" lon="6.01224">
        <ele>358.6</ele>
        <time>2011-11-06T09:54:48Z</time>
      </trkpt>
      <trkpt lat="49.14411" lon="6.01229">
        <ele>359.1</ele>
        <time>2011-11-06T09:54:49Z</time>
      </trkpt>
      <trkpt lat="49.14404" lon="6.01232">
        <ele>358.6</ele>
        <time>2011-11-06T09:54:50Z</time>
      </trkpt>
      <trkpt lat="49.14396" lon="6.01236">
        <ele>357.9</ele>
        <time>2011-11-06T09:54:51Z</time>
      </trkpt>
      <trkpt lat="49.14387" lon="6.0124">
        <ele>359.8</ele>
        <time>2011-11-06T09:54:52Z</time>
      </trkpt>
      <trkpt lat="49.14379" lon="6.01243">
        <ele>360.5</ele>
        <time>2011-11-06T09:54:53Z</time>
      </trkpt>
      <trkpt lat="49.1437" lon="6.01245">
        <ele>360.7</ele>
        <time>2011-11-06T09:54:54Z</time>
      </trkpt>
      <trkpt lat="49.14362" lon="6.01247">
        <ele>361.7</ele>
        <time>2011-11-06T09:54:55Z</time>
      </trkpt>
      <trkpt lat="49.14353" lon="6.0125">
        <ele>362.2</ele>
        <time>2011-11-06T09:54:56Z</time>
      </trkpt>
      <trkpt lat="49.14344" lon="6.01252">
        <ele>362.2</ele>
        <time>2011-11-06T09:54:57Z</time>
      </trkpt>
      <trkpt lat="49.14335" lon="6.01253">
        <ele>362.5</ele>
        <time>2011-11-06T09:54:58Z</time>
      </trkpt>
      <trkpt lat="49.14326" lon="6.01255">
        <ele>362.7</ele>
        <time>2011-11-06T09:54:59Z</time>
      </trkpt>
      <trkpt lat="49.14318" lon="6.01256">
        <ele>362.5</ele>
        <time>2011-11-06T09:55:00Z</time>
      </trkpt>
      <trkpt lat="49.14309" lon="6.01257">
        <ele>363</ele>
        <time>2011-11-06T09:55:01Z</time>
      </trkpt>
      <trkpt lat="49.14301" lon="6.01258">
        <ele>363.2</ele>
        <time>2011-11-06T09:55:02Z</time>
      </trkpt>
      <trkpt lat="49.14291" lon="6.01258">
        <ele>363.3</ele>
        <time>2011-11-06T09:55:03Z</time>
      </trkpt>
      <trkpt lat="49.14281" lon="6.01256">
        <ele>363.5</ele>
        <time>2011-11-06T09:55:04Z</time>
      </trkpt>
      <trkpt lat="49.14271" lon="6.01254">
        <ele>363.2</ele>
        <time>2011-11-06T09:55:05Z</time>
      </trkpt>
      <trkpt lat="49.14262" lon="6.01252">
        <ele>363.2</ele>
        <time>2011-11-06T09:55:06Z</time>
      </trkpt>
      <trkpt lat="49.14252" lon="6.01252">
        <ele>363.1</ele>
        <time>2011-11-06T09:55:07Z</time>
      </trkpt>
      <trkpt lat="49.14243" lon="6.01249">
        <ele>363.1</ele>
        <time>2011-11-06T09:55:08Z</time>
      </trkpt>
      <trkpt lat="49.14232" lon="6.01246">
        <ele>363.1</ele>
        <time>2011-11-06T09:55:09Z</time>
      </trkpt>
      <trkpt lat="49.14221" lon="6.01244">
        <ele>363.4</ele>
        <time>2011-11-06T09:55:10Z</time>
      </trkpt>
      <trkpt lat="49.14211" lon="6.01242">
        <ele>363.4</ele>
        <time>2011-11-06T09:55:11Z</time>
      </trkpt>
      <trkpt lat="49.14205" lon="6.01238">
        <ele>363.7</ele>
        <time>2011-11-06T09:55:12Z</time>
      </trkpt>
      <trkpt lat="49.14194" lon="6.01236">
        <ele>362.8</ele>
        <time>2011-11-06T09:55:13Z</time>
      </trkpt>
      <trkpt lat="49.14183" lon="6.01231">
        <ele>363.6</ele>
        <time>2011-11-06T09:55:14Z</time>
      </trkpt>
      <trkpt lat="49.14172" lon="6.01227">
        <ele>363.1</ele>
        <time>2011-11-06T09:55:15Z</time>
      </trkpt>
      <trkpt lat="49.14161" lon="6.01224">
        <ele>362.5</ele>
        <time>2011-11-06T09:55:16Z</time>
      </trkpt>
      <trkpt lat="49.1415" lon="6.0122">
        <ele>362.3</ele>
        <time>2011-11-06T09:55:17Z</time>
      </trkpt>
      <trkpt lat="49.14139" lon="6.01216">
        <ele>361.8</ele>
        <time>2011-11-06T09:55:18Z</time>
      </trkpt>
      <trkpt lat="49.14128" lon="6.01211">
        <ele>361.7</ele>
        <time>2011-11-06T09:55:19Z</time>
      </trkpt>
      <trkpt lat="49.14117" lon="6.01206">
        <ele>361.7</ele>
        <time>2011-11-06T09:55:20Z</time>
      </trkpt>
      <trkpt lat="49.14105" lon="6.01202">
        <ele>360.8</ele>
        <time>2011-11-06T09:55:21Z</time>
      </trkpt>
      <trkpt lat="49.1409" lon="6.01201">
        <ele>359.9</ele>
        <time>2011-11-06T09:55:22Z</time>
      </trkpt>
      <trkpt lat="49.14076" lon="6.01199">
        <ele>359.3</ele>
        <time>2011-11-06T09:55:23Z</time>
      </trkpt>
      <trkpt lat="49.14063" lon="6.01196">
        <ele>359</ele>
        <time>2011-11-06T09:55:24Z</time>
      </trkpt>
      <trkpt lat="49.14053" lon="6.0119">
        <ele>359.1</ele>
        <time>2011-11-06T09:55:25Z</time>
      </trkpt>
      <trkpt lat="49.14043" lon="6.01185">
        <ele>358.8</ele>
        <time>2011-11-06T09:55:26Z</time>
      </trkpt>
      <trkpt lat="49.14032" lon="6.01181">
        <ele>358.3</ele>
        <time>2011-11-06T09:55:27Z</time>
      </trkpt>
      <trkpt lat="49.14018" lon="6.01175">
        <ele>359.4</ele>
        <time>2011-11-06T09:55:28Z</time>
      </trkpt>
      <trkpt lat="49.14006" lon="6.01172">
        <ele>358.7</ele>
        <time>2011-11-06T09:55:29Z</time>
      </trkpt>
      <trkpt lat="49.13994" lon="6.01168">
        <ele>358.4</ele>
        <time>2011-11-06T09:55:30Z</time>
      </trkpt>
      <trkpt lat="49.13982" lon="6.01163">
        <ele>358.7</ele>
        <time>2011-11-06T09:55:31Z</time>
      </trkpt>
      <trkpt lat="49.1397" lon="6.01158">
        <ele>359.1</ele>
        <time>2011-11-06T09:55:32Z</time>
      </trkpt>
      <trkpt lat="49.13959" lon="6.01154">
        <ele>359.5</ele>
        <time>2011-11-06T09:55:33Z</time>
      </trkpt>
      <trkpt lat="49.13946" lon="6.0115">
        <ele>359.6</ele>
        <time>2011-11-06T09:55:34Z</time>
      </trkpt>
      <trkpt lat="49.13934" lon="6.01147">
        <ele>360.1</ele>
        <time>2011-11-06T09:55:35Z</time>
      </trkpt>
      <trkpt lat="49.13922" lon="6.01143">
        <ele>360</ele>
        <time>2011-11-06T09:55:36Z</time>
      </trkpt>
      <trkpt lat="49.1391" lon="6.0114">
        <ele>359.9</ele>
        <time>2011-11-06T09:55:37Z</time>
      </trkpt>
      <trkpt lat="49.13898" lon="6.01136">
        <ele>360.2</ele>
        <time>2011-11-06T09:55:38Z</time>
      </trkpt>
      <trkpt lat="49.13885" lon="6.01133">
        <ele>360.1</ele>
        <time>2011-11-06T09:55:39Z</time>
      </trkpt>
      <trkpt lat="49.13872" lon="6.01131">
        <ele>359.8</ele>
        <time>2011-11-06T09:55:40Z</time>
      </trkpt>
      <trkpt lat="49.1386" lon="6.0113">
        <ele>359.5</ele>
        <time>2011-11-06T09:55:41Z</time>
      </trkpt>
      <trkpt lat="49.13846" lon="6.01128">
        <ele>359.5</ele>
        <time>2011-11-06T09:55:42Z</time>
      </trkpt>
      <trkpt lat="49.13834" lon="6.01128">
        <ele>359.8</ele>
        <time>2011-11-06T09:55:43Z</time>
      </trkpt>
      <trkpt lat="49.13822" lon="6.01128">
        <ele>358.5</ele>
        <time>2011-11-06T09:55:44Z</time>
      </trkpt>
      <trkpt lat="49.13809" lon="6.0113">
        <ele>357.9</ele>
        <time>2011-11-06T09:55:45Z</time>
      </trkpt>
      <trkpt lat="49.13798" lon="6.01134">
        <ele>357.2</ele>
        <time>2011-11-06T09:55:46Z</time>
      </trkpt>
      <trkpt lat="49.13786" lon="6.01137">
        <ele>356.2</ele>
        <time>2011-11-06T09:55:47Z</time>
      </trkpt>
      <trkpt lat="49.13774" lon="6.0114">
        <ele>355.6</ele>
        <time>2011-11-06T09:55:48Z</time>
      </trkpt>
      <trkpt lat="49.13759" lon="6.01147">
        <ele>354.6</ele>
        <time>2011-11-06T09:55:49Z</time>
      </trkpt>
      <trkpt lat="49.13747" lon="6.01151">
        <ele>354.5</ele>
        <time>2011-11-06T09:55:50Z</time>
      </trkpt>
      <trkpt lat="49.13734" lon="6.01157">
        <ele>354</ele>
        <time>2011-11-06T09:55:51Z</time>
      </trkpt>
      <trkpt lat="49.1372" lon="6.01165">
        <ele>353.2</ele>
        <time>2011-11-06T09:55:52Z</time>
      </trkpt>
      <trkpt lat="49.13708" lon="6.01171">
        <ele>353.6</ele>
        <time>2011-11-06T09:55:53Z</time>
      </trkpt>
      <trkpt lat="49.13695" lon="6.01178">
        <ele>353.1</ele>
        <time>2011-11-06T09:55:54Z</time>
      </trkpt>
      <trkpt lat="49.13682" lon="6.01186">
        <ele>352.7</ele>
        <time>2011-11-06T09:55:55Z</time>
      </trkpt>
      <trkpt lat="49.13669" lon="6.01192">
        <ele>352.7</ele>
        <time>2011-11-06T09:55:56Z</time>
      </trkpt>
      <trkpt lat="49.13657" lon="6.01199">
        <ele>352.5</ele>
        <time>2011-11-06T09:55:57Z</time>
      </trkpt>
      <trkpt lat="49.13645" lon="6.01206">
        <ele>352.3</ele>
        <time>2011-11-06T09:55:58Z</time>
      </trkpt>
      <trkpt lat="49.13632" lon="6.01211">
        <ele>352.3</ele>
        <time>2011-11-06T09:55:59Z</time>
      </trkpt>
      <trkpt lat="49.1362" lon="6.01219">
        <ele>352.6</ele>
        <time>2011-11-06T09:56:00Z</time>
      </trkpt>
      <trkpt lat="49.13609" lon="6.01227">
        <ele>352.6</ele>
        <time>2011-11-06T09:56:01Z</time>
      </trkpt>
      <trkpt lat="49.13597" lon="6.01234">
        <ele>352.5</ele>
        <time>2011-11-06T09:56:02Z</time>
      </trkpt>
      <trkpt lat="49.13586" lon="6.01243">
        <ele>352.7</ele>
        <time>2011-11-06T09:56:03Z</time>
      </trkpt>
      <trkpt lat="49.13575" lon="6.0125">
        <ele>352.8</ele>
        <time>2011-11-06T09:56:04Z</time>
      </trkpt>
      <trkpt lat="49.13564" lon="6.01258">
        <ele>352.9</ele>
        <time>2011-11-06T09:56:05Z</time>
      </trkpt>
      <trkpt lat="49.13552" lon="6.01266">
        <ele>352.8</ele>
        <time>2011-11-06T09:56:06Z</time>
      </trkpt>
      <trkpt lat="49.1354" lon="6.01273">
        <ele>352.7</ele>
        <time>2011-11-06T09:56:07Z</time>
      </trkpt>
      <trkpt lat="49.13528" lon="6.01278">
        <ele>352.5</ele>
        <time>2011-11-06T09:56:08Z</time>
      </trkpt>
      <trkpt lat="49.13516" lon="6.01285">
        <ele>352.5</ele>
        <time>2011-11-06T09:56:09Z</time>
      </trkpt>
      <trkpt lat="49.13504" lon="6.01292">
        <ele>352.5</ele>
        <time>2011-11-06T09:56:10Z</time>
      </trkpt>
      <trkpt lat="49.13495" lon="6.01299">
        <ele>352.4</ele>
        <time>2011-11-06T09:56:11Z</time>
      </trkpt>
      <trkpt lat="49.13484" lon="6.01306">
        <ele>352.4</ele>
        <time>2011-11-06T09:56:12Z</time>
      </trkpt>
      <trkpt lat="49.13488" lon="6.01289">
        <ele>352.5</ele>
        <time>2011-11-06T09:56:13Z</time>
      </trkpt>
      <trkpt lat="49.13476" lon="6.01297">
        <ele>352.5</ele>
        <time>2011-11-06T09:56:15Z</time>
      </trkpt>
      <trkpt lat="49.13467" lon="6.01302">
        <ele>352.4</ele>
        <time>2011-11-06T09:56:16Z</time>
      </trkpt>
      <trkpt lat="49.13459" lon="6.01304">
        <ele>352.3</ele>
        <time>2011-11-06T09:56:17Z</time>
      </trkpt>
      <trkpt lat="49.13448" lon="6.01306">
        <ele>352.1</ele>
        <time>2011-11-06T09:56:18Z</time>
      </trkpt>
      <trkpt lat="49.13441" lon="6.01309">
        <ele>351.5</ele>
        <time>2011-11-06T09:56:19Z</time>
      </trkpt>
      <trkpt lat="49.13432" lon="6.01312">
        <ele>351.4</ele>
        <time>2011-11-06T09:56:20Z</time>
      </trkpt>
      <trkpt lat="49.13423" lon="6.01316">
        <ele>351.5</ele>
        <time>2011-11-06T09:56:21Z</time>
      </trkpt>
      <trkpt lat="49.13409" lon="6.01319">
        <ele>351.8</ele>
        <time>2011-11-06T09:56:22Z</time>
      </trkpt>
      <trkpt lat="49.13405" lon="6.01307">
        <ele>352</ele>
        <time>2011-11-06T09:56:23Z</time>
      </trkpt>
      <trkpt lat="49.13394" lon="6.01313">
        <ele>351.9</ele>
        <time>2011-11-06T09:56:24Z</time>
      </trkpt>
      <trkpt lat="49.13386" lon="6.01318">
        <ele>352.5</ele>
        <time>2011-11-06T09:56:25Z</time>
      </trkpt>
      <trkpt lat="49.13381" lon="6.01322">
        <ele>352.3</ele>
        <time>2011-11-06T09:56:26Z</time>
      </trkpt>
      <trkpt lat="49.13371" lon="6.01325">
        <ele>352.4</ele>
        <time>2011-11-06T09:56:27Z</time>
      </trkpt>
      <trkpt lat="49.13363" lon="6.01329">
        <ele>352.3</ele>
        <time>2011-11-06T09:56:28Z</time>
      </trkpt>
      <trkpt lat="49.13355" lon="6.01332">
        <ele>351.7</ele>
        <time>2011-11-06T09:56:29Z</time>
      </trkpt>
      <trkpt lat="49.13345" lon="6.01334">
        <ele>351.9</ele>
        <time>2011-11-06T09:56:30Z</time>
      </trkpt>
      <trkpt lat="49.13336" lon="6.01337">
        <ele>351.9</ele>
        <time>2011-11-06T09:56:31Z</time>
      </trkpt>
      <trkpt lat="49.13327" lon="6.01342">
        <ele>351.8</ele>
        <time>2011-11-06T09:56:32Z</time>
      </trkpt>
      <trkpt lat="49.13313" lon="6.01348">
        <ele>351.2</ele>
        <time>2011-11-06T09:56:33Z</time>
      </trkpt>
      <trkpt lat="49.13303" lon="6.0135">
        <ele>349.5</ele>
        <time>2011-11-06T09:56:35Z</time>
      </trkpt>
      <trkpt lat="49.13294" lon="6.01354">
        <ele>349.5</ele>
        <time>2011-11-06T09:56:36Z</time>
      </trkpt>
      <trkpt lat="49.13287" lon="6.01358">
        <ele>348.8</ele>
        <time>2011-11-06T09:56:37Z</time>
      </trkpt>
      <trkpt lat="49.13278" lon="6.01362">
        <ele>349.5</ele>
        <time>2011-11-06T09:56:38Z</time>
      </trkpt>
      <trkpt lat="49.13272" lon="6.01369">
        <ele>349.4</ele>
        <time>2011-11-06T09:56:39Z</time>
      </trkpt>
      <trkpt lat="49.13264" lon="6.01375">
        <ele>349.6</ele>
        <time>2011-11-06T09:56:40Z</time>
      </trkpt>
      <trkpt lat="49.13258" lon="6.01381">
        <ele>349.6</ele>
        <time>2011-11-06T09:56:41Z</time>
      </trkpt>
      <trkpt lat="49.13251" lon="6.01388">
        <ele>349.6</ele>
        <time>2011-11-06T09:56:42Z</time>
      </trkpt>
      <trkpt lat="49.13245" lon="6.01395">
        <ele>349.6</ele>
        <time>2011-11-06T09:56:43Z</time>
      </trkpt>
      <trkpt lat="49.13237" lon="6.01401">
        <ele>349.9</ele>
        <time>2011-11-06T09:56:44Z</time>
      </trkpt>
      <trkpt lat="49.1323" lon="6.01408">
        <ele>350.3</ele>
        <time>2011-11-06T09:56:45Z</time>
      </trkpt>
      <trkpt lat="49.13222" lon="6.01414">
        <ele>350.2</ele>
        <time>2011-11-06T09:56:46Z</time>
      </trkpt>
      <trkpt lat="49.13216" lon="6.01419">
        <ele>349.8</ele>
        <time>2011-11-06T09:56:47Z</time>
      </trkpt>
      <trkpt lat="49.1321" lon="6.01426">
        <ele>349.8</ele>
        <time>2011-11-06T09:56:48Z</time>
      </trkpt>
      <trkpt lat="49.13197" lon="6.01442">
        <ele>349.7</ele>
        <time>2011-11-06T09:56:49Z</time>
      </trkpt>
      <trkpt lat="49.13174" lon="6.01472">
        <ele>350.6</ele>
        <time>2011-11-06T09:56:51Z</time>
      </trkpt>
      <trkpt lat="49.13164" lon="6.01479">
        <ele>350.4</ele>
        <time>2011-11-06T09:56:52Z</time>
      </trkpt>
      <trkpt lat="49.13151" lon="6.01496">
        <ele>350.3</ele>
        <time>2011-11-06T09:56:53Z</time>
      </trkpt>
      <trkpt lat="49.13145" lon="6.01497">
        <ele>350.4</ele>
        <time>2011-11-06T09:56:54Z</time>
      </trkpt>
      <trkpt lat="49.13131" lon="6.01515">
        <ele>349</ele>
        <time>2011-11-06T09:56:55Z</time>
      </trkpt>
      <trkpt lat="49.13123" lon="6.01524">
        <ele>349.1</ele>
        <time>2011-11-06T09:56:56Z</time>
      </trkpt>
      <trkpt lat="49.13116" lon="6.01524">
        <ele>348.8</ele>
        <time>2011-11-06T09:56:57Z</time>
      </trkpt>
      <trkpt lat="49.13105" lon="6.01528">
        <ele>348.3</ele>
        <time>2011-11-06T09:56:58Z</time>
      </trkpt>
      <trkpt lat="49.13095" lon="6.01531">
        <ele>348.2</ele>
        <time>2011-11-06T09:56:59Z</time>
      </trkpt>
      <trkpt lat="49.13086" lon="6.01535">
        <ele>348.3</ele>
        <time>2011-11-06T09:57:00Z</time>
      </trkpt>
      <trkpt lat="49.13077" lon="6.01538">
        <ele>348.3</ele>
        <time>2011-11-06T09:57:01Z</time>
      </trkpt>
      <trkpt lat="49.13069" lon="6.01544">
        <ele>348.8</ele>
        <time>2011-11-06T09:57:02Z</time>
      </trkpt>
      <trkpt lat="49.13057" lon="6.0155">
        <ele>348.7</ele>
        <time>2011-11-06T09:57:03Z</time>
      </trkpt>
      <trkpt lat="49.13048" lon="6.01549">
        <ele>348.6</ele>
        <time>2011-11-06T09:57:04Z</time>
      </trkpt>
      <trkpt lat="49.1304" lon="6.0155">
        <ele>348.6</ele>
        <time>2011-11-06T09:57:05Z</time>
      </trkpt>
      <trkpt lat="49.13027" lon="6.01551">
        <ele>348.5</ele>
        <time>2011-11-06T09:57:06Z</time>
      </trkpt>
      <trkpt lat="49.1302" lon="6.01551">
        <ele>348.5</ele>
        <time>2011-11-06T09:57:07Z</time>
      </trkpt>
      <trkpt lat="49.1301" lon="6.01554">
        <ele>348.5</ele>
        <time>2011-11-06T09:57:08Z</time>
      </trkpt>
      <trkpt lat="49.13" lon="6.01555">
        <ele>348.4</ele>
        <time>2011-11-06T09:57:09Z</time>
      </trkpt>
      <trkpt lat="49.1299" lon="6.01558">
        <ele>348.4</ele>
        <time>2011-11-06T09:57:10Z</time>
      </trkpt>
      <trkpt lat="49.12981" lon="6.01558">
        <ele>348.4</ele>
        <time>2011-11-06T09:57:11Z</time>
      </trkpt>
      <trkpt lat="49.12972" lon="6.01557">
        <ele>348.3</ele>
        <time>2011-11-06T09:57:12Z</time>
      </trkpt>
      <trkpt lat="49.12962" lon="6.01554">
        <ele>348.3</ele>
        <time>2011-11-06T09:57:13Z</time>
      </trkpt>
      <trkpt lat="49.12953" lon="6.01551">
        <ele>348.3</ele>
        <time>2011-11-06T09:57:14Z</time>
      </trkpt>
      <trkpt lat="49.12945" lon="6.01556">
        <ele>348.2</ele>
        <time>2011-11-06T09:57:15Z</time>
      </trkpt>
      <trkpt lat="49.12935" lon="6.01555">
        <ele>348.2</ele>
        <time>2011-11-06T09:57:16Z</time>
      </trkpt>
      <trkpt lat="49.12924" lon="6.0155">
        <ele>347.5</ele>
        <time>2011-11-06T09:57:17Z</time>
      </trkpt>
      <trkpt lat="49.12916" lon="6.01554">
        <ele>347.5</ele>
        <time>2011-11-06T09:57:18Z</time>
      </trkpt>
      <trkpt lat="49.12905" lon="6.01554">
        <ele>347.4</ele>
        <time>2011-11-06T09:57:19Z</time>
      </trkpt>
      <trkpt lat="49.12891" lon="6.0156">
        <ele>347.6</ele>
        <time>2011-11-06T09:57:20Z</time>
      </trkpt>
      <trkpt lat="49.12877" lon="6.01572">
        <ele>347.4</ele>
        <time>2011-11-06T09:57:21Z</time>
      </trkpt>
      <trkpt lat="49.12869" lon="6.01575">
        <ele>348</ele>
        <time>2011-11-06T09:57:22Z</time>
      </trkpt>
      <trkpt lat="49.12858" lon="6.01578">
        <ele>350.2</ele>
        <time>2011-11-06T09:57:23Z</time>
      </trkpt>
      <trkpt lat="49.12849" lon="6.01582">
        <ele>352.4</ele>
        <time>2011-11-06T09:57:24Z</time>
      </trkpt>
      <trkpt lat="49.12842" lon="6.01582">
        <ele>355.5</ele>
        <time>2011-11-06T09:57:25Z</time>
      </trkpt>
      <trkpt lat="49.12833" lon="6.01584">
        <ele>355.8</ele>
        <time>2011-11-06T09:57:26Z</time>
      </trkpt>
      <trkpt lat="49.12825" lon="6.01587">
        <ele>355.6</ele>
        <time>2011-11-06T09:57:27Z</time>
      </trkpt>
      <trkpt lat="49.12817" lon="6.01589">
        <ele>355</ele>
        <time>2011-11-06T09:57:28Z</time>
      </trkpt>
      <trkpt lat="49.12809" lon="6.01592">
        <ele>356</ele>
        <time>2011-11-06T09:57:29Z</time>
      </trkpt>
      <trkpt lat="49.12802" lon="6.01594">
        <ele>356.3</ele>
        <time>2011-11-06T09:57:30Z</time>
      </trkpt>
      <trkpt lat="49.12796" lon="6.01595">
        <ele>355.1</ele>
        <time>2011-11-06T09:57:31Z</time>
      </trkpt>
      <trkpt lat="49.1279" lon="6.01596">
        <ele>354.9</ele>
        <time>2011-11-06T09:57:32Z</time>
      </trkpt>
      <trkpt lat="49.12785" lon="6.01597">
        <ele>355.3</ele>
        <time>2011-11-06T09:57:33Z</time>
      </trkpt>
      <trkpt lat="49.12779" lon="6.01598">
        <ele>354.4</ele>
        <time>2011-11-06T09:57:34Z</time>
      </trkpt>
      <trkpt lat="49.12774" lon="6.01601">
        <ele>353.4</ele>
        <time>2011-11-06T09:57:35Z</time>
      </trkpt>
      <trkpt lat="49.12768" lon="6.01602">
        <ele>353.6</ele>
        <time>2011-11-06T09:57:36Z</time>
      </trkpt>
      <trkpt lat="49.12764" lon="6.01604">
        <ele>353.4</ele>
        <time>2011-11-06T09:57:37Z</time>
      </trkpt>
      <trkpt lat="49.12758" lon="6.01606">
        <ele>352.8</ele>
        <time>2011-11-06T09:57:38Z</time>
      </trkpt>
      <trkpt lat="49.12753" lon="6.01607">
        <ele>353</ele>
        <time>2011-11-06T09:57:39Z</time>
      </trkpt>
      <trkpt lat="49.12748" lon="6.01608">
        <ele>353.9</ele>
        <time>2011-11-06T09:57:40Z</time>
      </trkpt>
      <trkpt lat="49.12744" lon="6.0161">
        <ele>354.6</ele>
        <time>2011-11-06T09:57:41Z</time>
      </trkpt>
      <trkpt lat="49.12735" lon="6.01611">
        <ele>354.7</ele>
        <time>2011-11-06T09:57:43Z</time>
      </trkpt>
      <trkpt lat="49.12731" lon="6.01613">
        <ele>354.6</ele>
        <time>2011-11-06T09:57:44Z</time>
      </trkpt>
      <trkpt lat="49.12725" lon="6.01613">
        <ele>355.6</ele>
        <time>2011-11-06T09:57:45Z</time>
      </trkpt>
      <trkpt lat="49.1272" lon="6.01615">
        <ele>355.5</ele>
        <time>2011-11-06T09:57:46Z</time>
      </trkpt>
      <trkpt lat="49.12714" lon="6.01617">
        <ele>355.4</ele>
        <time>2011-11-06T09:57:48Z</time>
      </trkpt>
      <trkpt lat="49.12708" lon="6.0162">
        <ele>355.2</ele>
        <time>2011-11-06T09:57:50Z</time>
      </trkpt>
      <trkpt lat="49.127" lon="6.01621">
        <ele>355.8</ele>
        <time>2011-11-06T09:57:52Z</time>
      </trkpt>
      <trkpt lat="49.12691" lon="6.01622">
        <ele>355.9</ele>
        <time>2011-11-06T09:57:54Z</time>
      </trkpt>
      <trkpt lat="49.12684" lon="6.01624">
        <ele>355.2</ele>
        <time>2011-11-06T09:57:56Z</time>
      </trkpt>
      <trkpt lat="49.12678" lon="6.01627">
        <ele>355.6</ele>
        <time>2011-11-06T09:57:58Z</time>
      </trkpt>
      <trkpt lat="49.12671" lon="6.0163">
        <ele>355</ele>
        <time>2011-11-06T09:58:00Z</time>
      </trkpt>
      <trkpt lat="49.12665" lon="6.0163">
        <ele>355.8</ele>
        <time>2011-11-06T09:58:02Z</time>
      </trkpt>
      <trkpt lat="49.12658" lon="6.01633">
        <ele>355.8</ele>
        <time>2011-11-06T09:58:04Z</time>
      </trkpt>
      <trkpt lat="49.12652" lon="6.01635">
        <ele>356.5</ele>
        <time>2011-11-06T09:58:06Z</time>
      </trkpt>
      <trkpt lat="49.12646" lon="6.01638">
        <ele>357.2</ele>
        <time>2011-11-06T09:58:08Z</time>
      </trkpt>
      <trkpt lat="49.12639" lon="6.01643">
        <ele>356.6</ele>
        <time>2011-11-06T09:58:10Z</time>
      </trkpt>
      <trkpt lat="49.12632" lon="6.01646">
        <ele>358.1</ele>
        <time>2011-11-06T09:58:12Z</time>
      </trkpt>
      <trkpt lat="49.12626" lon="6.01648">
        <ele>359.4</ele>
        <time>2011-11-06T09:58:13Z</time>
      </trkpt>
      <trkpt lat="49.12622" lon="6.0165">
        <ele>359.2</ele>
        <time>2011-11-06T09:58:14Z</time>
      </trkpt>
      <trkpt lat="49.12613" lon="6.01654">
        <ele>359.2</ele>
        <time>2011-11-06T09:58:16Z</time>
      </trkpt>
      <trkpt lat="49.12608" lon="6.01655">
        <ele>359.3</ele>
        <time>2011-11-06T09:58:17Z</time>
      </trkpt>
      <trkpt lat="49.126" lon="6.01661">
        <ele>361.3</ele>
        <time>2011-11-06T09:58:19Z</time>
      </trkpt>
      <trkpt lat="49.12596" lon="6.01664">
        <ele>360.4</ele>
        <time>2011-11-06T09:58:20Z</time>
      </trkpt>
      <trkpt lat="49.1259" lon="6.01666">
        <ele>360.5</ele>
        <time>2011-11-06T09:58:21Z</time>
      </trkpt>
      <trkpt lat="49.12586" lon="6.01669">
        <ele>360.7</ele>
        <time>2011-11-06T09:58:22Z</time>
      </trkpt>
      <trkpt lat="49.12582" lon="6.0167">
        <ele>361</ele>
        <time>2011-11-06T09:58:23Z</time>
      </trkpt>
      <trkpt lat="49.12577" lon="6.01672">
        <ele>361.4</ele>
        <time>2011-11-06T09:58:24Z</time>
      </trkpt>
      <trkpt lat="49.12569" lon="6.01677">
        <ele>360.8</ele>
        <time>2011-11-06T09:58:26Z</time>
      </trkpt>
      <trkpt lat="49.12564" lon="6.01679">
        <ele>359.7</ele>
        <time>2011-11-06T09:58:27Z</time>
      </trkpt>
      <trkpt lat="49.12556" lon="6.01684">
        <ele>360</ele>
        <time>2011-11-06T09:58:29Z</time>
      </trkpt>
      <trkpt lat="49.12549" lon="6.01687">
        <ele>361.2</ele>
        <time>2011-11-06T09:58:31Z</time>
      </trkpt>
      <trkpt lat="49.12545" lon="6.01693">
        <ele>362.5</ele>
        <time>2011-11-06T09:58:34Z</time>
      </trkpt>
      <trkpt lat="49.1254" lon="6.01693">
        <ele>364.3</ele>
        <time>2011-11-06T09:58:38Z</time>
      </trkpt>
      <trkpt lat="49.12545" lon="6.01693">
        <ele>365.3</ele>
        <time>2011-11-06T10:00:24Z</time>
      </trkpt>
      <trkpt lat="49.12552" lon="6.01691">
        <ele>365.1</ele>
        <time>2011-11-06T10:00:26Z</time>
      </trkpt>
      <trkpt lat="49.1256" lon="6.01686">
        <ele>365</ele>
        <time>2011-11-06T10:00:28Z</time>
      </trkpt>
      <trkpt lat="49.1257" lon="6.01684">
        <ele>364.5</ele>
        <time>2011-11-06T10:00:30Z</time>
      </trkpt>
      <trkpt lat="49.12574" lon="6.01681">
        <ele>363.1</ele>
        <time>2011-11-06T10:00:31Z</time>
      </trkpt>
      <trkpt lat="49.12579" lon="6.01678">
        <ele>362</ele>
        <time>2011-11-06T10:00:32Z</time>
      </trkpt>
      <trkpt lat="49.12584" lon="6.01675">
        <ele>362</ele>
        <time>2011-11-06T10:00:33Z</time>
      </trkpt>
      <trkpt lat="49.12588" lon="6.01673">
        <ele>361.3</ele>
        <time>2011-11-06T10:00:34Z</time>
      </trkpt>
      <trkpt lat="49.12594" lon="6.0167">
        <ele>361.4</ele>
        <time>2011-11-06T10:00:35Z</time>
      </trkpt>
      <trkpt lat="49.12599" lon="6.01668">
        <ele>360.5</ele>
        <time>2011-11-06T10:00:36Z</time>
      </trkpt>
      <trkpt lat="49.12604" lon="6.01665">
        <ele>360.7</ele>
        <time>2011-11-06T10:00:37Z</time>
      </trkpt>
      <trkpt lat="49.1261" lon="6.01663">
        <ele>360.2</ele>
        <time>2011-11-06T10:00:38Z</time>
      </trkpt>
      <trkpt lat="49.12616" lon="6.01662">
        <ele>360.2</ele>
        <time>2011-11-06T10:00:39Z</time>
      </trkpt>
      <trkpt lat="49.12622" lon="6.01659">
        <ele>360.8</ele>
        <time>2011-11-06T10:00:40Z</time>
      </trkpt>
      <trkpt lat="49.12628" lon="6.01657">
        <ele>360.5</ele>
        <time>2011-11-06T10:00:41Z</time>
      </trkpt>
      <trkpt lat="49.12635" lon="6.01654">
        <ele>361.1</ele>
        <time>2011-11-06T10:00:42Z</time>
      </trkpt>
      <trkpt lat="49.12641" lon="6.01652">
        <ele>360.3</ele>
        <time>2011-11-06T10:00:43Z</time>
      </trkpt>
      <trkpt lat="49.12647" lon="6.0165">
        <ele>359.6</ele>
        <time>2011-11-06T10:00:44Z</time>
      </trkpt>
      <trkpt lat="49.12654" lon="6.01648">
        <ele>359</ele>
        <time>2011-11-06T10:00:45Z</time>
      </trkpt>
      <trkpt lat="49.1266" lon="6.01646">
        <ele>359.1</ele>
        <time>2011-11-06T10:00:46Z</time>
      </trkpt>
      <trkpt lat="49.12667" lon="6.01644">
        <ele>359.1</ele>
        <time>2011-11-06T10:00:47Z</time>
      </trkpt>
      <trkpt lat="49.12674" lon="6.01641">
        <ele>359.5</ele>
        <time>2011-11-06T10:00:48Z</time>
      </trkpt>
      <trkpt lat="49.12682" lon="6.01638">
        <ele>358.8</ele>
        <time>2011-11-06T10:00:49Z</time>
      </trkpt>
      <trkpt lat="49.1269" lon="6.01636">
        <ele>358.4</ele>
        <time>2011-11-06T10:00:50Z</time>
      </trkpt>
      <trkpt lat="49.12697" lon="6.01633">
        <ele>358.5</ele>
        <time>2011-11-06T10:00:51Z</time>
      </trkpt>
      <trkpt lat="49.12705" lon="6.0163">
        <ele>358.4</ele>
        <time>2011-11-06T10:00:52Z</time>
      </trkpt>
      <trkpt lat="49.12714" lon="6.01628">
        <ele>358.3</ele>
        <time>2011-11-06T10:00:53Z</time>
      </trkpt>
      <trkpt lat="49.12722" lon="6.01625">
        <ele>357.5</ele>
        <time>2011-11-06T10:00:54Z</time>
      </trkpt>
      <trkpt lat="49.1273" lon="6.01622">
        <ele>356.8</ele>
        <time>2011-11-06T10:00:55Z</time>
      </trkpt>
      <trkpt lat="49.12742" lon="6.0162">
        <ele>356.1</ele>
        <time>2011-11-06T10:00:56Z</time>
      </trkpt>
      <trkpt lat="49.12748" lon="6.01617">
        <ele>356.2</ele>
        <time>2011-11-06T10:00:57Z</time>
      </trkpt>
      <trkpt lat="49.12758" lon="6.01615">
        <ele>355.5</ele>
        <time>2011-11-06T10:00:58Z</time>
      </trkpt>
      <trkpt lat="49.12768" lon="6.01613">
        <ele>355.6</ele>
        <time>2011-11-06T10:00:59Z</time>
      </trkpt>
      <trkpt lat="49.12777" lon="6.0161">
        <ele>355.6</ele>
        <time>2011-11-06T10:01:00Z</time>
      </trkpt>
      <trkpt lat="49.12786" lon="6.01608">
        <ele>355.4</ele>
        <time>2011-11-06T10:01:01Z</time>
      </trkpt>
      <trkpt lat="49.12795" lon="6.01605">
        <ele>354.7</ele>
        <time>2011-11-06T10:01:02Z</time>
      </trkpt>
      <trkpt lat="49.12804" lon="6.01603">
        <ele>354.4</ele>
        <time>2011-11-06T10:01:03Z</time>
      </trkpt>
      <trkpt lat="49.12812" lon="6.016">
        <ele>355.1</ele>
        <time>2011-11-06T10:01:04Z</time>
      </trkpt>
      <trkpt lat="49.12822" lon="6.01599">
        <ele>354.6</ele>
        <time>2011-11-06T10:01:05Z</time>
      </trkpt>
      <trkpt lat="49.1283" lon="6.01595">
        <ele>354.6</ele>
        <time>2011-11-06T10:01:06Z</time>
      </trkpt>
      <trkpt lat="49.12839" lon="6.01594">
        <ele>354.8</ele>
        <time>2011-11-06T10:01:07Z</time>
      </trkpt>
      <trkpt lat="49.12848" lon="6.01591">
        <ele>354.6</ele>
        <time>2011-11-06T10:01:08Z</time>
      </trkpt>
      <trkpt lat="49.12857" lon="6.01588">
        <ele>354.4</ele>
        <time>2011-11-06T10:01:09Z</time>
      </trkpt>
      <trkpt lat="49.12866" lon="6.01586">
        <ele>354.8</ele>
        <time>2011-11-06T10:01:10Z</time>
      </trkpt>
      <trkpt lat="49.12875" lon="6.01584">
        <ele>354.6</ele>
        <time>2011-11-06T10:01:11Z</time>
      </trkpt>
      <trkpt lat="49.12884" lon="6.01582">
        <ele>354.6</ele>
        <time>2011-11-06T10:01:12Z</time>
      </trkpt>
      <trkpt lat="49.12892" lon="6.01578">
        <ele>354.9</ele>
        <time>2011-11-06T10:01:13Z</time>
      </trkpt>
      <trkpt lat="49.12902" lon="6.01576">
        <ele>354.5</ele>
        <time>2011-11-06T10:01:14Z</time>
      </trkpt>
      <trkpt lat="49.12911" lon="6.01574">
        <ele>354.4</ele>
        <time>2011-11-06T10:01:15Z</time>
      </trkpt>
      <trkpt lat="49.12919" lon="6.01572">
        <ele>354.3</ele>
        <time>2011-11-06T10:01:16Z</time>
      </trkpt>
      <trkpt lat="49.12927" lon="6.01572">
        <ele>354.7</ele>
        <time>2011-11-06T10:01:17Z</time>
      </trkpt>
      <trkpt lat="49.12935" lon="6.0157">
        <ele>354.5</ele>
        <time>2011-11-06T10:01:18Z</time>
      </trkpt>
      <trkpt lat="49.12943" lon="6.01568">
        <ele>354.8</ele>
        <time>2011-11-06T10:01:19Z</time>
      </trkpt>
      <trkpt lat="49.12951" lon="6.01566">
        <ele>354.7</ele>
        <time>2011-11-06T10:01:20Z</time>
      </trkpt>
      <trkpt lat="49.12958" lon="6.01563">
        <ele>354.5</ele>
        <time>2011-11-06T10:01:21Z</time>
      </trkpt>
      <trkpt lat="49.12964" lon="6.01563">
        <ele>354.1</ele>
        <time>2011-11-06T10:01:22Z</time>
      </trkpt>
      <trkpt lat="49.1297" lon="6.01562">
        <ele>353.6</ele>
        <time>2011-11-06T10:01:23Z</time>
      </trkpt>
      <trkpt lat="49.12978" lon="6.01562">
        <ele>354</ele>
        <time>2011-11-06T10:01:24Z</time>
      </trkpt>
      <trkpt lat="49.12983" lon="6.01561">
        <ele>353.2</ele>
        <time>2011-11-06T10:01:25Z</time>
      </trkpt>
      <trkpt lat="49.1299" lon="6.01561">
        <ele>353.3</ele>
        <time>2011-11-06T10:01:26Z</time>
      </trkpt>
      <trkpt lat="49.12997" lon="6.0156">
        <ele>353.8</ele>
        <time>2011-11-06T10:01:27Z</time>
      </trkpt>
      <trkpt lat="49.13004" lon="6.01558">
        <ele>354.2</ele>
        <time>2011-11-06T10:01:28Z</time>
      </trkpt>
      <trkpt lat="49.13011" lon="6.01556">
        <ele>354.2</ele>
        <time>2011-11-06T10:01:29Z</time>
      </trkpt>
      <trkpt lat="49.13016" lon="6.0156">
        <ele>353.8</ele>
        <time>2011-11-06T10:01:30Z</time>
      </trkpt>
      <trkpt lat="49.13023" lon="6.01559">
        <ele>353.8</ele>
        <time>2011-11-06T10:01:31Z</time>
      </trkpt>
      <trkpt lat="49.13029" lon="6.01558">
        <ele>353.8</ele>
        <time>2011-11-06T10:01:32Z</time>
      </trkpt>
      <trkpt lat="49.13034" lon="6.01557">
        <ele>353.6</ele>
        <time>2011-11-06T10:01:33Z</time>
      </trkpt>
      <trkpt lat="49.13037" lon="6.01545">
        <ele>353.4</ele>
        <time>2011-11-06T10:01:34Z</time>
      </trkpt>
      <trkpt lat="49.13043" lon="6.01542">
        <ele>353.1</ele>
        <time>2011-11-06T10:01:36Z</time>
      </trkpt>
      <trkpt lat="49.13049" lon="6.01542">
        <ele>353.6</ele>
        <time>2011-11-06T10:01:39Z</time>
      </trkpt>
      <trkpt lat="49.13044" lon="6.0155">
        <ele>353.6</ele>
        <time>2011-11-06T10:01:43Z</time>
      </trkpt>
      <trkpt lat="49.13047" lon="6.01545">
        <ele>354.7</ele>
        <time>2011-11-06T10:01:58Z</time>
      </trkpt>
      <trkpt lat="49.13041" lon="6.01544">
        <ele>354.8</ele>
        <time>2011-11-06T10:07:24Z</time>
      </trkpt>
      <trkpt lat="49.13035" lon="6.01546">
        <ele>355.5</ele>
        <time>2011-11-06T10:07:26Z</time>
      </trkpt>
      <trkpt lat="49.13025" lon="6.01548">
        <ele>353.9</ele>
        <time>2011-11-06T10:07:27Z</time>
      </trkpt>
      <trkpt lat="49.13021" lon="6.01549">
        <ele>354.2</ele>
        <time>2011-11-06T10:07:28Z</time>
      </trkpt>
      <trkpt lat="49.13016" lon="6.01549">
        <ele>354</ele>
        <time>2011-11-06T10:07:29Z</time>
      </trkpt>
      <trkpt lat="49.1301" lon="6.0155">
        <ele>353.5</ele>
        <time>2011-11-06T10:07:30Z</time>
      </trkpt>
      <trkpt lat="49.13003" lon="6.01552">
        <ele>353.7</ele>
        <time>2011-11-06T10:07:31Z</time>
      </trkpt>
      <trkpt lat="49.12993" lon="6.01553">
        <ele>352.7</ele>
        <time>2011-11-06T10:07:32Z</time>
      </trkpt>
      <trkpt lat="49.12988" lon="6.01554">
        <ele>353.3</ele>
        <time>2011-11-06T10:07:33Z</time>
      </trkpt>
      <trkpt lat="49.12981" lon="6.01555">
        <ele>353.1</ele>
        <time>2011-11-06T10:07:34Z</time>
      </trkpt>
      <trkpt lat="49.12974" lon="6.01556">
        <ele>352.9</ele>
        <time>2011-11-06T10:07:35Z</time>
      </trkpt>
      <trkpt lat="49.12967" lon="6.01556">
        <ele>353.2</ele>
        <time>2011-11-06T10:07:36Z</time>
      </trkpt>
      <trkpt lat="49.1296" lon="6.01557">
        <ele>352</ele>
        <time>2011-11-06T10:07:37Z</time>
      </trkpt>
      <trkpt lat="49.12953" lon="6.01558">
        <ele>351.6</ele>
        <time>2011-11-06T10:07:38Z</time>
      </trkpt>
      <trkpt lat="49.12946" lon="6.01559">
        <ele>351.3</ele>
        <time>2011-11-06T10:07:39Z</time>
      </trkpt>
      <trkpt lat="49.12939" lon="6.0156">
        <ele>351.3</ele>
        <time>2011-11-06T10:07:40Z</time>
      </trkpt>
      <trkpt lat="49.1293" lon="6.01562">
        <ele>350.9</ele>
        <time>2011-11-06T10:07:41Z</time>
      </trkpt>
      <trkpt lat="49.12922" lon="6.01564">
        <ele>350.6</ele>
        <time>2011-11-06T10:07:42Z</time>
      </trkpt>
      <trkpt lat="49.12914" lon="6.01564">
        <ele>350.7</ele>
        <time>2011-11-06T10:07:43Z</time>
      </trkpt>
      <trkpt lat="49.12906" lon="6.01566">
        <ele>350.8</ele>
        <time>2011-11-06T10:07:44Z</time>
      </trkpt>
      <trkpt lat="49.12898" lon="6.01568">
        <ele>350.7</ele>
        <time>2011-11-06T10:07:45Z</time>
      </trkpt>
      <trkpt lat="49.12889" lon="6.01569">
        <ele>351</ele>
        <time>2011-11-06T10:07:46Z</time>
      </trkpt>
      <trkpt lat="49.12881" lon="6.01572">
        <ele>350.9</ele>
        <time>2011-11-06T10:07:47Z</time>
      </trkpt>
      <trkpt lat="49.12872" lon="6.01574">
        <ele>351.1</ele>
        <time>2011-11-06T10:07:48Z</time>
      </trkpt>
      <trkpt lat="49.12864" lon="6.01577">
        <ele>352.8</ele>
        <time>2011-11-06T10:07:49Z</time>
      </trkpt>
      <trkpt lat="49.12855" lon="6.01579">
        <ele>353</ele>
        <time>2011-11-06T10:07:50Z</time>
      </trkpt>
      <trkpt lat="49.12847" lon="6.01581">
        <ele>353</ele>
        <time>2011-11-06T10:07:51Z</time>
      </trkpt>
      <trkpt lat="49.12838" lon="6.01584">
        <ele>353.6</ele>
        <time>2011-11-06T10:07:52Z</time>
      </trkpt>
      <trkpt lat="49.12829" lon="6.01586">
        <ele>353</ele>
        <time>2011-11-06T10:07:53Z</time>
      </trkpt>
      <trkpt lat="49.12822" lon="6.01588">
        <ele>353.1</ele>
        <time>2011-11-06T10:07:54Z</time>
      </trkpt>
      <trkpt lat="49.12814" lon="6.01591">
        <ele>354.8</ele>
        <time>2011-11-06T10:07:55Z</time>
      </trkpt>
      <trkpt lat="49.12806" lon="6.01594">
        <ele>355</ele>
        <time>2011-11-06T10:07:56Z</time>
      </trkpt>
      <trkpt lat="49.12798" lon="6.01595">
        <ele>354.6</ele>
        <time>2011-11-06T10:07:57Z</time>
      </trkpt>
      <trkpt lat="49.1279" lon="6.01597">
        <ele>354.9</ele>
        <time>2011-11-06T10:07:58Z</time>
      </trkpt>
      <trkpt lat="49.12783" lon="6.01599">
        <ele>355.6</ele>
        <time>2011-11-06T10:07:59Z</time>
      </trkpt>
      <trkpt lat="49.12775" lon="6.01601">
        <ele>356.5</ele>
        <time>2011-11-06T10:08:00Z</time>
      </trkpt>
      <trkpt lat="49.12767" lon="6.01604">
        <ele>356.9</ele>
        <time>2011-11-06T10:08:01Z</time>
      </trkpt>
      <trkpt lat="49.1276" lon="6.01607">
        <ele>357.2</ele>
        <time>2011-11-06T10:08:02Z</time>
      </trkpt>
      <trkpt lat="49.12753" lon="6.01609">
        <ele>357.7</ele>
        <time>2011-11-06T10:08:03Z</time>
      </trkpt>
      <trkpt lat="49.12745" lon="6.0161">
        <ele>357.5</ele>
        <time>2011-11-06T10:08:04Z</time>
      </trkpt>
      <trkpt lat="49.12737" lon="6.01612">
        <ele>357.5</ele>
        <time>2011-11-06T10:08:05Z</time>
      </trkpt>
      <trkpt lat="49.12731" lon="6.01613">
        <ele>359.3</ele>
        <time>2011-11-06T10:08:06Z</time>
      </trkpt>
      <trkpt lat="49.12724" lon="6.01616">
        <ele>359.7</ele>
        <time>2011-11-06T10:08:07Z</time>
      </trkpt>
      <trkpt lat="49.12717" lon="6.01618">
        <ele>359.7</ele>
        <time>2011-11-06T10:08:08Z</time>
      </trkpt>
      <trkpt lat="49.1271" lon="6.0162">
        <ele>360.3</ele>
        <time>2011-11-06T10:08:09Z</time>
      </trkpt>
      <trkpt lat="49.12704" lon="6.01622">
        <ele>360.8</ele>
        <time>2011-11-06T10:08:10Z</time>
      </trkpt>
      <trkpt lat="49.12696" lon="6.01624">
        <ele>361</ele>
        <time>2011-11-06T10:08:11Z</time>
      </trkpt>
      <trkpt lat="49.1269" lon="6.01626">
        <ele>361.1</ele>
        <time>2011-11-06T10:08:12Z</time>
      </trkpt>
      <trkpt lat="49.12683" lon="6.01627">
        <ele>361.3</ele>
        <time>2011-11-06T10:08:13Z</time>
      </trkpt>
      <trkpt lat="49.12676" lon="6.01629">
        <ele>361.3</ele>
        <time>2011-11-06T10:08:14Z</time>
      </trkpt>
      <trkpt lat="49.1267" lon="6.01631">
        <ele>362.5</ele>
        <time>2011-11-06T10:08:15Z</time>
      </trkpt>
      <trkpt lat="49.12664" lon="6.01634">
        <ele>363.1</ele>
        <time>2011-11-06T10:08:16Z</time>
      </trkpt>
      <trkpt lat="49.12659" lon="6.01637">
        <ele>363.6</ele>
        <time>2011-11-06T10:08:17Z</time>
      </trkpt>
      <trkpt lat="49.12652" lon="6.01639">
        <ele>363.3</ele>
        <time>2011-11-06T10:08:18Z</time>
      </trkpt>
      <trkpt lat="49.12646" lon="6.01642">
        <ele>363.2</ele>
        <time>2011-11-06T10:08:19Z</time>
      </trkpt>
      <trkpt lat="49.1264" lon="6.01643">
        <ele>364.1</ele>
        <time>2011-11-06T10:08:20Z</time>
      </trkpt>
      <trkpt lat="49.12634" lon="6.01646">
        <ele>364.2</ele>
        <time>2011-11-06T10:08:21Z</time>
      </trkpt>
      <trkpt lat="49.12627" lon="6.0165">
        <ele>364.1</ele>
        <time>2011-11-06T10:08:22Z</time>
      </trkpt>
      <trkpt lat="49.12621" lon="6.01653">
        <ele>364.9</ele>
        <time>2011-11-06T10:08:23Z</time>
      </trkpt>
      <trkpt lat="49.12615" lon="6.01655">
        <ele>366.4</ele>
        <time>2011-11-06T10:08:24Z</time>
      </trkpt>
      <trkpt lat="49.12609" lon="6.01658">
        <ele>366.8</ele>
        <time>2011-11-06T10:08:25Z</time>
      </trkpt>
      <trkpt lat="49.12603" lon="6.0166">
        <ele>366.5</ele>
        <time>2011-11-06T10:08:26Z</time>
      </trkpt>
      <trkpt lat="49.12597" lon="6.01663">
        <ele>366.2</ele>
        <time>2011-11-06T10:08:27Z</time>
      </trkpt>
      <trkpt lat="49.12592" lon="6.01666">
        <ele>367.2</ele>
        <time>2011-11-06T10:08:28Z</time>
      </trkpt>
      <trkpt lat="49.12587" lon="6.01668">
        <ele>367.5</ele>
        <time>2011-11-06T10:08:29Z</time>
      </trkpt>
      <trkpt lat="49.12581" lon="6.01671">
        <ele>368.3</ele>
        <time>2011-11-06T10:08:30Z</time>
      </trkpt>
      <trkpt lat="49.12575" lon="6.01674">
        <ele>367.7</ele>
        <time>2011-11-06T10:08:31Z</time>
      </trkpt>
      <trkpt lat="49.12569" lon="6.01676">
        <ele>367.3</ele>
        <time>2011-11-06T10:08:32Z</time>
      </trkpt>
      <trkpt lat="49.12563" lon="6.0168">
        <ele>367.1</ele>
        <time>2011-11-06T10:08:33Z</time>
      </trkpt>
      <trkpt lat="49.12558" lon="6.01683">
        <ele>366.4</ele>
        <time>2011-11-06T10:08:34Z</time>
      </trkpt>
      <trkpt lat="49.12553" lon="6.01685">
        <ele>366.6</ele>
        <time>2011-11-06T10:08:35Z</time>
      </trkpt>
      <trkpt lat="49.12547" lon="6.01688">
        <ele>366</ele>
        <time>2011-11-06T10:08:36Z</time>
      </trkpt>
      <trkpt lat="49.12542" lon="6.01691">
        <ele>366</ele>
        <time>2011-11-06T10:08:37Z</time>
      </trkpt>
      <trkpt lat="49.12537" lon="6.01694">
        <ele>365.7</ele>
        <time>2011-11-06T10:08:38Z</time>
      </trkpt>
      <trkpt lat="49.12533" lon="6.01696">
        <ele>365.6</ele>
        <time>2011-11-06T10:08:39Z</time>
      </trkpt>
      <trkpt lat="49.12528" lon="6.01699">
        <ele>365.6</ele>
        <time>2011-11-06T10:08:40Z</time>
      </trkpt>
      <trkpt lat="49.12523" lon="6.01702">
        <ele>365.3</ele>
        <time>2011-11-06T10:08:41Z</time>
      </trkpt>
      <trkpt lat="49.12518" lon="6.01704">
        <ele>365.3</ele>
        <time>2011-11-06T10:08:42Z</time>
      </trkpt>
      <trkpt lat="49.12511" lon="6.0171">
        <ele>366.2</ele>
        <time>2011-11-06T10:08:44Z</time>
      </trkpt>
      <trkpt lat="49.12506" lon="6.01712">
        <ele>366.7</ele>
        <time>2011-11-06T10:08:45Z</time>
      </trkpt>
      <trkpt lat="49.12498" lon="6.01718">
        <ele>366.4</ele>
        <time>2011-11-06T10:08:47Z</time>
      </trkpt>
      <trkpt lat="49.12491" lon="6.01722">
        <ele>366.6</ele>
        <time>2011-11-06T10:08:49Z</time>
      </trkpt>
      <trkpt lat="49.12483" lon="6.01728">
        <ele>367.5</ele>
        <time>2011-11-06T10:08:51Z</time>
      </trkpt>
      <trkpt lat="49.12478" lon="6.01732">
        <ele>367.2</ele>
        <time>2011-11-06T10:08:53Z</time>
      </trkpt>
      <trkpt lat="49.12471" lon="6.01735">
        <ele>367.6</ele>
        <time>2011-11-06T10:08:55Z</time>
      </trkpt>
      <trkpt lat="49.12465" lon="6.01738">
        <ele>367.8</ele>
        <time>2011-11-06T10:08:57Z</time>
      </trkpt>
      <trkpt lat="49.1246" lon="6.01733">
        <ele>368.7</ele>
        <time>2011-11-06T10:08:59Z</time>
      </trkpt>
      <trkpt lat="49.12456" lon="6.01724">
        <ele>367.8</ele>
        <time>2011-11-06T10:09:01Z</time>
      </trkpt>
      <trkpt lat="49.12459" lon="6.01711">
        <ele>368.6</ele>
        <time>2011-11-06T10:09:03Z</time>
      </trkpt>
      <trkpt lat="49.12462" lon="6.01699">
        <ele>368.2</ele>
        <time>2011-11-06T10:09:05Z</time>
      </trkpt>
      <trkpt lat="49.12465" lon="6.01691">
        <ele>368.4</ele>
        <time>2011-11-06T10:09:06Z</time>
      </trkpt>
      <trkpt lat="49.12467" lon="6.01682">
        <ele>367.8</ele>
        <time>2011-11-06T10:09:07Z</time>
      </trkpt>
      <trkpt lat="49.12469" lon="6.01673">
        <ele>367.9</ele>
        <time>2011-11-06T10:09:08Z</time>
      </trkpt>
      <trkpt lat="49.12471" lon="6.01664">
        <ele>368.2</ele>
        <time>2011-11-06T10:09:09Z</time>
      </trkpt>
      <trkpt lat="49.12474" lon="6.01655">
        <ele>367.6</ele>
        <time>2011-11-06T10:09:10Z</time>
      </trkpt>
      <trkpt lat="49.12476" lon="6.01644">
        <ele>367.8</ele>
        <time>2011-11-06T10:09:11Z</time>
      </trkpt>
      <trkpt lat="49.12479" lon="6.01634">
        <ele>366.3</ele>
        <time>2011-11-06T10:09:12Z</time>
      </trkpt>
      <trkpt lat="49.12482" lon="6.01623">
        <ele>365.9</ele>
        <time>2011-11-06T10:09:13Z</time>
      </trkpt>
      <trkpt lat="49.12485" lon="6.01613">
        <ele>365.9</ele>
        <time>2011-11-06T10:09:14Z</time>
      </trkpt>
      <trkpt lat="49.12488" lon="6.01602">
        <ele>366</ele>
        <time>2011-11-06T10:09:15Z</time>
      </trkpt>
      <trkpt lat="49.1249" lon="6.01591">
        <ele>365.8</ele>
        <time>2011-11-06T10:09:16Z</time>
      </trkpt>
      <trkpt lat="49.12493" lon="6.0158">
        <ele>365.9</ele>
        <time>2011-11-06T10:09:17Z</time>
      </trkpt>
      <trkpt lat="49.12495" lon="6.01568">
        <ele>365.8</ele>
        <time>2011-11-06T10:09:18Z</time>
      </trkpt>
      <trkpt lat="49.12498" lon="6.01556">
        <ele>366.1</ele>
        <time>2011-11-06T10:09:19Z</time>
      </trkpt>
      <trkpt lat="49.125" lon="6.01546">
        <ele>366.9</ele>
        <time>2011-11-06T10:09:20Z</time>
      </trkpt>
      <trkpt lat="49.12502" lon="6.01534">
        <ele>366.8</ele>
        <time>2011-11-06T10:09:21Z</time>
      </trkpt>
      <trkpt lat="49.12505" lon="6.01523">
        <ele>366.8</ele>
        <time>2011-11-06T10:09:22Z</time>
      </trkpt>
      <trkpt lat="49.12509" lon="6.01508">
        <ele>365.2</ele>
        <time>2011-11-06T10:09:23Z</time>
      </trkpt>
      <trkpt lat="49.12512" lon="6.01496">
        <ele>364.2</ele>
        <time>2011-11-06T10:09:24Z</time>
      </trkpt>
      <trkpt lat="49.12515" lon="6.01484">
        <ele>364.9</ele>
        <time>2011-11-06T10:09:25Z</time>
      </trkpt>
      <trkpt lat="49.12519" lon="6.0147">
        <ele>364.2</ele>
        <time>2011-11-06T10:09:26Z</time>
      </trkpt>
      <trkpt lat="49.12522" lon="6.01456">
        <ele>363.3</ele>
        <time>2011-11-06T10:09:27Z</time>
      </trkpt>
      <trkpt lat="49.12524" lon="6.01443">
        <ele>363.3</ele>
        <time>2011-11-06T10:09:28Z</time>
      </trkpt>
      <trkpt lat="49.12527" lon="6.0143">
        <ele>363</ele>
        <time>2011-11-06T10:09:29Z</time>
      </trkpt>
      <trkpt lat="49.1253" lon="6.01416">
        <ele>363.1</ele>
        <time>2011-11-06T10:09:30Z</time>
      </trkpt>
      <trkpt lat="49.12533" lon="6.01402">
        <ele>362.5</ele>
        <time>2011-11-06T10:09:31Z</time>
      </trkpt>
      <trkpt lat="49.12536" lon="6.01388">
        <ele>362.4</ele>
        <time>2011-11-06T10:09:32Z</time>
      </trkpt>
      <trkpt lat="49.12539" lon="6.01373">
        <ele>361.7</ele>
        <time>2011-11-06T10:09:33Z</time>
      </trkpt>
      <trkpt lat="49.12542" lon="6.0136">
        <ele>361.6</ele>
        <time>2011-11-06T10:09:34Z</time>
      </trkpt>
      <trkpt lat="49.12545" lon="6.01346">
        <ele>361.7</ele>
        <time>2011-11-06T10:09:35Z</time>
      </trkpt>
      <trkpt lat="49.12548" lon="6.01331">
        <ele>361.7</ele>
        <time>2011-11-06T10:09:36Z</time>
      </trkpt>
      <trkpt lat="49.12551" lon="6.01318">
        <ele>362</ele>
        <time>2011-11-06T10:09:37Z</time>
      </trkpt>
      <trkpt lat="49.12553" lon="6.01304">
        <ele>362.3</ele>
        <time>2011-11-06T10:09:38Z</time>
      </trkpt>
      <trkpt lat="49.12556" lon="6.01291">
        <ele>362.5</ele>
        <time>2011-11-06T10:09:39Z</time>
      </trkpt>
      <trkpt lat="49.12562" lon="6.01277">
        <ele>361.8</ele>
        <time>2011-11-06T10:09:40Z</time>
      </trkpt>
      <trkpt lat="49.12565" lon="6.01262">
        <ele>362</ele>
        <time>2011-11-06T10:09:41Z</time>
      </trkpt>
      <trkpt lat="49.12569" lon="6.01251">
        <ele>362.1</ele>
        <time>2011-11-06T10:09:42Z</time>
      </trkpt>
      <trkpt lat="49.12573" lon="6.01235">
        <ele>361.2</ele>
        <time>2011-11-06T10:09:43Z</time>
      </trkpt>
      <trkpt lat="49.12578" lon="6.0122">
        <ele>360.4</ele>
        <time>2011-11-06T10:09:44Z</time>
      </trkpt>
      <trkpt lat="49.1258" lon="6.01207">
        <ele>360.8</ele>
        <time>2011-11-06T10:09:45Z</time>
      </trkpt>
      <trkpt lat="49.12584" lon="6.01193">
        <ele>360.9</ele>
        <time>2011-11-06T10:09:46Z</time>
      </trkpt>
      <trkpt lat="49.12587" lon="6.01175">
        <ele>361.4</ele>
        <time>2011-11-06T10:09:47Z</time>
      </trkpt>
      <trkpt lat="49.12592" lon="6.0116">
        <ele>361.3</ele>
        <time>2011-11-06T10:09:48Z</time>
      </trkpt>
      <trkpt lat="49.12597" lon="6.01142">
        <ele>361.2</ele>
        <time>2011-11-06T10:09:49Z</time>
      </trkpt>
      <trkpt lat="49.12604" lon="6.01124">
        <ele>360.4</ele>
        <time>2011-11-06T10:09:51Z</time>
      </trkpt>
      <trkpt lat="49.12607" lon="6.01115">
        <ele>360.2</ele>
        <time>2011-11-06T10:09:52Z</time>
      </trkpt>
      <trkpt lat="49.1261" lon="6.01101">
        <ele>360.4</ele>
        <time>2011-11-06T10:09:53Z</time>
      </trkpt>
      <trkpt lat="49.12612" lon="6.0109">
        <ele>360.1</ele>
        <time>2011-11-06T10:09:54Z</time>
      </trkpt>
      <trkpt lat="49.12615" lon="6.01076">
        <ele>359.7</ele>
        <time>2011-11-06T10:09:55Z</time>
      </trkpt>
      <trkpt lat="49.12619" lon="6.01062">
        <ele>359.5</ele>
        <time>2011-11-06T10:09:56Z</time>
      </trkpt>
      <trkpt lat="49.12622" lon="6.01049">
        <ele>359.3</ele>
        <time>2011-11-06T10:09:57Z</time>
      </trkpt>
      <trkpt lat="49.12625" lon="6.01028">
        <ele>359.5</ele>
        <time>2011-11-06T10:09:58Z</time>
      </trkpt>
      <trkpt lat="49.12628" lon="6.01014">
        <ele>357.8</ele>
        <time>2011-11-06T10:09:59Z</time>
      </trkpt>
      <trkpt lat="49.12631" lon="6.00999">
        <ele>357.3</ele>
        <time>2011-11-06T10:10:00Z</time>
      </trkpt>
      <trkpt lat="49.12633" lon="6.00986">
        <ele>357</ele>
        <time>2011-11-06T10:10:01Z</time>
      </trkpt>
      <trkpt lat="49.12633" lon="6.0097">
        <ele>357.9</ele>
        <time>2011-11-06T10:10:02Z</time>
      </trkpt>
      <trkpt lat="49.12632" lon="6.00956">
        <ele>358.3</ele>
        <time>2011-11-06T10:10:03Z</time>
      </trkpt>
      <trkpt lat="49.12631" lon="6.00939">
        <ele>358.5</ele>
        <time>2011-11-06T10:10:04Z</time>
      </trkpt>
      <trkpt lat="49.12629" lon="6.00924">
        <ele>358.7</ele>
        <time>2011-11-06T10:10:05Z</time>
      </trkpt>
      <trkpt lat="49.12628" lon="6.00907">
        <ele>359</ele>
        <time>2011-11-06T10:10:06Z</time>
      </trkpt>
      <trkpt lat="49.12625" lon="6.00892">
        <ele>358.8</ele>
        <time>2011-11-06T10:10:07Z</time>
      </trkpt>
      <trkpt lat="49.12623" lon="6.00876">
        <ele>357.8</ele>
        <time>2011-11-06T10:10:08Z</time>
      </trkpt>
      <trkpt lat="49.12621" lon="6.0086">
        <ele>357.8</ele>
        <time>2011-11-06T10:10:09Z</time>
      </trkpt>
      <trkpt lat="49.1262" lon="6.00843">
        <ele>357.6</ele>
        <time>2011-11-06T10:10:10Z</time>
      </trkpt>
      <trkpt lat="49.12619" lon="6.00827">
        <ele>356.2</ele>
        <time>2011-11-06T10:10:11Z</time>
      </trkpt>
      <trkpt lat="49.12617" lon="6.00811">
        <ele>355.3</ele>
        <time>2011-11-06T10:10:12Z</time>
      </trkpt>
      <trkpt lat="49.12616" lon="6.00795">
        <ele>355</ele>
        <time>2011-11-06T10:10:13Z</time>
      </trkpt>
      <trkpt lat="49.12614" lon="6.00778">
        <ele>354.3</ele>
        <time>2011-11-06T10:10:14Z</time>
      </trkpt>
      <trkpt lat="49.12611" lon="6.00759">
        <ele>354.5</ele>
        <time>2011-11-06T10:10:15Z</time>
      </trkpt>
      <trkpt lat="49.12609" lon="6.00743">
        <ele>354.6</ele>
        <time>2011-11-06T10:10:16Z</time>
      </trkpt>
      <trkpt lat="49.12608" lon="6.00727">
        <ele>354.2</ele>
        <time>2011-11-06T10:10:17Z</time>
      </trkpt>
      <trkpt lat="49.12604" lon="6.00705">
        <ele>354.4</ele>
        <time>2011-11-06T10:10:18Z</time>
      </trkpt>
      <trkpt lat="49.126" lon="6.00687">
        <ele>354.8</ele>
        <time>2011-11-06T10:10:19Z</time>
      </trkpt>
      <trkpt lat="49.12598" lon="6.00673">
        <ele>354.9</ele>
        <time>2011-11-06T10:10:20Z</time>
      </trkpt>
      <trkpt lat="49.12597" lon="6.00657">
        <ele>354.9</ele>
        <time>2011-11-06T10:10:21Z</time>
      </trkpt>
      <trkpt lat="49.12597" lon="6.00636">
        <ele>353.9</ele>
        <time>2011-11-06T10:10:22Z</time>
      </trkpt>
      <trkpt lat="49.12593" lon="6.00615">
        <ele>353.9</ele>
        <time>2011-11-06T10:10:23Z</time>
      </trkpt>
      <trkpt lat="49.1259" lon="6.00598">
        <ele>353.1</ele>
        <time>2011-11-06T10:10:24Z</time>
      </trkpt>
      <trkpt lat="49.12586" lon="6.00576">
        <ele>353.7</ele>
        <time>2011-11-06T10:10:25Z</time>
      </trkpt>
      <trkpt lat="49.12582" lon="6.00564">
        <ele>354.1</ele>
        <time>2011-11-06T10:10:26Z</time>
      </trkpt>
      <trkpt lat="49.1258" lon="6.0055">
        <ele>352.6</ele>
        <time>2011-11-06T10:10:27Z</time>
      </trkpt>
      <trkpt lat="49.12578" lon="6.00534">
        <ele>351.5</ele>
        <time>2011-11-06T10:10:28Z</time>
      </trkpt>
      <trkpt lat="49.12576" lon="6.00514">
        <ele>352.3</ele>
        <time>2011-11-06T10:10:29Z</time>
      </trkpt>
      <trkpt lat="49.12573" lon="6.00497">
        <ele>352.8</ele>
        <time>2011-11-06T10:10:30Z</time>
      </trkpt>
      <trkpt lat="49.1257" lon="6.00476">
        <ele>353</ele>
        <time>2011-11-06T10:10:31Z</time>
      </trkpt>
      <trkpt lat="49.12568" lon="6.00462">
        <ele>351.5</ele>
        <time>2011-11-06T10:10:32Z</time>
      </trkpt>
      <trkpt lat="49.12565" lon="6.00447">
        <ele>351.7</ele>
        <time>2011-11-06T10:10:33Z</time>
      </trkpt>
      <trkpt lat="49.12562" lon="6.00426">
        <ele>351.8</ele>
        <time>2011-11-06T10:10:34Z</time>
      </trkpt>
      <trkpt lat="49.12559" lon="6.00405">
        <ele>351.9</ele>
        <time>2011-11-06T10:10:35Z</time>
      </trkpt>
      <trkpt lat="49.12556" lon="6.00386">
        <ele>351.7</ele>
        <time>2011-11-06T10:10:36Z</time>
      </trkpt>
      <trkpt lat="49.12555" lon="6.00369">
        <ele>351.7</ele>
        <time>2011-11-06T10:10:37Z</time>
      </trkpt>
      <trkpt lat="49.12554" lon="6.00345">
        <ele>351.6</ele>
        <time>2011-11-06T10:10:38Z</time>
      </trkpt>
      <trkpt lat="49.12552" lon="6.00319">
        <ele>351.4</ele>
        <time>2011-11-06T10:10:39Z</time>
      </trkpt>
      <trkpt lat="49.12548" lon="6.00313">
        <ele>349.9</ele>
        <time>2011-11-06T10:10:40Z</time>
      </trkpt>
      <trkpt lat="49.12545" lon="6.00301">
        <ele>348.1</ele>
        <time>2011-11-06T10:10:41Z</time>
      </trkpt>
      <trkpt lat="49.12542" lon="6.00286">
        <ele>347.9</ele>
        <time>2011-11-06T10:10:42Z</time>
      </trkpt>
      <trkpt lat="49.12541" lon="6.00268">
        <ele>347.3</ele>
        <time>2011-11-06T10:10:43Z</time>
      </trkpt>
      <trkpt lat="49.12539" lon="6.00259">
        <ele>347.5</ele>
        <time>2011-11-06T10:10:44Z</time>
      </trkpt>
      <trkpt lat="49.12536" lon="6.00243">
        <ele>346.8</ele>
        <time>2011-11-06T10:10:45Z</time>
      </trkpt>
      <trkpt lat="49.12534" lon="6.00229">
        <ele>346.4</ele>
        <time>2011-11-06T10:10:46Z</time>
      </trkpt>
      <trkpt lat="49.12531" lon="6.00213">
        <ele>345.5</ele>
        <time>2011-11-06T10:10:47Z</time>
      </trkpt>
      <trkpt lat="49.1253" lon="6.00193">
        <ele>342.9</ele>
        <time>2011-11-06T10:10:48Z</time>
      </trkpt>
      <trkpt lat="49.12528" lon="6.00177">
        <ele>342.5</ele>
        <time>2011-11-06T10:10:49Z</time>
      </trkpt>
      <trkpt lat="49.12525" lon="6.0016">
        <ele>341.9</ele>
        <time>2011-11-06T10:10:50Z</time>
      </trkpt>
      <trkpt lat="49.12522" lon="6.00145">
        <ele>342.2</ele>
        <time>2011-11-06T10:10:51Z</time>
      </trkpt>
      <trkpt lat="49.1252" lon="6.00128">
        <ele>342.3</ele>
        <time>2011-11-06T10:10:52Z</time>
      </trkpt>
      <trkpt lat="49.12518" lon="6.00111">
        <ele>342.4</ele>
        <time>2011-11-06T10:10:53Z</time>
      </trkpt>
      <trkpt lat="49.12515" lon="6.00094">
        <ele>342.5</ele>
        <time>2011-11-06T10:10:54Z</time>
      </trkpt>
      <trkpt lat="49.12512" lon="6.0008">
        <ele>342.8</ele>
        <time>2011-11-06T10:10:55Z</time>
      </trkpt>
      <trkpt lat="49.12507" lon="6.00047">
        <ele>342.2</ele>
        <time>2011-11-06T10:10:57Z</time>
      </trkpt>
      <trkpt lat="49.12506" lon="6.00031">
        <ele>342.3</ele>
        <time>2011-11-06T10:10:58Z</time>
      </trkpt>
      <trkpt lat="49.12505" lon="6.00015">
        <ele>342.3</ele>
        <time>2011-11-06T10:10:59Z</time>
      </trkpt>
      <trkpt lat="49.12502" lon="6.00005">
        <ele>342.9</ele>
        <time>2011-11-06T10:11:00Z</time>
      </trkpt>
      <trkpt lat="49.125" lon="5.99986">
        <ele>343.1</ele>
        <time>2011-11-06T10:11:01Z</time>
      </trkpt>
      <trkpt lat="49.12498" lon="5.99971">
        <ele>343</ele>
        <time>2011-11-06T10:11:02Z</time>
      </trkpt>
      <trkpt lat="49.12498" lon="5.99955">
        <ele>342.8</ele>
        <time>2011-11-06T10:11:03Z</time>
      </trkpt>
      <trkpt lat="49.12492" lon="5.99932">
        <ele>340.7</ele>
        <time>2011-11-06T10:11:04Z</time>
      </trkpt>
      <trkpt lat="49.1249" lon="5.99913">
        <ele>341.1</ele>
        <time>2011-11-06T10:11:05Z</time>
      </trkpt>
      <trkpt lat="49.12486" lon="5.99896">
        <ele>341.5</ele>
        <time>2011-11-06T10:11:06Z</time>
      </trkpt>
      <trkpt lat="49.12483" lon="5.99879">
        <ele>341.4</ele>
        <time>2011-11-06T10:11:07Z</time>
      </trkpt>
      <trkpt lat="49.1248" lon="5.99867">
        <ele>340.9</ele>
        <time>2011-11-06T10:11:08Z</time>
      </trkpt>
      <trkpt lat="49.12477" lon="5.9985">
        <ele>340.9</ele>
        <time>2011-11-06T10:11:09Z</time>
      </trkpt>
      <trkpt lat="49.12475" lon="5.99833">
        <ele>340.8</ele>
        <time>2011-11-06T10:11:10Z</time>
      </trkpt>
      <trkpt lat="49.12472" lon="5.99817">
        <ele>341.4</ele>
        <time>2011-11-06T10:11:11Z</time>
      </trkpt>
      <trkpt lat="49.1247" lon="5.99803">
        <ele>340.3</ele>
        <time>2011-11-06T10:11:12Z</time>
      </trkpt>
      <trkpt lat="49.12467" lon="5.99782">
        <ele>340.1</ele>
        <time>2011-11-06T10:11:13Z</time>
      </trkpt>
      <trkpt lat="49.12464" lon="5.99762">
        <ele>339.4</ele>
        <time>2011-11-06T10:11:14Z</time>
      </trkpt>
      <trkpt lat="49.1246" lon="5.99747">
        <ele>338.6</ele>
        <time>2011-11-06T10:11:15Z</time>
      </trkpt>
      <trkpt lat="49.12457" lon="5.99728">
        <ele>339.3</ele>
        <time>2011-11-06T10:11:16Z</time>
      </trkpt>
      <trkpt lat="49.12456" lon="5.99708">
        <ele>339.7</ele>
        <time>2011-11-06T10:11:17Z</time>
      </trkpt>
      <trkpt lat="49.12455" lon="5.99687">
        <ele>339.3</ele>
        <time>2011-11-06T10:11:18Z</time>
      </trkpt>
      <trkpt lat="49.12453" lon="5.99672">
        <ele>339.3</ele>
        <time>2011-11-06T10:11:19Z</time>
      </trkpt>
      <trkpt lat="49.12451" lon="5.99656">
        <ele>338.9</ele>
        <time>2011-11-06T10:11:20Z</time>
      </trkpt>
      <trkpt lat="49.12449" lon="5.99634">
        <ele>338.5</ele>
        <time>2011-11-06T10:11:21Z</time>
      </trkpt>
      <trkpt lat="49.12445" lon="5.99616">
        <ele>337.6</ele>
        <time>2011-11-06T10:11:22Z</time>
      </trkpt>
      <trkpt lat="49.12445" lon="5.99599">
        <ele>337.5</ele>
        <time>2011-11-06T10:11:23Z</time>
      </trkpt>
      <trkpt lat="49.12444" lon="5.99578">
        <ele>338.4</ele>
        <time>2011-11-06T10:11:24Z</time>
      </trkpt>
      <trkpt lat="49.12442" lon="5.99563">
        <ele>337.2</ele>
        <time>2011-11-06T10:11:25Z</time>
      </trkpt>
      <trkpt lat="49.12441" lon="5.99546">
        <ele>337.6</ele>
        <time>2011-11-06T10:11:26Z</time>
      </trkpt>
      <trkpt lat="49.12439" lon="5.99525">
        <ele>337.9</ele>
        <time>2011-11-06T10:11:27Z</time>
      </trkpt>
      <trkpt lat="49.12439" lon="5.99509">
        <ele>338</ele>
        <time>2011-11-06T10:11:28Z</time>
      </trkpt>
      <trkpt lat="49.1244" lon="5.99493">
        <ele>337.6</ele>
        <time>2011-11-06T10:11:29Z</time>
      </trkpt>
      <trkpt lat="49.12439" lon="5.99479">
        <ele>338.2</ele>
        <time>2011-11-06T10:11:30Z</time>
      </trkpt>
      <trkpt lat="49.12438" lon="5.99458">
        <ele>337.2</ele>
        <time>2011-11-06T10:11:31Z</time>
      </trkpt>
      <trkpt lat="49.12439" lon="5.99439">
        <ele>337.4</ele>
        <time>2011-11-06T10:11:32Z</time>
      </trkpt>
      <trkpt lat="49.1244" lon="5.9942">
        <ele>336.8</ele>
        <time>2011-11-06T10:11:33Z</time>
      </trkpt>
      <trkpt lat="49.12439" lon="5.99405">
        <ele>337.7</ele>
        <time>2011-11-06T10:11:34Z</time>
      </trkpt>
      <trkpt lat="49.12439" lon="5.99386">
        <ele>337.1</ele>
        <time>2011-11-06T10:11:35Z</time>
      </trkpt>
      <trkpt lat="49.12439" lon="5.99368">
        <ele>336.5</ele>
        <time>2011-11-06T10:11:36Z</time>
      </trkpt>
      <trkpt lat="49.12438" lon="5.99352">
        <ele>335.8</ele>
        <time>2011-11-06T10:11:37Z</time>
      </trkpt>
      <trkpt lat="49.12439" lon="5.99337">
        <ele>336.1</ele>
        <time>2011-11-06T10:11:38Z</time>
      </trkpt>
      <trkpt lat="49.12439" lon="5.99321">
        <ele>336.7</ele>
        <time>2011-11-06T10:11:39Z</time>
      </trkpt>
      <trkpt lat="49.12439" lon="5.99304">
        <ele>336.5</ele>
        <time>2011-11-06T10:11:40Z</time>
      </trkpt>
      <trkpt lat="49.12439" lon="5.99289">
        <ele>336.4</ele>
        <time>2011-11-06T10:11:41Z</time>
      </trkpt>
      <trkpt lat="49.12438" lon="5.99272">
        <ele>336.3</ele>
        <time>2011-11-06T10:11:42Z</time>
      </trkpt>
      <trkpt lat="49.12439" lon="5.99256">
        <ele>336.1</ele>
        <time>2011-11-06T10:11:43Z</time>
      </trkpt>
      <trkpt lat="49.12439" lon="5.9924">
        <ele>336.3</ele>
        <time>2011-11-06T10:11:44Z</time>
      </trkpt>
      <trkpt lat="49.12439" lon="5.99224">
        <ele>337</ele>
        <time>2011-11-06T10:11:45Z</time>
      </trkpt>
      <trkpt lat="49.12439" lon="5.99208">
        <ele>337.4</ele>
        <time>2011-11-06T10:11:46Z</time>
      </trkpt>
      <trkpt lat="49.1244" lon="5.99192">
        <ele>337.5</ele>
        <time>2011-11-06T10:11:47Z</time>
      </trkpt>
      <trkpt lat="49.1244" lon="5.99175">
        <ele>337.5</ele>
        <time>2011-11-06T10:11:48Z</time>
      </trkpt>
      <trkpt lat="49.1244" lon="5.99159">
        <ele>338</ele>
        <time>2011-11-06T10:11:49Z</time>
      </trkpt>
      <trkpt lat="49.1244" lon="5.99144">
        <ele>338.3</ele>
        <time>2011-11-06T10:11:50Z</time>
      </trkpt>
      <trkpt lat="49.1244" lon="5.99127">
        <ele>338.1</ele>
        <time>2011-11-06T10:11:51Z</time>
      </trkpt>
      <trkpt lat="49.1244" lon="5.99112">
        <ele>338.3</ele>
        <time>2011-11-06T10:11:52Z</time>
      </trkpt>
      <trkpt lat="49.1244" lon="5.99096">
        <ele>338</ele>
        <time>2011-11-06T10:11:53Z</time>
      </trkpt>
      <trkpt lat="49.1244" lon="5.99081">
        <ele>338.8</ele>
        <time>2011-11-06T10:11:54Z</time>
      </trkpt>
      <trkpt lat="49.1244" lon="5.99067">
        <ele>338.5</ele>
        <time>2011-11-06T10:11:55Z</time>
      </trkpt>
      <trkpt lat="49.12442" lon="5.99052">
        <ele>338.7</ele>
        <time>2011-11-06T10:11:56Z</time>
      </trkpt>
      <trkpt lat="49.12442" lon="5.99037">
        <ele>338.9</ele>
        <time>2011-11-06T10:11:57Z</time>
      </trkpt>
      <trkpt lat="49.12442" lon="5.99022">
        <ele>339.1</ele>
        <time>2011-11-06T10:11:58Z</time>
      </trkpt>
      <trkpt lat="49.12442" lon="5.99008">
        <ele>338.4</ele>
        <time>2011-11-06T10:11:59Z</time>
      </trkpt>
      <trkpt lat="49.12442" lon="5.9899">
        <ele>338.2</ele>
        <time>2011-11-06T10:12:00Z</time>
      </trkpt>
      <trkpt lat="49.12441" lon="5.98974">
        <ele>339</ele>
        <time>2011-11-06T10:12:01Z</time>
      </trkpt>
      <trkpt lat="49.12443" lon="5.98958">
        <ele>339.1</ele>
        <time>2011-11-06T10:12:02Z</time>
      </trkpt>
      <trkpt lat="49.12442" lon="5.98946">
        <ele>339</ele>
        <time>2011-11-06T10:12:03Z</time>
      </trkpt>
      <trkpt lat="49.12442" lon="5.98932">
        <ele>338.8</ele>
        <time>2011-11-06T10:12:04Z</time>
      </trkpt>
      <trkpt lat="49.12443" lon="5.98917">
        <ele>338.6</ele>
        <time>2011-11-06T10:12:05Z</time>
      </trkpt>
      <trkpt lat="49.12444" lon="5.98904">
        <ele>339.7</ele>
        <time>2011-11-06T10:12:06Z</time>
      </trkpt>
      <trkpt lat="49.12444" lon="5.9889">
        <ele>339.6</ele>
        <time>2011-11-06T10:12:07Z</time>
      </trkpt>
      <trkpt lat="49.12443" lon="5.98876">
        <ele>339.6</ele>
        <time>2011-11-06T10:12:08Z</time>
      </trkpt>
      <trkpt lat="49.12442" lon="5.98861">
        <ele>340</ele>
        <time>2011-11-06T10:12:09Z</time>
      </trkpt>
      <trkpt lat="49.12443" lon="5.98846">
        <ele>340.4</ele>
        <time>2011-11-06T10:12:10Z</time>
      </trkpt>
      <trkpt lat="49.12443" lon="5.9883">
        <ele>340.6</ele>
        <time>2011-11-06T10:12:11Z</time>
      </trkpt>
      <trkpt lat="49.12443" lon="5.98815">
        <ele>340.4</ele>
        <time>2011-11-06T10:12:12Z</time>
      </trkpt>
      <trkpt lat="49.12443" lon="5.98799">
        <ele>340.7</ele>
        <time>2011-11-06T10:12:13Z</time>
      </trkpt>
      <trkpt lat="49.12443" lon="5.98785">
        <ele>339.8</ele>
        <time>2011-11-06T10:12:14Z</time>
      </trkpt>
      <trkpt lat="49.12443" lon="5.98767">
        <ele>340.3</ele>
        <time>2011-11-06T10:12:15Z</time>
      </trkpt>
      <trkpt lat="49.12444" lon="5.98753">
        <ele>339.6</ele>
        <time>2011-11-06T10:12:16Z</time>
      </trkpt>
      <trkpt lat="49.12444" lon="5.98739">
        <ele>338.9</ele>
        <time>2011-11-06T10:12:17Z</time>
      </trkpt>
      <trkpt lat="49.12445" lon="5.98723">
        <ele>338.4</ele>
        <time>2011-11-06T10:12:18Z</time>
      </trkpt>
      <trkpt lat="49.12444" lon="5.98707">
        <ele>339.4</ele>
        <time>2011-11-06T10:12:19Z</time>
      </trkpt>
      <trkpt lat="49.12444" lon="5.98691">
        <ele>339.4</ele>
        <time>2011-11-06T10:12:20Z</time>
      </trkpt>
      <trkpt lat="49.12444" lon="5.98676">
        <ele>339.3</ele>
        <time>2011-11-06T10:12:21Z</time>
      </trkpt>
      <trkpt lat="49.12444" lon="5.98662">
        <ele>339.2</ele>
        <time>2011-11-06T10:12:22Z</time>
      </trkpt>
      <trkpt lat="49.12444" lon="5.98647">
        <ele>338.9</ele>
        <time>2011-11-06T10:12:23Z</time>
      </trkpt>
      <trkpt lat="49.12444" lon="5.98631">
        <ele>338.8</ele>
        <time>2011-11-06T10:12:24Z</time>
      </trkpt>
      <trkpt lat="49.12445" lon="5.98617">
        <ele>338.5</ele>
        <time>2011-11-06T10:12:25Z</time>
      </trkpt>
      <trkpt lat="49.12444" lon="5.98602">
        <ele>338.8</ele>
        <time>2011-11-06T10:12:26Z</time>
      </trkpt>
      <trkpt lat="49.12444" lon="5.98587">
        <ele>339.1</ele>
        <time>2011-11-06T10:12:27Z</time>
      </trkpt>
      <trkpt lat="49.12444" lon="5.98572">
        <ele>339.4</ele>
        <time>2011-11-06T10:12:28Z</time>
      </trkpt>
      <trkpt lat="49.12444" lon="5.98558">
        <ele>339.4</ele>
        <time>2011-11-06T10:12:29Z</time>
      </trkpt>
      <trkpt lat="49.12444" lon="5.98544">
        <ele>339.8</ele>
        <time>2011-11-06T10:12:30Z</time>
      </trkpt>
      <trkpt lat="49.12443" lon="5.98529">
        <ele>340.3</ele>
        <time>2011-11-06T10:12:31Z</time>
      </trkpt>
      <trkpt lat="49.12442" lon="5.98513">
        <ele>340.6</ele>
        <time>2011-11-06T10:12:32Z</time>
      </trkpt>
      <trkpt lat="49.12441" lon="5.98499">
        <ele>341.1</ele>
        <time>2011-11-06T10:12:33Z</time>
      </trkpt>
      <trkpt lat="49.1244" lon="5.98482">
        <ele>341.7</ele>
        <time>2011-11-06T10:12:34Z</time>
      </trkpt>
      <trkpt lat="49.12439" lon="5.98468">
        <ele>342</ele>
        <time>2011-11-06T10:12:35Z</time>
      </trkpt>
      <trkpt lat="49.12438" lon="5.9845">
        <ele>341.6</ele>
        <time>2011-11-06T10:12:37Z</time>
      </trkpt>
      <trkpt lat="49.12438" lon="5.98436">
        <ele>341.8</ele>
        <time>2011-11-06T10:12:38Z</time>
      </trkpt>
      <trkpt lat="49.12436" lon="5.98424">
        <ele>342</ele>
        <time>2011-11-06T10:12:39Z</time>
      </trkpt>
      <trkpt lat="49.12437" lon="5.98411">
        <ele>342.2</ele>
        <time>2011-11-06T10:12:40Z</time>
      </trkpt>
      <trkpt lat="49.12435" lon="5.984">
        <ele>341.7</ele>
        <time>2011-11-06T10:12:41Z</time>
      </trkpt>
      <trkpt lat="49.12434" lon="5.98386">
        <ele>341.6</ele>
        <time>2011-11-06T10:12:42Z</time>
      </trkpt>
      <trkpt lat="49.12431" lon="5.98374">
        <ele>342</ele>
        <time>2011-11-06T10:12:43Z</time>
      </trkpt>
      <trkpt lat="49.12429" lon="5.98361">
        <ele>341.6</ele>
        <time>2011-11-06T10:12:44Z</time>
      </trkpt>
      <trkpt lat="49.12426" lon="5.98354">
        <ele>341.7</ele>
        <time>2011-11-06T10:12:45Z</time>
      </trkpt>
      <trkpt lat="49.12421" lon="5.98342">
        <ele>342.3</ele>
        <time>2011-11-06T10:12:46Z</time>
      </trkpt>
      <trkpt lat="49.12417" lon="5.9833">
        <ele>341.7</ele>
        <time>2011-11-06T10:12:47Z</time>
      </trkpt>
      <trkpt lat="49.12413" lon="5.98318">
        <ele>341.9</ele>
        <time>2011-11-06T10:12:48Z</time>
      </trkpt>
      <trkpt lat="49.12409" lon="5.98308">
        <ele>341.5</ele>
        <time>2011-11-06T10:12:49Z</time>
      </trkpt>
      <trkpt lat="49.12405" lon="5.98296">
        <ele>341.5</ele>
        <time>2011-11-06T10:12:50Z</time>
      </trkpt>
      <trkpt lat="49.12401" lon="5.98286">
        <ele>342.1</ele>
        <time>2011-11-06T10:12:51Z</time>
      </trkpt>
      <trkpt lat="49.12397" lon="5.98276">
        <ele>342.1</ele>
        <time>2011-11-06T10:12:52Z</time>
      </trkpt>
      <trkpt lat="49.12393" lon="5.98268">
        <ele>342</ele>
        <time>2011-11-06T10:12:53Z</time>
      </trkpt>
      <trkpt lat="49.12389" lon="5.98257">
        <ele>342.4</ele>
        <time>2011-11-06T10:12:54Z</time>
      </trkpt>
      <trkpt lat="49.12385" lon="5.98246">
        <ele>342.6</ele>
        <time>2011-11-06T10:12:55Z</time>
      </trkpt>
      <trkpt lat="49.12382" lon="5.98236">
        <ele>342.8</ele>
        <time>2011-11-06T10:12:56Z</time>
      </trkpt>
      <trkpt lat="49.12379" lon="5.98221">
        <ele>343.3</ele>
        <time>2011-11-06T10:12:57Z</time>
      </trkpt>
      <trkpt lat="49.12375" lon="5.9821">
        <ele>343.3</ele>
        <time>2011-11-06T10:12:58Z</time>
      </trkpt>
      <trkpt lat="49.12373" lon="5.982">
        <ele>343.7</ele>
        <time>2011-11-06T10:12:59Z</time>
      </trkpt>
      <trkpt lat="49.1237" lon="5.98189">
        <ele>343.7</ele>
        <time>2011-11-06T10:13:00Z</time>
      </trkpt>
      <trkpt lat="49.12366" lon="5.98182">
        <ele>343.8</ele>
        <time>2011-11-06T10:13:01Z</time>
      </trkpt>
      <trkpt lat="49.12363" lon="5.98173">
        <ele>343.7</ele>
        <time>2011-11-06T10:13:02Z</time>
      </trkpt>
      <trkpt lat="49.12359" lon="5.98166">
        <ele>343.3</ele>
        <time>2011-11-06T10:13:03Z</time>
      </trkpt>
      <trkpt lat="49.12356" lon="5.98156">
        <ele>343.5</ele>
        <time>2011-11-06T10:13:04Z</time>
      </trkpt>
      <trkpt lat="49.12352" lon="5.98147">
        <ele>343.5</ele>
        <time>2011-11-06T10:13:05Z</time>
      </trkpt>
      <trkpt lat="49.12349" lon="5.98139">
        <ele>343.6</ele>
        <time>2011-11-06T10:13:06Z</time>
      </trkpt>
      <trkpt lat="49.12346" lon="5.9813">
        <ele>343.9</ele>
        <time>2011-11-06T10:13:07Z</time>
      </trkpt>
      <trkpt lat="49.12343" lon="5.98121">
        <ele>344.2</ele>
        <time>2011-11-06T10:13:08Z</time>
      </trkpt>
      <trkpt lat="49.12336" lon="5.98107">
        <ele>344.5</ele>
        <time>2011-11-06T10:13:10Z</time>
      </trkpt>
      <trkpt lat="49.12334" lon="5.981">
        <ele>345.2</ele>
        <time>2011-11-06T10:13:11Z</time>
      </trkpt>
      <trkpt lat="49.1233" lon="5.98093">
        <ele>345.3</ele>
        <time>2011-11-06T10:13:12Z</time>
      </trkpt>
      <trkpt lat="49.12328" lon="5.98086">
        <ele>346</ele>
        <time>2011-11-06T10:13:13Z</time>
      </trkpt>
      <trkpt lat="49.12323" lon="5.98079">
        <ele>347.1</ele>
        <time>2011-11-06T10:13:14Z</time>
      </trkpt>
      <trkpt lat="49.12319" lon="5.98074">
        <ele>347.3</ele>
        <time>2011-11-06T10:13:15Z</time>
      </trkpt>
      <trkpt lat="49.12318" lon="5.98063">
        <ele>348.5</ele>
        <time>2011-11-06T10:13:16Z</time>
      </trkpt>
      <trkpt lat="49.12316" lon="5.98056">
        <ele>348.6</ele>
        <time>2011-11-06T10:13:17Z</time>
      </trkpt>
      <trkpt lat="49.12314" lon="5.98045">
        <ele>349.1</ele>
        <time>2011-11-06T10:13:18Z</time>
      </trkpt>
      <trkpt lat="49.12305" lon="5.98031">
        <ele>352.2</ele>
        <time>2011-11-06T10:13:20Z</time>
      </trkpt>
      <trkpt lat="49.12302" lon="5.98024">
        <ele>352.9</ele>
        <time>2011-11-06T10:13:21Z</time>
      </trkpt>
      <trkpt lat="49.123" lon="5.9801">
        <ele>353.4</ele>
        <time>2011-11-06T10:13:22Z</time>
      </trkpt>
      <trkpt lat="49.12297" lon="5.98002">
        <ele>353.9</ele>
        <time>2011-11-06T10:13:23Z</time>
      </trkpt>
      <trkpt lat="49.12294" lon="5.97994">
        <ele>356.4</ele>
        <time>2011-11-06T10:13:24Z</time>
      </trkpt>
      <trkpt lat="49.1229" lon="5.97984">
        <ele>359.2</ele>
        <time>2011-11-06T10:13:25Z</time>
      </trkpt>
      <trkpt lat="49.12287" lon="5.97977">
        <ele>359.8</ele>
        <time>2011-11-06T10:13:26Z</time>
      </trkpt>
      <trkpt lat="49.12287" lon="5.9796">
        <ele>358.7</ele>
        <time>2011-11-06T10:13:27Z</time>
      </trkpt>
      <trkpt lat="49.12285" lon="5.97944">
        <ele>358.7</ele>
        <time>2011-11-06T10:13:28Z</time>
      </trkpt>
      <trkpt lat="49.12283" lon="5.97935">
        <ele>359.1</ele>
        <time>2011-11-06T10:13:29Z</time>
      </trkpt>
      <trkpt lat="49.12283" lon="5.97926">
        <ele>357.3</ele>
        <time>2011-11-06T10:13:30Z</time>
      </trkpt>
      <trkpt lat="49.12281" lon="5.97918">
        <ele>357.3</ele>
        <time>2011-11-06T10:13:31Z</time>
      </trkpt>
      <trkpt lat="49.12278" lon="5.97909">
        <ele>357.3</ele>
        <time>2011-11-06T10:13:32Z</time>
      </trkpt>
      <trkpt lat="49.12274" lon="5.97899">
        <ele>358.2</ele>
        <time>2011-11-06T10:13:33Z</time>
      </trkpt>
      <trkpt lat="49.12273" lon="5.97892">
        <ele>358.2</ele>
        <time>2011-11-06T10:13:34Z</time>
      </trkpt>
      <trkpt lat="49.1227" lon="5.97884">
        <ele>358.2</ele>
        <time>2011-11-06T10:13:35Z</time>
      </trkpt>
      <trkpt lat="49.12267" lon="5.97876">
        <ele>358.6</ele>
        <time>2011-11-06T10:13:36Z</time>
      </trkpt>
      <trkpt lat="49.12264" lon="5.97867">
        <ele>358.6</ele>
        <time>2011-11-06T10:13:37Z</time>
      </trkpt>
      <trkpt lat="49.12261" lon="5.97858">
        <ele>358.6</ele>
        <time>2011-11-06T10:13:38Z</time>
      </trkpt>
      <trkpt lat="49.12258" lon="5.97848">
        <ele>359.2</ele>
        <time>2011-11-06T10:13:39Z</time>
      </trkpt>
      <trkpt lat="49.12255" lon="5.9784">
        <ele>359.5</ele>
        <time>2011-11-06T10:13:40Z</time>
      </trkpt>
      <trkpt lat="49.12252" lon="5.97827">
        <ele>359.2</ele>
        <time>2011-11-06T10:13:41Z</time>
      </trkpt>
      <trkpt lat="49.12248" lon="5.97818">
        <ele>359.5</ele>
        <time>2011-11-06T10:13:42Z</time>
      </trkpt>
      <trkpt lat="49.12246" lon="5.97809">
        <ele>359.4</ele>
        <time>2011-11-06T10:13:43Z</time>
      </trkpt>
      <trkpt lat="49.12244" lon="5.97799">
        <ele>359</ele>
        <time>2011-11-06T10:13:44Z</time>
      </trkpt>
      <trkpt lat="49.12242" lon="5.97788">
        <ele>359.3</ele>
        <time>2011-11-06T10:13:45Z</time>
      </trkpt>
      <trkpt lat="49.12239" lon="5.97778">
        <ele>358.9</ele>
        <time>2011-11-06T10:13:46Z</time>
      </trkpt>
      <trkpt lat="49.12236" lon="5.97767">
        <ele>357.9</ele>
        <time>2011-11-06T10:13:47Z</time>
      </trkpt>
      <trkpt lat="49.12233" lon="5.97756">
        <ele>356.5</ele>
        <time>2011-11-06T10:13:48Z</time>
      </trkpt>
      <trkpt lat="49.12231" lon="5.97745">
        <ele>356.5</ele>
        <time>2011-11-06T10:13:49Z</time>
      </trkpt>
      <trkpt lat="49.1223" lon="5.97737">
        <ele>353.9</ele>
        <time>2011-11-06T10:13:50Z</time>
      </trkpt>
      <trkpt lat="49.12228" lon="5.97727">
        <ele>354</ele>
        <time>2011-11-06T10:13:51Z</time>
      </trkpt>
      <trkpt lat="49.12227" lon="5.97717">
        <ele>353.6</ele>
        <time>2011-11-06T10:13:52Z</time>
      </trkpt>
      <trkpt lat="49.12225" lon="5.97706">
        <ele>354.2</ele>
        <time>2011-11-06T10:13:53Z</time>
      </trkpt>
      <trkpt lat="49.12222" lon="5.97695">
        <ele>354.5</ele>
        <time>2011-11-06T10:13:54Z</time>
      </trkpt>
      <trkpt lat="49.12222" lon="5.97684">
        <ele>354.5</ele>
        <time>2011-11-06T10:13:55Z</time>
      </trkpt>
      <trkpt lat="49.1222" lon="5.97673">
        <ele>354.7</ele>
        <time>2011-11-06T10:13:56Z</time>
      </trkpt>
      <trkpt lat="49.12219" lon="5.97665">
        <ele>354.1</ele>
        <time>2011-11-06T10:13:57Z</time>
      </trkpt>
      <trkpt lat="49.12217" lon="5.97658">
        <ele>354.3</ele>
        <time>2011-11-06T10:13:58Z</time>
      </trkpt>
      <trkpt lat="49.12216" lon="5.97647">
        <ele>354.2</ele>
        <time>2011-11-06T10:13:59Z</time>
      </trkpt>
      <trkpt lat="49.12214" lon="5.97637">
        <ele>354</ele>
        <time>2011-11-06T10:14:00Z</time>
      </trkpt>
      <trkpt lat="49.12212" lon="5.9763">
        <ele>353.1</ele>
        <time>2011-11-06T10:14:01Z</time>
      </trkpt>
      <trkpt lat="49.12209" lon="5.97619">
        <ele>352.7</ele>
        <time>2011-11-06T10:14:02Z</time>
      </trkpt>
      <trkpt lat="49.12208" lon="5.97607">
        <ele>352.8</ele>
        <time>2011-11-06T10:14:03Z</time>
      </trkpt>
      <trkpt lat="49.12207" lon="5.97596">
        <ele>351.1</ele>
        <time>2011-11-06T10:14:04Z</time>
      </trkpt>
      <trkpt lat="49.12206" lon="5.97585">
        <ele>350.5</ele>
        <time>2011-11-06T10:14:05Z</time>
      </trkpt>
      <trkpt lat="49.12203" lon="5.97574">
        <ele>350.4</ele>
        <time>2011-11-06T10:14:06Z</time>
      </trkpt>
      <trkpt lat="49.12202" lon="5.97562">
        <ele>349.9</ele>
        <time>2011-11-06T10:14:07Z</time>
      </trkpt>
      <trkpt lat="49.122" lon="5.97551">
        <ele>349.8</ele>
        <time>2011-11-06T10:14:08Z</time>
      </trkpt>
      <trkpt lat="49.12198" lon="5.9754">
        <ele>350.2</ele>
        <time>2011-11-06T10:14:09Z</time>
      </trkpt>
      <trkpt lat="49.12196" lon="5.97526">
        <ele>350.4</ele>
        <time>2011-11-06T10:14:10Z</time>
      </trkpt>
      <trkpt lat="49.12194" lon="5.97515">
        <ele>350</ele>
        <time>2011-11-06T10:14:11Z</time>
      </trkpt>
      <trkpt lat="49.12192" lon="5.97503">
        <ele>350</ele>
        <time>2011-11-06T10:14:12Z</time>
      </trkpt>
      <trkpt lat="49.12188" lon="5.97492">
        <ele>349.7</ele>
        <time>2011-11-06T10:14:13Z</time>
      </trkpt>
      <trkpt lat="49.12186" lon="5.97481">
        <ele>349.7</ele>
        <time>2011-11-06T10:14:14Z</time>
      </trkpt>
      <trkpt lat="49.12186" lon="5.97469">
        <ele>349.7</ele>
        <time>2011-11-06T10:14:15Z</time>
      </trkpt>
      <trkpt lat="49.12184" lon="5.97457">
        <ele>349.8</ele>
        <time>2011-11-06T10:14:16Z</time>
      </trkpt>
      <trkpt lat="49.12182" lon="5.97446">
        <ele>349.8</ele>
        <time>2011-11-06T10:14:17Z</time>
      </trkpt>
      <trkpt lat="49.1218" lon="5.97434">
        <ele>350.1</ele>
        <time>2011-11-06T10:14:18Z</time>
      </trkpt>
      <trkpt lat="49.1218" lon="5.97426">
        <ele>348.1</ele>
        <time>2011-11-06T10:14:19Z</time>
      </trkpt>
      <trkpt lat="49.12177" lon="5.97408">
        <ele>348</ele>
        <time>2011-11-06T10:14:21Z</time>
      </trkpt>
      <trkpt lat="49.12177" lon="5.97396">
        <ele>348</ele>
        <time>2011-11-06T10:14:22Z</time>
      </trkpt>
      <trkpt lat="49.12176" lon="5.97384">
        <ele>348</ele>
        <time>2011-11-06T10:14:23Z</time>
      </trkpt>
      <trkpt lat="49.12175" lon="5.97369">
        <ele>347.3</ele>
        <time>2011-11-06T10:14:24Z</time>
      </trkpt>
      <trkpt lat="49.12174" lon="5.97358">
        <ele>347</ele>
        <time>2011-11-06T10:14:25Z</time>
      </trkpt>
      <trkpt lat="49.12172" lon="5.97344">
        <ele>347.5</ele>
        <time>2011-11-06T10:14:26Z</time>
      </trkpt>
      <trkpt lat="49.12172" lon="5.97331">
        <ele>346.1</ele>
        <time>2011-11-06T10:14:27Z</time>
      </trkpt>
      <trkpt lat="49.12171" lon="5.97319">
        <ele>346</ele>
        <time>2011-11-06T10:14:28Z</time>
      </trkpt>
      <trkpt lat="49.1217" lon="5.97306">
        <ele>346.4</ele>
        <time>2011-11-06T10:14:29Z</time>
      </trkpt>
      <trkpt lat="49.1217" lon="5.97294">
        <ele>346.4</ele>
        <time>2011-11-06T10:14:30Z</time>
      </trkpt>
      <trkpt lat="49.1217" lon="5.97281">
        <ele>346.3</ele>
        <time>2011-11-06T10:14:31Z</time>
      </trkpt>
      <trkpt lat="49.12168" lon="5.97268">
        <ele>347</ele>
        <time>2011-11-06T10:14:32Z</time>
      </trkpt>
      <trkpt lat="49.12168" lon="5.97257">
        <ele>346.4</ele>
        <time>2011-11-06T10:14:33Z</time>
      </trkpt>
      <trkpt lat="49.12166" lon="5.97244">
        <ele>346.6</ele>
        <time>2011-11-06T10:14:34Z</time>
      </trkpt>
      <trkpt lat="49.12165" lon="5.97231">
        <ele>346.8</ele>
        <time>2011-11-06T10:14:35Z</time>
      </trkpt>
      <trkpt lat="49.12166" lon="5.9722">
        <ele>345.8</ele>
        <time>2011-11-06T10:14:36Z</time>
      </trkpt>
      <trkpt lat="49.12165" lon="5.97209">
        <ele>345.1</ele>
        <time>2011-11-06T10:14:37Z</time>
      </trkpt>
      <trkpt lat="49.12164" lon="5.97199">
        <ele>345.2</ele>
        <time>2011-11-06T10:14:38Z</time>
      </trkpt>
      <trkpt lat="49.12162" lon="5.97192">
        <ele>344.4</ele>
        <time>2011-11-06T10:14:39Z</time>
      </trkpt>
      <trkpt lat="49.12162" lon="5.97183">
        <ele>344.3</ele>
        <time>2011-11-06T10:14:40Z</time>
      </trkpt>
      <trkpt lat="49.12161" lon="5.97174">
        <ele>343.9</ele>
        <time>2011-11-06T10:14:41Z</time>
      </trkpt>
      <trkpt lat="49.12161" lon="5.97163">
        <ele>343.9</ele>
        <time>2011-11-06T10:14:42Z</time>
      </trkpt>
      <trkpt lat="49.1216" lon="5.9715">
        <ele>343.8</ele>
        <time>2011-11-06T10:14:44Z</time>
      </trkpt>
      <trkpt lat="49.12159" lon="5.97142">
        <ele>343.6</ele>
        <time>2011-11-06T10:14:45Z</time>
      </trkpt>
      <trkpt lat="49.12159" lon="5.97133">
        <ele>344</ele>
        <time>2011-11-06T10:14:46Z</time>
      </trkpt>
      <trkpt lat="49.12158" lon="5.97125">
        <ele>343.8</ele>
        <time>2011-11-06T10:14:47Z</time>
      </trkpt>
      <trkpt lat="49.12157" lon="5.97116">
        <ele>343.5</ele>
        <time>2011-11-06T10:14:48Z</time>
      </trkpt>
      <trkpt lat="49.12157" lon="5.97104">
        <ele>343.3</ele>
        <time>2011-11-06T10:14:49Z</time>
      </trkpt>
      <trkpt lat="49.12157" lon="5.97095">
        <ele>343.4</ele>
        <time>2011-11-06T10:14:50Z</time>
      </trkpt>
      <trkpt lat="49.12156" lon="5.97087">
        <ele>344</ele>
        <time>2011-11-06T10:14:51Z</time>
      </trkpt>
      <trkpt lat="49.12153" lon="5.97077">
        <ele>344.1</ele>
        <time>2011-11-06T10:14:52Z</time>
      </trkpt>
      <trkpt lat="49.12153" lon="5.97068">
        <ele>344.3</ele>
        <time>2011-11-06T10:14:53Z</time>
      </trkpt>
      <trkpt lat="49.12152" lon="5.9706">
        <ele>344</ele>
        <time>2011-11-06T10:14:54Z</time>
      </trkpt>
      <trkpt lat="49.12152" lon="5.97051">
        <ele>344.8</ele>
        <time>2011-11-06T10:14:55Z</time>
      </trkpt>
      <trkpt lat="49.12151" lon="5.97041">
        <ele>345.5</ele>
        <time>2011-11-06T10:14:56Z</time>
      </trkpt>
      <trkpt lat="49.12151" lon="5.97033">
        <ele>345.3</ele>
        <time>2011-11-06T10:14:57Z</time>
      </trkpt>
      <trkpt lat="49.1215" lon="5.97024">
        <ele>345.8</ele>
        <time>2011-11-06T10:14:58Z</time>
      </trkpt>
      <trkpt lat="49.12151" lon="5.97015">
        <ele>346.3</ele>
        <time>2011-11-06T10:14:59Z</time>
      </trkpt>
      <trkpt lat="49.12151" lon="5.97007">
        <ele>346.2</ele>
        <time>2011-11-06T10:15:00Z</time>
      </trkpt>
      <trkpt lat="49.1215" lon="5.96997">
        <ele>347</ele>
        <time>2011-11-06T10:15:01Z</time>
      </trkpt>
      <trkpt lat="49.12146" lon="5.96998">
        <ele>348.3</ele>
        <time>2011-11-06T10:15:04Z</time>
      </trkpt>
      <trkpt lat="49.12145" lon="5.96988">
        <ele>346.2</ele>
        <time>2011-11-06T10:15:08Z</time>
      </trkpt>
      <trkpt lat="49.12145" lon="5.96977">
        <ele>343.4</ele>
        <time>2011-11-06T10:15:11Z</time>
      </trkpt>
      <trkpt lat="49.12145" lon="5.96966">
        <ele>341.6</ele>
        <time>2011-11-06T10:15:13Z</time>
      </trkpt>
      <trkpt lat="49.12146" lon="5.96956">
        <ele>339.4</ele>
        <time>2011-11-06T10:15:15Z</time>
      </trkpt>
      <trkpt lat="49.12146" lon="5.96948">
        <ele>340</ele>
        <time>2011-11-06T10:15:17Z</time>
      </trkpt>
      <trkpt lat="49.12146" lon="5.96937">
        <ele>338.8</ele>
        <time>2011-11-06T10:15:19Z</time>
      </trkpt>
      <trkpt lat="49.12144" lon="5.96927">
        <ele>337.4</ele>
        <time>2011-11-06T10:15:21Z</time>
      </trkpt>
      <trkpt lat="49.12144" lon="5.96919">
        <ele>337.1</ele>
        <time>2011-11-06T10:15:23Z</time>
      </trkpt>
      <trkpt lat="49.12147" lon="5.96909">
        <ele>337.1</ele>
        <time>2011-11-06T10:15:25Z</time>
      </trkpt>
      <trkpt lat="49.12146" lon="5.96901">
        <ele>336.8</ele>
        <time>2011-11-06T10:15:27Z</time>
      </trkpt>
      <trkpt lat="49.12146" lon="5.96893">
        <ele>337.3</ele>
        <time>2011-11-06T10:15:29Z</time>
      </trkpt>
      <trkpt lat="49.12147" lon="5.96881">
        <ele>336.1</ele>
        <time>2011-11-06T10:15:31Z</time>
      </trkpt>
      <trkpt lat="49.12147" lon="5.9687">
        <ele>336.5</ele>
        <time>2011-11-06T10:15:33Z</time>
      </trkpt>
      <trkpt lat="49.12148" lon="5.96858">
        <ele>334.7</ele>
        <time>2011-11-06T10:15:35Z</time>
      </trkpt>
      <trkpt lat="49.12148" lon="5.96851">
        <ele>334.4</ele>
        <time>2011-11-06T10:15:36Z</time>
      </trkpt>
      <trkpt lat="49.12148" lon="5.96843">
        <ele>334.1</ele>
        <time>2011-11-06T10:15:37Z</time>
      </trkpt>
      <trkpt lat="49.12149" lon="5.96836">
        <ele>333.5</ele>
        <time>2011-11-06T10:15:38Z</time>
      </trkpt>
      <trkpt lat="49.12149" lon="5.96824">
        <ele>333.7</ele>
        <time>2011-11-06T10:15:40Z</time>
      </trkpt>
      <trkpt lat="49.12149" lon="5.96817">
        <ele>333</ele>
        <time>2011-11-06T10:15:42Z</time>
      </trkpt>
      <trkpt lat="49.1215" lon="5.96808">
        <ele>333</ele>
        <time>2011-11-06T10:15:46Z</time>
      </trkpt>
      <trkpt lat="49.12151" lon="5.96801">
        <ele>332.8</ele>
        <time>2011-11-06T10:15:52Z</time>
      </trkpt>
      <trkpt lat="49.12151" lon="5.9679">
        <ele>332.7</ele>
        <time>2011-11-06T10:15:54Z</time>
      </trkpt>
      <trkpt lat="49.12152" lon="5.96778">
        <ele>332.3</ele>
        <time>2011-11-06T10:15:57Z</time>
      </trkpt>
      <trkpt lat="49.12175" lon="5.95891">
        <ele>335.6</ele>
        <time>2011-11-06T10:17:11Z</time>
      </trkpt>
      <trkpt lat="49.12176" lon="5.95858">
        <ele>321.3</ele>
        <time>2011-11-06T10:17:12Z</time>
      </trkpt>
      <trkpt lat="49.12174" lon="5.95839">
        <ele>319.2</ele>
        <time>2011-11-06T10:17:13Z</time>
      </trkpt>
      <trkpt lat="49.12177" lon="5.95827">
        <ele>318.1</ele>
        <time>2011-11-06T10:17:14Z</time>
      </trkpt>
      <trkpt lat="49.12177" lon="5.95812">
        <ele>314.9</ele>
        <time>2011-11-06T10:17:15Z</time>
      </trkpt>
      <trkpt lat="49.12177" lon="5.958">
        <ele>314</ele>
        <time>2011-11-06T10:17:16Z</time>
      </trkpt>
      <trkpt lat="49.12177" lon="5.95784">
        <ele>314.6</ele>
        <time>2011-11-06T10:17:17Z</time>
      </trkpt>
      <trkpt lat="49.12176" lon="5.95775">
        <ele>313</ele>
        <time>2011-11-06T10:17:18Z</time>
      </trkpt>
      <trkpt lat="49.12176" lon="5.95764">
        <ele>313.4</ele>
        <time>2011-11-06T10:17:19Z</time>
      </trkpt>
      <trkpt lat="49.12178" lon="5.95753">
        <ele>314.8</ele>
        <time>2011-11-06T10:17:20Z</time>
      </trkpt>
      <trkpt lat="49.12178" lon="5.95742">
        <ele>317.7</ele>
        <time>2011-11-06T10:17:21Z</time>
      </trkpt>
      <trkpt lat="49.12178" lon="5.9573">
        <ele>317.4</ele>
        <time>2011-11-06T10:17:22Z</time>
      </trkpt>
      <trkpt lat="49.12177" lon="5.9572">
        <ele>321.2</ele>
        <time>2011-11-06T10:17:23Z</time>
      </trkpt>
      <trkpt lat="49.12178" lon="5.95707">
        <ele>320.4</ele>
        <time>2011-11-06T10:17:24Z</time>
      </trkpt>
      <trkpt lat="49.12179" lon="5.95696">
        <ele>321.3</ele>
        <time>2011-11-06T10:17:25Z</time>
      </trkpt>
      <trkpt lat="49.12178" lon="5.95686">
        <ele>323.1</ele>
        <time>2011-11-06T10:17:26Z</time>
      </trkpt>
      <trkpt lat="49.12178" lon="5.95674">
        <ele>322</ele>
        <time>2011-11-06T10:17:27Z</time>
      </trkpt>
      <trkpt lat="49.12179" lon="5.95663">
        <ele>322</ele>
        <time>2011-11-06T10:17:28Z</time>
      </trkpt>
      <trkpt lat="49.12179" lon="5.95652">
        <ele>322.2</ele>
        <time>2011-11-06T10:17:29Z</time>
      </trkpt>
      <trkpt lat="49.12179" lon="5.9564">
        <ele>322.3</ele>
        <time>2011-11-06T10:17:30Z</time>
      </trkpt>
      <trkpt lat="49.12179" lon="5.95628">
        <ele>321.4</ele>
        <time>2011-11-06T10:17:31Z</time>
      </trkpt>
      <trkpt lat="49.12179" lon="5.95618">
        <ele>320.7</ele>
        <time>2011-11-06T10:17:32Z</time>
      </trkpt>
      <trkpt lat="49.12179" lon="5.95607">
        <ele>320.7</ele>
        <time>2011-11-06T10:17:33Z</time>
      </trkpt>
      <trkpt lat="49.12179" lon="5.95596">
        <ele>320.1</ele>
        <time>2011-11-06T10:17:34Z</time>
      </trkpt>
      <trkpt lat="49.12179" lon="5.95585">
        <ele>319.4</ele>
        <time>2011-11-06T10:17:35Z</time>
      </trkpt>
      <trkpt lat="49.12179" lon="5.95576">
        <ele>319.9</ele>
        <time>2011-11-06T10:17:36Z</time>
      </trkpt>
      <trkpt lat="49.12182" lon="5.95563">
        <ele>317</ele>
        <time>2011-11-06T10:17:37Z</time>
      </trkpt>
      <trkpt lat="49.12182" lon="5.9555">
        <ele>317.6</ele>
        <time>2011-11-06T10:17:38Z</time>
      </trkpt>
      <trkpt lat="49.12183" lon="5.95538">
        <ele>317.3</ele>
        <time>2011-11-06T10:17:39Z</time>
      </trkpt>
      <trkpt lat="49.12184" lon="5.95528">
        <ele>316.9</ele>
        <time>2011-11-06T10:17:40Z</time>
      </trkpt>
      <trkpt lat="49.12183" lon="5.95514">
        <ele>316</ele>
        <time>2011-11-06T10:17:41Z</time>
      </trkpt>
      <trkpt lat="49.12183" lon="5.95503">
        <ele>315.9</ele>
        <time>2011-11-06T10:17:42Z</time>
      </trkpt>
      <trkpt lat="49.12183" lon="5.9549">
        <ele>315.7</ele>
        <time>2011-11-06T10:17:43Z</time>
      </trkpt>
      <trkpt lat="49.12183" lon="5.95476">
        <ele>315.7</ele>
        <time>2011-11-06T10:17:44Z</time>
      </trkpt>
      <trkpt lat="49.12183" lon="5.95462">
        <ele>315.7</ele>
        <time>2011-11-06T10:17:45Z</time>
      </trkpt>
      <trkpt lat="49.12183" lon="5.95449">
        <ele>315.7</ele>
        <time>2011-11-06T10:17:46Z</time>
      </trkpt>
      <trkpt lat="49.12181" lon="5.95438">
        <ele>315.9</ele>
        <time>2011-11-06T10:17:47Z</time>
      </trkpt>
      <trkpt lat="49.12181" lon="5.95426">
        <ele>316</ele>
        <time>2011-11-06T10:17:48Z</time>
      </trkpt>
      <trkpt lat="49.12183" lon="5.95414">
        <ele>316.4</ele>
        <time>2011-11-06T10:17:49Z</time>
      </trkpt>
      <trkpt lat="49.12184" lon="5.95402">
        <ele>317.2</ele>
        <time>2011-11-06T10:17:50Z</time>
      </trkpt>
      <trkpt lat="49.12185" lon="5.95389">
        <ele>317.8</ele>
        <time>2011-11-06T10:17:51Z</time>
      </trkpt>
      <trkpt lat="49.12183" lon="5.95376">
        <ele>318</ele>
        <time>2011-11-06T10:17:52Z</time>
      </trkpt>
      <trkpt lat="49.12183" lon="5.95363">
        <ele>318</ele>
        <time>2011-11-06T10:17:53Z</time>
      </trkpt>
      <trkpt lat="49.12181" lon="5.9535">
        <ele>318.6</ele>
        <time>2011-11-06T10:17:54Z</time>
      </trkpt>
      <trkpt lat="49.1218" lon="5.95336">
        <ele>318.7</ele>
        <time>2011-11-06T10:17:55Z</time>
      </trkpt>
      <trkpt lat="49.12179" lon="5.95319">
        <ele>318.7</ele>
        <time>2011-11-06T10:17:56Z</time>
      </trkpt>
      <trkpt lat="49.1216" lon="5.95099">
        <ele>318</ele>
        <time>2011-11-06T10:18:22Z</time>
      </trkpt>
      <trkpt lat="49.12164" lon="5.95113">
        <ele>317.7</ele>
        <time>2011-11-06T10:18:26Z</time>
      </trkpt>
      <trkpt lat="49.12165" lon="5.95122">
        <ele>316.2</ele>
        <time>2011-11-06T10:18:31Z</time>
      </trkpt>
      <trkpt lat="49.12162" lon="5.95134">
        <ele>309.5</ele>
        <time>2011-11-06T10:18:33Z</time>
      </trkpt>
      <trkpt lat="49.12156" lon="5.95136">
        <ele>308.5</ele>
        <time>2011-11-06T10:18:35Z</time>
      </trkpt>
      <trkpt lat="49.12147" lon="5.95136">
        <ele>310.1</ele>
        <time>2011-11-06T10:18:37Z</time>
      </trkpt>
      <trkpt lat="49.12137" lon="5.95138">
        <ele>310.7</ele>
        <time>2011-11-06T10:18:39Z</time>
      </trkpt>
      <trkpt lat="49.12132" lon="5.9514">
        <ele>311.3</ele>
        <time>2011-11-06T10:18:40Z</time>
      </trkpt>
      <trkpt lat="49.12128" lon="5.95141">
        <ele>312.3</ele>
        <time>2011-11-06T10:18:41Z</time>
      </trkpt>
      <trkpt lat="49.12122" lon="5.95142">
        <ele>311.2</ele>
        <time>2011-11-06T10:18:42Z</time>
      </trkpt>
      <trkpt lat="49.12117" lon="5.95143">
        <ele>311.6</ele>
        <time>2011-11-06T10:18:43Z</time>
      </trkpt>
      <trkpt lat="49.12112" lon="5.95145">
        <ele>311.6</ele>
        <time>2011-11-06T10:18:44Z</time>
      </trkpt>
      <trkpt lat="49.12107" lon="5.95147">
        <ele>311.3</ele>
        <time>2011-11-06T10:18:45Z</time>
      </trkpt>
      <trkpt lat="49.12101" lon="5.9515">
        <ele>309.1</ele>
        <time>2011-11-06T10:18:46Z</time>
      </trkpt>
      <trkpt lat="49.12096" lon="5.95163">
        <ele>307.9</ele>
        <time>2011-11-06T10:18:48Z</time>
      </trkpt>
      <trkpt lat="49.12098" lon="5.95169">
        <ele>307.9</ele>
        <time>2011-11-06T10:18:49Z</time>
      </trkpt>
      <trkpt lat="49.12097" lon="5.95176">
        <ele>307.9</ele>
        <time>2011-11-06T10:18:50Z</time>
      </trkpt>
      <trkpt lat="49.12098" lon="5.95183">
        <ele>307.5</ele>
        <time>2011-11-06T10:18:51Z</time>
      </trkpt>
      <trkpt lat="49.12097" lon="5.95191">
        <ele>306.8</ele>
        <time>2011-11-06T10:18:52Z</time>
      </trkpt>
      <trkpt lat="49.12096" lon="5.95198">
        <ele>306.5</ele>
        <time>2011-11-06T10:18:53Z</time>
      </trkpt>
      <trkpt lat="49.12096" lon="5.95206">
        <ele>306.3</ele>
        <time>2011-11-06T10:18:54Z</time>
      </trkpt>
      <trkpt lat="49.12096" lon="5.95214">
        <ele>306.9</ele>
        <time>2011-11-06T10:18:55Z</time>
      </trkpt>
      <trkpt lat="49.12094" lon="5.9522">
        <ele>306.8</ele>
        <time>2011-11-06T10:18:56Z</time>
      </trkpt>
      <trkpt lat="49.12091" lon="5.95229">
        <ele>306.8</ele>
        <time>2011-11-06T10:18:58Z</time>
      </trkpt>
      <trkpt lat="49.1209" lon="5.95236">
        <ele>306.9</ele>
        <time>2011-11-06T10:18:59Z</time>
      </trkpt>
      <trkpt lat="49.1209" lon="5.95243">
        <ele>306.7</ele>
        <time>2011-11-06T10:19:00Z</time>
      </trkpt>
      <trkpt lat="49.12087" lon="5.95252">
        <ele>306.3</ele>
        <time>2011-11-06T10:19:02Z</time>
      </trkpt>
      <trkpt lat="49.12086" lon="5.9526">
        <ele>306.5</ele>
        <time>2011-11-06T10:19:03Z</time>
      </trkpt>
      <trkpt lat="49.12081" lon="5.95269">
        <ele>306</ele>
        <time>2011-11-06T10:19:06Z</time>
      </trkpt>
      <trkpt lat="49.12078" lon="5.95279">
        <ele>306</ele>
        <time>2011-11-06T10:19:08Z</time>
      </trkpt>
      <trkpt lat="49.12072" lon="5.95284">
        <ele>305.9</ele>
        <time>2011-11-06T10:19:10Z</time>
      </trkpt>
      <trkpt lat="49.12066" lon="5.95293">
        <ele>306.1</ele>
        <time>2011-11-06T10:19:11Z</time>
      </trkpt>
      <trkpt lat="49.12072" lon="5.95294">
        <ele>305.3</ele>
        <time>2011-11-06T10:19:12Z</time>
      </trkpt>
      <trkpt lat="49.12062" lon="5.95305">
        <ele>305.5</ele>
        <time>2011-11-06T10:19:13Z</time>
      </trkpt>
      <trkpt lat="49.12058" lon="5.9531">
        <ele>305.6</ele>
        <time>2011-11-06T10:19:14Z</time>
      </trkpt>
      <trkpt lat="49.12052" lon="5.95317">
        <ele>305.5</ele>
        <time>2011-11-06T10:19:15Z</time>
      </trkpt>
      <trkpt lat="49.12047" lon="5.95308">
        <ele>305.2</ele>
        <time>2011-11-06T10:19:17Z</time>
      </trkpt>
      <trkpt lat="49.12042" lon="5.95311">
        <ele>305.2</ele>
        <time>2011-11-06T10:19:18Z</time>
      </trkpt>
      <trkpt lat="49.12042" lon="5.95271">
        <ele>305.1</ele>
        <time>2011-11-06T10:19:19Z</time>
      </trkpt>
      <trkpt lat="49.12036" lon="5.95271">
        <ele>305</ele>
        <time>2011-11-06T10:19:20Z</time>
      </trkpt>
      <trkpt lat="49.12028" lon="5.95278">
        <ele>304.9</ele>
        <time>2011-11-06T10:19:21Z</time>
      </trkpt>
      <trkpt lat="49.12022" lon="5.9528">
        <ele>304.8</ele>
        <time>2011-11-06T10:19:22Z</time>
      </trkpt>
      <trkpt lat="49.12013" lon="5.95283">
        <ele>304.7</ele>
        <time>2011-11-06T10:19:23Z</time>
      </trkpt>
      <trkpt lat="49.12005" lon="5.95284">
        <ele>304.7</ele>
        <time>2011-11-06T10:19:24Z</time>
      </trkpt>
      <trkpt lat="49.11997" lon="5.95284">
        <ele>304.6</ele>
        <time>2011-11-06T10:19:25Z</time>
      </trkpt>
      <trkpt lat="49.11988" lon="5.95283">
        <ele>304.6</ele>
        <time>2011-11-06T10:19:26Z</time>
      </trkpt>
      <trkpt lat="49.1198" lon="5.95283">
        <ele>304.6</ele>
        <time>2011-11-06T10:19:27Z</time>
      </trkpt>
      <trkpt lat="49.11971" lon="5.95282">
        <ele>304.5</ele>
        <time>2011-11-06T10:19:28Z</time>
      </trkpt>
      <trkpt lat="49.11963" lon="5.95272">
        <ele>304.5</ele>
        <time>2011-11-06T10:19:29Z</time>
      </trkpt>
      <trkpt lat="49.11953" lon="5.95273">
        <ele>304.4</ele>
        <time>2011-11-06T10:19:30Z</time>
      </trkpt>
      <trkpt lat="49.11946" lon="5.95264">
        <ele>304.4</ele>
        <time>2011-11-06T10:19:31Z</time>
      </trkpt>
      <trkpt lat="49.11938" lon="5.95261">
        <ele>304.4</ele>
        <time>2011-11-06T10:19:32Z</time>
      </trkpt>
      <trkpt lat="49.1193" lon="5.95256">
        <ele>304.4</ele>
        <time>2011-11-06T10:19:33Z</time>
      </trkpt>
      <trkpt lat="49.1192" lon="5.95258">
        <ele>304.3</ele>
        <time>2011-11-06T10:19:34Z</time>
      </trkpt>
      <trkpt lat="49.11911" lon="5.95257">
        <ele>304.3</ele>
        <time>2011-11-06T10:19:35Z</time>
      </trkpt>
      <trkpt lat="49.11904" lon="5.9525">
        <ele>304.3</ele>
        <time>2011-11-06T10:19:36Z</time>
      </trkpt>
      <trkpt lat="49.11894" lon="5.95252">
        <ele>304.3</ele>
        <time>2011-11-06T10:19:37Z</time>
      </trkpt>
      <trkpt lat="49.11906" lon="5.952">
        <ele>306.3</ele>
        <time>2011-11-06T10:19:38Z</time>
      </trkpt>
      <trkpt lat="49.119" lon="5.95191">
        <ele>306.9</ele>
        <time>2011-11-06T10:19:39Z</time>
      </trkpt>
      <trkpt lat="49.11892" lon="5.95188">
        <ele>306.9</ele>
        <time>2011-11-06T10:19:40Z</time>
      </trkpt>
      <trkpt lat="49.11882" lon="5.9519">
        <ele>306.9</ele>
        <time>2011-11-06T10:19:41Z</time>
      </trkpt>
      <trkpt lat="49.11874" lon="5.95187">
        <ele>307.4</ele>
        <time>2011-11-06T10:19:42Z</time>
      </trkpt>
      <trkpt lat="49.11866" lon="5.95188">
        <ele>307.3</ele>
        <time>2011-11-06T10:19:43Z</time>
      </trkpt>
      <trkpt lat="49.11856" lon="5.95188">
        <ele>307.3</ele>
        <time>2011-11-06T10:19:44Z</time>
      </trkpt>
      <trkpt lat="49.11848" lon="5.9519">
        <ele>307.4</ele>
        <time>2011-11-06T10:19:45Z</time>
      </trkpt>
      <trkpt lat="49.11837" lon="5.95189">
        <ele>306.6</ele>
        <time>2011-11-06T10:19:46Z</time>
      </trkpt>
      <trkpt lat="49.11829" lon="5.95182">
        <ele>306.6</ele>
        <time>2011-11-06T10:19:47Z</time>
      </trkpt>
      <trkpt lat="49.11821" lon="5.9518">
        <ele>306.6</ele>
        <time>2011-11-06T10:19:48Z</time>
      </trkpt>
      <trkpt lat="49.11813" lon="5.95172">
        <ele>306.7</ele>
        <time>2011-11-06T10:19:49Z</time>
      </trkpt>
      <trkpt lat="49.11807" lon="5.95173">
        <ele>307</ele>
        <time>2011-11-06T10:19:50Z</time>
      </trkpt>
      <trkpt lat="49.11799" lon="5.95175">
        <ele>307.1</ele>
        <time>2011-11-06T10:19:51Z</time>
      </trkpt>
      <trkpt lat="49.11791" lon="5.95178">
        <ele>307</ele>
        <time>2011-11-06T10:19:52Z</time>
      </trkpt>
      <trkpt lat="49.11783" lon="5.95177">
        <ele>307</ele>
        <time>2011-11-06T10:19:53Z</time>
      </trkpt>
      <trkpt lat="49.11775" lon="5.95174">
        <ele>307</ele>
        <time>2011-11-06T10:19:54Z</time>
      </trkpt>
      <trkpt lat="49.11767" lon="5.95177">
        <ele>306.9</ele>
        <time>2011-11-06T10:19:55Z</time>
      </trkpt>
      <trkpt lat="49.11739" lon="5.95184">
        <ele>310.5</ele>
        <time>2011-11-06T10:19:58Z</time>
      </trkpt>
      <trkpt lat="49.11728" lon="5.95187">
        <ele>311.9</ele>
        <time>2011-11-06T10:19:59Z</time>
      </trkpt>
      <trkpt lat="49.11719" lon="5.9519">
        <ele>313.7</ele>
        <time>2011-11-06T10:20:00Z</time>
      </trkpt>
      <trkpt lat="49.11709" lon="5.95191">
        <ele>311.1</ele>
        <time>2011-11-06T10:20:01Z</time>
      </trkpt>
      <trkpt lat="49.11698" lon="5.95194">
        <ele>311</ele>
        <time>2011-11-06T10:20:02Z</time>
      </trkpt>
      <trkpt lat="49.1169" lon="5.95197">
        <ele>310</ele>
        <time>2011-11-06T10:20:03Z</time>
      </trkpt>
      <trkpt lat="49.11682" lon="5.95198">
        <ele>310</ele>
        <time>2011-11-06T10:20:04Z</time>
      </trkpt>
      <trkpt lat="49.11674" lon="5.95201">
        <ele>309.8</ele>
        <time>2011-11-06T10:20:05Z</time>
      </trkpt>
      <trkpt lat="49.11663" lon="5.95204">
        <ele>309.3</ele>
        <time>2011-11-06T10:20:05Z</time>
      </trkpt>
      <trkpt lat="49.11652" lon="5.95206">
        <ele>308.4</ele>
        <time>2011-11-06T10:20:06Z</time>
      </trkpt>
      <trkpt lat="49.11642" lon="5.95209">
        <ele>307.6</ele>
        <time>2011-11-06T10:20:07Z</time>
      </trkpt>
      <trkpt lat="49.11632" lon="5.95212">
        <ele>307.8</ele>
        <time>2011-11-06T10:20:08Z</time>
      </trkpt>
      <trkpt lat="49.11622" lon="5.95213">
        <ele>306.4</ele>
        <time>2011-11-06T10:20:09Z</time>
      </trkpt>
      <trkpt lat="49.11611" lon="5.95215">
        <ele>307.4</ele>
        <time>2011-11-06T10:20:10Z</time>
      </trkpt>
      <trkpt lat="49.116" lon="5.95214">
        <ele>307.5</ele>
        <time>2011-11-06T10:20:11Z</time>
      </trkpt>
      <trkpt lat="49.11592" lon="5.95211">
        <ele>307.7</ele>
        <time>2011-11-06T10:20:12Z</time>
      </trkpt>
      <trkpt lat="49.11583" lon="5.95206">
        <ele>308.7</ele>
        <time>2011-11-06T10:20:13Z</time>
      </trkpt>
      <trkpt lat="49.11574" lon="5.95202">
        <ele>308.8</ele>
        <time>2011-11-06T10:20:14Z</time>
      </trkpt>
      <trkpt lat="49.11565" lon="5.95197">
        <ele>308.4</ele>
        <time>2011-11-06T10:20:15Z</time>
      </trkpt>
      <trkpt lat="49.11555" lon="5.95191">
        <ele>309.1</ele>
        <time>2011-11-06T10:20:16Z</time>
      </trkpt>
      <trkpt lat="49.11546" lon="5.95185">
        <ele>309.2</ele>
        <time>2011-11-06T10:20:17Z</time>
      </trkpt>
      <trkpt lat="49.1154" lon="5.95178">
        <ele>308.7</ele>
        <time>2011-11-06T10:20:19Z</time>
      </trkpt>
      <trkpt lat="49.11534" lon="5.95172">
        <ele>308.2</ele>
        <time>2011-11-06T10:20:20Z</time>
      </trkpt>
      <trkpt lat="49.11526" lon="5.95163">
        <ele>309.2</ele>
        <time>2011-11-06T10:20:20Z</time>
      </trkpt>
      <trkpt lat="49.11519" lon="5.95154">
        <ele>308.7</ele>
        <time>2011-11-06T10:20:21Z</time>
      </trkpt>
      <trkpt lat="49.11511" lon="5.95146">
        <ele>308.8</ele>
        <time>2011-11-06T10:20:22Z</time>
      </trkpt>
      <trkpt lat="49.11504" lon="5.95137">
        <ele>308.6</ele>
        <time>2011-11-06T10:20:24Z</time>
      </trkpt>
      <trkpt lat="49.11497" lon="5.95127">
        <ele>307.9</ele>
        <time>2011-11-06T10:20:24Z</time>
      </trkpt>
      <trkpt lat="49.1149" lon="5.9512">
        <ele>307.5</ele>
        <time>2011-11-06T10:20:25Z</time>
      </trkpt>
      <trkpt lat="49.11482" lon="5.95113">
        <ele>308.1</ele>
        <time>2011-11-06T10:20:26Z</time>
      </trkpt>
      <trkpt lat="49.11475" lon="5.95104">
        <ele>308.7</ele>
        <time>2011-11-06T10:20:27Z</time>
      </trkpt>
      <trkpt lat="49.11468" lon="5.95096">
        <ele>308.7</ele>
        <time>2011-11-06T10:20:28Z</time>
      </trkpt>
      <trkpt lat="49.11462" lon="5.95088">
        <ele>308.3</ele>
        <time>2011-11-06T10:20:29Z</time>
      </trkpt>
      <trkpt lat="49.11454" lon="5.95079">
        <ele>309.2</ele>
        <time>2011-11-06T10:20:30Z</time>
      </trkpt>
      <trkpt lat="49.11446" lon="5.95067">
        <ele>309.4</ele>
        <time>2011-11-06T10:20:31Z</time>
      </trkpt>
      <trkpt lat="49.11438" lon="5.95061">
        <ele>309.8</ele>
        <time>2011-11-06T10:20:32Z</time>
      </trkpt>
      <trkpt lat="49.11431" lon="5.95054">
        <ele>309.8</ele>
        <time>2011-11-06T10:20:33Z</time>
      </trkpt>
      <trkpt lat="49.11424" lon="5.95047">
        <ele>309.8</ele>
        <time>2011-11-06T10:20:34Z</time>
      </trkpt>
      <trkpt lat="49.11417" lon="5.9504">
        <ele>309.8</ele>
        <time>2011-11-06T10:20:35Z</time>
      </trkpt>
      <trkpt lat="49.1141" lon="5.95034">
        <ele>309.9</ele>
        <time>2011-11-06T10:20:36Z</time>
      </trkpt>
      <trkpt lat="49.11404" lon="5.95027">
        <ele>309.8</ele>
        <time>2011-11-06T10:20:37Z</time>
      </trkpt>
      <trkpt lat="49.11396" lon="5.95022">
        <ele>309</ele>
        <time>2011-11-06T10:20:38Z</time>
      </trkpt>
      <trkpt lat="49.11386" lon="5.95018">
        <ele>308.4</ele>
        <time>2011-11-06T10:20:39Z</time>
      </trkpt>
      <trkpt lat="49.11381" lon="5.95011">
        <ele>308.2</ele>
        <time>2011-11-06T10:20:40Z</time>
      </trkpt>
      <trkpt lat="49.11376" lon="5.95005">
        <ele>308.9</ele>
        <time>2011-11-06T10:20:41Z</time>
      </trkpt>
      <trkpt lat="49.11368" lon="5.94998">
        <ele>309.5</ele>
        <time>2011-11-06T10:20:42Z</time>
      </trkpt>
      <trkpt lat="49.11358" lon="5.94991">
        <ele>308.7</ele>
        <time>2011-11-06T10:20:43Z</time>
      </trkpt>
      <trkpt lat="49.11349" lon="5.94986">
        <ele>309.2</ele>
        <time>2011-11-06T10:20:44Z</time>
      </trkpt>
      <trkpt lat="49.11341" lon="5.9498">
        <ele>309.7</ele>
        <time>2011-11-06T10:20:45Z</time>
      </trkpt>
      <trkpt lat="49.11335" lon="5.94972">
        <ele>309.2</ele>
        <time>2011-11-06T10:20:46Z</time>
      </trkpt>
      <trkpt lat="49.11328" lon="5.94964">
        <ele>309.1</ele>
        <time>2011-11-06T10:20:47Z</time>
      </trkpt>
      <trkpt lat="49.11323" lon="5.94954">
        <ele>308.7</ele>
        <time>2011-11-06T10:20:48Z</time>
      </trkpt>
      <trkpt lat="49.1132" lon="5.94947">
        <ele>308.1</ele>
        <time>2011-11-06T10:20:49Z</time>
      </trkpt>
      <trkpt lat="49.11314" lon="5.94934">
        <ele>308</ele>
        <time>2011-11-06T10:20:50Z</time>
      </trkpt>
      <trkpt lat="49.11311" lon="5.94923">
        <ele>308.3</ele>
        <time>2011-11-06T10:20:51Z</time>
      </trkpt>
      <trkpt lat="49.11306" lon="5.94913">
        <ele>308.6</ele>
        <time>2011-11-06T10:20:52Z</time>
      </trkpt>
      <trkpt lat="49.11301" lon="5.94903">
        <ele>308.7</ele>
        <time>2011-11-06T10:20:53Z</time>
      </trkpt>
      <trkpt lat="49.11295" lon="5.94892">
        <ele>308.6</ele>
        <time>2011-11-06T10:20:54Z</time>
      </trkpt>
      <trkpt lat="49.11288" lon="5.94873">
        <ele>310.4</ele>
        <time>2011-11-06T10:20:56Z</time>
      </trkpt>
      <trkpt lat="49.11279" lon="5.94858">
        <ele>310.6</ele>
        <time>2011-11-06T10:20:57Z</time>
      </trkpt>
      <trkpt lat="49.11274" lon="5.94844">
        <ele>311.4</ele>
        <time>2011-11-06T10:20:58Z</time>
      </trkpt>
      <trkpt lat="49.11269" lon="5.94834">
        <ele>311.6</ele>
        <time>2011-11-06T10:20:59Z</time>
      </trkpt>
      <trkpt lat="49.11264" lon="5.94824">
        <ele>311.5</ele>
        <time>2011-11-06T10:21:00Z</time>
      </trkpt>
      <trkpt lat="49.11257" lon="5.94826">
        <ele>311.7</ele>
        <time>2011-11-06T10:21:01Z</time>
      </trkpt>
      <trkpt lat="49.11247" lon="5.94822">
        <ele>311.6</ele>
        <time>2011-11-06T10:21:02Z</time>
      </trkpt>
      <trkpt lat="49.11235" lon="5.94818">
        <ele>311</ele>
        <time>2011-11-06T10:21:03Z</time>
      </trkpt>
      <trkpt lat="49.11227" lon="5.94813">
        <ele>310.9</ele>
        <time>2011-11-06T10:21:04Z</time>
      </trkpt>
      <trkpt lat="49.11214" lon="5.94814">
        <ele>311</ele>
        <time>2011-11-06T10:21:05Z</time>
      </trkpt>
      <trkpt lat="49.11205" lon="5.9481">
        <ele>310.9</ele>
        <time>2011-11-06T10:21:06Z</time>
      </trkpt>
      <trkpt lat="49.11196" lon="5.94816">
        <ele>311.3</ele>
        <time>2011-11-06T10:21:07Z</time>
      </trkpt>
      <trkpt lat="49.11187" lon="5.94816">
        <ele>311.1</ele>
        <time>2011-11-06T10:21:08Z</time>
      </trkpt>
      <trkpt lat="49.11178" lon="5.94814">
        <ele>311.1</ele>
        <time>2011-11-06T10:21:09Z</time>
      </trkpt>
      <trkpt lat="49.11169" lon="5.94824">
        <ele>311</ele>
        <time>2011-11-06T10:21:10Z</time>
      </trkpt>
      <trkpt lat="49.11161" lon="5.94828">
        <ele>311</ele>
        <time>2011-11-06T10:21:11Z</time>
      </trkpt>
      <trkpt lat="49.11154" lon="5.9484">
        <ele>311.4</ele>
        <time>2011-11-06T10:21:12Z</time>
      </trkpt>
      <trkpt lat="49.1115" lon="5.94849">
        <ele>311.3</ele>
        <time>2011-11-06T10:21:13Z</time>
      </trkpt>
      <trkpt lat="49.11143" lon="5.94853">
        <ele>311.6</ele>
        <time>2011-11-06T10:21:14Z</time>
      </trkpt>
      <trkpt lat="49.11137" lon="5.94855">
        <ele>311.6</ele>
        <time>2011-11-06T10:21:15Z</time>
      </trkpt>
      <trkpt lat="49.11136" lon="5.94873">
        <ele>311.7</ele>
        <time>2011-11-06T10:21:16Z</time>
      </trkpt>
      <trkpt lat="49.11126" lon="5.94876">
        <ele>311.8</ele>
        <time>2011-11-06T10:21:18Z</time>
      </trkpt>
      <trkpt lat="49.11122" lon="5.94894">
        <ele>311.8</ele>
        <time>2011-11-06T10:21:20Z</time>
      </trkpt>
      <trkpt lat="49.11122" lon="5.94904">
        <ele>311.9</ele>
        <time>2011-11-06T10:21:21Z</time>
      </trkpt>
      <trkpt lat="49.11119" lon="5.94912">
        <ele>312.2</ele>
        <time>2011-11-06T10:21:23Z</time>
      </trkpt>
      <trkpt lat="49.11117" lon="5.94922">
        <ele>312.4</ele>
        <time>2011-11-06T10:21:24Z</time>
      </trkpt>
      <trkpt lat="49.11117" lon="5.94931">
        <ele>312.5</ele>
        <time>2011-11-06T10:21:25Z</time>
      </trkpt>
      <trkpt lat="49.11116" lon="5.94944">
        <ele>312.6</ele>
        <time>2011-11-06T10:21:27Z</time>
      </trkpt>
      <trkpt lat="49.11115" lon="5.94953">
        <ele>312.7</ele>
        <time>2011-11-06T10:21:28Z</time>
      </trkpt>
      <trkpt lat="49.11115" lon="5.94973">
        <ele>312.6</ele>
        <time>2011-11-06T10:21:29Z</time>
      </trkpt>
      <trkpt lat="49.11111" lon="5.94981">
        <ele>312.5</ele>
        <time>2011-11-06T10:21:30Z</time>
      </trkpt>
      <trkpt lat="49.11112" lon="5.94998">
        <ele>312.5</ele>
        <time>2011-11-06T10:21:31Z</time>
      </trkpt>
      <trkpt lat="49.11109" lon="5.95004">
        <ele>312.3</ele>
        <time>2011-11-06T10:21:32Z</time>
      </trkpt>
      <trkpt lat="49.11101" lon="5.95003">
        <ele>312</ele>
        <time>2011-11-06T10:21:33Z</time>
      </trkpt>
      <trkpt lat="49.11092" lon="5.95009">
        <ele>311.8</ele>
        <time>2011-11-06T10:21:34Z</time>
      </trkpt>
      <trkpt lat="49.11065" lon="5.94959">
        <ele>315</ele>
        <time>2011-11-06T10:21:35Z</time>
      </trkpt>
      <trkpt lat="49.11055" lon="5.94938">
        <ele>316.2</ele>
        <time>2011-11-06T10:21:36Z</time>
      </trkpt>
      <trkpt lat="49.1105" lon="5.94934">
        <ele>316.1</ele>
        <time>2011-11-06T10:21:37Z</time>
      </trkpt>
      <trkpt lat="49.11041" lon="5.94933">
        <ele>316</ele>
        <time>2011-11-06T10:21:39Z</time>
      </trkpt>
      <trkpt lat="49.11018" lon="5.94936">
        <ele>314.7</ele>
        <time>2011-11-06T10:21:40Z</time>
      </trkpt>
      <trkpt lat="49.1101" lon="5.94934">
        <ele>314.7</ele>
        <time>2011-11-06T10:21:41Z</time>
      </trkpt>
      <trkpt lat="49.10999" lon="5.94935">
        <ele>314.4</ele>
        <time>2011-11-06T10:21:42Z</time>
      </trkpt>
      <trkpt lat="49.10966" lon="5.94952">
        <ele>313.5</ele>
        <time>2011-11-06T10:21:43Z</time>
      </trkpt>
      <trkpt lat="49.10957" lon="5.94952">
        <ele>313.5</ele>
        <time>2011-11-06T10:21:44Z</time>
      </trkpt>
      <trkpt lat="49.10949" lon="5.94948">
        <ele>313.7</ele>
        <time>2011-11-06T10:21:45Z</time>
      </trkpt>
      <trkpt lat="49.10935" lon="5.94955">
        <ele>314.7</ele>
        <time>2011-11-06T10:21:46Z</time>
      </trkpt>
      <trkpt lat="49.10927" lon="5.94955">
        <ele>314.6</ele>
        <time>2011-11-06T10:21:47Z</time>
      </trkpt>
      <trkpt lat="49.10918" lon="5.94952">
        <ele>314.6</ele>
        <time>2011-11-06T10:21:48Z</time>
      </trkpt>
      <trkpt lat="49.10894" lon="5.94961">
        <ele>311</ele>
        <time>2011-11-06T10:21:49Z</time>
      </trkpt>
      <trkpt lat="49.10872" lon="5.94966">
        <ele>308.3</ele>
        <time>2011-11-06T10:21:50Z</time>
      </trkpt>
      <trkpt lat="49.10862" lon="5.9497">
        <ele>308</ele>
        <time>2011-11-06T10:21:51Z</time>
      </trkpt>
      <trkpt lat="49.10854" lon="5.94964">
        <ele>308.2</ele>
        <time>2011-11-06T10:21:52Z</time>
      </trkpt>
      <trkpt lat="49.10846" lon="5.94968">
        <ele>308.1</ele>
        <time>2011-11-06T10:21:53Z</time>
      </trkpt>
      <trkpt lat="49.10836" lon="5.94966">
        <ele>307.7</ele>
        <time>2011-11-06T10:21:54Z</time>
      </trkpt>
      <trkpt lat="49.1081" lon="5.94972">
        <ele>313.1</ele>
        <time>2011-11-06T10:21:57Z</time>
      </trkpt>
      <trkpt lat="49.108" lon="5.94973">
        <ele>313.2</ele>
        <time>2011-11-06T10:21:58Z</time>
      </trkpt>
      <trkpt lat="49.10792" lon="5.94975">
        <ele>310.2</ele>
        <time>2011-11-06T10:21:59Z</time>
      </trkpt>
      <trkpt lat="49.10783" lon="5.94981">
        <ele>312.1</ele>
        <time>2011-11-06T10:22:00Z</time>
      </trkpt>
      <trkpt lat="49.10774" lon="5.94984">
        <ele>311.9</ele>
        <time>2011-11-06T10:22:01Z</time>
      </trkpt>
      <trkpt lat="49.10764" lon="5.94989">
        <ele>311.1</ele>
        <time>2011-11-06T10:22:02Z</time>
      </trkpt>
      <trkpt lat="49.10756" lon="5.94994">
        <ele>310.7</ele>
        <time>2011-11-06T10:22:03Z</time>
      </trkpt>
      <trkpt lat="49.10745" lon="5.95001">
        <ele>308.5</ele>
        <time>2011-11-06T10:22:04Z</time>
      </trkpt>
      <trkpt lat="49.10735" lon="5.95009">
        <ele>307.8</ele>
        <time>2011-11-06T10:22:05Z</time>
      </trkpt>
      <trkpt lat="49.10725" lon="5.95016">
        <ele>308.2</ele>
        <time>2011-11-06T10:22:06Z</time>
      </trkpt>
      <trkpt lat="49.10716" lon="5.95023">
        <ele>308.8</ele>
        <time>2011-11-06T10:22:07Z</time>
      </trkpt>
      <trkpt lat="49.10706" lon="5.95029">
        <ele>309</ele>
        <time>2011-11-06T10:22:08Z</time>
      </trkpt>
      <trkpt lat="49.10695" lon="5.95034">
        <ele>309.9</ele>
        <time>2011-11-06T10:22:09Z</time>
      </trkpt>
      <trkpt lat="49.10686" lon="5.95039">
        <ele>310.5</ele>
        <time>2011-11-06T10:22:10Z</time>
      </trkpt>
      <trkpt lat="49.10675" lon="5.95042">
        <ele>312.1</ele>
        <time>2011-11-06T10:22:11Z</time>
      </trkpt>
      <trkpt lat="49.10666" lon="5.95045">
        <ele>313.5</ele>
        <time>2011-11-06T10:22:12Z</time>
      </trkpt>
      <trkpt lat="49.10658" lon="5.95048">
        <ele>313.9</ele>
        <time>2011-11-06T10:22:13Z</time>
      </trkpt>
      <trkpt lat="49.10649" lon="5.95052">
        <ele>314.5</ele>
        <time>2011-11-06T10:22:14Z</time>
      </trkpt>
      <trkpt lat="49.10642" lon="5.95056">
        <ele>315.5</ele>
        <time>2011-11-06T10:22:15Z</time>
      </trkpt>
      <trkpt lat="49.10634" lon="5.95059">
        <ele>315.5</ele>
        <time>2011-11-06T10:22:16Z</time>
      </trkpt>
      <trkpt lat="49.10628" lon="5.95063">
        <ele>316.8</ele>
        <time>2011-11-06T10:22:17Z</time>
      </trkpt>
      <trkpt lat="49.1062" lon="5.95066">
        <ele>317.3</ele>
        <time>2011-11-06T10:22:18Z</time>
      </trkpt>
      <trkpt lat="49.10613" lon="5.9507">
        <ele>317.4</ele>
        <time>2011-11-06T10:22:19Z</time>
      </trkpt>
      <trkpt lat="49.10606" lon="5.95073">
        <ele>318.2</ele>
        <time>2011-11-06T10:22:20Z</time>
      </trkpt>
      <trkpt lat="49.106" lon="5.95078">
        <ele>319.3</ele>
        <time>2011-11-06T10:22:21Z</time>
      </trkpt>
      <trkpt lat="49.10593" lon="5.95082">
        <ele>319.4</ele>
        <time>2011-11-06T10:22:22Z</time>
      </trkpt>
      <trkpt lat="49.10587" lon="5.95086">
        <ele>319.4</ele>
        <time>2011-11-06T10:22:23Z</time>
      </trkpt>
      <trkpt lat="49.1058" lon="5.9509">
        <ele>318.7</ele>
        <time>2011-11-06T10:22:24Z</time>
      </trkpt>
      <trkpt lat="49.10574" lon="5.95094">
        <ele>318.9</ele>
        <time>2011-11-06T10:22:25Z</time>
      </trkpt>
      <trkpt lat="49.10568" lon="5.95099">
        <ele>319.2</ele>
        <time>2011-11-06T10:22:26Z</time>
      </trkpt>
      <trkpt lat="49.10561" lon="5.95103">
        <ele>320.3</ele>
        <time>2011-11-06T10:22:27Z</time>
      </trkpt>
      <trkpt lat="49.10556" lon="5.95107">
        <ele>320.1</ele>
        <time>2011-11-06T10:22:28Z</time>
      </trkpt>
      <trkpt lat="49.1055" lon="5.95112">
        <ele>320.4</ele>
        <time>2011-11-06T10:22:29Z</time>
      </trkpt>
      <trkpt lat="49.10544" lon="5.95117">
        <ele>321.9</ele>
        <time>2011-11-06T10:22:30Z</time>
      </trkpt>
      <trkpt lat="49.10538" lon="5.95122">
        <ele>322.3</ele>
        <time>2011-11-06T10:22:31Z</time>
      </trkpt>
      <trkpt lat="49.10532" lon="5.95128">
        <ele>322.7</ele>
        <time>2011-11-06T10:22:32Z</time>
      </trkpt>
      <trkpt lat="49.10525" lon="5.95134">
        <ele>323.1</ele>
        <time>2011-11-06T10:22:33Z</time>
      </trkpt>
      <trkpt lat="49.10518" lon="5.9514">
        <ele>322.6</ele>
        <time>2011-11-06T10:22:34Z</time>
      </trkpt>
      <trkpt lat="49.10512" lon="5.95147">
        <ele>322.9</ele>
        <time>2011-11-06T10:22:35Z</time>
      </trkpt>
      <trkpt lat="49.10506" lon="5.95154">
        <ele>324.1</ele>
        <time>2011-11-06T10:22:36Z</time>
      </trkpt>
      <trkpt lat="49.10499" lon="5.95161">
        <ele>324</ele>
        <time>2011-11-06T10:22:37Z</time>
      </trkpt>
      <trkpt lat="49.10494" lon="5.95168">
        <ele>324</ele>
        <time>2011-11-06T10:22:38Z</time>
      </trkpt>
      <trkpt lat="49.10487" lon="5.95175">
        <ele>323.3</ele>
        <time>2011-11-06T10:22:39Z</time>
      </trkpt>
      <trkpt lat="49.1048" lon="5.95183">
        <ele>322.8</ele>
        <time>2011-11-06T10:22:40Z</time>
      </trkpt>
      <trkpt lat="49.10473" lon="5.95191">
        <ele>322.5</ele>
        <time>2011-11-06T10:22:41Z</time>
      </trkpt>
      <trkpt lat="49.10466" lon="5.95199">
        <ele>323</ele>
        <time>2011-11-06T10:22:42Z</time>
      </trkpt>
      <trkpt lat="49.1046" lon="5.95208">
        <ele>322.3</ele>
        <time>2011-11-06T10:22:43Z</time>
      </trkpt>
      <trkpt lat="49.10454" lon="5.95215">
        <ele>322.6</ele>
        <time>2011-11-06T10:22:44Z</time>
      </trkpt>
      <trkpt lat="49.10447" lon="5.95223">
        <ele>322.2</ele>
        <time>2011-11-06T10:22:45Z</time>
      </trkpt>
      <trkpt lat="49.10441" lon="5.95231">
        <ele>323.1</ele>
        <time>2011-11-06T10:22:46Z</time>
      </trkpt>
      <trkpt lat="49.10434" lon="5.95239">
        <ele>323.2</ele>
        <time>2011-11-06T10:22:47Z</time>
      </trkpt>
      <trkpt lat="49.10428" lon="5.95246">
        <ele>322.5</ele>
        <time>2011-11-06T10:22:48Z</time>
      </trkpt>
      <trkpt lat="49.10421" lon="5.95254">
        <ele>322.1</ele>
        <time>2011-11-06T10:22:49Z</time>
      </trkpt>
      <trkpt lat="49.10415" lon="5.95262">
        <ele>322</ele>
        <time>2011-11-06T10:22:50Z</time>
      </trkpt>
      <trkpt lat="49.10409" lon="5.9527">
        <ele>322.2</ele>
        <time>2011-11-06T10:22:51Z</time>
      </trkpt>
      <trkpt lat="49.10403" lon="5.95277">
        <ele>322.1</ele>
        <time>2011-11-06T10:22:52Z</time>
      </trkpt>
      <trkpt lat="49.10397" lon="5.95284">
        <ele>321.9</ele>
        <time>2011-11-06T10:22:53Z</time>
      </trkpt>
      <trkpt lat="49.10392" lon="5.95291">
        <ele>321.9</ele>
        <time>2011-11-06T10:22:54Z</time>
      </trkpt>
      <trkpt lat="49.10382" lon="5.95301">
        <ele>322.7</ele>
        <time>2011-11-06T10:22:56Z</time>
      </trkpt>
      <trkpt lat="49.10375" lon="5.95309">
        <ele>322.7</ele>
        <time>2011-11-06T10:22:57Z</time>
      </trkpt>
      <trkpt lat="49.1037" lon="5.95316">
        <ele>322.5</ele>
        <time>2011-11-06T10:22:58Z</time>
      </trkpt>
      <trkpt lat="49.10364" lon="5.95321">
        <ele>322.6</ele>
        <time>2011-11-06T10:22:59Z</time>
      </trkpt>
      <trkpt lat="49.10358" lon="5.95327">
        <ele>322.8</ele>
        <time>2011-11-06T10:23:00Z</time>
      </trkpt>
      <trkpt lat="49.10353" lon="5.95334">
        <ele>322.8</ele>
        <time>2011-11-06T10:23:01Z</time>
      </trkpt>
      <trkpt lat="49.10347" lon="5.9534">
        <ele>323.3</ele>
        <time>2011-11-06T10:23:02Z</time>
      </trkpt>
      <trkpt lat="49.1034" lon="5.95346">
        <ele>323.4</ele>
        <time>2011-11-06T10:23:03Z</time>
      </trkpt>
      <trkpt lat="49.10334" lon="5.95352">
        <ele>323.5</ele>
        <time>2011-11-06T10:23:04Z</time>
      </trkpt>
      <trkpt lat="49.10328" lon="5.95357">
        <ele>322.7</ele>
        <time>2011-11-06T10:23:05Z</time>
      </trkpt>
      <trkpt lat="49.10321" lon="5.95363">
        <ele>321.1</ele>
        <time>2011-11-06T10:23:06Z</time>
      </trkpt>
      <trkpt lat="49.10313" lon="5.95368">
        <ele>319.6</ele>
        <time>2011-11-06T10:23:07Z</time>
      </trkpt>
      <trkpt lat="49.10306" lon="5.95374">
        <ele>318.4</ele>
        <time>2011-11-06T10:23:08Z</time>
      </trkpt>
      <trkpt lat="49.10298" lon="5.95379">
        <ele>317.8</ele>
        <time>2011-11-06T10:23:09Z</time>
      </trkpt>
      <trkpt lat="49.10289" lon="5.95383">
        <ele>317.8</ele>
        <time>2011-11-06T10:23:10Z</time>
      </trkpt>
      <trkpt lat="49.10281" lon="5.95388">
        <ele>317</ele>
        <time>2011-11-06T10:23:11Z</time>
      </trkpt>
      <trkpt lat="49.10272" lon="5.95393">
        <ele>316.9</ele>
        <time>2011-11-06T10:23:12Z</time>
      </trkpt>
      <trkpt lat="49.10263" lon="5.95396">
        <ele>316.6</ele>
        <time>2011-11-06T10:23:13Z</time>
      </trkpt>
      <trkpt lat="49.10255" lon="5.95398">
        <ele>316.2</ele>
        <time>2011-11-06T10:23:14Z</time>
      </trkpt>
      <trkpt lat="49.10247" lon="5.954">
        <ele>316.2</ele>
        <time>2011-11-06T10:23:15Z</time>
      </trkpt>
      <trkpt lat="49.10239" lon="5.95402">
        <ele>317</ele>
        <time>2011-11-06T10:23:16Z</time>
      </trkpt>
      <trkpt lat="49.10232" lon="5.95403">
        <ele>316.9</ele>
        <time>2011-11-06T10:23:17Z</time>
      </trkpt>
      <trkpt lat="49.10224" lon="5.95404">
        <ele>316.9</ele>
        <time>2011-11-06T10:23:18Z</time>
      </trkpt>
      <trkpt lat="49.10216" lon="5.95404">
        <ele>316.6</ele>
        <time>2011-11-06T10:23:19Z</time>
      </trkpt>
      <trkpt lat="49.10209" lon="5.95405">
        <ele>317</ele>
        <time>2011-11-06T10:23:20Z</time>
      </trkpt>
      <trkpt lat="49.10202" lon="5.95406">
        <ele>316.3</ele>
        <time>2011-11-06T10:23:21Z</time>
      </trkpt>
      <trkpt lat="49.10195" lon="5.95408">
        <ele>315.1</ele>
        <time>2011-11-06T10:23:22Z</time>
      </trkpt>
      <trkpt lat="49.10187" lon="5.95409">
        <ele>314.5</ele>
        <time>2011-11-06T10:23:23Z</time>
      </trkpt>
      <trkpt lat="49.10179" lon="5.9541">
        <ele>313.8</ele>
        <time>2011-11-06T10:23:24Z</time>
      </trkpt>
      <trkpt lat="49.1017" lon="5.95411">
        <ele>313.9</ele>
        <time>2011-11-06T10:23:25Z</time>
      </trkpt>
      <trkpt lat="49.10162" lon="5.95413">
        <ele>314.2</ele>
        <time>2011-11-06T10:23:26Z</time>
      </trkpt>
      <trkpt lat="49.10153" lon="5.95414">
        <ele>314.2</ele>
        <time>2011-11-06T10:23:27Z</time>
      </trkpt>
      <trkpt lat="49.10144" lon="5.95415">
        <ele>314.3</ele>
        <time>2011-11-06T10:23:28Z</time>
      </trkpt>
      <trkpt lat="49.10135" lon="5.95415">
        <ele>314.6</ele>
        <time>2011-11-06T10:23:29Z</time>
      </trkpt>
      <trkpt lat="49.10127" lon="5.95416">
        <ele>314.9</ele>
        <time>2011-11-06T10:23:30Z</time>
      </trkpt>
      <trkpt lat="49.10119" lon="5.95418">
        <ele>315.1</ele>
        <time>2011-11-06T10:23:31Z</time>
      </trkpt>
      <trkpt lat="49.1011" lon="5.9542">
        <ele>315.8</ele>
        <time>2011-11-06T10:23:32Z</time>
      </trkpt>
      <trkpt lat="49.10103" lon="5.95422">
        <ele>316.2</ele>
        <time>2011-11-06T10:23:33Z</time>
      </trkpt>
      <trkpt lat="49.10095" lon="5.95425">
        <ele>316.5</ele>
        <time>2011-11-06T10:23:34Z</time>
      </trkpt>
      <trkpt lat="49.10087" lon="5.95427">
        <ele>317.3</ele>
        <time>2011-11-06T10:23:35Z</time>
      </trkpt>
      <trkpt lat="49.1008" lon="5.9543">
        <ele>317.7</ele>
        <time>2011-11-06T10:23:36Z</time>
      </trkpt>
      <trkpt lat="49.10073" lon="5.95433">
        <ele>318.2</ele>
        <time>2011-11-06T10:23:37Z</time>
      </trkpt>
      <trkpt lat="49.10065" lon="5.95436">
        <ele>318.5</ele>
        <time>2011-11-06T10:23:38Z</time>
      </trkpt>
      <trkpt lat="49.10057" lon="5.95439">
        <ele>318.7</ele>
        <time>2011-11-06T10:23:39Z</time>
      </trkpt>
      <trkpt lat="49.10049" lon="5.95442">
        <ele>319.5</ele>
        <time>2011-11-06T10:23:40Z</time>
      </trkpt>
      <trkpt lat="49.10041" lon="5.95445">
        <ele>319.9</ele>
        <time>2011-11-06T10:23:41Z</time>
      </trkpt>
      <trkpt lat="49.10032" lon="5.95449">
        <ele>319.7</ele>
        <time>2011-11-06T10:23:42Z</time>
      </trkpt>
      <trkpt lat="49.10025" lon="5.95452">
        <ele>320.2</ele>
        <time>2011-11-06T10:23:43Z</time>
      </trkpt>
      <trkpt lat="49.10017" lon="5.95454">
        <ele>320.8</ele>
        <time>2011-11-06T10:23:44Z</time>
      </trkpt>
      <trkpt lat="49.1001" lon="5.95457">
        <ele>320.9</ele>
        <time>2011-11-06T10:23:45Z</time>
      </trkpt>
      <trkpt lat="49.10003" lon="5.9546">
        <ele>320.7</ele>
        <time>2011-11-06T10:23:46Z</time>
      </trkpt>
      <trkpt lat="49.09996" lon="5.95462">
        <ele>321</ele>
        <time>2011-11-06T10:23:47Z</time>
      </trkpt>
      <trkpt lat="49.0999" lon="5.95464">
        <ele>321.6</ele>
        <time>2011-11-06T10:23:48Z</time>
      </trkpt>
      <trkpt lat="49.09983" lon="5.95467">
        <ele>321.9</ele>
        <time>2011-11-06T10:23:49Z</time>
      </trkpt>
      <trkpt lat="49.09977" lon="5.9547">
        <ele>322.3</ele>
        <time>2011-11-06T10:23:50Z</time>
      </trkpt>
      <trkpt lat="49.09971" lon="5.95471">
        <ele>322.4</ele>
        <time>2011-11-06T10:23:51Z</time>
      </trkpt>
      <trkpt lat="49.09964" lon="5.95473">
        <ele>322.4</ele>
        <time>2011-11-06T10:23:52Z</time>
      </trkpt>
      <trkpt lat="49.09957" lon="5.95476">
        <ele>322</ele>
        <time>2011-11-06T10:23:53Z</time>
      </trkpt>
      <trkpt lat="49.09951" lon="5.95478">
        <ele>322.6</ele>
        <time>2011-11-06T10:23:54Z</time>
      </trkpt>
      <trkpt lat="49.09945" lon="5.95481">
        <ele>322.9</ele>
        <time>2011-11-06T10:23:55Z</time>
      </trkpt>
      <trkpt lat="49.09938" lon="5.95483">
        <ele>323.2</ele>
        <time>2011-11-06T10:23:56Z</time>
      </trkpt>
      <trkpt lat="49.09932" lon="5.95486">
        <ele>323.7</ele>
        <time>2011-11-06T10:23:57Z</time>
      </trkpt>
      <trkpt lat="49.09926" lon="5.95488">
        <ele>324.3</ele>
        <time>2011-11-06T10:23:58Z</time>
      </trkpt>
      <trkpt lat="49.0992" lon="5.9549">
        <ele>324.8</ele>
        <time>2011-11-06T10:23:59Z</time>
      </trkpt>
      <trkpt lat="49.09913" lon="5.95491">
        <ele>325.4</ele>
        <time>2011-11-06T10:24:00Z</time>
      </trkpt>
      <trkpt lat="49.09907" lon="5.95493">
        <ele>325.8</ele>
        <time>2011-11-06T10:24:01Z</time>
      </trkpt>
      <trkpt lat="49.09901" lon="5.95496">
        <ele>325.7</ele>
        <time>2011-11-06T10:24:02Z</time>
      </trkpt>
      <trkpt lat="49.09896" lon="5.95498">
        <ele>326.6</ele>
        <time>2011-11-06T10:24:03Z</time>
      </trkpt>
      <trkpt lat="49.0989" lon="5.95501">
        <ele>327</ele>
        <time>2011-11-06T10:24:04Z</time>
      </trkpt>
      <trkpt lat="49.09884" lon="5.95504">
        <ele>327.3</ele>
        <time>2011-11-06T10:24:05Z</time>
      </trkpt>
      <trkpt lat="49.09878" lon="5.95508">
        <ele>327.3</ele>
        <time>2011-11-06T10:24:06Z</time>
      </trkpt>
      <trkpt lat="49.09873" lon="5.95512">
        <ele>327.5</ele>
        <time>2011-11-06T10:24:07Z</time>
      </trkpt>
      <trkpt lat="49.09867" lon="5.95516">
        <ele>327.3</ele>
        <time>2011-11-06T10:24:08Z</time>
      </trkpt>
      <trkpt lat="49.09862" lon="5.9552">
        <ele>327.4</ele>
        <time>2011-11-06T10:24:09Z</time>
      </trkpt>
      <trkpt lat="49.09856" lon="5.95524">
        <ele>327</ele>
        <time>2011-11-06T10:24:10Z</time>
      </trkpt>
      <trkpt lat="49.09851" lon="5.95529">
        <ele>327</ele>
        <time>2011-11-06T10:24:11Z</time>
      </trkpt>
      <trkpt lat="49.09846" lon="5.95533">
        <ele>327</ele>
        <time>2011-11-06T10:24:12Z</time>
      </trkpt>
      <trkpt lat="49.09841" lon="5.95537">
        <ele>327</ele>
        <time>2011-11-06T10:24:13Z</time>
      </trkpt>
      <trkpt lat="49.09836" lon="5.95541">
        <ele>327</ele>
        <time>2011-11-06T10:24:14Z</time>
      </trkpt>
      <trkpt lat="49.0983" lon="5.95544">
        <ele>326.5</ele>
        <time>2011-11-06T10:24:15Z</time>
      </trkpt>
      <trkpt lat="49.09825" lon="5.95549">
        <ele>326.8</ele>
        <time>2011-11-06T10:24:16Z</time>
      </trkpt>
      <trkpt lat="49.0982" lon="5.95553">
        <ele>326.5</ele>
        <time>2011-11-06T10:24:17Z</time>
      </trkpt>
      <trkpt lat="49.09814" lon="5.95557">
        <ele>325.8</ele>
        <time>2011-11-06T10:24:18Z</time>
      </trkpt>
      <trkpt lat="49.09809" lon="5.95561">
        <ele>325.7</ele>
        <time>2011-11-06T10:24:19Z</time>
      </trkpt>
      <trkpt lat="49.09803" lon="5.95566">
        <ele>325.4</ele>
        <time>2011-11-06T10:24:20Z</time>
      </trkpt>
      <trkpt lat="49.09797" lon="5.9557">
        <ele>325.4</ele>
        <time>2011-11-06T10:24:21Z</time>
      </trkpt>
      <trkpt lat="49.09792" lon="5.95575">
        <ele>325.5</ele>
        <time>2011-11-06T10:24:22Z</time>
      </trkpt>
      <trkpt lat="49.09785" lon="5.9558">
        <ele>325.2</ele>
        <time>2011-11-06T10:24:23Z</time>
      </trkpt>
      <trkpt lat="49.09779" lon="5.95584">
        <ele>324.8</ele>
        <time>2011-11-06T10:24:24Z</time>
      </trkpt>
      <trkpt lat="49.09772" lon="5.95588">
        <ele>324.4</ele>
        <time>2011-11-06T10:24:25Z</time>
      </trkpt>
      <trkpt lat="49.09765" lon="5.95593">
        <ele>323.6</ele>
        <time>2011-11-06T10:24:26Z</time>
      </trkpt>
      <trkpt lat="49.09758" lon="5.95598">
        <ele>322.9</ele>
        <time>2011-11-06T10:24:27Z</time>
      </trkpt>
      <trkpt lat="49.09751" lon="5.95603">
        <ele>322.6</ele>
        <time>2011-11-06T10:24:28Z</time>
      </trkpt>
      <trkpt lat="49.09744" lon="5.95608">
        <ele>322.3</ele>
        <time>2011-11-06T10:24:29Z</time>
      </trkpt>
      <trkpt lat="49.09737" lon="5.95613">
        <ele>322.2</ele>
        <time>2011-11-06T10:24:30Z</time>
      </trkpt>
      <trkpt lat="49.0973" lon="5.95618">
        <ele>322.4</ele>
        <time>2011-11-06T10:24:31Z</time>
      </trkpt>
      <trkpt lat="49.09723" lon="5.95623">
        <ele>321.7</ele>
        <time>2011-11-06T10:24:32Z</time>
      </trkpt>
      <trkpt lat="49.09716" lon="5.95628">
        <ele>321.3</ele>
        <time>2011-11-06T10:24:33Z</time>
      </trkpt>
      <trkpt lat="49.09708" lon="5.95634">
        <ele>320.7</ele>
        <time>2011-11-06T10:24:34Z</time>
      </trkpt>
      <trkpt lat="49.09701" lon="5.95639">
        <ele>320.5</ele>
        <time>2011-11-06T10:24:35Z</time>
      </trkpt>
      <trkpt lat="49.09694" lon="5.95644">
        <ele>320.3</ele>
        <time>2011-11-06T10:24:36Z</time>
      </trkpt>
      <trkpt lat="49.09688" lon="5.95649">
        <ele>319.6</ele>
        <time>2011-11-06T10:24:37Z</time>
      </trkpt>
      <trkpt lat="49.09682" lon="5.95654">
        <ele>319.1</ele>
        <time>2011-11-06T10:24:38Z</time>
      </trkpt>
      <trkpt lat="49.09675" lon="5.95658">
        <ele>319.7</ele>
        <time>2011-11-06T10:24:39Z</time>
      </trkpt>
      <trkpt lat="49.09669" lon="5.95664">
        <ele>319.8</ele>
        <time>2011-11-06T10:24:40Z</time>
      </trkpt>
      <trkpt lat="49.09663" lon="5.95668">
        <ele>319.6</ele>
        <time>2011-11-06T10:24:41Z</time>
      </trkpt>
      <trkpt lat="49.09656" lon="5.95673">
        <ele>319.4</ele>
        <time>2011-11-06T10:24:42Z</time>
      </trkpt>
      <trkpt lat="49.09648" lon="5.95678">
        <ele>318.6</ele>
        <time>2011-11-06T10:24:43Z</time>
      </trkpt>
      <trkpt lat="49.09641" lon="5.95682">
        <ele>318</ele>
        <time>2011-11-06T10:24:44Z</time>
      </trkpt>
      <trkpt lat="49.09634" lon="5.95688">
        <ele>317.6</ele>
        <time>2011-11-06T10:24:45Z</time>
      </trkpt>
      <trkpt lat="49.09625" lon="5.95693">
        <ele>316.6</ele>
        <time>2011-11-06T10:24:46Z</time>
      </trkpt>
      <trkpt lat="49.09618" lon="5.95699">
        <ele>316.3</ele>
        <time>2011-11-06T10:24:47Z</time>
      </trkpt>
      <trkpt lat="49.09609" lon="5.95705">
        <ele>316</ele>
        <time>2011-11-06T10:24:48Z</time>
      </trkpt>
      <trkpt lat="49.09602" lon="5.9571">
        <ele>315.9</ele>
        <time>2011-11-06T10:24:49Z</time>
      </trkpt>
      <trkpt lat="49.09594" lon="5.95714">
        <ele>315.6</ele>
        <time>2011-11-06T10:24:50Z</time>
      </trkpt>
      <trkpt lat="49.09587" lon="5.95719">
        <ele>315.6</ele>
        <time>2011-11-06T10:24:51Z</time>
      </trkpt>
      <trkpt lat="49.09579" lon="5.95723">
        <ele>315.6</ele>
        <time>2011-11-06T10:24:52Z</time>
      </trkpt>
      <trkpt lat="49.09572" lon="5.95727">
        <ele>316</ele>
        <time>2011-11-06T10:24:53Z</time>
      </trkpt>
      <trkpt lat="49.09566" lon="5.95732">
        <ele>316</ele>
        <time>2011-11-06T10:24:54Z</time>
      </trkpt>
      <trkpt lat="49.09559" lon="5.95736">
        <ele>316</ele>
        <time>2011-11-06T10:24:55Z</time>
      </trkpt>
      <trkpt lat="49.09552" lon="5.95741">
        <ele>316.8</ele>
        <time>2011-11-06T10:24:56Z</time>
      </trkpt>
      <trkpt lat="49.09546" lon="5.95745">
        <ele>317.1</ele>
        <time>2011-11-06T10:24:57Z</time>
      </trkpt>
      <trkpt lat="49.0954" lon="5.95749">
        <ele>317.9</ele>
        <time>2011-11-06T10:24:58Z</time>
      </trkpt>
      <trkpt lat="49.09534" lon="5.95754">
        <ele>318.3</ele>
        <time>2011-11-06T10:24:59Z</time>
      </trkpt>
      <trkpt lat="49.09528" lon="5.95758">
        <ele>319.2</ele>
        <time>2011-11-06T10:25:00Z</time>
      </trkpt>
      <trkpt lat="49.09522" lon="5.95763">
        <ele>320.1</ele>
        <time>2011-11-06T10:25:01Z</time>
      </trkpt>
      <trkpt lat="49.09515" lon="5.95767">
        <ele>320.8</ele>
        <time>2011-11-06T10:25:02Z</time>
      </trkpt>
      <trkpt lat="49.09509" lon="5.95772">
        <ele>320.9</ele>
        <time>2011-11-06T10:25:03Z</time>
      </trkpt>
      <trkpt lat="49.09502" lon="5.95776">
        <ele>321.5</ele>
        <time>2011-11-06T10:25:04Z</time>
      </trkpt>
      <trkpt lat="49.09496" lon="5.95779">
        <ele>322.3</ele>
        <time>2011-11-06T10:25:05Z</time>
      </trkpt>
      <trkpt lat="49.09491" lon="5.95783">
        <ele>322.3</ele>
        <time>2011-11-06T10:25:06Z</time>
      </trkpt>
      <trkpt lat="49.09486" lon="5.95787">
        <ele>322.9</ele>
        <time>2011-11-06T10:25:07Z</time>
      </trkpt>
      <trkpt lat="49.09481" lon="5.9579">
        <ele>323.4</ele>
        <time>2011-11-06T10:25:08Z</time>
      </trkpt>
      <trkpt lat="49.09475" lon="5.95793">
        <ele>323.3</ele>
        <time>2011-11-06T10:25:09Z</time>
      </trkpt>
      <trkpt lat="49.0947" lon="5.95796">
        <ele>323.6</ele>
        <time>2011-11-06T10:25:10Z</time>
      </trkpt>
      <trkpt lat="49.09466" lon="5.95799">
        <ele>323.4</ele>
        <time>2011-11-06T10:25:11Z</time>
      </trkpt>
      <trkpt lat="49.09461" lon="5.958">
        <ele>323.4</ele>
        <time>2011-11-06T10:25:12Z</time>
      </trkpt>
      <trkpt lat="49.09453" lon="5.95803">
        <ele>323</ele>
        <time>2011-11-06T10:25:14Z</time>
      </trkpt>
      <trkpt lat="49.09446" lon="5.95803">
        <ele>323</ele>
        <time>2011-11-06T10:25:16Z</time>
      </trkpt>
      <trkpt lat="49.09441" lon="5.95802">
        <ele>323.9</ele>
        <time>2011-11-06T10:25:19Z</time>
      </trkpt>
      <trkpt lat="49.09436" lon="5.95803">
        <ele>324.9</ele>
        <time>2011-11-06T10:25:21Z</time>
      </trkpt>
      <trkpt lat="49.09434" lon="5.9581">
        <ele>325.4</ele>
        <time>2011-11-06T10:25:23Z</time>
      </trkpt>
      <trkpt lat="49.09434" lon="5.95818">
        <ele>325.7</ele>
        <time>2011-11-06T10:25:25Z</time>
      </trkpt>
      <trkpt lat="49.09434" lon="5.95826">
        <ele>326.2</ele>
        <time>2011-11-06T10:25:28Z</time>
      </trkpt>
      <trkpt lat="49.09435" lon="5.95834">
        <ele>325.7</ele>
        <time>2011-11-06T10:25:30Z</time>
      </trkpt>
      <trkpt lat="49.09436" lon="5.95844">
        <ele>326.8</ele>
        <time>2011-11-06T10:25:32Z</time>
      </trkpt>
      <trkpt lat="49.09438" lon="5.95857">
        <ele>327.8</ele>
        <time>2011-11-06T10:25:34Z</time>
      </trkpt>
      <trkpt lat="49.09438" lon="5.95864">
        <ele>328</ele>
        <time>2011-11-06T10:25:35Z</time>
      </trkpt>
      <trkpt lat="49.09439" lon="5.95872">
        <ele>328.7</ele>
        <time>2011-11-06T10:25:36Z</time>
      </trkpt>
      <trkpt lat="49.0944" lon="5.9588">
        <ele>329</ele>
        <time>2011-11-06T10:25:37Z</time>
      </trkpt>
      <trkpt lat="49.09441" lon="5.95887">
        <ele>329.1</ele>
        <time>2011-11-06T10:25:38Z</time>
      </trkpt>
      <trkpt lat="49.09442" lon="5.95894">
        <ele>328.5</ele>
        <time>2011-11-06T10:25:39Z</time>
      </trkpt>
      <trkpt lat="49.09442" lon="5.95902">
        <ele>327.2</ele>
        <time>2011-11-06T10:25:40Z</time>
      </trkpt>
      <trkpt lat="49.09443" lon="5.95909">
        <ele>326.5</ele>
        <time>2011-11-06T10:25:41Z</time>
      </trkpt>
      <trkpt lat="49.09444" lon="5.95916">
        <ele>325.4</ele>
        <time>2011-11-06T10:25:42Z</time>
      </trkpt>
      <trkpt lat="49.09444" lon="5.95924">
        <ele>324.9</ele>
        <time>2011-11-06T10:25:43Z</time>
      </trkpt>
      <trkpt lat="49.09445" lon="5.95932">
        <ele>325.5</ele>
        <time>2011-11-06T10:25:44Z</time>
      </trkpt>
      <trkpt lat="49.09446" lon="5.9594">
        <ele>326</ele>
        <time>2011-11-06T10:25:45Z</time>
      </trkpt>
      <trkpt lat="49.09447" lon="5.95948">
        <ele>325.8</ele>
        <time>2011-11-06T10:25:46Z</time>
      </trkpt>
      <trkpt lat="49.09447" lon="5.95955">
        <ele>325.6</ele>
        <time>2011-11-06T10:25:47Z</time>
      </trkpt>
      <trkpt lat="49.09448" lon="5.95963">
        <ele>325.7</ele>
        <time>2011-11-06T10:25:48Z</time>
      </trkpt>
      <trkpt lat="49.09449" lon="5.95972">
        <ele>325.4</ele>
        <time>2011-11-06T10:25:49Z</time>
      </trkpt>
      <trkpt lat="49.0945" lon="5.9598">
        <ele>324.6</ele>
        <time>2011-11-06T10:25:50Z</time>
      </trkpt>
      <trkpt lat="49.0945" lon="5.95989">
        <ele>324.5</ele>
        <time>2011-11-06T10:25:51Z</time>
      </trkpt>
      <trkpt lat="49.09451" lon="5.95998">
        <ele>324.2</ele>
        <time>2011-11-06T10:25:52Z</time>
      </trkpt>
      <trkpt lat="49.09452" lon="5.96006">
        <ele>324.2</ele>
        <time>2011-11-06T10:25:53Z</time>
      </trkpt>
      <trkpt lat="49.09454" lon="5.96014">
        <ele>323.8</ele>
        <time>2011-11-06T10:25:54Z</time>
      </trkpt>
      <trkpt lat="49.09454" lon="5.96023">
        <ele>323.5</ele>
        <time>2011-11-06T10:25:55Z</time>
      </trkpt>
      <trkpt lat="49.09455" lon="5.96032">
        <ele>323.7</ele>
        <time>2011-11-06T10:25:56Z</time>
      </trkpt>
      <trkpt lat="49.09456" lon="5.9604">
        <ele>324</ele>
        <time>2011-11-06T10:25:57Z</time>
      </trkpt>
      <trkpt lat="49.09456" lon="5.96048">
        <ele>324.1</ele>
        <time>2011-11-06T10:25:58Z</time>
      </trkpt>
      <trkpt lat="49.09457" lon="5.96057">
        <ele>324.4</ele>
        <time>2011-11-06T10:25:59Z</time>
      </trkpt>
      <trkpt lat="49.09458" lon="5.96065">
        <ele>324.4</ele>
        <time>2011-11-06T10:26:00Z</time>
      </trkpt>
      <trkpt lat="49.09458" lon="5.96075">
        <ele>324.6</ele>
        <time>2011-11-06T10:26:01Z</time>
      </trkpt>
      <trkpt lat="49.09459" lon="5.96085">
        <ele>325.2</ele>
        <time>2011-11-06T10:26:02Z</time>
      </trkpt>
      <trkpt lat="49.0946" lon="5.96095">
        <ele>325.4</ele>
        <time>2011-11-06T10:26:03Z</time>
      </trkpt>
      <trkpt lat="49.09462" lon="5.96105">
        <ele>325.8</ele>
        <time>2011-11-06T10:26:04Z</time>
      </trkpt>
      <trkpt lat="49.09463" lon="5.96115">
        <ele>326.2</ele>
        <time>2011-11-06T10:26:05Z</time>
      </trkpt>
      <trkpt lat="49.09463" lon="5.96124">
        <ele>327</ele>
        <time>2011-11-06T10:26:06Z</time>
      </trkpt>
      <trkpt lat="49.09464" lon="5.96132">
        <ele>327.8</ele>
        <time>2011-11-06T10:26:07Z</time>
      </trkpt>
      <trkpt lat="49.09465" lon="5.96141">
        <ele>328.2</ele>
        <time>2011-11-06T10:26:08Z</time>
      </trkpt>
      <trkpt lat="49.09465" lon="5.9615">
        <ele>328.3</ele>
        <time>2011-11-06T10:26:09Z</time>
      </trkpt>
      <trkpt lat="49.09466" lon="5.96159">
        <ele>327.8</ele>
        <time>2011-11-06T10:26:10Z</time>
      </trkpt>
      <trkpt lat="49.09467" lon="5.96168">
        <ele>328.2</ele>
        <time>2011-11-06T10:26:11Z</time>
      </trkpt>
      <trkpt lat="49.09467" lon="5.96178">
        <ele>327.5</ele>
        <time>2011-11-06T10:26:12Z</time>
      </trkpt>
      <trkpt lat="49.09468" lon="5.96189">
        <ele>326.7</ele>
        <time>2011-11-06T10:26:13Z</time>
      </trkpt>
      <trkpt lat="49.09468" lon="5.96199">
        <ele>327.1</ele>
        <time>2011-11-06T10:26:14Z</time>
      </trkpt>
      <trkpt lat="49.09469" lon="5.96208">
        <ele>327.1</ele>
        <time>2011-11-06T10:26:15Z</time>
      </trkpt>
      <trkpt lat="49.0947" lon="5.96218">
        <ele>327.3</ele>
        <time>2011-11-06T10:26:16Z</time>
      </trkpt>
      <trkpt lat="49.09471" lon="5.96226">
        <ele>327.9</ele>
        <time>2011-11-06T10:26:17Z</time>
      </trkpt>
      <trkpt lat="49.09472" lon="5.96236">
        <ele>328</ele>
        <time>2011-11-06T10:26:18Z</time>
      </trkpt>
      <trkpt lat="49.09472" lon="5.96246">
        <ele>327.7</ele>
        <time>2011-11-06T10:26:19Z</time>
      </trkpt>
      <trkpt lat="49.09472" lon="5.96255">
        <ele>327.6</ele>
        <time>2011-11-06T10:26:20Z</time>
      </trkpt>
      <trkpt lat="49.09473" lon="5.96264">
        <ele>327.9</ele>
        <time>2011-11-06T10:26:21Z</time>
      </trkpt>
      <trkpt lat="49.09473" lon="5.96274">
        <ele>327.4</ele>
        <time>2011-11-06T10:26:22Z</time>
      </trkpt>
      <trkpt lat="49.09474" lon="5.96284">
        <ele>327.6</ele>
        <time>2011-11-06T10:26:23Z</time>
      </trkpt>
      <trkpt lat="49.09475" lon="5.96294">
        <ele>327.3</ele>
        <time>2011-11-06T10:26:24Z</time>
      </trkpt>
      <trkpt lat="49.09476" lon="5.96304">
        <ele>326.8</ele>
        <time>2011-11-06T10:26:25Z</time>
      </trkpt>
      <trkpt lat="49.09476" lon="5.96314">
        <ele>326.9</ele>
        <time>2011-11-06T10:26:26Z</time>
      </trkpt>
      <trkpt lat="49.09477" lon="5.96324">
        <ele>326.6</ele>
        <time>2011-11-06T10:26:27Z</time>
      </trkpt>
      <trkpt lat="49.09478" lon="5.96332">
        <ele>326.6</ele>
        <time>2011-11-06T10:26:28Z</time>
      </trkpt>
      <trkpt lat="49.0948" lon="5.96343">
        <ele>326.5</ele>
        <time>2011-11-06T10:26:29Z</time>
      </trkpt>
      <trkpt lat="49.09481" lon="5.96353">
        <ele>326</ele>
        <time>2011-11-06T10:26:30Z</time>
      </trkpt>
      <trkpt lat="49.09482" lon="5.96365">
        <ele>324.2</ele>
        <time>2011-11-06T10:26:31Z</time>
      </trkpt>
      <trkpt lat="49.09483" lon="5.96375">
        <ele>324.4</ele>
        <time>2011-11-06T10:26:32Z</time>
      </trkpt>
      <trkpt lat="49.09483" lon="5.96384">
        <ele>325.3</ele>
        <time>2011-11-06T10:26:33Z</time>
      </trkpt>
      <trkpt lat="49.09484" lon="5.96393">
        <ele>326.2</ele>
        <time>2011-11-06T10:26:34Z</time>
      </trkpt>
      <trkpt lat="49.09486" lon="5.96404">
        <ele>326.1</ele>
        <time>2011-11-06T10:26:35Z</time>
      </trkpt>
      <trkpt lat="49.09486" lon="5.96413">
        <ele>326.1</ele>
        <time>2011-11-06T10:26:36Z</time>
      </trkpt>
      <trkpt lat="49.09487" lon="5.96423">
        <ele>326</ele>
        <time>2011-11-06T10:26:37Z</time>
      </trkpt>
      <trkpt lat="49.09489" lon="5.96432">
        <ele>326</ele>
        <time>2011-11-06T10:26:38Z</time>
      </trkpt>
      <trkpt lat="49.0949" lon="5.9644">
        <ele>326.1</ele>
        <time>2011-11-06T10:26:39Z</time>
      </trkpt>
      <trkpt lat="49.09491" lon="5.96453">
        <ele>325.7</ele>
        <time>2011-11-06T10:26:40Z</time>
      </trkpt>
      <trkpt lat="49.09492" lon="5.96464">
        <ele>326</ele>
        <time>2011-11-06T10:26:41Z</time>
      </trkpt>
      <trkpt lat="49.09492" lon="5.96476">
        <ele>326.2</ele>
        <time>2011-11-06T10:26:42Z</time>
      </trkpt>
      <trkpt lat="49.09493" lon="5.96485">
        <ele>326.3</ele>
        <time>2011-11-06T10:26:43Z</time>
      </trkpt>
      <trkpt lat="49.09494" lon="5.96498">
        <ele>325.7</ele>
        <time>2011-11-06T10:26:44Z</time>
      </trkpt>
      <trkpt lat="49.09494" lon="5.96509">
        <ele>325.8</ele>
        <time>2011-11-06T10:26:45Z</time>
      </trkpt>
      <trkpt lat="49.09495" lon="5.9652">
        <ele>325.7</ele>
        <time>2011-11-06T10:26:46Z</time>
      </trkpt>
      <trkpt lat="49.09496" lon="5.96533">
        <ele>325.6</ele>
        <time>2011-11-06T10:26:47Z</time>
      </trkpt>
      <trkpt lat="49.09497" lon="5.96544">
        <ele>325.9</ele>
        <time>2011-11-06T10:26:48Z</time>
      </trkpt>
      <trkpt lat="49.09498" lon="5.96555">
        <ele>326.6</ele>
        <time>2011-11-06T10:26:49Z</time>
      </trkpt>
      <trkpt lat="49.09499" lon="5.96565">
        <ele>326.6</ele>
        <time>2011-11-06T10:26:50Z</time>
      </trkpt>
      <trkpt lat="49.09501" lon="5.96576">
        <ele>327</ele>
        <time>2011-11-06T10:26:51Z</time>
      </trkpt>
      <trkpt lat="49.09501" lon="5.96588">
        <ele>326.7</ele>
        <time>2011-11-06T10:26:52Z</time>
      </trkpt>
      <trkpt lat="49.09502" lon="5.96599">
        <ele>326.9</ele>
        <time>2011-11-06T10:26:53Z</time>
      </trkpt>
      <trkpt lat="49.09503" lon="5.9661">
        <ele>327</ele>
        <time>2011-11-06T10:26:54Z</time>
      </trkpt>
      <trkpt lat="49.09504" lon="5.96622">
        <ele>327.3</ele>
        <time>2011-11-06T10:26:55Z</time>
      </trkpt>
      <trkpt lat="49.09505" lon="5.96631">
        <ele>327.7</ele>
        <time>2011-11-06T10:26:56Z</time>
      </trkpt>
      <trkpt lat="49.09506" lon="5.96645">
        <ele>328.1</ele>
        <time>2011-11-06T10:26:57Z</time>
      </trkpt>
      <trkpt lat="49.09507" lon="5.96656">
        <ele>328.6</ele>
        <time>2011-11-06T10:26:58Z</time>
      </trkpt>
      <trkpt lat="49.09509" lon="5.96667">
        <ele>328.9</ele>
        <time>2011-11-06T10:26:59Z</time>
      </trkpt>
      <trkpt lat="49.0951" lon="5.96679">
        <ele>329</ele>
        <time>2011-11-06T10:27:00Z</time>
      </trkpt>
      <trkpt lat="49.09511" lon="5.96691">
        <ele>329.4</ele>
        <time>2011-11-06T10:27:01Z</time>
      </trkpt>
      <trkpt lat="49.09512" lon="5.96703">
        <ele>329.4</ele>
        <time>2011-11-06T10:27:02Z</time>
      </trkpt>
      <trkpt lat="49.09512" lon="5.96715">
        <ele>329.7</ele>
        <time>2011-11-06T10:27:03Z</time>
      </trkpt>
      <trkpt lat="49.09513" lon="5.96728">
        <ele>329.9</ele>
        <time>2011-11-06T10:27:04Z</time>
      </trkpt>
      <trkpt lat="49.09514" lon="5.9674">
        <ele>329.2</ele>
        <time>2011-11-06T10:27:05Z</time>
      </trkpt>
      <trkpt lat="49.09516" lon="5.96754">
        <ele>327.9</ele>
        <time>2011-11-06T10:27:06Z</time>
      </trkpt>
      <trkpt lat="49.09516" lon="5.96765">
        <ele>328.2</ele>
        <time>2011-11-06T10:27:07Z</time>
      </trkpt>
      <trkpt lat="49.09517" lon="5.96776">
        <ele>328.5</ele>
        <time>2011-11-06T10:27:08Z</time>
      </trkpt>
      <trkpt lat="49.09518" lon="5.96786">
        <ele>328.7</ele>
        <time>2011-11-06T10:27:09Z</time>
      </trkpt>
      <trkpt lat="49.0952" lon="5.968">
        <ele>327.3</ele>
        <time>2011-11-06T10:27:10Z</time>
      </trkpt>
      <trkpt lat="49.0952" lon="5.96812">
        <ele>326</ele>
        <time>2011-11-06T10:27:11Z</time>
      </trkpt>
      <trkpt lat="49.09521" lon="5.96823">
        <ele>325.9</ele>
        <time>2011-11-06T10:27:12Z</time>
      </trkpt>
      <trkpt lat="49.09522" lon="5.96836">
        <ele>326.6</ele>
        <time>2011-11-06T10:27:13Z</time>
      </trkpt>
      <trkpt lat="49.09524" lon="5.96848">
        <ele>326.9</ele>
        <time>2011-11-06T10:27:14Z</time>
      </trkpt>
      <trkpt lat="49.09524" lon="5.9686">
        <ele>326.8</ele>
        <time>2011-11-06T10:27:15Z</time>
      </trkpt>
      <trkpt lat="49.09525" lon="5.96871">
        <ele>326.5</ele>
        <time>2011-11-06T10:27:16Z</time>
      </trkpt>
      <trkpt lat="49.09526" lon="5.96882">
        <ele>326.1</ele>
        <time>2011-11-06T10:27:17Z</time>
      </trkpt>
      <trkpt lat="49.09527" lon="5.96893">
        <ele>325.3</ele>
        <time>2011-11-06T10:27:18Z</time>
      </trkpt>
      <trkpt lat="49.09528" lon="5.96905">
        <ele>324.7</ele>
        <time>2011-11-06T10:27:19Z</time>
      </trkpt>
      <trkpt lat="49.09529" lon="5.96917">
        <ele>325.1</ele>
        <time>2011-11-06T10:27:20Z</time>
      </trkpt>
      <trkpt lat="49.09529" lon="5.96929">
        <ele>325.4</ele>
        <time>2011-11-06T10:27:21Z</time>
      </trkpt>
      <trkpt lat="49.0953" lon="5.96942">
        <ele>325.6</ele>
        <time>2011-11-06T10:27:22Z</time>
      </trkpt>
      <trkpt lat="49.09531" lon="5.96953">
        <ele>326.4</ele>
        <time>2011-11-06T10:27:23Z</time>
      </trkpt>
      <trkpt lat="49.09531" lon="5.96965">
        <ele>326.6</ele>
        <time>2011-11-06T10:27:24Z</time>
      </trkpt>
      <trkpt lat="49.09532" lon="5.96978">
        <ele>327</ele>
        <time>2011-11-06T10:27:25Z</time>
      </trkpt>
      <trkpt lat="49.09533" lon="5.96991">
        <ele>326.6</ele>
        <time>2011-11-06T10:27:26Z</time>
      </trkpt>
      <trkpt lat="49.09535" lon="5.97003">
        <ele>326.9</ele>
        <time>2011-11-06T10:27:27Z</time>
      </trkpt>
      <trkpt lat="49.09535" lon="5.97014">
        <ele>327.6</ele>
        <time>2011-11-06T10:27:28Z</time>
      </trkpt>
      <trkpt lat="49.09537" lon="5.97026">
        <ele>327.4</ele>
        <time>2011-11-06T10:27:29Z</time>
      </trkpt>
      <trkpt lat="49.09538" lon="5.97036">
        <ele>327.4</ele>
        <time>2011-11-06T10:27:30Z</time>
      </trkpt>
      <trkpt lat="49.09539" lon="5.97046">
        <ele>327.8</ele>
        <time>2011-11-06T10:27:31Z</time>
      </trkpt>
      <trkpt lat="49.09539" lon="5.97058">
        <ele>327.4</ele>
        <time>2011-11-06T10:27:32Z</time>
      </trkpt>
      <trkpt lat="49.0954" lon="5.97068">
        <ele>328.1</ele>
        <time>2011-11-06T10:27:33Z</time>
      </trkpt>
      <trkpt lat="49.09541" lon="5.97079">
        <ele>328.1</ele>
        <time>2011-11-06T10:27:34Z</time>
      </trkpt>
      <trkpt lat="49.09543" lon="5.9709">
        <ele>328.4</ele>
        <time>2011-11-06T10:27:35Z</time>
      </trkpt>
      <trkpt lat="49.09543" lon="5.97099">
        <ele>329</ele>
        <time>2011-11-06T10:27:36Z</time>
      </trkpt>
      <trkpt lat="49.09544" lon="5.97109">
        <ele>329.5</ele>
        <time>2011-11-06T10:27:37Z</time>
      </trkpt>
      <trkpt lat="49.09544" lon="5.97118">
        <ele>329.7</ele>
        <time>2011-11-06T10:27:38Z</time>
      </trkpt>
      <trkpt lat="49.09544" lon="5.97128">
        <ele>329.2</ele>
        <time>2011-11-06T10:27:39Z</time>
      </trkpt>
      <trkpt lat="49.09546" lon="5.97138">
        <ele>329.7</ele>
        <time>2011-11-06T10:27:40Z</time>
      </trkpt>
      <trkpt lat="49.09547" lon="5.97146">
        <ele>329.8</ele>
        <time>2011-11-06T10:27:41Z</time>
      </trkpt>
      <trkpt lat="49.09548" lon="5.97156">
        <ele>330.4</ele>
        <time>2011-11-06T10:27:42Z</time>
      </trkpt>
      <trkpt lat="49.09549" lon="5.97166">
        <ele>330.1</ele>
        <time>2011-11-06T10:27:43Z</time>
      </trkpt>
      <trkpt lat="49.0955" lon="5.97176">
        <ele>329.9</ele>
        <time>2011-11-06T10:27:44Z</time>
      </trkpt>
      <trkpt lat="49.09551" lon="5.97187">
        <ele>329.9</ele>
        <time>2011-11-06T10:27:45Z</time>
      </trkpt>
      <trkpt lat="49.09553" lon="5.97197">
        <ele>329.6</ele>
        <time>2011-11-06T10:27:46Z</time>
      </trkpt>
      <trkpt lat="49.09555" lon="5.97206">
        <ele>330.4</ele>
        <time>2011-11-06T10:27:47Z</time>
      </trkpt>
      <trkpt lat="49.09555" lon="5.97216">
        <ele>331</ele>
        <time>2011-11-06T10:27:48Z</time>
      </trkpt>
      <trkpt lat="49.09556" lon="5.97224">
        <ele>331.2</ele>
        <time>2011-11-06T10:27:49Z</time>
      </trkpt>
      <trkpt lat="49.09556" lon="5.97234">
        <ele>330.9</ele>
        <time>2011-11-06T10:27:50Z</time>
      </trkpt>
      <trkpt lat="49.09558" lon="5.97243">
        <ele>332.2</ele>
        <time>2011-11-06T10:27:51Z</time>
      </trkpt>
      <trkpt lat="49.09558" lon="5.97251">
        <ele>333.5</ele>
        <time>2011-11-06T10:27:52Z</time>
      </trkpt>
      <trkpt lat="49.0956" lon="5.97259">
        <ele>334.1</ele>
        <time>2011-11-06T10:27:53Z</time>
      </trkpt>
      <trkpt lat="49.09561" lon="5.97269">
        <ele>334.8</ele>
        <time>2011-11-06T10:27:54Z</time>
      </trkpt>
      <trkpt lat="49.09562" lon="5.97278">
        <ele>335.7</ele>
        <time>2011-11-06T10:27:55Z</time>
      </trkpt>
      <trkpt lat="49.09564" lon="5.97287">
        <ele>336.8</ele>
        <time>2011-11-06T10:27:56Z</time>
      </trkpt>
      <trkpt lat="49.09564" lon="5.97297">
        <ele>335.8</ele>
        <time>2011-11-06T10:27:57Z</time>
      </trkpt>
      <trkpt lat="49.09566" lon="5.97307">
        <ele>335.4</ele>
        <time>2011-11-06T10:27:58Z</time>
      </trkpt>
      <trkpt lat="49.09567" lon="5.97318">
        <ele>335.1</ele>
        <time>2011-11-06T10:27:59Z</time>
      </trkpt>
      <trkpt lat="49.09568" lon="5.97328">
        <ele>334.8</ele>
        <time>2011-11-06T10:28:00Z</time>
      </trkpt>
      <trkpt lat="49.09568" lon="5.97337">
        <ele>334.8</ele>
        <time>2011-11-06T10:28:01Z</time>
      </trkpt>
      <trkpt lat="49.09568" lon="5.97346">
        <ele>334.5</ele>
        <time>2011-11-06T10:28:02Z</time>
      </trkpt>
      <trkpt lat="49.09569" lon="5.97354">
        <ele>334.6</ele>
        <time>2011-11-06T10:28:03Z</time>
      </trkpt>
      <trkpt lat="49.0957" lon="5.97363">
        <ele>334.6</ele>
        <time>2011-11-06T10:28:04Z</time>
      </trkpt>
      <trkpt lat="49.09572" lon="5.97374">
        <ele>334.5</ele>
        <time>2011-11-06T10:28:05Z</time>
      </trkpt>
      <trkpt lat="49.09572" lon="5.97383">
        <ele>333.6</ele>
        <time>2011-11-06T10:28:06Z</time>
      </trkpt>
      <trkpt lat="49.09573" lon="5.97392">
        <ele>334.5</ele>
        <time>2011-11-06T10:28:07Z</time>
      </trkpt>
      <trkpt lat="49.09575" lon="5.97405">
        <ele>334</ele>
        <time>2011-11-06T10:28:08Z</time>
      </trkpt>
      <trkpt lat="49.09577" lon="5.97415">
        <ele>333.7</ele>
        <time>2011-11-06T10:28:09Z</time>
      </trkpt>
      <trkpt lat="49.09578" lon="5.97425">
        <ele>332.6</ele>
        <time>2011-11-06T10:28:10Z</time>
      </trkpt>
      <trkpt lat="49.09579" lon="5.97436">
        <ele>332.2</ele>
        <time>2011-11-06T10:28:11Z</time>
      </trkpt>
      <trkpt lat="49.0958" lon="5.97444">
        <ele>333.3</ele>
        <time>2011-11-06T10:28:12Z</time>
      </trkpt>
      <trkpt lat="49.0958" lon="5.97455">
        <ele>333.8</ele>
        <time>2011-11-06T10:28:13Z</time>
      </trkpt>
      <trkpt lat="49.09583" lon="5.97468">
        <ele>333.7</ele>
        <time>2011-11-06T10:28:14Z</time>
      </trkpt>
      <trkpt lat="49.09585" lon="5.97479">
        <ele>333.7</ele>
        <time>2011-11-06T10:28:15Z</time>
      </trkpt>
      <trkpt lat="49.09587" lon="5.9749">
        <ele>333.5</ele>
        <time>2011-11-06T10:28:16Z</time>
      </trkpt>
      <trkpt lat="49.09588" lon="5.97502">
        <ele>333.5</ele>
        <time>2011-11-06T10:28:17Z</time>
      </trkpt>
      <trkpt lat="49.0959" lon="5.97512">
        <ele>333.5</ele>
        <time>2011-11-06T10:28:18Z</time>
      </trkpt>
      <trkpt lat="49.09592" lon="5.97523">
        <ele>332.9</ele>
        <time>2011-11-06T10:28:19Z</time>
      </trkpt>
      <trkpt lat="49.09593" lon="5.97533">
        <ele>332.6</ele>
        <time>2011-11-06T10:28:20Z</time>
      </trkpt>
      <trkpt lat="49.09595" lon="5.97544">
        <ele>332.7</ele>
        <time>2011-11-06T10:28:21Z</time>
      </trkpt>
      <trkpt lat="49.09596" lon="5.97555">
        <ele>332.5</ele>
        <time>2011-11-06T10:28:22Z</time>
      </trkpt>
      <trkpt lat="49.09597" lon="5.97565">
        <ele>333.5</ele>
        <time>2011-11-06T10:28:23Z</time>
      </trkpt>
      <trkpt lat="49.09598" lon="5.97576">
        <ele>333.7</ele>
        <time>2011-11-06T10:28:24Z</time>
      </trkpt>
      <trkpt lat="49.09599" lon="5.97586">
        <ele>333.9</ele>
        <time>2011-11-06T10:28:25Z</time>
      </trkpt>
      <trkpt lat="49.096" lon="5.97596">
        <ele>333.6</ele>
        <time>2011-11-06T10:28:26Z</time>
      </trkpt>
      <trkpt lat="49.09602" lon="5.97607">
        <ele>332.9</ele>
        <time>2011-11-06T10:28:27Z</time>
      </trkpt>
      <trkpt lat="49.09604" lon="5.97617">
        <ele>332.3</ele>
        <time>2011-11-06T10:28:28Z</time>
      </trkpt>
      <trkpt lat="49.09605" lon="5.97627">
        <ele>332.7</ele>
        <time>2011-11-06T10:28:29Z</time>
      </trkpt>
      <trkpt lat="49.09606" lon="5.97636">
        <ele>332.5</ele>
        <time>2011-11-06T10:28:30Z</time>
      </trkpt>
      <trkpt lat="49.09607" lon="5.97646">
        <ele>331.6</ele>
        <time>2011-11-06T10:28:31Z</time>
      </trkpt>
      <trkpt lat="49.09609" lon="5.97656">
        <ele>331</ele>
        <time>2011-11-06T10:28:32Z</time>
      </trkpt>
      <trkpt lat="49.09611" lon="5.97668">
        <ele>330.3</ele>
        <time>2011-11-06T10:28:33Z</time>
      </trkpt>
      <trkpt lat="49.09612" lon="5.97677">
        <ele>331.1</ele>
        <time>2011-11-06T10:28:34Z</time>
      </trkpt>
      <trkpt lat="49.09614" lon="5.97688">
        <ele>331.1</ele>
        <time>2011-11-06T10:28:35Z</time>
      </trkpt>
      <trkpt lat="49.09614" lon="5.97698">
        <ele>331.8</ele>
        <time>2011-11-06T10:28:36Z</time>
      </trkpt>
      <trkpt lat="49.09615" lon="5.97708">
        <ele>332.1</ele>
        <time>2011-11-06T10:28:37Z</time>
      </trkpt>
      <trkpt lat="49.09616" lon="5.97719">
        <ele>332.4</ele>
        <time>2011-11-06T10:28:38Z</time>
      </trkpt>
      <trkpt lat="49.09617" lon="5.9773">
        <ele>332.3</ele>
        <time>2011-11-06T10:28:39Z</time>
      </trkpt>
      <trkpt lat="49.09618" lon="5.9774">
        <ele>332.4</ele>
        <time>2011-11-06T10:28:40Z</time>
      </trkpt>
      <trkpt lat="49.09619" lon="5.9775">
        <ele>332.7</ele>
        <time>2011-11-06T10:28:41Z</time>
      </trkpt>
      <trkpt lat="49.0962" lon="5.9776">
        <ele>332.6</ele>
        <time>2011-11-06T10:28:42Z</time>
      </trkpt>
      <trkpt lat="49.09622" lon="5.9777">
        <ele>332.4</ele>
        <time>2011-11-06T10:28:43Z</time>
      </trkpt>
      <trkpt lat="49.09623" lon="5.97782">
        <ele>331.9</ele>
        <time>2011-11-06T10:28:44Z</time>
      </trkpt>
      <trkpt lat="49.09624" lon="5.97791">
        <ele>332.6</ele>
        <time>2011-11-06T10:28:45Z</time>
      </trkpt>
      <trkpt lat="49.09625" lon="5.97801">
        <ele>332.9</ele>
        <time>2011-11-06T10:28:46Z</time>
      </trkpt>
      <trkpt lat="49.09627" lon="5.97813">
        <ele>332.5</ele>
        <time>2011-11-06T10:28:47Z</time>
      </trkpt>
      <trkpt lat="49.09628" lon="5.97824">
        <ele>331.7</ele>
        <time>2011-11-06T10:28:48Z</time>
      </trkpt>
      <trkpt lat="49.09629" lon="5.97834">
        <ele>331.9</ele>
        <time>2011-11-06T10:28:49Z</time>
      </trkpt>
      <trkpt lat="49.0963" lon="5.97844">
        <ele>332.4</ele>
        <time>2011-11-06T10:28:50Z</time>
      </trkpt>
      <trkpt lat="49.09632" lon="5.97855">
        <ele>332.1</ele>
        <time>2011-11-06T10:28:51Z</time>
      </trkpt>
      <trkpt lat="49.09633" lon="5.97865">
        <ele>331.9</ele>
        <time>2011-11-06T10:28:52Z</time>
      </trkpt>
      <trkpt lat="49.09634" lon="5.97876">
        <ele>332</ele>
        <time>2011-11-06T10:28:53Z</time>
      </trkpt>
      <trkpt lat="49.09636" lon="5.97886">
        <ele>332.2</ele>
        <time>2011-11-06T10:28:54Z</time>
      </trkpt>
      <trkpt lat="49.09636" lon="5.97893">
        <ele>331</ele>
        <time>2011-11-06T10:28:55Z</time>
      </trkpt>
      <trkpt lat="49.09637" lon="5.97903">
        <ele>330.3</ele>
        <time>2011-11-06T10:28:57Z</time>
      </trkpt>
      <trkpt lat="49.0964" lon="5.97911">
        <ele>330.6</ele>
        <time>2011-11-06T10:28:57Z</time>
      </trkpt>
      <trkpt lat="49.09641" lon="5.97921">
        <ele>330.7</ele>
        <time>2011-11-06T10:28:58Z</time>
      </trkpt>
      <trkpt lat="49.09642" lon="5.9793">
        <ele>330.9</ele>
        <time>2011-11-06T10:28:59Z</time>
      </trkpt>
      <trkpt lat="49.09643" lon="5.97939">
        <ele>331.3</ele>
        <time>2011-11-06T10:29:00Z</time>
      </trkpt>
      <trkpt lat="49.09644" lon="5.9795">
        <ele>330.8</ele>
        <time>2011-11-06T10:29:01Z</time>
      </trkpt>
      <trkpt lat="49.09645" lon="5.9796">
        <ele>330.9</ele>
        <time>2011-11-06T10:29:02Z</time>
      </trkpt>
      <trkpt lat="49.09647" lon="5.9797">
        <ele>330.1</ele>
        <time>2011-11-06T10:29:03Z</time>
      </trkpt>
      <trkpt lat="49.09648" lon="5.97979">
        <ele>330.2</ele>
        <time>2011-11-06T10:29:04Z</time>
      </trkpt>
      <trkpt lat="49.0965" lon="5.97989">
        <ele>330.4</ele>
        <time>2011-11-06T10:29:05Z</time>
      </trkpt>
      <trkpt lat="49.09651" lon="5.98001">
        <ele>330</ele>
        <time>2011-11-06T10:29:06Z</time>
      </trkpt>
      <trkpt lat="49.09652" lon="5.9801">
        <ele>330.1</ele>
        <time>2011-11-06T10:29:07Z</time>
      </trkpt>
      <trkpt lat="49.09653" lon="5.98021">
        <ele>330.6</ele>
        <time>2011-11-06T10:29:08Z</time>
      </trkpt>
      <trkpt lat="49.09655" lon="5.9803">
        <ele>330.9</ele>
        <time>2011-11-06T10:29:09Z</time>
      </trkpt>
      <trkpt lat="49.09657" lon="5.9804">
        <ele>331.6</ele>
        <time>2011-11-06T10:29:10Z</time>
      </trkpt>
      <trkpt lat="49.09658" lon="5.9805">
        <ele>331.7</ele>
        <time>2011-11-06T10:29:11Z</time>
      </trkpt>
      <trkpt lat="49.09659" lon="5.9806">
        <ele>332.3</ele>
        <time>2011-11-06T10:29:12Z</time>
      </trkpt>
      <trkpt lat="49.0966" lon="5.9807">
        <ele>332.4</ele>
        <time>2011-11-06T10:29:13Z</time>
      </trkpt>
      <trkpt lat="49.09661" lon="5.9808">
        <ele>332.9</ele>
        <time>2011-11-06T10:29:14Z</time>
      </trkpt>
      <trkpt lat="49.09661" lon="5.9809">
        <ele>332.9</ele>
        <time>2011-11-06T10:29:15Z</time>
      </trkpt>
      <trkpt lat="49.09662" lon="5.981">
        <ele>333.1</ele>
        <time>2011-11-06T10:29:16Z</time>
      </trkpt>
      <trkpt lat="49.09664" lon="5.98111">
        <ele>332.8</ele>
        <time>2011-11-06T10:29:17Z</time>
      </trkpt>
      <trkpt lat="49.09665" lon="5.98122">
        <ele>333.4</ele>
        <time>2011-11-06T10:29:18Z</time>
      </trkpt>
      <trkpt lat="49.09666" lon="5.98132">
        <ele>332.9</ele>
        <time>2011-11-06T10:29:19Z</time>
      </trkpt>
      <trkpt lat="49.09667" lon="5.98143">
        <ele>332.5</ele>
        <time>2011-11-06T10:29:20Z</time>
      </trkpt>
      <trkpt lat="49.09668" lon="5.98153">
        <ele>332.6</ele>
        <time>2011-11-06T10:29:21Z</time>
      </trkpt>
      <trkpt lat="49.09669" lon="5.98164">
        <ele>332.5</ele>
        <time>2011-11-06T10:29:22Z</time>
      </trkpt>
      <trkpt lat="49.0967" lon="5.98173">
        <ele>332.4</ele>
        <time>2011-11-06T10:29:23Z</time>
      </trkpt>
      <trkpt lat="49.09671" lon="5.98182">
        <ele>332.4</ele>
        <time>2011-11-06T10:29:24Z</time>
      </trkpt>
      <trkpt lat="49.09672" lon="5.98192">
        <ele>332.6</ele>
        <time>2011-11-06T10:29:25Z</time>
      </trkpt>
      <trkpt lat="49.09673" lon="5.98202">
        <ele>332.7</ele>
        <time>2011-11-06T10:29:26Z</time>
      </trkpt>
      <trkpt lat="49.09674" lon="5.98212">
        <ele>333</ele>
        <time>2011-11-06T10:29:27Z</time>
      </trkpt>
      <trkpt lat="49.09675" lon="5.98221">
        <ele>333.7</ele>
        <time>2011-11-06T10:29:28Z</time>
      </trkpt>
      <trkpt lat="49.09676" lon="5.98231">
        <ele>333.5</ele>
        <time>2011-11-06T10:29:29Z</time>
      </trkpt>
      <trkpt lat="49.09677" lon="5.98241">
        <ele>333.3</ele>
        <time>2011-11-06T10:29:30Z</time>
      </trkpt>
      <trkpt lat="49.09678" lon="5.98251">
        <ele>333</ele>
        <time>2011-11-06T10:29:31Z</time>
      </trkpt>
      <trkpt lat="49.0968" lon="5.98261">
        <ele>333.2</ele>
        <time>2011-11-06T10:29:32Z</time>
      </trkpt>
      <trkpt lat="49.09681" lon="5.9827">
        <ele>333.5</ele>
        <time>2011-11-06T10:29:33Z</time>
      </trkpt>
      <trkpt lat="49.09683" lon="5.9828">
        <ele>333.8</ele>
        <time>2011-11-06T10:29:34Z</time>
      </trkpt>
      <trkpt lat="49.09684" lon="5.9829">
        <ele>333.7</ele>
        <time>2011-11-06T10:29:35Z</time>
      </trkpt>
      <trkpt lat="49.09685" lon="5.983">
        <ele>334.2</ele>
        <time>2011-11-06T10:29:36Z</time>
      </trkpt>
      <trkpt lat="49.09686" lon="5.98309">
        <ele>334.5</ele>
        <time>2011-11-06T10:29:37Z</time>
      </trkpt>
      <trkpt lat="49.09687" lon="5.98318">
        <ele>334.5</ele>
        <time>2011-11-06T10:29:38Z</time>
      </trkpt>
      <trkpt lat="49.09688" lon="5.98326">
        <ele>334.8</ele>
        <time>2011-11-06T10:29:39Z</time>
      </trkpt>
      <trkpt lat="49.09689" lon="5.98335">
        <ele>334.5</ele>
        <time>2011-11-06T10:29:40Z</time>
      </trkpt>
      <trkpt lat="49.0969" lon="5.98344">
        <ele>334.5</ele>
        <time>2011-11-06T10:29:41Z</time>
      </trkpt>
      <trkpt lat="49.09691" lon="5.98354">
        <ele>334.5</ele>
        <time>2011-11-06T10:29:42Z</time>
      </trkpt>
      <trkpt lat="49.09692" lon="5.98363">
        <ele>334.5</ele>
        <time>2011-11-06T10:29:43Z</time>
      </trkpt>
      <trkpt lat="49.09693" lon="5.98373">
        <ele>334.9</ele>
        <time>2011-11-06T10:29:44Z</time>
      </trkpt>
      <trkpt lat="49.09695" lon="5.98384">
        <ele>334.2</ele>
        <time>2011-11-06T10:29:45Z</time>
      </trkpt>
      <trkpt lat="49.09696" lon="5.98394">
        <ele>334</ele>
        <time>2011-11-06T10:29:46Z</time>
      </trkpt>
      <trkpt lat="49.09698" lon="5.98405">
        <ele>333.6</ele>
        <time>2011-11-06T10:29:47Z</time>
      </trkpt>
      <trkpt lat="49.09699" lon="5.98415">
        <ele>333.8</ele>
        <time>2011-11-06T10:29:48Z</time>
      </trkpt>
      <trkpt lat="49.09699" lon="5.98426">
        <ele>333.3</ele>
        <time>2011-11-06T10:29:49Z</time>
      </trkpt>
      <trkpt lat="49.097" lon="5.98437">
        <ele>333.6</ele>
        <time>2011-11-06T10:29:50Z</time>
      </trkpt>
      <trkpt lat="49.09702" lon="5.98446">
        <ele>333.6</ele>
        <time>2011-11-06T10:29:51Z</time>
      </trkpt>
      <trkpt lat="49.09702" lon="5.98454">
        <ele>333.9</ele>
        <time>2011-11-06T10:29:52Z</time>
      </trkpt>
      <trkpt lat="49.09703" lon="5.98463">
        <ele>334.8</ele>
        <time>2011-11-06T10:29:53Z</time>
      </trkpt>
      <trkpt lat="49.09704" lon="5.98474">
        <ele>335.6</ele>
        <time>2011-11-06T10:29:54Z</time>
      </trkpt>
      <trkpt lat="49.09703" lon="5.98485">
        <ele>335.5</ele>
        <time>2011-11-06T10:29:55Z</time>
      </trkpt>
      <trkpt lat="49.09704" lon="5.98495">
        <ele>335.5</ele>
        <time>2011-11-06T10:29:56Z</time>
      </trkpt>
      <trkpt lat="49.09705" lon="5.98507">
        <ele>335.8</ele>
        <time>2011-11-06T10:29:57Z</time>
      </trkpt>
      <trkpt lat="49.09706" lon="5.98516">
        <ele>335.7</ele>
        <time>2011-11-06T10:29:58Z</time>
      </trkpt>
      <trkpt lat="49.09708" lon="5.98527">
        <ele>336</ele>
        <time>2011-11-06T10:29:59Z</time>
      </trkpt>
      <trkpt lat="49.09708" lon="5.98537">
        <ele>336</ele>
        <time>2011-11-06T10:30:00Z</time>
      </trkpt>
      <trkpt lat="49.09706" lon="5.98548">
        <ele>336.4</ele>
        <time>2011-11-06T10:30:01Z</time>
      </trkpt>
      <trkpt lat="49.09706" lon="5.98558">
        <ele>336.6</ele>
        <time>2011-11-06T10:30:02Z</time>
      </trkpt>
      <trkpt lat="49.09707" lon="5.98568">
        <ele>336.3</ele>
        <time>2011-11-06T10:30:03Z</time>
      </trkpt>
      <trkpt lat="49.09708" lon="5.98579">
        <ele>336.3</ele>
        <time>2011-11-06T10:30:04Z</time>
      </trkpt>
      <trkpt lat="49.0971" lon="5.9859">
        <ele>335.4</ele>
        <time>2011-11-06T10:30:05Z</time>
      </trkpt>
      <trkpt lat="49.09711" lon="5.986">
        <ele>335.6</ele>
        <time>2011-11-06T10:30:06Z</time>
      </trkpt>
      <trkpt lat="49.09712" lon="5.9861">
        <ele>335.5</ele>
        <time>2011-11-06T10:30:07Z</time>
      </trkpt>
      <trkpt lat="49.09714" lon="5.98617">
        <ele>335.9</ele>
        <time>2011-11-06T10:30:08Z</time>
      </trkpt>
      <trkpt lat="49.09715" lon="5.98626">
        <ele>335.8</ele>
        <time>2011-11-06T10:30:09Z</time>
      </trkpt>
      <trkpt lat="49.09715" lon="5.98636">
        <ele>336.4</ele>
        <time>2011-11-06T10:30:10Z</time>
      </trkpt>
      <trkpt lat="49.09716" lon="5.98649">
        <ele>337.2</ele>
        <time>2011-11-06T10:30:11Z</time>
      </trkpt>
      <trkpt lat="49.09714" lon="5.9866">
        <ele>337</ele>
        <time>2011-11-06T10:30:12Z</time>
      </trkpt>
      <trkpt lat="49.09715" lon="5.98669">
        <ele>337</ele>
        <time>2011-11-06T10:30:13Z</time>
      </trkpt>
      <trkpt lat="49.09715" lon="5.9868">
        <ele>337</ele>
        <time>2011-11-06T10:30:14Z</time>
      </trkpt>
      <trkpt lat="49.0971" lon="5.98683">
        <ele>338.2</ele>
        <time>2011-11-06T10:30:15Z</time>
      </trkpt>
      <trkpt lat="49.09711" lon="5.98694">
        <ele>338.5</ele>
        <time>2011-11-06T10:30:16Z</time>
      </trkpt>
      <trkpt lat="49.09712" lon="5.98709">
        <ele>338.9</ele>
        <time>2011-11-06T10:30:17Z</time>
      </trkpt>
      <trkpt lat="49.09717" lon="5.98721">
        <ele>339.3</ele>
        <time>2011-11-06T10:30:18Z</time>
      </trkpt>
      <trkpt lat="49.09718" lon="5.98734">
        <ele>339.3</ele>
        <time>2011-11-06T10:30:19Z</time>
      </trkpt>
      <trkpt lat="49.0972" lon="5.98746">
        <ele>339.6</ele>
        <time>2011-11-06T10:30:20Z</time>
      </trkpt>
      <trkpt lat="49.09721" lon="5.98759">
        <ele>339.8</ele>
        <time>2011-11-06T10:30:21Z</time>
      </trkpt>
      <trkpt lat="49.0972" lon="5.98768">
        <ele>339.9</ele>
        <time>2011-11-06T10:30:22Z</time>
      </trkpt>
      <trkpt lat="49.0972" lon="5.98778">
        <ele>340.2</ele>
        <time>2011-11-06T10:30:23Z</time>
      </trkpt>
      <trkpt lat="49.09723" lon="5.98792">
        <ele>340.3</ele>
        <time>2011-11-06T10:30:24Z</time>
      </trkpt>
      <trkpt lat="49.09724" lon="5.9881">
        <ele>340</ele>
        <time>2011-11-06T10:30:25Z</time>
      </trkpt>
      <trkpt lat="49.09728" lon="5.98825">
        <ele>340.2</ele>
        <time>2011-11-06T10:30:26Z</time>
      </trkpt>
      <trkpt lat="49.09732" lon="5.98836">
        <ele>340.9</ele>
        <time>2011-11-06T10:30:27Z</time>
      </trkpt>
      <trkpt lat="49.09733" lon="5.98849">
        <ele>341.1</ele>
        <time>2011-11-06T10:30:28Z</time>
      </trkpt>
      <trkpt lat="49.09733" lon="5.98861">
        <ele>341.5</ele>
        <time>2011-11-06T10:30:29Z</time>
      </trkpt>
      <trkpt lat="49.09736" lon="5.98877">
        <ele>341.1</ele>
        <time>2011-11-06T10:30:30Z</time>
      </trkpt>
      <trkpt lat="49.09736" lon="5.98888">
        <ele>341.7</ele>
        <time>2011-11-06T10:30:31Z</time>
      </trkpt>
      <trkpt lat="49.09739" lon="5.989">
        <ele>341.9</ele>
        <time>2011-11-06T10:30:32Z</time>
      </trkpt>
      <trkpt lat="49.09742" lon="5.98911">
        <ele>342.3</ele>
        <time>2011-11-06T10:30:33Z</time>
      </trkpt>
      <trkpt lat="49.09746" lon="5.98921">
        <ele>342.8</ele>
        <time>2011-11-06T10:30:34Z</time>
      </trkpt>
      <trkpt lat="49.0975" lon="5.98931">
        <ele>343</ele>
        <time>2011-11-06T10:30:35Z</time>
      </trkpt>
      <trkpt lat="49.09754" lon="5.9894">
        <ele>343</ele>
        <time>2011-11-06T10:30:36Z</time>
      </trkpt>
      <trkpt lat="49.09758" lon="5.98949">
        <ele>343.1</ele>
        <time>2011-11-06T10:30:37Z</time>
      </trkpt>
      <trkpt lat="49.09762" lon="5.98956">
        <ele>342.9</ele>
        <time>2011-11-06T10:30:38Z</time>
      </trkpt>
      <trkpt lat="49.09767" lon="5.98975">
        <ele>340.2</ele>
        <time>2011-11-06T10:30:39Z</time>
      </trkpt>
      <trkpt lat="49.09774" lon="5.98986">
        <ele>340.5</ele>
        <time>2011-11-06T10:30:40Z</time>
      </trkpt>
      <trkpt lat="49.09781" lon="5.98996">
        <ele>341.1</ele>
        <time>2011-11-06T10:30:41Z</time>
      </trkpt>
      <trkpt lat="49.09786" lon="5.99006">
        <ele>341.2</ele>
        <time>2011-11-06T10:30:42Z</time>
      </trkpt>
      <trkpt lat="49.09791" lon="5.99016">
        <ele>341</ele>
        <time>2011-11-06T10:30:43Z</time>
      </trkpt>
      <trkpt lat="49.09796" lon="5.99025">
        <ele>341.3</ele>
        <time>2011-11-06T10:30:44Z</time>
      </trkpt>
      <trkpt lat="49.09802" lon="5.99032">
        <ele>341.4</ele>
        <time>2011-11-06T10:30:45Z</time>
      </trkpt>
      <trkpt lat="49.09806" lon="5.99042">
        <ele>342</ele>
        <time>2011-11-06T10:30:46Z</time>
      </trkpt>
      <trkpt lat="49.09809" lon="5.99051">
        <ele>342.1</ele>
        <time>2011-11-06T10:30:47Z</time>
      </trkpt>
      <trkpt lat="49.09812" lon="5.9906">
        <ele>342.8</ele>
        <time>2011-11-06T10:30:48Z</time>
      </trkpt>
      <trkpt lat="49.09815" lon="5.99069">
        <ele>342.6</ele>
        <time>2011-11-06T10:30:49Z</time>
      </trkpt>
      <trkpt lat="49.09818" lon="5.99078">
        <ele>343.6</ele>
        <time>2011-11-06T10:30:50Z</time>
      </trkpt>
      <trkpt lat="49.0982" lon="5.99088">
        <ele>343.9</ele>
        <time>2011-11-06T10:30:51Z</time>
      </trkpt>
      <trkpt lat="49.09823" lon="5.991">
        <ele>343.4</ele>
        <time>2011-11-06T10:30:52Z</time>
      </trkpt>
      <trkpt lat="49.09825" lon="5.9911">
        <ele>343.7</ele>
        <time>2011-11-06T10:30:53Z</time>
      </trkpt>
      <trkpt lat="49.09828" lon="5.9912">
        <ele>343.6</ele>
        <time>2011-11-06T10:30:54Z</time>
      </trkpt>
      <trkpt lat="49.09831" lon="5.99131">
        <ele>344.1</ele>
        <time>2011-11-06T10:30:55Z</time>
      </trkpt>
      <trkpt lat="49.09834" lon="5.99141">
        <ele>344.1</ele>
        <time>2011-11-06T10:30:56Z</time>
      </trkpt>
      <trkpt lat="49.09836" lon="5.9915">
        <ele>344.2</ele>
        <time>2011-11-06T10:30:57Z</time>
      </trkpt>
      <trkpt lat="49.09836" lon="5.99158">
        <ele>343.7</ele>
        <time>2011-11-06T10:30:58Z</time>
      </trkpt>
      <trkpt lat="49.09838" lon="5.99166">
        <ele>343.4</ele>
        <time>2011-11-06T10:30:59Z</time>
      </trkpt>
      <trkpt lat="49.09842" lon="5.99174">
        <ele>343.5</ele>
        <time>2011-11-06T10:31:00Z</time>
      </trkpt>
      <trkpt lat="49.09844" lon="5.99183">
        <ele>343.5</ele>
        <time>2011-11-06T10:31:01Z</time>
      </trkpt>
      <trkpt lat="49.09846" lon="5.99192">
        <ele>343.4</ele>
        <time>2011-11-06T10:31:02Z</time>
      </trkpt>
      <trkpt lat="49.09849" lon="5.99199">
        <ele>343.4</ele>
        <time>2011-11-06T10:31:03Z</time>
      </trkpt>
      <trkpt lat="49.09852" lon="5.99209">
        <ele>343.5</ele>
        <time>2011-11-06T10:31:04Z</time>
      </trkpt>
      <trkpt lat="49.09855" lon="5.9922">
        <ele>343.7</ele>
        <time>2011-11-06T10:31:05Z</time>
      </trkpt>
      <trkpt lat="49.09856" lon="5.99233">
        <ele>343.7</ele>
        <time>2011-11-06T10:31:06Z</time>
      </trkpt>
      <trkpt lat="49.09857" lon="5.99243">
        <ele>343.7</ele>
        <time>2011-11-06T10:31:07Z</time>
      </trkpt>
      <trkpt lat="49.09861" lon="5.99254">
        <ele>343.8</ele>
        <time>2011-11-06T10:31:08Z</time>
      </trkpt>
      <trkpt lat="49.09864" lon="5.99265">
        <ele>343.7</ele>
        <time>2011-11-06T10:31:09Z</time>
      </trkpt>
      <trkpt lat="49.09867" lon="5.99273">
        <ele>343.7</ele>
        <time>2011-11-06T10:31:10Z</time>
      </trkpt>
      <trkpt lat="49.09869" lon="5.99286">
        <ele>343.8</ele>
        <time>2011-11-06T10:31:11Z</time>
      </trkpt>
      <trkpt lat="49.09867" lon="5.99295">
        <ele>343.7</ele>
        <time>2011-11-06T10:31:12Z</time>
      </trkpt>
      <trkpt lat="49.09867" lon="5.99304">
        <ele>343.7</ele>
        <time>2011-11-06T10:31:13Z</time>
      </trkpt>
      <trkpt lat="49.09868" lon="5.99315">
        <ele>343.7</ele>
        <time>2011-11-06T10:31:14Z</time>
      </trkpt>
      <trkpt lat="49.09871" lon="5.99325">
        <ele>343.8</ele>
        <time>2011-11-06T10:31:15Z</time>
      </trkpt>
      <trkpt lat="49.09877" lon="5.99332">
        <ele>343.9</ele>
        <time>2011-11-06T10:31:16Z</time>
      </trkpt>
      <trkpt lat="49.09878" lon="5.99341">
        <ele>343.9</ele>
        <time>2011-11-06T10:31:17Z</time>
      </trkpt>
      <trkpt lat="49.0988" lon="5.99351">
        <ele>343.9</ele>
        <time>2011-11-06T10:31:18Z</time>
      </trkpt>
      <trkpt lat="49.09883" lon="5.99364">
        <ele>344</ele>
        <time>2011-11-06T10:31:19Z</time>
      </trkpt>
      <trkpt lat="49.09885" lon="5.99379">
        <ele>344.1</ele>
        <time>2011-11-06T10:31:20Z</time>
      </trkpt>
      <trkpt lat="49.09888" lon="5.99388">
        <ele>344.1</ele>
        <time>2011-11-06T10:31:21Z</time>
      </trkpt>
      <trkpt lat="49.09892" lon="5.994">
        <ele>344.2</ele>
        <time>2011-11-06T10:31:22Z</time>
      </trkpt>
      <trkpt lat="49.09894" lon="5.99411">
        <ele>344.2</ele>
        <time>2011-11-06T10:31:23Z</time>
      </trkpt>
      <trkpt lat="49.099" lon="5.9942">
        <ele>344.2</ele>
        <time>2011-11-06T10:31:24Z</time>
      </trkpt>
      <trkpt lat="49.09904" lon="5.99437">
        <ele>344</ele>
        <time>2011-11-06T10:31:26Z</time>
      </trkpt>
      <trkpt lat="49.09908" lon="5.99448">
        <ele>344.1</ele>
        <time>2011-11-06T10:31:27Z</time>
      </trkpt>
      <trkpt lat="49.09912" lon="5.99457">
        <ele>344.1</ele>
        <time>2011-11-06T10:31:28Z</time>
      </trkpt>
      <trkpt lat="49.09916" lon="5.99468">
        <ele>343.8</ele>
        <time>2011-11-06T10:31:29Z</time>
      </trkpt>
      <trkpt lat="49.09921" lon="5.9948">
        <ele>344</ele>
        <time>2011-11-06T10:31:30Z</time>
      </trkpt>
      <trkpt lat="49.09924" lon="5.99485">
        <ele>345.5</ele>
        <time>2011-11-06T10:31:31Z</time>
      </trkpt>
      <trkpt lat="49.0993" lon="5.99496">
        <ele>345.7</ele>
        <time>2011-11-06T10:31:32Z</time>
      </trkpt>
      <trkpt lat="49.09934" lon="5.99505">
        <ele>345.8</ele>
        <time>2011-11-06T10:31:33Z</time>
      </trkpt>
      <trkpt lat="49.09941" lon="5.99514">
        <ele>346</ele>
        <time>2011-11-06T10:31:34Z</time>
      </trkpt>
      <trkpt lat="49.09945" lon="5.99522">
        <ele>345.9</ele>
        <time>2011-11-06T10:31:35Z</time>
      </trkpt>
      <trkpt lat="49.09949" lon="5.9953">
        <ele>345.8</ele>
        <time>2011-11-06T10:31:36Z</time>
      </trkpt>
      <trkpt lat="49.09953" lon="5.99539">
        <ele>345.7</ele>
        <time>2011-11-06T10:31:37Z</time>
      </trkpt>
      <trkpt lat="49.09959" lon="5.99541">
        <ele>345.5</ele>
        <time>2011-11-06T10:31:38Z</time>
      </trkpt>
      <trkpt lat="49.09963" lon="5.9955">
        <ele>345.5</ele>
        <time>2011-11-06T10:31:39Z</time>
      </trkpt>
      <trkpt lat="49.09967" lon="5.99563">
        <ele>345.6</ele>
        <time>2011-11-06T10:31:40Z</time>
      </trkpt>
      <trkpt lat="49.09971" lon="5.99573">
        <ele>345.8</ele>
        <time>2011-11-06T10:31:41Z</time>
      </trkpt>
      <trkpt lat="49.09975" lon="5.99584">
        <ele>345.8</ele>
        <time>2011-11-06T10:31:42Z</time>
      </trkpt>
      <trkpt lat="49.09978" lon="5.99595">
        <ele>345.8</ele>
        <time>2011-11-06T10:31:43Z</time>
      </trkpt>
      <trkpt lat="49.09983" lon="5.99606">
        <ele>345.8</ele>
        <time>2011-11-06T10:31:44Z</time>
      </trkpt>
      <trkpt lat="49.09988" lon="5.99616">
        <ele>345.8</ele>
        <time>2011-11-06T10:31:45Z</time>
      </trkpt>
      <trkpt lat="49.09992" lon="5.99626">
        <ele>345.9</ele>
        <time>2011-11-06T10:31:46Z</time>
      </trkpt>
      <trkpt lat="49.09994" lon="5.99638">
        <ele>345.8</ele>
        <time>2011-11-06T10:31:47Z</time>
      </trkpt>
      <trkpt lat="49.09999" lon="5.99652">
        <ele>345.6</ele>
        <time>2011-11-06T10:31:48Z</time>
      </trkpt>
      <trkpt lat="49.10002" lon="5.99663">
        <ele>345.5</ele>
        <time>2011-11-06T10:31:49Z</time>
      </trkpt>
      <trkpt lat="49.10008" lon="5.99676">
        <ele>348.2</ele>
        <time>2011-11-06T10:31:51Z</time>
      </trkpt>
      <trkpt lat="49.10015" lon="5.99685">
        <ele>348.3</ele>
        <time>2011-11-06T10:31:52Z</time>
      </trkpt>
      <trkpt lat="49.10019" lon="5.99694">
        <ele>348.2</ele>
        <time>2011-11-06T10:31:53Z</time>
      </trkpt>
      <trkpt lat="49.10021" lon="5.99704">
        <ele>348</ele>
        <time>2011-11-06T10:31:54Z</time>
      </trkpt>
      <trkpt lat="49.10024" lon="5.99714">
        <ele>348</ele>
        <time>2011-11-06T10:31:55Z</time>
      </trkpt>
      <trkpt lat="49.1003" lon="5.99725">
        <ele>348.3</ele>
        <time>2011-11-06T10:31:56Z</time>
      </trkpt>
      <trkpt lat="49.10034" lon="5.99732">
        <ele>348.4</ele>
        <time>2011-11-06T10:31:57Z</time>
      </trkpt>
      <trkpt lat="49.10041" lon="5.99746">
        <ele>348.1</ele>
        <time>2011-11-06T10:31:58Z</time>
      </trkpt>
      <trkpt lat="49.10048" lon="5.99756">
        <ele>348.3</ele>
        <time>2011-11-06T10:31:59Z</time>
      </trkpt>
      <trkpt lat="49.10054" lon="5.99768">
        <ele>348.4</ele>
        <time>2011-11-06T10:32:00Z</time>
      </trkpt>
      <trkpt lat="49.10057" lon="5.9978">
        <ele>348.3</ele>
        <time>2011-11-06T10:32:01Z</time>
      </trkpt>
      <trkpt lat="49.10062" lon="5.9979">
        <ele>348.5</ele>
        <time>2011-11-06T10:32:02Z</time>
      </trkpt>
      <trkpt lat="49.10068" lon="5.99799">
        <ele>348.6</ele>
        <time>2011-11-06T10:32:03Z</time>
      </trkpt>
      <trkpt lat="49.10074" lon="5.99807">
        <ele>348.8</ele>
        <time>2011-11-06T10:32:04Z</time>
      </trkpt>
      <trkpt lat="49.10079" lon="5.99816">
        <ele>348.6</ele>
        <time>2011-11-06T10:32:05Z</time>
      </trkpt>
      <trkpt lat="49.10083" lon="5.99828">
        <ele>348.4</ele>
        <time>2011-11-06T10:32:06Z</time>
      </trkpt>
      <trkpt lat="49.10088" lon="5.99838">
        <ele>348.5</ele>
        <time>2011-11-06T10:32:07Z</time>
      </trkpt>
      <trkpt lat="49.10093" lon="5.99851">
        <ele>348.2</ele>
        <time>2011-11-06T10:32:08Z</time>
      </trkpt>
      <trkpt lat="49.10099" lon="5.99862">
        <ele>348.3</ele>
        <time>2011-11-06T10:32:09Z</time>
      </trkpt>
      <trkpt lat="49.10105" lon="5.99873">
        <ele>348.4</ele>
        <time>2011-11-06T10:32:10Z</time>
      </trkpt>
      <trkpt lat="49.10108" lon="5.99885">
        <ele>348.5</ele>
        <time>2011-11-06T10:32:11Z</time>
      </trkpt>
      <trkpt lat="49.1011" lon="5.99893">
        <ele>348.3</ele>
        <time>2011-11-06T10:32:12Z</time>
      </trkpt>
      <trkpt lat="49.10116" lon="5.99903">
        <ele>348.4</ele>
        <time>2011-11-06T10:32:13Z</time>
      </trkpt>
      <trkpt lat="49.1012" lon="5.99911">
        <ele>348.3</ele>
        <time>2011-11-06T10:32:14Z</time>
      </trkpt>
      <trkpt lat="49.10125" lon="5.99921">
        <ele>348.3</ele>
        <time>2011-11-06T10:32:15Z</time>
      </trkpt>
      <trkpt lat="49.10129" lon="5.99926">
        <ele>348.8</ele>
        <time>2011-11-06T10:32:16Z</time>
      </trkpt>
      <trkpt lat="49.10137" lon="5.99939">
        <ele>348.6</ele>
        <time>2011-11-06T10:32:17Z</time>
      </trkpt>
      <trkpt lat="49.10139" lon="5.99949">
        <ele>348.6</ele>
        <time>2011-11-06T10:32:18Z</time>
      </trkpt>
      <trkpt lat="49.10145" lon="5.99963">
        <ele>344.7</ele>
        <time>2011-11-06T10:32:19Z</time>
      </trkpt>
      <trkpt lat="49.10149" lon="5.99971">
        <ele>346.7</ele>
        <time>2011-11-06T10:32:20Z</time>
      </trkpt>
      <trkpt lat="49.10155" lon="5.99982">
        <ele>347.2</ele>
        <time>2011-11-06T10:32:21Z</time>
      </trkpt>
      <trkpt lat="49.1016" lon="5.99997">
        <ele>344.4</ele>
        <time>2011-11-06T10:32:22Z</time>
      </trkpt>
      <trkpt lat="49.10164" lon="6.00008">
        <ele>344.7</ele>
        <time>2011-11-06T10:32:23Z</time>
      </trkpt>
      <trkpt lat="49.10168" lon="6.00018">
        <ele>344.5</ele>
        <time>2011-11-06T10:32:24Z</time>
      </trkpt>
      <trkpt lat="49.10173" lon="6.00029">
        <ele>342.9</ele>
        <time>2011-11-06T10:32:25Z</time>
      </trkpt>
      <trkpt lat="49.10179" lon="6.00042">
        <ele>341.6</ele>
        <time>2011-11-06T10:32:26Z</time>
      </trkpt>
      <trkpt lat="49.10182" lon="6.00052">
        <ele>342.2</ele>
        <time>2011-11-06T10:32:27Z</time>
      </trkpt>
      <trkpt lat="49.10187" lon="6.00062">
        <ele>342.9</ele>
        <time>2011-11-06T10:32:28Z</time>
      </trkpt>
      <trkpt lat="49.10193" lon="6.00073">
        <ele>341.9</ele>
        <time>2011-11-06T10:32:29Z</time>
      </trkpt>
      <trkpt lat="49.10198" lon="6.00084">
        <ele>341.3</ele>
        <time>2011-11-06T10:32:30Z</time>
      </trkpt>
      <trkpt lat="49.10203" lon="6.00095">
        <ele>341.3</ele>
        <time>2011-11-06T10:32:31Z</time>
      </trkpt>
      <trkpt lat="49.10207" lon="6.00105">
        <ele>341.5</ele>
        <time>2011-11-06T10:32:32Z</time>
      </trkpt>
      <trkpt lat="49.10211" lon="6.00114">
        <ele>341.9</ele>
        <time>2011-11-06T10:32:33Z</time>
      </trkpt>
      <trkpt lat="49.10217" lon="6.00128">
        <ele>338.8</ele>
        <time>2011-11-06T10:32:34Z</time>
      </trkpt>
      <trkpt lat="49.10221" lon="6.00139">
        <ele>338.9</ele>
        <time>2011-11-06T10:32:35Z</time>
      </trkpt>
      <trkpt lat="49.10226" lon="6.0015">
        <ele>338.2</ele>
        <time>2011-11-06T10:32:36Z</time>
      </trkpt>
      <trkpt lat="49.10231" lon="6.00161">
        <ele>338.3</ele>
        <time>2011-11-06T10:32:37Z</time>
      </trkpt>
      <trkpt lat="49.10235" lon="6.00172">
        <ele>338</ele>
        <time>2011-11-06T10:32:38Z</time>
      </trkpt>
      <trkpt lat="49.1024" lon="6.00184">
        <ele>338</ele>
        <time>2011-11-06T10:32:39Z</time>
      </trkpt>
      <trkpt lat="49.10246" lon="6.00195">
        <ele>337.7</ele>
        <time>2011-11-06T10:32:40Z</time>
      </trkpt>
      <trkpt lat="49.10251" lon="6.00207">
        <ele>337.1</ele>
        <time>2011-11-06T10:32:41Z</time>
      </trkpt>
      <trkpt lat="49.10256" lon="6.0022">
        <ele>336</ele>
        <time>2011-11-06T10:32:42Z</time>
      </trkpt>
      <trkpt lat="49.10262" lon="6.00232">
        <ele>335.4</ele>
        <time>2011-11-06T10:32:43Z</time>
      </trkpt>
      <trkpt lat="49.10268" lon="6.00245">
        <ele>335.6</ele>
        <time>2011-11-06T10:32:44Z</time>
      </trkpt>
      <trkpt lat="49.10273" lon="6.00258">
        <ele>334.8</ele>
        <time>2011-11-06T10:32:45Z</time>
      </trkpt>
      <trkpt lat="49.10279" lon="6.0027">
        <ele>334.6</ele>
        <time>2011-11-06T10:32:46Z</time>
      </trkpt>
      <trkpt lat="49.10285" lon="6.00283">
        <ele>333.7</ele>
        <time>2011-11-06T10:32:47Z</time>
      </trkpt>
      <trkpt lat="49.1029" lon="6.00296">
        <ele>332.9</ele>
        <time>2011-11-06T10:32:48Z</time>
      </trkpt>
      <trkpt lat="49.10296" lon="6.00309">
        <ele>332.8</ele>
        <time>2011-11-06T10:32:49Z</time>
      </trkpt>
      <trkpt lat="49.10302" lon="6.00323">
        <ele>331.6</ele>
        <time>2011-11-06T10:32:50Z</time>
      </trkpt>
      <trkpt lat="49.10307" lon="6.00336">
        <ele>331.4</ele>
        <time>2011-11-06T10:32:51Z</time>
      </trkpt>
      <trkpt lat="49.10313" lon="6.0035">
        <ele>331.6</ele>
        <time>2011-11-06T10:32:52Z</time>
      </trkpt>
      <trkpt lat="49.1032" lon="6.00364">
        <ele>330.4</ele>
        <time>2011-11-06T10:32:53Z</time>
      </trkpt>
      <trkpt lat="49.10326" lon="6.00377">
        <ele>330.5</ele>
        <time>2011-11-06T10:32:54Z</time>
      </trkpt>
      <trkpt lat="49.10331" lon="6.0039">
        <ele>330.9</ele>
        <time>2011-11-06T10:32:55Z</time>
      </trkpt>
      <trkpt lat="49.10339" lon="6.00408">
        <ele>330</ele>
        <time>2011-11-06T10:32:56Z</time>
      </trkpt>
      <trkpt lat="49.10344" lon="6.00419">
        <ele>329.8</ele>
        <time>2011-11-06T10:32:57Z</time>
      </trkpt>
      <trkpt lat="49.10351" lon="6.00434">
        <ele>328.8</ele>
        <time>2011-11-06T10:32:58Z</time>
      </trkpt>
      <trkpt lat="49.10358" lon="6.0045">
        <ele>328.2</ele>
        <time>2011-11-06T10:32:59Z</time>
      </trkpt>
      <trkpt lat="49.10365" lon="6.00465">
        <ele>327.4</ele>
        <time>2011-11-06T10:33:00Z</time>
      </trkpt>
      <trkpt lat="49.10371" lon="6.00479">
        <ele>326.2</ele>
        <time>2011-11-06T10:33:01Z</time>
      </trkpt>
      <trkpt lat="49.10378" lon="6.00494">
        <ele>325.1</ele>
        <time>2011-11-06T10:33:02Z</time>
      </trkpt>
      <trkpt lat="49.10384" lon="6.00509">
        <ele>324.1</ele>
        <time>2011-11-06T10:33:03Z</time>
      </trkpt>
      <trkpt lat="49.10391" lon="6.00524">
        <ele>323.6</ele>
        <time>2011-11-06T10:33:04Z</time>
      </trkpt>
      <trkpt lat="49.10397" lon="6.00539">
        <ele>323</ele>
        <time>2011-11-06T10:33:05Z</time>
      </trkpt>
      <trkpt lat="49.10404" lon="6.00555">
        <ele>322.4</ele>
        <time>2011-11-06T10:33:06Z</time>
      </trkpt>
      <trkpt lat="49.1041" lon="6.00569">
        <ele>322.1</ele>
        <time>2011-11-06T10:33:07Z</time>
      </trkpt>
      <trkpt lat="49.10417" lon="6.00584">
        <ele>321.4</ele>
        <time>2011-11-06T10:33:08Z</time>
      </trkpt>
      <trkpt lat="49.10424" lon="6.00598">
        <ele>321.4</ele>
        <time>2011-11-06T10:33:09Z</time>
      </trkpt>
      <trkpt lat="49.10432" lon="6.00613">
        <ele>318.3</ele>
        <time>2011-11-06T10:33:10Z</time>
      </trkpt>
      <trkpt lat="49.10438" lon="6.00627">
        <ele>317.3</ele>
        <time>2011-11-06T10:33:11Z</time>
      </trkpt>
      <trkpt lat="49.10444" lon="6.0064">
        <ele>317.3</ele>
        <time>2011-11-06T10:33:12Z</time>
      </trkpt>
      <trkpt lat="49.1045" lon="6.00656">
        <ele>316.6</ele>
        <time>2011-11-06T10:33:13Z</time>
      </trkpt>
      <trkpt lat="49.10456" lon="6.0067">
        <ele>316</ele>
        <time>2011-11-06T10:33:14Z</time>
      </trkpt>
      <trkpt lat="49.10462" lon="6.00684">
        <ele>315.1</ele>
        <time>2011-11-06T10:33:15Z</time>
      </trkpt>
      <trkpt lat="49.10468" lon="6.00699">
        <ele>314.8</ele>
        <time>2011-11-06T10:33:16Z</time>
      </trkpt>
      <trkpt lat="49.10474" lon="6.00713">
        <ele>313.8</ele>
        <time>2011-11-06T10:33:17Z</time>
      </trkpt>
      <trkpt lat="49.1048" lon="6.00728">
        <ele>312.8</ele>
        <time>2011-11-06T10:33:18Z</time>
      </trkpt>
      <trkpt lat="49.10487" lon="6.00742">
        <ele>312.3</ele>
        <time>2011-11-06T10:33:19Z</time>
      </trkpt>
      <trkpt lat="49.10493" lon="6.00756">
        <ele>311.3</ele>
        <time>2011-11-06T10:33:20Z</time>
      </trkpt>
      <trkpt lat="49.10499" lon="6.00771">
        <ele>310.6</ele>
        <time>2011-11-06T10:33:21Z</time>
      </trkpt>
      <trkpt lat="49.10506" lon="6.00784">
        <ele>310.8</ele>
        <time>2011-11-06T10:33:22Z</time>
      </trkpt>
      <trkpt lat="49.10511" lon="6.00798">
        <ele>311.3</ele>
        <time>2011-11-06T10:33:23Z</time>
      </trkpt>
      <trkpt lat="49.10517" lon="6.00812">
        <ele>312.2</ele>
        <time>2011-11-06T10:33:24Z</time>
      </trkpt>
      <trkpt lat="49.10523" lon="6.00824">
        <ele>312.9</ele>
        <time>2011-11-06T10:33:25Z</time>
      </trkpt>
      <trkpt lat="49.10529" lon="6.00838">
        <ele>312.5</ele>
        <time>2011-11-06T10:33:26Z</time>
      </trkpt>
      <trkpt lat="49.10534" lon="6.00851">
        <ele>312</ele>
        <time>2011-11-06T10:33:27Z</time>
      </trkpt>
      <trkpt lat="49.1054" lon="6.00864">
        <ele>312.1</ele>
        <time>2011-11-06T10:33:28Z</time>
      </trkpt>
      <trkpt lat="49.10547" lon="6.00877">
        <ele>311.5</ele>
        <time>2011-11-06T10:33:29Z</time>
      </trkpt>
      <trkpt lat="49.10552" lon="6.0089">
        <ele>310.7</ele>
        <time>2011-11-06T10:33:30Z</time>
      </trkpt>
      <trkpt lat="49.10558" lon="6.00903">
        <ele>310.9</ele>
        <time>2011-11-06T10:33:31Z</time>
      </trkpt>
      <trkpt lat="49.10564" lon="6.00915">
        <ele>310.6</ele>
        <time>2011-11-06T10:33:32Z</time>
      </trkpt>
      <trkpt lat="49.10569" lon="6.00928">
        <ele>310.6</ele>
        <time>2011-11-06T10:33:33Z</time>
      </trkpt>
      <trkpt lat="49.10574" lon="6.00939">
        <ele>310.7</ele>
        <time>2011-11-06T10:33:34Z</time>
      </trkpt>
      <trkpt lat="49.10579" lon="6.0095">
        <ele>310.6</ele>
        <time>2011-11-06T10:33:35Z</time>
      </trkpt>
      <trkpt lat="49.10584" lon="6.00961">
        <ele>310.6</ele>
        <time>2011-11-06T10:33:36Z</time>
      </trkpt>
      <trkpt lat="49.10588" lon="6.0097">
        <ele>311.5</ele>
        <time>2011-11-06T10:33:37Z</time>
      </trkpt>
      <trkpt lat="49.10591" lon="6.00979">
        <ele>311.4</ele>
        <time>2011-11-06T10:33:38Z</time>
      </trkpt>
      <trkpt lat="49.10594" lon="6.00987">
        <ele>310.7</ele>
        <time>2011-11-06T10:33:39Z</time>
      </trkpt>
      <trkpt lat="49.10598" lon="6.00994">
        <ele>310.8</ele>
        <time>2011-11-06T10:33:40Z</time>
      </trkpt>
      <trkpt lat="49.10601" lon="6.01">
        <ele>311.7</ele>
        <time>2011-11-06T10:33:41Z</time>
      </trkpt>
      <trkpt lat="49.10603" lon="6.01007">
        <ele>312.5</ele>
        <time>2011-11-06T10:33:42Z</time>
      </trkpt>
      <trkpt lat="49.10606" lon="6.01014">
        <ele>312.4</ele>
        <time>2011-11-06T10:33:43Z</time>
      </trkpt>
      <trkpt lat="49.10609" lon="6.0102">
        <ele>313.2</ele>
        <time>2011-11-06T10:33:44Z</time>
      </trkpt>
      <trkpt lat="49.10612" lon="6.01026">
        <ele>313.5</ele>
        <time>2011-11-06T10:33:45Z</time>
      </trkpt>
      <trkpt lat="49.10615" lon="6.01032">
        <ele>313.3</ele>
        <time>2011-11-06T10:33:46Z</time>
      </trkpt>
      <trkpt lat="49.10618" lon="6.01038">
        <ele>313.4</ele>
        <time>2011-11-06T10:33:47Z</time>
      </trkpt>
      <trkpt lat="49.1062" lon="6.01044">
        <ele>313.9</ele>
        <time>2011-11-06T10:33:48Z</time>
      </trkpt>
      <trkpt lat="49.10623" lon="6.01051">
        <ele>313.8</ele>
        <time>2011-11-06T10:33:49Z</time>
      </trkpt>
      <trkpt lat="49.10625" lon="6.01058">
        <ele>313.8</ele>
        <time>2011-11-06T10:33:50Z</time>
      </trkpt>
      <trkpt lat="49.10628" lon="6.01064">
        <ele>314.1</ele>
        <time>2011-11-06T10:33:51Z</time>
      </trkpt>
      <trkpt lat="49.1063" lon="6.01073">
        <ele>314.1</ele>
        <time>2011-11-06T10:33:52Z</time>
      </trkpt>
      <trkpt lat="49.10635" lon="6.01086">
        <ele>315.9</ele>
        <time>2011-11-06T10:33:53Z</time>
      </trkpt>
      <trkpt lat="49.10644" lon="6.01097">
        <ele>316.8</ele>
        <time>2011-11-06T10:33:54Z</time>
      </trkpt>
      <trkpt lat="49.10646" lon="6.01108">
        <ele>317.6</ele>
        <time>2011-11-06T10:33:55Z</time>
      </trkpt>
      <trkpt lat="49.10652" lon="6.01126">
        <ele>318.1</ele>
        <time>2011-11-06T10:33:57Z</time>
      </trkpt>
      <trkpt lat="49.10654" lon="6.01134">
        <ele>318.2</ele>
        <time>2011-11-06T10:33:58Z</time>
      </trkpt>
      <trkpt lat="49.10658" lon="6.01141">
        <ele>317.9</ele>
        <time>2011-11-06T10:33:59Z</time>
      </trkpt>
      <trkpt lat="49.10661" lon="6.01149">
        <ele>317.9</ele>
        <time>2011-11-06T10:34:00Z</time>
      </trkpt>
      <trkpt lat="49.10665" lon="6.01157">
        <ele>317.9</ele>
        <time>2011-11-06T10:34:01Z</time>
      </trkpt>
      <trkpt lat="49.10669" lon="6.01167">
        <ele>318</ele>
        <time>2011-11-06T10:34:02Z</time>
      </trkpt>
      <trkpt lat="49.10672" lon="6.01176">
        <ele>318.1</ele>
        <time>2011-11-06T10:34:03Z</time>
      </trkpt>
      <trkpt lat="49.10676" lon="6.01184">
        <ele>318</ele>
        <time>2011-11-06T10:34:04Z</time>
      </trkpt>
      <trkpt lat="49.1068" lon="6.01194">
        <ele>318</ele>
        <time>2011-11-06T10:34:05Z</time>
      </trkpt>
      <trkpt lat="49.10684" lon="6.0121">
        <ele>318.3</ele>
        <time>2011-11-06T10:34:06Z</time>
      </trkpt>
      <trkpt lat="49.10688" lon="6.01219">
        <ele>318.3</ele>
        <time>2011-11-06T10:34:07Z</time>
      </trkpt>
      <trkpt lat="49.10691" lon="6.01225">
        <ele>318.2</ele>
        <time>2011-11-06T10:34:08Z</time>
      </trkpt>
      <trkpt lat="49.10695" lon="6.01235">
        <ele>318.3</ele>
        <time>2011-11-06T10:34:09Z</time>
      </trkpt>
      <trkpt lat="49.10698" lon="6.01241">
        <ele>319.1</ele>
        <time>2011-11-06T10:34:10Z</time>
      </trkpt>
      <trkpt lat="49.107" lon="6.0125">
        <ele>319</ele>
        <time>2011-11-06T10:34:11Z</time>
      </trkpt>
      <trkpt lat="49.10705" lon="6.01267">
        <ele>318.6</ele>
        <time>2011-11-06T10:34:13Z</time>
      </trkpt>
      <trkpt lat="49.10709" lon="6.01274">
        <ele>318.6</ele>
        <time>2011-11-06T10:34:14Z</time>
      </trkpt>
      <trkpt lat="49.10712" lon="6.01283">
        <ele>318.6</ele>
        <time>2011-11-06T10:34:15Z</time>
      </trkpt>
      <trkpt lat="49.10716" lon="6.0129">
        <ele>318.4</ele>
        <time>2011-11-06T10:34:17Z</time>
      </trkpt>
      <trkpt lat="49.1072" lon="6.01297">
        <ele>318.4</ele>
        <time>2011-11-06T10:34:18Z</time>
      </trkpt>
      <trkpt lat="49.10726" lon="6.01309">
        <ele>318.3</ele>
        <time>2011-11-06T10:34:20Z</time>
      </trkpt>
      <trkpt lat="49.10727" lon="6.01318">
        <ele>318.3</ele>
        <time>2011-11-06T10:34:21Z</time>
      </trkpt>
      <trkpt lat="49.1073" lon="6.01326">
        <ele>318.2</ele>
        <time>2011-11-06T10:34:22Z</time>
      </trkpt>
      <trkpt lat="49.10734" lon="6.01336">
        <ele>318.4</ele>
        <time>2011-11-06T10:34:23Z</time>
      </trkpt>
      <trkpt lat="49.10739" lon="6.01342">
        <ele>318.4</ele>
        <time>2011-11-06T10:34:24Z</time>
      </trkpt>
      <trkpt lat="49.10745" lon="6.01352">
        <ele>318.5</ele>
        <time>2011-11-06T10:34:25Z</time>
      </trkpt>
      <trkpt lat="49.1075" lon="6.01361">
        <ele>318.6</ele>
        <time>2011-11-06T10:34:26Z</time>
      </trkpt>
      <trkpt lat="49.10754" lon="6.01368">
        <ele>318.7</ele>
        <time>2011-11-06T10:34:27Z</time>
      </trkpt>
      <trkpt lat="49.10759" lon="6.01382">
        <ele>318.7</ele>
        <time>2011-11-06T10:34:29Z</time>
      </trkpt>
      <trkpt lat="49.10764" lon="6.0139">
        <ele>318.7</ele>
        <time>2011-11-06T10:34:30Z</time>
      </trkpt>
      <trkpt lat="49.10767" lon="6.01398">
        <ele>318.8</ele>
        <time>2011-11-06T10:34:31Z</time>
      </trkpt>
      <trkpt lat="49.10771" lon="6.01406">
        <ele>319</ele>
        <time>2011-11-06T10:34:32Z</time>
      </trkpt>
      <trkpt lat="49.10773" lon="6.01413">
        <ele>318.7</ele>
        <time>2011-11-06T10:34:33Z</time>
      </trkpt>
      <trkpt lat="49.10777" lon="6.01423">
        <ele>318.6</ele>
        <time>2011-11-06T10:34:34Z</time>
      </trkpt>
      <trkpt lat="49.10784" lon="6.01436">
        <ele>318.6</ele>
        <time>2011-11-06T10:34:36Z</time>
      </trkpt>
      <trkpt lat="49.10788" lon="6.01448">
        <ele>318.7</ele>
        <time>2011-11-06T10:34:37Z</time>
      </trkpt>
      <trkpt lat="49.10788" lon="6.01456">
        <ele>318.7</ele>
        <time>2011-11-06T10:34:38Z</time>
      </trkpt>
      <trkpt lat="49.10789" lon="6.01467">
        <ele>318.8</ele>
        <time>2011-11-06T10:34:39Z</time>
      </trkpt>
      <trkpt lat="49.10793" lon="6.01477">
        <ele>319.1</ele>
        <time>2011-11-06T10:34:41Z</time>
      </trkpt>
      <trkpt lat="49.10797" lon="6.01484">
        <ele>319.1</ele>
        <time>2011-11-06T10:34:42Z</time>
      </trkpt>
      <trkpt lat="49.10803" lon="6.0149">
        <ele>319.1</ele>
        <time>2011-11-06T10:34:43Z</time>
      </trkpt>
      <trkpt lat="49.10809" lon="6.01499">
        <ele>319.2</ele>
        <time>2011-11-06T10:34:44Z</time>
      </trkpt>
      <trkpt lat="49.10812" lon="6.0151">
        <ele>318.8</ele>
        <time>2011-11-06T10:34:45Z</time>
      </trkpt>
      <trkpt lat="49.10817" lon="6.01524">
        <ele>318.5</ele>
        <time>2011-11-06T10:34:47Z</time>
      </trkpt>
      <trkpt lat="49.10821" lon="6.01533">
        <ele>318.3</ele>
        <time>2011-11-06T10:34:48Z</time>
      </trkpt>
      <trkpt lat="49.10825" lon="6.01541">
        <ele>318.5</ele>
        <time>2011-11-06T10:34:49Z</time>
      </trkpt>
      <trkpt lat="49.10829" lon="6.01551">
        <ele>318.4</ele>
        <time>2011-11-06T10:34:50Z</time>
      </trkpt>
      <trkpt lat="49.10833" lon="6.01558">
        <ele>318.4</ele>
        <time>2011-11-06T10:34:51Z</time>
      </trkpt>
      <trkpt lat="49.10835" lon="6.01565">
        <ele>318.4</ele>
        <time>2011-11-06T10:34:52Z</time>
      </trkpt>
      <trkpt lat="49.1084" lon="6.01575">
        <ele>318.5</ele>
        <time>2011-11-06T10:34:54Z</time>
      </trkpt>
      <trkpt lat="49.10845" lon="6.0159">
        <ele>319</ele>
        <time>2011-11-06T10:34:55Z</time>
      </trkpt>
      <trkpt lat="49.10851" lon="6.0161">
        <ele>319.7</ele>
        <time>2011-11-06T10:34:58Z</time>
      </trkpt>
      <trkpt lat="49.10859" lon="6.01619">
        <ele>321.5</ele>
        <time>2011-11-06T10:35:00Z</time>
      </trkpt>
      <trkpt lat="49.10861" lon="6.01625">
        <ele>322.8</ele>
        <time>2011-11-06T10:35:01Z</time>
      </trkpt>
      <trkpt lat="49.10865" lon="6.01634">
        <ele>326.9</ele>
        <time>2011-11-06T10:35:03Z</time>
      </trkpt>
      <trkpt lat="49.10868" lon="6.01641">
        <ele>327.6</ele>
        <time>2011-11-06T10:35:04Z</time>
      </trkpt>
      <trkpt lat="49.10871" lon="6.01648">
        <ele>327.3</ele>
        <time>2011-11-06T10:35:05Z</time>
      </trkpt>
      <trkpt lat="49.10874" lon="6.01657">
        <ele>326.3</ele>
        <time>2011-11-06T10:35:06Z</time>
      </trkpt>
      <trkpt lat="49.10878" lon="6.01664">
        <ele>328.1</ele>
        <time>2011-11-06T10:35:07Z</time>
      </trkpt>
      <trkpt lat="49.1088" lon="6.01671">
        <ele>328.5</ele>
        <time>2011-11-06T10:35:08Z</time>
      </trkpt>
      <trkpt lat="49.10884" lon="6.01679">
        <ele>329.1</ele>
        <time>2011-11-06T10:35:09Z</time>
      </trkpt>
      <trkpt lat="49.10887" lon="6.01686">
        <ele>330.8</ele>
        <time>2011-11-06T10:35:10Z</time>
      </trkpt>
      <trkpt lat="49.10889" lon="6.01693">
        <ele>331.1</ele>
        <time>2011-11-06T10:35:11Z</time>
      </trkpt>
      <trkpt lat="49.10892" lon="6.017">
        <ele>331.4</ele>
        <time>2011-11-06T10:35:12Z</time>
      </trkpt>
      <trkpt lat="49.10895" lon="6.01708">
        <ele>330.5</ele>
        <time>2011-11-06T10:35:13Z</time>
      </trkpt>
      <trkpt lat="49.10898" lon="6.01716">
        <ele>330.7</ele>
        <time>2011-11-06T10:35:14Z</time>
      </trkpt>
      <trkpt lat="49.10901" lon="6.01726">
        <ele>329.8</ele>
        <time>2011-11-06T10:35:15Z</time>
      </trkpt>
      <trkpt lat="49.10904" lon="6.01733">
        <ele>329.9</ele>
        <time>2011-11-06T10:35:16Z</time>
      </trkpt>
      <trkpt lat="49.10907" lon="6.01741">
        <ele>330.8</ele>
        <time>2011-11-06T10:35:17Z</time>
      </trkpt>
      <trkpt lat="49.10911" lon="6.0175">
        <ele>329.7</ele>
        <time>2011-11-06T10:35:18Z</time>
      </trkpt>
      <trkpt lat="49.10915" lon="6.0176">
        <ele>329.2</ele>
        <time>2011-11-06T10:35:19Z</time>
      </trkpt>
      <trkpt lat="49.10918" lon="6.01768">
        <ele>329.6</ele>
        <time>2011-11-06T10:35:20Z</time>
      </trkpt>
      <trkpt lat="49.10922" lon="6.01777">
        <ele>330.8</ele>
        <time>2011-11-06T10:35:21Z</time>
      </trkpt>
      <trkpt lat="49.10926" lon="6.01786">
        <ele>331.3</ele>
        <time>2011-11-06T10:35:22Z</time>
      </trkpt>
      <trkpt lat="49.10929" lon="6.01795">
        <ele>331.5</ele>
        <time>2011-11-06T10:35:23Z</time>
      </trkpt>
      <trkpt lat="49.10933" lon="6.01804">
        <ele>331.6</ele>
        <time>2011-11-06T10:35:24Z</time>
      </trkpt>
      <trkpt lat="49.10936" lon="6.01813">
        <ele>332</ele>
        <time>2011-11-06T10:35:25Z</time>
      </trkpt>
      <trkpt lat="49.10941" lon="6.01823">
        <ele>331.5</ele>
        <time>2011-11-06T10:35:26Z</time>
      </trkpt>
      <trkpt lat="49.10945" lon="6.01834">
        <ele>330.9</ele>
        <time>2011-11-06T10:35:27Z</time>
      </trkpt>
      <trkpt lat="49.1095" lon="6.01844">
        <ele>330</ele>
        <time>2011-11-06T10:35:28Z</time>
      </trkpt>
      <trkpt lat="49.10954" lon="6.01854">
        <ele>330.5</ele>
        <time>2011-11-06T10:35:29Z</time>
      </trkpt>
      <trkpt lat="49.10957" lon="6.01864">
        <ele>329.9</ele>
        <time>2011-11-06T10:35:30Z</time>
      </trkpt>
      <trkpt lat="49.10961" lon="6.01874">
        <ele>330.3</ele>
        <time>2011-11-06T10:35:31Z</time>
      </trkpt>
      <trkpt lat="49.10964" lon="6.01883">
        <ele>331</ele>
        <time>2011-11-06T10:35:32Z</time>
      </trkpt>
      <trkpt lat="49.10968" lon="6.01894">
        <ele>331.1</ele>
        <time>2011-11-06T10:35:33Z</time>
      </trkpt>
      <trkpt lat="49.10971" lon="6.01904">
        <ele>330.6</ele>
        <time>2011-11-06T10:35:34Z</time>
      </trkpt>
      <trkpt lat="49.10974" lon="6.01914">
        <ele>331</ele>
        <time>2011-11-06T10:35:35Z</time>
      </trkpt>
      <trkpt lat="49.10977" lon="6.01924">
        <ele>331.4</ele>
        <time>2011-11-06T10:35:36Z</time>
      </trkpt>
      <trkpt lat="49.1098" lon="6.01936">
        <ele>330.6</ele>
        <time>2011-11-06T10:35:37Z</time>
      </trkpt>
      <trkpt lat="49.10983" lon="6.01947">
        <ele>330.5</ele>
        <time>2011-11-06T10:35:38Z</time>
      </trkpt>
      <trkpt lat="49.10986" lon="6.01958">
        <ele>330</ele>
        <time>2011-11-06T10:35:39Z</time>
      </trkpt>
      <trkpt lat="49.10989" lon="6.01968">
        <ele>329.3</ele>
        <time>2011-11-06T10:35:40Z</time>
      </trkpt>
      <trkpt lat="49.10991" lon="6.01978">
        <ele>329.5</ele>
        <time>2011-11-06T10:35:41Z</time>
      </trkpt>
      <trkpt lat="49.10995" lon="6.0199">
        <ele>329.1</ele>
        <time>2011-11-06T10:35:42Z</time>
      </trkpt>
      <trkpt lat="49.10997" lon="6.02">
        <ele>329</ele>
        <time>2011-11-06T10:35:43Z</time>
      </trkpt>
      <trkpt lat="49.11" lon="6.02011">
        <ele>329</ele>
        <time>2011-11-06T10:35:44Z</time>
      </trkpt>
      <trkpt lat="49.11003" lon="6.02021">
        <ele>329.2</ele>
        <time>2011-11-06T10:35:45Z</time>
      </trkpt>
      <trkpt lat="49.11005" lon="6.02032">
        <ele>328.8</ele>
        <time>2011-11-06T10:35:46Z</time>
      </trkpt>
      <trkpt lat="49.11008" lon="6.02041">
        <ele>330.1</ele>
        <time>2011-11-06T10:35:47Z</time>
      </trkpt>
      <trkpt lat="49.11011" lon="6.02051">
        <ele>329.7</ele>
        <time>2011-11-06T10:35:48Z</time>
      </trkpt>
      <trkpt lat="49.11014" lon="6.02062">
        <ele>329.8</ele>
        <time>2011-11-06T10:35:49Z</time>
      </trkpt>
      <trkpt lat="49.11016" lon="6.02073">
        <ele>329.7</ele>
        <time>2011-11-06T10:35:50Z</time>
      </trkpt>
      <trkpt lat="49.1102" lon="6.02084">
        <ele>329.9</ele>
        <time>2011-11-06T10:35:51Z</time>
      </trkpt>
      <trkpt lat="49.11023" lon="6.02095">
        <ele>329.8</ele>
        <time>2011-11-06T10:35:52Z</time>
      </trkpt>
      <trkpt lat="49.11026" lon="6.02106">
        <ele>330.2</ele>
        <time>2011-11-06T10:35:53Z</time>
      </trkpt>
      <trkpt lat="49.11029" lon="6.02117">
        <ele>330.4</ele>
        <time>2011-11-06T10:35:54Z</time>
      </trkpt>
      <trkpt lat="49.11031" lon="6.02127">
        <ele>331.9</ele>
        <time>2011-11-06T10:35:55Z</time>
      </trkpt>
      <trkpt lat="49.11039" lon="6.02151">
        <ele>333.1</ele>
        <time>2011-11-06T10:35:57Z</time>
      </trkpt>
      <trkpt lat="49.11041" lon="6.02157">
        <ele>333.2</ele>
        <time>2011-11-06T10:35:58Z</time>
      </trkpt>
      <trkpt lat="49.11044" lon="6.02166">
        <ele>333.3</ele>
        <time>2011-11-06T10:35:59Z</time>
      </trkpt>
      <trkpt lat="49.1105" lon="6.02175">
        <ele>333.5</ele>
        <time>2011-11-06T10:36:00Z</time>
      </trkpt>
      <trkpt lat="49.11053" lon="6.02187">
        <ele>333.8</ele>
        <time>2011-11-06T10:36:01Z</time>
      </trkpt>
      <trkpt lat="49.11055" lon="6.02198">
        <ele>333.7</ele>
        <time>2011-11-06T10:36:02Z</time>
      </trkpt>
      <trkpt lat="49.1106" lon="6.02209">
        <ele>333.7</ele>
        <time>2011-11-06T10:36:03Z</time>
      </trkpt>
      <trkpt lat="49.11064" lon="6.02219">
        <ele>333.7</ele>
        <time>2011-11-06T10:36:04Z</time>
      </trkpt>
      <trkpt lat="49.11068" lon="6.02229">
        <ele>333.7</ele>
        <time>2011-11-06T10:36:05Z</time>
      </trkpt>
      <trkpt lat="49.11068" lon="6.02242">
        <ele>333.9</ele>
        <time>2011-11-06T10:36:06Z</time>
      </trkpt>
      <trkpt lat="49.11071" lon="6.02251">
        <ele>333.8</ele>
        <time>2011-11-06T10:36:07Z</time>
      </trkpt>
      <trkpt lat="49.11074" lon="6.02265">
        <ele>333.8</ele>
        <time>2011-11-06T10:36:08Z</time>
      </trkpt>
      <trkpt lat="49.11077" lon="6.02278">
        <ele>333.8</ele>
        <time>2011-11-06T10:36:09Z</time>
      </trkpt>
      <trkpt lat="49.11082" lon="6.02287">
        <ele>333.8</ele>
        <time>2011-11-06T10:36:10Z</time>
      </trkpt>
      <trkpt lat="49.11088" lon="6.02298">
        <ele>333.9</ele>
        <time>2011-11-06T10:36:11Z</time>
      </trkpt>
      <trkpt lat="49.11094" lon="6.0231">
        <ele>333.9</ele>
        <time>2011-11-06T10:36:12Z</time>
      </trkpt>
      <trkpt lat="49.11098" lon="6.02321">
        <ele>333.9</ele>
        <time>2011-11-06T10:36:13Z</time>
      </trkpt>
      <trkpt lat="49.11101" lon="6.02333">
        <ele>334.1</ele>
        <time>2011-11-06T10:36:14Z</time>
      </trkpt>
      <trkpt lat="49.11102" lon="6.02346">
        <ele>334.1</ele>
        <time>2011-11-06T10:36:15Z</time>
      </trkpt>
      <trkpt lat="49.11096" lon="6.02346">
        <ele>335.6</ele>
        <time>2011-11-06T10:36:16Z</time>
      </trkpt>
      <trkpt lat="49.11097" lon="6.02358">
        <ele>335.8</ele>
        <time>2011-11-06T10:36:17Z</time>
      </trkpt>
      <trkpt lat="49.11102" lon="6.02368">
        <ele>336.1</ele>
        <time>2011-11-06T10:36:18Z</time>
      </trkpt>
      <trkpt lat="49.11105" lon="6.02377">
        <ele>336.2</ele>
        <time>2011-11-06T10:36:19Z</time>
      </trkpt>
      <trkpt lat="49.11111" lon="6.02385">
        <ele>336.3</ele>
        <time>2011-11-06T10:36:20Z</time>
      </trkpt>
      <trkpt lat="49.11114" lon="6.02393">
        <ele>336.1</ele>
        <time>2011-11-06T10:36:21Z</time>
      </trkpt>
      <trkpt lat="49.11116" lon="6.02402">
        <ele>336</ele>
        <time>2011-11-06T10:36:22Z</time>
      </trkpt>
      <trkpt lat="49.11122" lon="6.02414">
        <ele>336.2</ele>
        <time>2011-11-06T10:36:23Z</time>
      </trkpt>
      <trkpt lat="49.1113" lon="6.02433">
        <ele>334.2</ele>
        <time>2011-11-06T10:36:24Z</time>
      </trkpt>
      <trkpt lat="49.11134" lon="6.02445">
        <ele>334.4</ele>
        <time>2011-11-06T10:36:25Z</time>
      </trkpt>
      <trkpt lat="49.11138" lon="6.02457">
        <ele>334.5</ele>
        <time>2011-11-06T10:36:26Z</time>
      </trkpt>
      <trkpt lat="49.11144" lon="6.0247">
        <ele>335.1</ele>
        <time>2011-11-06T10:36:27Z</time>
      </trkpt>
      <trkpt lat="49.11148" lon="6.02483">
        <ele>335.4</ele>
        <time>2011-11-06T10:36:28Z</time>
      </trkpt>
      <trkpt lat="49.11154" lon="6.02497">
        <ele>335.7</ele>
        <time>2011-11-06T10:36:29Z</time>
      </trkpt>
      <trkpt lat="49.11158" lon="6.02509">
        <ele>335.8</ele>
        <time>2011-11-06T10:36:30Z</time>
      </trkpt>
      <trkpt lat="49.11163" lon="6.02524">
        <ele>336.1</ele>
        <time>2011-11-06T10:36:31Z</time>
      </trkpt>
      <trkpt lat="49.11169" lon="6.02537">
        <ele>336.2</ele>
        <time>2011-11-06T10:36:32Z</time>
      </trkpt>
      <trkpt lat="49.11173" lon="6.02546">
        <ele>336.1</ele>
        <time>2011-11-06T10:36:33Z</time>
      </trkpt>
      <trkpt lat="49.11179" lon="6.02556">
        <ele>336.1</ele>
        <time>2011-11-06T10:36:34Z</time>
      </trkpt>
      <trkpt lat="49.11182" lon="6.02571">
        <ele>336.2</ele>
        <time>2011-11-06T10:36:34Z</time>
      </trkpt>
      <trkpt lat="49.11188" lon="6.02583">
        <ele>336.2</ele>
        <time>2011-11-06T10:36:36Z</time>
      </trkpt>
      <trkpt lat="49.11195" lon="6.02595">
        <ele>336.3</ele>
        <time>2011-11-06T10:36:37Z</time>
      </trkpt>
      <trkpt lat="49.11198" lon="6.02607">
        <ele>336.3</ele>
        <time>2011-11-06T10:36:38Z</time>
      </trkpt>
      <trkpt lat="49.11202" lon="6.02616">
        <ele>336.4</ele>
        <time>2011-11-06T10:36:38Z</time>
      </trkpt>
      <trkpt lat="49.11208" lon="6.02625">
        <ele>336.7</ele>
        <time>2011-11-06T10:36:39Z</time>
      </trkpt>
      <trkpt lat="49.11212" lon="6.02636">
        <ele>336.7</ele>
        <time>2011-11-06T10:36:40Z</time>
      </trkpt>
      <trkpt lat="49.11218" lon="6.02646">
        <ele>336.7</ele>
        <time>2011-11-06T10:36:41Z</time>
      </trkpt>
      <trkpt lat="49.11222" lon="6.0266">
        <ele>336.8</ele>
        <time>2011-11-06T10:36:42Z</time>
      </trkpt>
      <trkpt lat="49.11228" lon="6.02674">
        <ele>336.9</ele>
        <time>2011-11-06T10:36:44Z</time>
      </trkpt>
      <trkpt lat="49.1123" lon="6.02682">
        <ele>336.9</ele>
        <time>2011-11-06T10:36:44Z</time>
      </trkpt>
      <trkpt lat="49.11234" lon="6.0269">
        <ele>336.9</ele>
        <time>2011-11-06T10:36:45Z</time>
      </trkpt>
      <trkpt lat="49.11239" lon="6.02699">
        <ele>336.8</ele>
        <time>2011-11-06T10:36:46Z</time>
      </trkpt>
      <trkpt lat="49.11244" lon="6.02712">
        <ele>337.3</ele>
        <time>2011-11-06T10:36:49Z</time>
      </trkpt>
      <trkpt lat="49.11247" lon="6.02722">
        <ele>337.3</ele>
        <time>2011-11-06T10:36:49Z</time>
      </trkpt>
      <trkpt lat="49.1125" lon="6.0273">
        <ele>337.5</ele>
        <time>2011-11-06T10:36:50Z</time>
      </trkpt>
      <trkpt lat="49.11254" lon="6.02743">
        <ele>337.4</ele>
        <time>2011-11-06T10:36:51Z</time>
      </trkpt>
      <trkpt lat="49.11257" lon="6.02752">
        <ele>337</ele>
        <time>2011-11-06T10:36:52Z</time>
      </trkpt>
      <trkpt lat="49.11262" lon="6.02763">
        <ele>337.2</ele>
        <time>2011-11-06T10:36:54Z</time>
      </trkpt>
      <trkpt lat="49.11269" lon="6.02781">
        <ele>337.6</ele>
        <time>2011-11-06T10:36:57Z</time>
      </trkpt>
      <trkpt lat="49.11275" lon="6.02789">
        <ele>337.7</ele>
        <time>2011-11-06T10:37:00Z</time>
      </trkpt>
      <trkpt lat="49.11277" lon="6.02795">
        <ele>338.3</ele>
        <time>2011-11-06T10:37:00Z</time>
      </trkpt>
      <trkpt lat="49.11278" lon="6.02804">
        <ele>339.2</ele>
        <time>2011-11-06T10:37:02Z</time>
      </trkpt>
      <trkpt lat="49.1128" lon="6.02822">
        <ele>337.5</ele>
        <time>2011-11-06T10:37:05Z</time>
      </trkpt>
      <trkpt lat="49.11276" lon="6.02832">
        <ele>335.2</ele>
        <time>2011-11-06T10:37:06Z</time>
      </trkpt>
      <trkpt lat="49.11269" lon="6.0284">
        <ele>335.3</ele>
        <time>2011-11-06T10:37:08Z</time>
      </trkpt>
      <trkpt lat="49.11264" lon="6.02844">
        <ele>335.5</ele>
        <time>2011-11-06T10:37:10Z</time>
      </trkpt>
      <trkpt lat="49.11253" lon="6.02848">
        <ele>334.4</ele>
        <time>2011-11-06T10:37:12Z</time>
      </trkpt>
      <trkpt lat="49.11248" lon="6.02852">
        <ele>335.2</ele>
        <time>2011-11-06T10:37:13Z</time>
      </trkpt>
      <trkpt lat="49.11242" lon="6.02852">
        <ele>336.6</ele>
        <time>2011-11-06T10:37:14Z</time>
      </trkpt>
      <trkpt lat="49.11236" lon="6.02859">
        <ele>336</ele>
        <time>2011-11-06T10:37:17Z</time>
      </trkpt>
      <trkpt lat="49.1123" lon="6.02861">
        <ele>336.2</ele>
        <time>2011-11-06T10:37:17Z</time>
      </trkpt>
      <trkpt lat="49.1122" lon="6.02866">
        <ele>336.6</ele>
        <time>2011-11-06T10:37:20Z</time>
      </trkpt>
      <trkpt lat="49.11216" lon="6.02868">
        <ele>336.6</ele>
        <time>2011-11-06T10:37:20Z</time>
      </trkpt>
      <trkpt lat="49.11211" lon="6.0287">
        <ele>336.7</ele>
        <time>2011-11-06T10:37:21Z</time>
      </trkpt>
      <trkpt lat="49.11204" lon="6.02875">
        <ele>336.8</ele>
        <time>2011-11-06T10:37:24Z</time>
      </trkpt>
      <trkpt lat="49.11192" lon="6.02879">
        <ele>336.1</ele>
        <time>2011-11-06T10:37:26Z</time>
      </trkpt>
      <trkpt lat="49.11187" lon="6.02882">
        <ele>335.9</ele>
        <time>2011-11-06T10:37:27Z</time>
      </trkpt>
      <trkpt lat="49.11183" lon="6.02884">
        <ele>335.8</ele>
        <time>2011-11-06T10:37:28Z</time>
      </trkpt>
      <trkpt lat="49.11178" lon="6.02886">
        <ele>335.8</ele>
        <time>2011-11-06T10:37:29Z</time>
      </trkpt>
      <trkpt lat="49.11172" lon="6.02891">
        <ele>336.5</ele>
        <time>2011-11-06T10:37:31Z</time>
      </trkpt>
      <trkpt lat="49.11166" lon="6.02896">
        <ele>336.2</ele>
        <time>2011-11-06T10:37:32Z</time>
      </trkpt>
      <trkpt lat="49.11162" lon="6.02898">
        <ele>336.1</ele>
        <time>2011-11-06T10:37:33Z</time>
      </trkpt>
      <trkpt lat="49.1115" lon="6.02897">
        <ele>338.5</ele>
        <time>2011-11-06T10:37:35Z</time>
      </trkpt>
      <trkpt lat="49.11142" lon="6.029">
        <ele>341</ele>
        <time>2011-11-06T10:37:36Z</time>
      </trkpt>
      <trkpt lat="49.11137" lon="6.02902">
        <ele>341</ele>
        <time>2011-11-06T10:37:37Z</time>
      </trkpt>
      <trkpt lat="49.11133" lon="6.02906">
        <ele>341</ele>
        <time>2011-11-06T10:37:38Z</time>
      </trkpt>
      <trkpt lat="49.11129" lon="6.02909">
        <ele>340.7</ele>
        <time>2011-11-06T10:37:39Z</time>
      </trkpt>
      <trkpt lat="49.11122" lon="6.02913">
        <ele>340.7</ele>
        <time>2011-11-06T10:37:41Z</time>
      </trkpt>
      <trkpt lat="49.11118" lon="6.02918">
        <ele>341.5</ele>
        <time>2011-11-06T10:37:42Z</time>
      </trkpt>
      <trkpt lat="49.11108" lon="6.02924">
        <ele>341.5</ele>
        <time>2011-11-06T10:37:44Z</time>
      </trkpt>
      <trkpt lat="49.11103" lon="6.02926">
        <ele>341.2</ele>
        <time>2011-11-06T10:37:45Z</time>
      </trkpt>
      <trkpt lat="49.11098" lon="6.02928">
        <ele>341.2</ele>
        <time>2011-11-06T10:37:46Z</time>
      </trkpt>
      <trkpt lat="49.11093" lon="6.02926">
        <ele>341.2</ele>
        <time>2011-11-06T10:37:48Z</time>
      </trkpt>
      <trkpt lat="49.11086" lon="6.02932">
        <ele>340.9</ele>
        <time>2011-11-06T10:37:51Z</time>
      </trkpt>
      <trkpt lat="49.11081" lon="6.02937">
        <ele>341.1</ele>
        <time>2011-11-06T10:37:53Z</time>
      </trkpt>
      <trkpt lat="49.11074" lon="6.02943">
        <ele>341.1</ele>
        <time>2011-11-06T10:37:57Z</time>
      </trkpt>
      <trkpt lat="49.11066" lon="6.02946">
        <ele>340.8</ele>
        <time>2011-11-06T10:37:59Z</time>
      </trkpt>
      <trkpt lat="49.11061" lon="6.0295">
        <ele>341.2</ele>
        <time>2011-11-06T10:38:00Z</time>
      </trkpt>
      <trkpt lat="49.11055" lon="6.02954">
        <ele>341.6</ele>
        <time>2011-11-06T10:38:02Z</time>
      </trkpt>
      <trkpt lat="49.11048" lon="6.02959">
        <ele>341.2</ele>
        <time>2011-11-06T10:38:04Z</time>
      </trkpt>
      <trkpt lat="49.11042" lon="6.02966">
        <ele>341.2</ele>
        <time>2011-11-06T10:38:06Z</time>
      </trkpt>
      <trkpt lat="49.11037" lon="6.02969">
        <ele>342</ele>
        <time>2011-11-06T10:38:08Z</time>
      </trkpt>
      <trkpt lat="49.11031" lon="6.02966">
        <ele>341.4</ele>
        <time>2011-11-06T10:38:09Z</time>
      </trkpt>
      <trkpt lat="49.11025" lon="6.02969">
        <ele>341.1</ele>
        <time>2011-11-06T10:38:11Z</time>
      </trkpt>
      <trkpt lat="49.1102" lon="6.0297">
        <ele>341.3</ele>
        <time>2011-11-06T10:38:12Z</time>
      </trkpt>
      <trkpt lat="49.11009" lon="6.02975">
        <ele>341.2</ele>
        <time>2011-11-06T10:38:15Z</time>
      </trkpt>
      <trkpt lat="49.11001" lon="6.02978">
        <ele>340.9</ele>
        <time>2011-11-06T10:38:17Z</time>
      </trkpt>
      <trkpt lat="49.10994" lon="6.02984">
        <ele>341</ele>
        <time>2011-11-06T10:38:19Z</time>
      </trkpt>
      <trkpt lat="49.10976" lon="6.02984">
        <ele>339.4</ele>
        <time>2011-11-06T10:38:21Z</time>
      </trkpt>
      <trkpt lat="49.10971" lon="6.02985">
        <ele>340.2</ele>
        <time>2011-11-06T10:38:22Z</time>
      </trkpt>
      <trkpt lat="49.10964" lon="6.0299">
        <ele>339.8</ele>
        <time>2011-11-06T10:38:24Z</time>
      </trkpt>
      <trkpt lat="49.10958" lon="6.02996">
        <ele>341.1</ele>
        <time>2011-11-06T10:38:26Z</time>
      </trkpt>
      <trkpt lat="49.10952" lon="6.02996">
        <ele>340.7</ele>
        <time>2011-11-06T10:38:28Z</time>
      </trkpt>
      <trkpt lat="49.10947" lon="6.02997">
        <ele>340.4</ele>
        <time>2011-11-06T10:38:29Z</time>
      </trkpt>
      <trkpt lat="49.10942" lon="6.03008">
        <ele>338.6</ele>
        <time>2011-11-06T10:38:31Z</time>
      </trkpt>
      <trkpt lat="49.10934" lon="6.03013">
        <ele>340.3</ele>
        <time>2011-11-06T10:38:34Z</time>
      </trkpt>
      <trkpt lat="49.1093" lon="6.03019">
        <ele>340</ele>
        <time>2011-11-06T10:38:36Z</time>
      </trkpt>
      <trkpt lat="49.10919" lon="6.03024">
        <ele>338.4</ele>
        <time>2011-11-06T10:38:38Z</time>
      </trkpt>
      <trkpt lat="49.10914" lon="6.03028">
        <ele>341.1</ele>
        <time>2011-11-06T10:38:44Z</time>
      </trkpt>
      <trkpt lat="49.10903" lon="6.03042">
        <ele>342.6</ele>
        <time>2011-11-06T10:39:11Z</time>
      </trkpt>
      <trkpt lat="49.10899" lon="6.03046">
        <ele>342.7</ele>
        <time>2011-11-06T10:39:12Z</time>
      </trkpt>
      <trkpt lat="49.10852" lon="6.03034">
        <ele>338.4</ele>
        <time>2011-11-06T10:39:13Z</time>
      </trkpt>
      <trkpt lat="49.10842" lon="6.03039">
        <ele>336.5</ele>
        <time>2011-11-06T10:39:14Z</time>
      </trkpt>
      <trkpt lat="49.10835" lon="6.03042">
        <ele>336.5</ele>
        <time>2011-11-06T10:39:15Z</time>
      </trkpt>
      <trkpt lat="49.10829" lon="6.03043">
        <ele>336.3</ele>
        <time>2011-11-06T10:39:16Z</time>
      </trkpt>
      <trkpt lat="49.10823" lon="6.03039">
        <ele>336.6</ele>
        <time>2011-11-06T10:39:17Z</time>
      </trkpt>
      <trkpt lat="49.10817" lon="6.03045">
        <ele>336.2</ele>
        <time>2011-11-06T10:39:18Z</time>
      </trkpt>
      <trkpt lat="49.10811" lon="6.03046">
        <ele>336.2</ele>
        <time>2011-11-06T10:39:19Z</time>
      </trkpt>
      <trkpt lat="49.10805" lon="6.03048">
        <ele>336.1</ele>
        <time>2011-11-06T10:39:20Z</time>
      </trkpt>
      <trkpt lat="49.10796" lon="6.0305">
        <ele>336.3</ele>
        <time>2011-11-06T10:39:21Z</time>
      </trkpt>
      <trkpt lat="49.10789" lon="6.0305">
        <ele>336.3</ele>
        <time>2011-11-06T10:39:22Z</time>
      </trkpt>
      <trkpt lat="49.10782" lon="6.03045">
        <ele>336.6</ele>
        <time>2011-11-06T10:39:23Z</time>
      </trkpt>
      <trkpt lat="49.10775" lon="6.03048">
        <ele>336.5</ele>
        <time>2011-11-06T10:39:24Z</time>
      </trkpt>
      <trkpt lat="49.10768" lon="6.03045">
        <ele>336.5</ele>
        <time>2011-11-06T10:39:25Z</time>
      </trkpt>
      <trkpt lat="49.10761" lon="6.03045">
        <ele>336.5</ele>
        <time>2011-11-06T10:39:26Z</time>
      </trkpt>
      <trkpt lat="49.10754" lon="6.03046">
        <ele>336.5</ele>
        <time>2011-11-06T10:39:27Z</time>
      </trkpt>
      <trkpt lat="49.10733" lon="6.03056">
        <ele>335.4</ele>
        <time>2011-11-06T10:39:28Z</time>
      </trkpt>
      <trkpt lat="49.10714" lon="6.03065">
        <ele>334.2</ele>
        <time>2011-11-06T10:39:29Z</time>
      </trkpt>
      <trkpt lat="49.10706" lon="6.03068">
        <ele>334.2</ele>
        <time>2011-11-06T10:39:30Z</time>
      </trkpt>
      <trkpt lat="49.10695" lon="6.03073">
        <ele>334.5</ele>
        <time>2011-11-06T10:39:32Z</time>
      </trkpt>
      <trkpt lat="49.10687" lon="6.03076">
        <ele>334.5</ele>
        <time>2011-11-06T10:39:33Z</time>
      </trkpt>
      <trkpt lat="49.10678" lon="6.03076">
        <ele>334.4</ele>
        <time>2011-11-06T10:39:34Z</time>
      </trkpt>
      <trkpt lat="49.1067" lon="6.03076">
        <ele>334.4</ele>
        <time>2011-11-06T10:39:35Z</time>
      </trkpt>
      <trkpt lat="49.10662" lon="6.03077">
        <ele>334.4</ele>
        <time>2011-11-06T10:39:36Z</time>
      </trkpt>
      <trkpt lat="49.10639" lon="6.03087">
        <ele>333.8</ele>
        <time>2011-11-06T10:39:37Z</time>
      </trkpt>
      <trkpt lat="49.1063" lon="6.03088">
        <ele>333.8</ele>
        <time>2011-11-06T10:39:38Z</time>
      </trkpt>
      <trkpt lat="49.10618" lon="6.03096">
        <ele>336.1</ele>
        <time>2011-11-06T10:39:39Z</time>
      </trkpt>
      <trkpt lat="49.10609" lon="6.03097">
        <ele>336.1</ele>
        <time>2011-11-06T10:39:40Z</time>
      </trkpt>
      <trkpt lat="49.106" lon="6.03099">
        <ele>336</ele>
        <time>2011-11-06T10:39:41Z</time>
      </trkpt>
      <trkpt lat="49.10595" lon="6.03092">
        <ele>336.3</ele>
        <time>2011-11-06T10:39:43Z</time>
      </trkpt>
      <trkpt lat="49.10588" lon="6.03082">
        <ele>336.7</ele>
        <time>2011-11-06T10:39:44Z</time>
      </trkpt>
      <trkpt lat="49.10581" lon="6.03088">
        <ele>336.4</ele>
        <time>2011-11-06T10:39:45Z</time>
      </trkpt>
      <trkpt lat="49.10574" lon="6.03085">
        <ele>336.5</ele>
        <time>2011-11-06T10:39:46Z</time>
      </trkpt>
      <trkpt lat="49.10567" lon="6.03084">
        <ele>336.7</ele>
        <time>2011-11-06T10:39:47Z</time>
      </trkpt>
      <trkpt lat="49.10555" lon="6.03097">
        <ele>337.7</ele>
        <time>2011-11-06T10:39:48Z</time>
      </trkpt>
      <trkpt lat="49.10549" lon="6.03098">
        <ele>338.1</ele>
        <time>2011-11-06T10:39:49Z</time>
      </trkpt>
      <trkpt lat="49.10541" lon="6.03095">
        <ele>338.2</ele>
        <time>2011-11-06T10:39:50Z</time>
      </trkpt>
      <trkpt lat="49.10533" lon="6.0309">
        <ele>338.3</ele>
        <time>2011-11-06T10:39:51Z</time>
      </trkpt>
      <trkpt lat="49.10526" lon="6.03092">
        <ele>338.2</ele>
        <time>2011-11-06T10:39:52Z</time>
      </trkpt>
      <trkpt lat="49.10518" lon="6.03096">
        <ele>338.1</ele>
        <time>2011-11-06T10:39:53Z</time>
      </trkpt>
      <trkpt lat="49.10511" lon="6.03097">
        <ele>338.1</ele>
        <time>2011-11-06T10:39:54Z</time>
      </trkpt>
      <trkpt lat="49.10479" lon="6.03107">
        <ele>346.8</ele>
        <time>2011-11-06T10:39:58Z</time>
      </trkpt>
      <trkpt lat="49.10475" lon="6.03111">
        <ele>346.8</ele>
        <time>2011-11-06T10:39:59Z</time>
      </trkpt>
      <trkpt lat="49.10469" lon="6.0311">
        <ele>346.5</ele>
        <time>2011-11-06T10:40:00Z</time>
      </trkpt>
      <trkpt lat="49.10462" lon="6.03112">
        <ele>347.5</ele>
        <time>2011-11-06T10:40:01Z</time>
      </trkpt>
      <trkpt lat="49.10456" lon="6.03113">
        <ele>347.6</ele>
        <time>2011-11-06T10:40:02Z</time>
      </trkpt>
      <trkpt lat="49.10448" lon="6.03116">
        <ele>348.9</ele>
        <time>2011-11-06T10:40:03Z</time>
      </trkpt>
      <trkpt lat="49.1044" lon="6.03116">
        <ele>349.3</ele>
        <time>2011-11-06T10:40:04Z</time>
      </trkpt>
      <trkpt lat="49.10433" lon="6.03116">
        <ele>350.7</ele>
        <time>2011-11-06T10:40:05Z</time>
      </trkpt>
      <trkpt lat="49.10426" lon="6.03116">
        <ele>352</ele>
        <time>2011-11-06T10:40:06Z</time>
      </trkpt>
      <trkpt lat="49.10419" lon="6.03117">
        <ele>352</ele>
        <time>2011-11-06T10:40:07Z</time>
      </trkpt>
      <trkpt lat="49.10412" lon="6.03117">
        <ele>354.6</ele>
        <time>2011-11-06T10:40:08Z</time>
      </trkpt>
      <trkpt lat="49.10404" lon="6.03117">
        <ele>354.4</ele>
        <time>2011-11-06T10:40:09Z</time>
      </trkpt>
      <trkpt lat="49.10397" lon="6.03118">
        <ele>354.7</ele>
        <time>2011-11-06T10:40:10Z</time>
      </trkpt>
      <trkpt lat="49.10389" lon="6.03118">
        <ele>355.3</ele>
        <time>2011-11-06T10:40:11Z</time>
      </trkpt>
      <trkpt lat="49.10382" lon="6.03119">
        <ele>354.4</ele>
        <time>2011-11-06T10:40:12Z</time>
      </trkpt>
      <trkpt lat="49.10374" lon="6.0312">
        <ele>354.9</ele>
        <time>2011-11-06T10:40:13Z</time>
      </trkpt>
      <trkpt lat="49.10365" lon="6.03121">
        <ele>355</ele>
        <time>2011-11-06T10:40:14Z</time>
      </trkpt>
      <trkpt lat="49.10358" lon="6.03122">
        <ele>355.5</ele>
        <time>2011-11-06T10:40:15Z</time>
      </trkpt>
      <trkpt lat="49.1035" lon="6.03124">
        <ele>355</ele>
        <time>2011-11-06T10:40:16Z</time>
      </trkpt>
      <trkpt lat="49.10343" lon="6.03127">
        <ele>355</ele>
        <time>2011-11-06T10:40:17Z</time>
      </trkpt>
      <trkpt lat="49.10335" lon="6.03131">
        <ele>355.4</ele>
        <time>2011-11-06T10:40:18Z</time>
      </trkpt>
      <trkpt lat="49.10327" lon="6.03135">
        <ele>354.2</ele>
        <time>2011-11-06T10:40:19Z</time>
      </trkpt>
      <trkpt lat="49.10319" lon="6.0314">
        <ele>353.9</ele>
        <time>2011-11-06T10:40:20Z</time>
      </trkpt>
      <trkpt lat="49.10312" lon="6.03144">
        <ele>353.7</ele>
        <time>2011-11-06T10:40:21Z</time>
      </trkpt>
      <trkpt lat="49.10306" lon="6.0315">
        <ele>354.4</ele>
        <time>2011-11-06T10:40:22Z</time>
      </trkpt>
      <trkpt lat="49.10299" lon="6.03156">
        <ele>354.2</ele>
        <time>2011-11-06T10:40:23Z</time>
      </trkpt>
      <trkpt lat="49.10292" lon="6.03163">
        <ele>354.1</ele>
        <time>2011-11-06T10:40:24Z</time>
      </trkpt>
      <trkpt lat="49.10285" lon="6.0317">
        <ele>353.7</ele>
        <time>2011-11-06T10:40:25Z</time>
      </trkpt>
      <trkpt lat="49.10278" lon="6.03177">
        <ele>353.4</ele>
        <time>2011-11-06T10:40:26Z</time>
      </trkpt>
      <trkpt lat="49.10272" lon="6.03185">
        <ele>353.7</ele>
        <time>2011-11-06T10:40:27Z</time>
      </trkpt>
      <trkpt lat="49.10267" lon="6.03193">
        <ele>353.5</ele>
        <time>2011-11-06T10:40:28Z</time>
      </trkpt>
      <trkpt lat="49.10262" lon="6.03202">
        <ele>353.2</ele>
        <time>2011-11-06T10:40:29Z</time>
      </trkpt>
      <trkpt lat="49.10255" lon="6.03212">
        <ele>351.9</ele>
        <time>2011-11-06T10:40:30Z</time>
      </trkpt>
      <trkpt lat="49.1025" lon="6.03222">
        <ele>351.8</ele>
        <time>2011-11-06T10:40:31Z</time>
      </trkpt>
      <trkpt lat="49.10246" lon="6.03232">
        <ele>351.6</ele>
        <time>2011-11-06T10:40:32Z</time>
      </trkpt>
      <trkpt lat="49.10242" lon="6.03242">
        <ele>351.6</ele>
        <time>2011-11-06T10:40:33Z</time>
      </trkpt>
      <trkpt lat="49.10237" lon="6.03252">
        <ele>351.1</ele>
        <time>2011-11-06T10:40:34Z</time>
      </trkpt>
      <trkpt lat="49.10233" lon="6.03263">
        <ele>351.3</ele>
        <time>2011-11-06T10:40:35Z</time>
      </trkpt>
      <trkpt lat="49.10228" lon="6.03274">
        <ele>351</ele>
        <time>2011-11-06T10:40:36Z</time>
      </trkpt>
      <trkpt lat="49.10224" lon="6.03284">
        <ele>351</ele>
        <time>2011-11-06T10:40:37Z</time>
      </trkpt>
      <trkpt lat="49.10218" lon="6.03294">
        <ele>350.2</ele>
        <time>2011-11-06T10:40:38Z</time>
      </trkpt>
      <trkpt lat="49.10213" lon="6.03305">
        <ele>350.5</ele>
        <time>2011-11-06T10:40:39Z</time>
      </trkpt>
      <trkpt lat="49.10208" lon="6.03316">
        <ele>350.4</ele>
        <time>2011-11-06T10:40:40Z</time>
      </trkpt>
      <trkpt lat="49.10204" lon="6.03326">
        <ele>350</ele>
        <time>2011-11-06T10:40:41Z</time>
      </trkpt>
      <trkpt lat="49.10199" lon="6.03337">
        <ele>349.5</ele>
        <time>2011-11-06T10:40:42Z</time>
      </trkpt>
      <trkpt lat="49.10193" lon="6.03348">
        <ele>350</ele>
        <time>2011-11-06T10:40:43Z</time>
      </trkpt>
      <trkpt lat="49.10187" lon="6.03358">
        <ele>350.3</ele>
        <time>2011-11-06T10:40:44Z</time>
      </trkpt>
      <trkpt lat="49.10181" lon="6.03367">
        <ele>350.1</ele>
        <time>2011-11-06T10:40:45Z</time>
      </trkpt>
      <trkpt lat="49.10174" lon="6.03375">
        <ele>349.6</ele>
        <time>2011-11-06T10:40:46Z</time>
      </trkpt>
      <trkpt lat="49.10166" lon="6.03381">
        <ele>349</ele>
        <time>2011-11-06T10:40:47Z</time>
      </trkpt>
      <trkpt lat="49.10158" lon="6.03387">
        <ele>348.5</ele>
        <time>2011-11-06T10:40:48Z</time>
      </trkpt>
      <trkpt lat="49.10148" lon="6.03392">
        <ele>348.1</ele>
        <time>2011-11-06T10:40:49Z</time>
      </trkpt>
      <trkpt lat="49.10139" lon="6.03396">
        <ele>347.9</ele>
        <time>2011-11-06T10:40:50Z</time>
      </trkpt>
      <trkpt lat="49.1013" lon="6.034">
        <ele>347.8</ele>
        <time>2011-11-06T10:40:51Z</time>
      </trkpt>
      <trkpt lat="49.1012" lon="6.03405">
        <ele>347.3</ele>
        <time>2011-11-06T10:40:52Z</time>
      </trkpt>
      <trkpt lat="49.1011" lon="6.03409">
        <ele>347</ele>
        <time>2011-11-06T10:40:53Z</time>
      </trkpt>
      <trkpt lat="49.101" lon="6.03412">
        <ele>346.1</ele>
        <time>2011-11-06T10:40:54Z</time>
      </trkpt>
      <trkpt lat="49.10091" lon="6.03415">
        <ele>345.4</ele>
        <time>2011-11-06T10:40:55Z</time>
      </trkpt>
      <trkpt lat="49.10081" lon="6.03418">
        <ele>345.1</ele>
        <time>2011-11-06T10:40:56Z</time>
      </trkpt>
      <trkpt lat="49.10071" lon="6.03422">
        <ele>345.1</ele>
        <time>2011-11-06T10:40:57Z</time>
      </trkpt>
      <trkpt lat="49.10061" lon="6.03426">
        <ele>345.6</ele>
        <time>2011-11-06T10:40:58Z</time>
      </trkpt>
      <trkpt lat="49.10052" lon="6.0343">
        <ele>345.1</ele>
        <time>2011-11-06T10:40:59Z</time>
      </trkpt>
      <trkpt lat="49.10042" lon="6.03434">
        <ele>345.2</ele>
        <time>2011-11-06T10:41:00Z</time>
      </trkpt>
      <trkpt lat="49.10033" lon="6.03438">
        <ele>345.1</ele>
        <time>2011-11-06T10:41:01Z</time>
      </trkpt>
      <trkpt lat="49.10023" lon="6.03442">
        <ele>344.9</ele>
        <time>2011-11-06T10:41:02Z</time>
      </trkpt>
      <trkpt lat="49.10014" lon="6.03445">
        <ele>344</ele>
        <time>2011-11-06T10:41:03Z</time>
      </trkpt>
      <trkpt lat="49.10004" lon="6.03449">
        <ele>343.3</ele>
        <time>2011-11-06T10:41:04Z</time>
      </trkpt>
      <trkpt lat="49.09995" lon="6.03453">
        <ele>341.8</ele>
        <time>2011-11-06T10:41:05Z</time>
      </trkpt>
      <trkpt lat="49.09985" lon="6.03457">
        <ele>341.2</ele>
        <time>2011-11-06T10:41:06Z</time>
      </trkpt>
      <trkpt lat="49.09975" lon="6.03461">
        <ele>340.9</ele>
        <time>2011-11-06T10:41:07Z</time>
      </trkpt>
      <trkpt lat="49.09964" lon="6.03465">
        <ele>340.1</ele>
        <time>2011-11-06T10:41:08Z</time>
      </trkpt>
      <trkpt lat="49.09954" lon="6.03469">
        <ele>339.4</ele>
        <time>2011-11-06T10:41:09Z</time>
      </trkpt>
      <trkpt lat="49.09943" lon="6.03473">
        <ele>339.1</ele>
        <time>2011-11-06T10:41:10Z</time>
      </trkpt>
      <trkpt lat="49.09932" lon="6.03477">
        <ele>338.8</ele>
        <time>2011-11-06T10:41:11Z</time>
      </trkpt>
      <trkpt lat="49.09921" lon="6.03481">
        <ele>338.7</ele>
        <time>2011-11-06T10:41:12Z</time>
      </trkpt>
      <trkpt lat="49.0991" lon="6.03486">
        <ele>338.5</ele>
        <time>2011-11-06T10:41:13Z</time>
      </trkpt>
      <trkpt lat="49.09898" lon="6.03487">
        <ele>338.6</ele>
        <time>2011-11-06T10:41:14Z</time>
      </trkpt>
      <trkpt lat="49.09886" lon="6.0349">
        <ele>338.5</ele>
        <time>2011-11-06T10:41:15Z</time>
      </trkpt>
      <trkpt lat="49.09874" lon="6.03487">
        <ele>338.7</ele>
        <time>2011-11-06T10:41:16Z</time>
      </trkpt>
      <trkpt lat="49.0986" lon="6.03484">
        <ele>338.4</ele>
        <time>2011-11-06T10:41:17Z</time>
      </trkpt>
      <trkpt lat="49.09848" lon="6.0348">
        <ele>338.1</ele>
        <time>2011-11-06T10:41:18Z</time>
      </trkpt>
      <trkpt lat="49.09836" lon="6.03478">
        <ele>338</ele>
        <time>2011-11-06T10:41:19Z</time>
      </trkpt>
      <trkpt lat="49.09823" lon="6.03472">
        <ele>337.7</ele>
        <time>2011-11-06T10:41:20Z</time>
      </trkpt>
      <trkpt lat="49.0981" lon="6.03469">
        <ele>337.6</ele>
        <time>2011-11-06T10:41:21Z</time>
      </trkpt>
      <trkpt lat="49.09796" lon="6.03467">
        <ele>337.6</ele>
        <time>2011-11-06T10:41:22Z</time>
      </trkpt>
      <trkpt lat="49.09783" lon="6.03463">
        <ele>337.4</ele>
        <time>2011-11-06T10:41:23Z</time>
      </trkpt>
      <trkpt lat="49.09769" lon="6.03462">
        <ele>337</ele>
        <time>2011-11-06T10:41:24Z</time>
      </trkpt>
      <trkpt lat="49.09754" lon="6.03459">
        <ele>336.3</ele>
        <time>2011-11-06T10:41:25Z</time>
      </trkpt>
      <trkpt lat="49.0974" lon="6.03458">
        <ele>336.2</ele>
        <time>2011-11-06T10:41:26Z</time>
      </trkpt>
      <trkpt lat="49.09726" lon="6.03458">
        <ele>335.9</ele>
        <time>2011-11-06T10:41:27Z</time>
      </trkpt>
      <trkpt lat="49.09712" lon="6.03459">
        <ele>335.8</ele>
        <time>2011-11-06T10:41:28Z</time>
      </trkpt>
      <trkpt lat="49.09698" lon="6.03461">
        <ele>335.4</ele>
        <time>2011-11-06T10:41:29Z</time>
      </trkpt>
      <trkpt lat="49.09684" lon="6.03464">
        <ele>335.3</ele>
        <time>2011-11-06T10:41:30Z</time>
      </trkpt>
      <trkpt lat="49.09668" lon="6.03468">
        <ele>334.8</ele>
        <time>2011-11-06T10:41:31Z</time>
      </trkpt>
      <trkpt lat="49.09652" lon="6.03472">
        <ele>334.6</ele>
        <time>2011-11-06T10:41:32Z</time>
      </trkpt>
      <trkpt lat="49.09642" lon="6.0348">
        <ele>333.8</ele>
        <time>2011-11-06T10:41:33Z</time>
      </trkpt>
      <trkpt lat="49.09628" lon="6.03486">
        <ele>333.4</ele>
        <time>2011-11-06T10:41:34Z</time>
      </trkpt>
      <trkpt lat="49.09614" lon="6.03492">
        <ele>333.3</ele>
        <time>2011-11-06T10:41:35Z</time>
      </trkpt>
      <trkpt lat="49.09597" lon="6.03495">
        <ele>332.5</ele>
        <time>2011-11-06T10:41:36Z</time>
      </trkpt>
      <trkpt lat="49.09583" lon="6.03501">
        <ele>332.4</ele>
        <time>2011-11-06T10:41:37Z</time>
      </trkpt>
      <trkpt lat="49.09573" lon="6.03504">
        <ele>332.5</ele>
        <time>2011-11-06T10:41:38Z</time>
      </trkpt>
      <trkpt lat="49.09558" lon="6.0351">
        <ele>332.8</ele>
        <time>2011-11-06T10:41:39Z</time>
      </trkpt>
      <trkpt lat="49.0954" lon="6.03508">
        <ele>331.9</ele>
        <time>2011-11-06T10:41:40Z</time>
      </trkpt>
      <trkpt lat="49.09531" lon="6.03505">
        <ele>331.9</ele>
        <time>2011-11-06T10:41:41Z</time>
      </trkpt>
      <trkpt lat="49.09515" lon="6.03502">
        <ele>331.1</ele>
        <time>2011-11-06T10:41:42Z</time>
      </trkpt>
      <trkpt lat="49.09502" lon="6.03499">
        <ele>331.1</ele>
        <time>2011-11-06T10:41:43Z</time>
      </trkpt>
      <trkpt lat="49.09489" lon="6.03492">
        <ele>330.6</ele>
        <time>2011-11-06T10:41:44Z</time>
      </trkpt>
      <trkpt lat="49.09472" lon="6.03488">
        <ele>329.2</ele>
        <time>2011-11-06T10:41:45Z</time>
      </trkpt>
      <trkpt lat="49.09459" lon="6.0348">
        <ele>328.7</ele>
        <time>2011-11-06T10:41:46Z</time>
      </trkpt>
      <trkpt lat="49.09445" lon="6.03475">
        <ele>328.7</ele>
        <time>2011-11-06T10:41:47Z</time>
      </trkpt>
      <trkpt lat="49.09431" lon="6.0347">
        <ele>327.8</ele>
        <time>2011-11-06T10:41:48Z</time>
      </trkpt>
      <trkpt lat="49.09416" lon="6.03465">
        <ele>327.4</ele>
        <time>2011-11-06T10:41:49Z</time>
      </trkpt>
      <trkpt lat="49.09402" lon="6.03461">
        <ele>327.3</ele>
        <time>2011-11-06T10:41:50Z</time>
      </trkpt>
      <trkpt lat="49.09386" lon="6.03454">
        <ele>325.5</ele>
        <time>2011-11-06T10:41:51Z</time>
      </trkpt>
      <trkpt lat="49.09375" lon="6.03453">
        <ele>324.4</ele>
        <time>2011-11-06T10:41:52Z</time>
      </trkpt>
      <trkpt lat="49.09361" lon="6.03449">
        <ele>324.3</ele>
        <time>2011-11-06T10:41:53Z</time>
      </trkpt>
      <trkpt lat="49.09347" lon="6.03436">
        <ele>323.6</ele>
        <time>2011-11-06T10:41:54Z</time>
      </trkpt>
      <trkpt lat="49.09331" lon="6.03428">
        <ele>322</ele>
        <time>2011-11-06T10:41:55Z</time>
      </trkpt>
      <trkpt lat="49.09318" lon="6.03421">
        <ele>322.1</ele>
        <time>2011-11-06T10:41:56Z</time>
      </trkpt>
      <trkpt lat="49.09314" lon="6.03399">
        <ele>320.7</ele>
        <time>2011-11-06T10:41:57Z</time>
      </trkpt>
      <trkpt lat="49.09307" lon="6.03389">
        <ele>320</ele>
        <time>2011-11-06T10:41:58Z</time>
      </trkpt>
      <trkpt lat="49.09297" lon="6.03375">
        <ele>317.1</ele>
        <time>2011-11-06T10:41:59Z</time>
      </trkpt>
      <trkpt lat="49.09283" lon="6.03362">
        <ele>314.7</ele>
        <time>2011-11-06T10:42:00Z</time>
      </trkpt>
      <trkpt lat="49.09272" lon="6.03357">
        <ele>314.7</ele>
        <time>2011-11-06T10:42:01Z</time>
      </trkpt>
      <trkpt lat="49.09258" lon="6.03357">
        <ele>313.3</ele>
        <time>2011-11-06T10:42:02Z</time>
      </trkpt>
      <trkpt lat="49.09247" lon="6.0336">
        <ele>312.9</ele>
        <time>2011-11-06T10:42:03Z</time>
      </trkpt>
      <trkpt lat="49.09241" lon="6.03368">
        <ele>311.3</ele>
        <time>2011-11-06T10:42:04Z</time>
      </trkpt>
      <trkpt lat="49.09241" lon="6.03375">
        <ele>309.6</ele>
        <time>2011-11-06T10:42:05Z</time>
      </trkpt>
      <trkpt lat="49.0924" lon="6.03384">
        <ele>308.9</ele>
        <time>2011-11-06T10:42:06Z</time>
      </trkpt>
      <trkpt lat="49.09235" lon="6.0339">
        <ele>309.2</ele>
        <time>2011-11-06T10:42:07Z</time>
      </trkpt>
      <trkpt lat="49.09233" lon="6.03418">
        <ele>307.6</ele>
        <time>2011-11-06T10:42:08Z</time>
      </trkpt>
      <trkpt lat="49.09225" lon="6.03437">
        <ele>306.3</ele>
        <time>2011-11-06T10:42:09Z</time>
      </trkpt>
      <trkpt lat="49.09218" lon="6.03468">
        <ele>299.9</ele>
        <time>2011-11-06T10:42:10Z</time>
      </trkpt>
      <trkpt lat="49.09205" lon="6.0348">
        <ele>299.8</ele>
        <time>2011-11-06T10:42:11Z</time>
      </trkpt>
      <trkpt lat="49.09194" lon="6.03489">
        <ele>299.9</ele>
        <time>2011-11-06T10:42:12Z</time>
      </trkpt>
      <trkpt lat="49.09182" lon="6.03499">
        <ele>299.5</ele>
        <time>2011-11-06T10:42:13Z</time>
      </trkpt>
      <trkpt lat="49.09162" lon="6.0351">
        <ele>298.8</ele>
        <time>2011-11-06T10:42:14Z</time>
      </trkpt>
      <trkpt lat="49.09138" lon="6.03517">
        <ele>297.2</ele>
        <time>2011-11-06T10:42:15Z</time>
      </trkpt>
      <trkpt lat="49.09123" lon="6.03525">
        <ele>296.6</ele>
        <time>2011-11-06T10:42:16Z</time>
      </trkpt>
      <trkpt lat="49.09108" lon="6.03534">
        <ele>295.8</ele>
        <time>2011-11-06T10:42:17Z</time>
      </trkpt>
      <trkpt lat="49.09093" lon="6.03545">
        <ele>295</ele>
        <time>2011-11-06T10:42:18Z</time>
      </trkpt>
      <trkpt lat="49.09079" lon="6.03559">
        <ele>294.1</ele>
        <time>2011-11-06T10:42:19Z</time>
      </trkpt>
      <trkpt lat="49.09061" lon="6.0357">
        <ele>290.7</ele>
        <time>2011-11-06T10:42:20Z</time>
      </trkpt>
      <trkpt lat="49.09047" lon="6.03581">
        <ele>289.4</ele>
        <time>2011-11-06T10:42:21Z</time>
      </trkpt>
      <trkpt lat="49.09031" lon="6.03593">
        <ele>288.9</ele>
        <time>2011-11-06T10:42:22Z</time>
      </trkpt>
      <trkpt lat="49.09015" lon="6.03604">
        <ele>288.4</ele>
        <time>2011-11-06T10:42:23Z</time>
      </trkpt>
      <trkpt lat="49.08997" lon="6.03618">
        <ele>287.4</ele>
        <time>2011-11-06T10:42:24Z</time>
      </trkpt>
      <trkpt lat="49.08982" lon="6.03628">
        <ele>287.2</ele>
        <time>2011-11-06T10:42:25Z</time>
      </trkpt>
      <trkpt lat="49.08961" lon="6.03639">
        <ele>283.2</ele>
        <time>2011-11-06T10:42:26Z</time>
      </trkpt>
      <trkpt lat="49.08946" lon="6.03651">
        <ele>283.5</ele>
        <time>2011-11-06T10:42:27Z</time>
      </trkpt>
      <trkpt lat="49.08931" lon="6.03662">
        <ele>283.6</ele>
        <time>2011-11-06T10:42:28Z</time>
      </trkpt>
      <trkpt lat="49.08916" lon="6.03672">
        <ele>280.1</ele>
        <time>2011-11-06T10:42:29Z</time>
      </trkpt>
      <trkpt lat="49.08902" lon="6.03683">
        <ele>278.7</ele>
        <time>2011-11-06T10:42:30Z</time>
      </trkpt>
      <trkpt lat="49.08889" lon="6.03692">
        <ele>278.1</ele>
        <time>2011-11-06T10:42:31Z</time>
      </trkpt>
      <trkpt lat="49.08876" lon="6.03701">
        <ele>278.4</ele>
        <time>2011-11-06T10:42:32Z</time>
      </trkpt>
      <trkpt lat="49.08864" lon="6.0371">
        <ele>277.7</ele>
        <time>2011-11-06T10:42:33Z</time>
      </trkpt>
      <trkpt lat="49.08851" lon="6.03718">
        <ele>275.9</ele>
        <time>2011-11-06T10:42:34Z</time>
      </trkpt>
      <trkpt lat="49.0884" lon="6.03726">
        <ele>275</ele>
        <time>2011-11-06T10:42:35Z</time>
      </trkpt>
      <trkpt lat="49.0883" lon="6.03736">
        <ele>274.7</ele>
        <time>2011-11-06T10:42:36Z</time>
      </trkpt>
      <trkpt lat="49.0882" lon="6.03744">
        <ele>274.6</ele>
        <time>2011-11-06T10:42:37Z</time>
      </trkpt>
      <trkpt lat="49.08809" lon="6.03753">
        <ele>274.8</ele>
        <time>2011-11-06T10:42:38Z</time>
      </trkpt>
      <trkpt lat="49.08799" lon="6.03762">
        <ele>274.3</ele>
        <time>2011-11-06T10:42:39Z</time>
      </trkpt>
      <trkpt lat="49.08788" lon="6.0377">
        <ele>274.3</ele>
        <time>2011-11-06T10:42:40Z</time>
      </trkpt>
      <trkpt lat="49.08779" lon="6.03777">
        <ele>273.4</ele>
        <time>2011-11-06T10:42:41Z</time>
      </trkpt>
      <trkpt lat="49.0877" lon="6.03786">
        <ele>274</ele>
        <time>2011-11-06T10:42:42Z</time>
      </trkpt>
      <trkpt lat="49.08761" lon="6.03794">
        <ele>274</ele>
        <time>2011-11-06T10:42:43Z</time>
      </trkpt>
      <trkpt lat="49.0875" lon="6.038">
        <ele>273.6</ele>
        <time>2011-11-06T10:42:44Z</time>
      </trkpt>
      <trkpt lat="49.08744" lon="6.03807">
        <ele>272.7</ele>
        <time>2011-11-06T10:42:45Z</time>
      </trkpt>
      <trkpt lat="49.08735" lon="6.03814">
        <ele>272.6</ele>
        <time>2011-11-06T10:42:46Z</time>
      </trkpt>
      <trkpt lat="49.08726" lon="6.03823">
        <ele>271.8</ele>
        <time>2011-11-06T10:42:47Z</time>
      </trkpt>
      <trkpt lat="49.08719" lon="6.03829">
        <ele>272.4</ele>
        <time>2011-11-06T10:42:48Z</time>
      </trkpt>
      <trkpt lat="49.08705" lon="6.03838">
        <ele>272</ele>
        <time>2011-11-06T10:42:49Z</time>
      </trkpt>
      <trkpt lat="49.08695" lon="6.03845">
        <ele>271.9</ele>
        <time>2011-11-06T10:42:50Z</time>
      </trkpt>
      <trkpt lat="49.08688" lon="6.03853">
        <ele>272</ele>
        <time>2011-11-06T10:42:51Z</time>
      </trkpt>
      <trkpt lat="49.08677" lon="6.03862">
        <ele>271.5</ele>
        <time>2011-11-06T10:42:52Z</time>
      </trkpt>
      <trkpt lat="49.08668" lon="6.0387">
        <ele>271.5</ele>
        <time>2011-11-06T10:42:53Z</time>
      </trkpt>
      <trkpt lat="49.08653" lon="6.0388">
        <ele>270.6</ele>
        <time>2011-11-06T10:42:54Z</time>
      </trkpt>
      <trkpt lat="49.08643" lon="6.03888">
        <ele>269.7</ele>
        <time>2011-11-06T10:42:55Z</time>
      </trkpt>
      <trkpt lat="49.08621" lon="6.03904">
        <ele>269.6</ele>
        <time>2011-11-06T10:42:57Z</time>
      </trkpt>
      <trkpt lat="49.08608" lon="6.03912">
        <ele>269.2</ele>
        <time>2011-11-06T10:42:58Z</time>
      </trkpt>
      <trkpt lat="49.08599" lon="6.03922">
        <ele>269.4</ele>
        <time>2011-11-06T10:42:59Z</time>
      </trkpt>
      <trkpt lat="49.08586" lon="6.03929">
        <ele>268.4</ele>
        <time>2011-11-06T10:43:00Z</time>
      </trkpt>
      <trkpt lat="49.08576" lon="6.03937">
        <ele>267.9</ele>
        <time>2011-11-06T10:43:01Z</time>
      </trkpt>
      <trkpt lat="49.08566" lon="6.03944">
        <ele>267.9</ele>
        <time>2011-11-06T10:43:02Z</time>
      </trkpt>
      <trkpt lat="49.08556" lon="6.03956">
        <ele>266</ele>
        <time>2011-11-06T10:43:03Z</time>
      </trkpt>
      <trkpt lat="49.08546" lon="6.03963">
        <ele>265.4</ele>
        <time>2011-11-06T10:43:04Z</time>
      </trkpt>
      <trkpt lat="49.08535" lon="6.03973">
        <ele>264.9</ele>
        <time>2011-11-06T10:43:05Z</time>
      </trkpt>
      <trkpt lat="49.08525" lon="6.03981">
        <ele>264.9</ele>
        <time>2011-11-06T10:43:06Z</time>
      </trkpt>
      <trkpt lat="49.08517" lon="6.03989">
        <ele>265.1</ele>
        <time>2011-11-06T10:43:07Z</time>
      </trkpt>
      <trkpt lat="49.0851" lon="6.03999">
        <ele>264.3</ele>
        <time>2011-11-06T10:43:08Z</time>
      </trkpt>
      <trkpt lat="49.085" lon="6.04008">
        <ele>264.3</ele>
        <time>2011-11-06T10:43:09Z</time>
      </trkpt>
      <trkpt lat="49.08489" lon="6.04014">
        <ele>264.1</ele>
        <time>2011-11-06T10:43:10Z</time>
      </trkpt>
      <trkpt lat="49.08478" lon="6.04022">
        <ele>264</ele>
        <time>2011-11-06T10:43:11Z</time>
      </trkpt>
      <trkpt lat="49.08468" lon="6.04033">
        <ele>264.2</ele>
        <time>2011-11-06T10:43:12Z</time>
      </trkpt>
      <trkpt lat="49.08462" lon="6.0404">
        <ele>265</ele>
        <time>2011-11-06T10:43:13Z</time>
      </trkpt>
      <trkpt lat="49.08453" lon="6.04048">
        <ele>265.4</ele>
        <time>2011-11-06T10:43:14Z</time>
      </trkpt>
      <trkpt lat="49.08444" lon="6.04057">
        <ele>265.4</ele>
        <time>2011-11-06T10:43:15Z</time>
      </trkpt>
      <trkpt lat="49.08431" lon="6.04065">
        <ele>265.3</ele>
        <time>2011-11-06T10:43:16Z</time>
      </trkpt>
      <trkpt lat="49.08426" lon="6.04077">
        <ele>264.9</ele>
        <time>2011-11-06T10:43:17Z</time>
      </trkpt>
      <trkpt lat="49.0842" lon="6.04092">
        <ele>263.7</ele>
        <time>2011-11-06T10:43:18Z</time>
      </trkpt>
      <trkpt lat="49.08411" lon="6.04104">
        <ele>262.5</ele>
        <time>2011-11-06T10:43:19Z</time>
      </trkpt>
      <trkpt lat="49.08403" lon="6.04113">
        <ele>262.4</ele>
        <time>2011-11-06T10:43:20Z</time>
      </trkpt>
      <trkpt lat="49.08394" lon="6.04123">
        <ele>262</ele>
        <time>2011-11-06T10:43:21Z</time>
      </trkpt>
      <trkpt lat="49.08387" lon="6.04131">
        <ele>261.6</ele>
        <time>2011-11-06T10:43:22Z</time>
      </trkpt>
      <trkpt lat="49.08382" lon="6.04142">
        <ele>260.7</ele>
        <time>2011-11-06T10:43:23Z</time>
      </trkpt>
      <trkpt lat="49.08374" lon="6.0415">
        <ele>260.2</ele>
        <time>2011-11-06T10:43:24Z</time>
      </trkpt>
      <trkpt lat="49.08369" lon="6.0416">
        <ele>260</ele>
        <time>2011-11-06T10:43:25Z</time>
      </trkpt>
      <trkpt lat="49.08366" lon="6.0417">
        <ele>259.6</ele>
        <time>2011-11-06T10:43:26Z</time>
      </trkpt>
      <trkpt lat="49.08359" lon="6.04181">
        <ele>259.5</ele>
        <time>2011-11-06T10:43:27Z</time>
      </trkpt>
      <trkpt lat="49.08354" lon="6.04192">
        <ele>259.4</ele>
        <time>2011-11-06T10:43:28Z</time>
      </trkpt>
      <trkpt lat="49.08348" lon="6.042">
        <ele>259.9</ele>
        <time>2011-11-06T10:43:29Z</time>
      </trkpt>
      <trkpt lat="49.08343" lon="6.04211">
        <ele>259.9</ele>
        <time>2011-11-06T10:43:30Z</time>
      </trkpt>
      <trkpt lat="49.08333" lon="6.04222">
        <ele>260</ele>
        <time>2011-11-06T10:43:31Z</time>
      </trkpt>
      <trkpt lat="49.08328" lon="6.04234">
        <ele>260.3</ele>
        <time>2011-11-06T10:43:32Z</time>
      </trkpt>
      <trkpt lat="49.0832" lon="6.04244">
        <ele>259.8</ele>
        <time>2011-11-06T10:43:33Z</time>
      </trkpt>
      <trkpt lat="49.08315" lon="6.04257">
        <ele>259.4</ele>
        <time>2011-11-06T10:43:34Z</time>
      </trkpt>
      <trkpt lat="49.08306" lon="6.04268">
        <ele>259.1</ele>
        <time>2011-11-06T10:43:35Z</time>
      </trkpt>
      <trkpt lat="49.08298" lon="6.04278">
        <ele>258.9</ele>
        <time>2011-11-06T10:43:36Z</time>
      </trkpt>
      <trkpt lat="49.08291" lon="6.04289">
        <ele>259</ele>
        <time>2011-11-06T10:43:37Z</time>
      </trkpt>
      <trkpt lat="49.08283" lon="6.04301">
        <ele>259.1</ele>
        <time>2011-11-06T10:43:38Z</time>
      </trkpt>
      <trkpt lat="49.08278" lon="6.04315">
        <ele>259.1</ele>
        <time>2011-11-06T10:43:39Z</time>
      </trkpt>
      <trkpt lat="49.08272" lon="6.04327">
        <ele>259.1</ele>
        <time>2011-11-06T10:43:40Z</time>
      </trkpt>
      <trkpt lat="49.08268" lon="6.04342">
        <ele>259.5</ele>
        <time>2011-11-06T10:43:41Z</time>
      </trkpt>
      <trkpt lat="49.08261" lon="6.04355">
        <ele>259.2</ele>
        <time>2011-11-06T10:43:42Z</time>
      </trkpt>
      <trkpt lat="49.08254" lon="6.04366">
        <ele>259.1</ele>
        <time>2011-11-06T10:43:43Z</time>
      </trkpt>
      <trkpt lat="49.08246" lon="6.04376">
        <ele>259.4</ele>
        <time>2011-11-06T10:43:44Z</time>
      </trkpt>
      <trkpt lat="49.08236" lon="6.04386">
        <ele>258.7</ele>
        <time>2011-11-06T10:43:45Z</time>
      </trkpt>
      <trkpt lat="49.08232" lon="6.044">
        <ele>259.1</ele>
        <time>2011-11-06T10:43:46Z</time>
      </trkpt>
      <trkpt lat="49.08225" lon="6.04411">
        <ele>259.1</ele>
        <time>2011-11-06T10:43:47Z</time>
      </trkpt>
      <trkpt lat="49.08219" lon="6.04424">
        <ele>259.4</ele>
        <time>2011-11-06T10:43:48Z</time>
      </trkpt>
      <trkpt lat="49.08211" lon="6.04436">
        <ele>259.5</ele>
        <time>2011-11-06T10:43:49Z</time>
      </trkpt>
      <trkpt lat="49.082" lon="6.04444">
        <ele>260.2</ele>
        <time>2011-11-06T10:43:50Z</time>
      </trkpt>
      <trkpt lat="49.08194" lon="6.04455">
        <ele>260.6</ele>
        <time>2011-11-06T10:43:51Z</time>
      </trkpt>
      <trkpt lat="49.08187" lon="6.04465">
        <ele>260.9</ele>
        <time>2011-11-06T10:43:52Z</time>
      </trkpt>
      <trkpt lat="49.08182" lon="6.04477">
        <ele>261.3</ele>
        <time>2011-11-06T10:43:53Z</time>
      </trkpt>
      <trkpt lat="49.08178" lon="6.04485">
        <ele>261.5</ele>
        <time>2011-11-06T10:43:54Z</time>
      </trkpt>
      <trkpt lat="49.08172" lon="6.04495">
        <ele>261.6</ele>
        <time>2011-11-06T10:43:55Z</time>
      </trkpt>
      <trkpt lat="49.08174" lon="6.04531">
        <ele>261.5</ele>
        <time>2011-11-06T10:43:58Z</time>
      </trkpt>
      <trkpt lat="49.0817" lon="6.04538">
        <ele>261.5</ele>
        <time>2011-11-06T10:43:59Z</time>
      </trkpt>
      <trkpt lat="49.08168" lon="6.04546">
        <ele>261.5</ele>
        <time>2011-11-06T10:44:00Z</time>
      </trkpt>
      <trkpt lat="49.08159" lon="6.04555">
        <ele>261.7</ele>
        <time>2011-11-06T10:44:01Z</time>
      </trkpt>
      <trkpt lat="49.08152" lon="6.04566">
        <ele>261.7</ele>
        <time>2011-11-06T10:44:02Z</time>
      </trkpt>
      <trkpt lat="49.08144" lon="6.04577">
        <ele>261.7</ele>
        <time>2011-11-06T10:44:03Z</time>
      </trkpt>
      <trkpt lat="49.08142" lon="6.04597">
        <ele>261.9</ele>
        <time>2011-11-06T10:44:04Z</time>
      </trkpt>
      <trkpt lat="49.08139" lon="6.04612">
        <ele>261.9</ele>
        <time>2011-11-06T10:44:05Z</time>
      </trkpt>
      <trkpt lat="49.08134" lon="6.04629">
        <ele>261.9</ele>
        <time>2011-11-06T10:44:06Z</time>
      </trkpt>
      <trkpt lat="49.08131" lon="6.04647">
        <ele>261.9</ele>
        <time>2011-11-06T10:44:07Z</time>
      </trkpt>
      <trkpt lat="49.08126" lon="6.04662">
        <ele>261.9</ele>
        <time>2011-11-06T10:44:08Z</time>
      </trkpt>
      <trkpt lat="49.08122" lon="6.04679">
        <ele>262</ele>
        <time>2011-11-06T10:44:09Z</time>
      </trkpt>
      <trkpt lat="49.08119" lon="6.04692">
        <ele>262.1</ele>
        <time>2011-11-06T10:44:10Z</time>
      </trkpt>
      <trkpt lat="49.08116" lon="6.04706">
        <ele>262.1</ele>
        <time>2011-11-06T10:44:11Z</time>
      </trkpt>
      <trkpt lat="49.08113" lon="6.04723">
        <ele>262.1</ele>
        <time>2011-11-06T10:44:12Z</time>
      </trkpt>
      <trkpt lat="49.08109" lon="6.04738">
        <ele>262.1</ele>
        <time>2011-11-06T10:44:13Z</time>
      </trkpt>
      <trkpt lat="49.08106" lon="6.04752">
        <ele>262.1</ele>
        <time>2011-11-06T10:44:14Z</time>
      </trkpt>
      <trkpt lat="49.08106" lon="6.04764">
        <ele>262.1</ele>
        <time>2011-11-06T10:44:15Z</time>
      </trkpt>
      <trkpt lat="49.08104" lon="6.04778">
        <ele>262.2</ele>
        <time>2011-11-06T10:44:16Z</time>
      </trkpt>
      <trkpt lat="49.08101" lon="6.04791">
        <ele>262.3</ele>
        <time>2011-11-06T10:44:17Z</time>
      </trkpt>
      <trkpt lat="49.08106" lon="6.0482">
        <ele>262.1</ele>
        <time>2011-11-06T10:44:18Z</time>
      </trkpt>
      <trkpt lat="49.08104" lon="6.04833">
        <ele>262.2</ele>
        <time>2011-11-06T10:44:19Z</time>
      </trkpt>
      <trkpt lat="49.081" lon="6.04848">
        <ele>262.2</ele>
        <time>2011-11-06T10:44:20Z</time>
      </trkpt>
      <trkpt lat="49.08101" lon="6.0486">
        <ele>262.1</ele>
        <time>2011-11-06T10:44:21Z</time>
      </trkpt>
      <trkpt lat="49.081" lon="6.04874">
        <ele>262.1</ele>
        <time>2011-11-06T10:44:22Z</time>
      </trkpt>
      <trkpt lat="49.08096" lon="6.04889">
        <ele>262.1</ele>
        <time>2011-11-06T10:44:23Z</time>
      </trkpt>
      <trkpt lat="49.08089" lon="6.04897">
        <ele>262.1</ele>
        <time>2011-11-06T10:44:24Z</time>
      </trkpt>
      <trkpt lat="49.08083" lon="6.04912">
        <ele>262.1</ele>
        <time>2011-11-06T10:44:25Z</time>
      </trkpt>
      <trkpt lat="49.08068" lon="6.04901">
        <ele>262.1</ele>
        <time>2011-11-06T10:44:26Z</time>
      </trkpt>
      <trkpt lat="49.08064" lon="6.04911">
        <ele>262.1</ele>
        <time>2011-11-06T10:44:27Z</time>
      </trkpt>
      <trkpt lat="49.08061" lon="6.04924">
        <ele>262.1</ele>
        <time>2011-11-06T10:44:28Z</time>
      </trkpt>
      <trkpt lat="49.08057" lon="6.04934">
        <ele>262.1</ele>
        <time>2011-11-06T10:44:29Z</time>
      </trkpt>
      <trkpt lat="49.08058" lon="6.04956">
        <ele>262.1</ele>
        <time>2011-11-06T10:44:30Z</time>
      </trkpt>
      <trkpt lat="49.08056" lon="6.04968">
        <ele>262.1</ele>
        <time>2011-11-06T10:44:31Z</time>
      </trkpt>
      <trkpt lat="49.0805" lon="6.04977">
        <ele>262.1</ele>
        <time>2011-11-06T10:44:32Z</time>
      </trkpt>
      <trkpt lat="49.08044" lon="6.04986">
        <ele>262.1</ele>
        <time>2011-11-06T10:44:33Z</time>
      </trkpt>
      <trkpt lat="49.08033" lon="6.04986">
        <ele>262.1</ele>
        <time>2011-11-06T10:44:34Z</time>
      </trkpt>
      <trkpt lat="49.08028" lon="6.04996">
        <ele>262</ele>
        <time>2011-11-06T10:44:35Z</time>
      </trkpt>
      <trkpt lat="49.0803" lon="6.05025">
        <ele>262</ele>
        <time>2011-11-06T10:44:36Z</time>
      </trkpt>
      <trkpt lat="49.08025" lon="6.05035">
        <ele>262</ele>
        <time>2011-11-06T10:44:37Z</time>
      </trkpt>
      <trkpt lat="49.08025" lon="6.05053">
        <ele>262</ele>
        <time>2011-11-06T10:44:38Z</time>
      </trkpt>
      <trkpt lat="49.08028" lon="6.05073">
        <ele>262</ele>
        <time>2011-11-06T10:44:39Z</time>
      </trkpt>
      <trkpt lat="49.08024" lon="6.05082">
        <ele>262</ele>
        <time>2011-11-06T10:44:40Z</time>
      </trkpt>
      <trkpt lat="49.08023" lon="6.05096">
        <ele>262</ele>
        <time>2011-11-06T10:44:41Z</time>
      </trkpt>
      <trkpt lat="49.08026" lon="6.05113">
        <ele>262</ele>
        <time>2011-11-06T10:44:42Z</time>
      </trkpt>
      <trkpt lat="49.08025" lon="6.0512">
        <ele>262</ele>
        <time>2011-11-06T10:44:43Z</time>
      </trkpt>
      <trkpt lat="49.08024" lon="6.05131">
        <ele>262</ele>
        <time>2011-11-06T10:44:44Z</time>
      </trkpt>
      <trkpt lat="49.08027" lon="6.05155">
        <ele>262.1</ele>
        <time>2011-11-06T10:44:45Z</time>
      </trkpt>
      <trkpt lat="49.08029" lon="6.05173">
        <ele>262</ele>
        <time>2011-11-06T10:44:46Z</time>
      </trkpt>
      <trkpt lat="49.08028" lon="6.05185">
        <ele>262</ele>
        <time>2011-11-06T10:44:47Z</time>
      </trkpt>
      <trkpt lat="49.08033" lon="6.05215">
        <ele>262.1</ele>
        <time>2011-11-06T10:44:48Z</time>
      </trkpt>
      <trkpt lat="49.0803" lon="6.05228">
        <ele>262</ele>
        <time>2011-11-06T10:44:49Z</time>
      </trkpt>
      <trkpt lat="49.08028" lon="6.0524">
        <ele>262</ele>
        <time>2011-11-06T10:44:50Z</time>
      </trkpt>
      <trkpt lat="49.08027" lon="6.05259">
        <ele>262</ele>
        <time>2011-11-06T10:44:51Z</time>
      </trkpt>
      <trkpt lat="49.08026" lon="6.05277">
        <ele>262</ele>
        <time>2011-11-06T10:44:52Z</time>
      </trkpt>
      <trkpt lat="49.08027" lon="6.05296">
        <ele>262</ele>
        <time>2011-11-06T10:44:53Z</time>
      </trkpt>
      <trkpt lat="49.08028" lon="6.05315">
        <ele>262</ele>
        <time>2011-11-06T10:44:54Z</time>
      </trkpt>
      <trkpt lat="49.08054" lon="6.05387">
        <ele>264.2</ele>
        <time>2011-11-06T10:44:55Z</time>
      </trkpt>
      <trkpt lat="49.0805" lon="6.0544">
        <ele>258.2</ele>
        <time>2011-11-06T10:44:58Z</time>
      </trkpt>
      <trkpt lat="49.08051" lon="6.05457">
        <ele>257.9</ele>
        <time>2011-11-06T10:44:59Z</time>
      </trkpt>
      <trkpt lat="49.0805" lon="6.05475">
        <ele>257.1</ele>
        <time>2011-11-06T10:45:00Z</time>
      </trkpt>
      <trkpt lat="49.08045" lon="6.0549">
        <ele>256.7</ele>
        <time>2011-11-06T10:45:01Z</time>
      </trkpt>
      <trkpt lat="49.08044" lon="6.05508">
        <ele>256.8</ele>
        <time>2011-11-06T10:45:02Z</time>
      </trkpt>
      <trkpt lat="49.08038" lon="6.0552">
        <ele>259.3</ele>
        <time>2011-11-06T10:45:03Z</time>
      </trkpt>
      <trkpt lat="49.08036" lon="6.05536">
        <ele>259.3</ele>
        <time>2011-11-06T10:45:04Z</time>
      </trkpt>
      <trkpt lat="49.08036" lon="6.05556">
        <ele>259.5</ele>
        <time>2011-11-06T10:45:05Z</time>
      </trkpt>
      <trkpt lat="49.08032" lon="6.05574">
        <ele>259</ele>
        <time>2011-11-06T10:45:06Z</time>
      </trkpt>
      <trkpt lat="49.08027" lon="6.0559">
        <ele>259.6</ele>
        <time>2011-11-06T10:45:07Z</time>
      </trkpt>
      <trkpt lat="49.08026" lon="6.05607">
        <ele>258.8</ele>
        <time>2011-11-06T10:45:08Z</time>
      </trkpt>
      <trkpt lat="49.08026" lon="6.05629">
        <ele>257</ele>
        <time>2011-11-06T10:45:09Z</time>
      </trkpt>
      <trkpt lat="49.08026" lon="6.0565">
        <ele>257</ele>
        <time>2011-11-06T10:45:10Z</time>
      </trkpt>
      <trkpt lat="49.08024" lon="6.05668">
        <ele>257</ele>
        <time>2011-11-06T10:45:11Z</time>
      </trkpt>
      <trkpt lat="49.08023" lon="6.05689">
        <ele>257.3</ele>
        <time>2011-11-06T10:45:12Z</time>
      </trkpt>
      <trkpt lat="49.08023" lon="6.05713">
        <ele>255.7</ele>
        <time>2011-11-06T10:45:13Z</time>
      </trkpt>
      <trkpt lat="49.08021" lon="6.05732">
        <ele>253.7</ele>
        <time>2011-11-06T10:45:14Z</time>
      </trkpt>
      <trkpt lat="49.08019" lon="6.0575">
        <ele>253</ele>
        <time>2011-11-06T10:45:15Z</time>
      </trkpt>
      <trkpt lat="49.08014" lon="6.05767">
        <ele>252.8</ele>
        <time>2011-11-06T10:45:16Z</time>
      </trkpt>
      <trkpt lat="49.08013" lon="6.05786">
        <ele>252.4</ele>
        <time>2011-11-06T10:45:17Z</time>
      </trkpt>
      <trkpt lat="49.08015" lon="6.05806">
        <ele>252</ele>
        <time>2011-11-06T10:45:18Z</time>
      </trkpt>
      <trkpt lat="49.08011" lon="6.05822">
        <ele>252.3</ele>
        <time>2011-11-06T10:45:19Z</time>
      </trkpt>
      <trkpt lat="49.08005" lon="6.05834">
        <ele>251</ele>
        <time>2011-11-06T10:45:20Z</time>
      </trkpt>
      <trkpt lat="49.08005" lon="6.05856">
        <ele>249</ele>
        <time>2011-11-06T10:45:21Z</time>
      </trkpt>
      <trkpt lat="49.08004" lon="6.05873">
        <ele>248.3</ele>
        <time>2011-11-06T10:45:22Z</time>
      </trkpt>
      <trkpt lat="49.08003" lon="6.05892">
        <ele>248.1</ele>
        <time>2011-11-06T10:45:23Z</time>
      </trkpt>
      <trkpt lat="49.08001" lon="6.05908">
        <ele>248.1</ele>
        <time>2011-11-06T10:45:24Z</time>
      </trkpt>
      <trkpt lat="49.08001" lon="6.05926">
        <ele>248.4</ele>
        <time>2011-11-06T10:45:25Z</time>
      </trkpt>
      <trkpt lat="49.07998" lon="6.05942">
        <ele>249.3</ele>
        <time>2011-11-06T10:45:26Z</time>
      </trkpt>
      <trkpt lat="49.07998" lon="6.0596">
        <ele>249.4</ele>
        <time>2011-11-06T10:45:27Z</time>
      </trkpt>
      <trkpt lat="49.07997" lon="6.05975">
        <ele>248.5</ele>
        <time>2011-11-06T10:45:28Z</time>
      </trkpt>
      <trkpt lat="49.07995" lon="6.05991">
        <ele>246.7</ele>
        <time>2011-11-06T10:45:29Z</time>
      </trkpt>
      <trkpt lat="49.07994" lon="6.06008">
        <ele>246.3</ele>
        <time>2011-11-06T10:45:30Z</time>
      </trkpt>
      <trkpt lat="49.07993" lon="6.06026">
        <ele>246.1</ele>
        <time>2011-11-06T10:45:31Z</time>
      </trkpt>
      <trkpt lat="49.07989" lon="6.0604">
        <ele>245.3</ele>
        <time>2011-11-06T10:45:32Z</time>
      </trkpt>
      <trkpt lat="49.07985" lon="6.06056">
        <ele>245.3</ele>
        <time>2011-11-06T10:45:33Z</time>
      </trkpt>
      <trkpt lat="49.0798" lon="6.06068">
        <ele>246.1</ele>
        <time>2011-11-06T10:45:34Z</time>
      </trkpt>
      <trkpt lat="49.07977" lon="6.06086">
        <ele>244.5</ele>
        <time>2011-11-06T10:45:35Z</time>
      </trkpt>
      <trkpt lat="49.07974" lon="6.06101">
        <ele>243.7</ele>
        <time>2011-11-06T10:45:36Z</time>
      </trkpt>
      <trkpt lat="49.07971" lon="6.06115">
        <ele>243.7</ele>
        <time>2011-11-06T10:45:37Z</time>
      </trkpt>
      <trkpt lat="49.07968" lon="6.0613">
        <ele>243.9</ele>
        <time>2011-11-06T10:45:38Z</time>
      </trkpt>
      <trkpt lat="49.0797" lon="6.06153">
        <ele>242.4</ele>
        <time>2011-11-06T10:45:39Z</time>
      </trkpt>
      <trkpt lat="49.07967" lon="6.06168">
        <ele>242.5</ele>
        <time>2011-11-06T10:45:40Z</time>
      </trkpt>
      <trkpt lat="49.07963" lon="6.06178">
        <ele>244.1</ele>
        <time>2011-11-06T10:45:41Z</time>
      </trkpt>
      <trkpt lat="49.07957" lon="6.0619">
        <ele>242.9</ele>
        <time>2011-11-06T10:45:42Z</time>
      </trkpt>
      <trkpt lat="49.07948" lon="6.06203">
        <ele>243.4</ele>
        <time>2011-11-06T10:45:43Z</time>
      </trkpt>
      <trkpt lat="49.07944" lon="6.06218">
        <ele>243</ele>
        <time>2011-11-06T10:45:44Z</time>
      </trkpt>
      <trkpt lat="49.07941" lon="6.06232">
        <ele>243.1</ele>
        <time>2011-11-06T10:45:45Z</time>
      </trkpt>
      <trkpt lat="49.07935" lon="6.06245">
        <ele>242.9</ele>
        <time>2011-11-06T10:45:46Z</time>
      </trkpt>
      <trkpt lat="49.07931" lon="6.06263">
        <ele>243.2</ele>
        <time>2011-11-06T10:45:47Z</time>
      </trkpt>
      <trkpt lat="49.0793" lon="6.06282">
        <ele>243.6</ele>
        <time>2011-11-06T10:45:48Z</time>
      </trkpt>
      <trkpt lat="49.07924" lon="6.06292">
        <ele>243.7</ele>
        <time>2011-11-06T10:45:49Z</time>
      </trkpt>
      <trkpt lat="49.07919" lon="6.06305">
        <ele>243</ele>
        <time>2011-11-06T10:45:50Z</time>
      </trkpt>
      <trkpt lat="49.07917" lon="6.0632">
        <ele>243.2</ele>
        <time>2011-11-06T10:45:51Z</time>
      </trkpt>
      <trkpt lat="49.07914" lon="6.06335">
        <ele>242.8</ele>
        <time>2011-11-06T10:45:52Z</time>
      </trkpt>
      <trkpt lat="49.07912" lon="6.0635">
        <ele>242.7</ele>
        <time>2011-11-06T10:45:53Z</time>
      </trkpt>
      <trkpt lat="49.07912" lon="6.06366">
        <ele>242.8</ele>
        <time>2011-11-06T10:45:54Z</time>
      </trkpt>
      <trkpt lat="49.07914" lon="6.06382">
        <ele>241.9</ele>
        <time>2011-11-06T10:45:55Z</time>
      </trkpt>
      <trkpt lat="49.07913" lon="6.06413">
        <ele>242.9</ele>
        <time>2011-11-06T10:45:57Z</time>
      </trkpt>
      <trkpt lat="49.07911" lon="6.06426">
        <ele>243</ele>
        <time>2011-11-06T10:45:58Z</time>
      </trkpt>
      <trkpt lat="49.07912" lon="6.06441">
        <ele>243.2</ele>
        <time>2011-11-06T10:45:59Z</time>
      </trkpt>
      <trkpt lat="49.07913" lon="6.06455">
        <ele>243</ele>
        <time>2011-11-06T10:46:00Z</time>
      </trkpt>
      <trkpt lat="49.07915" lon="6.06471">
        <ele>243.3</ele>
        <time>2011-11-06T10:46:01Z</time>
      </trkpt>
      <trkpt lat="49.07918" lon="6.06488">
        <ele>243.5</ele>
        <time>2011-11-06T10:46:02Z</time>
      </trkpt>
      <trkpt lat="49.07921" lon="6.06506">
        <ele>243.1</ele>
        <time>2011-11-06T10:46:03Z</time>
      </trkpt>
      <trkpt lat="49.0792" lon="6.06522">
        <ele>242.6</ele>
        <time>2011-11-06T10:46:04Z</time>
      </trkpt>
      <trkpt lat="49.07922" lon="6.06538">
        <ele>242.3</ele>
        <time>2011-11-06T10:46:05Z</time>
      </trkpt>
      <trkpt lat="49.07923" lon="6.06552">
        <ele>242.6</ele>
        <time>2011-11-06T10:46:06Z</time>
      </trkpt>
      <trkpt lat="49.07924" lon="6.06567">
        <ele>242.6</ele>
        <time>2011-11-06T10:46:07Z</time>
      </trkpt>
      <trkpt lat="49.07925" lon="6.06584">
        <ele>242.1</ele>
        <time>2011-11-06T10:46:08Z</time>
      </trkpt>
      <trkpt lat="49.07924" lon="6.06596">
        <ele>242.5</ele>
        <time>2011-11-06T10:46:09Z</time>
      </trkpt>
      <trkpt lat="49.07925" lon="6.06611">
        <ele>242.2</ele>
        <time>2011-11-06T10:46:10Z</time>
      </trkpt>
      <trkpt lat="49.07924" lon="6.06624">
        <ele>242.1</ele>
        <time>2011-11-06T10:46:11Z</time>
      </trkpt>
      <trkpt lat="49.07924" lon="6.06638">
        <ele>242.1</ele>
        <time>2011-11-06T10:46:12Z</time>
      </trkpt>
      <trkpt lat="49.07924" lon="6.06653">
        <ele>242.1</ele>
        <time>2011-11-06T10:46:13Z</time>
      </trkpt>
      <trkpt lat="49.07924" lon="6.0667">
        <ele>242</ele>
        <time>2011-11-06T10:46:14Z</time>
      </trkpt>
      <trkpt lat="49.07924" lon="6.06685">
        <ele>242</ele>
        <time>2011-11-06T10:46:15Z</time>
      </trkpt>
      <trkpt lat="49.07928" lon="6.06704">
        <ele>241.4</ele>
        <time>2011-11-06T10:46:16Z</time>
      </trkpt>
      <trkpt lat="49.07932" lon="6.0672">
        <ele>240.7</ele>
        <time>2011-11-06T10:46:17Z</time>
      </trkpt>
      <trkpt lat="49.07933" lon="6.06735">
        <ele>240.7</ele>
        <time>2011-11-06T10:46:18Z</time>
      </trkpt>
      <trkpt lat="49.07932" lon="6.06748">
        <ele>241.1</ele>
        <time>2011-11-06T10:46:19Z</time>
      </trkpt>
      <trkpt lat="49.07936" lon="6.06765">
        <ele>240.2</ele>
        <time>2011-11-06T10:46:20Z</time>
      </trkpt>
      <trkpt lat="49.07936" lon="6.0678">
        <ele>241.2</ele>
        <time>2011-11-06T10:46:21Z</time>
      </trkpt>
      <trkpt lat="49.07936" lon="6.06793">
        <ele>241.1</ele>
        <time>2011-11-06T10:46:22Z</time>
      </trkpt>
      <trkpt lat="49.07936" lon="6.06809">
        <ele>240.9</ele>
        <time>2011-11-06T10:46:23Z</time>
      </trkpt>
      <trkpt lat="49.07937" lon="6.06825">
        <ele>239.9</ele>
        <time>2011-11-06T10:46:24Z</time>
      </trkpt>
      <trkpt lat="49.07938" lon="6.06843">
        <ele>239.5</ele>
        <time>2011-11-06T10:46:25Z</time>
      </trkpt>
      <trkpt lat="49.07938" lon="6.06857">
        <ele>239</ele>
        <time>2011-11-06T10:46:26Z</time>
      </trkpt>
      <trkpt lat="49.07938" lon="6.06872">
        <ele>238.9</ele>
        <time>2011-11-06T10:46:27Z</time>
      </trkpt>
      <trkpt lat="49.07937" lon="6.06887">
        <ele>238.4</ele>
        <time>2011-11-06T10:46:28Z</time>
      </trkpt>
      <trkpt lat="49.07936" lon="6.06904">
        <ele>238.4</ele>
        <time>2011-11-06T10:46:29Z</time>
      </trkpt>
      <trkpt lat="49.07933" lon="6.06918">
        <ele>238.2</ele>
        <time>2011-11-06T10:46:30Z</time>
      </trkpt>
      <trkpt lat="49.0793" lon="6.06932">
        <ele>237.4</ele>
        <time>2011-11-06T10:46:31Z</time>
      </trkpt>
      <trkpt lat="49.07928" lon="6.06948">
        <ele>237.4</ele>
        <time>2011-11-06T10:46:32Z</time>
      </trkpt>
      <trkpt lat="49.07919" lon="6.06954">
        <ele>237.3</ele>
        <time>2011-11-06T10:46:33Z</time>
      </trkpt>
      <trkpt lat="49.07913" lon="6.06967">
        <ele>237.4</ele>
        <time>2011-11-06T10:46:34Z</time>
      </trkpt>
      <trkpt lat="49.07906" lon="6.06978">
        <ele>237.9</ele>
        <time>2011-11-06T10:46:35Z</time>
      </trkpt>
      <trkpt lat="49.07901" lon="6.06992">
        <ele>237.8</ele>
        <time>2011-11-06T10:46:36Z</time>
      </trkpt>
      <trkpt lat="49.07886" lon="6.06993">
        <ele>238</ele>
        <time>2011-11-06T10:46:37Z</time>
      </trkpt>
      <trkpt lat="49.07879" lon="6.07002">
        <ele>237.8</ele>
        <time>2011-11-06T10:46:38Z</time>
      </trkpt>
      <trkpt lat="49.07871" lon="6.07015">
        <ele>237.4</ele>
        <time>2011-11-06T10:46:39Z</time>
      </trkpt>
      <trkpt lat="49.0786" lon="6.07023">
        <ele>236.9</ele>
        <time>2011-11-06T10:46:40Z</time>
      </trkpt>
      <trkpt lat="49.07853" lon="6.07034">
        <ele>236.9</ele>
        <time>2011-11-06T10:46:41Z</time>
      </trkpt>
      <trkpt lat="49.07846" lon="6.07042">
        <ele>236.9</ele>
        <time>2011-11-06T10:46:42Z</time>
      </trkpt>
      <trkpt lat="49.07842" lon="6.07052">
        <ele>237.4</ele>
        <time>2011-11-06T10:46:43Z</time>
      </trkpt>
      <trkpt lat="49.07833" lon="6.0706">
        <ele>238</ele>
        <time>2011-11-06T10:46:44Z</time>
      </trkpt>
      <trkpt lat="49.07826" lon="6.07069">
        <ele>238.3</ele>
        <time>2011-11-06T10:46:45Z</time>
      </trkpt>
      <trkpt lat="49.07806" lon="6.07075">
        <ele>237.4</ele>
        <time>2011-11-06T10:46:46Z</time>
      </trkpt>
      <trkpt lat="49.07797" lon="6.07085">
        <ele>237.3</ele>
        <time>2011-11-06T10:46:47Z</time>
      </trkpt>
      <trkpt lat="49.07789" lon="6.07096">
        <ele>237.3</ele>
        <time>2011-11-06T10:46:48Z</time>
      </trkpt>
      <trkpt lat="49.07779" lon="6.07102">
        <ele>237.2</ele>
        <time>2011-11-06T10:46:49Z</time>
      </trkpt>
      <trkpt lat="49.07767" lon="6.07111">
        <ele>237</ele>
        <time>2011-11-06T10:46:50Z</time>
      </trkpt>
      <trkpt lat="49.07766" lon="6.07118">
        <ele>237.1</ele>
        <time>2011-11-06T10:46:51Z</time>
      </trkpt>
      <trkpt lat="49.07757" lon="6.07128">
        <ele>236.4</ele>
        <time>2011-11-06T10:46:52Z</time>
      </trkpt>
      <trkpt lat="49.07748" lon="6.07136">
        <ele>236.3</ele>
        <time>2011-11-06T10:46:53Z</time>
      </trkpt>
      <trkpt lat="49.07739" lon="6.07145">
        <ele>236.3</ele>
        <time>2011-11-06T10:46:54Z</time>
      </trkpt>
      <trkpt lat="49.07732" lon="6.07154">
        <ele>236</ele>
        <time>2011-11-06T10:46:55Z</time>
      </trkpt>
      <trkpt lat="49.07714" lon="6.07165">
        <ele>235.2</ele>
        <time>2011-11-06T10:46:57Z</time>
      </trkpt>
      <trkpt lat="49.07706" lon="6.07172">
        <ele>234.3</ele>
        <time>2011-11-06T10:46:58Z</time>
      </trkpt>
      <trkpt lat="49.07694" lon="6.07179">
        <ele>234.2</ele>
        <time>2011-11-06T10:46:59Z</time>
      </trkpt>
      <trkpt lat="49.07685" lon="6.07188">
        <ele>232</ele>
        <time>2011-11-06T10:47:00Z</time>
      </trkpt>
      <trkpt lat="49.07675" lon="6.07194">
        <ele>231</ele>
        <time>2011-11-06T10:47:01Z</time>
      </trkpt>
      <trkpt lat="49.07666" lon="6.07202">
        <ele>231</ele>
        <time>2011-11-06T10:47:02Z</time>
      </trkpt>
      <trkpt lat="49.07661" lon="6.0721">
        <ele>230.6</ele>
        <time>2011-11-06T10:47:03Z</time>
      </trkpt>
      <trkpt lat="49.07653" lon="6.07217">
        <ele>230.6</ele>
        <time>2011-11-06T10:47:04Z</time>
      </trkpt>
      <trkpt lat="49.07646" lon="6.07225">
        <ele>229.8</ele>
        <time>2011-11-06T10:47:05Z</time>
      </trkpt>
      <trkpt lat="49.07638" lon="6.07232">
        <ele>229.2</ele>
        <time>2011-11-06T10:47:06Z</time>
      </trkpt>
      <trkpt lat="49.0763" lon="6.07238">
        <ele>229.3</ele>
        <time>2011-11-06T10:47:07Z</time>
      </trkpt>
      <trkpt lat="49.07618" lon="6.07246">
        <ele>230.9</ele>
        <time>2011-11-06T10:47:08Z</time>
      </trkpt>
      <trkpt lat="49.07612" lon="6.07252">
        <ele>230.7</ele>
        <time>2011-11-06T10:47:09Z</time>
      </trkpt>
      <trkpt lat="49.07605" lon="6.07259">
        <ele>230.6</ele>
        <time>2011-11-06T10:47:10Z</time>
      </trkpt>
      <trkpt lat="49.07598" lon="6.07266">
        <ele>230.7</ele>
        <time>2011-11-06T10:47:11Z</time>
      </trkpt>
      <trkpt lat="49.0759" lon="6.07274">
        <ele>230.6</ele>
        <time>2011-11-06T10:47:12Z</time>
      </trkpt>
      <trkpt lat="49.07581" lon="6.07274">
        <ele>230</ele>
        <time>2011-11-06T10:47:13Z</time>
      </trkpt>
      <trkpt lat="49.07572" lon="6.07281">
        <ele>230</ele>
        <time>2011-11-06T10:47:14Z</time>
      </trkpt>
      <trkpt lat="49.07563" lon="6.07287">
        <ele>229.8</ele>
        <time>2011-11-06T10:47:15Z</time>
      </trkpt>
      <trkpt lat="49.07559" lon="6.07295">
        <ele>229.6</ele>
        <time>2011-11-06T10:47:16Z</time>
      </trkpt>
      <trkpt lat="49.07553" lon="6.07307">
        <ele>231.8</ele>
        <time>2011-11-06T10:47:17Z</time>
      </trkpt>
      <trkpt lat="49.07547" lon="6.07318">
        <ele>230.9</ele>
        <time>2011-11-06T10:47:18Z</time>
      </trkpt>
      <trkpt lat="49.07542" lon="6.0733">
        <ele>230.3</ele>
        <time>2011-11-06T10:47:19Z</time>
      </trkpt>
      <trkpt lat="49.07538" lon="6.07337">
        <ele>230.4</ele>
        <time>2011-11-06T10:47:20Z</time>
      </trkpt>
      <trkpt lat="49.07543" lon="6.07356">
        <ele>231.1</ele>
        <time>2011-11-06T10:47:21Z</time>
      </trkpt>
      <trkpt lat="49.07541" lon="6.07368">
        <ele>231.1</ele>
        <time>2011-11-06T10:47:22Z</time>
      </trkpt>
      <trkpt lat="49.07534" lon="6.07383">
        <ele>229.3</ele>
        <time>2011-11-06T10:47:23Z</time>
      </trkpt>
      <trkpt lat="49.07535" lon="6.07395">
        <ele>229.1</ele>
        <time>2011-11-06T10:47:24Z</time>
      </trkpt>
      <trkpt lat="49.07535" lon="6.07408">
        <ele>228.6</ele>
        <time>2011-11-06T10:47:25Z</time>
      </trkpt>
      <trkpt lat="49.07537" lon="6.07421">
        <ele>228.1</ele>
        <time>2011-11-06T10:47:26Z</time>
      </trkpt>
      <trkpt lat="49.07538" lon="6.07434">
        <ele>228.1</ele>
        <time>2011-11-06T10:47:27Z</time>
      </trkpt>
      <trkpt lat="49.07538" lon="6.07446">
        <ele>228.6</ele>
        <time>2011-11-06T10:47:28Z</time>
      </trkpt>
      <trkpt lat="49.07539" lon="6.07457">
        <ele>228.4</ele>
        <time>2011-11-06T10:47:29Z</time>
      </trkpt>
      <trkpt lat="49.07541" lon="6.07467">
        <ele>228.4</ele>
        <time>2011-11-06T10:47:30Z</time>
      </trkpt>
      <trkpt lat="49.07542" lon="6.07478">
        <ele>229.8</ele>
        <time>2011-11-06T10:47:31Z</time>
      </trkpt>
      <trkpt lat="49.07543" lon="6.07489">
        <ele>229.9</ele>
        <time>2011-11-06T10:47:32Z</time>
      </trkpt>
      <trkpt lat="49.07545" lon="6.075">
        <ele>230</ele>
        <time>2011-11-06T10:47:33Z</time>
      </trkpt>
      <trkpt lat="49.07544" lon="6.0751">
        <ele>229.2</ele>
        <time>2011-11-06T10:47:34Z</time>
      </trkpt>
      <trkpt lat="49.07542" lon="6.07516">
        <ele>228.5</ele>
        <time>2011-11-06T10:47:35Z</time>
      </trkpt>
      <trkpt lat="49.07543" lon="6.07525">
        <ele>229</ele>
        <time>2011-11-06T10:47:36Z</time>
      </trkpt>
      <trkpt lat="49.07537" lon="6.07528">
        <ele>229.4</ele>
        <time>2011-11-06T10:47:37Z</time>
      </trkpt>
      <trkpt lat="49.07528" lon="6.0753">
        <ele>226.5</ele>
        <time>2011-11-06T10:47:39Z</time>
      </trkpt>
      <trkpt lat="49.07523" lon="6.07529">
        <ele>224.9</ele>
        <time>2011-11-06T10:47:41Z</time>
      </trkpt>
      <trkpt lat="49.07524" lon="6.07519">
        <ele>226.9</ele>
        <time>2011-11-06T10:47:49Z</time>
      </trkpt>
      <trkpt lat="49.07525" lon="6.0751">
        <ele>229</ele>
        <time>2011-11-06T10:49:21Z</time>
      </trkpt>
      <trkpt lat="49.07526" lon="6.07521">
        <ele>232.9</ele>
        <time>2011-11-06T10:54:18Z</time>
      </trkpt>
      <trkpt lat="49.0753" lon="6.07528">
        <ele>233</ele>
        <time>2011-11-06T10:54:19Z</time>
      </trkpt>
      <trkpt lat="49.07524" lon="6.07529">
        <ele>233.9</ele>
        <time>2011-11-06T10:54:20Z</time>
      </trkpt>
      <trkpt lat="49.07516" lon="6.07534">
        <ele>233.7</ele>
        <time>2011-11-06T10:54:22Z</time>
      </trkpt>
      <trkpt lat="49.07504" lon="6.07538">
        <ele>234</ele>
        <time>2011-11-06T10:54:23Z</time>
      </trkpt>
      <trkpt lat="49.07486" lon="6.07536">
        <ele>233.2</ele>
        <time>2011-11-06T10:54:25Z</time>
      </trkpt>
      <trkpt lat="49.07481" lon="6.0754">
        <ele>233.6</ele>
        <time>2011-11-06T10:54:26Z</time>
      </trkpt>
      <trkpt lat="49.07477" lon="6.07545">
        <ele>234.2</ele>
        <time>2011-11-06T10:54:27Z</time>
      </trkpt>
      <trkpt lat="49.07475" lon="6.07552">
        <ele>233.8</ele>
        <time>2011-11-06T10:54:28Z</time>
      </trkpt>
      <trkpt lat="49.07472" lon="6.0756">
        <ele>234.2</ele>
        <time>2011-11-06T10:54:29Z</time>
      </trkpt>
      <trkpt lat="49.07465" lon="6.07568">
        <ele>234.3</ele>
        <time>2011-11-06T10:54:30Z</time>
      </trkpt>
      <trkpt lat="49.07459" lon="6.07574">
        <ele>235</ele>
        <time>2011-11-06T10:54:31Z</time>
      </trkpt>
      <trkpt lat="49.07456" lon="6.07579">
        <ele>235.1</ele>
        <time>2011-11-06T10:54:32Z</time>
      </trkpt>
      <trkpt lat="49.0745" lon="6.07584">
        <ele>234.8</ele>
        <time>2011-11-06T10:54:33Z</time>
      </trkpt>
      <trkpt lat="49.07443" lon="6.07586">
        <ele>233.9</ele>
        <time>2011-11-06T10:54:34Z</time>
      </trkpt>
      <trkpt lat="49.07435" lon="6.07593">
        <ele>234</ele>
        <time>2011-11-06T10:54:35Z</time>
      </trkpt>
      <trkpt lat="49.07432" lon="6.07599">
        <ele>234.1</ele>
        <time>2011-11-06T10:54:36Z</time>
      </trkpt>
      <trkpt lat="49.07427" lon="6.07608">
        <ele>234.7</ele>
        <time>2011-11-06T10:54:38Z</time>
      </trkpt>
      <trkpt lat="49.07424" lon="6.07614">
        <ele>235.4</ele>
        <time>2011-11-06T10:54:39Z</time>
      </trkpt>
      <trkpt lat="49.07423" lon="6.07624">
        <ele>235.4</ele>
        <time>2011-11-06T10:54:40Z</time>
      </trkpt>
      <trkpt lat="49.07421" lon="6.07637">
        <ele>234.2</ele>
        <time>2011-11-06T10:54:41Z</time>
      </trkpt>
      <trkpt lat="49.07419" lon="6.07645">
        <ele>234</ele>
        <time>2011-11-06T10:54:42Z</time>
      </trkpt>
      <trkpt lat="49.07417" lon="6.07655">
        <ele>233.6</ele>
        <time>2011-11-06T10:54:43Z</time>
      </trkpt>
      <trkpt lat="49.07414" lon="6.07666">
        <ele>233</ele>
        <time>2011-11-06T10:54:44Z</time>
      </trkpt>
      <trkpt lat="49.07409" lon="6.07673">
        <ele>232.5</ele>
        <time>2011-11-06T10:54:45Z</time>
      </trkpt>
      <trkpt lat="49.07405" lon="6.0768">
        <ele>233.5</ele>
        <time>2011-11-06T10:54:46Z</time>
      </trkpt>
      <trkpt lat="49.07404" lon="6.07687">
        <ele>233.3</ele>
        <time>2011-11-06T10:54:47Z</time>
      </trkpt>
      <trkpt lat="49.07401" lon="6.07693">
        <ele>233.3</ele>
        <time>2011-11-06T10:54:48Z</time>
      </trkpt>
      <trkpt lat="49.07399" lon="6.07701">
        <ele>234.3</ele>
        <time>2011-11-06T10:54:49Z</time>
      </trkpt>
      <trkpt lat="49.07399" lon="6.07719">
        <ele>233.6</ele>
        <time>2011-11-06T10:54:51Z</time>
      </trkpt>
      <trkpt lat="49.07394" lon="6.0772">
        <ele>232.1</ele>
        <time>2011-11-06T10:54:52Z</time>
      </trkpt>
      <trkpt lat="49.07392" lon="6.07728">
        <ele>232.1</ele>
        <time>2011-11-06T10:54:53Z</time>
      </trkpt>
      <trkpt lat="49.0739" lon="6.07736">
        <ele>232.3</ele>
        <time>2011-11-06T10:54:54Z</time>
      </trkpt>
      <trkpt lat="49.07386" lon="6.07753">
        <ele>229.2</ele>
        <time>2011-11-06T10:54:57Z</time>
      </trkpt>
      <trkpt lat="49.0738" lon="6.07756">
        <ele>228</ele>
        <time>2011-11-06T10:54:58Z</time>
      </trkpt>
      <trkpt lat="49.07371" lon="6.07763">
        <ele>227.9</ele>
        <time>2011-11-06T10:54:59Z</time>
      </trkpt>
      <trkpt lat="49.07369" lon="6.07771">
        <ele>227.1</ele>
        <time>2011-11-06T10:55:00Z</time>
      </trkpt>
      <trkpt lat="49.07365" lon="6.07776">
        <ele>227.1</ele>
        <time>2011-11-06T10:55:01Z</time>
      </trkpt>
      <trkpt lat="49.07347" lon="6.07782">
        <ele>226.1</ele>
        <time>2011-11-06T10:55:02Z</time>
      </trkpt>
      <trkpt lat="49.07331" lon="6.0778">
        <ele>225</ele>
        <time>2011-11-06T10:55:03Z</time>
      </trkpt>
      <trkpt lat="49.07324" lon="6.07782">
        <ele>225</ele>
        <time>2011-11-06T10:55:04Z</time>
      </trkpt>
      <trkpt lat="49.07311" lon="6.07785">
        <ele>223.4</ele>
        <time>2011-11-06T10:55:05Z</time>
      </trkpt>
      <trkpt lat="49.07303" lon="6.07787">
        <ele>224</ele>
        <time>2011-11-06T10:55:06Z</time>
      </trkpt>
      <trkpt lat="49.07295" lon="6.07791">
        <ele>223.9</ele>
        <time>2011-11-06T10:55:07Z</time>
      </trkpt>
      <trkpt lat="49.07285" lon="6.07796">
        <ele>224.5</ele>
        <time>2011-11-06T10:55:08Z</time>
      </trkpt>
      <trkpt lat="49.0728" lon="6.078">
        <ele>225.1</ele>
        <time>2011-11-06T10:55:09Z</time>
      </trkpt>
      <trkpt lat="49.07274" lon="6.07806">
        <ele>225</ele>
        <time>2011-11-06T10:55:10Z</time>
      </trkpt>
      <trkpt lat="49.07267" lon="6.07809">
        <ele>224.3</ele>
        <time>2011-11-06T10:55:11Z</time>
      </trkpt>
      <trkpt lat="49.0726" lon="6.07814">
        <ele>224.3</ele>
        <time>2011-11-06T10:55:12Z</time>
      </trkpt>
      <trkpt lat="49.07254" lon="6.07818">
        <ele>224.1</ele>
        <time>2011-11-06T10:55:13Z</time>
      </trkpt>
      <trkpt lat="49.07248" lon="6.07824">
        <ele>224.2</ele>
        <time>2011-11-06T10:55:14Z</time>
      </trkpt>
      <trkpt lat="49.07239" lon="6.0783">
        <ele>223.9</ele>
        <time>2011-11-06T10:55:15Z</time>
      </trkpt>
      <trkpt lat="49.07232" lon="6.07835">
        <ele>223.9</ele>
        <time>2011-11-06T10:55:16Z</time>
      </trkpt>
      <trkpt lat="49.07225" lon="6.0784">
        <ele>222.6</ele>
        <time>2011-11-06T10:55:17Z</time>
      </trkpt>
      <trkpt lat="49.0722" lon="6.07849">
        <ele>223</ele>
        <time>2011-11-06T10:55:18Z</time>
      </trkpt>
      <trkpt lat="49.07216" lon="6.07857">
        <ele>223.3</ele>
        <time>2011-11-06T10:55:19Z</time>
      </trkpt>
      <trkpt lat="49.07212" lon="6.07862">
        <ele>223.3</ele>
        <time>2011-11-06T10:55:20Z</time>
      </trkpt>
      <trkpt lat="49.07199" lon="6.07867">
        <ele>221.6</ele>
        <time>2011-11-06T10:55:21Z</time>
      </trkpt>
      <trkpt lat="49.07193" lon="6.07874">
        <ele>221.2</ele>
        <time>2011-11-06T10:55:22Z</time>
      </trkpt>
      <trkpt lat="49.07178" lon="6.07878">
        <ele>221.5</ele>
        <time>2011-11-06T10:55:23Z</time>
      </trkpt>
      <trkpt lat="49.07172" lon="6.07884">
        <ele>221.8</ele>
        <time>2011-11-06T10:55:24Z</time>
      </trkpt>
      <trkpt lat="49.07165" lon="6.07891">
        <ele>222.4</ele>
        <time>2011-11-06T10:55:25Z</time>
      </trkpt>
      <trkpt lat="49.0716" lon="6.07897">
        <ele>222.5</ele>
        <time>2011-11-06T10:55:26Z</time>
      </trkpt>
      <trkpt lat="49.07155" lon="6.07904">
        <ele>222.7</ele>
        <time>2011-11-06T10:55:27Z</time>
      </trkpt>
      <trkpt lat="49.0715" lon="6.07909">
        <ele>222.5</ele>
        <time>2011-11-06T10:55:28Z</time>
      </trkpt>
      <trkpt lat="49.07143" lon="6.07912">
        <ele>222.5</ele>
        <time>2011-11-06T10:55:29Z</time>
      </trkpt>
      <trkpt lat="49.07137" lon="6.07917">
        <ele>221.7</ele>
        <time>2011-11-06T10:55:30Z</time>
      </trkpt>
      <trkpt lat="49.07129" lon="6.0792">
        <ele>220.4</ele>
        <time>2011-11-06T10:55:31Z</time>
      </trkpt>
      <trkpt lat="49.07123" lon="6.07925">
        <ele>220.4</ele>
        <time>2011-11-06T10:55:32Z</time>
      </trkpt>
      <trkpt lat="49.07118" lon="6.07939">
        <ele>220.2</ele>
        <time>2011-11-06T10:55:33Z</time>
      </trkpt>
      <trkpt lat="49.07114" lon="6.07952">
        <ele>220.2</ele>
        <time>2011-11-06T10:55:34Z</time>
      </trkpt>
      <trkpt lat="49.07111" lon="6.07964">
        <ele>218.5</ele>
        <time>2011-11-06T10:55:35Z</time>
      </trkpt>
      <trkpt lat="49.07106" lon="6.07972">
        <ele>218.4</ele>
        <time>2011-11-06T10:55:36Z</time>
      </trkpt>
      <trkpt lat="49.071" lon="6.07983">
        <ele>217.6</ele>
        <time>2011-11-06T10:55:37Z</time>
      </trkpt>
      <trkpt lat="49.07091" lon="6.07991">
        <ele>216.6</ele>
        <time>2011-11-06T10:55:38Z</time>
      </trkpt>
      <trkpt lat="49.07086" lon="6.07998">
        <ele>215.9</ele>
        <time>2011-11-06T10:55:39Z</time>
      </trkpt>
      <trkpt lat="49.0708" lon="6.08007">
        <ele>215.4</ele>
        <time>2011-11-06T10:55:40Z</time>
      </trkpt>
      <trkpt lat="49.07076" lon="6.08014">
        <ele>215.5</ele>
        <time>2011-11-06T10:55:41Z</time>
      </trkpt>
      <trkpt lat="49.07072" lon="6.08024">
        <ele>215.4</ele>
        <time>2011-11-06T10:55:42Z</time>
      </trkpt>
      <trkpt lat="49.07068" lon="6.08032">
        <ele>215.3</ele>
        <time>2011-11-06T10:55:43Z</time>
      </trkpt>
      <trkpt lat="49.07064" lon="6.08038">
        <ele>213.7</ele>
        <time>2011-11-06T10:55:44Z</time>
      </trkpt>
      <trkpt lat="49.0706" lon="6.08047">
        <ele>213.1</ele>
        <time>2011-11-06T10:55:45Z</time>
      </trkpt>
      <trkpt lat="49.07055" lon="6.08055">
        <ele>213</ele>
        <time>2011-11-06T10:55:46Z</time>
      </trkpt>
      <trkpt lat="49.07054" lon="6.08066">
        <ele>213.1</ele>
        <time>2011-11-06T10:55:47Z</time>
      </trkpt>
      <trkpt lat="49.0705" lon="6.08074">
        <ele>213.6</ele>
        <time>2011-11-06T10:55:48Z</time>
      </trkpt>
      <trkpt lat="49.07045" lon="6.08085">
        <ele>214.8</ele>
        <time>2011-11-06T10:55:49Z</time>
      </trkpt>
      <trkpt lat="49.07039" lon="6.08094">
        <ele>215.5</ele>
        <time>2011-11-06T10:55:50Z</time>
      </trkpt>
      <trkpt lat="49.07034" lon="6.08102">
        <ele>213.8</ele>
        <time>2011-11-06T10:55:51Z</time>
      </trkpt>
      <trkpt lat="49.0703" lon="6.08109">
        <ele>211.8</ele>
        <time>2011-11-06T10:55:52Z</time>
      </trkpt>
      <trkpt lat="49.07027" lon="6.08124">
        <ele>209.2</ele>
        <time>2011-11-06T10:55:53Z</time>
      </trkpt>
      <trkpt lat="49.07023" lon="6.08133">
        <ele>208.1</ele>
        <time>2011-11-06T10:55:54Z</time>
      </trkpt>
      <trkpt lat="49.07012" lon="6.08146">
        <ele>210.6</ele>
        <time>2011-11-06T10:55:56Z</time>
      </trkpt>
      <trkpt lat="49.07003" lon="6.08156">
        <ele>211.2</ele>
        <time>2011-11-06T10:55:57Z</time>
      </trkpt>
      <trkpt lat="49.06998" lon="6.08164">
        <ele>211.3</ele>
        <time>2011-11-06T10:55:58Z</time>
      </trkpt>
      <trkpt lat="49.06992" lon="6.08171">
        <ele>211</ele>
        <time>2011-11-06T10:55:59Z</time>
      </trkpt>
      <trkpt lat="49.06987" lon="6.08179">
        <ele>211.3</ele>
        <time>2011-11-06T10:56:00Z</time>
      </trkpt>
      <trkpt lat="49.06981" lon="6.08187">
        <ele>211.3</ele>
        <time>2011-11-06T10:56:01Z</time>
      </trkpt>
      <trkpt lat="49.06978" lon="6.08196">
        <ele>211</ele>
        <time>2011-11-06T10:56:02Z</time>
      </trkpt>
      <trkpt lat="49.06973" lon="6.08204">
        <ele>211</ele>
        <time>2011-11-06T10:56:03Z</time>
      </trkpt>
      <trkpt lat="49.0697" lon="6.08212">
        <ele>210.8</ele>
        <time>2011-11-06T10:56:04Z</time>
      </trkpt>
      <trkpt lat="49.06965" lon="6.08217">
        <ele>210.8</ele>
        <time>2011-11-06T10:56:05Z</time>
      </trkpt>
      <trkpt lat="49.06963" lon="6.08223">
        <ele>210.9</ele>
        <time>2011-11-06T10:56:06Z</time>
      </trkpt>
      <trkpt lat="49.06959" lon="6.0823">
        <ele>210.9</ele>
        <time>2011-11-06T10:56:07Z</time>
      </trkpt>
      <trkpt lat="49.0696" lon="6.08238">
        <ele>210.8</ele>
        <time>2011-11-06T10:56:08Z</time>
      </trkpt>
      <trkpt lat="49.06957" lon="6.08244">
        <ele>210.8</ele>
        <time>2011-11-06T10:56:09Z</time>
      </trkpt>
      <trkpt lat="49.06954" lon="6.08255">
        <ele>210.9</ele>
        <time>2011-11-06T10:56:10Z</time>
      </trkpt>
      <trkpt lat="49.06945" lon="6.08253">
        <ele>210.9</ele>
        <time>2011-11-06T10:56:11Z</time>
      </trkpt>
      <trkpt lat="49.06941" lon="6.08258">
        <ele>210.9</ele>
        <time>2011-11-06T10:56:12Z</time>
      </trkpt>
      <trkpt lat="49.06938" lon="6.08271">
        <ele>211.3</ele>
        <time>2011-11-06T10:56:13Z</time>
      </trkpt>
      <trkpt lat="49.06937" lon="6.08285">
        <ele>211.3</ele>
        <time>2011-11-06T10:56:14Z</time>
      </trkpt>
      <trkpt lat="49.06931" lon="6.08296">
        <ele>211.4</ele>
        <time>2011-11-06T10:56:15Z</time>
      </trkpt>
      <trkpt lat="49.06928" lon="6.08303">
        <ele>211.4</ele>
        <time>2011-11-06T10:56:16Z</time>
      </trkpt>
      <trkpt lat="49.06923" lon="6.08309">
        <ele>211.3</ele>
        <time>2011-11-06T10:56:17Z</time>
      </trkpt>
      <trkpt lat="49.06919" lon="6.08314">
        <ele>211</ele>
        <time>2011-11-06T10:56:18Z</time>
      </trkpt>
      <trkpt lat="49.06915" lon="6.0832">
        <ele>211.1</ele>
        <time>2011-11-06T10:56:19Z</time>
      </trkpt>
      <trkpt lat="49.06911" lon="6.08329">
        <ele>210.9</ele>
        <time>2011-11-06T10:56:20Z</time>
      </trkpt>
      <trkpt lat="49.06907" lon="6.08334">
        <ele>210.8</ele>
        <time>2011-11-06T10:56:21Z</time>
      </trkpt>
      <trkpt lat="49.06903" lon="6.08341">
        <ele>211</ele>
        <time>2011-11-06T10:56:22Z</time>
      </trkpt>
      <trkpt lat="49.06907" lon="6.08354">
        <ele>211.7</ele>
        <time>2011-11-06T10:56:23Z</time>
      </trkpt>
      <trkpt lat="49.06907" lon="6.08361">
        <ele>212</ele>
        <time>2011-11-06T10:56:24Z</time>
      </trkpt>
      <trkpt lat="49.06912" lon="6.08377">
        <ele>211.5</ele>
        <time>2011-11-06T10:56:25Z</time>
      </trkpt>
      <trkpt lat="49.06911" lon="6.08387">
        <ele>211.2</ele>
        <time>2011-11-06T10:56:27Z</time>
      </trkpt>
      <trkpt lat="49.06914" lon="6.08395">
        <ele>211.1</ele>
        <time>2011-11-06T10:56:28Z</time>
      </trkpt>
      <trkpt lat="49.06916" lon="6.08404">
        <ele>211.4</ele>
        <time>2011-11-06T10:56:30Z</time>
      </trkpt>
      <trkpt lat="49.06919" lon="6.0841">
        <ele>211.1</ele>
        <time>2011-11-06T10:56:31Z</time>
      </trkpt>
      <trkpt lat="49.06923" lon="6.08416">
        <ele>211</ele>
        <time>2011-11-06T10:56:32Z</time>
      </trkpt>
      <trkpt lat="49.06927" lon="6.08428">
        <ele>211.8</ele>
        <time>2011-11-06T10:56:33Z</time>
      </trkpt>
      <trkpt lat="49.06934" lon="6.08442">
        <ele>212</ele>
        <time>2011-11-06T10:56:35Z</time>
      </trkpt>
      <trkpt lat="49.06941" lon="6.08459">
        <ele>211.9</ele>
        <time>2011-11-06T10:56:38Z</time>
      </trkpt>
      <trkpt lat="49.06948" lon="6.08472">
        <ele>212.1</ele>
        <time>2011-11-06T10:56:39Z</time>
      </trkpt>
      <trkpt lat="49.06952" lon="6.0848">
        <ele>212.1</ele>
        <time>2011-11-06T10:56:40Z</time>
      </trkpt>
      <trkpt lat="49.06956" lon="6.0849">
        <ele>212.1</ele>
        <time>2011-11-06T10:56:41Z</time>
      </trkpt>
      <trkpt lat="49.0696" lon="6.08498">
        <ele>212.1</ele>
        <time>2011-11-06T10:56:42Z</time>
      </trkpt>
      <trkpt lat="49.06963" lon="6.08505">
        <ele>212.3</ele>
        <time>2011-11-06T10:56:43Z</time>
      </trkpt>
      <trkpt lat="49.06977" lon="6.08524">
        <ele>212.7</ele>
        <time>2011-11-06T10:56:44Z</time>
      </trkpt>
      <trkpt lat="49.06981" lon="6.08533">
        <ele>212.9</ele>
        <time>2011-11-06T10:56:45Z</time>
      </trkpt>
      <trkpt lat="49.06986" lon="6.08542">
        <ele>212.9</ele>
        <time>2011-11-06T10:56:46Z</time>
      </trkpt>
      <trkpt lat="49.06991" lon="6.08552">
        <ele>213</ele>
        <time>2011-11-06T10:56:47Z</time>
      </trkpt>
      <trkpt lat="49.06995" lon="6.08561">
        <ele>213</ele>
        <time>2011-11-06T10:56:48Z</time>
      </trkpt>
      <trkpt lat="49.07" lon="6.08573">
        <ele>213</ele>
        <time>2011-11-06T10:56:49Z</time>
      </trkpt>
      <trkpt lat="49.07005" lon="6.08584">
        <ele>212.9</ele>
        <time>2011-11-06T10:56:50Z</time>
      </trkpt>
      <trkpt lat="49.07009" lon="6.0859">
        <ele>212.6</ele>
        <time>2011-11-06T10:56:51Z</time>
      </trkpt>
      <trkpt lat="49.07014" lon="6.086">
        <ele>212.6</ele>
        <time>2011-11-06T10:56:52Z</time>
      </trkpt>
      <trkpt lat="49.07019" lon="6.08612">
        <ele>212.6</ele>
        <time>2011-11-06T10:56:53Z</time>
      </trkpt>
      <trkpt lat="49.07019" lon="6.0862">
        <ele>213.7</ele>
        <time>2011-11-06T10:56:54Z</time>
      </trkpt>
      <trkpt lat="49.07026" lon="6.08642">
        <ele>212.6</ele>
        <time>2011-11-06T10:56:56Z</time>
      </trkpt>
      <trkpt lat="49.07029" lon="6.08648">
        <ele>214.7</ele>
        <time>2011-11-06T10:56:57Z</time>
      </trkpt>
      <trkpt lat="49.0703" lon="6.08656">
        <ele>217.3</ele>
        <time>2011-11-06T10:56:58Z</time>
      </trkpt>
      <trkpt lat="49.07032" lon="6.08664">
        <ele>217.5</ele>
        <time>2011-11-06T10:56:59Z</time>
      </trkpt>
      <trkpt lat="49.07035" lon="6.08673">
        <ele>218.5</ele>
        <time>2011-11-06T10:57:00Z</time>
      </trkpt>
      <trkpt lat="49.07038" lon="6.08684">
        <ele>218</ele>
        <time>2011-11-06T10:57:01Z</time>
      </trkpt>
      <trkpt lat="49.07042" lon="6.08693">
        <ele>217.9</ele>
        <time>2011-11-06T10:57:02Z</time>
      </trkpt>
      <trkpt lat="49.07045" lon="6.08702">
        <ele>218</ele>
        <time>2011-11-06T10:57:03Z</time>
      </trkpt>
      <trkpt lat="49.07048" lon="6.08712">
        <ele>217.3</ele>
        <time>2011-11-06T10:57:04Z</time>
      </trkpt>
      <trkpt lat="49.07054" lon="6.08723">
        <ele>217.1</ele>
        <time>2011-11-06T10:57:05Z</time>
      </trkpt>
      <trkpt lat="49.07059" lon="6.08732">
        <ele>217.4</ele>
        <time>2011-11-06T10:57:06Z</time>
      </trkpt>
      <trkpt lat="49.07062" lon="6.08742">
        <ele>217.5</ele>
        <time>2011-11-06T10:57:07Z</time>
      </trkpt>
      <trkpt lat="49.07068" lon="6.08753">
        <ele>217.6</ele>
        <time>2011-11-06T10:57:08Z</time>
      </trkpt>
      <trkpt lat="49.07072" lon="6.08764">
        <ele>217.5</ele>
        <time>2011-11-06T10:57:09Z</time>
      </trkpt>
      <trkpt lat="49.07076" lon="6.08774">
        <ele>217.5</ele>
        <time>2011-11-06T10:57:10Z</time>
      </trkpt>
      <trkpt lat="49.0708" lon="6.08786">
        <ele>217.5</ele>
        <time>2011-11-06T10:57:11Z</time>
      </trkpt>
      <trkpt lat="49.07084" lon="6.08797">
        <ele>217.6</ele>
        <time>2011-11-06T10:57:12Z</time>
      </trkpt>
      <trkpt lat="49.07087" lon="6.08808">
        <ele>217</ele>
        <time>2011-11-06T10:57:13Z</time>
      </trkpt>
      <trkpt lat="49.07091" lon="6.08819">
        <ele>216.2</ele>
        <time>2011-11-06T10:57:14Z</time>
      </trkpt>
      <trkpt lat="49.07096" lon="6.08832">
        <ele>215.8</ele>
        <time>2011-11-06T10:57:15Z</time>
      </trkpt>
      <trkpt lat="49.071" lon="6.08843">
        <ele>215.6</ele>
        <time>2011-11-06T10:57:16Z</time>
      </trkpt>
      <trkpt lat="49.07105" lon="6.08856">
        <ele>215.7</ele>
        <time>2011-11-06T10:57:17Z</time>
      </trkpt>
      <trkpt lat="49.07109" lon="6.08867">
        <ele>215.6</ele>
        <time>2011-11-06T10:57:18Z</time>
      </trkpt>
      <trkpt lat="49.07111" lon="6.08873">
        <ele>216.2</ele>
        <time>2011-11-06T10:57:19Z</time>
      </trkpt>
      <trkpt lat="49.07117" lon="6.08884">
        <ele>215.7</ele>
        <time>2011-11-06T10:57:20Z</time>
      </trkpt>
      <trkpt lat="49.07121" lon="6.08893">
        <ele>216.5</ele>
        <time>2011-11-06T10:57:21Z</time>
      </trkpt>
      <trkpt lat="49.07124" lon="6.08904">
        <ele>214.3</ele>
        <time>2011-11-06T10:57:22Z</time>
      </trkpt>
      <trkpt lat="49.0713" lon="6.08918">
        <ele>211.7</ele>
        <time>2011-11-06T10:57:23Z</time>
      </trkpt>
      <trkpt lat="49.07133" lon="6.08927">
        <ele>211.4</ele>
        <time>2011-11-06T10:57:24Z</time>
      </trkpt>
      <trkpt lat="49.07136" lon="6.08938">
        <ele>211.3</ele>
        <time>2011-11-06T10:57:25Z</time>
      </trkpt>
      <trkpt lat="49.0714" lon="6.0895">
        <ele>210.1</ele>
        <time>2011-11-06T10:57:26Z</time>
      </trkpt>
      <trkpt lat="49.07144" lon="6.08966">
        <ele>207</ele>
        <time>2011-11-06T10:57:27Z</time>
      </trkpt>
      <trkpt lat="49.07149" lon="6.08976">
        <ele>205.6</ele>
        <time>2011-11-06T10:57:28Z</time>
      </trkpt>
      <trkpt lat="49.07154" lon="6.08986">
        <ele>204.5</ele>
        <time>2011-11-06T10:57:29Z</time>
      </trkpt>
      <trkpt lat="49.07163" lon="6.09">
        <ele>200.6</ele>
        <time>2011-11-06T10:57:30Z</time>
      </trkpt>
      <trkpt lat="49.07169" lon="6.09007">
        <ele>200</ele>
        <time>2011-11-06T10:57:31Z</time>
      </trkpt>
      <trkpt lat="49.07174" lon="6.09017">
        <ele>201.7</ele>
        <time>2011-11-06T10:57:32Z</time>
      </trkpt>
      <trkpt lat="49.07178" lon="6.09027">
        <ele>202</ele>
        <time>2011-11-06T10:57:33Z</time>
      </trkpt>
      <trkpt lat="49.07182" lon="6.09036">
        <ele>202</ele>
        <time>2011-11-06T10:57:34Z</time>
      </trkpt>
      <trkpt lat="49.07184" lon="6.09044">
        <ele>203.2</ele>
        <time>2011-11-06T10:57:35Z</time>
      </trkpt>
      <trkpt lat="49.07187" lon="6.09052">
        <ele>205.2</ele>
        <time>2011-11-06T10:57:36Z</time>
      </trkpt>
      <trkpt lat="49.0719" lon="6.09061">
        <ele>204.4</ele>
        <time>2011-11-06T10:57:37Z</time>
      </trkpt>
      <trkpt lat="49.07194" lon="6.09071">
        <ele>204.1</ele>
        <time>2011-11-06T10:57:38Z</time>
      </trkpt>
      <trkpt lat="49.072" lon="6.09081">
        <ele>203.5</ele>
        <time>2011-11-06T10:57:39Z</time>
      </trkpt>
      <trkpt lat="49.07204" lon="6.09092">
        <ele>203.2</ele>
        <time>2011-11-06T10:57:40Z</time>
      </trkpt>
      <trkpt lat="49.07208" lon="6.091">
        <ele>203.1</ele>
        <time>2011-11-06T10:57:41Z</time>
      </trkpt>
      <trkpt lat="49.07214" lon="6.09111">
        <ele>204.2</ele>
        <time>2011-11-06T10:57:42Z</time>
      </trkpt>
      <trkpt lat="49.07218" lon="6.09122">
        <ele>205.1</ele>
        <time>2011-11-06T10:57:43Z</time>
      </trkpt>
      <trkpt lat="49.07222" lon="6.09132">
        <ele>206.1</ele>
        <time>2011-11-06T10:57:44Z</time>
      </trkpt>
      <trkpt lat="49.07226" lon="6.09143">
        <ele>204.4</ele>
        <time>2011-11-06T10:57:45Z</time>
      </trkpt>
      <trkpt lat="49.0723" lon="6.09153">
        <ele>202.9</ele>
        <time>2011-11-06T10:57:46Z</time>
      </trkpt>
      <trkpt lat="49.07234" lon="6.09164">
        <ele>203.7</ele>
        <time>2011-11-06T10:57:47Z</time>
      </trkpt>
      <trkpt lat="49.07238" lon="6.09174">
        <ele>203.7</ele>
        <time>2011-11-06T10:57:48Z</time>
      </trkpt>
      <trkpt lat="49.07242" lon="6.09186">
        <ele>204</ele>
        <time>2011-11-06T10:57:49Z</time>
      </trkpt>
      <trkpt lat="49.07247" lon="6.09196">
        <ele>203.7</ele>
        <time>2011-11-06T10:57:50Z</time>
      </trkpt>
      <trkpt lat="49.07251" lon="6.09206">
        <ele>204.2</ele>
        <time>2011-11-06T10:57:51Z</time>
      </trkpt>
      <trkpt lat="49.07255" lon="6.09215">
        <ele>204.4</ele>
        <time>2011-11-06T10:57:52Z</time>
      </trkpt>
      <trkpt lat="49.07259" lon="6.09225">
        <ele>204.8</ele>
        <time>2011-11-06T10:57:53Z</time>
      </trkpt>
      <trkpt lat="49.07262" lon="6.09234">
        <ele>204.9</ele>
        <time>2011-11-06T10:57:54Z</time>
      </trkpt>
      <trkpt lat="49.07265" lon="6.09244">
        <ele>204.6</ele>
        <time>2011-11-06T10:57:55Z</time>
      </trkpt>
      <trkpt lat="49.07269" lon="6.09253">
        <ele>204.9</ele>
        <time>2011-11-06T10:57:56Z</time>
      </trkpt>
      <trkpt lat="49.07273" lon="6.09266">
        <ele>204.7</ele>
        <time>2011-11-06T10:57:57Z</time>
      </trkpt>
      <trkpt lat="49.07279" lon="6.09278">
        <ele>205.5</ele>
        <time>2011-11-06T10:57:58Z</time>
      </trkpt>
      <trkpt lat="49.07283" lon="6.09288">
        <ele>205.8</ele>
        <time>2011-11-06T10:57:59Z</time>
      </trkpt>
      <trkpt lat="49.07288" lon="6.09298">
        <ele>205.7</ele>
        <time>2011-11-06T10:58:00Z</time>
      </trkpt>
      <trkpt lat="49.07293" lon="6.09307">
        <ele>204.3</ele>
        <time>2011-11-06T10:58:01Z</time>
      </trkpt>
      <trkpt lat="49.07297" lon="6.09318">
        <ele>205.2</ele>
        <time>2011-11-06T10:58:02Z</time>
      </trkpt>
      <trkpt lat="49.07301" lon="6.09328">
        <ele>205.7</ele>
        <time>2011-11-06T10:58:03Z</time>
      </trkpt>
      <trkpt lat="49.07306" lon="6.09338">
        <ele>205.6</ele>
        <time>2011-11-06T10:58:04Z</time>
      </trkpt>
      <trkpt lat="49.07308" lon="6.09348">
        <ele>206</ele>
        <time>2011-11-06T10:58:05Z</time>
      </trkpt>
      <trkpt lat="49.07312" lon="6.09358">
        <ele>206.1</ele>
        <time>2011-11-06T10:58:06Z</time>
      </trkpt>
      <trkpt lat="49.07316" lon="6.09367">
        <ele>205.1</ele>
        <time>2011-11-06T10:58:07Z</time>
      </trkpt>
      <trkpt lat="49.0732" lon="6.09377">
        <ele>204.5</ele>
        <time>2011-11-06T10:58:08Z</time>
      </trkpt>
      <trkpt lat="49.07324" lon="6.09387">
        <ele>204.2</ele>
        <time>2011-11-06T10:58:09Z</time>
      </trkpt>
      <trkpt lat="49.07328" lon="6.09394">
        <ele>204.1</ele>
        <time>2011-11-06T10:58:10Z</time>
      </trkpt>
      <trkpt lat="49.07333" lon="6.09404">
        <ele>204.1</ele>
        <time>2011-11-06T10:58:11Z</time>
      </trkpt>
      <trkpt lat="49.07338" lon="6.09414">
        <ele>204.4</ele>
        <time>2011-11-06T10:58:12Z</time>
      </trkpt>
      <trkpt lat="49.07343" lon="6.09423">
        <ele>204.7</ele>
        <time>2011-11-06T10:58:13Z</time>
      </trkpt>
      <trkpt lat="49.07348" lon="6.09431">
        <ele>205.2</ele>
        <time>2011-11-06T10:58:14Z</time>
      </trkpt>
      <trkpt lat="49.07353" lon="6.09439">
        <ele>205.4</ele>
        <time>2011-11-06T10:58:15Z</time>
      </trkpt>
      <trkpt lat="49.07358" lon="6.09447">
        <ele>205.3</ele>
        <time>2011-11-06T10:58:16Z</time>
      </trkpt>
      <trkpt lat="49.07364" lon="6.09456">
        <ele>205.2</ele>
        <time>2011-11-06T10:58:17Z</time>
      </trkpt>
      <trkpt lat="49.07367" lon="6.09463">
        <ele>206.3</ele>
        <time>2011-11-06T10:58:18Z</time>
      </trkpt>
      <trkpt lat="49.07371" lon="6.09471">
        <ele>206.5</ele>
        <time>2011-11-06T10:58:19Z</time>
      </trkpt>
      <trkpt lat="49.07376" lon="6.09481">
        <ele>206</ele>
        <time>2011-11-06T10:58:20Z</time>
      </trkpt>
      <trkpt lat="49.07381" lon="6.09488">
        <ele>206.6</ele>
        <time>2011-11-06T10:58:21Z</time>
      </trkpt>
      <trkpt lat="49.07386" lon="6.09497">
        <ele>206.5</ele>
        <time>2011-11-06T10:58:22Z</time>
      </trkpt>
      <trkpt lat="49.07391" lon="6.09508">
        <ele>206.2</ele>
        <time>2011-11-06T10:58:23Z</time>
      </trkpt>
      <trkpt lat="49.07396" lon="6.09517">
        <ele>205.5</ele>
        <time>2011-11-06T10:58:24Z</time>
      </trkpt>
      <trkpt lat="49.07401" lon="6.09525">
        <ele>205.6</ele>
        <time>2011-11-06T10:58:25Z</time>
      </trkpt>
      <trkpt lat="49.07406" lon="6.09532">
        <ele>205.6</ele>
        <time>2011-11-06T10:58:26Z</time>
      </trkpt>
      <trkpt lat="49.07412" lon="6.09541">
        <ele>206</ele>
        <time>2011-11-06T10:58:27Z</time>
      </trkpt>
      <trkpt lat="49.07418" lon="6.09551">
        <ele>205.7</ele>
        <time>2011-11-06T10:58:28Z</time>
      </trkpt>
      <trkpt lat="49.07423" lon="6.09559">
        <ele>205.8</ele>
        <time>2011-11-06T10:58:29Z</time>
      </trkpt>
      <trkpt lat="49.07426" lon="6.09568">
        <ele>206.4</ele>
        <time>2011-11-06T10:58:30Z</time>
      </trkpt>
      <trkpt lat="49.07431" lon="6.09578">
        <ele>206.1</ele>
        <time>2011-11-06T10:58:31Z</time>
      </trkpt>
      <trkpt lat="49.07435" lon="6.09589">
        <ele>206</ele>
        <time>2011-11-06T10:58:32Z</time>
      </trkpt>
      <trkpt lat="49.07439" lon="6.09601">
        <ele>204.7</ele>
        <time>2011-11-06T10:58:33Z</time>
      </trkpt>
      <trkpt lat="49.07442" lon="6.09611">
        <ele>205</ele>
        <time>2011-11-06T10:58:34Z</time>
      </trkpt>
      <trkpt lat="49.07446" lon="6.09619">
        <ele>205.3</ele>
        <time>2011-11-06T10:58:35Z</time>
      </trkpt>
      <trkpt lat="49.07453" lon="6.09627">
        <ele>204.3</ele>
        <time>2011-11-06T10:58:36Z</time>
      </trkpt>
      <trkpt lat="49.07458" lon="6.09633">
        <ele>205.4</ele>
        <time>2011-11-06T10:58:37Z</time>
      </trkpt>
      <trkpt lat="49.07464" lon="6.09641">
        <ele>204.7</ele>
        <time>2011-11-06T10:58:38Z</time>
      </trkpt>
      <trkpt lat="49.07468" lon="6.09648">
        <ele>204.5</ele>
        <time>2011-11-06T10:58:39Z</time>
      </trkpt>
      <trkpt lat="49.07473" lon="6.09655">
        <ele>205.2</ele>
        <time>2011-11-06T10:58:40Z</time>
      </trkpt>
      <trkpt lat="49.07478" lon="6.09662">
        <ele>205.4</ele>
        <time>2011-11-06T10:58:41Z</time>
      </trkpt>
      <trkpt lat="49.07483" lon="6.0967">
        <ele>205.9</ele>
        <time>2011-11-06T10:58:42Z</time>
      </trkpt>
      <trkpt lat="49.07489" lon="6.09678">
        <ele>205.5</ele>
        <time>2011-11-06T10:58:43Z</time>
      </trkpt>
      <trkpt lat="49.07495" lon="6.09687">
        <ele>205.6</ele>
        <time>2011-11-06T10:58:44Z</time>
      </trkpt>
      <trkpt lat="49.07501" lon="6.09696">
        <ele>205.9</ele>
        <time>2011-11-06T10:58:45Z</time>
      </trkpt>
      <trkpt lat="49.07505" lon="6.09703">
        <ele>205.8</ele>
        <time>2011-11-06T10:58:46Z</time>
      </trkpt>
      <trkpt lat="49.07511" lon="6.09712">
        <ele>205.9</ele>
        <time>2011-11-06T10:58:47Z</time>
      </trkpt>
      <trkpt lat="49.07517" lon="6.09722">
        <ele>204.5</ele>
        <time>2011-11-06T10:58:48Z</time>
      </trkpt>
      <trkpt lat="49.07523" lon="6.09733">
        <ele>204.4</ele>
        <time>2011-11-06T10:58:49Z</time>
      </trkpt>
      <trkpt lat="49.07529" lon="6.09742">
        <ele>203</ele>
        <time>2011-11-06T10:58:50Z</time>
      </trkpt>
      <trkpt lat="49.07535" lon="6.09751">
        <ele>202.2</ele>
        <time>2011-11-06T10:58:51Z</time>
      </trkpt>
      <trkpt lat="49.0754" lon="6.09759">
        <ele>202.4</ele>
        <time>2011-11-06T10:58:52Z</time>
      </trkpt>
      <trkpt lat="49.07547" lon="6.09768">
        <ele>202.8</ele>
        <time>2011-11-06T10:58:53Z</time>
      </trkpt>
      <trkpt lat="49.07552" lon="6.09776">
        <ele>204</ele>
        <time>2011-11-06T10:58:54Z</time>
      </trkpt>
      <trkpt lat="49.07556" lon="6.09785">
        <ele>204.8</ele>
        <time>2011-11-06T10:58:55Z</time>
      </trkpt>
      <trkpt lat="49.0756" lon="6.09791">
        <ele>205.6</ele>
        <time>2011-11-06T10:58:56Z</time>
      </trkpt>
      <trkpt lat="49.07568" lon="6.09803">
        <ele>204.6</ele>
        <time>2011-11-06T10:58:57Z</time>
      </trkpt>
      <trkpt lat="49.07573" lon="6.09812">
        <ele>204.5</ele>
        <time>2011-11-06T10:58:58Z</time>
      </trkpt>
      <trkpt lat="49.07579" lon="6.09822">
        <ele>204.1</ele>
        <time>2011-11-06T10:58:59Z</time>
      </trkpt>
      <trkpt lat="49.07584" lon="6.09833">
        <ele>203.7</ele>
        <time>2011-11-06T10:59:00Z</time>
      </trkpt>
      <trkpt lat="49.0759" lon="6.09843">
        <ele>203.1</ele>
        <time>2011-11-06T10:59:01Z</time>
      </trkpt>
      <trkpt lat="49.07595" lon="6.09854">
        <ele>202.8</ele>
        <time>2011-11-06T10:59:02Z</time>
      </trkpt>
      <trkpt lat="49.07599" lon="6.09864">
        <ele>201.7</ele>
        <time>2011-11-06T10:59:03Z</time>
      </trkpt>
      <trkpt lat="49.07604" lon="6.09872">
        <ele>201.3</ele>
        <time>2011-11-06T10:59:04Z</time>
      </trkpt>
      <trkpt lat="49.0761" lon="6.0988">
        <ele>201.1</ele>
        <time>2011-11-06T10:59:05Z</time>
      </trkpt>
      <trkpt lat="49.07615" lon="6.09889">
        <ele>201.1</ele>
        <time>2011-11-06T10:59:06Z</time>
      </trkpt>
      <trkpt lat="49.0762" lon="6.09897">
        <ele>200.7</ele>
        <time>2011-11-06T10:59:07Z</time>
      </trkpt>
      <trkpt lat="49.07625" lon="6.09906">
        <ele>200.7</ele>
        <time>2011-11-06T10:59:08Z</time>
      </trkpt>
      <trkpt lat="49.0763" lon="6.09916">
        <ele>199.6</ele>
        <time>2011-11-06T10:59:09Z</time>
      </trkpt>
      <trkpt lat="49.07635" lon="6.09925">
        <ele>199.9</ele>
        <time>2011-11-06T10:59:10Z</time>
      </trkpt>
      <trkpt lat="49.0764" lon="6.09933">
        <ele>200.3</ele>
        <time>2011-11-06T10:59:11Z</time>
      </trkpt>
      <trkpt lat="49.07645" lon="6.09941">
        <ele>201.2</ele>
        <time>2011-11-06T10:59:12Z</time>
      </trkpt>
      <trkpt lat="49.0765" lon="6.0995">
        <ele>200.5</ele>
        <time>2011-11-06T10:59:13Z</time>
      </trkpt>
      <trkpt lat="49.07654" lon="6.09956">
        <ele>201.2</ele>
        <time>2011-11-06T10:59:14Z</time>
      </trkpt>
      <trkpt lat="49.07659" lon="6.09965">
        <ele>202.2</ele>
        <time>2011-11-06T10:59:15Z</time>
      </trkpt>
      <trkpt lat="49.07664" lon="6.09976">
        <ele>201.7</ele>
        <time>2011-11-06T10:59:16Z</time>
      </trkpt>
      <trkpt lat="49.07669" lon="6.09984">
        <ele>201.6</ele>
        <time>2011-11-06T10:59:17Z</time>
      </trkpt>
      <trkpt lat="49.07674" lon="6.09994">
        <ele>201.5</ele>
        <time>2011-11-06T10:59:18Z</time>
      </trkpt>
      <trkpt lat="49.07678" lon="6.10004">
        <ele>202.3</ele>
        <time>2011-11-06T10:59:19Z</time>
      </trkpt>
      <trkpt lat="49.07684" lon="6.10015">
        <ele>203.5</ele>
        <time>2011-11-06T10:59:20Z</time>
      </trkpt>
      <trkpt lat="49.0769" lon="6.10025">
        <ele>203</ele>
        <time>2011-11-06T10:59:21Z</time>
      </trkpt>
      <trkpt lat="49.07695" lon="6.10034">
        <ele>202.7</ele>
        <time>2011-11-06T10:59:22Z</time>
      </trkpt>
      <trkpt lat="49.07701" lon="6.10043">
        <ele>202.8</ele>
        <time>2011-11-06T10:59:23Z</time>
      </trkpt>
      <trkpt lat="49.07707" lon="6.10053">
        <ele>202.2</ele>
        <time>2011-11-06T10:59:24Z</time>
      </trkpt>
      <trkpt lat="49.07713" lon="6.10063">
        <ele>201.9</ele>
        <time>2011-11-06T10:59:25Z</time>
      </trkpt>
      <trkpt lat="49.07718" lon="6.10072">
        <ele>201.9</ele>
        <time>2011-11-06T10:59:26Z</time>
      </trkpt>
      <trkpt lat="49.07723" lon="6.10081">
        <ele>201.9</ele>
        <time>2011-11-06T10:59:27Z</time>
      </trkpt>
      <trkpt lat="49.07727" lon="6.1009">
        <ele>201.4</ele>
        <time>2011-11-06T10:59:28Z</time>
      </trkpt>
      <trkpt lat="49.07731" lon="6.101">
        <ele>201.6</ele>
        <time>2011-11-06T10:59:29Z</time>
      </trkpt>
      <trkpt lat="49.07734" lon="6.1011">
        <ele>201.2</ele>
        <time>2011-11-06T10:59:30Z</time>
      </trkpt>
      <trkpt lat="49.07735" lon="6.10122">
        <ele>201.9</ele>
        <time>2011-11-06T10:59:31Z</time>
      </trkpt>
      <trkpt lat="49.07736" lon="6.10133">
        <ele>201.8</ele>
        <time>2011-11-06T10:59:32Z</time>
      </trkpt>
      <trkpt lat="49.07737" lon="6.10145">
        <ele>202</ele>
        <time>2011-11-06T10:59:33Z</time>
      </trkpt>
      <trkpt lat="49.07738" lon="6.10157">
        <ele>202</ele>
        <time>2011-11-06T10:59:34Z</time>
      </trkpt>
      <trkpt lat="49.07741" lon="6.10166">
        <ele>202.6</ele>
        <time>2011-11-06T10:59:35Z</time>
      </trkpt>
      <trkpt lat="49.07743" lon="6.1018">
        <ele>201.5</ele>
        <time>2011-11-06T10:59:36Z</time>
      </trkpt>
      <trkpt lat="49.07748" lon="6.10189">
        <ele>201</ele>
        <time>2011-11-06T10:59:37Z</time>
      </trkpt>
      <trkpt lat="49.07752" lon="6.10196">
        <ele>200.3</ele>
        <time>2011-11-06T10:59:38Z</time>
      </trkpt>
      <trkpt lat="49.07758" lon="6.10204">
        <ele>200.1</ele>
        <time>2011-11-06T10:59:39Z</time>
      </trkpt>
      <trkpt lat="49.07763" lon="6.10211">
        <ele>199.8</ele>
        <time>2011-11-06T10:59:40Z</time>
      </trkpt>
      <trkpt lat="49.0777" lon="6.10214">
        <ele>200.2</ele>
        <time>2011-11-06T10:59:41Z</time>
      </trkpt>
      <trkpt lat="49.07775" lon="6.10216">
        <ele>199.9</ele>
        <time>2011-11-06T10:59:42Z</time>
      </trkpt>
      <trkpt lat="49.07783" lon="6.10216">
        <ele>199.9</ele>
        <time>2011-11-06T10:59:43Z</time>
      </trkpt>
      <trkpt lat="49.0779" lon="6.10217">
        <ele>199.8</ele>
        <time>2011-11-06T10:59:44Z</time>
      </trkpt>
      <trkpt lat="49.07796" lon="6.10216">
        <ele>199.5</ele>
        <time>2011-11-06T10:59:45Z</time>
      </trkpt>
      <trkpt lat="49.07803" lon="6.10215">
        <ele>199.5</ele>
        <time>2011-11-06T10:59:46Z</time>
      </trkpt>
      <trkpt lat="49.0781" lon="6.10219">
        <ele>199.7</ele>
        <time>2011-11-06T10:59:47Z</time>
      </trkpt>
      <trkpt lat="49.07817" lon="6.10224">
        <ele>200.1</ele>
        <time>2011-11-06T10:59:48Z</time>
      </trkpt>
      <trkpt lat="49.07822" lon="6.10232">
        <ele>200.3</ele>
        <time>2011-11-06T10:59:49Z</time>
      </trkpt>
      <trkpt lat="49.07827" lon="6.10243">
        <ele>200.2</ele>
        <time>2011-11-06T10:59:50Z</time>
      </trkpt>
      <trkpt lat="49.07831" lon="6.10252">
        <ele>200.6</ele>
        <time>2011-11-06T10:59:51Z</time>
      </trkpt>
      <trkpt lat="49.07836" lon="6.1026">
        <ele>200.6</ele>
        <time>2011-11-06T10:59:52Z</time>
      </trkpt>
      <trkpt lat="49.0784" lon="6.10269">
        <ele>200.4</ele>
        <time>2011-11-06T10:59:53Z</time>
      </trkpt>
      <trkpt lat="49.07844" lon="6.10279">
        <ele>198.7</ele>
        <time>2011-11-06T10:59:54Z</time>
      </trkpt>
      <trkpt lat="49.0785" lon="6.10288">
        <ele>199.8</ele>
        <time>2011-11-06T10:59:55Z</time>
      </trkpt>
      <trkpt lat="49.07855" lon="6.10297">
        <ele>200.3</ele>
        <time>2011-11-06T10:59:56Z</time>
      </trkpt>
      <trkpt lat="49.0786" lon="6.10305">
        <ele>200.4</ele>
        <time>2011-11-06T10:59:57Z</time>
      </trkpt>
      <trkpt lat="49.07865" lon="6.10314">
        <ele>200.4</ele>
        <time>2011-11-06T10:59:58Z</time>
      </trkpt>
      <trkpt lat="49.0787" lon="6.10321">
        <ele>200.6</ele>
        <time>2011-11-06T10:59:59Z</time>
      </trkpt>
      <trkpt lat="49.07876" lon="6.1033">
        <ele>200.6</ele>
        <time>2011-11-06T11:00:00Z</time>
      </trkpt>
      <trkpt lat="49.07881" lon="6.10338">
        <ele>200.5</ele>
        <time>2011-11-06T11:00:01Z</time>
      </trkpt>
      <trkpt lat="49.07886" lon="6.10347">
        <ele>201.1</ele>
        <time>2011-11-06T11:00:02Z</time>
      </trkpt>
      <trkpt lat="49.07891" lon="6.10356">
        <ele>201.8</ele>
        <time>2011-11-06T11:00:03Z</time>
      </trkpt>
      <trkpt lat="49.07896" lon="6.10365">
        <ele>202.5</ele>
        <time>2011-11-06T11:00:04Z</time>
      </trkpt>
      <trkpt lat="49.079" lon="6.10374">
        <ele>202</ele>
        <time>2011-11-06T11:00:05Z</time>
      </trkpt>
      <trkpt lat="49.07905" lon="6.10383">
        <ele>202.2</ele>
        <time>2011-11-06T11:00:06Z</time>
      </trkpt>
      <trkpt lat="49.07911" lon="6.10392">
        <ele>201.8</ele>
        <time>2011-11-06T11:00:07Z</time>
      </trkpt>
      <trkpt lat="49.07916" lon="6.10401">
        <ele>201.3</ele>
        <time>2011-11-06T11:00:08Z</time>
      </trkpt>
      <trkpt lat="49.07922" lon="6.10411">
        <ele>201.7</ele>
        <time>2011-11-06T11:00:09Z</time>
      </trkpt>
      <trkpt lat="49.07926" lon="6.10418">
        <ele>202.1</ele>
        <time>2011-11-06T11:00:10Z</time>
      </trkpt>
      <trkpt lat="49.07932" lon="6.10426">
        <ele>202.4</ele>
        <time>2011-11-06T11:00:11Z</time>
      </trkpt>
      <trkpt lat="49.07937" lon="6.10436">
        <ele>201.6</ele>
        <time>2011-11-06T11:00:12Z</time>
      </trkpt>
      <trkpt lat="49.07943" lon="6.10446">
        <ele>200.9</ele>
        <time>2011-11-06T11:00:13Z</time>
      </trkpt>
      <trkpt lat="49.07949" lon="6.10455">
        <ele>200.6</ele>
        <time>2011-11-06T11:00:14Z</time>
      </trkpt>
      <trkpt lat="49.07954" lon="6.10464">
        <ele>200.6</ele>
        <time>2011-11-06T11:00:15Z</time>
      </trkpt>
      <trkpt lat="49.07959" lon="6.10473">
        <ele>200.8</ele>
        <time>2011-11-06T11:00:16Z</time>
      </trkpt>
      <trkpt lat="49.07965" lon="6.10483">
        <ele>200.7</ele>
        <time>2011-11-06T11:00:17Z</time>
      </trkpt>
      <trkpt lat="49.07969" lon="6.10492">
        <ele>199.7</ele>
        <time>2011-11-06T11:00:18Z</time>
      </trkpt>
      <trkpt lat="49.07974" lon="6.10504">
        <ele>198.4</ele>
        <time>2011-11-06T11:00:19Z</time>
      </trkpt>
      <trkpt lat="49.07978" lon="6.10514">
        <ele>198</ele>
        <time>2011-11-06T11:00:20Z</time>
      </trkpt>
      <trkpt lat="49.07983" lon="6.10524">
        <ele>197.7</ele>
        <time>2011-11-06T11:00:21Z</time>
      </trkpt>
      <trkpt lat="49.07989" lon="6.10535">
        <ele>197.1</ele>
        <time>2011-11-06T11:00:22Z</time>
      </trkpt>
      <trkpt lat="49.07994" lon="6.10546">
        <ele>197</ele>
        <time>2011-11-06T11:00:23Z</time>
      </trkpt>
      <trkpt lat="49.08" lon="6.10555">
        <ele>197.1</ele>
        <time>2011-11-06T11:00:24Z</time>
      </trkpt>
      <trkpt lat="49.08005" lon="6.10565">
        <ele>197.3</ele>
        <time>2011-11-06T11:00:25Z</time>
      </trkpt>
      <trkpt lat="49.0801" lon="6.10576">
        <ele>197.6</ele>
        <time>2011-11-06T11:00:26Z</time>
      </trkpt>
      <trkpt lat="49.08015" lon="6.10586">
        <ele>197.8</ele>
        <time>2011-11-06T11:00:27Z</time>
      </trkpt>
      <trkpt lat="49.08021" lon="6.10597">
        <ele>196.6</ele>
        <time>2011-11-06T11:00:28Z</time>
      </trkpt>
      <trkpt lat="49.08027" lon="6.10608">
        <ele>196.3</ele>
        <time>2011-11-06T11:00:29Z</time>
      </trkpt>
      <trkpt lat="49.08033" lon="6.10618">
        <ele>195.9</ele>
        <time>2011-11-06T11:00:30Z</time>
      </trkpt>
      <trkpt lat="49.08039" lon="6.10629">
        <ele>195.4</ele>
        <time>2011-11-06T11:00:31Z</time>
      </trkpt>
      <trkpt lat="49.08044" lon="6.1064">
        <ele>195</ele>
        <time>2011-11-06T11:00:32Z</time>
      </trkpt>
      <trkpt lat="49.08049" lon="6.1065">
        <ele>195</ele>
        <time>2011-11-06T11:00:33Z</time>
      </trkpt>
      <trkpt lat="49.08054" lon="6.10661">
        <ele>194.5</ele>
        <time>2011-11-06T11:00:34Z</time>
      </trkpt>
      <trkpt lat="49.08059" lon="6.10673">
        <ele>194</ele>
        <time>2011-11-06T11:00:35Z</time>
      </trkpt>
      <trkpt lat="49.08064" lon="6.10683">
        <ele>194.1</ele>
        <time>2011-11-06T11:00:36Z</time>
      </trkpt>
      <trkpt lat="49.08069" lon="6.10694">
        <ele>193.6</ele>
        <time>2011-11-06T11:00:37Z</time>
      </trkpt>
      <trkpt lat="49.08074" lon="6.10704">
        <ele>193</ele>
        <time>2011-11-06T11:00:38Z</time>
      </trkpt>
      <trkpt lat="49.0808" lon="6.10714">
        <ele>192.8</ele>
        <time>2011-11-06T11:00:39Z</time>
      </trkpt>
      <trkpt lat="49.08085" lon="6.10724">
        <ele>193</ele>
        <time>2011-11-06T11:00:40Z</time>
      </trkpt>
      <trkpt lat="49.0809" lon="6.10733">
        <ele>192.8</ele>
        <time>2011-11-06T11:00:41Z</time>
      </trkpt>
      <trkpt lat="49.08095" lon="6.10742">
        <ele>192.8</ele>
        <time>2011-11-06T11:00:42Z</time>
      </trkpt>
      <trkpt lat="49.081" lon="6.10751">
        <ele>192.8</ele>
        <time>2011-11-06T11:00:43Z</time>
      </trkpt>
      <trkpt lat="49.08104" lon="6.1076">
        <ele>192.8</ele>
        <time>2011-11-06T11:00:44Z</time>
      </trkpt>
      <trkpt lat="49.08109" lon="6.1077">
        <ele>192.9</ele>
        <time>2011-11-06T11:00:45Z</time>
      </trkpt>
      <trkpt lat="49.08113" lon="6.10779">
        <ele>193.1</ele>
        <time>2011-11-06T11:00:46Z</time>
      </trkpt>
      <trkpt lat="49.08117" lon="6.10789">
        <ele>193.2</ele>
        <time>2011-11-06T11:00:47Z</time>
      </trkpt>
      <trkpt lat="49.08118" lon="6.10799">
        <ele>193.1</ele>
        <time>2011-11-06T11:00:48Z</time>
      </trkpt>
      <trkpt lat="49.08123" lon="6.10812">
        <ele>194</ele>
        <time>2011-11-06T11:00:49Z</time>
      </trkpt>
      <trkpt lat="49.08126" lon="6.10823">
        <ele>194.1</ele>
        <time>2011-11-06T11:00:50Z</time>
      </trkpt>
      <trkpt lat="49.08122" lon="6.10834">
        <ele>194.7</ele>
        <time>2011-11-06T11:00:51Z</time>
      </trkpt>
      <trkpt lat="49.0812" lon="6.10846">
        <ele>195.2</ele>
        <time>2011-11-06T11:00:52Z</time>
      </trkpt>
      <trkpt lat="49.08119" lon="6.10856">
        <ele>194.7</ele>
        <time>2011-11-06T11:00:53Z</time>
      </trkpt>
      <trkpt lat="49.0812" lon="6.10867">
        <ele>194.7</ele>
        <time>2011-11-06T11:00:54Z</time>
      </trkpt>
      <trkpt lat="49.08124" lon="6.10877">
        <ele>195.3</ele>
        <time>2011-11-06T11:00:55Z</time>
      </trkpt>
      <trkpt lat="49.08126" lon="6.10886">
        <ele>195.3</ele>
        <time>2011-11-06T11:00:56Z</time>
      </trkpt>
      <trkpt lat="49.08133" lon="6.10895">
        <ele>195.5</ele>
        <time>2011-11-06T11:00:57Z</time>
      </trkpt>
      <trkpt lat="49.0814" lon="6.10901">
        <ele>196</ele>
        <time>2011-11-06T11:00:58Z</time>
      </trkpt>
      <trkpt lat="49.08147" lon="6.10907">
        <ele>196</ele>
        <time>2011-11-06T11:00:59Z</time>
      </trkpt>
      <trkpt lat="49.08154" lon="6.10912">
        <ele>196</ele>
        <time>2011-11-06T11:01:00Z</time>
      </trkpt>
      <trkpt lat="49.08163" lon="6.10914">
        <ele>196</ele>
        <time>2011-11-06T11:01:01Z</time>
      </trkpt>
      <trkpt lat="49.08171" lon="6.10916">
        <ele>196</ele>
        <time>2011-11-06T11:01:02Z</time>
      </trkpt>
      <trkpt lat="49.0818" lon="6.10918">
        <ele>196</ele>
        <time>2011-11-06T11:01:03Z</time>
      </trkpt>
      <trkpt lat="49.08187" lon="6.10923">
        <ele>195.7</ele>
        <time>2011-11-06T11:01:04Z</time>
      </trkpt>
      <trkpt lat="49.08195" lon="6.10929">
        <ele>195.2</ele>
        <time>2011-11-06T11:01:05Z</time>
      </trkpt>
      <trkpt lat="49.08201" lon="6.10936">
        <ele>195.6</ele>
        <time>2011-11-06T11:01:06Z</time>
      </trkpt>
      <trkpt lat="49.08206" lon="6.10945">
        <ele>195.9</ele>
        <time>2011-11-06T11:01:07Z</time>
      </trkpt>
      <trkpt lat="49.08211" lon="6.10955">
        <ele>195.9</ele>
        <time>2011-11-06T11:01:08Z</time>
      </trkpt>
      <trkpt lat="49.08216" lon="6.10964">
        <ele>195.6</ele>
        <time>2011-11-06T11:01:09Z</time>
      </trkpt>
      <trkpt lat="49.08222" lon="6.10976">
        <ele>195.6</ele>
        <time>2011-11-06T11:01:10Z</time>
      </trkpt>
      <trkpt lat="49.08228" lon="6.10984">
        <ele>195.4</ele>
        <time>2011-11-06T11:01:11Z</time>
      </trkpt>
      <trkpt lat="49.08235" lon="6.10994">
        <ele>195.8</ele>
        <time>2011-11-06T11:01:12Z</time>
      </trkpt>
      <trkpt lat="49.08241" lon="6.11003">
        <ele>196.3</ele>
        <time>2011-11-06T11:01:13Z</time>
      </trkpt>
      <trkpt lat="49.08248" lon="6.11013">
        <ele>195.8</ele>
        <time>2011-11-06T11:01:14Z</time>
      </trkpt>
      <trkpt lat="49.08254" lon="6.11021">
        <ele>195.7</ele>
        <time>2011-11-06T11:01:15Z</time>
      </trkpt>
      <trkpt lat="49.08261" lon="6.11031">
        <ele>195.2</ele>
        <time>2011-11-06T11:01:16Z</time>
      </trkpt>
      <trkpt lat="49.08266" lon="6.11038">
        <ele>196</ele>
        <time>2011-11-06T11:01:17Z</time>
      </trkpt>
      <trkpt lat="49.08272" lon="6.11046">
        <ele>196.4</ele>
        <time>2011-11-06T11:01:18Z</time>
      </trkpt>
      <trkpt lat="49.08277" lon="6.11054">
        <ele>196.8</ele>
        <time>2011-11-06T11:01:19Z</time>
      </trkpt>
      <trkpt lat="49.08284" lon="6.11064">
        <ele>196.6</ele>
        <time>2011-11-06T11:01:20Z</time>
      </trkpt>
      <trkpt lat="49.08292" lon="6.11077">
        <ele>195.3</ele>
        <time>2011-11-06T11:01:21Z</time>
      </trkpt>
      <trkpt lat="49.08298" lon="6.11086">
        <ele>195.2</ele>
        <time>2011-11-06T11:01:22Z</time>
      </trkpt>
      <trkpt lat="49.08304" lon="6.11094">
        <ele>195.3</ele>
        <time>2011-11-06T11:01:23Z</time>
      </trkpt>
      <trkpt lat="49.08309" lon="6.111">
        <ele>195.1</ele>
        <time>2011-11-06T11:01:24Z</time>
      </trkpt>
      <trkpt lat="49.08314" lon="6.11108">
        <ele>195.9</ele>
        <time>2011-11-06T11:01:25Z</time>
      </trkpt>
      <trkpt lat="49.0832" lon="6.11116">
        <ele>195.9</ele>
        <time>2011-11-06T11:01:26Z</time>
      </trkpt>
      <trkpt lat="49.08326" lon="6.11124">
        <ele>196.1</ele>
        <time>2011-11-06T11:01:27Z</time>
      </trkpt>
      <trkpt lat="49.08331" lon="6.11131">
        <ele>195.9</ele>
        <time>2011-11-06T11:01:28Z</time>
      </trkpt>
      <trkpt lat="49.08337" lon="6.11139">
        <ele>196.1</ele>
        <time>2011-11-06T11:01:29Z</time>
      </trkpt>
      <trkpt lat="49.08342" lon="6.11144">
        <ele>196.7</ele>
        <time>2011-11-06T11:01:30Z</time>
      </trkpt>
      <trkpt lat="49.08347" lon="6.11152">
        <ele>197</ele>
        <time>2011-11-06T11:01:31Z</time>
      </trkpt>
      <trkpt lat="49.08351" lon="6.11158">
        <ele>197.7</ele>
        <time>2011-11-06T11:01:32Z</time>
      </trkpt>
      <trkpt lat="49.08356" lon="6.11166">
        <ele>198</ele>
        <time>2011-11-06T11:01:33Z</time>
      </trkpt>
      <trkpt lat="49.08362" lon="6.11176">
        <ele>197.3</ele>
        <time>2011-11-06T11:01:34Z</time>
      </trkpt>
      <trkpt lat="49.08368" lon="6.11184">
        <ele>197.4</ele>
        <time>2011-11-06T11:01:35Z</time>
      </trkpt>
      <trkpt lat="49.08373" lon="6.1119">
        <ele>197.5</ele>
        <time>2011-11-06T11:01:36Z</time>
      </trkpt>
      <trkpt lat="49.08379" lon="6.11199">
        <ele>197.7</ele>
        <time>2011-11-06T11:01:37Z</time>
      </trkpt>
      <trkpt lat="49.08384" lon="6.11206">
        <ele>197.6</ele>
        <time>2011-11-06T11:01:38Z</time>
      </trkpt>
      <trkpt lat="49.08388" lon="6.11213">
        <ele>197.8</ele>
        <time>2011-11-06T11:01:39Z</time>
      </trkpt>
      <trkpt lat="49.08394" lon="6.11219">
        <ele>197.8</ele>
        <time>2011-11-06T11:01:40Z</time>
      </trkpt>
      <trkpt lat="49.08399" lon="6.11228">
        <ele>197.5</ele>
        <time>2011-11-06T11:01:41Z</time>
      </trkpt>
      <trkpt lat="49.08403" lon="6.11236">
        <ele>197.5</ele>
        <time>2011-11-06T11:01:42Z</time>
      </trkpt>
      <trkpt lat="49.08408" lon="6.11244">
        <ele>197.6</ele>
        <time>2011-11-06T11:01:43Z</time>
      </trkpt>
      <trkpt lat="49.08411" lon="6.11251">
        <ele>197.7</ele>
        <time>2011-11-06T11:01:44Z</time>
      </trkpt>
      <trkpt lat="49.08416" lon="6.11256">
        <ele>197.9</ele>
        <time>2011-11-06T11:01:45Z</time>
      </trkpt>
      <trkpt lat="49.0842" lon="6.11264">
        <ele>198</ele>
        <time>2011-11-06T11:01:46Z</time>
      </trkpt>
      <trkpt lat="49.08424" lon="6.11269">
        <ele>198.1</ele>
        <time>2011-11-06T11:01:47Z</time>
      </trkpt>
      <trkpt lat="49.08431" lon="6.11277">
        <ele>197.8</ele>
        <time>2011-11-06T11:01:49Z</time>
      </trkpt>
      <trkpt lat="49.08437" lon="6.11283">
        <ele>197.8</ele>
        <time>2011-11-06T11:01:51Z</time>
      </trkpt>
      <trkpt lat="49.08439" lon="6.11291">
        <ele>198.3</ele>
        <time>2011-11-06T11:01:52Z</time>
      </trkpt>
      <trkpt lat="49.08444" lon="6.11291">
        <ele>198.3</ele>
        <time>2011-11-06T11:01:54Z</time>
      </trkpt>
      <trkpt lat="49.08448" lon="6.1131">
        <ele>198.5</ele>
        <time>2011-11-06T11:01:58Z</time>
      </trkpt>
      <trkpt lat="49.08448" lon="6.11298">
        <ele>197.6</ele>
        <time>2011-11-06T11:02:02Z</time>
      </trkpt>
      <trkpt lat="49.08451" lon="6.11302">
        <ele>197.7</ele>
        <time>2011-11-06T11:02:06Z</time>
      </trkpt>
      <trkpt lat="49.08457" lon="6.11294">
        <ele>198</ele>
        <time>2011-11-06T11:02:08Z</time>
      </trkpt>
      <trkpt lat="49.08459" lon="6.11311">
        <ele>197.9</ele>
        <time>2011-11-06T11:02:17Z</time>
      </trkpt>
      <trkpt lat="49.08462" lon="6.11326">
        <ele>197</ele>
        <time>2011-11-06T11:02:18Z</time>
      </trkpt>
      <trkpt lat="49.08463" lon="6.11338">
        <ele>200.6</ele>
        <time>2011-11-06T11:02:20Z</time>
      </trkpt>
      <trkpt lat="49.08469" lon="6.11348">
        <ele>199</ele>
        <time>2011-11-06T11:02:21Z</time>
      </trkpt>
      <trkpt lat="49.08475" lon="6.11357">
        <ele>199.9</ele>
        <time>2011-11-06T11:02:22Z</time>
      </trkpt>
      <trkpt lat="49.0848" lon="6.11365">
        <ele>200.1</ele>
        <time>2011-11-06T11:02:23Z</time>
      </trkpt>
      <trkpt lat="49.08486" lon="6.11373">
        <ele>199.9</ele>
        <time>2011-11-06T11:02:24Z</time>
      </trkpt>
      <trkpt lat="49.08492" lon="6.11381">
        <ele>199.8</ele>
        <time>2011-11-06T11:02:25Z</time>
      </trkpt>
      <trkpt lat="49.08497" lon="6.11392">
        <ele>198.5</ele>
        <time>2011-11-06T11:02:26Z</time>
      </trkpt>
      <trkpt lat="49.08503" lon="6.11402">
        <ele>199.1</ele>
        <time>2011-11-06T11:02:27Z</time>
      </trkpt>
      <trkpt lat="49.0851" lon="6.11411">
        <ele>198</ele>
        <time>2011-11-06T11:02:28Z</time>
      </trkpt>
      <trkpt lat="49.08517" lon="6.11421">
        <ele>196.4</ele>
        <time>2011-11-06T11:02:29Z</time>
      </trkpt>
      <trkpt lat="49.08524" lon="6.11432">
        <ele>195.4</ele>
        <time>2011-11-06T11:02:30Z</time>
      </trkpt>
      <trkpt lat="49.0853" lon="6.11442">
        <ele>195.2</ele>
        <time>2011-11-06T11:02:31Z</time>
      </trkpt>
      <trkpt lat="49.08535" lon="6.11449">
        <ele>197.2</ele>
        <time>2011-11-06T11:02:32Z</time>
      </trkpt>
      <trkpt lat="49.08541" lon="6.11458">
        <ele>198.2</ele>
        <time>2011-11-06T11:02:33Z</time>
      </trkpt>
      <trkpt lat="49.08548" lon="6.11467">
        <ele>197.8</ele>
        <time>2011-11-06T11:02:34Z</time>
      </trkpt>
      <trkpt lat="49.08554" lon="6.11476">
        <ele>197.9</ele>
        <time>2011-11-06T11:02:35Z</time>
      </trkpt>
      <trkpt lat="49.0856" lon="6.11484">
        <ele>199.1</ele>
        <time>2011-11-06T11:02:36Z</time>
      </trkpt>
      <trkpt lat="49.08566" lon="6.11495">
        <ele>199.6</ele>
        <time>2011-11-06T11:02:37Z</time>
      </trkpt>
      <trkpt lat="49.0857" lon="6.11503">
        <ele>200.2</ele>
        <time>2011-11-06T11:02:38Z</time>
      </trkpt>
      <trkpt lat="49.08577" lon="6.11513">
        <ele>198.9</ele>
        <time>2011-11-06T11:02:39Z</time>
      </trkpt>
      <trkpt lat="49.08583" lon="6.11524">
        <ele>198.7</ele>
        <time>2011-11-06T11:02:40Z</time>
      </trkpt>
      <trkpt lat="49.08587" lon="6.11531">
        <ele>200.5</ele>
        <time>2011-11-06T11:02:41Z</time>
      </trkpt>
      <trkpt lat="49.08593" lon="6.11539">
        <ele>201</ele>
        <time>2011-11-06T11:02:42Z</time>
      </trkpt>
      <trkpt lat="49.08599" lon="6.11545">
        <ele>201.5</ele>
        <time>2011-11-06T11:02:43Z</time>
      </trkpt>
      <trkpt lat="49.08605" lon="6.11554">
        <ele>201.2</ele>
        <time>2011-11-06T11:02:44Z</time>
      </trkpt>
      <trkpt lat="49.0861" lon="6.11564">
        <ele>200.6</ele>
        <time>2011-11-06T11:02:45Z</time>
      </trkpt>
      <trkpt lat="49.08614" lon="6.11573">
        <ele>200.2</ele>
        <time>2011-11-06T11:02:46Z</time>
      </trkpt>
      <trkpt lat="49.08618" lon="6.11581">
        <ele>200.6</ele>
        <time>2011-11-06T11:02:47Z</time>
      </trkpt>
      <trkpt lat="49.08622" lon="6.1159">
        <ele>200.8</ele>
        <time>2011-11-06T11:02:48Z</time>
      </trkpt>
      <trkpt lat="49.0863" lon="6.11599">
        <ele>200.4</ele>
        <time>2011-11-06T11:02:49Z</time>
      </trkpt>
      <trkpt lat="49.08633" lon="6.11606">
        <ele>201.3</ele>
        <time>2011-11-06T11:02:50Z</time>
      </trkpt>
      <trkpt lat="49.08638" lon="6.11615">
        <ele>201.2</ele>
        <time>2011-11-06T11:02:51Z</time>
      </trkpt>
      <trkpt lat="49.08642" lon="6.11624">
        <ele>201.9</ele>
        <time>2011-11-06T11:02:52Z</time>
      </trkpt>
      <trkpt lat="49.0865" lon="6.11629">
        <ele>201.5</ele>
        <time>2011-11-06T11:02:53Z</time>
      </trkpt>
      <trkpt lat="49.08655" lon="6.11636">
        <ele>201</ele>
        <time>2011-11-06T11:02:54Z</time>
      </trkpt>
      <trkpt lat="49.08674" lon="6.11669">
        <ele>204.3</ele>
        <time>2011-11-06T11:02:58Z</time>
      </trkpt>
      <trkpt lat="49.0868" lon="6.11678">
        <ele>206.6</ele>
        <time>2011-11-06T11:02:59Z</time>
      </trkpt>
      <trkpt lat="49.08686" lon="6.11687">
        <ele>206.4</ele>
        <time>2011-11-06T11:03:00Z</time>
      </trkpt>
      <trkpt lat="49.08692" lon="6.11697">
        <ele>207</ele>
        <time>2011-11-06T11:03:01Z</time>
      </trkpt>
      <trkpt lat="49.08699" lon="6.11706">
        <ele>207.7</ele>
        <time>2011-11-06T11:03:02Z</time>
      </trkpt>
      <trkpt lat="49.08706" lon="6.11714">
        <ele>207.4</ele>
        <time>2011-11-06T11:03:03Z</time>
      </trkpt>
      <trkpt lat="49.08713" lon="6.11724">
        <ele>206.8</ele>
        <time>2011-11-06T11:03:04Z</time>
      </trkpt>
      <trkpt lat="49.08717" lon="6.11734">
        <ele>205.8</ele>
        <time>2011-11-06T11:03:05Z</time>
      </trkpt>
      <trkpt lat="49.08724" lon="6.11746">
        <ele>207</ele>
        <time>2011-11-06T11:03:06Z</time>
      </trkpt>
      <trkpt lat="49.0873" lon="6.11754">
        <ele>207.9</ele>
        <time>2011-11-06T11:03:07Z</time>
      </trkpt>
      <trkpt lat="49.08734" lon="6.11764">
        <ele>207.7</ele>
        <time>2011-11-06T11:03:08Z</time>
      </trkpt>
      <trkpt lat="49.08739" lon="6.11776">
        <ele>206.4</ele>
        <time>2011-11-06T11:03:09Z</time>
      </trkpt>
      <trkpt lat="49.08744" lon="6.11786">
        <ele>205.3</ele>
        <time>2011-11-06T11:03:10Z</time>
      </trkpt>
      <trkpt lat="49.08749" lon="6.11791">
        <ele>206.3</ele>
        <time>2011-11-06T11:03:11Z</time>
      </trkpt>
      <trkpt lat="49.08756" lon="6.11801">
        <ele>206</ele>
        <time>2011-11-06T11:03:12Z</time>
      </trkpt>
      <trkpt lat="49.08764" lon="6.11808">
        <ele>206</ele>
        <time>2011-11-06T11:03:13Z</time>
      </trkpt>
      <trkpt lat="49.08771" lon="6.11818">
        <ele>204.1</ele>
        <time>2011-11-06T11:03:14Z</time>
      </trkpt>
      <trkpt lat="49.08776" lon="6.11826">
        <ele>202.9</ele>
        <time>2011-11-06T11:03:15Z</time>
      </trkpt>
      <trkpt lat="49.08783" lon="6.11835">
        <ele>203</ele>
        <time>2011-11-06T11:03:16Z</time>
      </trkpt>
      <trkpt lat="49.08789" lon="6.11846">
        <ele>202.1</ele>
        <time>2011-11-06T11:03:17Z</time>
      </trkpt>
      <trkpt lat="49.08795" lon="6.11857">
        <ele>200.5</ele>
        <time>2011-11-06T11:03:18Z</time>
      </trkpt>
      <trkpt lat="49.088" lon="6.11867">
        <ele>200.6</ele>
        <time>2011-11-06T11:03:19Z</time>
      </trkpt>
      <trkpt lat="49.08805" lon="6.11879">
        <ele>199.4</ele>
        <time>2011-11-06T11:03:20Z</time>
      </trkpt>
      <trkpt lat="49.0881" lon="6.11891">
        <ele>198.7</ele>
        <time>2011-11-06T11:03:21Z</time>
      </trkpt>
      <trkpt lat="49.08816" lon="6.11903">
        <ele>197.3</ele>
        <time>2011-11-06T11:03:22Z</time>
      </trkpt>
      <trkpt lat="49.08821" lon="6.11915">
        <ele>197.4</ele>
        <time>2011-11-06T11:03:23Z</time>
      </trkpt>
      <trkpt lat="49.08826" lon="6.11927">
        <ele>198.1</ele>
        <time>2011-11-06T11:03:24Z</time>
      </trkpt>
      <trkpt lat="49.08831" lon="6.11937">
        <ele>197.2</ele>
        <time>2011-11-06T11:03:25Z</time>
      </trkpt>
      <trkpt lat="49.08836" lon="6.11949">
        <ele>196.6</ele>
        <time>2011-11-06T11:03:26Z</time>
      </trkpt>
      <trkpt lat="49.08842" lon="6.11959">
        <ele>197</ele>
        <time>2011-11-06T11:03:27Z</time>
      </trkpt>
      <trkpt lat="49.08842" lon="6.11975">
        <ele>200.4</ele>
        <time>2011-11-06T11:03:29Z</time>
      </trkpt>
      <trkpt lat="49.08844" lon="6.11986">
        <ele>201.2</ele>
        <time>2011-11-06T11:03:30Z</time>
      </trkpt>
      <trkpt lat="49.08844" lon="6.11995">
        <ele>203.3</ele>
        <time>2011-11-06T11:03:31Z</time>
      </trkpt>
      <trkpt lat="49.08845" lon="6.12003">
        <ele>204.8</ele>
        <time>2011-11-06T11:03:32Z</time>
      </trkpt>
      <trkpt lat="49.08846" lon="6.12013">
        <ele>206.1</ele>
        <time>2011-11-06T11:03:33Z</time>
      </trkpt>
      <trkpt lat="49.08845" lon="6.12021">
        <ele>207.3</ele>
        <time>2011-11-06T11:03:34Z</time>
      </trkpt>
      <trkpt lat="49.08845" lon="6.12031">
        <ele>208.1</ele>
        <time>2011-11-06T11:03:35Z</time>
      </trkpt>
      <trkpt lat="49.08849" lon="6.12044">
        <ele>208.3</ele>
        <time>2011-11-06T11:03:36Z</time>
      </trkpt>
      <trkpt lat="49.08851" lon="6.12054">
        <ele>209.4</ele>
        <time>2011-11-06T11:03:37Z</time>
      </trkpt>
      <trkpt lat="49.08852" lon="6.12065">
        <ele>209.2</ele>
        <time>2011-11-06T11:03:38Z</time>
      </trkpt>
      <trkpt lat="49.0885" lon="6.12075">
        <ele>213.1</ele>
        <time>2011-11-06T11:03:39Z</time>
      </trkpt>
      <trkpt lat="49.0885" lon="6.12084">
        <ele>214.5</ele>
        <time>2011-11-06T11:03:40Z</time>
      </trkpt>
      <trkpt lat="49.08854" lon="6.12096">
        <ele>213.7</ele>
        <time>2011-11-06T11:03:41Z</time>
      </trkpt>
      <trkpt lat="49.08856" lon="6.1211">
        <ele>213.7</ele>
        <time>2011-11-06T11:03:42Z</time>
      </trkpt>
      <trkpt lat="49.08859" lon="6.12122">
        <ele>213.3</ele>
        <time>2011-11-06T11:03:43Z</time>
      </trkpt>
      <trkpt lat="49.08862" lon="6.12134">
        <ele>213.6</ele>
        <time>2011-11-06T11:03:44Z</time>
      </trkpt>
      <trkpt lat="49.08866" lon="6.12146">
        <ele>213</ele>
        <time>2011-11-06T11:03:45Z</time>
      </trkpt>
      <trkpt lat="49.0887" lon="6.12158">
        <ele>212.6</ele>
        <time>2011-11-06T11:03:46Z</time>
      </trkpt>
      <trkpt lat="49.08873" lon="6.1217">
        <ele>212.3</ele>
        <time>2011-11-06T11:03:47Z</time>
      </trkpt>
      <trkpt lat="49.08875" lon="6.12182">
        <ele>212.2</ele>
        <time>2011-11-06T11:03:48Z</time>
      </trkpt>
      <trkpt lat="49.08878" lon="6.12192">
        <ele>212.8</ele>
        <time>2011-11-06T11:03:49Z</time>
      </trkpt>
      <trkpt lat="49.08881" lon="6.12203">
        <ele>212.7</ele>
        <time>2011-11-06T11:03:50Z</time>
      </trkpt>
      <trkpt lat="49.08882" lon="6.12214">
        <ele>213</ele>
        <time>2011-11-06T11:03:51Z</time>
      </trkpt>
      <trkpt lat="49.08885" lon="6.12227">
        <ele>213.3</ele>
        <time>2011-11-06T11:03:52Z</time>
      </trkpt>
      <trkpt lat="49.0889" lon="6.12238">
        <ele>212.7</ele>
        <time>2011-11-06T11:03:53Z</time>
      </trkpt>
      <trkpt lat="49.08894" lon="6.12253">
        <ele>212.3</ele>
        <time>2011-11-06T11:03:54Z</time>
      </trkpt>
      <trkpt lat="49.08898" lon="6.12264">
        <ele>211.8</ele>
        <time>2011-11-06T11:03:55Z</time>
      </trkpt>
      <trkpt lat="49.08911" lon="6.12299">
        <ele>211.9</ele>
        <time>2011-11-06T11:03:58Z</time>
      </trkpt>
      <trkpt lat="49.08916" lon="6.12315">
        <ele>212.3</ele>
        <time>2011-11-06T11:03:59Z</time>
      </trkpt>
      <trkpt lat="49.08919" lon="6.12323">
        <ele>212.2</ele>
        <time>2011-11-06T11:04:00Z</time>
      </trkpt>
      <trkpt lat="49.08924" lon="6.12342">
        <ele>212.2</ele>
        <time>2011-11-06T11:04:01Z</time>
      </trkpt>
      <trkpt lat="49.0893" lon="6.12356">
        <ele>212.3</ele>
        <time>2011-11-06T11:04:02Z</time>
      </trkpt>
      <trkpt lat="49.08937" lon="6.12374">
        <ele>212.4</ele>
        <time>2011-11-06T11:04:03Z</time>
      </trkpt>
      <trkpt lat="49.08943" lon="6.12394">
        <ele>212.5</ele>
        <time>2011-11-06T11:04:04Z</time>
      </trkpt>
      <trkpt lat="49.08951" lon="6.12405">
        <ele>212.1</ele>
        <time>2011-11-06T11:04:08Z</time>
      </trkpt>
      <trkpt lat="49.08955" lon="6.12421">
        <ele>211.9</ele>
        <time>2011-11-06T11:04:09Z</time>
      </trkpt>
      <trkpt lat="49.08959" lon="6.12438">
        <ele>212</ele>
        <time>2011-11-06T11:04:10Z</time>
      </trkpt>
      <trkpt lat="49.08967" lon="6.12445">
        <ele>212.1</ele>
        <time>2011-11-06T11:04:11Z</time>
      </trkpt>
      <trkpt lat="49.08971" lon="6.12455">
        <ele>212.2</ele>
        <time>2011-11-06T11:04:12Z</time>
      </trkpt>
      <trkpt lat="49.08976" lon="6.12468">
        <ele>212.3</ele>
        <time>2011-11-06T11:04:13Z</time>
      </trkpt>
      <trkpt lat="49.08981" lon="6.12483">
        <ele>212.2</ele>
        <time>2011-11-06T11:04:14Z</time>
      </trkpt>
      <trkpt lat="49.08986" lon="6.12499">
        <ele>212.1</ele>
        <time>2011-11-06T11:04:15Z</time>
      </trkpt>
      <trkpt lat="49.08991" lon="6.12513">
        <ele>211.9</ele>
        <time>2011-11-06T11:04:16Z</time>
      </trkpt>
      <trkpt lat="49.08995" lon="6.12522">
        <ele>212</ele>
        <time>2011-11-06T11:04:17Z</time>
      </trkpt>
      <trkpt lat="49.09" lon="6.12532">
        <ele>212.1</ele>
        <time>2011-11-06T11:04:18Z</time>
      </trkpt>
      <trkpt lat="49.09005" lon="6.12541">
        <ele>212</ele>
        <time>2011-11-06T11:04:19Z</time>
      </trkpt>
      <trkpt lat="49.09008" lon="6.12556">
        <ele>212.2</ele>
        <time>2011-11-06T11:04:20Z</time>
      </trkpt>
      <trkpt lat="49.09012" lon="6.12567">
        <ele>212.2</ele>
        <time>2011-11-06T11:04:21Z</time>
      </trkpt>
      <trkpt lat="49.09019" lon="6.1258">
        <ele>212.5</ele>
        <time>2011-11-06T11:04:22Z</time>
      </trkpt>
      <trkpt lat="49.09027" lon="6.1259">
        <ele>212.4</ele>
        <time>2011-11-06T11:04:23Z</time>
      </trkpt>
      <trkpt lat="49.09029" lon="6.12602">
        <ele>212</ele>
        <time>2011-11-06T11:04:24Z</time>
      </trkpt>
      <trkpt lat="49.09033" lon="6.12613">
        <ele>212</ele>
        <time>2011-11-06T11:04:25Z</time>
      </trkpt>
      <trkpt lat="49.09038" lon="6.12631">
        <ele>212.3</ele>
        <time>2011-11-06T11:04:26Z</time>
      </trkpt>
      <trkpt lat="49.09041" lon="6.12638">
        <ele>212.7</ele>
        <time>2011-11-06T11:04:28Z</time>
      </trkpt>
      <trkpt lat="49.09045" lon="6.12665">
        <ele>213.2</ele>
        <time>2011-11-06T11:04:30Z</time>
      </trkpt>
      <trkpt lat="49.09046" lon="6.12679">
        <ele>212.7</ele>
        <time>2011-11-06T11:04:31Z</time>
      </trkpt>
      <trkpt lat="49.09048" lon="6.12691">
        <ele>212.7</ele>
        <time>2011-11-06T11:04:32Z</time>
      </trkpt>
      <trkpt lat="49.09052" lon="6.12711">
        <ele>212.1</ele>
        <time>2011-11-06T11:04:33Z</time>
      </trkpt>
      <trkpt lat="49.09055" lon="6.12724">
        <ele>212.1</ele>
        <time>2011-11-06T11:04:34Z</time>
      </trkpt>
      <trkpt lat="49.09057" lon="6.12737">
        <ele>212</ele>
        <time>2011-11-06T11:04:35Z</time>
      </trkpt>
      <trkpt lat="49.09063" lon="6.12749">
        <ele>211.9</ele>
        <time>2011-11-06T11:04:36Z</time>
      </trkpt>
      <trkpt lat="49.09067" lon="6.12766">
        <ele>212.2</ele>
        <time>2011-11-06T11:04:37Z</time>
      </trkpt>
      <trkpt lat="49.0907" lon="6.1278">
        <ele>212.2</ele>
        <time>2011-11-06T11:04:38Z</time>
      </trkpt>
      <trkpt lat="49.09074" lon="6.12793">
        <ele>212.3</ele>
        <time>2011-11-06T11:04:39Z</time>
      </trkpt>
      <trkpt lat="49.09077" lon="6.12808">
        <ele>212.3</ele>
        <time>2011-11-06T11:04:40Z</time>
      </trkpt>
      <trkpt lat="49.09081" lon="6.12821">
        <ele>212.2</ele>
        <time>2011-11-06T11:04:41Z</time>
      </trkpt>
      <trkpt lat="49.09085" lon="6.12832">
        <ele>212.6</ele>
        <time>2011-11-06T11:04:43Z</time>
      </trkpt>
      <trkpt lat="49.09089" lon="6.12844">
        <ele>212.7</ele>
        <time>2011-11-06T11:04:44Z</time>
      </trkpt>
      <trkpt lat="49.09094" lon="6.12871">
        <ele>213.2</ele>
        <time>2011-11-06T11:04:45Z</time>
      </trkpt>
      <trkpt lat="49.091" lon="6.12886">
        <ele>214.1</ele>
        <time>2011-11-06T11:04:46Z</time>
      </trkpt>
      <trkpt lat="49.09104" lon="6.12899">
        <ele>214.1</ele>
        <time>2011-11-06T11:04:47Z</time>
      </trkpt>
      <trkpt lat="49.09108" lon="6.12914">
        <ele>213.7</ele>
        <time>2011-11-06T11:04:48Z</time>
      </trkpt>
      <trkpt lat="49.09108" lon="6.12926">
        <ele>213.7</ele>
        <time>2011-11-06T11:04:49Z</time>
      </trkpt>
      <trkpt lat="49.09112" lon="6.12945">
        <ele>213.6</ele>
        <time>2011-11-06T11:04:50Z</time>
      </trkpt>
      <trkpt lat="49.09115" lon="6.12959">
        <ele>213.6</ele>
        <time>2011-11-06T11:04:51Z</time>
      </trkpt>
      <trkpt lat="49.09117" lon="6.12974">
        <ele>214</ele>
        <time>2011-11-06T11:04:52Z</time>
      </trkpt>
      <trkpt lat="49.0912" lon="6.12987">
        <ele>214</ele>
        <time>2011-11-06T11:04:53Z</time>
      </trkpt>
      <trkpt lat="49.09122" lon="6.13008">
        <ele>214.5</ele>
        <time>2011-11-06T11:04:54Z</time>
      </trkpt>
      <trkpt lat="49.09125" lon="6.13023">
        <ele>214.5</ele>
        <time>2011-11-06T11:04:55Z</time>
      </trkpt>
      <trkpt lat="49.09142" lon="6.13048">
        <ele>206.8</ele>
        <time>2011-11-06T11:04:59Z</time>
      </trkpt>
      <trkpt lat="49.09152" lon="6.13052">
        <ele>209.7</ele>
        <time>2011-11-06T11:05:02Z</time>
      </trkpt>
      <trkpt lat="49.09157" lon="6.13055">
        <ele>212</ele>
        <time>2011-11-06T11:05:03Z</time>
      </trkpt>
      <trkpt lat="49.09163" lon="6.13058">
        <ele>212.5</ele>
        <time>2011-11-06T11:05:04Z</time>
      </trkpt>
      <trkpt lat="49.09171" lon="6.13065">
        <ele>212</ele>
        <time>2011-11-06T11:05:05Z</time>
      </trkpt>
      <trkpt lat="49.09178" lon="6.1307">
        <ele>211.9</ele>
        <time>2011-11-06T11:05:06Z</time>
      </trkpt>
      <trkpt lat="49.09186" lon="6.13078">
        <ele>211.3</ele>
        <time>2011-11-06T11:05:07Z</time>
      </trkpt>
      <trkpt lat="49.09193" lon="6.13083">
        <ele>211.3</ele>
        <time>2011-11-06T11:05:08Z</time>
      </trkpt>
      <trkpt lat="49.092" lon="6.13088">
        <ele>211.4</ele>
        <time>2011-11-06T11:05:09Z</time>
      </trkpt>
      <trkpt lat="49.09207" lon="6.13094">
        <ele>211.2</ele>
        <time>2011-11-06T11:05:10Z</time>
      </trkpt>
      <trkpt lat="49.09214" lon="6.13099">
        <ele>211.2</ele>
        <time>2011-11-06T11:05:11Z</time>
      </trkpt>
      <trkpt lat="49.09218" lon="6.13095">
        <ele>209.8</ele>
        <time>2011-11-06T11:05:12Z</time>
      </trkpt>
      <trkpt lat="49.09224" lon="6.13098">
        <ele>209.8</ele>
        <time>2011-11-06T11:05:13Z</time>
      </trkpt>
      <trkpt lat="49.09229" lon="6.13101">
        <ele>210.4</ele>
        <time>2011-11-06T11:05:14Z</time>
      </trkpt>
      <trkpt lat="49.0924" lon="6.13106">
        <ele>210.3</ele>
        <time>2011-11-06T11:05:16Z</time>
      </trkpt>
      <trkpt lat="49.09245" lon="6.1311">
        <ele>210.3</ele>
        <time>2011-11-06T11:05:17Z</time>
      </trkpt>
      <trkpt lat="49.09254" lon="6.13108">
        <ele>210.8</ele>
        <time>2011-11-06T11:05:20Z</time>
      </trkpt>
      <trkpt lat="49.09259" lon="6.1311">
        <ele>211.7</ele>
        <time>2011-11-06T11:05:22Z</time>
      </trkpt>
      <trkpt lat="49.09264" lon="6.13112">
        <ele>218.1</ele>
        <time>2011-11-06T11:05:50Z</time>
      </trkpt>
      <trkpt lat="49.09271" lon="6.13117">
        <ele>218.3</ele>
        <time>2011-11-06T11:05:52Z</time>
      </trkpt>
      <trkpt lat="49.09278" lon="6.13123">
        <ele>218</ele>
        <time>2011-11-06T11:05:54Z</time>
      </trkpt>
      <trkpt lat="49.09286" lon="6.13131">
        <ele>218.1</ele>
        <time>2011-11-06T11:05:55Z</time>
      </trkpt>
      <trkpt lat="49.09293" lon="6.13135">
        <ele>218.2</ele>
        <time>2011-11-06T11:05:56Z</time>
      </trkpt>
      <trkpt lat="49.09297" lon="6.13138">
        <ele>218.2</ele>
        <time>2011-11-06T11:05:57Z</time>
      </trkpt>
      <trkpt lat="49.09302" lon="6.13142">
        <ele>218.4</ele>
        <time>2011-11-06T11:05:58Z</time>
      </trkpt>
      <trkpt lat="49.09309" lon="6.13145">
        <ele>218.6</ele>
        <time>2011-11-06T11:05:59Z</time>
      </trkpt>
      <trkpt lat="49.09314" lon="6.13149">
        <ele>218.8</ele>
        <time>2011-11-06T11:06:00Z</time>
      </trkpt>
      <trkpt lat="49.09319" lon="6.13153">
        <ele>219</ele>
        <time>2011-11-06T11:06:01Z</time>
      </trkpt>
      <trkpt lat="49.09324" lon="6.13159">
        <ele>219.3</ele>
        <time>2011-11-06T11:06:02Z</time>
      </trkpt>
      <trkpt lat="49.09329" lon="6.13164">
        <ele>219.3</ele>
        <time>2011-11-06T11:06:03Z</time>
      </trkpt>
      <trkpt lat="49.09334" lon="6.13179">
        <ele>220.1</ele>
        <time>2011-11-06T11:06:04Z</time>
      </trkpt>
      <trkpt lat="49.09339" lon="6.13193">
        <ele>220.7</ele>
        <time>2011-11-06T11:06:05Z</time>
      </trkpt>
      <trkpt lat="49.09343" lon="6.132">
        <ele>220.6</ele>
        <time>2011-11-06T11:06:06Z</time>
      </trkpt>
      <trkpt lat="49.09348" lon="6.13207">
        <ele>220.8</ele>
        <time>2011-11-06T11:06:08Z</time>
      </trkpt>
      <trkpt lat="49.09352" lon="6.13212">
        <ele>221.2</ele>
        <time>2011-11-06T11:06:09Z</time>
      </trkpt>
      <trkpt lat="49.09355" lon="6.13218">
        <ele>221.1</ele>
        <time>2011-11-06T11:06:10Z</time>
      </trkpt>
      <trkpt lat="49.09357" lon="6.13208">
        <ele>221.1</ele>
        <time>2011-11-06T11:06:12Z</time>
      </trkpt>
      <trkpt lat="49.09362" lon="6.13215">
        <ele>220.6</ele>
        <time>2011-11-06T11:06:14Z</time>
      </trkpt>
      <trkpt lat="49.09365" lon="6.13211">
        <ele>220.7</ele>
        <time>2011-11-06T11:06:16Z</time>
      </trkpt>
      <trkpt lat="49.09368" lon="6.132">
        <ele>220.8</ele>
        <time>2011-11-06T11:06:18Z</time>
      </trkpt>
      <trkpt lat="49.0937" lon="6.13194">
        <ele>220.7</ele>
        <time>2011-11-06T11:06:19Z</time>
      </trkpt>
      <trkpt lat="49.09372" lon="6.13186">
        <ele>220.8</ele>
        <time>2011-11-06T11:06:20Z</time>
      </trkpt>
      <trkpt lat="49.09375" lon="6.13182">
        <ele>220.9</ele>
        <time>2011-11-06T11:06:22Z</time>
      </trkpt>
      <trkpt lat="49.09379" lon="6.13176">
        <ele>220.9</ele>
        <time>2011-11-06T11:06:24Z</time>
      </trkpt>
      <trkpt lat="49.09382" lon="6.13165">
        <ele>220.9</ele>
        <time>2011-11-06T11:06:26Z</time>
      </trkpt>
      <trkpt lat="49.09384" lon="6.13156">
        <ele>220.9</ele>
        <time>2011-11-06T11:06:27Z</time>
      </trkpt>
      <trkpt lat="49.09388" lon="6.13146">
        <ele>220.9</ele>
        <time>2011-11-06T11:06:29Z</time>
      </trkpt>
      <trkpt lat="49.09421" lon="6.13148">
        <ele>221.1</ele>
        <time>2011-11-06T11:06:30Z</time>
      </trkpt>
      <trkpt lat="49.09426" lon="6.13143">
        <ele>221.2</ele>
        <time>2011-11-06T11:06:31Z</time>
      </trkpt>
      <trkpt lat="49.09439" lon="6.13139">
        <ele>221.2</ele>
        <time>2011-11-06T11:06:32Z</time>
      </trkpt>
      <trkpt lat="49.09455" lon="6.13139">
        <ele>221.2</ele>
        <time>2011-11-06T11:06:33Z</time>
      </trkpt>
      <trkpt lat="49.09461" lon="6.13135">
        <ele>221.3</ele>
        <time>2011-11-06T11:06:34Z</time>
      </trkpt>
      <trkpt lat="49.09468" lon="6.13126">
        <ele>221.5</ele>
        <time>2011-11-06T11:06:35Z</time>
      </trkpt>
      <trkpt lat="49.09474" lon="6.13118">
        <ele>221.5</ele>
        <time>2011-11-06T11:06:36Z</time>
      </trkpt>
      <trkpt lat="49.0948" lon="6.13113">
        <ele>221.4</ele>
        <time>2011-11-06T11:06:37Z</time>
      </trkpt>
      <trkpt lat="49.09486" lon="6.13109">
        <ele>221.1</ele>
        <time>2011-11-06T11:06:38Z</time>
      </trkpt>
      <trkpt lat="49.09491" lon="6.13104">
        <ele>221.2</ele>
        <time>2011-11-06T11:06:39Z</time>
      </trkpt>
      <trkpt lat="49.09498" lon="6.1311">
        <ele>221.6</ele>
        <time>2011-11-06T11:06:42Z</time>
      </trkpt>
      <trkpt lat="49.09501" lon="6.13105">
        <ele>221</ele>
        <time>2011-11-06T11:06:43Z</time>
      </trkpt>
      <trkpt lat="49.09508" lon="6.13103">
        <ele>220.7</ele>
        <time>2011-11-06T11:06:45Z</time>
      </trkpt>
      <trkpt lat="49.09512" lon="6.13113">
        <ele>220.9</ele>
        <time>2011-11-06T11:06:46Z</time>
      </trkpt>
      <trkpt lat="49.09527" lon="6.13119">
        <ele>221.1</ele>
        <time>2011-11-06T11:06:47Z</time>
      </trkpt>
      <trkpt lat="49.09531" lon="6.13126">
        <ele>221.1</ele>
        <time>2011-11-06T11:06:48Z</time>
      </trkpt>
      <trkpt lat="49.09536" lon="6.13137">
        <ele>221.2</ele>
        <time>2011-11-06T11:06:49Z</time>
      </trkpt>
      <trkpt lat="49.09544" lon="6.13151">
        <ele>221.4</ele>
        <time>2011-11-06T11:06:50Z</time>
      </trkpt>
      <trkpt lat="49.09553" lon="6.13161">
        <ele>221.4</ele>
        <time>2011-11-06T11:06:51Z</time>
      </trkpt>
      <trkpt lat="49.09557" lon="6.13165">
        <ele>221.5</ele>
        <time>2011-11-06T11:06:52Z</time>
      </trkpt>
      <trkpt lat="49.09563" lon="6.13183">
        <ele>221.5</ele>
        <time>2011-11-06T11:06:53Z</time>
      </trkpt>
      <trkpt lat="49.09568" lon="6.13198">
        <ele>221.5</ele>
        <time>2011-11-06T11:06:54Z</time>
      </trkpt>
      <trkpt lat="49.09572" lon="6.13205">
        <ele>221.5</ele>
        <time>2011-11-06T11:06:55Z</time>
      </trkpt>
      <trkpt lat="49.09572" lon="6.13274">
        <ele>209.7</ele>
        <time>2011-11-06T11:06:59Z</time>
      </trkpt>
      <trkpt lat="49.09577" lon="6.13284">
        <ele>210</ele>
        <time>2011-11-06T11:07:00Z</time>
      </trkpt>
      <trkpt lat="49.09588" lon="6.13297">
        <ele>204.6</ele>
        <time>2011-11-06T11:07:01Z</time>
      </trkpt>
      <trkpt lat="49.09593" lon="6.13306">
        <ele>204.5</ele>
        <time>2011-11-06T11:07:02Z</time>
      </trkpt>
      <trkpt lat="49.09598" lon="6.13316">
        <ele>206.8</ele>
        <time>2011-11-06T11:07:03Z</time>
      </trkpt>
      <trkpt lat="49.09603" lon="6.13324">
        <ele>208</ele>
        <time>2011-11-06T11:07:04Z</time>
      </trkpt>
      <trkpt lat="49.09605" lon="6.13335">
        <ele>206.9</ele>
        <time>2011-11-06T11:07:05Z</time>
      </trkpt>
      <trkpt lat="49.09609" lon="6.13343">
        <ele>207</ele>
        <time>2011-11-06T11:07:06Z</time>
      </trkpt>
      <trkpt lat="49.09615" lon="6.13352">
        <ele>207.9</ele>
        <time>2011-11-06T11:07:07Z</time>
      </trkpt>
      <trkpt lat="49.09619" lon="6.1336">
        <ele>207.9</ele>
        <time>2011-11-06T11:07:08Z</time>
      </trkpt>
      <trkpt lat="49.09622" lon="6.1337">
        <ele>212.3</ele>
        <time>2011-11-06T11:07:10Z</time>
      </trkpt>
      <trkpt lat="49.09632" lon="6.13384">
        <ele>207.2</ele>
        <time>2011-11-06T11:07:11Z</time>
      </trkpt>
      <trkpt lat="49.09636" lon="6.1339">
        <ele>206.8</ele>
        <time>2011-11-06T11:07:12Z</time>
      </trkpt>
      <trkpt lat="49.0964" lon="6.13399">
        <ele>207.7</ele>
        <time>2011-11-06T11:07:13Z</time>
      </trkpt>
      <trkpt lat="49.09647" lon="6.13408">
        <ele>206.2</ele>
        <time>2011-11-06T11:07:14Z</time>
      </trkpt>
      <trkpt lat="49.09651" lon="6.13414">
        <ele>205.8</ele>
        <time>2011-11-06T11:07:15Z</time>
      </trkpt>
      <trkpt lat="49.09654" lon="6.13426">
        <ele>207.8</ele>
        <time>2011-11-06T11:07:17Z</time>
      </trkpt>
      <trkpt lat="49.09657" lon="6.13432">
        <ele>208.5</ele>
        <time>2011-11-06T11:07:18Z</time>
      </trkpt>
      <trkpt lat="49.0966" lon="6.13438">
        <ele>208.8</ele>
        <time>2011-11-06T11:07:19Z</time>
      </trkpt>
      <trkpt lat="49.09665" lon="6.13444">
        <ele>209.2</ele>
        <time>2011-11-06T11:07:20Z</time>
      </trkpt>
      <trkpt lat="49.09669" lon="6.13448">
        <ele>209.7</ele>
        <time>2011-11-06T11:07:21Z</time>
      </trkpt>
      <trkpt lat="49.09672" lon="6.13454">
        <ele>210</ele>
        <time>2011-11-06T11:07:25Z</time>
      </trkpt>
      <trkpt lat="49.09677" lon="6.13455">
        <ele>209.2</ele>
        <time>2011-11-06T11:07:27Z</time>
      </trkpt>
      <trkpt lat="49.09683" lon="6.13451">
        <ele>207.8</ele>
        <time>2011-11-06T11:07:28Z</time>
      </trkpt>
      <trkpt lat="49.09688" lon="6.13448">
        <ele>207.1</ele>
        <time>2011-11-06T11:07:30Z</time>
      </trkpt>
      <trkpt lat="49.09692" lon="6.13444">
        <ele>207.3</ele>
        <time>2011-11-06T11:07:32Z</time>
      </trkpt>
      <trkpt lat="49.09688" lon="6.13447">
        <ele>205.5</ele>
        <time>2011-11-06T11:07:43Z</time>
      </trkpt>
    </trkseg>
  </trk>
</gpx>